<?xml version="1.0" encoding="UTF-8"?>
<gpx xmlns="http://www.topografix.com/GPX/1/1"
     creator="GpsDumpMac 0.29"
     version="1.1"
     xmlns:xsi="http://www.w3.org/2001/XMLSchema-instance"
     xsi:schemaLocation="http://www.topografix.com/GPX/1/1 http://www.topografix.com/GPX/1/1/gpx.xsd">
  <metadata>
    <link href="http://www.gethome.no/stein.sorensen/">
      <text>GPS dump for www.flightlog.org</text>
    </link>
    <time>2018-09-04T07:46:29Z</time>
    <bounds minlat="40.246717" minlon="-4.913217" maxlat="40.476850" maxlon="-4.810333"/>
  </metadata>
  <trk>
    <name>Track 001</name>
    <trkseg>
      <trkpt lat="40.256333" lon="-4.903167">
        <ele>1252.0</ele>
        <time>2018-06-23T12:23:07Z</time>
      </trkpt>
      <trkpt lat="40.256367" lon="-4.903083">
        <ele>1252.0</ele>
        <time>2018-06-23T12:23:08Z</time>
      </trkpt>
      <trkpt lat="40.256383" lon="-4.903017">
        <ele>1252.0</ele>
        <time>2018-06-23T12:23:09Z</time>
      </trkpt>
      <trkpt lat="40.256400" lon="-4.902933">
        <ele>1253.0</ele>
        <time>2018-06-23T12:23:10Z</time>
      </trkpt>
      <trkpt lat="40.256433" lon="-4.902850">
        <ele>1253.0</ele>
        <time>2018-06-23T12:23:11Z</time>
      </trkpt>
      <trkpt lat="40.256450" lon="-4.902750">
        <ele>1253.0</ele>
        <time>2018-06-23T12:23:12Z</time>
      </trkpt>
      <trkpt lat="40.256483" lon="-4.902650">
        <ele>1253.0</ele>
        <time>2018-06-23T12:23:13Z</time>
      </trkpt>
      <trkpt lat="40.256517" lon="-4.902567">
        <ele>1254.0</ele>
        <time>2018-06-23T12:23:14Z</time>
      </trkpt>
      <trkpt lat="40.256533" lon="-4.902467">
        <ele>1256.0</ele>
        <time>2018-06-23T12:23:15Z</time>
      </trkpt>
      <trkpt lat="40.256567" lon="-4.902383">
        <ele>1257.0</ele>
        <time>2018-06-23T12:23:16Z</time>
      </trkpt>
      <trkpt lat="40.256567" lon="-4.902300">
        <ele>1258.0</ele>
        <time>2018-06-23T12:23:17Z</time>
      </trkpt>
      <trkpt lat="40.256550" lon="-4.902217">
        <ele>1258.0</ele>
        <time>2018-06-23T12:23:18Z</time>
      </trkpt>
      <trkpt lat="40.256533" lon="-4.902133">
        <ele>1259.0</ele>
        <time>2018-06-23T12:23:19Z</time>
      </trkpt>
      <trkpt lat="40.256517" lon="-4.902033">
        <ele>1260.0</ele>
        <time>2018-06-23T12:23:20Z</time>
      </trkpt>
      <trkpt lat="40.256483" lon="-4.901967">
        <ele>1261.0</ele>
        <time>2018-06-23T12:23:21Z</time>
      </trkpt>
      <trkpt lat="40.256450" lon="-4.901900">
        <ele>1263.0</ele>
        <time>2018-06-23T12:23:22Z</time>
      </trkpt>
      <trkpt lat="40.256400" lon="-4.901867">
        <ele>1263.0</ele>
        <time>2018-06-23T12:23:23Z</time>
      </trkpt>
      <trkpt lat="40.256350" lon="-4.901850">
        <ele>1261.0</ele>
        <time>2018-06-23T12:23:24Z</time>
      </trkpt>
      <trkpt lat="40.256250" lon="-4.901867">
        <ele>1259.0</ele>
        <time>2018-06-23T12:23:25Z</time>
      </trkpt>
      <trkpt lat="40.256133" lon="-4.901933">
        <ele>1257.0</ele>
        <time>2018-06-23T12:23:26Z</time>
      </trkpt>
      <trkpt lat="40.256050" lon="-4.902033">
        <ele>1257.0</ele>
        <time>2018-06-23T12:23:27Z</time>
      </trkpt>
      <trkpt lat="40.255983" lon="-4.902183">
        <ele>1257.0</ele>
        <time>2018-06-23T12:23:28Z</time>
      </trkpt>
      <trkpt lat="40.255967" lon="-4.902333">
        <ele>1255.0</ele>
        <time>2018-06-23T12:23:29Z</time>
      </trkpt>
      <trkpt lat="40.256000" lon="-4.902483">
        <ele>1253.0</ele>
        <time>2018-06-23T12:23:30Z</time>
      </trkpt>
      <trkpt lat="40.256067" lon="-4.902583">
        <ele>1251.0</ele>
        <time>2018-06-23T12:23:31Z</time>
      </trkpt>
      <trkpt lat="40.256150" lon="-4.902683">
        <ele>1250.0</ele>
        <time>2018-06-23T12:23:32Z</time>
      </trkpt>
      <trkpt lat="40.256217" lon="-4.902783">
        <ele>1250.0</ele>
        <time>2018-06-23T12:23:33Z</time>
      </trkpt>
      <trkpt lat="40.256300" lon="-4.902900">
        <ele>1252.0</ele>
        <time>2018-06-23T12:23:34Z</time>
      </trkpt>
      <trkpt lat="40.256350" lon="-4.903000">
        <ele>1254.0</ele>
        <time>2018-06-23T12:23:35Z</time>
      </trkpt>
      <trkpt lat="40.256400" lon="-4.903117">
        <ele>1256.0</ele>
        <time>2018-06-23T12:23:36Z</time>
      </trkpt>
      <trkpt lat="40.256467" lon="-4.903217">
        <ele>1258.0</ele>
        <time>2018-06-23T12:23:37Z</time>
      </trkpt>
      <trkpt lat="40.256517" lon="-4.903317">
        <ele>1259.0</ele>
        <time>2018-06-23T12:23:38Z</time>
      </trkpt>
      <trkpt lat="40.256583" lon="-4.903400">
        <ele>1260.0</ele>
        <time>2018-06-23T12:23:39Z</time>
      </trkpt>
      <trkpt lat="40.256650" lon="-4.903417">
        <ele>1259.0</ele>
        <time>2018-06-23T12:23:40Z</time>
      </trkpt>
      <trkpt lat="40.256733" lon="-4.903417">
        <ele>1258.0</ele>
        <time>2018-06-23T12:23:41Z</time>
      </trkpt>
      <trkpt lat="40.256783" lon="-4.903350">
        <ele>1256.0</ele>
        <time>2018-06-23T12:23:42Z</time>
      </trkpt>
      <trkpt lat="40.256817" lon="-4.903267">
        <ele>1254.0</ele>
        <time>2018-06-23T12:23:43Z</time>
      </trkpt>
      <trkpt lat="40.256783" lon="-4.903167">
        <ele>1252.0</ele>
        <time>2018-06-23T12:23:44Z</time>
      </trkpt>
      <trkpt lat="40.256717" lon="-4.903100">
        <ele>1251.0</ele>
        <time>2018-06-23T12:23:45Z</time>
      </trkpt>
      <trkpt lat="40.256633" lon="-4.903067">
        <ele>1252.0</ele>
        <time>2018-06-23T12:23:46Z</time>
      </trkpt>
      <trkpt lat="40.256550" lon="-4.903050">
        <ele>1253.0</ele>
        <time>2018-06-23T12:23:47Z</time>
      </trkpt>
      <trkpt lat="40.256467" lon="-4.903050">
        <ele>1254.0</ele>
        <time>2018-06-23T12:23:48Z</time>
      </trkpt>
      <trkpt lat="40.256367" lon="-4.903050">
        <ele>1254.0</ele>
        <time>2018-06-23T12:23:49Z</time>
      </trkpt>
      <trkpt lat="40.256283" lon="-4.903050">
        <ele>1255.0</ele>
        <time>2018-06-23T12:23:50Z</time>
      </trkpt>
      <trkpt lat="40.256167" lon="-4.903067">
        <ele>1257.0</ele>
        <time>2018-06-23T12:23:51Z</time>
      </trkpt>
      <trkpt lat="40.256067" lon="-4.903100">
        <ele>1259.0</ele>
        <time>2018-06-23T12:23:52Z</time>
      </trkpt>
      <trkpt lat="40.255983" lon="-4.903167">
        <ele>1260.0</ele>
        <time>2018-06-23T12:23:53Z</time>
      </trkpt>
      <trkpt lat="40.255900" lon="-4.903217">
        <ele>1261.0</ele>
        <time>2018-06-23T12:23:54Z</time>
      </trkpt>
      <trkpt lat="40.255833" lon="-4.903250">
        <ele>1261.0</ele>
        <time>2018-06-23T12:23:55Z</time>
      </trkpt>
      <trkpt lat="40.255750" lon="-4.903233">
        <ele>1259.0</ele>
        <time>2018-06-23T12:23:56Z</time>
      </trkpt>
      <trkpt lat="40.255683" lon="-4.903217">
        <ele>1256.0</ele>
        <time>2018-06-23T12:23:57Z</time>
      </trkpt>
      <trkpt lat="40.255633" lon="-4.903167">
        <ele>1255.0</ele>
        <time>2018-06-23T12:23:58Z</time>
      </trkpt>
      <trkpt lat="40.255567" lon="-4.903117">
        <ele>1253.0</ele>
        <time>2018-06-23T12:23:59Z</time>
      </trkpt>
      <trkpt lat="40.255500" lon="-4.903050">
        <ele>1252.0</ele>
        <time>2018-06-23T12:24:00Z</time>
      </trkpt>
      <trkpt lat="40.255450" lon="-4.903000">
        <ele>1250.0</ele>
        <time>2018-06-23T12:24:01Z</time>
      </trkpt>
      <trkpt lat="40.255400" lon="-4.902933">
        <ele>1249.0</ele>
        <time>2018-06-23T12:24:02Z</time>
      </trkpt>
      <trkpt lat="40.255367" lon="-4.902850">
        <ele>1247.0</ele>
        <time>2018-06-23T12:24:03Z</time>
      </trkpt>
      <trkpt lat="40.255333" lon="-4.902767">
        <ele>1245.0</ele>
        <time>2018-06-23T12:24:04Z</time>
      </trkpt>
      <trkpt lat="40.255300" lon="-4.902683">
        <ele>1243.0</ele>
        <time>2018-06-23T12:24:05Z</time>
      </trkpt>
      <trkpt lat="40.255283" lon="-4.902600">
        <ele>1242.0</ele>
        <time>2018-06-23T12:24:06Z</time>
      </trkpt>
      <trkpt lat="40.255267" lon="-4.902517">
        <ele>1240.0</ele>
        <time>2018-06-23T12:24:07Z</time>
      </trkpt>
      <trkpt lat="40.255283" lon="-4.902433">
        <ele>1238.0</ele>
        <time>2018-06-23T12:24:08Z</time>
      </trkpt>
      <trkpt lat="40.255317" lon="-4.902350">
        <ele>1236.0</ele>
        <time>2018-06-23T12:24:09Z</time>
      </trkpt>
      <trkpt lat="40.255350" lon="-4.902267">
        <ele>1234.0</ele>
        <time>2018-06-23T12:24:10Z</time>
      </trkpt>
      <trkpt lat="40.255383" lon="-4.902167">
        <ele>1233.0</ele>
        <time>2018-06-23T12:24:11Z</time>
      </trkpt>
      <trkpt lat="40.255417" lon="-4.902050">
        <ele>1233.0</ele>
        <time>2018-06-23T12:24:12Z</time>
      </trkpt>
      <trkpt lat="40.255433" lon="-4.901950">
        <ele>1233.0</ele>
        <time>2018-06-23T12:24:13Z</time>
      </trkpt>
      <trkpt lat="40.255467" lon="-4.901850">
        <ele>1234.0</ele>
        <time>2018-06-23T12:24:14Z</time>
      </trkpt>
      <trkpt lat="40.255483" lon="-4.901767">
        <ele>1234.0</ele>
        <time>2018-06-23T12:24:15Z</time>
      </trkpt>
      <trkpt lat="40.255500" lon="-4.901650">
        <ele>1234.0</ele>
        <time>2018-06-23T12:24:16Z</time>
      </trkpt>
      <trkpt lat="40.255483" lon="-4.901533">
        <ele>1235.0</ele>
        <time>2018-06-23T12:24:17Z</time>
      </trkpt>
      <trkpt lat="40.255467" lon="-4.901433">
        <ele>1235.0</ele>
        <time>2018-06-23T12:24:18Z</time>
      </trkpt>
      <trkpt lat="40.255450" lon="-4.901350">
        <ele>1235.0</ele>
        <time>2018-06-23T12:24:19Z</time>
      </trkpt>
      <trkpt lat="40.255433" lon="-4.901283">
        <ele>1234.0</ele>
        <time>2018-06-23T12:24:20Z</time>
      </trkpt>
      <trkpt lat="40.255400" lon="-4.901217">
        <ele>1232.0</ele>
        <time>2018-06-23T12:24:21Z</time>
      </trkpt>
      <trkpt lat="40.255383" lon="-4.901133">
        <ele>1229.0</ele>
        <time>2018-06-23T12:24:22Z</time>
      </trkpt>
      <trkpt lat="40.255383" lon="-4.901033">
        <ele>1225.0</ele>
        <time>2018-06-23T12:24:23Z</time>
      </trkpt>
      <trkpt lat="40.255400" lon="-4.900917">
        <ele>1222.0</ele>
        <time>2018-06-23T12:24:24Z</time>
      </trkpt>
      <trkpt lat="40.255417" lon="-4.900783">
        <ele>1220.0</ele>
        <time>2018-06-23T12:24:25Z</time>
      </trkpt>
      <trkpt lat="40.255433" lon="-4.900667">
        <ele>1219.0</ele>
        <time>2018-06-23T12:24:26Z</time>
      </trkpt>
      <trkpt lat="40.255450" lon="-4.900567">
        <ele>1220.0</ele>
        <time>2018-06-23T12:24:27Z</time>
      </trkpt>
      <trkpt lat="40.255483" lon="-4.900483">
        <ele>1220.0</ele>
        <time>2018-06-23T12:24:28Z</time>
      </trkpt>
      <trkpt lat="40.255517" lon="-4.900417">
        <ele>1221.0</ele>
        <time>2018-06-23T12:24:29Z</time>
      </trkpt>
      <trkpt lat="40.255533" lon="-4.900317">
        <ele>1221.0</ele>
        <time>2018-06-23T12:24:30Z</time>
      </trkpt>
      <trkpt lat="40.255550" lon="-4.900217">
        <ele>1221.0</ele>
        <time>2018-06-23T12:24:31Z</time>
      </trkpt>
      <trkpt lat="40.255550" lon="-4.900100">
        <ele>1222.0</ele>
        <time>2018-06-23T12:24:32Z</time>
      </trkpt>
      <trkpt lat="40.255533" lon="-4.900000">
        <ele>1224.0</ele>
        <time>2018-06-23T12:24:33Z</time>
      </trkpt>
      <trkpt lat="40.255517" lon="-4.899933">
        <ele>1225.0</ele>
        <time>2018-06-23T12:24:34Z</time>
      </trkpt>
      <trkpt lat="40.255483" lon="-4.899867">
        <ele>1226.0</ele>
        <time>2018-06-23T12:24:35Z</time>
      </trkpt>
      <trkpt lat="40.255433" lon="-4.899817">
        <ele>1226.0</ele>
        <time>2018-06-23T12:24:36Z</time>
      </trkpt>
      <trkpt lat="40.255383" lon="-4.899767">
        <ele>1224.0</ele>
        <time>2018-06-23T12:24:37Z</time>
      </trkpt>
      <trkpt lat="40.255317" lon="-4.899700">
        <ele>1221.0</ele>
        <time>2018-06-23T12:24:38Z</time>
      </trkpt>
      <trkpt lat="40.255250" lon="-4.899617">
        <ele>1219.0</ele>
        <time>2018-06-23T12:24:39Z</time>
      </trkpt>
      <trkpt lat="40.255217" lon="-4.899517">
        <ele>1219.0</ele>
        <time>2018-06-23T12:24:40Z</time>
      </trkpt>
      <trkpt lat="40.255200" lon="-4.899433">
        <ele>1221.0</ele>
        <time>2018-06-23T12:24:41Z</time>
      </trkpt>
      <trkpt lat="40.255200" lon="-4.899367">
        <ele>1222.0</ele>
        <time>2018-06-23T12:24:42Z</time>
      </trkpt>
      <trkpt lat="40.255200" lon="-4.899300">
        <ele>1222.0</ele>
        <time>2018-06-23T12:24:43Z</time>
      </trkpt>
      <trkpt lat="40.255217" lon="-4.899250">
        <ele>1221.0</ele>
        <time>2018-06-23T12:24:44Z</time>
      </trkpt>
      <trkpt lat="40.255233" lon="-4.899167">
        <ele>1219.0</ele>
        <time>2018-06-23T12:24:45Z</time>
      </trkpt>
      <trkpt lat="40.255267" lon="-4.899083">
        <ele>1216.0</ele>
        <time>2018-06-23T12:24:46Z</time>
      </trkpt>
      <trkpt lat="40.255283" lon="-4.898983">
        <ele>1214.0</ele>
        <time>2018-06-23T12:24:47Z</time>
      </trkpt>
      <trkpt lat="40.255300" lon="-4.898883">
        <ele>1212.0</ele>
        <time>2018-06-23T12:24:48Z</time>
      </trkpt>
      <trkpt lat="40.255333" lon="-4.898783">
        <ele>1212.0</ele>
        <time>2018-06-23T12:24:49Z</time>
      </trkpt>
      <trkpt lat="40.255367" lon="-4.898717">
        <ele>1213.0</ele>
        <time>2018-06-23T12:24:50Z</time>
      </trkpt>
      <trkpt lat="40.255400" lon="-4.898617">
        <ele>1213.0</ele>
        <time>2018-06-23T12:24:51Z</time>
      </trkpt>
      <trkpt lat="40.255383" lon="-4.898517">
        <ele>1212.0</ele>
        <time>2018-06-23T12:24:52Z</time>
      </trkpt>
      <trkpt lat="40.255383" lon="-4.898417">
        <ele>1212.0</ele>
        <time>2018-06-23T12:24:53Z</time>
      </trkpt>
      <trkpt lat="40.255367" lon="-4.898317">
        <ele>1212.0</ele>
        <time>2018-06-23T12:24:54Z</time>
      </trkpt>
      <trkpt lat="40.255333" lon="-4.898217">
        <ele>1213.0</ele>
        <time>2018-06-23T12:24:55Z</time>
      </trkpt>
      <trkpt lat="40.255317" lon="-4.898117">
        <ele>1214.0</ele>
        <time>2018-06-23T12:24:56Z</time>
      </trkpt>
      <trkpt lat="40.255300" lon="-4.898017">
        <ele>1215.0</ele>
        <time>2018-06-23T12:24:57Z</time>
      </trkpt>
      <trkpt lat="40.255300" lon="-4.897933">
        <ele>1215.0</ele>
        <time>2018-06-23T12:24:58Z</time>
      </trkpt>
      <trkpt lat="40.255300" lon="-4.897867">
        <ele>1216.0</ele>
        <time>2018-06-23T12:24:59Z</time>
      </trkpt>
      <trkpt lat="40.255317" lon="-4.897800">
        <ele>1217.0</ele>
        <time>2018-06-23T12:25:00Z</time>
      </trkpt>
      <trkpt lat="40.255367" lon="-4.897750">
        <ele>1216.0</ele>
        <time>2018-06-23T12:25:01Z</time>
      </trkpt>
      <trkpt lat="40.255433" lon="-4.897700">
        <ele>1215.0</ele>
        <time>2018-06-23T12:25:02Z</time>
      </trkpt>
      <trkpt lat="40.255533" lon="-4.897683">
        <ele>1213.0</ele>
        <time>2018-06-23T12:25:03Z</time>
      </trkpt>
      <trkpt lat="40.255650" lon="-4.897717">
        <ele>1212.0</ele>
        <time>2018-06-23T12:25:04Z</time>
      </trkpt>
      <trkpt lat="40.255750" lon="-4.897800">
        <ele>1212.0</ele>
        <time>2018-06-23T12:25:05Z</time>
      </trkpt>
      <trkpt lat="40.255833" lon="-4.897917">
        <ele>1211.0</ele>
        <time>2018-06-23T12:25:06Z</time>
      </trkpt>
      <trkpt lat="40.255883" lon="-4.898067">
        <ele>1211.0</ele>
        <time>2018-06-23T12:25:07Z</time>
      </trkpt>
      <trkpt lat="40.255883" lon="-4.898233">
        <ele>1210.0</ele>
        <time>2018-06-23T12:25:08Z</time>
      </trkpt>
      <trkpt lat="40.255867" lon="-4.898383">
        <ele>1208.0</ele>
        <time>2018-06-23T12:25:09Z</time>
      </trkpt>
      <trkpt lat="40.255817" lon="-4.898517">
        <ele>1208.0</ele>
        <time>2018-06-23T12:25:10Z</time>
      </trkpt>
      <trkpt lat="40.255733" lon="-4.898600">
        <ele>1207.0</ele>
        <time>2018-06-23T12:25:11Z</time>
      </trkpt>
      <trkpt lat="40.255633" lon="-4.898633">
        <ele>1206.0</ele>
        <time>2018-06-23T12:25:12Z</time>
      </trkpt>
      <trkpt lat="40.255550" lon="-4.898650">
        <ele>1206.0</ele>
        <time>2018-06-23T12:25:13Z</time>
      </trkpt>
      <trkpt lat="40.255483" lon="-4.898617">
        <ele>1206.0</ele>
        <time>2018-06-23T12:25:14Z</time>
      </trkpt>
      <trkpt lat="40.255433" lon="-4.898567">
        <ele>1206.0</ele>
        <time>2018-06-23T12:25:15Z</time>
      </trkpt>
      <trkpt lat="40.255383" lon="-4.898517">
        <ele>1206.0</ele>
        <time>2018-06-23T12:25:16Z</time>
      </trkpt>
      <trkpt lat="40.255333" lon="-4.898483">
        <ele>1206.0</ele>
        <time>2018-06-23T12:25:17Z</time>
      </trkpt>
      <trkpt lat="40.255300" lon="-4.898417">
        <ele>1205.0</ele>
        <time>2018-06-23T12:25:18Z</time>
      </trkpt>
      <trkpt lat="40.255250" lon="-4.898367">
        <ele>1204.0</ele>
        <time>2018-06-23T12:25:19Z</time>
      </trkpt>
      <trkpt lat="40.255183" lon="-4.898317">
        <ele>1204.0</ele>
        <time>2018-06-23T12:25:20Z</time>
      </trkpt>
      <trkpt lat="40.255133" lon="-4.898250">
        <ele>1203.0</ele>
        <time>2018-06-23T12:25:21Z</time>
      </trkpt>
      <trkpt lat="40.255083" lon="-4.898217">
        <ele>1203.0</ele>
        <time>2018-06-23T12:25:22Z</time>
      </trkpt>
      <trkpt lat="40.255033" lon="-4.898167">
        <ele>1203.0</ele>
        <time>2018-06-23T12:25:23Z</time>
      </trkpt>
      <trkpt lat="40.255000" lon="-4.898100">
        <ele>1201.0</ele>
        <time>2018-06-23T12:25:24Z</time>
      </trkpt>
      <trkpt lat="40.254967" lon="-4.898033">
        <ele>1200.0</ele>
        <time>2018-06-23T12:25:25Z</time>
      </trkpt>
      <trkpt lat="40.254933" lon="-4.897950">
        <ele>1197.0</ele>
        <time>2018-06-23T12:25:26Z</time>
      </trkpt>
      <trkpt lat="40.254917" lon="-4.897867">
        <ele>1196.0</ele>
        <time>2018-06-23T12:25:27Z</time>
      </trkpt>
      <trkpt lat="40.254917" lon="-4.897783">
        <ele>1196.0</ele>
        <time>2018-06-23T12:25:28Z</time>
      </trkpt>
      <trkpt lat="40.254917" lon="-4.897700">
        <ele>1195.0</ele>
        <time>2018-06-23T12:25:29Z</time>
      </trkpt>
      <trkpt lat="40.254917" lon="-4.897617">
        <ele>1194.0</ele>
        <time>2018-06-23T12:25:30Z</time>
      </trkpt>
      <trkpt lat="40.254917" lon="-4.897550">
        <ele>1192.0</ele>
        <time>2018-06-23T12:25:31Z</time>
      </trkpt>
      <trkpt lat="40.254933" lon="-4.897450">
        <ele>1190.0</ele>
        <time>2018-06-23T12:25:32Z</time>
      </trkpt>
      <trkpt lat="40.254967" lon="-4.897350">
        <ele>1188.0</ele>
        <time>2018-06-23T12:25:33Z</time>
      </trkpt>
      <trkpt lat="40.255000" lon="-4.897267">
        <ele>1187.0</ele>
        <time>2018-06-23T12:25:34Z</time>
      </trkpt>
      <trkpt lat="40.255033" lon="-4.897183">
        <ele>1186.0</ele>
        <time>2018-06-23T12:25:35Z</time>
      </trkpt>
      <trkpt lat="40.255083" lon="-4.897117">
        <ele>1185.0</ele>
        <time>2018-06-23T12:25:36Z</time>
      </trkpt>
      <trkpt lat="40.255133" lon="-4.897050">
        <ele>1184.0</ele>
        <time>2018-06-23T12:25:37Z</time>
      </trkpt>
      <trkpt lat="40.255183" lon="-4.896967">
        <ele>1183.0</ele>
        <time>2018-06-23T12:25:38Z</time>
      </trkpt>
      <trkpt lat="40.255217" lon="-4.896883">
        <ele>1180.0</ele>
        <time>2018-06-23T12:25:39Z</time>
      </trkpt>
      <trkpt lat="40.255267" lon="-4.896783">
        <ele>1179.0</ele>
        <time>2018-06-23T12:25:40Z</time>
      </trkpt>
      <trkpt lat="40.255300" lon="-4.896683">
        <ele>1179.0</ele>
        <time>2018-06-23T12:25:41Z</time>
      </trkpt>
      <trkpt lat="40.255333" lon="-4.896600">
        <ele>1180.0</ele>
        <time>2018-06-23T12:25:42Z</time>
      </trkpt>
      <trkpt lat="40.255333" lon="-4.896517">
        <ele>1181.0</ele>
        <time>2018-06-23T12:25:43Z</time>
      </trkpt>
      <trkpt lat="40.255333" lon="-4.896433">
        <ele>1181.0</ele>
        <time>2018-06-23T12:25:44Z</time>
      </trkpt>
      <trkpt lat="40.255317" lon="-4.896350">
        <ele>1181.0</ele>
        <time>2018-06-23T12:25:45Z</time>
      </trkpt>
      <trkpt lat="40.255283" lon="-4.896267">
        <ele>1179.0</ele>
        <time>2018-06-23T12:25:46Z</time>
      </trkpt>
      <trkpt lat="40.255250" lon="-4.896183">
        <ele>1180.0</ele>
        <time>2018-06-23T12:25:47Z</time>
      </trkpt>
      <trkpt lat="40.255233" lon="-4.896100">
        <ele>1180.0</ele>
        <time>2018-06-23T12:25:48Z</time>
      </trkpt>
      <trkpt lat="40.255200" lon="-4.896033">
        <ele>1179.0</ele>
        <time>2018-06-23T12:25:49Z</time>
      </trkpt>
      <trkpt lat="40.255183" lon="-4.895967">
        <ele>1178.0</ele>
        <time>2018-06-23T12:25:50Z</time>
      </trkpt>
      <trkpt lat="40.255167" lon="-4.895883">
        <ele>1177.0</ele>
        <time>2018-06-23T12:25:51Z</time>
      </trkpt>
      <trkpt lat="40.255150" lon="-4.895783">
        <ele>1175.0</ele>
        <time>2018-06-23T12:25:52Z</time>
      </trkpt>
      <trkpt lat="40.255150" lon="-4.895683">
        <ele>1173.0</ele>
        <time>2018-06-23T12:25:53Z</time>
      </trkpt>
      <trkpt lat="40.255133" lon="-4.895583">
        <ele>1173.0</ele>
        <time>2018-06-23T12:25:54Z</time>
      </trkpt>
      <trkpt lat="40.255117" lon="-4.895483">
        <ele>1173.0</ele>
        <time>2018-06-23T12:25:55Z</time>
      </trkpt>
      <trkpt lat="40.255083" lon="-4.895383">
        <ele>1173.0</ele>
        <time>2018-06-23T12:25:56Z</time>
      </trkpt>
      <trkpt lat="40.255050" lon="-4.895300">
        <ele>1173.0</ele>
        <time>2018-06-23T12:25:57Z</time>
      </trkpt>
      <trkpt lat="40.255017" lon="-4.895217">
        <ele>1173.0</ele>
        <time>2018-06-23T12:25:58Z</time>
      </trkpt>
      <trkpt lat="40.254983" lon="-4.895117">
        <ele>1173.0</ele>
        <time>2018-06-23T12:25:59Z</time>
      </trkpt>
      <trkpt lat="40.254950" lon="-4.895017">
        <ele>1173.0</ele>
        <time>2018-06-23T12:26:00Z</time>
      </trkpt>
      <trkpt lat="40.254900" lon="-4.894933">
        <ele>1175.0</ele>
        <time>2018-06-23T12:26:01Z</time>
      </trkpt>
      <trkpt lat="40.254833" lon="-4.894883">
        <ele>1176.0</ele>
        <time>2018-06-23T12:26:02Z</time>
      </trkpt>
      <trkpt lat="40.254767" lon="-4.894850">
        <ele>1177.0</ele>
        <time>2018-06-23T12:26:03Z</time>
      </trkpt>
      <trkpt lat="40.254683" lon="-4.894833">
        <ele>1178.0</ele>
        <time>2018-06-23T12:26:04Z</time>
      </trkpt>
      <trkpt lat="40.254617" lon="-4.894817">
        <ele>1179.0</ele>
        <time>2018-06-23T12:26:05Z</time>
      </trkpt>
      <trkpt lat="40.254533" lon="-4.894817">
        <ele>1180.0</ele>
        <time>2018-06-23T12:26:06Z</time>
      </trkpt>
      <trkpt lat="40.254467" lon="-4.894817">
        <ele>1180.0</ele>
        <time>2018-06-23T12:26:07Z</time>
      </trkpt>
      <trkpt lat="40.254383" lon="-4.894833">
        <ele>1179.0</ele>
        <time>2018-06-23T12:26:08Z</time>
      </trkpt>
      <trkpt lat="40.254283" lon="-4.894817">
        <ele>1178.0</ele>
        <time>2018-06-23T12:26:09Z</time>
      </trkpt>
      <trkpt lat="40.254200" lon="-4.894783">
        <ele>1177.0</ele>
        <time>2018-06-23T12:26:10Z</time>
      </trkpt>
      <trkpt lat="40.254117" lon="-4.894733">
        <ele>1176.0</ele>
        <time>2018-06-23T12:26:11Z</time>
      </trkpt>
      <trkpt lat="40.254033" lon="-4.894700">
        <ele>1177.0</ele>
        <time>2018-06-23T12:26:12Z</time>
      </trkpt>
      <trkpt lat="40.253950" lon="-4.894650">
        <ele>1176.0</ele>
        <time>2018-06-23T12:26:13Z</time>
      </trkpt>
      <trkpt lat="40.253883" lon="-4.894617">
        <ele>1176.0</ele>
        <time>2018-06-23T12:26:14Z</time>
      </trkpt>
      <trkpt lat="40.253817" lon="-4.894567">
        <ele>1174.0</ele>
        <time>2018-06-23T12:26:15Z</time>
      </trkpt>
      <trkpt lat="40.253750" lon="-4.894517">
        <ele>1172.0</ele>
        <time>2018-06-23T12:26:16Z</time>
      </trkpt>
      <trkpt lat="40.253683" lon="-4.894450">
        <ele>1170.0</ele>
        <time>2018-06-23T12:26:17Z</time>
      </trkpt>
      <trkpt lat="40.253617" lon="-4.894383">
        <ele>1169.0</ele>
        <time>2018-06-23T12:26:18Z</time>
      </trkpt>
      <trkpt lat="40.253550" lon="-4.894333">
        <ele>1167.0</ele>
        <time>2018-06-23T12:26:19Z</time>
      </trkpt>
      <trkpt lat="40.253483" lon="-4.894250">
        <ele>1166.0</ele>
        <time>2018-06-23T12:26:20Z</time>
      </trkpt>
      <trkpt lat="40.253417" lon="-4.894183">
        <ele>1164.0</ele>
        <time>2018-06-23T12:26:21Z</time>
      </trkpt>
      <trkpt lat="40.253350" lon="-4.894100">
        <ele>1164.0</ele>
        <time>2018-06-23T12:26:22Z</time>
      </trkpt>
      <trkpt lat="40.253283" lon="-4.894017">
        <ele>1164.0</ele>
        <time>2018-06-23T12:26:23Z</time>
      </trkpt>
      <trkpt lat="40.253217" lon="-4.893950">
        <ele>1165.0</ele>
        <time>2018-06-23T12:26:24Z</time>
      </trkpt>
      <trkpt lat="40.253150" lon="-4.893883">
        <ele>1165.0</ele>
        <time>2018-06-23T12:26:25Z</time>
      </trkpt>
      <trkpt lat="40.253067" lon="-4.893833">
        <ele>1165.0</ele>
        <time>2018-06-23T12:26:26Z</time>
      </trkpt>
      <trkpt lat="40.253000" lon="-4.893750">
        <ele>1165.0</ele>
        <time>2018-06-23T12:26:27Z</time>
      </trkpt>
      <trkpt lat="40.252950" lon="-4.893667">
        <ele>1166.0</ele>
        <time>2018-06-23T12:26:28Z</time>
      </trkpt>
      <trkpt lat="40.252900" lon="-4.893567">
        <ele>1167.0</ele>
        <time>2018-06-23T12:26:29Z</time>
      </trkpt>
      <trkpt lat="40.252883" lon="-4.893483">
        <ele>1169.0</ele>
        <time>2018-06-23T12:26:30Z</time>
      </trkpt>
      <trkpt lat="40.252883" lon="-4.893400">
        <ele>1170.0</ele>
        <time>2018-06-23T12:26:31Z</time>
      </trkpt>
      <trkpt lat="40.252900" lon="-4.893333">
        <ele>1170.0</ele>
        <time>2018-06-23T12:26:32Z</time>
      </trkpt>
      <trkpt lat="40.252967" lon="-4.893283">
        <ele>1169.0</ele>
        <time>2018-06-23T12:26:33Z</time>
      </trkpt>
      <trkpt lat="40.253050" lon="-4.893283">
        <ele>1168.0</ele>
        <time>2018-06-23T12:26:34Z</time>
      </trkpt>
      <trkpt lat="40.253133" lon="-4.893317">
        <ele>1167.0</ele>
        <time>2018-06-23T12:26:35Z</time>
      </trkpt>
      <trkpt lat="40.253200" lon="-4.893417">
        <ele>1166.0</ele>
        <time>2018-06-23T12:26:36Z</time>
      </trkpt>
      <trkpt lat="40.253250" lon="-4.893567">
        <ele>1165.0</ele>
        <time>2018-06-23T12:26:37Z</time>
      </trkpt>
      <trkpt lat="40.253250" lon="-4.893733">
        <ele>1164.0</ele>
        <time>2018-06-23T12:26:38Z</time>
      </trkpt>
      <trkpt lat="40.253200" lon="-4.893900">
        <ele>1163.0</ele>
        <time>2018-06-23T12:26:39Z</time>
      </trkpt>
      <trkpt lat="40.253117" lon="-4.894017">
        <ele>1162.0</ele>
        <time>2018-06-23T12:26:40Z</time>
      </trkpt>
      <trkpt lat="40.253017" lon="-4.894067">
        <ele>1162.0</ele>
        <time>2018-06-23T12:26:41Z</time>
      </trkpt>
      <trkpt lat="40.252900" lon="-4.894083">
        <ele>1161.0</ele>
        <time>2018-06-23T12:26:42Z</time>
      </trkpt>
      <trkpt lat="40.252800" lon="-4.894050">
        <ele>1161.0</ele>
        <time>2018-06-23T12:26:43Z</time>
      </trkpt>
      <trkpt lat="40.252717" lon="-4.893983">
        <ele>1161.0</ele>
        <time>2018-06-23T12:26:44Z</time>
      </trkpt>
      <trkpt lat="40.252633" lon="-4.893950">
        <ele>1162.0</ele>
        <time>2018-06-23T12:26:45Z</time>
      </trkpt>
      <trkpt lat="40.252533" lon="-4.893900">
        <ele>1163.0</ele>
        <time>2018-06-23T12:26:46Z</time>
      </trkpt>
      <trkpt lat="40.252450" lon="-4.893867">
        <ele>1163.0</ele>
        <time>2018-06-23T12:26:47Z</time>
      </trkpt>
      <trkpt lat="40.252350" lon="-4.893817">
        <ele>1163.0</ele>
        <time>2018-06-23T12:26:48Z</time>
      </trkpt>
      <trkpt lat="40.252250" lon="-4.893783">
        <ele>1163.0</ele>
        <time>2018-06-23T12:26:49Z</time>
      </trkpt>
      <trkpt lat="40.252150" lon="-4.893750">
        <ele>1163.0</ele>
        <time>2018-06-23T12:26:50Z</time>
      </trkpt>
      <trkpt lat="40.252033" lon="-4.893750">
        <ele>1163.0</ele>
        <time>2018-06-23T12:26:51Z</time>
      </trkpt>
      <trkpt lat="40.251933" lon="-4.893717">
        <ele>1164.0</ele>
        <time>2018-06-23T12:26:52Z</time>
      </trkpt>
      <trkpt lat="40.251833" lon="-4.893683">
        <ele>1166.0</ele>
        <time>2018-06-23T12:26:53Z</time>
      </trkpt>
      <trkpt lat="40.251783" lon="-4.893633">
        <ele>1169.0</ele>
        <time>2018-06-23T12:26:54Z</time>
      </trkpt>
      <trkpt lat="40.251733" lon="-4.893567">
        <ele>1172.0</ele>
        <time>2018-06-23T12:26:55Z</time>
      </trkpt>
      <trkpt lat="40.251717" lon="-4.893500">
        <ele>1173.0</ele>
        <time>2018-06-23T12:26:56Z</time>
      </trkpt>
      <trkpt lat="40.251717" lon="-4.893417">
        <ele>1174.0</ele>
        <time>2018-06-23T12:26:57Z</time>
      </trkpt>
      <trkpt lat="40.251750" lon="-4.893367">
        <ele>1174.0</ele>
        <time>2018-06-23T12:26:58Z</time>
      </trkpt>
      <trkpt lat="40.251817" lon="-4.893350">
        <ele>1173.0</ele>
        <time>2018-06-23T12:26:59Z</time>
      </trkpt>
      <trkpt lat="40.251900" lon="-4.893367">
        <ele>1171.0</ele>
        <time>2018-06-23T12:27:00Z</time>
      </trkpt>
      <trkpt lat="40.251983" lon="-4.893467">
        <ele>1169.0</ele>
        <time>2018-06-23T12:27:01Z</time>
      </trkpt>
      <trkpt lat="40.252050" lon="-4.893600">
        <ele>1168.0</ele>
        <time>2018-06-23T12:27:02Z</time>
      </trkpt>
      <trkpt lat="40.252067" lon="-4.893750">
        <ele>1168.0</ele>
        <time>2018-06-23T12:27:03Z</time>
      </trkpt>
      <trkpt lat="40.252050" lon="-4.893917">
        <ele>1167.0</ele>
        <time>2018-06-23T12:27:04Z</time>
      </trkpt>
      <trkpt lat="40.252000" lon="-4.894067">
        <ele>1167.0</ele>
        <time>2018-06-23T12:27:05Z</time>
      </trkpt>
      <trkpt lat="40.251933" lon="-4.894200">
        <ele>1167.0</ele>
        <time>2018-06-23T12:27:06Z</time>
      </trkpt>
      <trkpt lat="40.251850" lon="-4.894317">
        <ele>1168.0</ele>
        <time>2018-06-23T12:27:07Z</time>
      </trkpt>
      <trkpt lat="40.251750" lon="-4.894433">
        <ele>1168.0</ele>
        <time>2018-06-23T12:27:08Z</time>
      </trkpt>
      <trkpt lat="40.251667" lon="-4.894550">
        <ele>1169.0</ele>
        <time>2018-06-23T12:27:09Z</time>
      </trkpt>
      <trkpt lat="40.251600" lon="-4.894667">
        <ele>1171.0</ele>
        <time>2018-06-23T12:27:10Z</time>
      </trkpt>
      <trkpt lat="40.251550" lon="-4.894767">
        <ele>1172.0</ele>
        <time>2018-06-23T12:27:11Z</time>
      </trkpt>
      <trkpt lat="40.251483" lon="-4.894883">
        <ele>1173.0</ele>
        <time>2018-06-23T12:27:12Z</time>
      </trkpt>
      <trkpt lat="40.251417" lon="-4.894967">
        <ele>1173.0</ele>
        <time>2018-06-23T12:27:13Z</time>
      </trkpt>
      <trkpt lat="40.251350" lon="-4.895033">
        <ele>1172.0</ele>
        <time>2018-06-23T12:27:14Z</time>
      </trkpt>
      <trkpt lat="40.251250" lon="-4.895050">
        <ele>1171.0</ele>
        <time>2018-06-23T12:27:15Z</time>
      </trkpt>
      <trkpt lat="40.251133" lon="-4.895050">
        <ele>1169.0</ele>
        <time>2018-06-23T12:27:16Z</time>
      </trkpt>
      <trkpt lat="40.251050" lon="-4.895000">
        <ele>1168.0</ele>
        <time>2018-06-23T12:27:17Z</time>
      </trkpt>
      <trkpt lat="40.250983" lon="-4.894933">
        <ele>1168.0</ele>
        <time>2018-06-23T12:27:18Z</time>
      </trkpt>
      <trkpt lat="40.250967" lon="-4.894850">
        <ele>1167.0</ele>
        <time>2018-06-23T12:27:19Z</time>
      </trkpt>
      <trkpt lat="40.250950" lon="-4.894767">
        <ele>1164.0</ele>
        <time>2018-06-23T12:27:20Z</time>
      </trkpt>
      <trkpt lat="40.250950" lon="-4.894667">
        <ele>1163.0</ele>
        <time>2018-06-23T12:27:21Z</time>
      </trkpt>
      <trkpt lat="40.250933" lon="-4.894567">
        <ele>1163.0</ele>
        <time>2018-06-23T12:27:22Z</time>
      </trkpt>
      <trkpt lat="40.250900" lon="-4.894467">
        <ele>1163.0</ele>
        <time>2018-06-23T12:27:23Z</time>
      </trkpt>
      <trkpt lat="40.250867" lon="-4.894367">
        <ele>1163.0</ele>
        <time>2018-06-23T12:27:24Z</time>
      </trkpt>
      <trkpt lat="40.250817" lon="-4.894283">
        <ele>1163.0</ele>
        <time>2018-06-23T12:27:25Z</time>
      </trkpt>
      <trkpt lat="40.250767" lon="-4.894200">
        <ele>1165.0</ele>
        <time>2018-06-23T12:27:26Z</time>
      </trkpt>
      <trkpt lat="40.250733" lon="-4.894117">
        <ele>1167.0</ele>
        <time>2018-06-23T12:27:27Z</time>
      </trkpt>
      <trkpt lat="40.250717" lon="-4.894050">
        <ele>1170.0</ele>
        <time>2018-06-23T12:27:28Z</time>
      </trkpt>
      <trkpt lat="40.250683" lon="-4.894017">
        <ele>1172.0</ele>
        <time>2018-06-23T12:27:29Z</time>
      </trkpt>
      <trkpt lat="40.250650" lon="-4.893983">
        <ele>1172.0</ele>
        <time>2018-06-23T12:27:30Z</time>
      </trkpt>
      <trkpt lat="40.250600" lon="-4.893983">
        <ele>1171.0</ele>
        <time>2018-06-23T12:27:31Z</time>
      </trkpt>
      <trkpt lat="40.250533" lon="-4.893983">
        <ele>1170.0</ele>
        <time>2018-06-23T12:27:32Z</time>
      </trkpt>
      <trkpt lat="40.250450" lon="-4.894017">
        <ele>1169.0</ele>
        <time>2018-06-23T12:27:33Z</time>
      </trkpt>
      <trkpt lat="40.250383" lon="-4.894100">
        <ele>1168.0</ele>
        <time>2018-06-23T12:27:34Z</time>
      </trkpt>
      <trkpt lat="40.250333" lon="-4.894217">
        <ele>1168.0</ele>
        <time>2018-06-23T12:27:35Z</time>
      </trkpt>
      <trkpt lat="40.250300" lon="-4.894350">
        <ele>1168.0</ele>
        <time>2018-06-23T12:27:36Z</time>
      </trkpt>
      <trkpt lat="40.250300" lon="-4.894467">
        <ele>1168.0</ele>
        <time>2018-06-23T12:27:37Z</time>
      </trkpt>
      <trkpt lat="40.250350" lon="-4.894567">
        <ele>1167.0</ele>
        <time>2018-06-23T12:27:38Z</time>
      </trkpt>
      <trkpt lat="40.250417" lon="-4.894633">
        <ele>1165.0</ele>
        <time>2018-06-23T12:27:39Z</time>
      </trkpt>
      <trkpt lat="40.250517" lon="-4.894683">
        <ele>1163.0</ele>
        <time>2018-06-23T12:27:40Z</time>
      </trkpt>
      <trkpt lat="40.250617" lon="-4.894650">
        <ele>1162.0</ele>
        <time>2018-06-23T12:27:41Z</time>
      </trkpt>
      <trkpt lat="40.250700" lon="-4.894600">
        <ele>1162.0</ele>
        <time>2018-06-23T12:27:42Z</time>
      </trkpt>
      <trkpt lat="40.250767" lon="-4.894533">
        <ele>1164.0</ele>
        <time>2018-06-23T12:27:43Z</time>
      </trkpt>
      <trkpt lat="40.250800" lon="-4.894500">
        <ele>1165.0</ele>
        <time>2018-06-23T12:27:44Z</time>
      </trkpt>
      <trkpt lat="40.250833" lon="-4.894467">
        <ele>1165.0</ele>
        <time>2018-06-23T12:27:45Z</time>
      </trkpt>
      <trkpt lat="40.250867" lon="-4.894433">
        <ele>1165.0</ele>
        <time>2018-06-23T12:27:46Z</time>
      </trkpt>
      <trkpt lat="40.250900" lon="-4.894383">
        <ele>1164.0</ele>
        <time>2018-06-23T12:27:47Z</time>
      </trkpt>
      <trkpt lat="40.250917" lon="-4.894333">
        <ele>1162.0</ele>
        <time>2018-06-23T12:27:48Z</time>
      </trkpt>
      <trkpt lat="40.250900" lon="-4.894250">
        <ele>1160.0</ele>
        <time>2018-06-23T12:27:49Z</time>
      </trkpt>
      <trkpt lat="40.250850" lon="-4.894183">
        <ele>1158.0</ele>
        <time>2018-06-23T12:27:50Z</time>
      </trkpt>
      <trkpt lat="40.250767" lon="-4.894133">
        <ele>1156.0</ele>
        <time>2018-06-23T12:27:51Z</time>
      </trkpt>
      <trkpt lat="40.250683" lon="-4.894100">
        <ele>1155.0</ele>
        <time>2018-06-23T12:27:52Z</time>
      </trkpt>
      <trkpt lat="40.250600" lon="-4.894083">
        <ele>1156.0</ele>
        <time>2018-06-23T12:27:53Z</time>
      </trkpt>
      <trkpt lat="40.250517" lon="-4.894083">
        <ele>1157.0</ele>
        <time>2018-06-23T12:27:54Z</time>
      </trkpt>
      <trkpt lat="40.250433" lon="-4.894083">
        <ele>1157.0</ele>
        <time>2018-06-23T12:27:55Z</time>
      </trkpt>
      <trkpt lat="40.250350" lon="-4.894100">
        <ele>1157.0</ele>
        <time>2018-06-23T12:27:56Z</time>
      </trkpt>
      <trkpt lat="40.250250" lon="-4.894100">
        <ele>1157.0</ele>
        <time>2018-06-23T12:27:57Z</time>
      </trkpt>
      <trkpt lat="40.250167" lon="-4.894100">
        <ele>1156.0</ele>
        <time>2018-06-23T12:27:58Z</time>
      </trkpt>
      <trkpt lat="40.250067" lon="-4.894083">
        <ele>1155.0</ele>
        <time>2018-06-23T12:27:59Z</time>
      </trkpt>
      <trkpt lat="40.249967" lon="-4.894100">
        <ele>1156.0</ele>
        <time>2018-06-23T12:28:00Z</time>
      </trkpt>
      <trkpt lat="40.249867" lon="-4.894150">
        <ele>1159.0</ele>
        <time>2018-06-23T12:28:01Z</time>
      </trkpt>
      <trkpt lat="40.249783" lon="-4.894233">
        <ele>1160.0</ele>
        <time>2018-06-23T12:28:02Z</time>
      </trkpt>
      <trkpt lat="40.249717" lon="-4.894317">
        <ele>1161.0</ele>
        <time>2018-06-23T12:28:03Z</time>
      </trkpt>
      <trkpt lat="40.249650" lon="-4.894383">
        <ele>1161.0</ele>
        <time>2018-06-23T12:28:04Z</time>
      </trkpt>
      <trkpt lat="40.249567" lon="-4.894383">
        <ele>1159.0</ele>
        <time>2018-06-23T12:28:05Z</time>
      </trkpt>
      <trkpt lat="40.249467" lon="-4.894350">
        <ele>1157.0</ele>
        <time>2018-06-23T12:28:06Z</time>
      </trkpt>
      <trkpt lat="40.249400" lon="-4.894283">
        <ele>1157.0</ele>
        <time>2018-06-23T12:28:07Z</time>
      </trkpt>
      <trkpt lat="40.249333" lon="-4.894217">
        <ele>1159.0</ele>
        <time>2018-06-23T12:28:08Z</time>
      </trkpt>
      <trkpt lat="40.249283" lon="-4.894167">
        <ele>1162.0</ele>
        <time>2018-06-23T12:28:09Z</time>
      </trkpt>
      <trkpt lat="40.249250" lon="-4.894117">
        <ele>1164.0</ele>
        <time>2018-06-23T12:28:10Z</time>
      </trkpt>
      <trkpt lat="40.249233" lon="-4.894067">
        <ele>1165.0</ele>
        <time>2018-06-23T12:28:11Z</time>
      </trkpt>
      <trkpt lat="40.249233" lon="-4.894017">
        <ele>1166.0</ele>
        <time>2018-06-23T12:28:12Z</time>
      </trkpt>
      <trkpt lat="40.249267" lon="-4.893967">
        <ele>1165.0</ele>
        <time>2018-06-23T12:28:13Z</time>
      </trkpt>
      <trkpt lat="40.249333" lon="-4.893933">
        <ele>1164.0</ele>
        <time>2018-06-23T12:28:14Z</time>
      </trkpt>
      <trkpt lat="40.249433" lon="-4.893933">
        <ele>1164.0</ele>
        <time>2018-06-23T12:28:15Z</time>
      </trkpt>
      <trkpt lat="40.249517" lon="-4.893950">
        <ele>1165.0</ele>
        <time>2018-06-23T12:28:16Z</time>
      </trkpt>
      <trkpt lat="40.249600" lon="-4.893967">
        <ele>1166.0</ele>
        <time>2018-06-23T12:28:17Z</time>
      </trkpt>
      <trkpt lat="40.249650" lon="-4.893967">
        <ele>1167.0</ele>
        <time>2018-06-23T12:28:18Z</time>
      </trkpt>
      <trkpt lat="40.249717" lon="-4.893950">
        <ele>1167.0</ele>
        <time>2018-06-23T12:28:19Z</time>
      </trkpt>
      <trkpt lat="40.249767" lon="-4.893917">
        <ele>1166.0</ele>
        <time>2018-06-23T12:28:20Z</time>
      </trkpt>
      <trkpt lat="40.249817" lon="-4.893850">
        <ele>1166.0</ele>
        <time>2018-06-23T12:28:21Z</time>
      </trkpt>
      <trkpt lat="40.249867" lon="-4.893783">
        <ele>1167.0</ele>
        <time>2018-06-23T12:28:22Z</time>
      </trkpt>
      <trkpt lat="40.249900" lon="-4.893700">
        <ele>1168.0</ele>
        <time>2018-06-23T12:28:23Z</time>
      </trkpt>
      <trkpt lat="40.249917" lon="-4.893617">
        <ele>1170.0</ele>
        <time>2018-06-23T12:28:24Z</time>
      </trkpt>
      <trkpt lat="40.249933" lon="-4.893550">
        <ele>1171.0</ele>
        <time>2018-06-23T12:28:25Z</time>
      </trkpt>
      <trkpt lat="40.249933" lon="-4.893483">
        <ele>1171.0</ele>
        <time>2018-06-23T12:28:26Z</time>
      </trkpt>
      <trkpt lat="40.249950" lon="-4.893400">
        <ele>1170.0</ele>
        <time>2018-06-23T12:28:27Z</time>
      </trkpt>
      <trkpt lat="40.249967" lon="-4.893333">
        <ele>1170.0</ele>
        <time>2018-06-23T12:28:28Z</time>
      </trkpt>
      <trkpt lat="40.249983" lon="-4.893250">
        <ele>1168.0</ele>
        <time>2018-06-23T12:28:29Z</time>
      </trkpt>
      <trkpt lat="40.249983" lon="-4.893150">
        <ele>1168.0</ele>
        <time>2018-06-23T12:28:30Z</time>
      </trkpt>
      <trkpt lat="40.249983" lon="-4.893083">
        <ele>1167.0</ele>
        <time>2018-06-23T12:28:31Z</time>
      </trkpt>
      <trkpt lat="40.249967" lon="-4.893000">
        <ele>1167.0</ele>
        <time>2018-06-23T12:28:32Z</time>
      </trkpt>
      <trkpt lat="40.249967" lon="-4.892933">
        <ele>1166.0</ele>
        <time>2018-06-23T12:28:33Z</time>
      </trkpt>
      <trkpt lat="40.249967" lon="-4.892867">
        <ele>1163.0</ele>
        <time>2018-06-23T12:28:34Z</time>
      </trkpt>
      <trkpt lat="40.249967" lon="-4.892783">
        <ele>1161.0</ele>
        <time>2018-06-23T12:28:35Z</time>
      </trkpt>
      <trkpt lat="40.249967" lon="-4.892700">
        <ele>1158.0</ele>
        <time>2018-06-23T12:28:36Z</time>
      </trkpt>
      <trkpt lat="40.249950" lon="-4.892617">
        <ele>1156.0</ele>
        <time>2018-06-23T12:28:37Z</time>
      </trkpt>
      <trkpt lat="40.249950" lon="-4.892533">
        <ele>1154.0</ele>
        <time>2018-06-23T12:28:38Z</time>
      </trkpt>
      <trkpt lat="40.249933" lon="-4.892450">
        <ele>1153.0</ele>
        <time>2018-06-23T12:28:39Z</time>
      </trkpt>
      <trkpt lat="40.249933" lon="-4.892367">
        <ele>1151.0</ele>
        <time>2018-06-23T12:28:40Z</time>
      </trkpt>
      <trkpt lat="40.249917" lon="-4.892300">
        <ele>1150.0</ele>
        <time>2018-06-23T12:28:41Z</time>
      </trkpt>
      <trkpt lat="40.249900" lon="-4.892217">
        <ele>1147.0</ele>
        <time>2018-06-23T12:28:42Z</time>
      </trkpt>
      <trkpt lat="40.249867" lon="-4.892133">
        <ele>1145.0</ele>
        <time>2018-06-23T12:28:43Z</time>
      </trkpt>
      <trkpt lat="40.249850" lon="-4.892050">
        <ele>1144.0</ele>
        <time>2018-06-23T12:28:44Z</time>
      </trkpt>
      <trkpt lat="40.249833" lon="-4.891983">
        <ele>1143.0</ele>
        <time>2018-06-23T12:28:45Z</time>
      </trkpt>
      <trkpt lat="40.249833" lon="-4.891900">
        <ele>1142.0</ele>
        <time>2018-06-23T12:28:46Z</time>
      </trkpt>
      <trkpt lat="40.249817" lon="-4.891833">
        <ele>1140.0</ele>
        <time>2018-06-23T12:28:47Z</time>
      </trkpt>
      <trkpt lat="40.249800" lon="-4.891750">
        <ele>1138.0</ele>
        <time>2018-06-23T12:28:48Z</time>
      </trkpt>
      <trkpt lat="40.249800" lon="-4.891667">
        <ele>1136.0</ele>
        <time>2018-06-23T12:28:49Z</time>
      </trkpt>
      <trkpt lat="40.249817" lon="-4.891583">
        <ele>1135.0</ele>
        <time>2018-06-23T12:28:50Z</time>
      </trkpt>
      <trkpt lat="40.249850" lon="-4.891500">
        <ele>1134.0</ele>
        <time>2018-06-23T12:28:51Z</time>
      </trkpt>
      <trkpt lat="40.249867" lon="-4.891417">
        <ele>1134.0</ele>
        <time>2018-06-23T12:28:52Z</time>
      </trkpt>
      <trkpt lat="40.249867" lon="-4.891350">
        <ele>1134.0</ele>
        <time>2018-06-23T12:28:53Z</time>
      </trkpt>
      <trkpt lat="40.249867" lon="-4.891267">
        <ele>1133.0</ele>
        <time>2018-06-23T12:28:54Z</time>
      </trkpt>
      <trkpt lat="40.249867" lon="-4.891183">
        <ele>1132.0</ele>
        <time>2018-06-23T12:28:55Z</time>
      </trkpt>
      <trkpt lat="40.249850" lon="-4.891100">
        <ele>1130.0</ele>
        <time>2018-06-23T12:28:56Z</time>
      </trkpt>
      <trkpt lat="40.249850" lon="-4.891000">
        <ele>1129.0</ele>
        <time>2018-06-23T12:28:57Z</time>
      </trkpt>
      <trkpt lat="40.249850" lon="-4.890933">
        <ele>1128.0</ele>
        <time>2018-06-23T12:28:58Z</time>
      </trkpt>
      <trkpt lat="40.249867" lon="-4.890850">
        <ele>1127.0</ele>
        <time>2018-06-23T12:28:59Z</time>
      </trkpt>
      <trkpt lat="40.249867" lon="-4.890783">
        <ele>1126.0</ele>
        <time>2018-06-23T12:29:00Z</time>
      </trkpt>
      <trkpt lat="40.249867" lon="-4.890700">
        <ele>1123.0</ele>
        <time>2018-06-23T12:29:01Z</time>
      </trkpt>
      <trkpt lat="40.249850" lon="-4.890600">
        <ele>1121.0</ele>
        <time>2018-06-23T12:29:02Z</time>
      </trkpt>
      <trkpt lat="40.249817" lon="-4.890517">
        <ele>1120.0</ele>
        <time>2018-06-23T12:29:03Z</time>
      </trkpt>
      <trkpt lat="40.249817" lon="-4.890433">
        <ele>1119.0</ele>
        <time>2018-06-23T12:29:04Z</time>
      </trkpt>
      <trkpt lat="40.249800" lon="-4.890367">
        <ele>1119.0</ele>
        <time>2018-06-23T12:29:05Z</time>
      </trkpt>
      <trkpt lat="40.249817" lon="-4.890283">
        <ele>1118.0</ele>
        <time>2018-06-23T12:29:06Z</time>
      </trkpt>
      <trkpt lat="40.249817" lon="-4.890200">
        <ele>1118.0</ele>
        <time>2018-06-23T12:29:07Z</time>
      </trkpt>
      <trkpt lat="40.249833" lon="-4.890100">
        <ele>1119.0</ele>
        <time>2018-06-23T12:29:08Z</time>
      </trkpt>
      <trkpt lat="40.249850" lon="-4.890017">
        <ele>1121.0</ele>
        <time>2018-06-23T12:29:09Z</time>
      </trkpt>
      <trkpt lat="40.249850" lon="-4.889933">
        <ele>1123.0</ele>
        <time>2018-06-23T12:29:10Z</time>
      </trkpt>
      <trkpt lat="40.249833" lon="-4.889867">
        <ele>1125.0</ele>
        <time>2018-06-23T12:29:11Z</time>
      </trkpt>
      <trkpt lat="40.249783" lon="-4.889817">
        <ele>1125.0</ele>
        <time>2018-06-23T12:29:12Z</time>
      </trkpt>
      <trkpt lat="40.249700" lon="-4.889783">
        <ele>1124.0</ele>
        <time>2018-06-23T12:29:13Z</time>
      </trkpt>
      <trkpt lat="40.249600" lon="-4.889800">
        <ele>1123.0</ele>
        <time>2018-06-23T12:29:14Z</time>
      </trkpt>
      <trkpt lat="40.249500" lon="-4.889850">
        <ele>1124.0</ele>
        <time>2018-06-23T12:29:15Z</time>
      </trkpt>
      <trkpt lat="40.249417" lon="-4.889950">
        <ele>1125.0</ele>
        <time>2018-06-23T12:29:16Z</time>
      </trkpt>
      <trkpt lat="40.249367" lon="-4.890083">
        <ele>1126.0</ele>
        <time>2018-06-23T12:29:17Z</time>
      </trkpt>
      <trkpt lat="40.249350" lon="-4.890250">
        <ele>1126.0</ele>
        <time>2018-06-23T12:29:18Z</time>
      </trkpt>
      <trkpt lat="40.249367" lon="-4.890417">
        <ele>1126.0</ele>
        <time>2018-06-23T12:29:19Z</time>
      </trkpt>
      <trkpt lat="40.249433" lon="-4.890567">
        <ele>1127.0</ele>
        <time>2018-06-23T12:29:20Z</time>
      </trkpt>
      <trkpt lat="40.249533" lon="-4.890683">
        <ele>1128.0</ele>
        <time>2018-06-23T12:29:21Z</time>
      </trkpt>
      <trkpt lat="40.249650" lon="-4.890750">
        <ele>1129.0</ele>
        <time>2018-06-23T12:29:22Z</time>
      </trkpt>
      <trkpt lat="40.249750" lon="-4.890767">
        <ele>1132.0</ele>
        <time>2018-06-23T12:29:23Z</time>
      </trkpt>
      <trkpt lat="40.249850" lon="-4.890767">
        <ele>1134.0</ele>
        <time>2018-06-23T12:29:24Z</time>
      </trkpt>
      <trkpt lat="40.249933" lon="-4.890750">
        <ele>1137.0</ele>
        <time>2018-06-23T12:29:25Z</time>
      </trkpt>
      <trkpt lat="40.250000" lon="-4.890750">
        <ele>1138.0</ele>
        <time>2018-06-23T12:29:26Z</time>
      </trkpt>
      <trkpt lat="40.250067" lon="-4.890750">
        <ele>1139.0</ele>
        <time>2018-06-23T12:29:27Z</time>
      </trkpt>
      <trkpt lat="40.250133" lon="-4.890717">
        <ele>1139.0</ele>
        <time>2018-06-23T12:29:28Z</time>
      </trkpt>
      <trkpt lat="40.250167" lon="-4.890667">
        <ele>1138.0</ele>
        <time>2018-06-23T12:29:29Z</time>
      </trkpt>
      <trkpt lat="40.250183" lon="-4.890583">
        <ele>1134.0</ele>
        <time>2018-06-23T12:29:30Z</time>
      </trkpt>
      <trkpt lat="40.250167" lon="-4.890500">
        <ele>1131.0</ele>
        <time>2018-06-23T12:29:31Z</time>
      </trkpt>
      <trkpt lat="40.250133" lon="-4.890417">
        <ele>1129.0</ele>
        <time>2018-06-23T12:29:32Z</time>
      </trkpt>
      <trkpt lat="40.250083" lon="-4.890350">
        <ele>1127.0</ele>
        <time>2018-06-23T12:29:33Z</time>
      </trkpt>
      <trkpt lat="40.250033" lon="-4.890283">
        <ele>1126.0</ele>
        <time>2018-06-23T12:29:34Z</time>
      </trkpt>
      <trkpt lat="40.249950" lon="-4.890217">
        <ele>1125.0</ele>
        <time>2018-06-23T12:29:35Z</time>
      </trkpt>
      <trkpt lat="40.249900" lon="-4.890133">
        <ele>1126.0</ele>
        <time>2018-06-23T12:29:36Z</time>
      </trkpt>
      <trkpt lat="40.249850" lon="-4.890067">
        <ele>1126.0</ele>
        <time>2018-06-23T12:29:37Z</time>
      </trkpt>
      <trkpt lat="40.249833" lon="-4.889983">
        <ele>1127.0</ele>
        <time>2018-06-23T12:29:38Z</time>
      </trkpt>
      <trkpt lat="40.249800" lon="-4.889883">
        <ele>1126.0</ele>
        <time>2018-06-23T12:29:39Z</time>
      </trkpt>
      <trkpt lat="40.249767" lon="-4.889800">
        <ele>1126.0</ele>
        <time>2018-06-23T12:29:40Z</time>
      </trkpt>
      <trkpt lat="40.249717" lon="-4.889700">
        <ele>1126.0</ele>
        <time>2018-06-23T12:29:41Z</time>
      </trkpt>
      <trkpt lat="40.249683" lon="-4.889600">
        <ele>1127.0</ele>
        <time>2018-06-23T12:29:42Z</time>
      </trkpt>
      <trkpt lat="40.249650" lon="-4.889517">
        <ele>1129.0</ele>
        <time>2018-06-23T12:29:43Z</time>
      </trkpt>
      <trkpt lat="40.249633" lon="-4.889417">
        <ele>1130.0</ele>
        <time>2018-06-23T12:29:44Z</time>
      </trkpt>
      <trkpt lat="40.249633" lon="-4.889333">
        <ele>1131.0</ele>
        <time>2018-06-23T12:29:45Z</time>
      </trkpt>
      <trkpt lat="40.249633" lon="-4.889250">
        <ele>1131.0</ele>
        <time>2018-06-23T12:29:46Z</time>
      </trkpt>
      <trkpt lat="40.249633" lon="-4.889150">
        <ele>1131.0</ele>
        <time>2018-06-23T12:29:47Z</time>
      </trkpt>
      <trkpt lat="40.249650" lon="-4.889050">
        <ele>1130.0</ele>
        <time>2018-06-23T12:29:48Z</time>
      </trkpt>
      <trkpt lat="40.249650" lon="-4.888950">
        <ele>1130.0</ele>
        <time>2018-06-23T12:29:49Z</time>
      </trkpt>
      <trkpt lat="40.249633" lon="-4.888833">
        <ele>1130.0</ele>
        <time>2018-06-23T12:29:50Z</time>
      </trkpt>
      <trkpt lat="40.249633" lon="-4.888733">
        <ele>1130.0</ele>
        <time>2018-06-23T12:29:51Z</time>
      </trkpt>
      <trkpt lat="40.249633" lon="-4.888633">
        <ele>1131.0</ele>
        <time>2018-06-23T12:29:52Z</time>
      </trkpt>
      <trkpt lat="40.249617" lon="-4.888550">
        <ele>1131.0</ele>
        <time>2018-06-23T12:29:53Z</time>
      </trkpt>
      <trkpt lat="40.249617" lon="-4.888450">
        <ele>1131.0</ele>
        <time>2018-06-23T12:29:54Z</time>
      </trkpt>
      <trkpt lat="40.249583" lon="-4.888350">
        <ele>1130.0</ele>
        <time>2018-06-23T12:29:55Z</time>
      </trkpt>
      <trkpt lat="40.249550" lon="-4.888250">
        <ele>1130.0</ele>
        <time>2018-06-23T12:29:56Z</time>
      </trkpt>
      <trkpt lat="40.249517" lon="-4.888150">
        <ele>1131.0</ele>
        <time>2018-06-23T12:29:57Z</time>
      </trkpt>
      <trkpt lat="40.249500" lon="-4.888050">
        <ele>1133.0</ele>
        <time>2018-06-23T12:29:58Z</time>
      </trkpt>
      <trkpt lat="40.249467" lon="-4.887950">
        <ele>1136.0</ele>
        <time>2018-06-23T12:29:59Z</time>
      </trkpt>
      <trkpt lat="40.249450" lon="-4.887867">
        <ele>1139.0</ele>
        <time>2018-06-23T12:30:00Z</time>
      </trkpt>
      <trkpt lat="40.249433" lon="-4.887800">
        <ele>1141.0</ele>
        <time>2018-06-23T12:30:01Z</time>
      </trkpt>
      <trkpt lat="40.249383" lon="-4.887717">
        <ele>1143.0</ele>
        <time>2018-06-23T12:30:02Z</time>
      </trkpt>
      <trkpt lat="40.249300" lon="-4.887667">
        <ele>1144.0</ele>
        <time>2018-06-23T12:30:03Z</time>
      </trkpt>
      <trkpt lat="40.249183" lon="-4.887633">
        <ele>1144.0</ele>
        <time>2018-06-23T12:30:04Z</time>
      </trkpt>
      <trkpt lat="40.249067" lon="-4.887667">
        <ele>1146.0</ele>
        <time>2018-06-23T12:30:05Z</time>
      </trkpt>
      <trkpt lat="40.248950" lon="-4.887733">
        <ele>1149.0</ele>
        <time>2018-06-23T12:30:06Z</time>
      </trkpt>
      <trkpt lat="40.248883" lon="-4.887850">
        <ele>1150.0</ele>
        <time>2018-06-23T12:30:07Z</time>
      </trkpt>
      <trkpt lat="40.248833" lon="-4.887983">
        <ele>1151.0</ele>
        <time>2018-06-23T12:30:08Z</time>
      </trkpt>
      <trkpt lat="40.248817" lon="-4.888150">
        <ele>1151.0</ele>
        <time>2018-06-23T12:30:09Z</time>
      </trkpt>
      <trkpt lat="40.248833" lon="-4.888300">
        <ele>1151.0</ele>
        <time>2018-06-23T12:30:10Z</time>
      </trkpt>
      <trkpt lat="40.248883" lon="-4.888450">
        <ele>1152.0</ele>
        <time>2018-06-23T12:30:11Z</time>
      </trkpt>
      <trkpt lat="40.248950" lon="-4.888550">
        <ele>1153.0</ele>
        <time>2018-06-23T12:30:12Z</time>
      </trkpt>
      <trkpt lat="40.249050" lon="-4.888617">
        <ele>1154.0</ele>
        <time>2018-06-23T12:30:13Z</time>
      </trkpt>
      <trkpt lat="40.249133" lon="-4.888667">
        <ele>1154.0</ele>
        <time>2018-06-23T12:30:14Z</time>
      </trkpt>
      <trkpt lat="40.249233" lon="-4.888667">
        <ele>1154.0</ele>
        <time>2018-06-23T12:30:15Z</time>
      </trkpt>
      <trkpt lat="40.249317" lon="-4.888650">
        <ele>1155.0</ele>
        <time>2018-06-23T12:30:16Z</time>
      </trkpt>
      <trkpt lat="40.249400" lon="-4.888600">
        <ele>1156.0</ele>
        <time>2018-06-23T12:30:17Z</time>
      </trkpt>
      <trkpt lat="40.249450" lon="-4.888533">
        <ele>1159.0</ele>
        <time>2018-06-23T12:30:18Z</time>
      </trkpt>
      <trkpt lat="40.249483" lon="-4.888467">
        <ele>1163.0</ele>
        <time>2018-06-23T12:30:19Z</time>
      </trkpt>
      <trkpt lat="40.249500" lon="-4.888400">
        <ele>1166.0</ele>
        <time>2018-06-23T12:30:20Z</time>
      </trkpt>
      <trkpt lat="40.249517" lon="-4.888333">
        <ele>1169.0</ele>
        <time>2018-06-23T12:30:21Z</time>
      </trkpt>
      <trkpt lat="40.249517" lon="-4.888267">
        <ele>1171.0</ele>
        <time>2018-06-23T12:30:22Z</time>
      </trkpt>
      <trkpt lat="40.249517" lon="-4.888183">
        <ele>1172.0</ele>
        <time>2018-06-23T12:30:23Z</time>
      </trkpt>
      <trkpt lat="40.249500" lon="-4.888117">
        <ele>1174.0</ele>
        <time>2018-06-23T12:30:24Z</time>
      </trkpt>
      <trkpt lat="40.249467" lon="-4.888050">
        <ele>1175.0</ele>
        <time>2018-06-23T12:30:25Z</time>
      </trkpt>
      <trkpt lat="40.249400" lon="-4.888000">
        <ele>1176.0</ele>
        <time>2018-06-23T12:30:26Z</time>
      </trkpt>
      <trkpt lat="40.249317" lon="-4.887983">
        <ele>1177.0</ele>
        <time>2018-06-23T12:30:27Z</time>
      </trkpt>
      <trkpt lat="40.249217" lon="-4.887983">
        <ele>1178.0</ele>
        <time>2018-06-23T12:30:28Z</time>
      </trkpt>
      <trkpt lat="40.249117" lon="-4.888017">
        <ele>1180.0</ele>
        <time>2018-06-23T12:30:29Z</time>
      </trkpt>
      <trkpt lat="40.249033" lon="-4.888100">
        <ele>1182.0</ele>
        <time>2018-06-23T12:30:30Z</time>
      </trkpt>
      <trkpt lat="40.248950" lon="-4.888200">
        <ele>1184.0</ele>
        <time>2018-06-23T12:30:31Z</time>
      </trkpt>
      <trkpt lat="40.248883" lon="-4.888317">
        <ele>1186.0</ele>
        <time>2018-06-23T12:30:32Z</time>
      </trkpt>
      <trkpt lat="40.248833" lon="-4.888467">
        <ele>1186.0</ele>
        <time>2018-06-23T12:30:33Z</time>
      </trkpt>
      <trkpt lat="40.248817" lon="-4.888633">
        <ele>1185.0</ele>
        <time>2018-06-23T12:30:34Z</time>
      </trkpt>
      <trkpt lat="40.248833" lon="-4.888817">
        <ele>1185.0</ele>
        <time>2018-06-23T12:30:35Z</time>
      </trkpt>
      <trkpt lat="40.248883" lon="-4.888967">
        <ele>1185.0</ele>
        <time>2018-06-23T12:30:36Z</time>
      </trkpt>
      <trkpt lat="40.248967" lon="-4.889067">
        <ele>1186.0</ele>
        <time>2018-06-23T12:30:37Z</time>
      </trkpt>
      <trkpt lat="40.249050" lon="-4.889117">
        <ele>1187.0</ele>
        <time>2018-06-23T12:30:38Z</time>
      </trkpt>
      <trkpt lat="40.249133" lon="-4.889133">
        <ele>1188.0</ele>
        <time>2018-06-23T12:30:39Z</time>
      </trkpt>
      <trkpt lat="40.249217" lon="-4.889133">
        <ele>1190.0</ele>
        <time>2018-06-23T12:30:40Z</time>
      </trkpt>
      <trkpt lat="40.249300" lon="-4.889117">
        <ele>1191.0</ele>
        <time>2018-06-23T12:30:41Z</time>
      </trkpt>
      <trkpt lat="40.249367" lon="-4.889083">
        <ele>1192.0</ele>
        <time>2018-06-23T12:30:42Z</time>
      </trkpt>
      <trkpt lat="40.249433" lon="-4.889017">
        <ele>1193.0</ele>
        <time>2018-06-23T12:30:43Z</time>
      </trkpt>
      <trkpt lat="40.249467" lon="-4.888933">
        <ele>1193.0</ele>
        <time>2018-06-23T12:30:44Z</time>
      </trkpt>
      <trkpt lat="40.249483" lon="-4.888833">
        <ele>1194.0</ele>
        <time>2018-06-23T12:30:45Z</time>
      </trkpt>
      <trkpt lat="40.249483" lon="-4.888733">
        <ele>1195.0</ele>
        <time>2018-06-23T12:30:46Z</time>
      </trkpt>
      <trkpt lat="40.249483" lon="-4.888633">
        <ele>1196.0</ele>
        <time>2018-06-23T12:30:47Z</time>
      </trkpt>
      <trkpt lat="40.249450" lon="-4.888517">
        <ele>1197.0</ele>
        <time>2018-06-23T12:30:48Z</time>
      </trkpt>
      <trkpt lat="40.249417" lon="-4.888417">
        <ele>1198.0</ele>
        <time>2018-06-23T12:30:49Z</time>
      </trkpt>
      <trkpt lat="40.249383" lon="-4.888317">
        <ele>1199.0</ele>
        <time>2018-06-23T12:30:50Z</time>
      </trkpt>
      <trkpt lat="40.249333" lon="-4.888233">
        <ele>1201.0</ele>
        <time>2018-06-23T12:30:51Z</time>
      </trkpt>
      <trkpt lat="40.249283" lon="-4.888167">
        <ele>1202.0</ele>
        <time>2018-06-23T12:30:52Z</time>
      </trkpt>
      <trkpt lat="40.249250" lon="-4.888100">
        <ele>1203.0</ele>
        <time>2018-06-23T12:30:53Z</time>
      </trkpt>
      <trkpt lat="40.249200" lon="-4.888050">
        <ele>1202.0</ele>
        <time>2018-06-23T12:30:54Z</time>
      </trkpt>
      <trkpt lat="40.249167" lon="-4.887983">
        <ele>1201.0</ele>
        <time>2018-06-23T12:30:55Z</time>
      </trkpt>
      <trkpt lat="40.249117" lon="-4.887933">
        <ele>1199.0</ele>
        <time>2018-06-23T12:30:56Z</time>
      </trkpt>
      <trkpt lat="40.249050" lon="-4.887867">
        <ele>1198.0</ele>
        <time>2018-06-23T12:30:57Z</time>
      </trkpt>
      <trkpt lat="40.248967" lon="-4.887817">
        <ele>1198.0</ele>
        <time>2018-06-23T12:30:58Z</time>
      </trkpt>
      <trkpt lat="40.248867" lon="-4.887767">
        <ele>1198.0</ele>
        <time>2018-06-23T12:30:59Z</time>
      </trkpt>
      <trkpt lat="40.248783" lon="-4.887733">
        <ele>1200.0</ele>
        <time>2018-06-23T12:31:00Z</time>
      </trkpt>
      <trkpt lat="40.248700" lon="-4.887683">
        <ele>1202.0</ele>
        <time>2018-06-23T12:31:01Z</time>
      </trkpt>
      <trkpt lat="40.248633" lon="-4.887633">
        <ele>1204.0</ele>
        <time>2018-06-23T12:31:02Z</time>
      </trkpt>
      <trkpt lat="40.248550" lon="-4.887600">
        <ele>1206.0</ele>
        <time>2018-06-23T12:31:03Z</time>
      </trkpt>
      <trkpt lat="40.248483" lon="-4.887583">
        <ele>1207.0</ele>
        <time>2018-06-23T12:31:04Z</time>
      </trkpt>
      <trkpt lat="40.248383" lon="-4.887583">
        <ele>1207.0</ele>
        <time>2018-06-23T12:31:05Z</time>
      </trkpt>
      <trkpt lat="40.248283" lon="-4.887617">
        <ele>1207.0</ele>
        <time>2018-06-23T12:31:06Z</time>
      </trkpt>
      <trkpt lat="40.248183" lon="-4.887667">
        <ele>1207.0</ele>
        <time>2018-06-23T12:31:07Z</time>
      </trkpt>
      <trkpt lat="40.248083" lon="-4.887767">
        <ele>1206.0</ele>
        <time>2018-06-23T12:31:08Z</time>
      </trkpt>
      <trkpt lat="40.248000" lon="-4.887883">
        <ele>1206.0</ele>
        <time>2018-06-23T12:31:09Z</time>
      </trkpt>
      <trkpt lat="40.247917" lon="-4.888017">
        <ele>1207.0</ele>
        <time>2018-06-23T12:31:10Z</time>
      </trkpt>
      <trkpt lat="40.247833" lon="-4.888167">
        <ele>1210.0</ele>
        <time>2018-06-23T12:31:11Z</time>
      </trkpt>
      <trkpt lat="40.247783" lon="-4.888317">
        <ele>1213.0</ele>
        <time>2018-06-23T12:31:12Z</time>
      </trkpt>
      <trkpt lat="40.247750" lon="-4.888467">
        <ele>1216.0</ele>
        <time>2018-06-23T12:31:13Z</time>
      </trkpt>
      <trkpt lat="40.247717" lon="-4.888617">
        <ele>1217.0</ele>
        <time>2018-06-23T12:31:14Z</time>
      </trkpt>
      <trkpt lat="40.247700" lon="-4.888767">
        <ele>1218.0</ele>
        <time>2018-06-23T12:31:15Z</time>
      </trkpt>
      <trkpt lat="40.247683" lon="-4.888917">
        <ele>1219.0</ele>
        <time>2018-06-23T12:31:16Z</time>
      </trkpt>
      <trkpt lat="40.247700" lon="-4.889083">
        <ele>1220.0</ele>
        <time>2018-06-23T12:31:17Z</time>
      </trkpt>
      <trkpt lat="40.247717" lon="-4.889233">
        <ele>1220.0</ele>
        <time>2018-06-23T12:31:18Z</time>
      </trkpt>
      <trkpt lat="40.247767" lon="-4.889383">
        <ele>1220.0</ele>
        <time>2018-06-23T12:31:19Z</time>
      </trkpt>
      <trkpt lat="40.247833" lon="-4.889517">
        <ele>1220.0</ele>
        <time>2018-06-23T12:31:20Z</time>
      </trkpt>
      <trkpt lat="40.247900" lon="-4.889617">
        <ele>1221.0</ele>
        <time>2018-06-23T12:31:21Z</time>
      </trkpt>
      <trkpt lat="40.247983" lon="-4.889683">
        <ele>1222.0</ele>
        <time>2018-06-23T12:31:22Z</time>
      </trkpt>
      <trkpt lat="40.248083" lon="-4.889750">
        <ele>1223.0</ele>
        <time>2018-06-23T12:31:23Z</time>
      </trkpt>
      <trkpt lat="40.248167" lon="-4.889783">
        <ele>1224.0</ele>
        <time>2018-06-23T12:31:24Z</time>
      </trkpt>
      <trkpt lat="40.248250" lon="-4.889817">
        <ele>1225.0</ele>
        <time>2018-06-23T12:31:25Z</time>
      </trkpt>
      <trkpt lat="40.248333" lon="-4.889817">
        <ele>1227.0</ele>
        <time>2018-06-23T12:31:26Z</time>
      </trkpt>
      <trkpt lat="40.248417" lon="-4.889817">
        <ele>1229.0</ele>
        <time>2018-06-23T12:31:27Z</time>
      </trkpt>
      <trkpt lat="40.248467" lon="-4.889800">
        <ele>1231.0</ele>
        <time>2018-06-23T12:31:28Z</time>
      </trkpt>
      <trkpt lat="40.248500" lon="-4.889750">
        <ele>1231.0</ele>
        <time>2018-06-23T12:31:29Z</time>
      </trkpt>
      <trkpt lat="40.248533" lon="-4.889683">
        <ele>1230.0</ele>
        <time>2018-06-23T12:31:30Z</time>
      </trkpt>
      <trkpt lat="40.248550" lon="-4.889617">
        <ele>1230.0</ele>
        <time>2018-06-23T12:31:31Z</time>
      </trkpt>
      <trkpt lat="40.248533" lon="-4.889550">
        <ele>1230.0</ele>
        <time>2018-06-23T12:31:32Z</time>
      </trkpt>
      <trkpt lat="40.248500" lon="-4.889467">
        <ele>1230.0</ele>
        <time>2018-06-23T12:31:33Z</time>
      </trkpt>
      <trkpt lat="40.248467" lon="-4.889400">
        <ele>1230.0</ele>
        <time>2018-06-23T12:31:34Z</time>
      </trkpt>
      <trkpt lat="40.248450" lon="-4.889333">
        <ele>1231.0</ele>
        <time>2018-06-23T12:31:35Z</time>
      </trkpt>
      <trkpt lat="40.248433" lon="-4.889267">
        <ele>1233.0</ele>
        <time>2018-06-23T12:31:36Z</time>
      </trkpt>
      <trkpt lat="40.248400" lon="-4.889183">
        <ele>1233.0</ele>
        <time>2018-06-23T12:31:37Z</time>
      </trkpt>
      <trkpt lat="40.248383" lon="-4.889100">
        <ele>1235.0</ele>
        <time>2018-06-23T12:31:38Z</time>
      </trkpt>
      <trkpt lat="40.248350" lon="-4.889033">
        <ele>1236.0</ele>
        <time>2018-06-23T12:31:39Z</time>
      </trkpt>
      <trkpt lat="40.248300" lon="-4.889000">
        <ele>1235.0</ele>
        <time>2018-06-23T12:31:40Z</time>
      </trkpt>
      <trkpt lat="40.248217" lon="-4.888983">
        <ele>1235.0</ele>
        <time>2018-06-23T12:31:41Z</time>
      </trkpt>
      <trkpt lat="40.248100" lon="-4.888983">
        <ele>1234.0</ele>
        <time>2018-06-23T12:31:42Z</time>
      </trkpt>
      <trkpt lat="40.247983" lon="-4.889000">
        <ele>1235.0</ele>
        <time>2018-06-23T12:31:43Z</time>
      </trkpt>
      <trkpt lat="40.247883" lon="-4.889033">
        <ele>1236.0</ele>
        <time>2018-06-23T12:31:44Z</time>
      </trkpt>
      <trkpt lat="40.247783" lon="-4.889100">
        <ele>1238.0</ele>
        <time>2018-06-23T12:31:45Z</time>
      </trkpt>
      <trkpt lat="40.247700" lon="-4.889167">
        <ele>1238.0</ele>
        <time>2018-06-23T12:31:46Z</time>
      </trkpt>
      <trkpt lat="40.247600" lon="-4.889267">
        <ele>1239.0</ele>
        <time>2018-06-23T12:31:47Z</time>
      </trkpt>
      <trkpt lat="40.247517" lon="-4.889383">
        <ele>1239.0</ele>
        <time>2018-06-23T12:31:48Z</time>
      </trkpt>
      <trkpt lat="40.247450" lon="-4.889533">
        <ele>1240.0</ele>
        <time>2018-06-23T12:31:49Z</time>
      </trkpt>
      <trkpt lat="40.247400" lon="-4.889683">
        <ele>1240.0</ele>
        <time>2018-06-23T12:31:50Z</time>
      </trkpt>
      <trkpt lat="40.247367" lon="-4.889850">
        <ele>1241.0</ele>
        <time>2018-06-23T12:31:51Z</time>
      </trkpt>
      <trkpt lat="40.247333" lon="-4.890017">
        <ele>1242.0</ele>
        <time>2018-06-23T12:31:52Z</time>
      </trkpt>
      <trkpt lat="40.247333" lon="-4.890183">
        <ele>1243.0</ele>
        <time>2018-06-23T12:31:53Z</time>
      </trkpt>
      <trkpt lat="40.247333" lon="-4.890350">
        <ele>1244.0</ele>
        <time>2018-06-23T12:31:54Z</time>
      </trkpt>
      <trkpt lat="40.247367" lon="-4.890517">
        <ele>1245.0</ele>
        <time>2018-06-23T12:31:55Z</time>
      </trkpt>
      <trkpt lat="40.247417" lon="-4.890667">
        <ele>1246.0</ele>
        <time>2018-06-23T12:31:56Z</time>
      </trkpt>
      <trkpt lat="40.247467" lon="-4.890800">
        <ele>1247.0</ele>
        <time>2018-06-23T12:31:57Z</time>
      </trkpt>
      <trkpt lat="40.247550" lon="-4.890900">
        <ele>1248.0</ele>
        <time>2018-06-23T12:31:58Z</time>
      </trkpt>
      <trkpt lat="40.247633" lon="-4.890983">
        <ele>1250.0</ele>
        <time>2018-06-23T12:31:59Z</time>
      </trkpt>
      <trkpt lat="40.247717" lon="-4.891050">
        <ele>1252.0</ele>
        <time>2018-06-23T12:32:00Z</time>
      </trkpt>
      <trkpt lat="40.247783" lon="-4.891117">
        <ele>1255.0</ele>
        <time>2018-06-23T12:32:01Z</time>
      </trkpt>
      <trkpt lat="40.247850" lon="-4.891167">
        <ele>1257.0</ele>
        <time>2018-06-23T12:32:02Z</time>
      </trkpt>
      <trkpt lat="40.247933" lon="-4.891217">
        <ele>1259.0</ele>
        <time>2018-06-23T12:32:03Z</time>
      </trkpt>
      <trkpt lat="40.248000" lon="-4.891267">
        <ele>1259.0</ele>
        <time>2018-06-23T12:32:04Z</time>
      </trkpt>
      <trkpt lat="40.248083" lon="-4.891283">
        <ele>1260.0</ele>
        <time>2018-06-23T12:32:05Z</time>
      </trkpt>
      <trkpt lat="40.248150" lon="-4.891267">
        <ele>1260.0</ele>
        <time>2018-06-23T12:32:06Z</time>
      </trkpt>
      <trkpt lat="40.248217" lon="-4.891233">
        <ele>1259.0</ele>
        <time>2018-06-23T12:32:07Z</time>
      </trkpt>
      <trkpt lat="40.248267" lon="-4.891167">
        <ele>1259.0</ele>
        <time>2018-06-23T12:32:08Z</time>
      </trkpt>
      <trkpt lat="40.248283" lon="-4.891083">
        <ele>1259.0</ele>
        <time>2018-06-23T12:32:09Z</time>
      </trkpt>
      <trkpt lat="40.248300" lon="-4.891000">
        <ele>1259.0</ele>
        <time>2018-06-23T12:32:10Z</time>
      </trkpt>
      <trkpt lat="40.248300" lon="-4.890933">
        <ele>1261.0</ele>
        <time>2018-06-23T12:32:11Z</time>
      </trkpt>
      <trkpt lat="40.248300" lon="-4.890867">
        <ele>1262.0</ele>
        <time>2018-06-23T12:32:12Z</time>
      </trkpt>
      <trkpt lat="40.248283" lon="-4.890800">
        <ele>1263.0</ele>
        <time>2018-06-23T12:32:13Z</time>
      </trkpt>
      <trkpt lat="40.248250" lon="-4.890733">
        <ele>1263.0</ele>
        <time>2018-06-23T12:32:14Z</time>
      </trkpt>
      <trkpt lat="40.248183" lon="-4.890683">
        <ele>1263.0</ele>
        <time>2018-06-23T12:32:15Z</time>
      </trkpt>
      <trkpt lat="40.248117" lon="-4.890633">
        <ele>1264.0</ele>
        <time>2018-06-23T12:32:16Z</time>
      </trkpt>
      <trkpt lat="40.248033" lon="-4.890583">
        <ele>1266.0</ele>
        <time>2018-06-23T12:32:17Z</time>
      </trkpt>
      <trkpt lat="40.247950" lon="-4.890567">
        <ele>1268.0</ele>
        <time>2018-06-23T12:32:18Z</time>
      </trkpt>
      <trkpt lat="40.247850" lon="-4.890567">
        <ele>1269.0</ele>
        <time>2018-06-23T12:32:19Z</time>
      </trkpt>
      <trkpt lat="40.247767" lon="-4.890583">
        <ele>1270.0</ele>
        <time>2018-06-23T12:32:20Z</time>
      </trkpt>
      <trkpt lat="40.247667" lon="-4.890617">
        <ele>1270.0</ele>
        <time>2018-06-23T12:32:21Z</time>
      </trkpt>
      <trkpt lat="40.247567" lon="-4.890650">
        <ele>1269.0</ele>
        <time>2018-06-23T12:32:22Z</time>
      </trkpt>
      <trkpt lat="40.247467" lon="-4.890717">
        <ele>1268.0</ele>
        <time>2018-06-23T12:32:23Z</time>
      </trkpt>
      <trkpt lat="40.247367" lon="-4.890817">
        <ele>1267.0</ele>
        <time>2018-06-23T12:32:24Z</time>
      </trkpt>
      <trkpt lat="40.247283" lon="-4.890933">
        <ele>1267.0</ele>
        <time>2018-06-23T12:32:25Z</time>
      </trkpt>
      <trkpt lat="40.247200" lon="-4.891067">
        <ele>1267.0</ele>
        <time>2018-06-23T12:32:26Z</time>
      </trkpt>
      <trkpt lat="40.247133" lon="-4.891217">
        <ele>1268.0</ele>
        <time>2018-06-23T12:32:27Z</time>
      </trkpt>
      <trkpt lat="40.247083" lon="-4.891400">
        <ele>1268.0</ele>
        <time>2018-06-23T12:32:28Z</time>
      </trkpt>
      <trkpt lat="40.247083" lon="-4.891583">
        <ele>1267.0</ele>
        <time>2018-06-23T12:32:29Z</time>
      </trkpt>
      <trkpt lat="40.247117" lon="-4.891750">
        <ele>1267.0</ele>
        <time>2018-06-23T12:32:30Z</time>
      </trkpt>
      <trkpt lat="40.247167" lon="-4.891900">
        <ele>1268.0</ele>
        <time>2018-06-23T12:32:31Z</time>
      </trkpt>
      <trkpt lat="40.247217" lon="-4.892050">
        <ele>1269.0</ele>
        <time>2018-06-23T12:32:32Z</time>
      </trkpt>
      <trkpt lat="40.247250" lon="-4.892200">
        <ele>1270.0</ele>
        <time>2018-06-23T12:32:33Z</time>
      </trkpt>
      <trkpt lat="40.247300" lon="-4.892350">
        <ele>1270.0</ele>
        <time>2018-06-23T12:32:34Z</time>
      </trkpt>
      <trkpt lat="40.247350" lon="-4.892483">
        <ele>1271.0</ele>
        <time>2018-06-23T12:32:35Z</time>
      </trkpt>
      <trkpt lat="40.247417" lon="-4.892617">
        <ele>1271.0</ele>
        <time>2018-06-23T12:32:36Z</time>
      </trkpt>
      <trkpt lat="40.247500" lon="-4.892733">
        <ele>1271.0</ele>
        <time>2018-06-23T12:32:37Z</time>
      </trkpt>
      <trkpt lat="40.247600" lon="-4.892833">
        <ele>1272.0</ele>
        <time>2018-06-23T12:32:38Z</time>
      </trkpt>
      <trkpt lat="40.247683" lon="-4.892950">
        <ele>1274.0</ele>
        <time>2018-06-23T12:32:39Z</time>
      </trkpt>
      <trkpt lat="40.247783" lon="-4.893067">
        <ele>1277.0</ele>
        <time>2018-06-23T12:32:40Z</time>
      </trkpt>
      <trkpt lat="40.247883" lon="-4.893167">
        <ele>1280.0</ele>
        <time>2018-06-23T12:32:41Z</time>
      </trkpt>
      <trkpt lat="40.247967" lon="-4.893233">
        <ele>1283.0</ele>
        <time>2018-06-23T12:32:42Z</time>
      </trkpt>
      <trkpt lat="40.248067" lon="-4.893300">
        <ele>1284.0</ele>
        <time>2018-06-23T12:32:43Z</time>
      </trkpt>
      <trkpt lat="40.248167" lon="-4.893350">
        <ele>1285.0</ele>
        <time>2018-06-23T12:32:44Z</time>
      </trkpt>
      <trkpt lat="40.248267" lon="-4.893400">
        <ele>1285.0</ele>
        <time>2018-06-23T12:32:45Z</time>
      </trkpt>
      <trkpt lat="40.248350" lon="-4.893433">
        <ele>1286.0</ele>
        <time>2018-06-23T12:32:46Z</time>
      </trkpt>
      <trkpt lat="40.248433" lon="-4.893433">
        <ele>1287.0</ele>
        <time>2018-06-23T12:32:47Z</time>
      </trkpt>
      <trkpt lat="40.248483" lon="-4.893417">
        <ele>1286.0</ele>
        <time>2018-06-23T12:32:48Z</time>
      </trkpt>
      <trkpt lat="40.248533" lon="-4.893350">
        <ele>1284.0</ele>
        <time>2018-06-23T12:32:49Z</time>
      </trkpt>
      <trkpt lat="40.248550" lon="-4.893283">
        <ele>1283.0</ele>
        <time>2018-06-23T12:32:50Z</time>
      </trkpt>
      <trkpt lat="40.248550" lon="-4.893217">
        <ele>1283.0</ele>
        <time>2018-06-23T12:32:51Z</time>
      </trkpt>
      <trkpt lat="40.248517" lon="-4.893150">
        <ele>1283.0</ele>
        <time>2018-06-23T12:32:52Z</time>
      </trkpt>
      <trkpt lat="40.248467" lon="-4.893117">
        <ele>1283.0</ele>
        <time>2018-06-23T12:32:53Z</time>
      </trkpt>
      <trkpt lat="40.248417" lon="-4.893067">
        <ele>1283.0</ele>
        <time>2018-06-23T12:32:54Z</time>
      </trkpt>
      <trkpt lat="40.248350" lon="-4.893050">
        <ele>1283.0</ele>
        <time>2018-06-23T12:32:55Z</time>
      </trkpt>
      <trkpt lat="40.248267" lon="-4.893017">
        <ele>1284.0</ele>
        <time>2018-06-23T12:32:56Z</time>
      </trkpt>
      <trkpt lat="40.248217" lon="-4.892983">
        <ele>1284.0</ele>
        <time>2018-06-23T12:32:57Z</time>
      </trkpt>
      <trkpt lat="40.248150" lon="-4.892933">
        <ele>1285.0</ele>
        <time>2018-06-23T12:32:58Z</time>
      </trkpt>
      <trkpt lat="40.248083" lon="-4.892917">
        <ele>1285.0</ele>
        <time>2018-06-23T12:32:59Z</time>
      </trkpt>
      <trkpt lat="40.248000" lon="-4.892883">
        <ele>1285.0</ele>
        <time>2018-06-23T12:33:00Z</time>
      </trkpt>
      <trkpt lat="40.247917" lon="-4.892867">
        <ele>1286.0</ele>
        <time>2018-06-23T12:33:01Z</time>
      </trkpt>
      <trkpt lat="40.247817" lon="-4.892850">
        <ele>1288.0</ele>
        <time>2018-06-23T12:33:02Z</time>
      </trkpt>
      <trkpt lat="40.247733" lon="-4.892850">
        <ele>1289.0</ele>
        <time>2018-06-23T12:33:03Z</time>
      </trkpt>
      <trkpt lat="40.247650" lon="-4.892867">
        <ele>1290.0</ele>
        <time>2018-06-23T12:33:04Z</time>
      </trkpt>
      <trkpt lat="40.247550" lon="-4.892900">
        <ele>1290.0</ele>
        <time>2018-06-23T12:33:05Z</time>
      </trkpt>
      <trkpt lat="40.247450" lon="-4.892950">
        <ele>1290.0</ele>
        <time>2018-06-23T12:33:06Z</time>
      </trkpt>
      <trkpt lat="40.247350" lon="-4.893017">
        <ele>1291.0</ele>
        <time>2018-06-23T12:33:07Z</time>
      </trkpt>
      <trkpt lat="40.247267" lon="-4.893083">
        <ele>1293.0</ele>
        <time>2018-06-23T12:33:08Z</time>
      </trkpt>
      <trkpt lat="40.247183" lon="-4.893167">
        <ele>1294.0</ele>
        <time>2018-06-23T12:33:09Z</time>
      </trkpt>
      <trkpt lat="40.247100" lon="-4.893267">
        <ele>1294.0</ele>
        <time>2018-06-23T12:33:10Z</time>
      </trkpt>
      <trkpt lat="40.247033" lon="-4.893383">
        <ele>1293.0</ele>
        <time>2018-06-23T12:33:11Z</time>
      </trkpt>
      <trkpt lat="40.246967" lon="-4.893517">
        <ele>1293.0</ele>
        <time>2018-06-23T12:33:12Z</time>
      </trkpt>
      <trkpt lat="40.246900" lon="-4.893650">
        <ele>1294.0</ele>
        <time>2018-06-23T12:33:13Z</time>
      </trkpt>
      <trkpt lat="40.246850" lon="-4.893783">
        <ele>1295.0</ele>
        <time>2018-06-23T12:33:14Z</time>
      </trkpt>
      <trkpt lat="40.246800" lon="-4.893917">
        <ele>1297.0</ele>
        <time>2018-06-23T12:33:15Z</time>
      </trkpt>
      <trkpt lat="40.246767" lon="-4.894033">
        <ele>1299.0</ele>
        <time>2018-06-23T12:33:16Z</time>
      </trkpt>
      <trkpt lat="40.246733" lon="-4.894183">
        <ele>1299.0</ele>
        <time>2018-06-23T12:33:17Z</time>
      </trkpt>
      <trkpt lat="40.246717" lon="-4.894300">
        <ele>1299.0</ele>
        <time>2018-06-23T12:33:18Z</time>
      </trkpt>
      <trkpt lat="40.246717" lon="-4.894450">
        <ele>1299.0</ele>
        <time>2018-06-23T12:33:19Z</time>
      </trkpt>
      <trkpt lat="40.246733" lon="-4.894583">
        <ele>1297.0</ele>
        <time>2018-06-23T12:33:20Z</time>
      </trkpt>
      <trkpt lat="40.246767" lon="-4.894717">
        <ele>1296.0</ele>
        <time>2018-06-23T12:33:21Z</time>
      </trkpt>
      <trkpt lat="40.246800" lon="-4.894833">
        <ele>1295.0</ele>
        <time>2018-06-23T12:33:22Z</time>
      </trkpt>
      <trkpt lat="40.246850" lon="-4.894950">
        <ele>1294.0</ele>
        <time>2018-06-23T12:33:23Z</time>
      </trkpt>
      <trkpt lat="40.246917" lon="-4.895067">
        <ele>1293.0</ele>
        <time>2018-06-23T12:33:24Z</time>
      </trkpt>
      <trkpt lat="40.247000" lon="-4.895150">
        <ele>1292.0</ele>
        <time>2018-06-23T12:33:25Z</time>
      </trkpt>
      <trkpt lat="40.247083" lon="-4.895217">
        <ele>1292.0</ele>
        <time>2018-06-23T12:33:26Z</time>
      </trkpt>
      <trkpt lat="40.247167" lon="-4.895283">
        <ele>1291.0</ele>
        <time>2018-06-23T12:33:27Z</time>
      </trkpt>
      <trkpt lat="40.247267" lon="-4.895317">
        <ele>1291.0</ele>
        <time>2018-06-23T12:33:28Z</time>
      </trkpt>
      <trkpt lat="40.247350" lon="-4.895350">
        <ele>1291.0</ele>
        <time>2018-06-23T12:33:29Z</time>
      </trkpt>
      <trkpt lat="40.247450" lon="-4.895367">
        <ele>1291.0</ele>
        <time>2018-06-23T12:33:30Z</time>
      </trkpt>
      <trkpt lat="40.247533" lon="-4.895383">
        <ele>1292.0</ele>
        <time>2018-06-23T12:33:31Z</time>
      </trkpt>
      <trkpt lat="40.247633" lon="-4.895383">
        <ele>1293.0</ele>
        <time>2018-06-23T12:33:32Z</time>
      </trkpt>
      <trkpt lat="40.247733" lon="-4.895383">
        <ele>1295.0</ele>
        <time>2018-06-23T12:33:33Z</time>
      </trkpt>
      <trkpt lat="40.247817" lon="-4.895383">
        <ele>1297.0</ele>
        <time>2018-06-23T12:33:34Z</time>
      </trkpt>
      <trkpt lat="40.247883" lon="-4.895367">
        <ele>1298.0</ele>
        <time>2018-06-23T12:33:35Z</time>
      </trkpt>
      <trkpt lat="40.247967" lon="-4.895350">
        <ele>1299.0</ele>
        <time>2018-06-23T12:33:36Z</time>
      </trkpt>
      <trkpt lat="40.248050" lon="-4.895333">
        <ele>1300.0</ele>
        <time>2018-06-23T12:33:37Z</time>
      </trkpt>
      <trkpt lat="40.248117" lon="-4.895317">
        <ele>1300.0</ele>
        <time>2018-06-23T12:33:38Z</time>
      </trkpt>
      <trkpt lat="40.248200" lon="-4.895283">
        <ele>1301.0</ele>
        <time>2018-06-23T12:33:39Z</time>
      </trkpt>
      <trkpt lat="40.248267" lon="-4.895233">
        <ele>1301.0</ele>
        <time>2018-06-23T12:33:40Z</time>
      </trkpt>
      <trkpt lat="40.248317" lon="-4.895183">
        <ele>1301.0</ele>
        <time>2018-06-23T12:33:41Z</time>
      </trkpt>
      <trkpt lat="40.248383" lon="-4.895133">
        <ele>1301.0</ele>
        <time>2018-06-23T12:33:42Z</time>
      </trkpt>
      <trkpt lat="40.248417" lon="-4.895067">
        <ele>1303.0</ele>
        <time>2018-06-23T12:33:43Z</time>
      </trkpt>
      <trkpt lat="40.248450" lon="-4.895000">
        <ele>1305.0</ele>
        <time>2018-06-23T12:33:44Z</time>
      </trkpt>
      <trkpt lat="40.248467" lon="-4.894950">
        <ele>1307.0</ele>
        <time>2018-06-23T12:33:45Z</time>
      </trkpt>
      <trkpt lat="40.248500" lon="-4.894900">
        <ele>1308.0</ele>
        <time>2018-06-23T12:33:46Z</time>
      </trkpt>
      <trkpt lat="40.248517" lon="-4.894867">
        <ele>1309.0</ele>
        <time>2018-06-23T12:33:47Z</time>
      </trkpt>
      <trkpt lat="40.248533" lon="-4.894817">
        <ele>1310.0</ele>
        <time>2018-06-23T12:33:48Z</time>
      </trkpt>
      <trkpt lat="40.248533" lon="-4.894750">
        <ele>1310.0</ele>
        <time>2018-06-23T12:33:49Z</time>
      </trkpt>
      <trkpt lat="40.248533" lon="-4.894700">
        <ele>1310.0</ele>
        <time>2018-06-23T12:33:50Z</time>
      </trkpt>
      <trkpt lat="40.248517" lon="-4.894650">
        <ele>1311.0</ele>
        <time>2018-06-23T12:33:51Z</time>
      </trkpt>
      <trkpt lat="40.248517" lon="-4.894600">
        <ele>1311.0</ele>
        <time>2018-06-23T12:33:52Z</time>
      </trkpt>
      <trkpt lat="40.248517" lon="-4.894550">
        <ele>1311.0</ele>
        <time>2018-06-23T12:33:53Z</time>
      </trkpt>
      <trkpt lat="40.248517" lon="-4.894500">
        <ele>1310.0</ele>
        <time>2018-06-23T12:33:54Z</time>
      </trkpt>
      <trkpt lat="40.248517" lon="-4.894433">
        <ele>1310.0</ele>
        <time>2018-06-23T12:33:55Z</time>
      </trkpt>
      <trkpt lat="40.248533" lon="-4.894383">
        <ele>1310.0</ele>
        <time>2018-06-23T12:33:56Z</time>
      </trkpt>
      <trkpt lat="40.248567" lon="-4.894317">
        <ele>1310.0</ele>
        <time>2018-06-23T12:33:57Z</time>
      </trkpt>
      <trkpt lat="40.248600" lon="-4.894267">
        <ele>1310.0</ele>
        <time>2018-06-23T12:33:58Z</time>
      </trkpt>
      <trkpt lat="40.248667" lon="-4.894233">
        <ele>1310.0</ele>
        <time>2018-06-23T12:33:59Z</time>
      </trkpt>
      <trkpt lat="40.248733" lon="-4.894200">
        <ele>1310.0</ele>
        <time>2018-06-23T12:34:00Z</time>
      </trkpt>
      <trkpt lat="40.248817" lon="-4.894183">
        <ele>1310.0</ele>
        <time>2018-06-23T12:34:01Z</time>
      </trkpt>
      <trkpt lat="40.248883" lon="-4.894167">
        <ele>1311.0</ele>
        <time>2018-06-23T12:34:02Z</time>
      </trkpt>
      <trkpt lat="40.248967" lon="-4.894167">
        <ele>1312.0</ele>
        <time>2018-06-23T12:34:03Z</time>
      </trkpt>
      <trkpt lat="40.249033" lon="-4.894167">
        <ele>1314.0</ele>
        <time>2018-06-23T12:34:04Z</time>
      </trkpt>
      <trkpt lat="40.249117" lon="-4.894200">
        <ele>1315.0</ele>
        <time>2018-06-23T12:34:05Z</time>
      </trkpt>
      <trkpt lat="40.249183" lon="-4.894217">
        <ele>1315.0</ele>
        <time>2018-06-23T12:34:06Z</time>
      </trkpt>
      <trkpt lat="40.249267" lon="-4.894233">
        <ele>1315.0</ele>
        <time>2018-06-23T12:34:07Z</time>
      </trkpt>
      <trkpt lat="40.249350" lon="-4.894233">
        <ele>1314.0</ele>
        <time>2018-06-23T12:34:08Z</time>
      </trkpt>
      <trkpt lat="40.249417" lon="-4.894217">
        <ele>1314.0</ele>
        <time>2018-06-23T12:34:09Z</time>
      </trkpt>
      <trkpt lat="40.249483" lon="-4.894167">
        <ele>1314.0</ele>
        <time>2018-06-23T12:34:10Z</time>
      </trkpt>
      <trkpt lat="40.249533" lon="-4.894117">
        <ele>1315.0</ele>
        <time>2018-06-23T12:34:11Z</time>
      </trkpt>
      <trkpt lat="40.249567" lon="-4.894067">
        <ele>1317.0</ele>
        <time>2018-06-23T12:34:12Z</time>
      </trkpt>
      <trkpt lat="40.249617" lon="-4.894000">
        <ele>1319.0</ele>
        <time>2018-06-23T12:34:13Z</time>
      </trkpt>
      <trkpt lat="40.249650" lon="-4.893950">
        <ele>1320.0</ele>
        <time>2018-06-23T12:34:14Z</time>
      </trkpt>
      <trkpt lat="40.249700" lon="-4.893883">
        <ele>1321.0</ele>
        <time>2018-06-23T12:34:15Z</time>
      </trkpt>
      <trkpt lat="40.249750" lon="-4.893817">
        <ele>1321.0</ele>
        <time>2018-06-23T12:34:16Z</time>
      </trkpt>
      <trkpt lat="40.249817" lon="-4.893767">
        <ele>1321.0</ele>
        <time>2018-06-23T12:34:17Z</time>
      </trkpt>
      <trkpt lat="40.249900" lon="-4.893750">
        <ele>1322.0</ele>
        <time>2018-06-23T12:34:18Z</time>
      </trkpt>
      <trkpt lat="40.249983" lon="-4.893733">
        <ele>1322.0</ele>
        <time>2018-06-23T12:34:19Z</time>
      </trkpt>
      <trkpt lat="40.250067" lon="-4.893717">
        <ele>1323.0</ele>
        <time>2018-06-23T12:34:20Z</time>
      </trkpt>
      <trkpt lat="40.250133" lon="-4.893717">
        <ele>1325.0</ele>
        <time>2018-06-23T12:34:21Z</time>
      </trkpt>
      <trkpt lat="40.250217" lon="-4.893717">
        <ele>1326.0</ele>
        <time>2018-06-23T12:34:22Z</time>
      </trkpt>
      <trkpt lat="40.250300" lon="-4.893750">
        <ele>1326.0</ele>
        <time>2018-06-23T12:34:23Z</time>
      </trkpt>
      <trkpt lat="40.250400" lon="-4.893800">
        <ele>1326.0</ele>
        <time>2018-06-23T12:34:24Z</time>
      </trkpt>
      <trkpt lat="40.250483" lon="-4.893883">
        <ele>1326.0</ele>
        <time>2018-06-23T12:34:25Z</time>
      </trkpt>
      <trkpt lat="40.250550" lon="-4.894017">
        <ele>1326.0</ele>
        <time>2018-06-23T12:34:26Z</time>
      </trkpt>
      <trkpt lat="40.250617" lon="-4.894150">
        <ele>1326.0</ele>
        <time>2018-06-23T12:34:27Z</time>
      </trkpt>
      <trkpt lat="40.250667" lon="-4.894300">
        <ele>1326.0</ele>
        <time>2018-06-23T12:34:28Z</time>
      </trkpt>
      <trkpt lat="40.250717" lon="-4.894467">
        <ele>1326.0</ele>
        <time>2018-06-23T12:34:29Z</time>
      </trkpt>
      <trkpt lat="40.250733" lon="-4.894617">
        <ele>1327.0</ele>
        <time>2018-06-23T12:34:30Z</time>
      </trkpt>
      <trkpt lat="40.250750" lon="-4.894800">
        <ele>1329.0</ele>
        <time>2018-06-23T12:34:31Z</time>
      </trkpt>
      <trkpt lat="40.250767" lon="-4.894950">
        <ele>1330.0</ele>
        <time>2018-06-23T12:34:32Z</time>
      </trkpt>
      <trkpt lat="40.250767" lon="-4.895100">
        <ele>1331.0</ele>
        <time>2018-06-23T12:34:33Z</time>
      </trkpt>
      <trkpt lat="40.250767" lon="-4.895250">
        <ele>1331.0</ele>
        <time>2018-06-23T12:34:34Z</time>
      </trkpt>
      <trkpt lat="40.250767" lon="-4.895400">
        <ele>1330.0</ele>
        <time>2018-06-23T12:34:35Z</time>
      </trkpt>
      <trkpt lat="40.250767" lon="-4.895567">
        <ele>1329.0</ele>
        <time>2018-06-23T12:34:36Z</time>
      </trkpt>
      <trkpt lat="40.250783" lon="-4.895750">
        <ele>1329.0</ele>
        <time>2018-06-23T12:34:37Z</time>
      </trkpt>
      <trkpt lat="40.250783" lon="-4.895933">
        <ele>1331.0</ele>
        <time>2018-06-23T12:34:38Z</time>
      </trkpt>
      <trkpt lat="40.250783" lon="-4.896083">
        <ele>1334.0</ele>
        <time>2018-06-23T12:34:39Z</time>
      </trkpt>
      <trkpt lat="40.250783" lon="-4.896233">
        <ele>1337.0</ele>
        <time>2018-06-23T12:34:40Z</time>
      </trkpt>
      <trkpt lat="40.250767" lon="-4.896367">
        <ele>1340.0</ele>
        <time>2018-06-23T12:34:41Z</time>
      </trkpt>
      <trkpt lat="40.250767" lon="-4.896483">
        <ele>1342.0</ele>
        <time>2018-06-23T12:34:42Z</time>
      </trkpt>
      <trkpt lat="40.250717" lon="-4.896600">
        <ele>1342.0</ele>
        <time>2018-06-23T12:34:43Z</time>
      </trkpt>
      <trkpt lat="40.250650" lon="-4.896700">
        <ele>1341.0</ele>
        <time>2018-06-23T12:34:44Z</time>
      </trkpt>
      <trkpt lat="40.250550" lon="-4.896767">
        <ele>1341.0</ele>
        <time>2018-06-23T12:34:45Z</time>
      </trkpt>
      <trkpt lat="40.250450" lon="-4.896800">
        <ele>1342.0</ele>
        <time>2018-06-23T12:34:46Z</time>
      </trkpt>
      <trkpt lat="40.250350" lon="-4.896800">
        <ele>1345.0</ele>
        <time>2018-06-23T12:34:47Z</time>
      </trkpt>
      <trkpt lat="40.250267" lon="-4.896750">
        <ele>1348.0</ele>
        <time>2018-06-23T12:34:48Z</time>
      </trkpt>
      <trkpt lat="40.250233" lon="-4.896683">
        <ele>1352.0</ele>
        <time>2018-06-23T12:34:49Z</time>
      </trkpt>
      <trkpt lat="40.250217" lon="-4.896617">
        <ele>1354.0</ele>
        <time>2018-06-23T12:34:50Z</time>
      </trkpt>
      <trkpt lat="40.250233" lon="-4.896533">
        <ele>1356.0</ele>
        <time>2018-06-23T12:34:51Z</time>
      </trkpt>
      <trkpt lat="40.250267" lon="-4.896467">
        <ele>1358.0</ele>
        <time>2018-06-23T12:34:52Z</time>
      </trkpt>
      <trkpt lat="40.250333" lon="-4.896433">
        <ele>1360.0</ele>
        <time>2018-06-23T12:34:53Z</time>
      </trkpt>
      <trkpt lat="40.250433" lon="-4.896433">
        <ele>1361.0</ele>
        <time>2018-06-23T12:34:54Z</time>
      </trkpt>
      <trkpt lat="40.250533" lon="-4.896500">
        <ele>1362.0</ele>
        <time>2018-06-23T12:34:55Z</time>
      </trkpt>
      <trkpt lat="40.250617" lon="-4.896617">
        <ele>1365.0</ele>
        <time>2018-06-23T12:34:56Z</time>
      </trkpt>
      <trkpt lat="40.250683" lon="-4.896750">
        <ele>1367.0</ele>
        <time>2018-06-23T12:34:57Z</time>
      </trkpt>
      <trkpt lat="40.250717" lon="-4.896900">
        <ele>1370.0</ele>
        <time>2018-06-23T12:34:58Z</time>
      </trkpt>
      <trkpt lat="40.250733" lon="-4.897050">
        <ele>1373.0</ele>
        <time>2018-06-23T12:34:59Z</time>
      </trkpt>
      <trkpt lat="40.250700" lon="-4.897200">
        <ele>1374.0</ele>
        <time>2018-06-23T12:35:00Z</time>
      </trkpt>
      <trkpt lat="40.250650" lon="-4.897317">
        <ele>1375.0</ele>
        <time>2018-06-23T12:35:01Z</time>
      </trkpt>
      <trkpt lat="40.250550" lon="-4.897400">
        <ele>1375.0</ele>
        <time>2018-06-23T12:35:02Z</time>
      </trkpt>
      <trkpt lat="40.250450" lon="-4.897450">
        <ele>1376.0</ele>
        <time>2018-06-23T12:35:03Z</time>
      </trkpt>
      <trkpt lat="40.250333" lon="-4.897450">
        <ele>1378.0</ele>
        <time>2018-06-23T12:35:04Z</time>
      </trkpt>
      <trkpt lat="40.250267" lon="-4.897400">
        <ele>1382.0</ele>
        <time>2018-06-23T12:35:05Z</time>
      </trkpt>
      <trkpt lat="40.250217" lon="-4.897333">
        <ele>1385.0</ele>
        <time>2018-06-23T12:35:06Z</time>
      </trkpt>
      <trkpt lat="40.250200" lon="-4.897250">
        <ele>1388.0</ele>
        <time>2018-06-23T12:35:07Z</time>
      </trkpt>
      <trkpt lat="40.250200" lon="-4.897183">
        <ele>1391.0</ele>
        <time>2018-06-23T12:35:08Z</time>
      </trkpt>
      <trkpt lat="40.250250" lon="-4.897117">
        <ele>1393.0</ele>
        <time>2018-06-23T12:35:09Z</time>
      </trkpt>
      <trkpt lat="40.250300" lon="-4.897083">
        <ele>1395.0</ele>
        <time>2018-06-23T12:35:10Z</time>
      </trkpt>
      <trkpt lat="40.250400" lon="-4.897067">
        <ele>1396.0</ele>
        <time>2018-06-23T12:35:11Z</time>
      </trkpt>
      <trkpt lat="40.250500" lon="-4.897083">
        <ele>1398.0</ele>
        <time>2018-06-23T12:35:12Z</time>
      </trkpt>
      <trkpt lat="40.250600" lon="-4.897133">
        <ele>1400.0</ele>
        <time>2018-06-23T12:35:13Z</time>
      </trkpt>
      <trkpt lat="40.250700" lon="-4.897217">
        <ele>1403.0</ele>
        <time>2018-06-23T12:35:14Z</time>
      </trkpt>
      <trkpt lat="40.250767" lon="-4.897333">
        <ele>1406.0</ele>
        <time>2018-06-23T12:35:15Z</time>
      </trkpt>
      <trkpt lat="40.250800" lon="-4.897467">
        <ele>1409.0</ele>
        <time>2018-06-23T12:35:16Z</time>
      </trkpt>
      <trkpt lat="40.250800" lon="-4.897617">
        <ele>1410.0</ele>
        <time>2018-06-23T12:35:17Z</time>
      </trkpt>
      <trkpt lat="40.250767" lon="-4.897750">
        <ele>1411.0</ele>
        <time>2018-06-23T12:35:18Z</time>
      </trkpt>
      <trkpt lat="40.250717" lon="-4.897900">
        <ele>1411.0</ele>
        <time>2018-06-23T12:35:19Z</time>
      </trkpt>
      <trkpt lat="40.250633" lon="-4.898000">
        <ele>1413.0</ele>
        <time>2018-06-23T12:35:20Z</time>
      </trkpt>
      <trkpt lat="40.250533" lon="-4.898083">
        <ele>1415.0</ele>
        <time>2018-06-23T12:35:21Z</time>
      </trkpt>
      <trkpt lat="40.250433" lon="-4.898133">
        <ele>1417.0</ele>
        <time>2018-06-23T12:35:22Z</time>
      </trkpt>
      <trkpt lat="40.250333" lon="-4.898133">
        <ele>1420.0</ele>
        <time>2018-06-23T12:35:23Z</time>
      </trkpt>
      <trkpt lat="40.250267" lon="-4.898083">
        <ele>1422.0</ele>
        <time>2018-06-23T12:35:24Z</time>
      </trkpt>
      <trkpt lat="40.250200" lon="-4.898017">
        <ele>1425.0</ele>
        <time>2018-06-23T12:35:25Z</time>
      </trkpt>
      <trkpt lat="40.250167" lon="-4.897933">
        <ele>1428.0</ele>
        <time>2018-06-23T12:35:26Z</time>
      </trkpt>
      <trkpt lat="40.250150" lon="-4.897867">
        <ele>1431.0</ele>
        <time>2018-06-23T12:35:27Z</time>
      </trkpt>
      <trkpt lat="40.250133" lon="-4.897817">
        <ele>1435.0</ele>
        <time>2018-06-23T12:35:28Z</time>
      </trkpt>
      <trkpt lat="40.250150" lon="-4.897750">
        <ele>1437.0</ele>
        <time>2018-06-23T12:35:29Z</time>
      </trkpt>
      <trkpt lat="40.250183" lon="-4.897700">
        <ele>1438.0</ele>
        <time>2018-06-23T12:35:30Z</time>
      </trkpt>
      <trkpt lat="40.250267" lon="-4.897650">
        <ele>1437.0</ele>
        <time>2018-06-23T12:35:31Z</time>
      </trkpt>
      <trkpt lat="40.250367" lon="-4.897650">
        <ele>1437.0</ele>
        <time>2018-06-23T12:35:32Z</time>
      </trkpt>
      <trkpt lat="40.250467" lon="-4.897683">
        <ele>1438.0</ele>
        <time>2018-06-23T12:35:33Z</time>
      </trkpt>
      <trkpt lat="40.250567" lon="-4.897783">
        <ele>1439.0</ele>
        <time>2018-06-23T12:35:34Z</time>
      </trkpt>
      <trkpt lat="40.250650" lon="-4.897917">
        <ele>1441.0</ele>
        <time>2018-06-23T12:35:35Z</time>
      </trkpt>
      <trkpt lat="40.250700" lon="-4.898067">
        <ele>1444.0</ele>
        <time>2018-06-23T12:35:36Z</time>
      </trkpt>
      <trkpt lat="40.250733" lon="-4.898217">
        <ele>1447.0</ele>
        <time>2018-06-23T12:35:37Z</time>
      </trkpt>
      <trkpt lat="40.250733" lon="-4.898350">
        <ele>1450.0</ele>
        <time>2018-06-23T12:35:38Z</time>
      </trkpt>
      <trkpt lat="40.250733" lon="-4.898500">
        <ele>1452.0</ele>
        <time>2018-06-23T12:35:39Z</time>
      </trkpt>
      <trkpt lat="40.250700" lon="-4.898633">
        <ele>1454.0</ele>
        <time>2018-06-23T12:35:40Z</time>
      </trkpt>
      <trkpt lat="40.250633" lon="-4.898767">
        <ele>1455.0</ele>
        <time>2018-06-23T12:35:41Z</time>
      </trkpt>
      <trkpt lat="40.250567" lon="-4.898883">
        <ele>1457.0</ele>
        <time>2018-06-23T12:35:42Z</time>
      </trkpt>
      <trkpt lat="40.250467" lon="-4.898967">
        <ele>1459.0</ele>
        <time>2018-06-23T12:35:43Z</time>
      </trkpt>
      <trkpt lat="40.250383" lon="-4.899017">
        <ele>1461.0</ele>
        <time>2018-06-23T12:35:44Z</time>
      </trkpt>
      <trkpt lat="40.250300" lon="-4.899033">
        <ele>1464.0</ele>
        <time>2018-06-23T12:35:45Z</time>
      </trkpt>
      <trkpt lat="40.250217" lon="-4.899000">
        <ele>1466.0</ele>
        <time>2018-06-23T12:35:46Z</time>
      </trkpt>
      <trkpt lat="40.250150" lon="-4.898950">
        <ele>1467.0</ele>
        <time>2018-06-23T12:35:47Z</time>
      </trkpt>
      <trkpt lat="40.250100" lon="-4.898900">
        <ele>1470.0</ele>
        <time>2018-06-23T12:35:48Z</time>
      </trkpt>
      <trkpt lat="40.250050" lon="-4.898833">
        <ele>1472.0</ele>
        <time>2018-06-23T12:35:49Z</time>
      </trkpt>
      <trkpt lat="40.250050" lon="-4.898750">
        <ele>1474.0</ele>
        <time>2018-06-23T12:35:50Z</time>
      </trkpt>
      <trkpt lat="40.250083" lon="-4.898683">
        <ele>1476.0</ele>
        <time>2018-06-23T12:35:51Z</time>
      </trkpt>
      <trkpt lat="40.250150" lon="-4.898617">
        <ele>1477.0</ele>
        <time>2018-06-23T12:35:52Z</time>
      </trkpt>
      <trkpt lat="40.250233" lon="-4.898617">
        <ele>1478.0</ele>
        <time>2018-06-23T12:35:53Z</time>
      </trkpt>
      <trkpt lat="40.250333" lon="-4.898650">
        <ele>1480.0</ele>
        <time>2018-06-23T12:35:54Z</time>
      </trkpt>
      <trkpt lat="40.250433" lon="-4.898717">
        <ele>1483.0</ele>
        <time>2018-06-23T12:35:55Z</time>
      </trkpt>
      <trkpt lat="40.250517" lon="-4.898833">
        <ele>1484.0</ele>
        <time>2018-06-23T12:35:56Z</time>
      </trkpt>
      <trkpt lat="40.250583" lon="-4.898983">
        <ele>1485.0</ele>
        <time>2018-06-23T12:35:57Z</time>
      </trkpt>
      <trkpt lat="40.250617" lon="-4.899150">
        <ele>1485.0</ele>
        <time>2018-06-23T12:35:58Z</time>
      </trkpt>
      <trkpt lat="40.250617" lon="-4.899350">
        <ele>1488.0</ele>
        <time>2018-06-23T12:35:59Z</time>
      </trkpt>
      <trkpt lat="40.250600" lon="-4.899517">
        <ele>1491.0</ele>
        <time>2018-06-23T12:36:00Z</time>
      </trkpt>
      <trkpt lat="40.250533" lon="-4.899667">
        <ele>1494.0</ele>
        <time>2018-06-23T12:36:01Z</time>
      </trkpt>
      <trkpt lat="40.250467" lon="-4.899783">
        <ele>1498.0</ele>
        <time>2018-06-23T12:36:02Z</time>
      </trkpt>
      <trkpt lat="40.250383" lon="-4.899867">
        <ele>1501.0</ele>
        <time>2018-06-23T12:36:03Z</time>
      </trkpt>
      <trkpt lat="40.250317" lon="-4.899933">
        <ele>1504.0</ele>
        <time>2018-06-23T12:36:04Z</time>
      </trkpt>
      <trkpt lat="40.250233" lon="-4.899967">
        <ele>1506.0</ele>
        <time>2018-06-23T12:36:05Z</time>
      </trkpt>
      <trkpt lat="40.250150" lon="-4.899967">
        <ele>1507.0</ele>
        <time>2018-06-23T12:36:06Z</time>
      </trkpt>
      <trkpt lat="40.250083" lon="-4.899933">
        <ele>1508.0</ele>
        <time>2018-06-23T12:36:07Z</time>
      </trkpt>
      <trkpt lat="40.250033" lon="-4.899850">
        <ele>1509.0</ele>
        <time>2018-06-23T12:36:08Z</time>
      </trkpt>
      <trkpt lat="40.250000" lon="-4.899767">
        <ele>1510.0</ele>
        <time>2018-06-23T12:36:09Z</time>
      </trkpt>
      <trkpt lat="40.250000" lon="-4.899683">
        <ele>1513.0</ele>
        <time>2018-06-23T12:36:10Z</time>
      </trkpt>
      <trkpt lat="40.250033" lon="-4.899617">
        <ele>1515.0</ele>
        <time>2018-06-23T12:36:11Z</time>
      </trkpt>
      <trkpt lat="40.250100" lon="-4.899567">
        <ele>1517.0</ele>
        <time>2018-06-23T12:36:12Z</time>
      </trkpt>
      <trkpt lat="40.250183" lon="-4.899550">
        <ele>1520.0</ele>
        <time>2018-06-23T12:36:13Z</time>
      </trkpt>
      <trkpt lat="40.250267" lon="-4.899567">
        <ele>1523.0</ele>
        <time>2018-06-23T12:36:14Z</time>
      </trkpt>
      <trkpt lat="40.250350" lon="-4.899617">
        <ele>1527.0</ele>
        <time>2018-06-23T12:36:15Z</time>
      </trkpt>
      <trkpt lat="40.250433" lon="-4.899700">
        <ele>1530.0</ele>
        <time>2018-06-23T12:36:16Z</time>
      </trkpt>
      <trkpt lat="40.250500" lon="-4.899817">
        <ele>1532.0</ele>
        <time>2018-06-23T12:36:17Z</time>
      </trkpt>
      <trkpt lat="40.250550" lon="-4.899950">
        <ele>1534.0</ele>
        <time>2018-06-23T12:36:18Z</time>
      </trkpt>
      <trkpt lat="40.250600" lon="-4.900117">
        <ele>1535.0</ele>
        <time>2018-06-23T12:36:19Z</time>
      </trkpt>
      <trkpt lat="40.250633" lon="-4.900317">
        <ele>1538.0</ele>
        <time>2018-06-23T12:36:20Z</time>
      </trkpt>
      <trkpt lat="40.250617" lon="-4.900517">
        <ele>1541.0</ele>
        <time>2018-06-23T12:36:21Z</time>
      </trkpt>
      <trkpt lat="40.250567" lon="-4.900683">
        <ele>1545.0</ele>
        <time>2018-06-23T12:36:22Z</time>
      </trkpt>
      <trkpt lat="40.250517" lon="-4.900817">
        <ele>1549.0</ele>
        <time>2018-06-23T12:36:23Z</time>
      </trkpt>
      <trkpt lat="40.250450" lon="-4.900933">
        <ele>1552.0</ele>
        <time>2018-06-23T12:36:24Z</time>
      </trkpt>
      <trkpt lat="40.250367" lon="-4.901000">
        <ele>1555.0</ele>
        <time>2018-06-23T12:36:25Z</time>
      </trkpt>
      <trkpt lat="40.250300" lon="-4.901050">
        <ele>1556.0</ele>
        <time>2018-06-23T12:36:26Z</time>
      </trkpt>
      <trkpt lat="40.250200" lon="-4.901067">
        <ele>1557.0</ele>
        <time>2018-06-23T12:36:27Z</time>
      </trkpt>
      <trkpt lat="40.250100" lon="-4.901033">
        <ele>1557.0</ele>
        <time>2018-06-23T12:36:28Z</time>
      </trkpt>
      <trkpt lat="40.250033" lon="-4.900967">
        <ele>1558.0</ele>
        <time>2018-06-23T12:36:29Z</time>
      </trkpt>
      <trkpt lat="40.250000" lon="-4.900883">
        <ele>1559.0</ele>
        <time>2018-06-23T12:36:30Z</time>
      </trkpt>
      <trkpt lat="40.249983" lon="-4.900783">
        <ele>1562.0</ele>
        <time>2018-06-23T12:36:31Z</time>
      </trkpt>
      <trkpt lat="40.249983" lon="-4.900717">
        <ele>1565.0</ele>
        <time>2018-06-23T12:36:32Z</time>
      </trkpt>
      <trkpt lat="40.250000" lon="-4.900650">
        <ele>1568.0</ele>
        <time>2018-06-23T12:36:33Z</time>
      </trkpt>
      <trkpt lat="40.250033" lon="-4.900600">
        <ele>1571.0</ele>
        <time>2018-06-23T12:36:34Z</time>
      </trkpt>
      <trkpt lat="40.250083" lon="-4.900550">
        <ele>1572.0</ele>
        <time>2018-06-23T12:36:35Z</time>
      </trkpt>
      <trkpt lat="40.250150" lon="-4.900517">
        <ele>1572.0</ele>
        <time>2018-06-23T12:36:36Z</time>
      </trkpt>
      <trkpt lat="40.250250" lon="-4.900500">
        <ele>1573.0</ele>
        <time>2018-06-23T12:36:37Z</time>
      </trkpt>
      <trkpt lat="40.250350" lon="-4.900517">
        <ele>1575.0</ele>
        <time>2018-06-23T12:36:38Z</time>
      </trkpt>
      <trkpt lat="40.250467" lon="-4.900567">
        <ele>1577.0</ele>
        <time>2018-06-23T12:36:39Z</time>
      </trkpt>
      <trkpt lat="40.250567" lon="-4.900667">
        <ele>1581.0</ele>
        <time>2018-06-23T12:36:40Z</time>
      </trkpt>
      <trkpt lat="40.250650" lon="-4.900750">
        <ele>1586.0</ele>
        <time>2018-06-23T12:36:41Z</time>
      </trkpt>
      <trkpt lat="40.250717" lon="-4.900867">
        <ele>1590.0</ele>
        <time>2018-06-23T12:36:42Z</time>
      </trkpt>
      <trkpt lat="40.250767" lon="-4.900983">
        <ele>1593.0</ele>
        <time>2018-06-23T12:36:43Z</time>
      </trkpt>
      <trkpt lat="40.250800" lon="-4.901133">
        <ele>1596.0</ele>
        <time>2018-06-23T12:36:44Z</time>
      </trkpt>
      <trkpt lat="40.250800" lon="-4.901283">
        <ele>1597.0</ele>
        <time>2018-06-23T12:36:45Z</time>
      </trkpt>
      <trkpt lat="40.250800" lon="-4.901467">
        <ele>1598.0</ele>
        <time>2018-06-23T12:36:46Z</time>
      </trkpt>
      <trkpt lat="40.250767" lon="-4.901633">
        <ele>1601.0</ele>
        <time>2018-06-23T12:36:47Z</time>
      </trkpt>
      <trkpt lat="40.250750" lon="-4.901783">
        <ele>1606.0</ele>
        <time>2018-06-23T12:36:48Z</time>
      </trkpt>
      <trkpt lat="40.250717" lon="-4.901917">
        <ele>1610.0</ele>
        <time>2018-06-23T12:36:49Z</time>
      </trkpt>
      <trkpt lat="40.250683" lon="-4.902033">
        <ele>1614.0</ele>
        <time>2018-06-23T12:36:50Z</time>
      </trkpt>
      <trkpt lat="40.250617" lon="-4.902133">
        <ele>1616.0</ele>
        <time>2018-06-23T12:36:51Z</time>
      </trkpt>
      <trkpt lat="40.250550" lon="-4.902233">
        <ele>1618.0</ele>
        <time>2018-06-23T12:36:52Z</time>
      </trkpt>
      <trkpt lat="40.250450" lon="-4.902317">
        <ele>1620.0</ele>
        <time>2018-06-23T12:36:53Z</time>
      </trkpt>
      <trkpt lat="40.250350" lon="-4.902367">
        <ele>1623.0</ele>
        <time>2018-06-23T12:36:54Z</time>
      </trkpt>
      <trkpt lat="40.250250" lon="-4.902400">
        <ele>1627.0</ele>
        <time>2018-06-23T12:36:55Z</time>
      </trkpt>
      <trkpt lat="40.250150" lon="-4.902383">
        <ele>1630.0</ele>
        <time>2018-06-23T12:36:56Z</time>
      </trkpt>
      <trkpt lat="40.250067" lon="-4.902350">
        <ele>1633.0</ele>
        <time>2018-06-23T12:36:57Z</time>
      </trkpt>
      <trkpt lat="40.250000" lon="-4.902283">
        <ele>1636.0</ele>
        <time>2018-06-23T12:36:58Z</time>
      </trkpt>
      <trkpt lat="40.249950" lon="-4.902217">
        <ele>1637.0</ele>
        <time>2018-06-23T12:36:59Z</time>
      </trkpt>
      <trkpt lat="40.249917" lon="-4.902117">
        <ele>1638.0</ele>
        <time>2018-06-23T12:37:00Z</time>
      </trkpt>
      <trkpt lat="40.249917" lon="-4.902017">
        <ele>1639.0</ele>
        <time>2018-06-23T12:37:01Z</time>
      </trkpt>
      <trkpt lat="40.249933" lon="-4.901933">
        <ele>1641.0</ele>
        <time>2018-06-23T12:37:02Z</time>
      </trkpt>
      <trkpt lat="40.249967" lon="-4.901850">
        <ele>1643.0</ele>
        <time>2018-06-23T12:37:03Z</time>
      </trkpt>
      <trkpt lat="40.250033" lon="-4.901783">
        <ele>1645.0</ele>
        <time>2018-06-23T12:37:04Z</time>
      </trkpt>
      <trkpt lat="40.250100" lon="-4.901750">
        <ele>1647.0</ele>
        <time>2018-06-23T12:37:05Z</time>
      </trkpt>
      <trkpt lat="40.250200" lon="-4.901717">
        <ele>1650.0</ele>
        <time>2018-06-23T12:37:06Z</time>
      </trkpt>
      <trkpt lat="40.250283" lon="-4.901717">
        <ele>1654.0</ele>
        <time>2018-06-23T12:37:07Z</time>
      </trkpt>
      <trkpt lat="40.250367" lon="-4.901733">
        <ele>1657.0</ele>
        <time>2018-06-23T12:37:08Z</time>
      </trkpt>
      <trkpt lat="40.250450" lon="-4.901750">
        <ele>1661.0</ele>
        <time>2018-06-23T12:37:09Z</time>
      </trkpt>
      <trkpt lat="40.250533" lon="-4.901800">
        <ele>1664.0</ele>
        <time>2018-06-23T12:37:10Z</time>
      </trkpt>
      <trkpt lat="40.250600" lon="-4.901867">
        <ele>1667.0</ele>
        <time>2018-06-23T12:37:11Z</time>
      </trkpt>
      <trkpt lat="40.250683" lon="-4.901950">
        <ele>1669.0</ele>
        <time>2018-06-23T12:37:12Z</time>
      </trkpt>
      <trkpt lat="40.250733" lon="-4.902067">
        <ele>1670.0</ele>
        <time>2018-06-23T12:37:13Z</time>
      </trkpt>
      <trkpt lat="40.250783" lon="-4.902217">
        <ele>1672.0</ele>
        <time>2018-06-23T12:37:14Z</time>
      </trkpt>
      <trkpt lat="40.250817" lon="-4.902367">
        <ele>1673.0</ele>
        <time>2018-06-23T12:37:15Z</time>
      </trkpt>
      <trkpt lat="40.250817" lon="-4.902500">
        <ele>1676.0</ele>
        <time>2018-06-23T12:37:16Z</time>
      </trkpt>
      <trkpt lat="40.250833" lon="-4.902650">
        <ele>1678.0</ele>
        <time>2018-06-23T12:37:17Z</time>
      </trkpt>
      <trkpt lat="40.250833" lon="-4.902783">
        <ele>1681.0</ele>
        <time>2018-06-23T12:37:18Z</time>
      </trkpt>
      <trkpt lat="40.250817" lon="-4.902950">
        <ele>1683.0</ele>
        <time>2018-06-23T12:37:19Z</time>
      </trkpt>
      <trkpt lat="40.250783" lon="-4.903100">
        <ele>1686.0</ele>
        <time>2018-06-23T12:37:20Z</time>
      </trkpt>
      <trkpt lat="40.250717" lon="-4.903233">
        <ele>1688.0</ele>
        <time>2018-06-23T12:37:21Z</time>
      </trkpt>
      <trkpt lat="40.250650" lon="-4.903350">
        <ele>1691.0</ele>
        <time>2018-06-23T12:37:22Z</time>
      </trkpt>
      <trkpt lat="40.250567" lon="-4.903450">
        <ele>1695.0</ele>
        <time>2018-06-23T12:37:23Z</time>
      </trkpt>
      <trkpt lat="40.250483" lon="-4.903533">
        <ele>1697.0</ele>
        <time>2018-06-23T12:37:24Z</time>
      </trkpt>
      <trkpt lat="40.250400" lon="-4.903600">
        <ele>1699.0</ele>
        <time>2018-06-23T12:37:25Z</time>
      </trkpt>
      <trkpt lat="40.250300" lon="-4.903650">
        <ele>1700.0</ele>
        <time>2018-06-23T12:37:26Z</time>
      </trkpt>
      <trkpt lat="40.250200" lon="-4.903650">
        <ele>1701.0</ele>
        <time>2018-06-23T12:37:27Z</time>
      </trkpt>
      <trkpt lat="40.250100" lon="-4.903617">
        <ele>1703.0</ele>
        <time>2018-06-23T12:37:28Z</time>
      </trkpt>
      <trkpt lat="40.250017" lon="-4.903567">
        <ele>1705.0</ele>
        <time>2018-06-23T12:37:29Z</time>
      </trkpt>
      <trkpt lat="40.249933" lon="-4.903483">
        <ele>1709.0</ele>
        <time>2018-06-23T12:37:30Z</time>
      </trkpt>
      <trkpt lat="40.249900" lon="-4.903400">
        <ele>1713.0</ele>
        <time>2018-06-23T12:37:31Z</time>
      </trkpt>
      <trkpt lat="40.249867" lon="-4.903317">
        <ele>1716.0</ele>
        <time>2018-06-23T12:37:32Z</time>
      </trkpt>
      <trkpt lat="40.249867" lon="-4.903233">
        <ele>1718.0</ele>
        <time>2018-06-23T12:37:33Z</time>
      </trkpt>
      <trkpt lat="40.249883" lon="-4.903150">
        <ele>1720.0</ele>
        <time>2018-06-23T12:37:34Z</time>
      </trkpt>
      <trkpt lat="40.249933" lon="-4.903067">
        <ele>1720.0</ele>
        <time>2018-06-23T12:37:35Z</time>
      </trkpt>
      <trkpt lat="40.249983" lon="-4.902983">
        <ele>1721.0</ele>
        <time>2018-06-23T12:37:36Z</time>
      </trkpt>
      <trkpt lat="40.250050" lon="-4.902917">
        <ele>1723.0</ele>
        <time>2018-06-23T12:37:37Z</time>
      </trkpt>
      <trkpt lat="40.250133" lon="-4.902883">
        <ele>1726.0</ele>
        <time>2018-06-23T12:37:38Z</time>
      </trkpt>
      <trkpt lat="40.250233" lon="-4.902867">
        <ele>1730.0</ele>
        <time>2018-06-23T12:37:39Z</time>
      </trkpt>
      <trkpt lat="40.250300" lon="-4.902867">
        <ele>1734.0</ele>
        <time>2018-06-23T12:37:40Z</time>
      </trkpt>
      <trkpt lat="40.250383" lon="-4.902883">
        <ele>1738.0</ele>
        <time>2018-06-23T12:37:41Z</time>
      </trkpt>
      <trkpt lat="40.250467" lon="-4.902917">
        <ele>1740.0</ele>
        <time>2018-06-23T12:37:42Z</time>
      </trkpt>
      <trkpt lat="40.250550" lon="-4.902983">
        <ele>1742.0</ele>
        <time>2018-06-23T12:37:43Z</time>
      </trkpt>
      <trkpt lat="40.250633" lon="-4.903050">
        <ele>1744.0</ele>
        <time>2018-06-23T12:37:44Z</time>
      </trkpt>
      <trkpt lat="40.250700" lon="-4.903133">
        <ele>1746.0</ele>
        <time>2018-06-23T12:37:45Z</time>
      </trkpt>
      <trkpt lat="40.250783" lon="-4.903217">
        <ele>1748.0</ele>
        <time>2018-06-23T12:37:46Z</time>
      </trkpt>
      <trkpt lat="40.250850" lon="-4.903317">
        <ele>1751.0</ele>
        <time>2018-06-23T12:37:47Z</time>
      </trkpt>
      <trkpt lat="40.250917" lon="-4.903433">
        <ele>1753.0</ele>
        <time>2018-06-23T12:37:48Z</time>
      </trkpt>
      <trkpt lat="40.250950" lon="-4.903550">
        <ele>1756.0</ele>
        <time>2018-06-23T12:37:49Z</time>
      </trkpt>
      <trkpt lat="40.250967" lon="-4.903667">
        <ele>1758.0</ele>
        <time>2018-06-23T12:37:50Z</time>
      </trkpt>
      <trkpt lat="40.250967" lon="-4.903800">
        <ele>1760.0</ele>
        <time>2018-06-23T12:37:51Z</time>
      </trkpt>
      <trkpt lat="40.250933" lon="-4.903933">
        <ele>1762.0</ele>
        <time>2018-06-23T12:37:52Z</time>
      </trkpt>
      <trkpt lat="40.250883" lon="-4.904067">
        <ele>1766.0</ele>
        <time>2018-06-23T12:37:53Z</time>
      </trkpt>
      <trkpt lat="40.250817" lon="-4.904183">
        <ele>1771.0</ele>
        <time>2018-06-23T12:37:54Z</time>
      </trkpt>
      <trkpt lat="40.250733" lon="-4.904267">
        <ele>1776.0</ele>
        <time>2018-06-23T12:37:55Z</time>
      </trkpt>
      <trkpt lat="40.250650" lon="-4.904350">
        <ele>1781.0</ele>
        <time>2018-06-23T12:37:56Z</time>
      </trkpt>
      <trkpt lat="40.250567" lon="-4.904417">
        <ele>1786.0</ele>
        <time>2018-06-23T12:37:57Z</time>
      </trkpt>
      <trkpt lat="40.250483" lon="-4.904517">
        <ele>1791.0</ele>
        <time>2018-06-23T12:37:58Z</time>
      </trkpt>
      <trkpt lat="40.250400" lon="-4.904583">
        <ele>1794.0</ele>
        <time>2018-06-23T12:37:59Z</time>
      </trkpt>
      <trkpt lat="40.250283" lon="-4.904633">
        <ele>1798.0</ele>
        <time>2018-06-23T12:38:00Z</time>
      </trkpt>
      <trkpt lat="40.250167" lon="-4.904650">
        <ele>1801.0</ele>
        <time>2018-06-23T12:38:01Z</time>
      </trkpt>
      <trkpt lat="40.250067" lon="-4.904617">
        <ele>1802.0</ele>
        <time>2018-06-23T12:38:02Z</time>
      </trkpt>
      <trkpt lat="40.249983" lon="-4.904533">
        <ele>1803.0</ele>
        <time>2018-06-23T12:38:03Z</time>
      </trkpt>
      <trkpt lat="40.249917" lon="-4.904433">
        <ele>1805.0</ele>
        <time>2018-06-23T12:38:04Z</time>
      </trkpt>
      <trkpt lat="40.249900" lon="-4.904350">
        <ele>1809.0</ele>
        <time>2018-06-23T12:38:05Z</time>
      </trkpt>
      <trkpt lat="40.249883" lon="-4.904267">
        <ele>1813.0</ele>
        <time>2018-06-23T12:38:06Z</time>
      </trkpt>
      <trkpt lat="40.249867" lon="-4.904200">
        <ele>1815.0</ele>
        <time>2018-06-23T12:38:07Z</time>
      </trkpt>
      <trkpt lat="40.249883" lon="-4.904117">
        <ele>1817.0</ele>
        <time>2018-06-23T12:38:08Z</time>
      </trkpt>
      <trkpt lat="40.249917" lon="-4.904033">
        <ele>1817.0</ele>
        <time>2018-06-23T12:38:09Z</time>
      </trkpt>
      <trkpt lat="40.249967" lon="-4.903933">
        <ele>1819.0</ele>
        <time>2018-06-23T12:38:10Z</time>
      </trkpt>
      <trkpt lat="40.250033" lon="-4.903867">
        <ele>1821.0</ele>
        <time>2018-06-23T12:38:11Z</time>
      </trkpt>
      <trkpt lat="40.250117" lon="-4.903817">
        <ele>1824.0</ele>
        <time>2018-06-23T12:38:12Z</time>
      </trkpt>
      <trkpt lat="40.250200" lon="-4.903800">
        <ele>1827.0</ele>
        <time>2018-06-23T12:38:13Z</time>
      </trkpt>
      <trkpt lat="40.250300" lon="-4.903800">
        <ele>1829.0</ele>
        <time>2018-06-23T12:38:14Z</time>
      </trkpt>
      <trkpt lat="40.250383" lon="-4.903817">
        <ele>1831.0</ele>
        <time>2018-06-23T12:38:15Z</time>
      </trkpt>
      <trkpt lat="40.250483" lon="-4.903833">
        <ele>1833.0</ele>
        <time>2018-06-23T12:38:16Z</time>
      </trkpt>
      <trkpt lat="40.250583" lon="-4.903883">
        <ele>1835.0</ele>
        <time>2018-06-23T12:38:17Z</time>
      </trkpt>
      <trkpt lat="40.250667" lon="-4.903950">
        <ele>1837.0</ele>
        <time>2018-06-23T12:38:18Z</time>
      </trkpt>
      <trkpt lat="40.250750" lon="-4.904050">
        <ele>1839.0</ele>
        <time>2018-06-23T12:38:19Z</time>
      </trkpt>
      <trkpt lat="40.250800" lon="-4.904183">
        <ele>1840.0</ele>
        <time>2018-06-23T12:38:20Z</time>
      </trkpt>
      <trkpt lat="40.250833" lon="-4.904317">
        <ele>1842.0</ele>
        <time>2018-06-23T12:38:21Z</time>
      </trkpt>
      <trkpt lat="40.250867" lon="-4.904450">
        <ele>1844.0</ele>
        <time>2018-06-23T12:38:22Z</time>
      </trkpt>
      <trkpt lat="40.250867" lon="-4.904567">
        <ele>1847.0</ele>
        <time>2018-06-23T12:38:23Z</time>
      </trkpt>
      <trkpt lat="40.250867" lon="-4.904700">
        <ele>1850.0</ele>
        <time>2018-06-23T12:38:24Z</time>
      </trkpt>
      <trkpt lat="40.250867" lon="-4.904817">
        <ele>1853.0</ele>
        <time>2018-06-23T12:38:25Z</time>
      </trkpt>
      <trkpt lat="40.250833" lon="-4.904950">
        <ele>1856.0</ele>
        <time>2018-06-23T12:38:26Z</time>
      </trkpt>
      <trkpt lat="40.250783" lon="-4.905083">
        <ele>1859.0</ele>
        <time>2018-06-23T12:38:27Z</time>
      </trkpt>
      <trkpt lat="40.250733" lon="-4.905200">
        <ele>1862.0</ele>
        <time>2018-06-23T12:38:28Z</time>
      </trkpt>
      <trkpt lat="40.250667" lon="-4.905317">
        <ele>1865.0</ele>
        <time>2018-06-23T12:38:29Z</time>
      </trkpt>
      <trkpt lat="40.250583" lon="-4.905400">
        <ele>1868.0</ele>
        <time>2018-06-23T12:38:30Z</time>
      </trkpt>
      <trkpt lat="40.250500" lon="-4.905483">
        <ele>1870.0</ele>
        <time>2018-06-23T12:38:31Z</time>
      </trkpt>
      <trkpt lat="40.250383" lon="-4.905550">
        <ele>1873.0</ele>
        <time>2018-06-23T12:38:32Z</time>
      </trkpt>
      <trkpt lat="40.250283" lon="-4.905583">
        <ele>1876.0</ele>
        <time>2018-06-23T12:38:33Z</time>
      </trkpt>
      <trkpt lat="40.250167" lon="-4.905600">
        <ele>1879.0</ele>
        <time>2018-06-23T12:38:34Z</time>
      </trkpt>
      <trkpt lat="40.250050" lon="-4.905550">
        <ele>1881.0</ele>
        <time>2018-06-23T12:38:35Z</time>
      </trkpt>
      <trkpt lat="40.249950" lon="-4.905483">
        <ele>1883.0</ele>
        <time>2018-06-23T12:38:36Z</time>
      </trkpt>
      <trkpt lat="40.249850" lon="-4.905400">
        <ele>1886.0</ele>
        <time>2018-06-23T12:38:37Z</time>
      </trkpt>
      <trkpt lat="40.249783" lon="-4.905300">
        <ele>1890.0</ele>
        <time>2018-06-23T12:38:38Z</time>
      </trkpt>
      <trkpt lat="40.249733" lon="-4.905217">
        <ele>1895.0</ele>
        <time>2018-06-23T12:38:39Z</time>
      </trkpt>
      <trkpt lat="40.249700" lon="-4.905133">
        <ele>1898.0</ele>
        <time>2018-06-23T12:38:40Z</time>
      </trkpt>
      <trkpt lat="40.249667" lon="-4.905033">
        <ele>1900.0</ele>
        <time>2018-06-23T12:38:41Z</time>
      </trkpt>
      <trkpt lat="40.249650" lon="-4.904933">
        <ele>1902.0</ele>
        <time>2018-06-23T12:38:42Z</time>
      </trkpt>
      <trkpt lat="40.249650" lon="-4.904817">
        <ele>1904.0</ele>
        <time>2018-06-23T12:38:43Z</time>
      </trkpt>
      <trkpt lat="40.249683" lon="-4.904717">
        <ele>1905.0</ele>
        <time>2018-06-23T12:38:44Z</time>
      </trkpt>
      <trkpt lat="40.249750" lon="-4.904633">
        <ele>1907.0</ele>
        <time>2018-06-23T12:38:45Z</time>
      </trkpt>
      <trkpt lat="40.249817" lon="-4.904567">
        <ele>1910.0</ele>
        <time>2018-06-23T12:38:46Z</time>
      </trkpt>
      <trkpt lat="40.249900" lon="-4.904500">
        <ele>1913.0</ele>
        <time>2018-06-23T12:38:47Z</time>
      </trkpt>
      <trkpt lat="40.249983" lon="-4.904483">
        <ele>1916.0</ele>
        <time>2018-06-23T12:38:48Z</time>
      </trkpt>
      <trkpt lat="40.250050" lon="-4.904483">
        <ele>1919.0</ele>
        <time>2018-06-23T12:38:49Z</time>
      </trkpt>
      <trkpt lat="40.250117" lon="-4.904500">
        <ele>1920.0</ele>
        <time>2018-06-23T12:38:50Z</time>
      </trkpt>
      <trkpt lat="40.250200" lon="-4.904550">
        <ele>1920.0</ele>
        <time>2018-06-23T12:38:51Z</time>
      </trkpt>
      <trkpt lat="40.250283" lon="-4.904633">
        <ele>1919.0</ele>
        <time>2018-06-23T12:38:52Z</time>
      </trkpt>
      <trkpt lat="40.250350" lon="-4.904750">
        <ele>1919.0</ele>
        <time>2018-06-23T12:38:53Z</time>
      </trkpt>
      <trkpt lat="40.250383" lon="-4.904883">
        <ele>1921.0</ele>
        <time>2018-06-23T12:38:54Z</time>
      </trkpt>
      <trkpt lat="40.250383" lon="-4.905033">
        <ele>1924.0</ele>
        <time>2018-06-23T12:38:55Z</time>
      </trkpt>
      <trkpt lat="40.250367" lon="-4.905167">
        <ele>1928.0</ele>
        <time>2018-06-23T12:38:56Z</time>
      </trkpt>
      <trkpt lat="40.250350" lon="-4.905267">
        <ele>1933.0</ele>
        <time>2018-06-23T12:38:57Z</time>
      </trkpt>
      <trkpt lat="40.250317" lon="-4.905350">
        <ele>1935.0</ele>
        <time>2018-06-23T12:38:58Z</time>
      </trkpt>
      <trkpt lat="40.250267" lon="-4.905417">
        <ele>1937.0</ele>
        <time>2018-06-23T12:38:59Z</time>
      </trkpt>
      <trkpt lat="40.250200" lon="-4.905500">
        <ele>1937.0</ele>
        <time>2018-06-23T12:39:00Z</time>
      </trkpt>
      <trkpt lat="40.250117" lon="-4.905583">
        <ele>1938.0</ele>
        <time>2018-06-23T12:39:01Z</time>
      </trkpt>
      <trkpt lat="40.250017" lon="-4.905667">
        <ele>1938.0</ele>
        <time>2018-06-23T12:39:02Z</time>
      </trkpt>
      <trkpt lat="40.249900" lon="-4.905733">
        <ele>1940.0</ele>
        <time>2018-06-23T12:39:03Z</time>
      </trkpt>
      <trkpt lat="40.249767" lon="-4.905767">
        <ele>1942.0</ele>
        <time>2018-06-23T12:39:04Z</time>
      </trkpt>
      <trkpt lat="40.249650" lon="-4.905767">
        <ele>1946.0</ele>
        <time>2018-06-23T12:39:05Z</time>
      </trkpt>
      <trkpt lat="40.249550" lon="-4.905733">
        <ele>1949.0</ele>
        <time>2018-06-23T12:39:06Z</time>
      </trkpt>
      <trkpt lat="40.249450" lon="-4.905700">
        <ele>1951.0</ele>
        <time>2018-06-23T12:39:07Z</time>
      </trkpt>
      <trkpt lat="40.249350" lon="-4.905633">
        <ele>1952.0</ele>
        <time>2018-06-23T12:39:08Z</time>
      </trkpt>
      <trkpt lat="40.249250" lon="-4.905550">
        <ele>1954.0</ele>
        <time>2018-06-23T12:39:09Z</time>
      </trkpt>
      <trkpt lat="40.249167" lon="-4.905433">
        <ele>1955.0</ele>
        <time>2018-06-23T12:39:10Z</time>
      </trkpt>
      <trkpt lat="40.249100" lon="-4.905317">
        <ele>1958.0</ele>
        <time>2018-06-23T12:39:11Z</time>
      </trkpt>
      <trkpt lat="40.249067" lon="-4.905183">
        <ele>1959.0</ele>
        <time>2018-06-23T12:39:12Z</time>
      </trkpt>
      <trkpt lat="40.249067" lon="-4.905050">
        <ele>1960.0</ele>
        <time>2018-06-23T12:39:13Z</time>
      </trkpt>
      <trkpt lat="40.249100" lon="-4.904933">
        <ele>1962.0</ele>
        <time>2018-06-23T12:39:14Z</time>
      </trkpt>
      <trkpt lat="40.249150" lon="-4.904833">
        <ele>1964.0</ele>
        <time>2018-06-23T12:39:15Z</time>
      </trkpt>
      <trkpt lat="40.249200" lon="-4.904767">
        <ele>1967.0</ele>
        <time>2018-06-23T12:39:16Z</time>
      </trkpt>
      <trkpt lat="40.249250" lon="-4.904733">
        <ele>1968.0</ele>
        <time>2018-06-23T12:39:17Z</time>
      </trkpt>
      <trkpt lat="40.249317" lon="-4.904700">
        <ele>1968.0</ele>
        <time>2018-06-23T12:39:18Z</time>
      </trkpt>
      <trkpt lat="40.249383" lon="-4.904683">
        <ele>1967.0</ele>
        <time>2018-06-23T12:39:19Z</time>
      </trkpt>
      <trkpt lat="40.249467" lon="-4.904683">
        <ele>1967.0</ele>
        <time>2018-06-23T12:39:20Z</time>
      </trkpt>
      <trkpt lat="40.249567" lon="-4.904700">
        <ele>1966.0</ele>
        <time>2018-06-23T12:39:21Z</time>
      </trkpt>
      <trkpt lat="40.249650" lon="-4.904750">
        <ele>1967.0</ele>
        <time>2018-06-23T12:39:22Z</time>
      </trkpt>
      <trkpt lat="40.249750" lon="-4.904783">
        <ele>1967.0</ele>
        <time>2018-06-23T12:39:23Z</time>
      </trkpt>
      <trkpt lat="40.249833" lon="-4.904833">
        <ele>1969.0</ele>
        <time>2018-06-23T12:39:24Z</time>
      </trkpt>
      <trkpt lat="40.249917" lon="-4.904900">
        <ele>1969.0</ele>
        <time>2018-06-23T12:39:25Z</time>
      </trkpt>
      <trkpt lat="40.249983" lon="-4.904967">
        <ele>1970.0</ele>
        <time>2018-06-23T12:39:26Z</time>
      </trkpt>
      <trkpt lat="40.250067" lon="-4.905050">
        <ele>1971.0</ele>
        <time>2018-06-23T12:39:27Z</time>
      </trkpt>
      <trkpt lat="40.250133" lon="-4.905150">
        <ele>1972.0</ele>
        <time>2018-06-23T12:39:28Z</time>
      </trkpt>
      <trkpt lat="40.250200" lon="-4.905233">
        <ele>1973.0</ele>
        <time>2018-06-23T12:39:29Z</time>
      </trkpt>
      <trkpt lat="40.250267" lon="-4.905333">
        <ele>1975.0</ele>
        <time>2018-06-23T12:39:30Z</time>
      </trkpt>
      <trkpt lat="40.250333" lon="-4.905417">
        <ele>1975.0</ele>
        <time>2018-06-23T12:39:31Z</time>
      </trkpt>
      <trkpt lat="40.250400" lon="-4.905500">
        <ele>1976.0</ele>
        <time>2018-06-23T12:39:32Z</time>
      </trkpt>
      <trkpt lat="40.250467" lon="-4.905583">
        <ele>1977.0</ele>
        <time>2018-06-23T12:39:33Z</time>
      </trkpt>
      <trkpt lat="40.250533" lon="-4.905650">
        <ele>1979.0</ele>
        <time>2018-06-23T12:39:34Z</time>
      </trkpt>
      <trkpt lat="40.250583" lon="-4.905717">
        <ele>1980.0</ele>
        <time>2018-06-23T12:39:35Z</time>
      </trkpt>
      <trkpt lat="40.250650" lon="-4.905767">
        <ele>1980.0</ele>
        <time>2018-06-23T12:39:36Z</time>
      </trkpt>
      <trkpt lat="40.250717" lon="-4.905817">
        <ele>1981.0</ele>
        <time>2018-06-23T12:39:37Z</time>
      </trkpt>
      <trkpt lat="40.250783" lon="-4.905850">
        <ele>1981.0</ele>
        <time>2018-06-23T12:39:38Z</time>
      </trkpt>
      <trkpt lat="40.250867" lon="-4.905900">
        <ele>1982.0</ele>
        <time>2018-06-23T12:39:39Z</time>
      </trkpt>
      <trkpt lat="40.250950" lon="-4.905933">
        <ele>1982.0</ele>
        <time>2018-06-23T12:39:40Z</time>
      </trkpt>
      <trkpt lat="40.251033" lon="-4.905967">
        <ele>1983.0</ele>
        <time>2018-06-23T12:39:41Z</time>
      </trkpt>
      <trkpt lat="40.251117" lon="-4.906017">
        <ele>1984.0</ele>
        <time>2018-06-23T12:39:42Z</time>
      </trkpt>
      <trkpt lat="40.251200" lon="-4.906050">
        <ele>1985.0</ele>
        <time>2018-06-23T12:39:43Z</time>
      </trkpt>
      <trkpt lat="40.251283" lon="-4.906083">
        <ele>1986.0</ele>
        <time>2018-06-23T12:39:44Z</time>
      </trkpt>
      <trkpt lat="40.251383" lon="-4.906117">
        <ele>1986.0</ele>
        <time>2018-06-23T12:39:45Z</time>
      </trkpt>
      <trkpt lat="40.251467" lon="-4.906133">
        <ele>1987.0</ele>
        <time>2018-06-23T12:39:46Z</time>
      </trkpt>
      <trkpt lat="40.251567" lon="-4.906167">
        <ele>1988.0</ele>
        <time>2018-06-23T12:39:47Z</time>
      </trkpt>
      <trkpt lat="40.251667" lon="-4.906200">
        <ele>1989.0</ele>
        <time>2018-06-23T12:39:48Z</time>
      </trkpt>
      <trkpt lat="40.251750" lon="-4.906250">
        <ele>1991.0</ele>
        <time>2018-06-23T12:39:49Z</time>
      </trkpt>
      <trkpt lat="40.251850" lon="-4.906300">
        <ele>1995.0</ele>
        <time>2018-06-23T12:39:50Z</time>
      </trkpt>
      <trkpt lat="40.251933" lon="-4.906333">
        <ele>1998.0</ele>
        <time>2018-06-23T12:39:51Z</time>
      </trkpt>
      <trkpt lat="40.252000" lon="-4.906367">
        <ele>2000.0</ele>
        <time>2018-06-23T12:39:52Z</time>
      </trkpt>
      <trkpt lat="40.252083" lon="-4.906417">
        <ele>2002.0</ele>
        <time>2018-06-23T12:39:53Z</time>
      </trkpt>
      <trkpt lat="40.252150" lon="-4.906500">
        <ele>2004.0</ele>
        <time>2018-06-23T12:39:54Z</time>
      </trkpt>
      <trkpt lat="40.252200" lon="-4.906600">
        <ele>2006.0</ele>
        <time>2018-06-23T12:39:55Z</time>
      </trkpt>
      <trkpt lat="40.252200" lon="-4.906750">
        <ele>2007.0</ele>
        <time>2018-06-23T12:39:56Z</time>
      </trkpt>
      <trkpt lat="40.252167" lon="-4.906883">
        <ele>2008.0</ele>
        <time>2018-06-23T12:39:57Z</time>
      </trkpt>
      <trkpt lat="40.252100" lon="-4.906983">
        <ele>2008.0</ele>
        <time>2018-06-23T12:39:58Z</time>
      </trkpt>
      <trkpt lat="40.251983" lon="-4.907033">
        <ele>2008.0</ele>
        <time>2018-06-23T12:39:59Z</time>
      </trkpt>
      <trkpt lat="40.251867" lon="-4.907033">
        <ele>2008.0</ele>
        <time>2018-06-23T12:40:00Z</time>
      </trkpt>
      <trkpt lat="40.251750" lon="-4.906983">
        <ele>2010.0</ele>
        <time>2018-06-23T12:40:01Z</time>
      </trkpt>
      <trkpt lat="40.251667" lon="-4.906900">
        <ele>2013.0</ele>
        <time>2018-06-23T12:40:02Z</time>
      </trkpt>
      <trkpt lat="40.251617" lon="-4.906800">
        <ele>2014.0</ele>
        <time>2018-06-23T12:40:03Z</time>
      </trkpt>
      <trkpt lat="40.251583" lon="-4.906667">
        <ele>2015.0</ele>
        <time>2018-06-23T12:40:04Z</time>
      </trkpt>
      <trkpt lat="40.251567" lon="-4.906550">
        <ele>2016.0</ele>
        <time>2018-06-23T12:40:05Z</time>
      </trkpt>
      <trkpt lat="40.251583" lon="-4.906417">
        <ele>2018.0</ele>
        <time>2018-06-23T12:40:06Z</time>
      </trkpt>
      <trkpt lat="40.251617" lon="-4.906267">
        <ele>2020.0</ele>
        <time>2018-06-23T12:40:07Z</time>
      </trkpt>
      <trkpt lat="40.251683" lon="-4.906150">
        <ele>2022.0</ele>
        <time>2018-06-23T12:40:08Z</time>
      </trkpt>
      <trkpt lat="40.251750" lon="-4.906067">
        <ele>2024.0</ele>
        <time>2018-06-23T12:40:09Z</time>
      </trkpt>
      <trkpt lat="40.251850" lon="-4.906000">
        <ele>2026.0</ele>
        <time>2018-06-23T12:40:10Z</time>
      </trkpt>
      <trkpt lat="40.251933" lon="-4.905950">
        <ele>2027.0</ele>
        <time>2018-06-23T12:40:11Z</time>
      </trkpt>
      <trkpt lat="40.252033" lon="-4.905950">
        <ele>2029.0</ele>
        <time>2018-06-23T12:40:12Z</time>
      </trkpt>
      <trkpt lat="40.252117" lon="-4.905967">
        <ele>2030.0</ele>
        <time>2018-06-23T12:40:13Z</time>
      </trkpt>
      <trkpt lat="40.252183" lon="-4.906000">
        <ele>2032.0</ele>
        <time>2018-06-23T12:40:14Z</time>
      </trkpt>
      <trkpt lat="40.252267" lon="-4.906033">
        <ele>2033.0</ele>
        <time>2018-06-23T12:40:15Z</time>
      </trkpt>
      <trkpt lat="40.252350" lon="-4.906100">
        <ele>2036.0</ele>
        <time>2018-06-23T12:40:16Z</time>
      </trkpt>
      <trkpt lat="40.252433" lon="-4.906150">
        <ele>2039.0</ele>
        <time>2018-06-23T12:40:17Z</time>
      </trkpt>
      <trkpt lat="40.252500" lon="-4.906200">
        <ele>2043.0</ele>
        <time>2018-06-23T12:40:18Z</time>
      </trkpt>
      <trkpt lat="40.252567" lon="-4.906250">
        <ele>2046.0</ele>
        <time>2018-06-23T12:40:19Z</time>
      </trkpt>
      <trkpt lat="40.252633" lon="-4.906300">
        <ele>2048.0</ele>
        <time>2018-06-23T12:40:20Z</time>
      </trkpt>
      <trkpt lat="40.252700" lon="-4.906350">
        <ele>2051.0</ele>
        <time>2018-06-23T12:40:21Z</time>
      </trkpt>
      <trkpt lat="40.252750" lon="-4.906400">
        <ele>2053.0</ele>
        <time>2018-06-23T12:40:22Z</time>
      </trkpt>
      <trkpt lat="40.252783" lon="-4.906483">
        <ele>2054.0</ele>
        <time>2018-06-23T12:40:23Z</time>
      </trkpt>
      <trkpt lat="40.252800" lon="-4.906583">
        <ele>2055.0</ele>
        <time>2018-06-23T12:40:24Z</time>
      </trkpt>
      <trkpt lat="40.252800" lon="-4.906700">
        <ele>2055.0</ele>
        <time>2018-06-23T12:40:25Z</time>
      </trkpt>
      <trkpt lat="40.252750" lon="-4.906800">
        <ele>2055.0</ele>
        <time>2018-06-23T12:40:26Z</time>
      </trkpt>
      <trkpt lat="40.252700" lon="-4.906900">
        <ele>2056.0</ele>
        <time>2018-06-23T12:40:27Z</time>
      </trkpt>
      <trkpt lat="40.252600" lon="-4.906983">
        <ele>2057.0</ele>
        <time>2018-06-23T12:40:28Z</time>
      </trkpt>
      <trkpt lat="40.252500" lon="-4.907017">
        <ele>2058.0</ele>
        <time>2018-06-23T12:40:29Z</time>
      </trkpt>
      <trkpt lat="40.252400" lon="-4.907017">
        <ele>2060.0</ele>
        <time>2018-06-23T12:40:30Z</time>
      </trkpt>
      <trkpt lat="40.252300" lon="-4.906967">
        <ele>2060.0</ele>
        <time>2018-06-23T12:40:31Z</time>
      </trkpt>
      <trkpt lat="40.252200" lon="-4.906900">
        <ele>2061.0</ele>
        <time>2018-06-23T12:40:32Z</time>
      </trkpt>
      <trkpt lat="40.252100" lon="-4.906800">
        <ele>2062.0</ele>
        <time>2018-06-23T12:40:33Z</time>
      </trkpt>
      <trkpt lat="40.252033" lon="-4.906700">
        <ele>2066.0</ele>
        <time>2018-06-23T12:40:34Z</time>
      </trkpt>
      <trkpt lat="40.251983" lon="-4.906583">
        <ele>2069.0</ele>
        <time>2018-06-23T12:40:35Z</time>
      </trkpt>
      <trkpt lat="40.251950" lon="-4.906467">
        <ele>2070.0</ele>
        <time>2018-06-23T12:40:36Z</time>
      </trkpt>
      <trkpt lat="40.251950" lon="-4.906333">
        <ele>2071.0</ele>
        <time>2018-06-23T12:40:37Z</time>
      </trkpt>
      <trkpt lat="40.251983" lon="-4.906200">
        <ele>2072.0</ele>
        <time>2018-06-23T12:40:38Z</time>
      </trkpt>
      <trkpt lat="40.252000" lon="-4.906067">
        <ele>2072.0</ele>
        <time>2018-06-23T12:40:39Z</time>
      </trkpt>
      <trkpt lat="40.252050" lon="-4.905950">
        <ele>2074.0</ele>
        <time>2018-06-23T12:40:40Z</time>
      </trkpt>
      <trkpt lat="40.252100" lon="-4.905817">
        <ele>2074.0</ele>
        <time>2018-06-23T12:40:41Z</time>
      </trkpt>
      <trkpt lat="40.252167" lon="-4.905717">
        <ele>2075.0</ele>
        <time>2018-06-23T12:40:42Z</time>
      </trkpt>
      <trkpt lat="40.252267" lon="-4.905650">
        <ele>2075.0</ele>
        <time>2018-06-23T12:40:43Z</time>
      </trkpt>
      <trkpt lat="40.252367" lon="-4.905600">
        <ele>2077.0</ele>
        <time>2018-06-23T12:40:44Z</time>
      </trkpt>
      <trkpt lat="40.252467" lon="-4.905567">
        <ele>2080.0</ele>
        <time>2018-06-23T12:40:45Z</time>
      </trkpt>
      <trkpt lat="40.252567" lon="-4.905550">
        <ele>2083.0</ele>
        <time>2018-06-23T12:40:46Z</time>
      </trkpt>
      <trkpt lat="40.252650" lon="-4.905550">
        <ele>2085.0</ele>
        <time>2018-06-23T12:40:47Z</time>
      </trkpt>
      <trkpt lat="40.252717" lon="-4.905567">
        <ele>2087.0</ele>
        <time>2018-06-23T12:40:48Z</time>
      </trkpt>
      <trkpt lat="40.252800" lon="-4.905617">
        <ele>2089.0</ele>
        <time>2018-06-23T12:40:49Z</time>
      </trkpt>
      <trkpt lat="40.252867" lon="-4.905683">
        <ele>2091.0</ele>
        <time>2018-06-23T12:40:50Z</time>
      </trkpt>
      <trkpt lat="40.252917" lon="-4.905767">
        <ele>2094.0</ele>
        <time>2018-06-23T12:40:51Z</time>
      </trkpt>
      <trkpt lat="40.252933" lon="-4.905850">
        <ele>2097.0</ele>
        <time>2018-06-23T12:40:52Z</time>
      </trkpt>
      <trkpt lat="40.252933" lon="-4.905950">
        <ele>2099.0</ele>
        <time>2018-06-23T12:40:53Z</time>
      </trkpt>
      <trkpt lat="40.252900" lon="-4.906033">
        <ele>2101.0</ele>
        <time>2018-06-23T12:40:54Z</time>
      </trkpt>
      <trkpt lat="40.252833" lon="-4.906117">
        <ele>2103.0</ele>
        <time>2018-06-23T12:40:55Z</time>
      </trkpt>
      <trkpt lat="40.252767" lon="-4.906183">
        <ele>2104.0</ele>
        <time>2018-06-23T12:40:56Z</time>
      </trkpt>
      <trkpt lat="40.252667" lon="-4.906217">
        <ele>2105.0</ele>
        <time>2018-06-23T12:40:57Z</time>
      </trkpt>
      <trkpt lat="40.252550" lon="-4.906217">
        <ele>2106.0</ele>
        <time>2018-06-23T12:40:58Z</time>
      </trkpt>
      <trkpt lat="40.252450" lon="-4.906183">
        <ele>2108.0</ele>
        <time>2018-06-23T12:40:59Z</time>
      </trkpt>
      <trkpt lat="40.252333" lon="-4.906133">
        <ele>2110.0</ele>
        <time>2018-06-23T12:41:00Z</time>
      </trkpt>
      <trkpt lat="40.252233" lon="-4.906033">
        <ele>2112.0</ele>
        <time>2018-06-23T12:41:01Z</time>
      </trkpt>
      <trkpt lat="40.252167" lon="-4.905917">
        <ele>2114.0</ele>
        <time>2018-06-23T12:41:02Z</time>
      </trkpt>
      <trkpt lat="40.252117" lon="-4.905783">
        <ele>2116.0</ele>
        <time>2018-06-23T12:41:03Z</time>
      </trkpt>
      <trkpt lat="40.252083" lon="-4.905633">
        <ele>2118.0</ele>
        <time>2018-06-23T12:41:04Z</time>
      </trkpt>
      <trkpt lat="40.252083" lon="-4.905500">
        <ele>2119.0</ele>
        <time>2018-06-23T12:41:05Z</time>
      </trkpt>
      <trkpt lat="40.252100" lon="-4.905367">
        <ele>2120.0</ele>
        <time>2018-06-23T12:41:06Z</time>
      </trkpt>
      <trkpt lat="40.252133" lon="-4.905233">
        <ele>2119.0</ele>
        <time>2018-06-23T12:41:07Z</time>
      </trkpt>
      <trkpt lat="40.252217" lon="-4.905117">
        <ele>2119.0</ele>
        <time>2018-06-23T12:41:08Z</time>
      </trkpt>
      <trkpt lat="40.252300" lon="-4.905017">
        <ele>2120.0</ele>
        <time>2018-06-23T12:41:09Z</time>
      </trkpt>
      <trkpt lat="40.252383" lon="-4.904950">
        <ele>2121.0</ele>
        <time>2018-06-23T12:41:10Z</time>
      </trkpt>
      <trkpt lat="40.252467" lon="-4.904900">
        <ele>2123.0</ele>
        <time>2018-06-23T12:41:11Z</time>
      </trkpt>
      <trkpt lat="40.252550" lon="-4.904833">
        <ele>2125.0</ele>
        <time>2018-06-23T12:41:12Z</time>
      </trkpt>
      <trkpt lat="40.252617" lon="-4.904800">
        <ele>2125.0</ele>
        <time>2018-06-23T12:41:13Z</time>
      </trkpt>
      <trkpt lat="40.252700" lon="-4.904767">
        <ele>2125.0</ele>
        <time>2018-06-23T12:41:14Z</time>
      </trkpt>
      <trkpt lat="40.252783" lon="-4.904750">
        <ele>2125.0</ele>
        <time>2018-06-23T12:41:15Z</time>
      </trkpt>
      <trkpt lat="40.252850" lon="-4.904767">
        <ele>2125.0</ele>
        <time>2018-06-23T12:41:16Z</time>
      </trkpt>
      <trkpt lat="40.252933" lon="-4.904817">
        <ele>2124.0</ele>
        <time>2018-06-23T12:41:17Z</time>
      </trkpt>
      <trkpt lat="40.253000" lon="-4.904883">
        <ele>2124.0</ele>
        <time>2018-06-23T12:41:18Z</time>
      </trkpt>
      <trkpt lat="40.253033" lon="-4.904983">
        <ele>2124.0</ele>
        <time>2018-06-23T12:41:19Z</time>
      </trkpt>
      <trkpt lat="40.253067" lon="-4.905083">
        <ele>2125.0</ele>
        <time>2018-06-23T12:41:20Z</time>
      </trkpt>
      <trkpt lat="40.253083" lon="-4.905200">
        <ele>2127.0</ele>
        <time>2018-06-23T12:41:21Z</time>
      </trkpt>
      <trkpt lat="40.253100" lon="-4.905300">
        <ele>2129.0</ele>
        <time>2018-06-23T12:41:22Z</time>
      </trkpt>
      <trkpt lat="40.253100" lon="-4.905383">
        <ele>2132.0</ele>
        <time>2018-06-23T12:41:23Z</time>
      </trkpt>
      <trkpt lat="40.253083" lon="-4.905450">
        <ele>2133.0</ele>
        <time>2018-06-23T12:41:24Z</time>
      </trkpt>
      <trkpt lat="40.253067" lon="-4.905550">
        <ele>2134.0</ele>
        <time>2018-06-23T12:41:25Z</time>
      </trkpt>
      <trkpt lat="40.253050" lon="-4.905633">
        <ele>2134.0</ele>
        <time>2018-06-23T12:41:26Z</time>
      </trkpt>
      <trkpt lat="40.253033" lon="-4.905733">
        <ele>2135.0</ele>
        <time>2018-06-23T12:41:27Z</time>
      </trkpt>
      <trkpt lat="40.253050" lon="-4.905833">
        <ele>2137.0</ele>
        <time>2018-06-23T12:41:28Z</time>
      </trkpt>
      <trkpt lat="40.253067" lon="-4.905917">
        <ele>2138.0</ele>
        <time>2018-06-23T12:41:29Z</time>
      </trkpt>
      <trkpt lat="40.253117" lon="-4.906017">
        <ele>2139.0</ele>
        <time>2018-06-23T12:41:30Z</time>
      </trkpt>
      <trkpt lat="40.253167" lon="-4.906083">
        <ele>2139.0</ele>
        <time>2018-06-23T12:41:31Z</time>
      </trkpt>
      <trkpt lat="40.253250" lon="-4.906150">
        <ele>2139.0</ele>
        <time>2018-06-23T12:41:32Z</time>
      </trkpt>
      <trkpt lat="40.253333" lon="-4.906200">
        <ele>2139.0</ele>
        <time>2018-06-23T12:41:33Z</time>
      </trkpt>
      <trkpt lat="40.253417" lon="-4.906233">
        <ele>2138.0</ele>
        <time>2018-06-23T12:41:34Z</time>
      </trkpt>
      <trkpt lat="40.253500" lon="-4.906250">
        <ele>2138.0</ele>
        <time>2018-06-23T12:41:35Z</time>
      </trkpt>
      <trkpt lat="40.253583" lon="-4.906267">
        <ele>2139.0</ele>
        <time>2018-06-23T12:41:36Z</time>
      </trkpt>
      <trkpt lat="40.253683" lon="-4.906267">
        <ele>2139.0</ele>
        <time>2018-06-23T12:41:37Z</time>
      </trkpt>
      <trkpt lat="40.253783" lon="-4.906283">
        <ele>2139.0</ele>
        <time>2018-06-23T12:41:38Z</time>
      </trkpt>
      <trkpt lat="40.253883" lon="-4.906317">
        <ele>2139.0</ele>
        <time>2018-06-23T12:41:39Z</time>
      </trkpt>
      <trkpt lat="40.253983" lon="-4.906350">
        <ele>2139.0</ele>
        <time>2018-06-23T12:41:40Z</time>
      </trkpt>
      <trkpt lat="40.254083" lon="-4.906350">
        <ele>2140.0</ele>
        <time>2018-06-23T12:41:41Z</time>
      </trkpt>
      <trkpt lat="40.254200" lon="-4.906367">
        <ele>2140.0</ele>
        <time>2018-06-23T12:41:42Z</time>
      </trkpt>
      <trkpt lat="40.254283" lon="-4.906367">
        <ele>2141.0</ele>
        <time>2018-06-23T12:41:43Z</time>
      </trkpt>
      <trkpt lat="40.254383" lon="-4.906383">
        <ele>2140.0</ele>
        <time>2018-06-23T12:41:44Z</time>
      </trkpt>
      <trkpt lat="40.254483" lon="-4.906400">
        <ele>2139.0</ele>
        <time>2018-06-23T12:41:45Z</time>
      </trkpt>
      <trkpt lat="40.254583" lon="-4.906417">
        <ele>2137.0</ele>
        <time>2018-06-23T12:41:46Z</time>
      </trkpt>
      <trkpt lat="40.254700" lon="-4.906433">
        <ele>2135.0</ele>
        <time>2018-06-23T12:41:47Z</time>
      </trkpt>
      <trkpt lat="40.254800" lon="-4.906450">
        <ele>2135.0</ele>
        <time>2018-06-23T12:41:48Z</time>
      </trkpt>
      <trkpt lat="40.254917" lon="-4.906467">
        <ele>2134.0</ele>
        <time>2018-06-23T12:41:49Z</time>
      </trkpt>
      <trkpt lat="40.255017" lon="-4.906483">
        <ele>2134.0</ele>
        <time>2018-06-23T12:41:50Z</time>
      </trkpt>
      <trkpt lat="40.255133" lon="-4.906483">
        <ele>2133.0</ele>
        <time>2018-06-23T12:41:51Z</time>
      </trkpt>
      <trkpt lat="40.255233" lon="-4.906483">
        <ele>2132.0</ele>
        <time>2018-06-23T12:41:52Z</time>
      </trkpt>
      <trkpt lat="40.255350" lon="-4.906483">
        <ele>2131.0</ele>
        <time>2018-06-23T12:41:53Z</time>
      </trkpt>
      <trkpt lat="40.255467" lon="-4.906517">
        <ele>2129.0</ele>
        <time>2018-06-23T12:41:54Z</time>
      </trkpt>
      <trkpt lat="40.255567" lon="-4.906533">
        <ele>2128.0</ele>
        <time>2018-06-23T12:41:55Z</time>
      </trkpt>
      <trkpt lat="40.255683" lon="-4.906550">
        <ele>2126.0</ele>
        <time>2018-06-23T12:41:56Z</time>
      </trkpt>
      <trkpt lat="40.255783" lon="-4.906567">
        <ele>2125.0</ele>
        <time>2018-06-23T12:41:57Z</time>
      </trkpt>
      <trkpt lat="40.255900" lon="-4.906567">
        <ele>2124.0</ele>
        <time>2018-06-23T12:41:58Z</time>
      </trkpt>
      <trkpt lat="40.256000" lon="-4.906583">
        <ele>2123.0</ele>
        <time>2018-06-23T12:41:59Z</time>
      </trkpt>
      <trkpt lat="40.256117" lon="-4.906600">
        <ele>2122.0</ele>
        <time>2018-06-23T12:42:00Z</time>
      </trkpt>
      <trkpt lat="40.256217" lon="-4.906617">
        <ele>2121.0</ele>
        <time>2018-06-23T12:42:01Z</time>
      </trkpt>
      <trkpt lat="40.256317" lon="-4.906633">
        <ele>2120.0</ele>
        <time>2018-06-23T12:42:02Z</time>
      </trkpt>
      <trkpt lat="40.256400" lon="-4.906633">
        <ele>2119.0</ele>
        <time>2018-06-23T12:42:03Z</time>
      </trkpt>
      <trkpt lat="40.256500" lon="-4.906633">
        <ele>2118.0</ele>
        <time>2018-06-23T12:42:04Z</time>
      </trkpt>
      <trkpt lat="40.256583" lon="-4.906650">
        <ele>2116.0</ele>
        <time>2018-06-23T12:42:05Z</time>
      </trkpt>
      <trkpt lat="40.256683" lon="-4.906650">
        <ele>2115.0</ele>
        <time>2018-06-23T12:42:06Z</time>
      </trkpt>
      <trkpt lat="40.256783" lon="-4.906667">
        <ele>2113.0</ele>
        <time>2018-06-23T12:42:07Z</time>
      </trkpt>
      <trkpt lat="40.256900" lon="-4.906683">
        <ele>2112.0</ele>
        <time>2018-06-23T12:42:08Z</time>
      </trkpt>
      <trkpt lat="40.257000" lon="-4.906717">
        <ele>2110.0</ele>
        <time>2018-06-23T12:42:09Z</time>
      </trkpt>
      <trkpt lat="40.257100" lon="-4.906733">
        <ele>2109.0</ele>
        <time>2018-06-23T12:42:10Z</time>
      </trkpt>
      <trkpt lat="40.257183" lon="-4.906767">
        <ele>2108.0</ele>
        <time>2018-06-23T12:42:11Z</time>
      </trkpt>
      <trkpt lat="40.257267" lon="-4.906783">
        <ele>2107.0</ele>
        <time>2018-06-23T12:42:12Z</time>
      </trkpt>
      <trkpt lat="40.257350" lon="-4.906800">
        <ele>2105.0</ele>
        <time>2018-06-23T12:42:13Z</time>
      </trkpt>
      <trkpt lat="40.257433" lon="-4.906833">
        <ele>2103.0</ele>
        <time>2018-06-23T12:42:14Z</time>
      </trkpt>
      <trkpt lat="40.257533" lon="-4.906867">
        <ele>2101.0</ele>
        <time>2018-06-23T12:42:15Z</time>
      </trkpt>
      <trkpt lat="40.257633" lon="-4.906900">
        <ele>2100.0</ele>
        <time>2018-06-23T12:42:16Z</time>
      </trkpt>
      <trkpt lat="40.257733" lon="-4.906917">
        <ele>2099.0</ele>
        <time>2018-06-23T12:42:17Z</time>
      </trkpt>
      <trkpt lat="40.257833" lon="-4.906933">
        <ele>2098.0</ele>
        <time>2018-06-23T12:42:18Z</time>
      </trkpt>
      <trkpt lat="40.257933" lon="-4.906950">
        <ele>2097.0</ele>
        <time>2018-06-23T12:42:19Z</time>
      </trkpt>
      <trkpt lat="40.258033" lon="-4.906967">
        <ele>2095.0</ele>
        <time>2018-06-23T12:42:20Z</time>
      </trkpt>
      <trkpt lat="40.258117" lon="-4.906983">
        <ele>2094.0</ele>
        <time>2018-06-23T12:42:21Z</time>
      </trkpt>
      <trkpt lat="40.258217" lon="-4.907000">
        <ele>2093.0</ele>
        <time>2018-06-23T12:42:22Z</time>
      </trkpt>
      <trkpt lat="40.258317" lon="-4.907017">
        <ele>2092.0</ele>
        <time>2018-06-23T12:42:23Z</time>
      </trkpt>
      <trkpt lat="40.258417" lon="-4.907017">
        <ele>2091.0</ele>
        <time>2018-06-23T12:42:24Z</time>
      </trkpt>
      <trkpt lat="40.258500" lon="-4.907017">
        <ele>2089.0</ele>
        <time>2018-06-23T12:42:25Z</time>
      </trkpt>
      <trkpt lat="40.258583" lon="-4.907017">
        <ele>2088.0</ele>
        <time>2018-06-23T12:42:26Z</time>
      </trkpt>
      <trkpt lat="40.258667" lon="-4.907017">
        <ele>2086.0</ele>
        <time>2018-06-23T12:42:27Z</time>
      </trkpt>
      <trkpt lat="40.258733" lon="-4.907000">
        <ele>2083.0</ele>
        <time>2018-06-23T12:42:28Z</time>
      </trkpt>
      <trkpt lat="40.258817" lon="-4.906983">
        <ele>2080.0</ele>
        <time>2018-06-23T12:42:29Z</time>
      </trkpt>
      <trkpt lat="40.258900" lon="-4.906967">
        <ele>2078.0</ele>
        <time>2018-06-23T12:42:30Z</time>
      </trkpt>
      <trkpt lat="40.259000" lon="-4.906967">
        <ele>2076.0</ele>
        <time>2018-06-23T12:42:31Z</time>
      </trkpt>
      <trkpt lat="40.259083" lon="-4.906967">
        <ele>2075.0</ele>
        <time>2018-06-23T12:42:32Z</time>
      </trkpt>
      <trkpt lat="40.259167" lon="-4.906983">
        <ele>2073.0</ele>
        <time>2018-06-23T12:42:33Z</time>
      </trkpt>
      <trkpt lat="40.259250" lon="-4.907017">
        <ele>2071.0</ele>
        <time>2018-06-23T12:42:34Z</time>
      </trkpt>
      <trkpt lat="40.259333" lon="-4.907017">
        <ele>2069.0</ele>
        <time>2018-06-23T12:42:35Z</time>
      </trkpt>
      <trkpt lat="40.259417" lon="-4.907033">
        <ele>2067.0</ele>
        <time>2018-06-23T12:42:36Z</time>
      </trkpt>
      <trkpt lat="40.259500" lon="-4.907050">
        <ele>2065.0</ele>
        <time>2018-06-23T12:42:37Z</time>
      </trkpt>
      <trkpt lat="40.259600" lon="-4.907067">
        <ele>2064.0</ele>
        <time>2018-06-23T12:42:38Z</time>
      </trkpt>
      <trkpt lat="40.259700" lon="-4.907083">
        <ele>2061.0</ele>
        <time>2018-06-23T12:42:39Z</time>
      </trkpt>
      <trkpt lat="40.259783" lon="-4.907100">
        <ele>2059.0</ele>
        <time>2018-06-23T12:42:40Z</time>
      </trkpt>
      <trkpt lat="40.259883" lon="-4.907100">
        <ele>2057.0</ele>
        <time>2018-06-23T12:42:41Z</time>
      </trkpt>
      <trkpt lat="40.259967" lon="-4.907117">
        <ele>2055.0</ele>
        <time>2018-06-23T12:42:42Z</time>
      </trkpt>
      <trkpt lat="40.260067" lon="-4.907133">
        <ele>2054.0</ele>
        <time>2018-06-23T12:42:43Z</time>
      </trkpt>
      <trkpt lat="40.260167" lon="-4.907150">
        <ele>2052.0</ele>
        <time>2018-06-23T12:42:44Z</time>
      </trkpt>
      <trkpt lat="40.260267" lon="-4.907183">
        <ele>2050.0</ele>
        <time>2018-06-23T12:42:45Z</time>
      </trkpt>
      <trkpt lat="40.260350" lon="-4.907217">
        <ele>2048.0</ele>
        <time>2018-06-23T12:42:46Z</time>
      </trkpt>
      <trkpt lat="40.260450" lon="-4.907250">
        <ele>2047.0</ele>
        <time>2018-06-23T12:42:47Z</time>
      </trkpt>
      <trkpt lat="40.260550" lon="-4.907283">
        <ele>2046.0</ele>
        <time>2018-06-23T12:42:48Z</time>
      </trkpt>
      <trkpt lat="40.260650" lon="-4.907317">
        <ele>2045.0</ele>
        <time>2018-06-23T12:42:49Z</time>
      </trkpt>
      <trkpt lat="40.260750" lon="-4.907350">
        <ele>2044.0</ele>
        <time>2018-06-23T12:42:50Z</time>
      </trkpt>
      <trkpt lat="40.260833" lon="-4.907383">
        <ele>2042.0</ele>
        <time>2018-06-23T12:42:51Z</time>
      </trkpt>
      <trkpt lat="40.260933" lon="-4.907417">
        <ele>2040.0</ele>
        <time>2018-06-23T12:42:52Z</time>
      </trkpt>
      <trkpt lat="40.261017" lon="-4.907467">
        <ele>2038.0</ele>
        <time>2018-06-23T12:42:53Z</time>
      </trkpt>
      <trkpt lat="40.261117" lon="-4.907517">
        <ele>2036.0</ele>
        <time>2018-06-23T12:42:54Z</time>
      </trkpt>
      <trkpt lat="40.261217" lon="-4.907550">
        <ele>2035.0</ele>
        <time>2018-06-23T12:42:55Z</time>
      </trkpt>
      <trkpt lat="40.261333" lon="-4.907600">
        <ele>2033.0</ele>
        <time>2018-06-23T12:42:56Z</time>
      </trkpt>
      <trkpt lat="40.261433" lon="-4.907633">
        <ele>2032.0</ele>
        <time>2018-06-23T12:42:57Z</time>
      </trkpt>
      <trkpt lat="40.261533" lon="-4.907700">
        <ele>2031.0</ele>
        <time>2018-06-23T12:42:58Z</time>
      </trkpt>
      <trkpt lat="40.261633" lon="-4.907767">
        <ele>2030.0</ele>
        <time>2018-06-23T12:42:59Z</time>
      </trkpt>
      <trkpt lat="40.261733" lon="-4.907850">
        <ele>2029.0</ele>
        <time>2018-06-23T12:43:00Z</time>
      </trkpt>
      <trkpt lat="40.261833" lon="-4.907917">
        <ele>2028.0</ele>
        <time>2018-06-23T12:43:01Z</time>
      </trkpt>
      <trkpt lat="40.261933" lon="-4.907967">
        <ele>2027.0</ele>
        <time>2018-06-23T12:43:02Z</time>
      </trkpt>
      <trkpt lat="40.262033" lon="-4.908017">
        <ele>2026.0</ele>
        <time>2018-06-23T12:43:03Z</time>
      </trkpt>
      <trkpt lat="40.262117" lon="-4.908083">
        <ele>2025.0</ele>
        <time>2018-06-23T12:43:04Z</time>
      </trkpt>
      <trkpt lat="40.262217" lon="-4.908133">
        <ele>2024.0</ele>
        <time>2018-06-23T12:43:05Z</time>
      </trkpt>
      <trkpt lat="40.262300" lon="-4.908200">
        <ele>2023.0</ele>
        <time>2018-06-23T12:43:06Z</time>
      </trkpt>
      <trkpt lat="40.262400" lon="-4.908250">
        <ele>2022.0</ele>
        <time>2018-06-23T12:43:07Z</time>
      </trkpt>
      <trkpt lat="40.262483" lon="-4.908300">
        <ele>2021.0</ele>
        <time>2018-06-23T12:43:08Z</time>
      </trkpt>
      <trkpt lat="40.262583" lon="-4.908350">
        <ele>2019.0</ele>
        <time>2018-06-23T12:43:09Z</time>
      </trkpt>
      <trkpt lat="40.262683" lon="-4.908400">
        <ele>2018.0</ele>
        <time>2018-06-23T12:43:10Z</time>
      </trkpt>
      <trkpt lat="40.262767" lon="-4.908450">
        <ele>2017.0</ele>
        <time>2018-06-23T12:43:11Z</time>
      </trkpt>
      <trkpt lat="40.262850" lon="-4.908500">
        <ele>2016.0</ele>
        <time>2018-06-23T12:43:12Z</time>
      </trkpt>
      <trkpt lat="40.262950" lon="-4.908517">
        <ele>2016.0</ele>
        <time>2018-06-23T12:43:13Z</time>
      </trkpt>
      <trkpt lat="40.263050" lon="-4.908567">
        <ele>2014.0</ele>
        <time>2018-06-23T12:43:14Z</time>
      </trkpt>
      <trkpt lat="40.263150" lon="-4.908600">
        <ele>2013.0</ele>
        <time>2018-06-23T12:43:15Z</time>
      </trkpt>
      <trkpt lat="40.263250" lon="-4.908650">
        <ele>2013.0</ele>
        <time>2018-06-23T12:43:16Z</time>
      </trkpt>
      <trkpt lat="40.263350" lon="-4.908683">
        <ele>2013.0</ele>
        <time>2018-06-23T12:43:17Z</time>
      </trkpt>
      <trkpt lat="40.263450" lon="-4.908717">
        <ele>2012.0</ele>
        <time>2018-06-23T12:43:18Z</time>
      </trkpt>
      <trkpt lat="40.263533" lon="-4.908733">
        <ele>2011.0</ele>
        <time>2018-06-23T12:43:19Z</time>
      </trkpt>
      <trkpt lat="40.263633" lon="-4.908767">
        <ele>2009.0</ele>
        <time>2018-06-23T12:43:20Z</time>
      </trkpt>
      <trkpt lat="40.263717" lon="-4.908783">
        <ele>2007.0</ele>
        <time>2018-06-23T12:43:21Z</time>
      </trkpt>
      <trkpt lat="40.263817" lon="-4.908817">
        <ele>2006.0</ele>
        <time>2018-06-23T12:43:22Z</time>
      </trkpt>
      <trkpt lat="40.263917" lon="-4.908850">
        <ele>2004.0</ele>
        <time>2018-06-23T12:43:23Z</time>
      </trkpt>
      <trkpt lat="40.264000" lon="-4.908883">
        <ele>2002.0</ele>
        <time>2018-06-23T12:43:24Z</time>
      </trkpt>
      <trkpt lat="40.264100" lon="-4.908917">
        <ele>2000.0</ele>
        <time>2018-06-23T12:43:25Z</time>
      </trkpt>
      <trkpt lat="40.264200" lon="-4.908933">
        <ele>1997.0</ele>
        <time>2018-06-23T12:43:26Z</time>
      </trkpt>
      <trkpt lat="40.264300" lon="-4.908933">
        <ele>1994.0</ele>
        <time>2018-06-23T12:43:27Z</time>
      </trkpt>
      <trkpt lat="40.264417" lon="-4.908933">
        <ele>1992.0</ele>
        <time>2018-06-23T12:43:28Z</time>
      </trkpt>
      <trkpt lat="40.264517" lon="-4.908950">
        <ele>1990.0</ele>
        <time>2018-06-23T12:43:29Z</time>
      </trkpt>
      <trkpt lat="40.264633" lon="-4.908950">
        <ele>1989.0</ele>
        <time>2018-06-23T12:43:30Z</time>
      </trkpt>
      <trkpt lat="40.264733" lon="-4.908967">
        <ele>1986.0</ele>
        <time>2018-06-23T12:43:31Z</time>
      </trkpt>
      <trkpt lat="40.264833" lon="-4.908950">
        <ele>1985.0</ele>
        <time>2018-06-23T12:43:32Z</time>
      </trkpt>
      <trkpt lat="40.264917" lon="-4.908917">
        <ele>1981.0</ele>
        <time>2018-06-23T12:43:33Z</time>
      </trkpt>
      <trkpt lat="40.265017" lon="-4.908850">
        <ele>1977.0</ele>
        <time>2018-06-23T12:43:34Z</time>
      </trkpt>
      <trkpt lat="40.265100" lon="-4.908767">
        <ele>1973.0</ele>
        <time>2018-06-23T12:43:35Z</time>
      </trkpt>
      <trkpt lat="40.265167" lon="-4.908667">
        <ele>1968.0</ele>
        <time>2018-06-23T12:43:36Z</time>
      </trkpt>
      <trkpt lat="40.265217" lon="-4.908550">
        <ele>1965.0</ele>
        <time>2018-06-23T12:43:37Z</time>
      </trkpt>
      <trkpt lat="40.265233" lon="-4.908417">
        <ele>1962.0</ele>
        <time>2018-06-23T12:43:38Z</time>
      </trkpt>
      <trkpt lat="40.265233" lon="-4.908283">
        <ele>1959.0</ele>
        <time>2018-06-23T12:43:39Z</time>
      </trkpt>
      <trkpt lat="40.265217" lon="-4.908150">
        <ele>1956.0</ele>
        <time>2018-06-23T12:43:40Z</time>
      </trkpt>
      <trkpt lat="40.265167" lon="-4.908017">
        <ele>1953.0</ele>
        <time>2018-06-23T12:43:41Z</time>
      </trkpt>
      <trkpt lat="40.265133" lon="-4.907917">
        <ele>1951.0</ele>
        <time>2018-06-23T12:43:42Z</time>
      </trkpt>
      <trkpt lat="40.265083" lon="-4.907817">
        <ele>1948.0</ele>
        <time>2018-06-23T12:43:43Z</time>
      </trkpt>
      <trkpt lat="40.265033" lon="-4.907733">
        <ele>1944.0</ele>
        <time>2018-06-23T12:43:44Z</time>
      </trkpt>
      <trkpt lat="40.264950" lon="-4.907650">
        <ele>1940.0</ele>
        <time>2018-06-23T12:43:45Z</time>
      </trkpt>
      <trkpt lat="40.264867" lon="-4.907550">
        <ele>1937.0</ele>
        <time>2018-06-23T12:43:46Z</time>
      </trkpt>
      <trkpt lat="40.264783" lon="-4.907450">
        <ele>1934.0</ele>
        <time>2018-06-23T12:43:47Z</time>
      </trkpt>
      <trkpt lat="40.264717" lon="-4.907333">
        <ele>1932.0</ele>
        <time>2018-06-23T12:43:48Z</time>
      </trkpt>
      <trkpt lat="40.264650" lon="-4.907217">
        <ele>1930.0</ele>
        <time>2018-06-23T12:43:49Z</time>
      </trkpt>
      <trkpt lat="40.264583" lon="-4.907117">
        <ele>1927.0</ele>
        <time>2018-06-23T12:43:50Z</time>
      </trkpt>
      <trkpt lat="40.264517" lon="-4.907000">
        <ele>1925.0</ele>
        <time>2018-06-23T12:43:51Z</time>
      </trkpt>
      <trkpt lat="40.264433" lon="-4.906883">
        <ele>1923.0</ele>
        <time>2018-06-23T12:43:52Z</time>
      </trkpt>
      <trkpt lat="40.264350" lon="-4.906783">
        <ele>1922.0</ele>
        <time>2018-06-23T12:43:53Z</time>
      </trkpt>
      <trkpt lat="40.264267" lon="-4.906700">
        <ele>1922.0</ele>
        <time>2018-06-23T12:43:54Z</time>
      </trkpt>
      <trkpt lat="40.264167" lon="-4.906650">
        <ele>1923.0</ele>
        <time>2018-06-23T12:43:55Z</time>
      </trkpt>
      <trkpt lat="40.264067" lon="-4.906600">
        <ele>1923.0</ele>
        <time>2018-06-23T12:43:56Z</time>
      </trkpt>
      <trkpt lat="40.264000" lon="-4.906567">
        <ele>1924.0</ele>
        <time>2018-06-23T12:43:57Z</time>
      </trkpt>
      <trkpt lat="40.263933" lon="-4.906517">
        <ele>1925.0</ele>
        <time>2018-06-23T12:43:58Z</time>
      </trkpt>
      <trkpt lat="40.263867" lon="-4.906500">
        <ele>1925.0</ele>
        <time>2018-06-23T12:43:59Z</time>
      </trkpt>
      <trkpt lat="40.263783" lon="-4.906500">
        <ele>1925.0</ele>
        <time>2018-06-23T12:44:00Z</time>
      </trkpt>
      <trkpt lat="40.263700" lon="-4.906533">
        <ele>1924.0</ele>
        <time>2018-06-23T12:44:01Z</time>
      </trkpt>
      <trkpt lat="40.263633" lon="-4.906583">
        <ele>1922.0</ele>
        <time>2018-06-23T12:44:02Z</time>
      </trkpt>
      <trkpt lat="40.263567" lon="-4.906683">
        <ele>1922.0</ele>
        <time>2018-06-23T12:44:03Z</time>
      </trkpt>
      <trkpt lat="40.263517" lon="-4.906800">
        <ele>1923.0</ele>
        <time>2018-06-23T12:44:04Z</time>
      </trkpt>
      <trkpt lat="40.263483" lon="-4.906917">
        <ele>1925.0</ele>
        <time>2018-06-23T12:44:05Z</time>
      </trkpt>
      <trkpt lat="40.263483" lon="-4.907033">
        <ele>1928.0</ele>
        <time>2018-06-23T12:44:06Z</time>
      </trkpt>
      <trkpt lat="40.263500" lon="-4.907150">
        <ele>1931.0</ele>
        <time>2018-06-23T12:44:07Z</time>
      </trkpt>
      <trkpt lat="40.263517" lon="-4.907250">
        <ele>1933.0</ele>
        <time>2018-06-23T12:44:08Z</time>
      </trkpt>
      <trkpt lat="40.263567" lon="-4.907367">
        <ele>1934.0</ele>
        <time>2018-06-23T12:44:09Z</time>
      </trkpt>
      <trkpt lat="40.263633" lon="-4.907450">
        <ele>1934.0</ele>
        <time>2018-06-23T12:44:10Z</time>
      </trkpt>
      <trkpt lat="40.263733" lon="-4.907533">
        <ele>1935.0</ele>
        <time>2018-06-23T12:44:11Z</time>
      </trkpt>
      <trkpt lat="40.263817" lon="-4.907567">
        <ele>1935.0</ele>
        <time>2018-06-23T12:44:12Z</time>
      </trkpt>
      <trkpt lat="40.263900" lon="-4.907550">
        <ele>1934.0</ele>
        <time>2018-06-23T12:44:13Z</time>
      </trkpt>
      <trkpt lat="40.263983" lon="-4.907517">
        <ele>1932.0</ele>
        <time>2018-06-23T12:44:14Z</time>
      </trkpt>
      <trkpt lat="40.264067" lon="-4.907450">
        <ele>1931.0</ele>
        <time>2018-06-23T12:44:15Z</time>
      </trkpt>
      <trkpt lat="40.264117" lon="-4.907367">
        <ele>1931.0</ele>
        <time>2018-06-23T12:44:16Z</time>
      </trkpt>
      <trkpt lat="40.264133" lon="-4.907267">
        <ele>1930.0</ele>
        <time>2018-06-23T12:44:17Z</time>
      </trkpt>
      <trkpt lat="40.264133" lon="-4.907167">
        <ele>1927.0</ele>
        <time>2018-06-23T12:44:18Z</time>
      </trkpt>
      <trkpt lat="40.264117" lon="-4.907033">
        <ele>1925.0</ele>
        <time>2018-06-23T12:44:19Z</time>
      </trkpt>
      <trkpt lat="40.264083" lon="-4.906933">
        <ele>1924.0</ele>
        <time>2018-06-23T12:44:20Z</time>
      </trkpt>
      <trkpt lat="40.264033" lon="-4.906833">
        <ele>1923.0</ele>
        <time>2018-06-23T12:44:21Z</time>
      </trkpt>
      <trkpt lat="40.263983" lon="-4.906733">
        <ele>1924.0</ele>
        <time>2018-06-23T12:44:22Z</time>
      </trkpt>
      <trkpt lat="40.263917" lon="-4.906650">
        <ele>1924.0</ele>
        <time>2018-06-23T12:44:23Z</time>
      </trkpt>
      <trkpt lat="40.263833" lon="-4.906567">
        <ele>1925.0</ele>
        <time>2018-06-23T12:44:24Z</time>
      </trkpt>
      <trkpt lat="40.263767" lon="-4.906500">
        <ele>1926.0</ele>
        <time>2018-06-23T12:44:25Z</time>
      </trkpt>
      <trkpt lat="40.263700" lon="-4.906450">
        <ele>1927.0</ele>
        <time>2018-06-23T12:44:26Z</time>
      </trkpt>
      <trkpt lat="40.263617" lon="-4.906417">
        <ele>1929.0</ele>
        <time>2018-06-23T12:44:27Z</time>
      </trkpt>
      <trkpt lat="40.263533" lon="-4.906400">
        <ele>1930.0</ele>
        <time>2018-06-23T12:44:28Z</time>
      </trkpt>
      <trkpt lat="40.263467" lon="-4.906383">
        <ele>1931.0</ele>
        <time>2018-06-23T12:44:29Z</time>
      </trkpt>
      <trkpt lat="40.263383" lon="-4.906383">
        <ele>1932.0</ele>
        <time>2018-06-23T12:44:30Z</time>
      </trkpt>
      <trkpt lat="40.263300" lon="-4.906367">
        <ele>1932.0</ele>
        <time>2018-06-23T12:44:31Z</time>
      </trkpt>
      <trkpt lat="40.263217" lon="-4.906367">
        <ele>1933.0</ele>
        <time>2018-06-23T12:44:32Z</time>
      </trkpt>
      <trkpt lat="40.263133" lon="-4.906383">
        <ele>1932.0</ele>
        <time>2018-06-23T12:44:33Z</time>
      </trkpt>
      <trkpt lat="40.263050" lon="-4.906433">
        <ele>1932.0</ele>
        <time>2018-06-23T12:44:34Z</time>
      </trkpt>
      <trkpt lat="40.262983" lon="-4.906533">
        <ele>1931.0</ele>
        <time>2018-06-23T12:44:35Z</time>
      </trkpt>
      <trkpt lat="40.262917" lon="-4.906633">
        <ele>1932.0</ele>
        <time>2018-06-23T12:44:36Z</time>
      </trkpt>
      <trkpt lat="40.262867" lon="-4.906767">
        <ele>1934.0</ele>
        <time>2018-06-23T12:44:37Z</time>
      </trkpt>
      <trkpt lat="40.262833" lon="-4.906900">
        <ele>1935.0</ele>
        <time>2018-06-23T12:44:38Z</time>
      </trkpt>
      <trkpt lat="40.262817" lon="-4.907033">
        <ele>1936.0</ele>
        <time>2018-06-23T12:44:39Z</time>
      </trkpt>
      <trkpt lat="40.262833" lon="-4.907167">
        <ele>1936.0</ele>
        <time>2018-06-23T12:44:40Z</time>
      </trkpt>
      <trkpt lat="40.262850" lon="-4.907317">
        <ele>1936.0</ele>
        <time>2018-06-23T12:44:41Z</time>
      </trkpt>
      <trkpt lat="40.262883" lon="-4.907467">
        <ele>1937.0</ele>
        <time>2018-06-23T12:44:42Z</time>
      </trkpt>
      <trkpt lat="40.262933" lon="-4.907583">
        <ele>1938.0</ele>
        <time>2018-06-23T12:44:43Z</time>
      </trkpt>
      <trkpt lat="40.263000" lon="-4.907700">
        <ele>1938.0</ele>
        <time>2018-06-23T12:44:44Z</time>
      </trkpt>
      <trkpt lat="40.263067" lon="-4.907783">
        <ele>1939.0</ele>
        <time>2018-06-23T12:44:45Z</time>
      </trkpt>
      <trkpt lat="40.263150" lon="-4.907833">
        <ele>1941.0</ele>
        <time>2018-06-23T12:44:46Z</time>
      </trkpt>
      <trkpt lat="40.263250" lon="-4.907867">
        <ele>1943.0</ele>
        <time>2018-06-23T12:44:47Z</time>
      </trkpt>
      <trkpt lat="40.263333" lon="-4.907867">
        <ele>1945.0</ele>
        <time>2018-06-23T12:44:48Z</time>
      </trkpt>
      <trkpt lat="40.263417" lon="-4.907833">
        <ele>1944.0</ele>
        <time>2018-06-23T12:44:49Z</time>
      </trkpt>
      <trkpt lat="40.263483" lon="-4.907750">
        <ele>1944.0</ele>
        <time>2018-06-23T12:44:50Z</time>
      </trkpt>
      <trkpt lat="40.263567" lon="-4.907650">
        <ele>1944.0</ele>
        <time>2018-06-23T12:44:51Z</time>
      </trkpt>
      <trkpt lat="40.263617" lon="-4.907550">
        <ele>1945.0</ele>
        <time>2018-06-23T12:44:52Z</time>
      </trkpt>
      <trkpt lat="40.263650" lon="-4.907450">
        <ele>1946.0</ele>
        <time>2018-06-23T12:44:53Z</time>
      </trkpt>
      <trkpt lat="40.263667" lon="-4.907350">
        <ele>1947.0</ele>
        <time>2018-06-23T12:44:54Z</time>
      </trkpt>
      <trkpt lat="40.263650" lon="-4.907233">
        <ele>1947.0</ele>
        <time>2018-06-23T12:44:55Z</time>
      </trkpt>
      <trkpt lat="40.263600" lon="-4.907117">
        <ele>1947.0</ele>
        <time>2018-06-23T12:44:56Z</time>
      </trkpt>
      <trkpt lat="40.263550" lon="-4.907033">
        <ele>1948.0</ele>
        <time>2018-06-23T12:44:57Z</time>
      </trkpt>
      <trkpt lat="40.263467" lon="-4.906967">
        <ele>1949.0</ele>
        <time>2018-06-23T12:44:58Z</time>
      </trkpt>
      <trkpt lat="40.263367" lon="-4.906917">
        <ele>1951.0</ele>
        <time>2018-06-23T12:44:59Z</time>
      </trkpt>
      <trkpt lat="40.263267" lon="-4.906933">
        <ele>1953.0</ele>
        <time>2018-06-23T12:45:00Z</time>
      </trkpt>
      <trkpt lat="40.263183" lon="-4.906967">
        <ele>1954.0</ele>
        <time>2018-06-23T12:45:01Z</time>
      </trkpt>
      <trkpt lat="40.263100" lon="-4.907017">
        <ele>1955.0</ele>
        <time>2018-06-23T12:45:02Z</time>
      </trkpt>
      <trkpt lat="40.263050" lon="-4.907083">
        <ele>1956.0</ele>
        <time>2018-06-23T12:45:03Z</time>
      </trkpt>
      <trkpt lat="40.263017" lon="-4.907167">
        <ele>1956.0</ele>
        <time>2018-06-23T12:45:04Z</time>
      </trkpt>
      <trkpt lat="40.262983" lon="-4.907267">
        <ele>1957.0</ele>
        <time>2018-06-23T12:45:05Z</time>
      </trkpt>
      <trkpt lat="40.262983" lon="-4.907383">
        <ele>1956.0</ele>
        <time>2018-06-23T12:45:06Z</time>
      </trkpt>
      <trkpt lat="40.263000" lon="-4.907500">
        <ele>1957.0</ele>
        <time>2018-06-23T12:45:07Z</time>
      </trkpt>
      <trkpt lat="40.263033" lon="-4.907617">
        <ele>1959.0</ele>
        <time>2018-06-23T12:45:08Z</time>
      </trkpt>
      <trkpt lat="40.263100" lon="-4.907717">
        <ele>1961.0</ele>
        <time>2018-06-23T12:45:09Z</time>
      </trkpt>
      <trkpt lat="40.263167" lon="-4.907800">
        <ele>1963.0</ele>
        <time>2018-06-23T12:45:10Z</time>
      </trkpt>
      <trkpt lat="40.263250" lon="-4.907850">
        <ele>1964.0</ele>
        <time>2018-06-23T12:45:11Z</time>
      </trkpt>
      <trkpt lat="40.263333" lon="-4.907883">
        <ele>1966.0</ele>
        <time>2018-06-23T12:45:12Z</time>
      </trkpt>
      <trkpt lat="40.263417" lon="-4.907900">
        <ele>1967.0</ele>
        <time>2018-06-23T12:45:13Z</time>
      </trkpt>
      <trkpt lat="40.263483" lon="-4.907900">
        <ele>1967.0</ele>
        <time>2018-06-23T12:45:14Z</time>
      </trkpt>
      <trkpt lat="40.263567" lon="-4.907867">
        <ele>1967.0</ele>
        <time>2018-06-23T12:45:15Z</time>
      </trkpt>
      <trkpt lat="40.263650" lon="-4.907833">
        <ele>1967.0</ele>
        <time>2018-06-23T12:45:16Z</time>
      </trkpt>
      <trkpt lat="40.263750" lon="-4.907783">
        <ele>1967.0</ele>
        <time>2018-06-23T12:45:17Z</time>
      </trkpt>
      <trkpt lat="40.263833" lon="-4.907717">
        <ele>1968.0</ele>
        <time>2018-06-23T12:45:18Z</time>
      </trkpt>
      <trkpt lat="40.263900" lon="-4.907633">
        <ele>1970.0</ele>
        <time>2018-06-23T12:45:19Z</time>
      </trkpt>
      <trkpt lat="40.263950" lon="-4.907533">
        <ele>1972.0</ele>
        <time>2018-06-23T12:45:20Z</time>
      </trkpt>
      <trkpt lat="40.263983" lon="-4.907417">
        <ele>1972.0</ele>
        <time>2018-06-23T12:45:21Z</time>
      </trkpt>
      <trkpt lat="40.263983" lon="-4.907283">
        <ele>1971.0</ele>
        <time>2018-06-23T12:45:22Z</time>
      </trkpt>
      <trkpt lat="40.263983" lon="-4.907150">
        <ele>1972.0</ele>
        <time>2018-06-23T12:45:23Z</time>
      </trkpt>
      <trkpt lat="40.263967" lon="-4.907017">
        <ele>1972.0</ele>
        <time>2018-06-23T12:45:24Z</time>
      </trkpt>
      <trkpt lat="40.263917" lon="-4.906883">
        <ele>1973.0</ele>
        <time>2018-06-23T12:45:25Z</time>
      </trkpt>
      <trkpt lat="40.263867" lon="-4.906767">
        <ele>1975.0</ele>
        <time>2018-06-23T12:45:26Z</time>
      </trkpt>
      <trkpt lat="40.263800" lon="-4.906667">
        <ele>1977.0</ele>
        <time>2018-06-23T12:45:27Z</time>
      </trkpt>
      <trkpt lat="40.263733" lon="-4.906583">
        <ele>1979.0</ele>
        <time>2018-06-23T12:45:28Z</time>
      </trkpt>
      <trkpt lat="40.263667" lon="-4.906517">
        <ele>1981.0</ele>
        <time>2018-06-23T12:45:29Z</time>
      </trkpt>
      <trkpt lat="40.263600" lon="-4.906467">
        <ele>1982.0</ele>
        <time>2018-06-23T12:45:30Z</time>
      </trkpt>
      <trkpt lat="40.263517" lon="-4.906450">
        <ele>1983.0</ele>
        <time>2018-06-23T12:45:31Z</time>
      </trkpt>
      <trkpt lat="40.263433" lon="-4.906450">
        <ele>1983.0</ele>
        <time>2018-06-23T12:45:32Z</time>
      </trkpt>
      <trkpt lat="40.263333" lon="-4.906483">
        <ele>1984.0</ele>
        <time>2018-06-23T12:45:33Z</time>
      </trkpt>
      <trkpt lat="40.263233" lon="-4.906517">
        <ele>1984.0</ele>
        <time>2018-06-23T12:45:34Z</time>
      </trkpt>
      <trkpt lat="40.263150" lon="-4.906583">
        <ele>1985.0</ele>
        <time>2018-06-23T12:45:35Z</time>
      </trkpt>
      <trkpt lat="40.263083" lon="-4.906650">
        <ele>1986.0</ele>
        <time>2018-06-23T12:45:36Z</time>
      </trkpt>
      <trkpt lat="40.263017" lon="-4.906750">
        <ele>1987.0</ele>
        <time>2018-06-23T12:45:37Z</time>
      </trkpt>
      <trkpt lat="40.262983" lon="-4.906883">
        <ele>1987.0</ele>
        <time>2018-06-23T12:45:38Z</time>
      </trkpt>
      <trkpt lat="40.262967" lon="-4.907017">
        <ele>1988.0</ele>
        <time>2018-06-23T12:45:39Z</time>
      </trkpt>
      <trkpt lat="40.262967" lon="-4.907133">
        <ele>1989.0</ele>
        <time>2018-06-23T12:45:40Z</time>
      </trkpt>
      <trkpt lat="40.262983" lon="-4.907250">
        <ele>1990.0</ele>
        <time>2018-06-23T12:45:41Z</time>
      </trkpt>
      <trkpt lat="40.263017" lon="-4.907367">
        <ele>1990.0</ele>
        <time>2018-06-23T12:45:42Z</time>
      </trkpt>
      <trkpt lat="40.263083" lon="-4.907467">
        <ele>1991.0</ele>
        <time>2018-06-23T12:45:43Z</time>
      </trkpt>
      <trkpt lat="40.263133" lon="-4.907567">
        <ele>1991.0</ele>
        <time>2018-06-23T12:45:44Z</time>
      </trkpt>
      <trkpt lat="40.263200" lon="-4.907633">
        <ele>1993.0</ele>
        <time>2018-06-23T12:45:45Z</time>
      </trkpt>
      <trkpt lat="40.263250" lon="-4.907700">
        <ele>1994.0</ele>
        <time>2018-06-23T12:45:46Z</time>
      </trkpt>
      <trkpt lat="40.263317" lon="-4.907750">
        <ele>1994.0</ele>
        <time>2018-06-23T12:45:47Z</time>
      </trkpt>
      <trkpt lat="40.263400" lon="-4.907783">
        <ele>1994.0</ele>
        <time>2018-06-23T12:45:48Z</time>
      </trkpt>
      <trkpt lat="40.263500" lon="-4.907800">
        <ele>1994.0</ele>
        <time>2018-06-23T12:45:49Z</time>
      </trkpt>
      <trkpt lat="40.263600" lon="-4.907800">
        <ele>1996.0</ele>
        <time>2018-06-23T12:45:50Z</time>
      </trkpt>
      <trkpt lat="40.263700" lon="-4.907783">
        <ele>2001.0</ele>
        <time>2018-06-23T12:45:51Z</time>
      </trkpt>
      <trkpt lat="40.263783" lon="-4.907733">
        <ele>2003.0</ele>
        <time>2018-06-23T12:45:52Z</time>
      </trkpt>
      <trkpt lat="40.263850" lon="-4.907633">
        <ele>2003.0</ele>
        <time>2018-06-23T12:45:53Z</time>
      </trkpt>
      <trkpt lat="40.263900" lon="-4.907533">
        <ele>2003.0</ele>
        <time>2018-06-23T12:45:54Z</time>
      </trkpt>
      <trkpt lat="40.263933" lon="-4.907383">
        <ele>2003.0</ele>
        <time>2018-06-23T12:45:55Z</time>
      </trkpt>
      <trkpt lat="40.263933" lon="-4.907233">
        <ele>2003.0</ele>
        <time>2018-06-23T12:45:56Z</time>
      </trkpt>
      <trkpt lat="40.263883" lon="-4.907100">
        <ele>2003.0</ele>
        <time>2018-06-23T12:45:57Z</time>
      </trkpt>
      <trkpt lat="40.263817" lon="-4.907000">
        <ele>2003.0</ele>
        <time>2018-06-23T12:45:58Z</time>
      </trkpt>
      <trkpt lat="40.263750" lon="-4.906933">
        <ele>2004.0</ele>
        <time>2018-06-23T12:45:59Z</time>
      </trkpt>
      <trkpt lat="40.263667" lon="-4.906900">
        <ele>2005.0</ele>
        <time>2018-06-23T12:46:00Z</time>
      </trkpt>
      <trkpt lat="40.263583" lon="-4.906883">
        <ele>2006.0</ele>
        <time>2018-06-23T12:46:01Z</time>
      </trkpt>
      <trkpt lat="40.263500" lon="-4.906917">
        <ele>2005.0</ele>
        <time>2018-06-23T12:46:02Z</time>
      </trkpt>
      <trkpt lat="40.263417" lon="-4.906967">
        <ele>2005.0</ele>
        <time>2018-06-23T12:46:03Z</time>
      </trkpt>
      <trkpt lat="40.263350" lon="-4.907050">
        <ele>2005.0</ele>
        <time>2018-06-23T12:46:04Z</time>
      </trkpt>
      <trkpt lat="40.263300" lon="-4.907150">
        <ele>2005.0</ele>
        <time>2018-06-23T12:46:05Z</time>
      </trkpt>
      <trkpt lat="40.263283" lon="-4.907267">
        <ele>2004.0</ele>
        <time>2018-06-23T12:46:06Z</time>
      </trkpt>
      <trkpt lat="40.263283" lon="-4.907400">
        <ele>2004.0</ele>
        <time>2018-06-23T12:46:07Z</time>
      </trkpt>
      <trkpt lat="40.263300" lon="-4.907517">
        <ele>2005.0</ele>
        <time>2018-06-23T12:46:08Z</time>
      </trkpt>
      <trkpt lat="40.263317" lon="-4.907617">
        <ele>2005.0</ele>
        <time>2018-06-23T12:46:09Z</time>
      </trkpt>
      <trkpt lat="40.263367" lon="-4.907733">
        <ele>2006.0</ele>
        <time>2018-06-23T12:46:10Z</time>
      </trkpt>
      <trkpt lat="40.263433" lon="-4.907833">
        <ele>2006.0</ele>
        <time>2018-06-23T12:46:11Z</time>
      </trkpt>
      <trkpt lat="40.263483" lon="-4.907933">
        <ele>2006.0</ele>
        <time>2018-06-23T12:46:12Z</time>
      </trkpt>
      <trkpt lat="40.263550" lon="-4.908033">
        <ele>2008.0</ele>
        <time>2018-06-23T12:46:13Z</time>
      </trkpt>
      <trkpt lat="40.263617" lon="-4.908133">
        <ele>2010.0</ele>
        <time>2018-06-23T12:46:14Z</time>
      </trkpt>
      <trkpt lat="40.263683" lon="-4.908217">
        <ele>2012.0</ele>
        <time>2018-06-23T12:46:15Z</time>
      </trkpt>
      <trkpt lat="40.263750" lon="-4.908283">
        <ele>2014.0</ele>
        <time>2018-06-23T12:46:16Z</time>
      </trkpt>
      <trkpt lat="40.263833" lon="-4.908350">
        <ele>2015.0</ele>
        <time>2018-06-23T12:46:17Z</time>
      </trkpt>
      <trkpt lat="40.263900" lon="-4.908417">
        <ele>2016.0</ele>
        <time>2018-06-23T12:46:18Z</time>
      </trkpt>
      <trkpt lat="40.263983" lon="-4.908483">
        <ele>2017.0</ele>
        <time>2018-06-23T12:46:19Z</time>
      </trkpt>
      <trkpt lat="40.264083" lon="-4.908533">
        <ele>2017.0</ele>
        <time>2018-06-23T12:46:20Z</time>
      </trkpt>
      <trkpt lat="40.264183" lon="-4.908550">
        <ele>2017.0</ele>
        <time>2018-06-23T12:46:21Z</time>
      </trkpt>
      <trkpt lat="40.264300" lon="-4.908517">
        <ele>2017.0</ele>
        <time>2018-06-23T12:46:22Z</time>
      </trkpt>
      <trkpt lat="40.264400" lon="-4.908450">
        <ele>2017.0</ele>
        <time>2018-06-23T12:46:23Z</time>
      </trkpt>
      <trkpt lat="40.264483" lon="-4.908367">
        <ele>2017.0</ele>
        <time>2018-06-23T12:46:24Z</time>
      </trkpt>
      <trkpt lat="40.264533" lon="-4.908250">
        <ele>2017.0</ele>
        <time>2018-06-23T12:46:25Z</time>
      </trkpt>
      <trkpt lat="40.264550" lon="-4.908117">
        <ele>2015.0</ele>
        <time>2018-06-23T12:46:26Z</time>
      </trkpt>
      <trkpt lat="40.264533" lon="-4.907983">
        <ele>2013.0</ele>
        <time>2018-06-23T12:46:27Z</time>
      </trkpt>
      <trkpt lat="40.264517" lon="-4.907850">
        <ele>2010.0</ele>
        <time>2018-06-23T12:46:28Z</time>
      </trkpt>
      <trkpt lat="40.264467" lon="-4.907733">
        <ele>2009.0</ele>
        <time>2018-06-23T12:46:29Z</time>
      </trkpt>
      <trkpt lat="40.264400" lon="-4.907633">
        <ele>2008.0</ele>
        <time>2018-06-23T12:46:30Z</time>
      </trkpt>
      <trkpt lat="40.264317" lon="-4.907550">
        <ele>2006.0</ele>
        <time>2018-06-23T12:46:31Z</time>
      </trkpt>
      <trkpt lat="40.264217" lon="-4.907500">
        <ele>2005.0</ele>
        <time>2018-06-23T12:46:32Z</time>
      </trkpt>
      <trkpt lat="40.264117" lon="-4.907483">
        <ele>2004.0</ele>
        <time>2018-06-23T12:46:33Z</time>
      </trkpt>
      <trkpt lat="40.264017" lon="-4.907517">
        <ele>2003.0</ele>
        <time>2018-06-23T12:46:34Z</time>
      </trkpt>
      <trkpt lat="40.263950" lon="-4.907583">
        <ele>2003.0</ele>
        <time>2018-06-23T12:46:35Z</time>
      </trkpt>
      <trkpt lat="40.263883" lon="-4.907700">
        <ele>2002.0</ele>
        <time>2018-06-23T12:46:36Z</time>
      </trkpt>
      <trkpt lat="40.263850" lon="-4.907817">
        <ele>2001.0</ele>
        <time>2018-06-23T12:46:37Z</time>
      </trkpt>
      <trkpt lat="40.263850" lon="-4.907950">
        <ele>2001.0</ele>
        <time>2018-06-23T12:46:38Z</time>
      </trkpt>
      <trkpt lat="40.263867" lon="-4.908100">
        <ele>2001.0</ele>
        <time>2018-06-23T12:46:39Z</time>
      </trkpt>
      <trkpt lat="40.263917" lon="-4.908217">
        <ele>2002.0</ele>
        <time>2018-06-23T12:46:40Z</time>
      </trkpt>
      <trkpt lat="40.263983" lon="-4.908333">
        <ele>2004.0</ele>
        <time>2018-06-23T12:46:41Z</time>
      </trkpt>
      <trkpt lat="40.264050" lon="-4.908450">
        <ele>2006.0</ele>
        <time>2018-06-23T12:46:42Z</time>
      </trkpt>
      <trkpt lat="40.264117" lon="-4.908550">
        <ele>2008.0</ele>
        <time>2018-06-23T12:46:43Z</time>
      </trkpt>
      <trkpt lat="40.264167" lon="-4.908633">
        <ele>2010.0</ele>
        <time>2018-06-23T12:46:44Z</time>
      </trkpt>
      <trkpt lat="40.264217" lon="-4.908717">
        <ele>2011.0</ele>
        <time>2018-06-23T12:46:45Z</time>
      </trkpt>
      <trkpt lat="40.264267" lon="-4.908800">
        <ele>2011.0</ele>
        <time>2018-06-23T12:46:46Z</time>
      </trkpt>
      <trkpt lat="40.264317" lon="-4.908883">
        <ele>2011.0</ele>
        <time>2018-06-23T12:46:47Z</time>
      </trkpt>
      <trkpt lat="40.264383" lon="-4.908967">
        <ele>2010.0</ele>
        <time>2018-06-23T12:46:48Z</time>
      </trkpt>
      <trkpt lat="40.264450" lon="-4.909050">
        <ele>2009.0</ele>
        <time>2018-06-23T12:46:49Z</time>
      </trkpt>
      <trkpt lat="40.264533" lon="-4.909133">
        <ele>2009.0</ele>
        <time>2018-06-23T12:46:50Z</time>
      </trkpt>
      <trkpt lat="40.264600" lon="-4.909217">
        <ele>2010.0</ele>
        <time>2018-06-23T12:46:51Z</time>
      </trkpt>
      <trkpt lat="40.264683" lon="-4.909267">
        <ele>2010.0</ele>
        <time>2018-06-23T12:46:52Z</time>
      </trkpt>
      <trkpt lat="40.264733" lon="-4.909333">
        <ele>2011.0</ele>
        <time>2018-06-23T12:46:53Z</time>
      </trkpt>
      <trkpt lat="40.264783" lon="-4.909367">
        <ele>2010.0</ele>
        <time>2018-06-23T12:46:54Z</time>
      </trkpt>
      <trkpt lat="40.264833" lon="-4.909417">
        <ele>2007.0</ele>
        <time>2018-06-23T12:46:55Z</time>
      </trkpt>
      <trkpt lat="40.264900" lon="-4.909483">
        <ele>2005.0</ele>
        <time>2018-06-23T12:46:56Z</time>
      </trkpt>
      <trkpt lat="40.264967" lon="-4.909567">
        <ele>2004.0</ele>
        <time>2018-06-23T12:46:57Z</time>
      </trkpt>
      <trkpt lat="40.265033" lon="-4.909650">
        <ele>2003.0</ele>
        <time>2018-06-23T12:46:58Z</time>
      </trkpt>
      <trkpt lat="40.265117" lon="-4.909733">
        <ele>2002.0</ele>
        <time>2018-06-23T12:46:59Z</time>
      </trkpt>
      <trkpt lat="40.265200" lon="-4.909800">
        <ele>2001.0</ele>
        <time>2018-06-23T12:47:00Z</time>
      </trkpt>
      <trkpt lat="40.265283" lon="-4.909867">
        <ele>2000.0</ele>
        <time>2018-06-23T12:47:01Z</time>
      </trkpt>
      <trkpt lat="40.265367" lon="-4.909933">
        <ele>1999.0</ele>
        <time>2018-06-23T12:47:02Z</time>
      </trkpt>
      <trkpt lat="40.265467" lon="-4.909983">
        <ele>1997.0</ele>
        <time>2018-06-23T12:47:03Z</time>
      </trkpt>
      <trkpt lat="40.265550" lon="-4.910033">
        <ele>1995.0</ele>
        <time>2018-06-23T12:47:04Z</time>
      </trkpt>
      <trkpt lat="40.265633" lon="-4.910083">
        <ele>1993.0</ele>
        <time>2018-06-23T12:47:05Z</time>
      </trkpt>
      <trkpt lat="40.265700" lon="-4.910150">
        <ele>1992.0</ele>
        <time>2018-06-23T12:47:06Z</time>
      </trkpt>
      <trkpt lat="40.265750" lon="-4.910233">
        <ele>1990.0</ele>
        <time>2018-06-23T12:47:07Z</time>
      </trkpt>
      <trkpt lat="40.265783" lon="-4.910317">
        <ele>1988.0</ele>
        <time>2018-06-23T12:47:08Z</time>
      </trkpt>
      <trkpt lat="40.265850" lon="-4.910417">
        <ele>1987.0</ele>
        <time>2018-06-23T12:47:09Z</time>
      </trkpt>
      <trkpt lat="40.265917" lon="-4.910517">
        <ele>1986.0</ele>
        <time>2018-06-23T12:47:10Z</time>
      </trkpt>
      <trkpt lat="40.265983" lon="-4.910617">
        <ele>1987.0</ele>
        <time>2018-06-23T12:47:11Z</time>
      </trkpt>
      <trkpt lat="40.266050" lon="-4.910717">
        <ele>1990.0</ele>
        <time>2018-06-23T12:47:12Z</time>
      </trkpt>
      <trkpt lat="40.266100" lon="-4.910800">
        <ele>1994.0</ele>
        <time>2018-06-23T12:47:13Z</time>
      </trkpt>
      <trkpt lat="40.266133" lon="-4.910883">
        <ele>1998.0</ele>
        <time>2018-06-23T12:47:14Z</time>
      </trkpt>
      <trkpt lat="40.266167" lon="-4.910967">
        <ele>2002.0</ele>
        <time>2018-06-23T12:47:15Z</time>
      </trkpt>
      <trkpt lat="40.266183" lon="-4.911033">
        <ele>2005.0</ele>
        <time>2018-06-23T12:47:16Z</time>
      </trkpt>
      <trkpt lat="40.266217" lon="-4.911117">
        <ele>2007.0</ele>
        <time>2018-06-23T12:47:17Z</time>
      </trkpt>
      <trkpt lat="40.266267" lon="-4.911200">
        <ele>2008.0</ele>
        <time>2018-06-23T12:47:18Z</time>
      </trkpt>
      <trkpt lat="40.266317" lon="-4.911267">
        <ele>2010.0</ele>
        <time>2018-06-23T12:47:19Z</time>
      </trkpt>
      <trkpt lat="40.266383" lon="-4.911317">
        <ele>2013.0</ele>
        <time>2018-06-23T12:47:20Z</time>
      </trkpt>
      <trkpt lat="40.266467" lon="-4.911317">
        <ele>2015.0</ele>
        <time>2018-06-23T12:47:21Z</time>
      </trkpt>
      <trkpt lat="40.266550" lon="-4.911267">
        <ele>2017.0</ele>
        <time>2018-06-23T12:47:22Z</time>
      </trkpt>
      <trkpt lat="40.266600" lon="-4.911167">
        <ele>2019.0</ele>
        <time>2018-06-23T12:47:23Z</time>
      </trkpt>
      <trkpt lat="40.266617" lon="-4.911050">
        <ele>2021.0</ele>
        <time>2018-06-23T12:47:24Z</time>
      </trkpt>
      <trkpt lat="40.266600" lon="-4.910933">
        <ele>2022.0</ele>
        <time>2018-06-23T12:47:25Z</time>
      </trkpt>
      <trkpt lat="40.266550" lon="-4.910817">
        <ele>2023.0</ele>
        <time>2018-06-23T12:47:26Z</time>
      </trkpt>
      <trkpt lat="40.266467" lon="-4.910733">
        <ele>2024.0</ele>
        <time>2018-06-23T12:47:27Z</time>
      </trkpt>
      <trkpt lat="40.266350" lon="-4.910700">
        <ele>2025.0</ele>
        <time>2018-06-23T12:47:28Z</time>
      </trkpt>
      <trkpt lat="40.266233" lon="-4.910683">
        <ele>2026.0</ele>
        <time>2018-06-23T12:47:29Z</time>
      </trkpt>
      <trkpt lat="40.266117" lon="-4.910700">
        <ele>2028.0</ele>
        <time>2018-06-23T12:47:30Z</time>
      </trkpt>
      <trkpt lat="40.266017" lon="-4.910750">
        <ele>2029.0</ele>
        <time>2018-06-23T12:47:31Z</time>
      </trkpt>
      <trkpt lat="40.265917" lon="-4.910833">
        <ele>2030.0</ele>
        <time>2018-06-23T12:47:32Z</time>
      </trkpt>
      <trkpt lat="40.265850" lon="-4.910933">
        <ele>2030.0</ele>
        <time>2018-06-23T12:47:33Z</time>
      </trkpt>
      <trkpt lat="40.265817" lon="-4.911067">
        <ele>2029.0</ele>
        <time>2018-06-23T12:47:34Z</time>
      </trkpt>
      <trkpt lat="40.265817" lon="-4.911233">
        <ele>2028.0</ele>
        <time>2018-06-23T12:47:35Z</time>
      </trkpt>
      <trkpt lat="40.265833" lon="-4.911400">
        <ele>2028.0</ele>
        <time>2018-06-23T12:47:36Z</time>
      </trkpt>
      <trkpt lat="40.265900" lon="-4.911567">
        <ele>2030.0</ele>
        <time>2018-06-23T12:47:37Z</time>
      </trkpt>
      <trkpt lat="40.265950" lon="-4.911717">
        <ele>2033.0</ele>
        <time>2018-06-23T12:47:38Z</time>
      </trkpt>
      <trkpt lat="40.266033" lon="-4.911833">
        <ele>2035.0</ele>
        <time>2018-06-23T12:47:39Z</time>
      </trkpt>
      <trkpt lat="40.266117" lon="-4.911933">
        <ele>2037.0</ele>
        <time>2018-06-23T12:47:40Z</time>
      </trkpt>
      <trkpt lat="40.266233" lon="-4.912033">
        <ele>2039.0</ele>
        <time>2018-06-23T12:47:41Z</time>
      </trkpt>
      <trkpt lat="40.266350" lon="-4.912100">
        <ele>2043.0</ele>
        <time>2018-06-23T12:47:42Z</time>
      </trkpt>
      <trkpt lat="40.266467" lon="-4.912167">
        <ele>2047.0</ele>
        <time>2018-06-23T12:47:43Z</time>
      </trkpt>
      <trkpt lat="40.266567" lon="-4.912200">
        <ele>2053.0</ele>
        <time>2018-06-23T12:47:44Z</time>
      </trkpt>
      <trkpt lat="40.266650" lon="-4.912217">
        <ele>2058.0</ele>
        <time>2018-06-23T12:47:45Z</time>
      </trkpt>
      <trkpt lat="40.266733" lon="-4.912233">
        <ele>2062.0</ele>
        <time>2018-06-23T12:47:46Z</time>
      </trkpt>
      <trkpt lat="40.266817" lon="-4.912233">
        <ele>2065.0</ele>
        <time>2018-06-23T12:47:47Z</time>
      </trkpt>
      <trkpt lat="40.266900" lon="-4.912183">
        <ele>2066.0</ele>
        <time>2018-06-23T12:47:48Z</time>
      </trkpt>
      <trkpt lat="40.266950" lon="-4.912083">
        <ele>2065.0</ele>
        <time>2018-06-23T12:47:49Z</time>
      </trkpt>
      <trkpt lat="40.267000" lon="-4.911950">
        <ele>2064.0</ele>
        <time>2018-06-23T12:47:50Z</time>
      </trkpt>
      <trkpt lat="40.267000" lon="-4.911800">
        <ele>2066.0</ele>
        <time>2018-06-23T12:47:51Z</time>
      </trkpt>
      <trkpt lat="40.266983" lon="-4.911650">
        <ele>2070.0</ele>
        <time>2018-06-23T12:47:52Z</time>
      </trkpt>
      <trkpt lat="40.266933" lon="-4.911517">
        <ele>2074.0</ele>
        <time>2018-06-23T12:47:53Z</time>
      </trkpt>
      <trkpt lat="40.266850" lon="-4.911433">
        <ele>2078.0</ele>
        <time>2018-06-23T12:47:54Z</time>
      </trkpt>
      <trkpt lat="40.266767" lon="-4.911367">
        <ele>2080.0</ele>
        <time>2018-06-23T12:47:55Z</time>
      </trkpt>
      <trkpt lat="40.266683" lon="-4.911333">
        <ele>2082.0</ele>
        <time>2018-06-23T12:47:56Z</time>
      </trkpt>
      <trkpt lat="40.266600" lon="-4.911317">
        <ele>2083.0</ele>
        <time>2018-06-23T12:47:57Z</time>
      </trkpt>
      <trkpt lat="40.266500" lon="-4.911317">
        <ele>2085.0</ele>
        <time>2018-06-23T12:47:58Z</time>
      </trkpt>
      <trkpt lat="40.266400" lon="-4.911333">
        <ele>2085.0</ele>
        <time>2018-06-23T12:47:59Z</time>
      </trkpt>
      <trkpt lat="40.266283" lon="-4.911400">
        <ele>2086.0</ele>
        <time>2018-06-23T12:48:00Z</time>
      </trkpt>
      <trkpt lat="40.266183" lon="-4.911483">
        <ele>2086.0</ele>
        <time>2018-06-23T12:48:01Z</time>
      </trkpt>
      <trkpt lat="40.266117" lon="-4.911617">
        <ele>2088.0</ele>
        <time>2018-06-23T12:48:02Z</time>
      </trkpt>
      <trkpt lat="40.266100" lon="-4.911767">
        <ele>2090.0</ele>
        <time>2018-06-23T12:48:03Z</time>
      </trkpt>
      <trkpt lat="40.266117" lon="-4.911933">
        <ele>2093.0</ele>
        <time>2018-06-23T12:48:04Z</time>
      </trkpt>
      <trkpt lat="40.266167" lon="-4.912083">
        <ele>2098.0</ele>
        <time>2018-06-23T12:48:05Z</time>
      </trkpt>
      <trkpt lat="40.266233" lon="-4.912200">
        <ele>2102.0</ele>
        <time>2018-06-23T12:48:06Z</time>
      </trkpt>
      <trkpt lat="40.266300" lon="-4.912300">
        <ele>2105.0</ele>
        <time>2018-06-23T12:48:07Z</time>
      </trkpt>
      <trkpt lat="40.266367" lon="-4.912383">
        <ele>2107.0</ele>
        <time>2018-06-23T12:48:08Z</time>
      </trkpt>
      <trkpt lat="40.266433" lon="-4.912483">
        <ele>2108.0</ele>
        <time>2018-06-23T12:48:09Z</time>
      </trkpt>
      <trkpt lat="40.266517" lon="-4.912583">
        <ele>2109.0</ele>
        <time>2018-06-23T12:48:10Z</time>
      </trkpt>
      <trkpt lat="40.266617" lon="-4.912683">
        <ele>2111.0</ele>
        <time>2018-06-23T12:48:11Z</time>
      </trkpt>
      <trkpt lat="40.266717" lon="-4.912733">
        <ele>2113.0</ele>
        <time>2018-06-23T12:48:12Z</time>
      </trkpt>
      <trkpt lat="40.266833" lon="-4.912750">
        <ele>2115.0</ele>
        <time>2018-06-23T12:48:13Z</time>
      </trkpt>
      <trkpt lat="40.266950" lon="-4.912750">
        <ele>2118.0</ele>
        <time>2018-06-23T12:48:14Z</time>
      </trkpt>
      <trkpt lat="40.267017" lon="-4.912717">
        <ele>2122.0</ele>
        <time>2018-06-23T12:48:15Z</time>
      </trkpt>
      <trkpt lat="40.267083" lon="-4.912683">
        <ele>2126.0</ele>
        <time>2018-06-23T12:48:16Z</time>
      </trkpt>
      <trkpt lat="40.267150" lon="-4.912650">
        <ele>2128.0</ele>
        <time>2018-06-23T12:48:17Z</time>
      </trkpt>
      <trkpt lat="40.267217" lon="-4.912617">
        <ele>2130.0</ele>
        <time>2018-06-23T12:48:18Z</time>
      </trkpt>
      <trkpt lat="40.267267" lon="-4.912583">
        <ele>2131.0</ele>
        <time>2018-06-23T12:48:19Z</time>
      </trkpt>
      <trkpt lat="40.267333" lon="-4.912533">
        <ele>2134.0</ele>
        <time>2018-06-23T12:48:20Z</time>
      </trkpt>
      <trkpt lat="40.267383" lon="-4.912433">
        <ele>2135.0</ele>
        <time>2018-06-23T12:48:21Z</time>
      </trkpt>
      <trkpt lat="40.267417" lon="-4.912317">
        <ele>2137.0</ele>
        <time>2018-06-23T12:48:22Z</time>
      </trkpt>
      <trkpt lat="40.267433" lon="-4.912183">
        <ele>2140.0</ele>
        <time>2018-06-23T12:48:23Z</time>
      </trkpt>
      <trkpt lat="40.267433" lon="-4.912050">
        <ele>2145.0</ele>
        <time>2018-06-23T12:48:24Z</time>
      </trkpt>
      <trkpt lat="40.267417" lon="-4.911933">
        <ele>2151.0</ele>
        <time>2018-06-23T12:48:25Z</time>
      </trkpt>
      <trkpt lat="40.267367" lon="-4.911833">
        <ele>2155.0</ele>
        <time>2018-06-23T12:48:26Z</time>
      </trkpt>
      <trkpt lat="40.267283" lon="-4.911767">
        <ele>2159.0</ele>
        <time>2018-06-23T12:48:27Z</time>
      </trkpt>
      <trkpt lat="40.267183" lon="-4.911700">
        <ele>2161.0</ele>
        <time>2018-06-23T12:48:28Z</time>
      </trkpt>
      <trkpt lat="40.267067" lon="-4.911650">
        <ele>2165.0</ele>
        <time>2018-06-23T12:48:29Z</time>
      </trkpt>
      <trkpt lat="40.266967" lon="-4.911633">
        <ele>2169.0</ele>
        <time>2018-06-23T12:48:30Z</time>
      </trkpt>
      <trkpt lat="40.266850" lon="-4.911633">
        <ele>2173.0</ele>
        <time>2018-06-23T12:48:31Z</time>
      </trkpt>
      <trkpt lat="40.266767" lon="-4.911683">
        <ele>2177.0</ele>
        <time>2018-06-23T12:48:32Z</time>
      </trkpt>
      <trkpt lat="40.266683" lon="-4.911767">
        <ele>2181.0</ele>
        <time>2018-06-23T12:48:33Z</time>
      </trkpt>
      <trkpt lat="40.266633" lon="-4.911883">
        <ele>2184.0</ele>
        <time>2018-06-23T12:48:34Z</time>
      </trkpt>
      <trkpt lat="40.266583" lon="-4.911983">
        <ele>2188.0</ele>
        <time>2018-06-23T12:48:35Z</time>
      </trkpt>
      <trkpt lat="40.266583" lon="-4.912083">
        <ele>2193.0</ele>
        <time>2018-06-23T12:48:36Z</time>
      </trkpt>
      <trkpt lat="40.266600" lon="-4.912183">
        <ele>2196.0</ele>
        <time>2018-06-23T12:48:37Z</time>
      </trkpt>
      <trkpt lat="40.266650" lon="-4.912267">
        <ele>2198.0</ele>
        <time>2018-06-23T12:48:38Z</time>
      </trkpt>
      <trkpt lat="40.266733" lon="-4.912333">
        <ele>2198.0</ele>
        <time>2018-06-23T12:48:39Z</time>
      </trkpt>
      <trkpt lat="40.266833" lon="-4.912383">
        <ele>2199.0</ele>
        <time>2018-06-23T12:48:40Z</time>
      </trkpt>
      <trkpt lat="40.266933" lon="-4.912383">
        <ele>2201.0</ele>
        <time>2018-06-23T12:48:41Z</time>
      </trkpt>
      <trkpt lat="40.267017" lon="-4.912333">
        <ele>2202.0</ele>
        <time>2018-06-23T12:48:42Z</time>
      </trkpt>
      <trkpt lat="40.267100" lon="-4.912250">
        <ele>2203.0</ele>
        <time>2018-06-23T12:48:43Z</time>
      </trkpt>
      <trkpt lat="40.267167" lon="-4.912133">
        <ele>2206.0</ele>
        <time>2018-06-23T12:48:44Z</time>
      </trkpt>
      <trkpt lat="40.267217" lon="-4.912017">
        <ele>2211.0</ele>
        <time>2018-06-23T12:48:45Z</time>
      </trkpt>
      <trkpt lat="40.267233" lon="-4.911883">
        <ele>2217.0</ele>
        <time>2018-06-23T12:48:46Z</time>
      </trkpt>
      <trkpt lat="40.267233" lon="-4.911767">
        <ele>2222.0</ele>
        <time>2018-06-23T12:48:47Z</time>
      </trkpt>
      <trkpt lat="40.267183" lon="-4.911667">
        <ele>2225.0</ele>
        <time>2018-06-23T12:48:48Z</time>
      </trkpt>
      <trkpt lat="40.267133" lon="-4.911583">
        <ele>2227.0</ele>
        <time>2018-06-23T12:48:49Z</time>
      </trkpt>
      <trkpt lat="40.267083" lon="-4.911500">
        <ele>2228.0</ele>
        <time>2018-06-23T12:48:50Z</time>
      </trkpt>
      <trkpt lat="40.267033" lon="-4.911417">
        <ele>2229.0</ele>
        <time>2018-06-23T12:48:51Z</time>
      </trkpt>
      <trkpt lat="40.266967" lon="-4.911317">
        <ele>2229.0</ele>
        <time>2018-06-23T12:48:52Z</time>
      </trkpt>
      <trkpt lat="40.266900" lon="-4.911233">
        <ele>2229.0</ele>
        <time>2018-06-23T12:48:53Z</time>
      </trkpt>
      <trkpt lat="40.266800" lon="-4.911150">
        <ele>2230.0</ele>
        <time>2018-06-23T12:48:54Z</time>
      </trkpt>
      <trkpt lat="40.266683" lon="-4.911100">
        <ele>2233.0</ele>
        <time>2018-06-23T12:48:55Z</time>
      </trkpt>
      <trkpt lat="40.266583" lon="-4.911067">
        <ele>2236.0</ele>
        <time>2018-06-23T12:48:56Z</time>
      </trkpt>
      <trkpt lat="40.266467" lon="-4.911083">
        <ele>2239.0</ele>
        <time>2018-06-23T12:48:57Z</time>
      </trkpt>
      <trkpt lat="40.266367" lon="-4.911117">
        <ele>2242.0</ele>
        <time>2018-06-23T12:48:58Z</time>
      </trkpt>
      <trkpt lat="40.266300" lon="-4.911200">
        <ele>2244.0</ele>
        <time>2018-06-23T12:48:59Z</time>
      </trkpt>
      <trkpt lat="40.266250" lon="-4.911300">
        <ele>2245.0</ele>
        <time>2018-06-23T12:49:00Z</time>
      </trkpt>
      <trkpt lat="40.266233" lon="-4.911417">
        <ele>2246.0</ele>
        <time>2018-06-23T12:49:01Z</time>
      </trkpt>
      <trkpt lat="40.266217" lon="-4.911533">
        <ele>2247.0</ele>
        <time>2018-06-23T12:49:02Z</time>
      </trkpt>
      <trkpt lat="40.266233" lon="-4.911650">
        <ele>2249.0</ele>
        <time>2018-06-23T12:49:03Z</time>
      </trkpt>
      <trkpt lat="40.266267" lon="-4.911767">
        <ele>2251.0</ele>
        <time>2018-06-23T12:49:04Z</time>
      </trkpt>
      <trkpt lat="40.266317" lon="-4.911883">
        <ele>2253.0</ele>
        <time>2018-06-23T12:49:05Z</time>
      </trkpt>
      <trkpt lat="40.266383" lon="-4.912000">
        <ele>2257.0</ele>
        <time>2018-06-23T12:49:06Z</time>
      </trkpt>
      <trkpt lat="40.266450" lon="-4.912083">
        <ele>2261.0</ele>
        <time>2018-06-23T12:49:07Z</time>
      </trkpt>
      <trkpt lat="40.266517" lon="-4.912183">
        <ele>2265.0</ele>
        <time>2018-06-23T12:49:08Z</time>
      </trkpt>
      <trkpt lat="40.266567" lon="-4.912267">
        <ele>2268.0</ele>
        <time>2018-06-23T12:49:09Z</time>
      </trkpt>
      <trkpt lat="40.266617" lon="-4.912383">
        <ele>2270.0</ele>
        <time>2018-06-23T12:49:10Z</time>
      </trkpt>
      <trkpt lat="40.266683" lon="-4.912500">
        <ele>2273.0</ele>
        <time>2018-06-23T12:49:11Z</time>
      </trkpt>
      <trkpt lat="40.266750" lon="-4.912600">
        <ele>2275.0</ele>
        <time>2018-06-23T12:49:12Z</time>
      </trkpt>
      <trkpt lat="40.266850" lon="-4.912650">
        <ele>2277.0</ele>
        <time>2018-06-23T12:49:13Z</time>
      </trkpt>
      <trkpt lat="40.266967" lon="-4.912667">
        <ele>2278.0</ele>
        <time>2018-06-23T12:49:14Z</time>
      </trkpt>
      <trkpt lat="40.267067" lon="-4.912650">
        <ele>2280.0</ele>
        <time>2018-06-23T12:49:15Z</time>
      </trkpt>
      <trkpt lat="40.267167" lon="-4.912600">
        <ele>2282.0</ele>
        <time>2018-06-23T12:49:16Z</time>
      </trkpt>
      <trkpt lat="40.267233" lon="-4.912550">
        <ele>2285.0</ele>
        <time>2018-06-23T12:49:17Z</time>
      </trkpt>
      <trkpt lat="40.267300" lon="-4.912483">
        <ele>2287.0</ele>
        <time>2018-06-23T12:49:18Z</time>
      </trkpt>
      <trkpt lat="40.267350" lon="-4.912383">
        <ele>2288.0</ele>
        <time>2018-06-23T12:49:19Z</time>
      </trkpt>
      <trkpt lat="40.267383" lon="-4.912267">
        <ele>2288.0</ele>
        <time>2018-06-23T12:49:20Z</time>
      </trkpt>
      <trkpt lat="40.267400" lon="-4.912133">
        <ele>2289.0</ele>
        <time>2018-06-23T12:49:21Z</time>
      </trkpt>
      <trkpt lat="40.267400" lon="-4.912000">
        <ele>2291.0</ele>
        <time>2018-06-23T12:49:22Z</time>
      </trkpt>
      <trkpt lat="40.267367" lon="-4.911867">
        <ele>2294.0</ele>
        <time>2018-06-23T12:49:23Z</time>
      </trkpt>
      <trkpt lat="40.267317" lon="-4.911750">
        <ele>2297.0</ele>
        <time>2018-06-23T12:49:24Z</time>
      </trkpt>
      <trkpt lat="40.267250" lon="-4.911667">
        <ele>2299.0</ele>
        <time>2018-06-23T12:49:25Z</time>
      </trkpt>
      <trkpt lat="40.267167" lon="-4.911617">
        <ele>2300.0</ele>
        <time>2018-06-23T12:49:26Z</time>
      </trkpt>
      <trkpt lat="40.267083" lon="-4.911600">
        <ele>2301.0</ele>
        <time>2018-06-23T12:49:27Z</time>
      </trkpt>
      <trkpt lat="40.266983" lon="-4.911600">
        <ele>2301.0</ele>
        <time>2018-06-23T12:49:28Z</time>
      </trkpt>
      <trkpt lat="40.266883" lon="-4.911617">
        <ele>2301.0</ele>
        <time>2018-06-23T12:49:29Z</time>
      </trkpt>
      <trkpt lat="40.266783" lon="-4.911650">
        <ele>2301.0</ele>
        <time>2018-06-23T12:49:30Z</time>
      </trkpt>
      <trkpt lat="40.266683" lon="-4.911717">
        <ele>2302.0</ele>
        <time>2018-06-23T12:49:31Z</time>
      </trkpt>
      <trkpt lat="40.266583" lon="-4.911817">
        <ele>2304.0</ele>
        <time>2018-06-23T12:49:32Z</time>
      </trkpt>
      <trkpt lat="40.266533" lon="-4.911917">
        <ele>2306.0</ele>
        <time>2018-06-23T12:49:33Z</time>
      </trkpt>
      <trkpt lat="40.266483" lon="-4.912033">
        <ele>2309.0</ele>
        <time>2018-06-23T12:49:34Z</time>
      </trkpt>
      <trkpt lat="40.266467" lon="-4.912150">
        <ele>2312.0</ele>
        <time>2018-06-23T12:49:35Z</time>
      </trkpt>
      <trkpt lat="40.266467" lon="-4.912283">
        <ele>2314.0</ele>
        <time>2018-06-23T12:49:36Z</time>
      </trkpt>
      <trkpt lat="40.266467" lon="-4.912400">
        <ele>2316.0</ele>
        <time>2018-06-23T12:49:37Z</time>
      </trkpt>
      <trkpt lat="40.266483" lon="-4.912517">
        <ele>2318.0</ele>
        <time>2018-06-23T12:49:38Z</time>
      </trkpt>
      <trkpt lat="40.266483" lon="-4.912617">
        <ele>2319.0</ele>
        <time>2018-06-23T12:49:39Z</time>
      </trkpt>
      <trkpt lat="40.266517" lon="-4.912733">
        <ele>2320.0</ele>
        <time>2018-06-23T12:49:40Z</time>
      </trkpt>
      <trkpt lat="40.266567" lon="-4.912850">
        <ele>2321.0</ele>
        <time>2018-06-23T12:49:41Z</time>
      </trkpt>
      <trkpt lat="40.266617" lon="-4.912967">
        <ele>2322.0</ele>
        <time>2018-06-23T12:49:42Z</time>
      </trkpt>
      <trkpt lat="40.266700" lon="-4.913067">
        <ele>2324.0</ele>
        <time>2018-06-23T12:49:43Z</time>
      </trkpt>
      <trkpt lat="40.266783" lon="-4.913117">
        <ele>2327.0</ele>
        <time>2018-06-23T12:49:44Z</time>
      </trkpt>
      <trkpt lat="40.266867" lon="-4.913167">
        <ele>2330.0</ele>
        <time>2018-06-23T12:49:45Z</time>
      </trkpt>
      <trkpt lat="40.266950" lon="-4.913200">
        <ele>2333.0</ele>
        <time>2018-06-23T12:49:46Z</time>
      </trkpt>
      <trkpt lat="40.267033" lon="-4.913217">
        <ele>2335.0</ele>
        <time>2018-06-23T12:49:47Z</time>
      </trkpt>
      <trkpt lat="40.267117" lon="-4.913217">
        <ele>2336.0</ele>
        <time>2018-06-23T12:49:48Z</time>
      </trkpt>
      <trkpt lat="40.267200" lon="-4.913217">
        <ele>2336.0</ele>
        <time>2018-06-23T12:49:49Z</time>
      </trkpt>
      <trkpt lat="40.267283" lon="-4.913200">
        <ele>2336.0</ele>
        <time>2018-06-23T12:49:50Z</time>
      </trkpt>
      <trkpt lat="40.267367" lon="-4.913117">
        <ele>2335.0</ele>
        <time>2018-06-23T12:49:51Z</time>
      </trkpt>
      <trkpt lat="40.267433" lon="-4.913000">
        <ele>2335.0</ele>
        <time>2018-06-23T12:49:52Z</time>
      </trkpt>
      <trkpt lat="40.267483" lon="-4.912867">
        <ele>2335.0</ele>
        <time>2018-06-23T12:49:53Z</time>
      </trkpt>
      <trkpt lat="40.267500" lon="-4.912750">
        <ele>2338.0</ele>
        <time>2018-06-23T12:49:54Z</time>
      </trkpt>
      <trkpt lat="40.267533" lon="-4.912633">
        <ele>2341.0</ele>
        <time>2018-06-23T12:49:55Z</time>
      </trkpt>
      <trkpt lat="40.267567" lon="-4.912533">
        <ele>2344.0</ele>
        <time>2018-06-23T12:49:56Z</time>
      </trkpt>
      <trkpt lat="40.267600" lon="-4.912433">
        <ele>2345.0</ele>
        <time>2018-06-23T12:49:57Z</time>
      </trkpt>
      <trkpt lat="40.267600" lon="-4.912350">
        <ele>2346.0</ele>
        <time>2018-06-23T12:49:58Z</time>
      </trkpt>
      <trkpt lat="40.267583" lon="-4.912233">
        <ele>2347.0</ele>
        <time>2018-06-23T12:49:59Z</time>
      </trkpt>
      <trkpt lat="40.267567" lon="-4.912133">
        <ele>2348.0</ele>
        <time>2018-06-23T12:50:00Z</time>
      </trkpt>
      <trkpt lat="40.267533" lon="-4.912017">
        <ele>2349.0</ele>
        <time>2018-06-23T12:50:01Z</time>
      </trkpt>
      <trkpt lat="40.267483" lon="-4.911917">
        <ele>2350.0</ele>
        <time>2018-06-23T12:50:02Z</time>
      </trkpt>
      <trkpt lat="40.267433" lon="-4.911817">
        <ele>2351.0</ele>
        <time>2018-06-23T12:50:03Z</time>
      </trkpt>
      <trkpt lat="40.267350" lon="-4.911717">
        <ele>2351.0</ele>
        <time>2018-06-23T12:50:04Z</time>
      </trkpt>
      <trkpt lat="40.267267" lon="-4.911650">
        <ele>2350.0</ele>
        <time>2018-06-23T12:50:05Z</time>
      </trkpt>
      <trkpt lat="40.267167" lon="-4.911583">
        <ele>2351.0</ele>
        <time>2018-06-23T12:50:06Z</time>
      </trkpt>
      <trkpt lat="40.267067" lon="-4.911533">
        <ele>2353.0</ele>
        <time>2018-06-23T12:50:07Z</time>
      </trkpt>
      <trkpt lat="40.266983" lon="-4.911517">
        <ele>2355.0</ele>
        <time>2018-06-23T12:50:08Z</time>
      </trkpt>
      <trkpt lat="40.266900" lon="-4.911517">
        <ele>2357.0</ele>
        <time>2018-06-23T12:50:09Z</time>
      </trkpt>
      <trkpt lat="40.266817" lon="-4.911533">
        <ele>2358.0</ele>
        <time>2018-06-23T12:50:10Z</time>
      </trkpt>
      <trkpt lat="40.266733" lon="-4.911567">
        <ele>2359.0</ele>
        <time>2018-06-23T12:50:11Z</time>
      </trkpt>
      <trkpt lat="40.266650" lon="-4.911617">
        <ele>2359.0</ele>
        <time>2018-06-23T12:50:12Z</time>
      </trkpt>
      <trkpt lat="40.266583" lon="-4.911700">
        <ele>2359.0</ele>
        <time>2018-06-23T12:50:13Z</time>
      </trkpt>
      <trkpt lat="40.266517" lon="-4.911800">
        <ele>2358.0</ele>
        <time>2018-06-23T12:50:14Z</time>
      </trkpt>
      <trkpt lat="40.266483" lon="-4.911917">
        <ele>2358.0</ele>
        <time>2018-06-23T12:50:15Z</time>
      </trkpt>
      <trkpt lat="40.266483" lon="-4.912050">
        <ele>2358.0</ele>
        <time>2018-06-23T12:50:16Z</time>
      </trkpt>
      <trkpt lat="40.266500" lon="-4.912183">
        <ele>2359.0</ele>
        <time>2018-06-23T12:50:17Z</time>
      </trkpt>
      <trkpt lat="40.266533" lon="-4.912300">
        <ele>2359.0</ele>
        <time>2018-06-23T12:50:18Z</time>
      </trkpt>
      <trkpt lat="40.266583" lon="-4.912400">
        <ele>2360.0</ele>
        <time>2018-06-23T12:50:19Z</time>
      </trkpt>
      <trkpt lat="40.266633" lon="-4.912500">
        <ele>2360.0</ele>
        <time>2018-06-23T12:50:20Z</time>
      </trkpt>
      <trkpt lat="40.266717" lon="-4.912567">
        <ele>2361.0</ele>
        <time>2018-06-23T12:50:21Z</time>
      </trkpt>
      <trkpt lat="40.266817" lon="-4.912617">
        <ele>2362.0</ele>
        <time>2018-06-23T12:50:22Z</time>
      </trkpt>
      <trkpt lat="40.266900" lon="-4.912650">
        <ele>2364.0</ele>
        <time>2018-06-23T12:50:23Z</time>
      </trkpt>
      <trkpt lat="40.266983" lon="-4.912650">
        <ele>2366.0</ele>
        <time>2018-06-23T12:50:24Z</time>
      </trkpt>
      <trkpt lat="40.267067" lon="-4.912633">
        <ele>2367.0</ele>
        <time>2018-06-23T12:50:25Z</time>
      </trkpt>
      <trkpt lat="40.267133" lon="-4.912617">
        <ele>2368.0</ele>
        <time>2018-06-23T12:50:26Z</time>
      </trkpt>
      <trkpt lat="40.267217" lon="-4.912600">
        <ele>2369.0</ele>
        <time>2018-06-23T12:50:27Z</time>
      </trkpt>
      <trkpt lat="40.267300" lon="-4.912550">
        <ele>2369.0</ele>
        <time>2018-06-23T12:50:28Z</time>
      </trkpt>
      <trkpt lat="40.267383" lon="-4.912500">
        <ele>2370.0</ele>
        <time>2018-06-23T12:50:29Z</time>
      </trkpt>
      <trkpt lat="40.267483" lon="-4.912417">
        <ele>2371.0</ele>
        <time>2018-06-23T12:50:30Z</time>
      </trkpt>
      <trkpt lat="40.267567" lon="-4.912350">
        <ele>2373.0</ele>
        <time>2018-06-23T12:50:31Z</time>
      </trkpt>
      <trkpt lat="40.267633" lon="-4.912267">
        <ele>2376.0</ele>
        <time>2018-06-23T12:50:32Z</time>
      </trkpt>
      <trkpt lat="40.267717" lon="-4.912200">
        <ele>2380.0</ele>
        <time>2018-06-23T12:50:33Z</time>
      </trkpt>
      <trkpt lat="40.267783" lon="-4.912150">
        <ele>2384.0</ele>
        <time>2018-06-23T12:50:34Z</time>
      </trkpt>
      <trkpt lat="40.267850" lon="-4.912100">
        <ele>2387.0</ele>
        <time>2018-06-23T12:50:35Z</time>
      </trkpt>
      <trkpt lat="40.267917" lon="-4.912050">
        <ele>2390.0</ele>
        <time>2018-06-23T12:50:36Z</time>
      </trkpt>
      <trkpt lat="40.267967" lon="-4.911983">
        <ele>2391.0</ele>
        <time>2018-06-23T12:50:37Z</time>
      </trkpt>
      <trkpt lat="40.268017" lon="-4.911883">
        <ele>2391.0</ele>
        <time>2018-06-23T12:50:38Z</time>
      </trkpt>
      <trkpt lat="40.268033" lon="-4.911783">
        <ele>2390.0</ele>
        <time>2018-06-23T12:50:39Z</time>
      </trkpt>
      <trkpt lat="40.268033" lon="-4.911650">
        <ele>2389.0</ele>
        <time>2018-06-23T12:50:40Z</time>
      </trkpt>
      <trkpt lat="40.268000" lon="-4.911533">
        <ele>2387.0</ele>
        <time>2018-06-23T12:50:41Z</time>
      </trkpt>
      <trkpt lat="40.267917" lon="-4.911450">
        <ele>2386.0</ele>
        <time>2018-06-23T12:50:42Z</time>
      </trkpt>
      <trkpt lat="40.267817" lon="-4.911400">
        <ele>2384.0</ele>
        <time>2018-06-23T12:50:43Z</time>
      </trkpt>
      <trkpt lat="40.267717" lon="-4.911400">
        <ele>2384.0</ele>
        <time>2018-06-23T12:50:44Z</time>
      </trkpt>
      <trkpt lat="40.267617" lon="-4.911433">
        <ele>2384.0</ele>
        <time>2018-06-23T12:50:45Z</time>
      </trkpt>
      <trkpt lat="40.267517" lon="-4.911483">
        <ele>2385.0</ele>
        <time>2018-06-23T12:50:46Z</time>
      </trkpt>
      <trkpt lat="40.267433" lon="-4.911583">
        <ele>2386.0</ele>
        <time>2018-06-23T12:50:47Z</time>
      </trkpt>
      <trkpt lat="40.267367" lon="-4.911700">
        <ele>2388.0</ele>
        <time>2018-06-23T12:50:48Z</time>
      </trkpt>
      <trkpt lat="40.267300" lon="-4.911817">
        <ele>2390.0</ele>
        <time>2018-06-23T12:50:49Z</time>
      </trkpt>
      <trkpt lat="40.267283" lon="-4.911933">
        <ele>2393.0</ele>
        <time>2018-06-23T12:50:50Z</time>
      </trkpt>
      <trkpt lat="40.267283" lon="-4.912050">
        <ele>2395.0</ele>
        <time>2018-06-23T12:50:51Z</time>
      </trkpt>
      <trkpt lat="40.267283" lon="-4.912150">
        <ele>2396.0</ele>
        <time>2018-06-23T12:50:52Z</time>
      </trkpt>
      <trkpt lat="40.267317" lon="-4.912267">
        <ele>2396.0</ele>
        <time>2018-06-23T12:50:53Z</time>
      </trkpt>
      <trkpt lat="40.267367" lon="-4.912383">
        <ele>2396.0</ele>
        <time>2018-06-23T12:50:54Z</time>
      </trkpt>
      <trkpt lat="40.267417" lon="-4.912500">
        <ele>2397.0</ele>
        <time>2018-06-23T12:50:55Z</time>
      </trkpt>
      <trkpt lat="40.267500" lon="-4.912583">
        <ele>2398.0</ele>
        <time>2018-06-23T12:50:56Z</time>
      </trkpt>
      <trkpt lat="40.267583" lon="-4.912650">
        <ele>2399.0</ele>
        <time>2018-06-23T12:50:57Z</time>
      </trkpt>
      <trkpt lat="40.267667" lon="-4.912700">
        <ele>2401.0</ele>
        <time>2018-06-23T12:50:58Z</time>
      </trkpt>
      <trkpt lat="40.267750" lon="-4.912733">
        <ele>2402.0</ele>
        <time>2018-06-23T12:50:59Z</time>
      </trkpt>
      <trkpt lat="40.267833" lon="-4.912767">
        <ele>2402.0</ele>
        <time>2018-06-23T12:51:00Z</time>
      </trkpt>
      <trkpt lat="40.267933" lon="-4.912767">
        <ele>2402.0</ele>
        <time>2018-06-23T12:51:01Z</time>
      </trkpt>
      <trkpt lat="40.268017" lon="-4.912767">
        <ele>2403.0</ele>
        <time>2018-06-23T12:51:02Z</time>
      </trkpt>
      <trkpt lat="40.268117" lon="-4.912750">
        <ele>2404.0</ele>
        <time>2018-06-23T12:51:03Z</time>
      </trkpt>
      <trkpt lat="40.268200" lon="-4.912717">
        <ele>2406.0</ele>
        <time>2018-06-23T12:51:04Z</time>
      </trkpt>
      <trkpt lat="40.268267" lon="-4.912700">
        <ele>2407.0</ele>
        <time>2018-06-23T12:51:05Z</time>
      </trkpt>
      <trkpt lat="40.268350" lon="-4.912650">
        <ele>2407.0</ele>
        <time>2018-06-23T12:51:06Z</time>
      </trkpt>
      <trkpt lat="40.268417" lon="-4.912600">
        <ele>2408.0</ele>
        <time>2018-06-23T12:51:07Z</time>
      </trkpt>
      <trkpt lat="40.268483" lon="-4.912533">
        <ele>2408.0</ele>
        <time>2018-06-23T12:51:08Z</time>
      </trkpt>
      <trkpt lat="40.268567" lon="-4.912500">
        <ele>2409.0</ele>
        <time>2018-06-23T12:51:09Z</time>
      </trkpt>
      <trkpt lat="40.268650" lon="-4.912467">
        <ele>2409.0</ele>
        <time>2018-06-23T12:51:10Z</time>
      </trkpt>
      <trkpt lat="40.268733" lon="-4.912417">
        <ele>2410.0</ele>
        <time>2018-06-23T12:51:11Z</time>
      </trkpt>
      <trkpt lat="40.268800" lon="-4.912367">
        <ele>2410.0</ele>
        <time>2018-06-23T12:51:12Z</time>
      </trkpt>
      <trkpt lat="40.268850" lon="-4.912317">
        <ele>2410.0</ele>
        <time>2018-06-23T12:51:13Z</time>
      </trkpt>
      <trkpt lat="40.268917" lon="-4.912250">
        <ele>2409.0</ele>
        <time>2018-06-23T12:51:14Z</time>
      </trkpt>
      <trkpt lat="40.268983" lon="-4.912167">
        <ele>2408.0</ele>
        <time>2018-06-23T12:51:15Z</time>
      </trkpt>
      <trkpt lat="40.269033" lon="-4.912083">
        <ele>2406.0</ele>
        <time>2018-06-23T12:51:16Z</time>
      </trkpt>
      <trkpt lat="40.269100" lon="-4.911983">
        <ele>2404.0</ele>
        <time>2018-06-23T12:51:17Z</time>
      </trkpt>
      <trkpt lat="40.269167" lon="-4.911883">
        <ele>2404.0</ele>
        <time>2018-06-23T12:51:18Z</time>
      </trkpt>
      <trkpt lat="40.269233" lon="-4.911767">
        <ele>2404.0</ele>
        <time>2018-06-23T12:51:19Z</time>
      </trkpt>
      <trkpt lat="40.269283" lon="-4.911667">
        <ele>2406.0</ele>
        <time>2018-06-23T12:51:20Z</time>
      </trkpt>
      <trkpt lat="40.269350" lon="-4.911550">
        <ele>2407.0</ele>
        <time>2018-06-23T12:51:21Z</time>
      </trkpt>
      <trkpt lat="40.269400" lon="-4.911450">
        <ele>2408.0</ele>
        <time>2018-06-23T12:51:22Z</time>
      </trkpt>
      <trkpt lat="40.269467" lon="-4.911367">
        <ele>2409.0</ele>
        <time>2018-06-23T12:51:23Z</time>
      </trkpt>
      <trkpt lat="40.269550" lon="-4.911283">
        <ele>2409.0</ele>
        <time>2018-06-23T12:51:24Z</time>
      </trkpt>
      <trkpt lat="40.269617" lon="-4.911217">
        <ele>2409.0</ele>
        <time>2018-06-23T12:51:25Z</time>
      </trkpt>
      <trkpt lat="40.269683" lon="-4.911133">
        <ele>2409.0</ele>
        <time>2018-06-23T12:51:26Z</time>
      </trkpt>
      <trkpt lat="40.269767" lon="-4.911067">
        <ele>2409.0</ele>
        <time>2018-06-23T12:51:27Z</time>
      </trkpt>
      <trkpt lat="40.269850" lon="-4.911000">
        <ele>2408.0</ele>
        <time>2018-06-23T12:51:28Z</time>
      </trkpt>
      <trkpt lat="40.269933" lon="-4.910933">
        <ele>2408.0</ele>
        <time>2018-06-23T12:51:29Z</time>
      </trkpt>
      <trkpt lat="40.270033" lon="-4.910867">
        <ele>2408.0</ele>
        <time>2018-06-23T12:51:30Z</time>
      </trkpt>
      <trkpt lat="40.270117" lon="-4.910800">
        <ele>2408.0</ele>
        <time>2018-06-23T12:51:31Z</time>
      </trkpt>
      <trkpt lat="40.270200" lon="-4.910717">
        <ele>2408.0</ele>
        <time>2018-06-23T12:51:32Z</time>
      </trkpt>
      <trkpt lat="40.270267" lon="-4.910633">
        <ele>2408.0</ele>
        <time>2018-06-23T12:51:33Z</time>
      </trkpt>
      <trkpt lat="40.270317" lon="-4.910533">
        <ele>2408.0</ele>
        <time>2018-06-23T12:51:34Z</time>
      </trkpt>
      <trkpt lat="40.270367" lon="-4.910433">
        <ele>2408.0</ele>
        <time>2018-06-23T12:51:35Z</time>
      </trkpt>
      <trkpt lat="40.270433" lon="-4.910333">
        <ele>2409.0</ele>
        <time>2018-06-23T12:51:36Z</time>
      </trkpt>
      <trkpt lat="40.270500" lon="-4.910233">
        <ele>2409.0</ele>
        <time>2018-06-23T12:51:37Z</time>
      </trkpt>
      <trkpt lat="40.270550" lon="-4.910133">
        <ele>2410.0</ele>
        <time>2018-06-23T12:51:38Z</time>
      </trkpt>
      <trkpt lat="40.270617" lon="-4.910050">
        <ele>2410.0</ele>
        <time>2018-06-23T12:51:39Z</time>
      </trkpt>
      <trkpt lat="40.270683" lon="-4.909967">
        <ele>2410.0</ele>
        <time>2018-06-23T12:51:40Z</time>
      </trkpt>
      <trkpt lat="40.270733" lon="-4.909900">
        <ele>2410.0</ele>
        <time>2018-06-23T12:51:41Z</time>
      </trkpt>
      <trkpt lat="40.270800" lon="-4.909817">
        <ele>2410.0</ele>
        <time>2018-06-23T12:51:42Z</time>
      </trkpt>
      <trkpt lat="40.270867" lon="-4.909733">
        <ele>2410.0</ele>
        <time>2018-06-23T12:51:43Z</time>
      </trkpt>
      <trkpt lat="40.270933" lon="-4.909650">
        <ele>2410.0</ele>
        <time>2018-06-23T12:51:44Z</time>
      </trkpt>
      <trkpt lat="40.271000" lon="-4.909583">
        <ele>2409.0</ele>
        <time>2018-06-23T12:51:45Z</time>
      </trkpt>
      <trkpt lat="40.271067" lon="-4.909500">
        <ele>2408.0</ele>
        <time>2018-06-23T12:51:46Z</time>
      </trkpt>
      <trkpt lat="40.271150" lon="-4.909433">
        <ele>2407.0</ele>
        <time>2018-06-23T12:51:47Z</time>
      </trkpt>
      <trkpt lat="40.271217" lon="-4.909383">
        <ele>2407.0</ele>
        <time>2018-06-23T12:51:48Z</time>
      </trkpt>
      <trkpt lat="40.271300" lon="-4.909333">
        <ele>2407.0</ele>
        <time>2018-06-23T12:51:49Z</time>
      </trkpt>
      <trkpt lat="40.271383" lon="-4.909283">
        <ele>2407.0</ele>
        <time>2018-06-23T12:51:50Z</time>
      </trkpt>
      <trkpt lat="40.271450" lon="-4.909217">
        <ele>2407.0</ele>
        <time>2018-06-23T12:51:51Z</time>
      </trkpt>
      <trkpt lat="40.271500" lon="-4.909150">
        <ele>2406.0</ele>
        <time>2018-06-23T12:51:52Z</time>
      </trkpt>
      <trkpt lat="40.271583" lon="-4.909083">
        <ele>2405.0</ele>
        <time>2018-06-23T12:51:53Z</time>
      </trkpt>
      <trkpt lat="40.271667" lon="-4.909033">
        <ele>2403.0</ele>
        <time>2018-06-23T12:51:54Z</time>
      </trkpt>
      <trkpt lat="40.271767" lon="-4.908983">
        <ele>2401.0</ele>
        <time>2018-06-23T12:51:55Z</time>
      </trkpt>
      <trkpt lat="40.271867" lon="-4.908950">
        <ele>2402.0</ele>
        <time>2018-06-23T12:51:56Z</time>
      </trkpt>
      <trkpt lat="40.271967" lon="-4.908900">
        <ele>2404.0</ele>
        <time>2018-06-23T12:51:57Z</time>
      </trkpt>
      <trkpt lat="40.272033" lon="-4.908867">
        <ele>2407.0</ele>
        <time>2018-06-23T12:51:58Z</time>
      </trkpt>
      <trkpt lat="40.272117" lon="-4.908833">
        <ele>2409.0</ele>
        <time>2018-06-23T12:51:59Z</time>
      </trkpt>
      <trkpt lat="40.272183" lon="-4.908800">
        <ele>2411.0</ele>
        <time>2018-06-23T12:52:00Z</time>
      </trkpt>
      <trkpt lat="40.272267" lon="-4.908750">
        <ele>2413.0</ele>
        <time>2018-06-23T12:52:01Z</time>
      </trkpt>
      <trkpt lat="40.272350" lon="-4.908700">
        <ele>2415.0</ele>
        <time>2018-06-23T12:52:02Z</time>
      </trkpt>
      <trkpt lat="40.272433" lon="-4.908650">
        <ele>2417.0</ele>
        <time>2018-06-23T12:52:03Z</time>
      </trkpt>
      <trkpt lat="40.272517" lon="-4.908567">
        <ele>2419.0</ele>
        <time>2018-06-23T12:52:04Z</time>
      </trkpt>
      <trkpt lat="40.272583" lon="-4.908467">
        <ele>2420.0</ele>
        <time>2018-06-23T12:52:05Z</time>
      </trkpt>
      <trkpt lat="40.272617" lon="-4.908333">
        <ele>2421.0</ele>
        <time>2018-06-23T12:52:06Z</time>
      </trkpt>
      <trkpt lat="40.272617" lon="-4.908183">
        <ele>2421.0</ele>
        <time>2018-06-23T12:52:07Z</time>
      </trkpt>
      <trkpt lat="40.272583" lon="-4.908017">
        <ele>2422.0</ele>
        <time>2018-06-23T12:52:08Z</time>
      </trkpt>
      <trkpt lat="40.272517" lon="-4.907867">
        <ele>2424.0</ele>
        <time>2018-06-23T12:52:09Z</time>
      </trkpt>
      <trkpt lat="40.272433" lon="-4.907767">
        <ele>2425.0</ele>
        <time>2018-06-23T12:52:10Z</time>
      </trkpt>
      <trkpt lat="40.272333" lon="-4.907683">
        <ele>2426.0</ele>
        <time>2018-06-23T12:52:11Z</time>
      </trkpt>
      <trkpt lat="40.272233" lon="-4.907650">
        <ele>2427.0</ele>
        <time>2018-06-23T12:52:12Z</time>
      </trkpt>
      <trkpt lat="40.272133" lon="-4.907633">
        <ele>2426.0</ele>
        <time>2018-06-23T12:52:13Z</time>
      </trkpt>
      <trkpt lat="40.272033" lon="-4.907667">
        <ele>2425.0</ele>
        <time>2018-06-23T12:52:14Z</time>
      </trkpt>
      <trkpt lat="40.271933" lon="-4.907717">
        <ele>2425.0</ele>
        <time>2018-06-23T12:52:15Z</time>
      </trkpt>
      <trkpt lat="40.271867" lon="-4.907817">
        <ele>2426.0</ele>
        <time>2018-06-23T12:52:16Z</time>
      </trkpt>
      <trkpt lat="40.271833" lon="-4.907917">
        <ele>2427.0</ele>
        <time>2018-06-23T12:52:17Z</time>
      </trkpt>
      <trkpt lat="40.271850" lon="-4.908033">
        <ele>2429.0</ele>
        <time>2018-06-23T12:52:18Z</time>
      </trkpt>
      <trkpt lat="40.271883" lon="-4.908133">
        <ele>2430.0</ele>
        <time>2018-06-23T12:52:19Z</time>
      </trkpt>
      <trkpt lat="40.271933" lon="-4.908217">
        <ele>2431.0</ele>
        <time>2018-06-23T12:52:20Z</time>
      </trkpt>
      <trkpt lat="40.271983" lon="-4.908300">
        <ele>2432.0</ele>
        <time>2018-06-23T12:52:21Z</time>
      </trkpt>
      <trkpt lat="40.272050" lon="-4.908367">
        <ele>2435.0</ele>
        <time>2018-06-23T12:52:22Z</time>
      </trkpt>
      <trkpt lat="40.272117" lon="-4.908417">
        <ele>2437.0</ele>
        <time>2018-06-23T12:52:23Z</time>
      </trkpt>
      <trkpt lat="40.272183" lon="-4.908450">
        <ele>2438.0</ele>
        <time>2018-06-23T12:52:24Z</time>
      </trkpt>
      <trkpt lat="40.272267" lon="-4.908467">
        <ele>2440.0</ele>
        <time>2018-06-23T12:52:25Z</time>
      </trkpt>
      <trkpt lat="40.272333" lon="-4.908483">
        <ele>2441.0</ele>
        <time>2018-06-23T12:52:26Z</time>
      </trkpt>
      <trkpt lat="40.272400" lon="-4.908500">
        <ele>2441.0</ele>
        <time>2018-06-23T12:52:27Z</time>
      </trkpt>
      <trkpt lat="40.272467" lon="-4.908483">
        <ele>2442.0</ele>
        <time>2018-06-23T12:52:28Z</time>
      </trkpt>
      <trkpt lat="40.272533" lon="-4.908433">
        <ele>2443.0</ele>
        <time>2018-06-23T12:52:29Z</time>
      </trkpt>
      <trkpt lat="40.272600" lon="-4.908350">
        <ele>2444.0</ele>
        <time>2018-06-23T12:52:30Z</time>
      </trkpt>
      <trkpt lat="40.272667" lon="-4.908250">
        <ele>2446.0</ele>
        <time>2018-06-23T12:52:31Z</time>
      </trkpt>
      <trkpt lat="40.272733" lon="-4.908150">
        <ele>2448.0</ele>
        <time>2018-06-23T12:52:32Z</time>
      </trkpt>
      <trkpt lat="40.272800" lon="-4.908067">
        <ele>2449.0</ele>
        <time>2018-06-23T12:52:33Z</time>
      </trkpt>
      <trkpt lat="40.272850" lon="-4.907950">
        <ele>2450.0</ele>
        <time>2018-06-23T12:52:34Z</time>
      </trkpt>
      <trkpt lat="40.272900" lon="-4.907817">
        <ele>2451.0</ele>
        <time>2018-06-23T12:52:35Z</time>
      </trkpt>
      <trkpt lat="40.272917" lon="-4.907667">
        <ele>2451.0</ele>
        <time>2018-06-23T12:52:36Z</time>
      </trkpt>
      <trkpt lat="40.272917" lon="-4.907500">
        <ele>2452.0</ele>
        <time>2018-06-23T12:52:37Z</time>
      </trkpt>
      <trkpt lat="40.272883" lon="-4.907350">
        <ele>2454.0</ele>
        <time>2018-06-23T12:52:38Z</time>
      </trkpt>
      <trkpt lat="40.272833" lon="-4.907217">
        <ele>2455.0</ele>
        <time>2018-06-23T12:52:39Z</time>
      </trkpt>
      <trkpt lat="40.272767" lon="-4.907117">
        <ele>2457.0</ele>
        <time>2018-06-23T12:52:40Z</time>
      </trkpt>
      <trkpt lat="40.272700" lon="-4.907050">
        <ele>2458.0</ele>
        <time>2018-06-23T12:52:41Z</time>
      </trkpt>
      <trkpt lat="40.272617" lon="-4.907000">
        <ele>2457.0</ele>
        <time>2018-06-23T12:52:42Z</time>
      </trkpt>
      <trkpt lat="40.272517" lon="-4.907000">
        <ele>2456.0</ele>
        <time>2018-06-23T12:52:43Z</time>
      </trkpt>
      <trkpt lat="40.272417" lon="-4.907033">
        <ele>2454.0</ele>
        <time>2018-06-23T12:52:44Z</time>
      </trkpt>
      <trkpt lat="40.272333" lon="-4.907083">
        <ele>2453.0</ele>
        <time>2018-06-23T12:52:45Z</time>
      </trkpt>
      <trkpt lat="40.272267" lon="-4.907167">
        <ele>2452.0</ele>
        <time>2018-06-23T12:52:46Z</time>
      </trkpt>
      <trkpt lat="40.272233" lon="-4.907250">
        <ele>2453.0</ele>
        <time>2018-06-23T12:52:47Z</time>
      </trkpt>
      <trkpt lat="40.272217" lon="-4.907367">
        <ele>2453.0</ele>
        <time>2018-06-23T12:52:48Z</time>
      </trkpt>
      <trkpt lat="40.272233" lon="-4.907467">
        <ele>2452.0</ele>
        <time>2018-06-23T12:52:49Z</time>
      </trkpt>
      <trkpt lat="40.272267" lon="-4.907567">
        <ele>2452.0</ele>
        <time>2018-06-23T12:52:50Z</time>
      </trkpt>
      <trkpt lat="40.272317" lon="-4.907650">
        <ele>2452.0</ele>
        <time>2018-06-23T12:52:51Z</time>
      </trkpt>
      <trkpt lat="40.272383" lon="-4.907733">
        <ele>2451.0</ele>
        <time>2018-06-23T12:52:52Z</time>
      </trkpt>
      <trkpt lat="40.272450" lon="-4.907783">
        <ele>2451.0</ele>
        <time>2018-06-23T12:52:53Z</time>
      </trkpt>
      <trkpt lat="40.272533" lon="-4.907817">
        <ele>2451.0</ele>
        <time>2018-06-23T12:52:54Z</time>
      </trkpt>
      <trkpt lat="40.272617" lon="-4.907833">
        <ele>2451.0</ele>
        <time>2018-06-23T12:52:55Z</time>
      </trkpt>
      <trkpt lat="40.272717" lon="-4.907833">
        <ele>2453.0</ele>
        <time>2018-06-23T12:52:56Z</time>
      </trkpt>
      <trkpt lat="40.272800" lon="-4.907833">
        <ele>2454.0</ele>
        <time>2018-06-23T12:52:57Z</time>
      </trkpt>
      <trkpt lat="40.272900" lon="-4.907817">
        <ele>2455.0</ele>
        <time>2018-06-23T12:52:58Z</time>
      </trkpt>
      <trkpt lat="40.272983" lon="-4.907783">
        <ele>2455.0</ele>
        <time>2018-06-23T12:52:59Z</time>
      </trkpt>
      <trkpt lat="40.273083" lon="-4.907733">
        <ele>2455.0</ele>
        <time>2018-06-23T12:53:00Z</time>
      </trkpt>
      <trkpt lat="40.273183" lon="-4.907683">
        <ele>2457.0</ele>
        <time>2018-06-23T12:53:01Z</time>
      </trkpt>
      <trkpt lat="40.273283" lon="-4.907617">
        <ele>2459.0</ele>
        <time>2018-06-23T12:53:02Z</time>
      </trkpt>
      <trkpt lat="40.273383" lon="-4.907533">
        <ele>2462.0</ele>
        <time>2018-06-23T12:53:03Z</time>
      </trkpt>
      <trkpt lat="40.273467" lon="-4.907467">
        <ele>2465.0</ele>
        <time>2018-06-23T12:53:04Z</time>
      </trkpt>
      <trkpt lat="40.273550" lon="-4.907400">
        <ele>2468.0</ele>
        <time>2018-06-23T12:53:05Z</time>
      </trkpt>
      <trkpt lat="40.273617" lon="-4.907333">
        <ele>2469.0</ele>
        <time>2018-06-23T12:53:06Z</time>
      </trkpt>
      <trkpt lat="40.273700" lon="-4.907283">
        <ele>2469.0</ele>
        <time>2018-06-23T12:53:07Z</time>
      </trkpt>
      <trkpt lat="40.273783" lon="-4.907200">
        <ele>2469.0</ele>
        <time>2018-06-23T12:53:08Z</time>
      </trkpt>
      <trkpt lat="40.273867" lon="-4.907083">
        <ele>2469.0</ele>
        <time>2018-06-23T12:53:09Z</time>
      </trkpt>
      <trkpt lat="40.273950" lon="-4.906950">
        <ele>2469.0</ele>
        <time>2018-06-23T12:53:10Z</time>
      </trkpt>
      <trkpt lat="40.273983" lon="-4.906783">
        <ele>2470.0</ele>
        <time>2018-06-23T12:53:11Z</time>
      </trkpt>
      <trkpt lat="40.274000" lon="-4.906617">
        <ele>2471.0</ele>
        <time>2018-06-23T12:53:12Z</time>
      </trkpt>
      <trkpt lat="40.273967" lon="-4.906450">
        <ele>2471.0</ele>
        <time>2018-06-23T12:53:13Z</time>
      </trkpt>
      <trkpt lat="40.273917" lon="-4.906300">
        <ele>2471.0</ele>
        <time>2018-06-23T12:53:14Z</time>
      </trkpt>
      <trkpt lat="40.273850" lon="-4.906167">
        <ele>2471.0</ele>
        <time>2018-06-23T12:53:15Z</time>
      </trkpt>
      <trkpt lat="40.273767" lon="-4.906067">
        <ele>2472.0</ele>
        <time>2018-06-23T12:53:16Z</time>
      </trkpt>
      <trkpt lat="40.273667" lon="-4.905983">
        <ele>2473.0</ele>
        <time>2018-06-23T12:53:17Z</time>
      </trkpt>
      <trkpt lat="40.273567" lon="-4.905917">
        <ele>2474.0</ele>
        <time>2018-06-23T12:53:18Z</time>
      </trkpt>
      <trkpt lat="40.273467" lon="-4.905900">
        <ele>2474.0</ele>
        <time>2018-06-23T12:53:19Z</time>
      </trkpt>
      <trkpt lat="40.273367" lon="-4.905917">
        <ele>2475.0</ele>
        <time>2018-06-23T12:53:20Z</time>
      </trkpt>
      <trkpt lat="40.273283" lon="-4.905950">
        <ele>2476.0</ele>
        <time>2018-06-23T12:53:21Z</time>
      </trkpt>
      <trkpt lat="40.273200" lon="-4.906017">
        <ele>2477.0</ele>
        <time>2018-06-23T12:53:22Z</time>
      </trkpt>
      <trkpt lat="40.273150" lon="-4.906083">
        <ele>2479.0</ele>
        <time>2018-06-23T12:53:23Z</time>
      </trkpt>
      <trkpt lat="40.273117" lon="-4.906183">
        <ele>2480.0</ele>
        <time>2018-06-23T12:53:24Z</time>
      </trkpt>
      <trkpt lat="40.273100" lon="-4.906300">
        <ele>2481.0</ele>
        <time>2018-06-23T12:53:25Z</time>
      </trkpt>
      <trkpt lat="40.273117" lon="-4.906417">
        <ele>2481.0</ele>
        <time>2018-06-23T12:53:26Z</time>
      </trkpt>
      <trkpt lat="40.273167" lon="-4.906500">
        <ele>2483.0</ele>
        <time>2018-06-23T12:53:27Z</time>
      </trkpt>
      <trkpt lat="40.273217" lon="-4.906583">
        <ele>2486.0</ele>
        <time>2018-06-23T12:53:28Z</time>
      </trkpt>
      <trkpt lat="40.273283" lon="-4.906633">
        <ele>2488.0</ele>
        <time>2018-06-23T12:53:29Z</time>
      </trkpt>
      <trkpt lat="40.273350" lon="-4.906650">
        <ele>2489.0</ele>
        <time>2018-06-23T12:53:30Z</time>
      </trkpt>
      <trkpt lat="40.273417" lon="-4.906650">
        <ele>2490.0</ele>
        <time>2018-06-23T12:53:31Z</time>
      </trkpt>
      <trkpt lat="40.273500" lon="-4.906633">
        <ele>2490.0</ele>
        <time>2018-06-23T12:53:32Z</time>
      </trkpt>
      <trkpt lat="40.273600" lon="-4.906600">
        <ele>2491.0</ele>
        <time>2018-06-23T12:53:33Z</time>
      </trkpt>
      <trkpt lat="40.273700" lon="-4.906533">
        <ele>2491.0</ele>
        <time>2018-06-23T12:53:34Z</time>
      </trkpt>
      <trkpt lat="40.273800" lon="-4.906417">
        <ele>2493.0</ele>
        <time>2018-06-23T12:53:35Z</time>
      </trkpt>
      <trkpt lat="40.273850" lon="-4.906283">
        <ele>2494.0</ele>
        <time>2018-06-23T12:53:36Z</time>
      </trkpt>
      <trkpt lat="40.273867" lon="-4.906133">
        <ele>2495.0</ele>
        <time>2018-06-23T12:53:37Z</time>
      </trkpt>
      <trkpt lat="40.273850" lon="-4.905967">
        <ele>2494.0</ele>
        <time>2018-06-23T12:53:38Z</time>
      </trkpt>
      <trkpt lat="40.273800" lon="-4.905833">
        <ele>2494.0</ele>
        <time>2018-06-23T12:53:39Z</time>
      </trkpt>
      <trkpt lat="40.273717" lon="-4.905717">
        <ele>2493.0</ele>
        <time>2018-06-23T12:53:40Z</time>
      </trkpt>
      <trkpt lat="40.273617" lon="-4.905617">
        <ele>2494.0</ele>
        <time>2018-06-23T12:53:41Z</time>
      </trkpt>
      <trkpt lat="40.273517" lon="-4.905550">
        <ele>2496.0</ele>
        <time>2018-06-23T12:53:42Z</time>
      </trkpt>
      <trkpt lat="40.273417" lon="-4.905533">
        <ele>2498.0</ele>
        <time>2018-06-23T12:53:43Z</time>
      </trkpt>
      <trkpt lat="40.273333" lon="-4.905533">
        <ele>2499.0</ele>
        <time>2018-06-23T12:53:44Z</time>
      </trkpt>
      <trkpt lat="40.273250" lon="-4.905567">
        <ele>2500.0</ele>
        <time>2018-06-23T12:53:45Z</time>
      </trkpt>
      <trkpt lat="40.273183" lon="-4.905617">
        <ele>2501.0</ele>
        <time>2018-06-23T12:53:46Z</time>
      </trkpt>
      <trkpt lat="40.273133" lon="-4.905683">
        <ele>2501.0</ele>
        <time>2018-06-23T12:53:47Z</time>
      </trkpt>
      <trkpt lat="40.273067" lon="-4.905750">
        <ele>2502.0</ele>
        <time>2018-06-23T12:53:48Z</time>
      </trkpt>
      <trkpt lat="40.273033" lon="-4.905833">
        <ele>2502.0</ele>
        <time>2018-06-23T12:53:49Z</time>
      </trkpt>
      <trkpt lat="40.273017" lon="-4.905917">
        <ele>2502.0</ele>
        <time>2018-06-23T12:53:50Z</time>
      </trkpt>
      <trkpt lat="40.273017" lon="-4.906017">
        <ele>2502.0</ele>
        <time>2018-06-23T12:53:51Z</time>
      </trkpt>
      <trkpt lat="40.273033" lon="-4.906100">
        <ele>2502.0</ele>
        <time>2018-06-23T12:53:52Z</time>
      </trkpt>
      <trkpt lat="40.273067" lon="-4.906167">
        <ele>2502.0</ele>
        <time>2018-06-23T12:53:53Z</time>
      </trkpt>
      <trkpt lat="40.273133" lon="-4.906233">
        <ele>2502.0</ele>
        <time>2018-06-23T12:53:54Z</time>
      </trkpt>
      <trkpt lat="40.273200" lon="-4.906300">
        <ele>2501.0</ele>
        <time>2018-06-23T12:53:55Z</time>
      </trkpt>
      <trkpt lat="40.273300" lon="-4.906333">
        <ele>2500.0</ele>
        <time>2018-06-23T12:53:56Z</time>
      </trkpt>
      <trkpt lat="40.273417" lon="-4.906350">
        <ele>2500.0</ele>
        <time>2018-06-23T12:53:57Z</time>
      </trkpt>
      <trkpt lat="40.273517" lon="-4.906350">
        <ele>2501.0</ele>
        <time>2018-06-23T12:53:58Z</time>
      </trkpt>
      <trkpt lat="40.273633" lon="-4.906317">
        <ele>2502.0</ele>
        <time>2018-06-23T12:53:59Z</time>
      </trkpt>
      <trkpt lat="40.273733" lon="-4.906283">
        <ele>2503.0</ele>
        <time>2018-06-23T12:54:00Z</time>
      </trkpt>
      <trkpt lat="40.273833" lon="-4.906233">
        <ele>2504.0</ele>
        <time>2018-06-23T12:54:01Z</time>
      </trkpt>
      <trkpt lat="40.273917" lon="-4.906167">
        <ele>2505.0</ele>
        <time>2018-06-23T12:54:02Z</time>
      </trkpt>
      <trkpt lat="40.273983" lon="-4.906117">
        <ele>2505.0</ele>
        <time>2018-06-23T12:54:03Z</time>
      </trkpt>
      <trkpt lat="40.274083" lon="-4.906050">
        <ele>2504.0</ele>
        <time>2018-06-23T12:54:04Z</time>
      </trkpt>
      <trkpt lat="40.274183" lon="-4.905983">
        <ele>2504.0</ele>
        <time>2018-06-23T12:54:05Z</time>
      </trkpt>
      <trkpt lat="40.274283" lon="-4.905900">
        <ele>2503.0</ele>
        <time>2018-06-23T12:54:06Z</time>
      </trkpt>
      <trkpt lat="40.274367" lon="-4.905833">
        <ele>2502.0</ele>
        <time>2018-06-23T12:54:07Z</time>
      </trkpt>
      <trkpt lat="40.274467" lon="-4.905750">
        <ele>2502.0</ele>
        <time>2018-06-23T12:54:08Z</time>
      </trkpt>
      <trkpt lat="40.274533" lon="-4.905667">
        <ele>2501.0</ele>
        <time>2018-06-23T12:54:09Z</time>
      </trkpt>
      <trkpt lat="40.274617" lon="-4.905583">
        <ele>2499.0</ele>
        <time>2018-06-23T12:54:10Z</time>
      </trkpt>
      <trkpt lat="40.274700" lon="-4.905500">
        <ele>2496.0</ele>
        <time>2018-06-23T12:54:11Z</time>
      </trkpt>
      <trkpt lat="40.274800" lon="-4.905417">
        <ele>2494.0</ele>
        <time>2018-06-23T12:54:12Z</time>
      </trkpt>
      <trkpt lat="40.274900" lon="-4.905350">
        <ele>2491.0</ele>
        <time>2018-06-23T12:54:13Z</time>
      </trkpt>
      <trkpt lat="40.275017" lon="-4.905300">
        <ele>2489.0</ele>
        <time>2018-06-23T12:54:14Z</time>
      </trkpt>
      <trkpt lat="40.275133" lon="-4.905267">
        <ele>2488.0</ele>
        <time>2018-06-23T12:54:15Z</time>
      </trkpt>
      <trkpt lat="40.275267" lon="-4.905250">
        <ele>2487.0</ele>
        <time>2018-06-23T12:54:16Z</time>
      </trkpt>
      <trkpt lat="40.275383" lon="-4.905200">
        <ele>2488.0</ele>
        <time>2018-06-23T12:54:17Z</time>
      </trkpt>
      <trkpt lat="40.275483" lon="-4.905150">
        <ele>2489.0</ele>
        <time>2018-06-23T12:54:18Z</time>
      </trkpt>
      <trkpt lat="40.275583" lon="-4.905100">
        <ele>2489.0</ele>
        <time>2018-06-23T12:54:19Z</time>
      </trkpt>
      <trkpt lat="40.275683" lon="-4.905033">
        <ele>2490.0</ele>
        <time>2018-06-23T12:54:20Z</time>
      </trkpt>
      <trkpt lat="40.275783" lon="-4.904983">
        <ele>2491.0</ele>
        <time>2018-06-23T12:54:21Z</time>
      </trkpt>
      <trkpt lat="40.275883" lon="-4.904933">
        <ele>2491.0</ele>
        <time>2018-06-23T12:54:22Z</time>
      </trkpt>
      <trkpt lat="40.275967" lon="-4.904883">
        <ele>2490.0</ele>
        <time>2018-06-23T12:54:23Z</time>
      </trkpt>
      <trkpt lat="40.276067" lon="-4.904833">
        <ele>2490.0</ele>
        <time>2018-06-23T12:54:24Z</time>
      </trkpt>
      <trkpt lat="40.276150" lon="-4.904800">
        <ele>2488.0</ele>
        <time>2018-06-23T12:54:25Z</time>
      </trkpt>
      <trkpt lat="40.276233" lon="-4.904767">
        <ele>2486.0</ele>
        <time>2018-06-23T12:54:26Z</time>
      </trkpt>
      <trkpt lat="40.276333" lon="-4.904733">
        <ele>2484.0</ele>
        <time>2018-06-23T12:54:27Z</time>
      </trkpt>
      <trkpt lat="40.276433" lon="-4.904717">
        <ele>2483.0</ele>
        <time>2018-06-23T12:54:28Z</time>
      </trkpt>
      <trkpt lat="40.276533" lon="-4.904717">
        <ele>2483.0</ele>
        <time>2018-06-23T12:54:29Z</time>
      </trkpt>
      <trkpt lat="40.276600" lon="-4.904717">
        <ele>2483.0</ele>
        <time>2018-06-23T12:54:30Z</time>
      </trkpt>
      <trkpt lat="40.276683" lon="-4.904733">
        <ele>2482.0</ele>
        <time>2018-06-23T12:54:31Z</time>
      </trkpt>
      <trkpt lat="40.276750" lon="-4.904733">
        <ele>2481.0</ele>
        <time>2018-06-23T12:54:32Z</time>
      </trkpt>
      <trkpt lat="40.276850" lon="-4.904717">
        <ele>2480.0</ele>
        <time>2018-06-23T12:54:33Z</time>
      </trkpt>
      <trkpt lat="40.276933" lon="-4.904717">
        <ele>2479.0</ele>
        <time>2018-06-23T12:54:34Z</time>
      </trkpt>
      <trkpt lat="40.277017" lon="-4.904717">
        <ele>2479.0</ele>
        <time>2018-06-23T12:54:35Z</time>
      </trkpt>
      <trkpt lat="40.277117" lon="-4.904733">
        <ele>2479.0</ele>
        <time>2018-06-23T12:54:36Z</time>
      </trkpt>
      <trkpt lat="40.277183" lon="-4.904750">
        <ele>2479.0</ele>
        <time>2018-06-23T12:54:37Z</time>
      </trkpt>
      <trkpt lat="40.277267" lon="-4.904783">
        <ele>2479.0</ele>
        <time>2018-06-23T12:54:38Z</time>
      </trkpt>
      <trkpt lat="40.277350" lon="-4.904800">
        <ele>2478.0</ele>
        <time>2018-06-23T12:54:39Z</time>
      </trkpt>
      <trkpt lat="40.277433" lon="-4.904833">
        <ele>2478.0</ele>
        <time>2018-06-23T12:54:40Z</time>
      </trkpt>
      <trkpt lat="40.277533" lon="-4.904850">
        <ele>2477.0</ele>
        <time>2018-06-23T12:54:41Z</time>
      </trkpt>
      <trkpt lat="40.277617" lon="-4.904850">
        <ele>2476.0</ele>
        <time>2018-06-23T12:54:42Z</time>
      </trkpt>
      <trkpt lat="40.277717" lon="-4.904833">
        <ele>2476.0</ele>
        <time>2018-06-23T12:54:43Z</time>
      </trkpt>
      <trkpt lat="40.277800" lon="-4.904833">
        <ele>2475.0</ele>
        <time>2018-06-23T12:54:44Z</time>
      </trkpt>
      <trkpt lat="40.277883" lon="-4.904850">
        <ele>2475.0</ele>
        <time>2018-06-23T12:54:45Z</time>
      </trkpt>
      <trkpt lat="40.277967" lon="-4.904883">
        <ele>2473.0</ele>
        <time>2018-06-23T12:54:46Z</time>
      </trkpt>
      <trkpt lat="40.278050" lon="-4.904933">
        <ele>2472.0</ele>
        <time>2018-06-23T12:54:47Z</time>
      </trkpt>
      <trkpt lat="40.278150" lon="-4.904967">
        <ele>2471.0</ele>
        <time>2018-06-23T12:54:48Z</time>
      </trkpt>
      <trkpt lat="40.278250" lon="-4.904967">
        <ele>2470.0</ele>
        <time>2018-06-23T12:54:49Z</time>
      </trkpt>
      <trkpt lat="40.278350" lon="-4.904950">
        <ele>2469.0</ele>
        <time>2018-06-23T12:54:50Z</time>
      </trkpt>
      <trkpt lat="40.278433" lon="-4.904933">
        <ele>2468.0</ele>
        <time>2018-06-23T12:54:51Z</time>
      </trkpt>
      <trkpt lat="40.278517" lon="-4.904900">
        <ele>2465.0</ele>
        <time>2018-06-23T12:54:52Z</time>
      </trkpt>
      <trkpt lat="40.278583" lon="-4.904900">
        <ele>2462.0</ele>
        <time>2018-06-23T12:54:53Z</time>
      </trkpt>
      <trkpt lat="40.278667" lon="-4.904900">
        <ele>2458.0</ele>
        <time>2018-06-23T12:54:54Z</time>
      </trkpt>
      <trkpt lat="40.278767" lon="-4.904900">
        <ele>2454.0</ele>
        <time>2018-06-23T12:54:55Z</time>
      </trkpt>
      <trkpt lat="40.278883" lon="-4.904883">
        <ele>2450.0</ele>
        <time>2018-06-23T12:54:56Z</time>
      </trkpt>
      <trkpt lat="40.278983" lon="-4.904867">
        <ele>2447.0</ele>
        <time>2018-06-23T12:54:57Z</time>
      </trkpt>
      <trkpt lat="40.279100" lon="-4.904817">
        <ele>2444.0</ele>
        <time>2018-06-23T12:54:58Z</time>
      </trkpt>
      <trkpt lat="40.279200" lon="-4.904767">
        <ele>2442.0</ele>
        <time>2018-06-23T12:54:59Z</time>
      </trkpt>
      <trkpt lat="40.279317" lon="-4.904700">
        <ele>2440.0</ele>
        <time>2018-06-23T12:55:00Z</time>
      </trkpt>
      <trkpt lat="40.279417" lon="-4.904650">
        <ele>2438.0</ele>
        <time>2018-06-23T12:55:01Z</time>
      </trkpt>
      <trkpt lat="40.279517" lon="-4.904583">
        <ele>2437.0</ele>
        <time>2018-06-23T12:55:02Z</time>
      </trkpt>
      <trkpt lat="40.279617" lon="-4.904533">
        <ele>2435.0</ele>
        <time>2018-06-23T12:55:03Z</time>
      </trkpt>
      <trkpt lat="40.279700" lon="-4.904500">
        <ele>2432.0</ele>
        <time>2018-06-23T12:55:04Z</time>
      </trkpt>
      <trkpt lat="40.279800" lon="-4.904450">
        <ele>2429.0</ele>
        <time>2018-06-23T12:55:05Z</time>
      </trkpt>
      <trkpt lat="40.279900" lon="-4.904417">
        <ele>2426.0</ele>
        <time>2018-06-23T12:55:06Z</time>
      </trkpt>
      <trkpt lat="40.280000" lon="-4.904367">
        <ele>2424.0</ele>
        <time>2018-06-23T12:55:07Z</time>
      </trkpt>
      <trkpt lat="40.280117" lon="-4.904333">
        <ele>2421.0</ele>
        <time>2018-06-23T12:55:08Z</time>
      </trkpt>
      <trkpt lat="40.280217" lon="-4.904300">
        <ele>2419.0</ele>
        <time>2018-06-23T12:55:09Z</time>
      </trkpt>
      <trkpt lat="40.280317" lon="-4.904267">
        <ele>2416.0</ele>
        <time>2018-06-23T12:55:10Z</time>
      </trkpt>
      <trkpt lat="40.280417" lon="-4.904233">
        <ele>2414.0</ele>
        <time>2018-06-23T12:55:11Z</time>
      </trkpt>
      <trkpt lat="40.280517" lon="-4.904200">
        <ele>2412.0</ele>
        <time>2018-06-23T12:55:12Z</time>
      </trkpt>
      <trkpt lat="40.280617" lon="-4.904183">
        <ele>2410.0</ele>
        <time>2018-06-23T12:55:13Z</time>
      </trkpt>
      <trkpt lat="40.280717" lon="-4.904150">
        <ele>2407.0</ele>
        <time>2018-06-23T12:55:14Z</time>
      </trkpt>
      <trkpt lat="40.280817" lon="-4.904133">
        <ele>2405.0</ele>
        <time>2018-06-23T12:55:15Z</time>
      </trkpt>
      <trkpt lat="40.280917" lon="-4.904117">
        <ele>2402.0</ele>
        <time>2018-06-23T12:55:16Z</time>
      </trkpt>
      <trkpt lat="40.281033" lon="-4.904100">
        <ele>2399.0</ele>
        <time>2018-06-23T12:55:17Z</time>
      </trkpt>
      <trkpt lat="40.281133" lon="-4.904083">
        <ele>2395.0</ele>
        <time>2018-06-23T12:55:18Z</time>
      </trkpt>
      <trkpt lat="40.281250" lon="-4.904067">
        <ele>2392.0</ele>
        <time>2018-06-23T12:55:19Z</time>
      </trkpt>
      <trkpt lat="40.281350" lon="-4.904067">
        <ele>2389.0</ele>
        <time>2018-06-23T12:55:20Z</time>
      </trkpt>
      <trkpt lat="40.281467" lon="-4.904050">
        <ele>2387.0</ele>
        <time>2018-06-23T12:55:21Z</time>
      </trkpt>
      <trkpt lat="40.281583" lon="-4.904033">
        <ele>2385.0</ele>
        <time>2018-06-23T12:55:22Z</time>
      </trkpt>
      <trkpt lat="40.281683" lon="-4.904017">
        <ele>2382.0</ele>
        <time>2018-06-23T12:55:23Z</time>
      </trkpt>
      <trkpt lat="40.281783" lon="-4.903967">
        <ele>2380.0</ele>
        <time>2018-06-23T12:55:24Z</time>
      </trkpt>
      <trkpt lat="40.281883" lon="-4.903933">
        <ele>2377.0</ele>
        <time>2018-06-23T12:55:25Z</time>
      </trkpt>
      <trkpt lat="40.282000" lon="-4.903883">
        <ele>2374.0</ele>
        <time>2018-06-23T12:55:26Z</time>
      </trkpt>
      <trkpt lat="40.282100" lon="-4.903833">
        <ele>2370.0</ele>
        <time>2018-06-23T12:55:27Z</time>
      </trkpt>
      <trkpt lat="40.282217" lon="-4.903767">
        <ele>2368.0</ele>
        <time>2018-06-23T12:55:28Z</time>
      </trkpt>
      <trkpt lat="40.282333" lon="-4.903717">
        <ele>2366.0</ele>
        <time>2018-06-23T12:55:29Z</time>
      </trkpt>
      <trkpt lat="40.282433" lon="-4.903667">
        <ele>2366.0</ele>
        <time>2018-06-23T12:55:30Z</time>
      </trkpt>
      <trkpt lat="40.282550" lon="-4.903617">
        <ele>2367.0</ele>
        <time>2018-06-23T12:55:31Z</time>
      </trkpt>
      <trkpt lat="40.282650" lon="-4.903567">
        <ele>2368.0</ele>
        <time>2018-06-23T12:55:32Z</time>
      </trkpt>
      <trkpt lat="40.282733" lon="-4.903533">
        <ele>2369.0</ele>
        <time>2018-06-23T12:55:33Z</time>
      </trkpt>
      <trkpt lat="40.282817" lon="-4.903500">
        <ele>2369.0</ele>
        <time>2018-06-23T12:55:34Z</time>
      </trkpt>
      <trkpt lat="40.282900" lon="-4.903483">
        <ele>2368.0</ele>
        <time>2018-06-23T12:55:35Z</time>
      </trkpt>
      <trkpt lat="40.283000" lon="-4.903467">
        <ele>2366.0</ele>
        <time>2018-06-23T12:55:36Z</time>
      </trkpt>
      <trkpt lat="40.283100" lon="-4.903450">
        <ele>2364.0</ele>
        <time>2018-06-23T12:55:37Z</time>
      </trkpt>
      <trkpt lat="40.283200" lon="-4.903433">
        <ele>2362.0</ele>
        <time>2018-06-23T12:55:38Z</time>
      </trkpt>
      <trkpt lat="40.283300" lon="-4.903417">
        <ele>2360.0</ele>
        <time>2018-06-23T12:55:39Z</time>
      </trkpt>
      <trkpt lat="40.283400" lon="-4.903417">
        <ele>2359.0</ele>
        <time>2018-06-23T12:55:40Z</time>
      </trkpt>
      <trkpt lat="40.283500" lon="-4.903400">
        <ele>2358.0</ele>
        <time>2018-06-23T12:55:41Z</time>
      </trkpt>
      <trkpt lat="40.283600" lon="-4.903400">
        <ele>2357.0</ele>
        <time>2018-06-23T12:55:42Z</time>
      </trkpt>
      <trkpt lat="40.283700" lon="-4.903367">
        <ele>2355.0</ele>
        <time>2018-06-23T12:55:43Z</time>
      </trkpt>
      <trkpt lat="40.283800" lon="-4.903333">
        <ele>2353.0</ele>
        <time>2018-06-23T12:55:44Z</time>
      </trkpt>
      <trkpt lat="40.283883" lon="-4.903283">
        <ele>2352.0</ele>
        <time>2018-06-23T12:55:45Z</time>
      </trkpt>
      <trkpt lat="40.283967" lon="-4.903217">
        <ele>2351.0</ele>
        <time>2018-06-23T12:55:46Z</time>
      </trkpt>
      <trkpt lat="40.284033" lon="-4.903150">
        <ele>2350.0</ele>
        <time>2018-06-23T12:55:47Z</time>
      </trkpt>
      <trkpt lat="40.284100" lon="-4.903067">
        <ele>2350.0</ele>
        <time>2018-06-23T12:55:48Z</time>
      </trkpt>
      <trkpt lat="40.284167" lon="-4.902983">
        <ele>2350.0</ele>
        <time>2018-06-23T12:55:49Z</time>
      </trkpt>
      <trkpt lat="40.284250" lon="-4.902900">
        <ele>2351.0</ele>
        <time>2018-06-23T12:55:50Z</time>
      </trkpt>
      <trkpt lat="40.284317" lon="-4.902817">
        <ele>2351.0</ele>
        <time>2018-06-23T12:55:51Z</time>
      </trkpt>
      <trkpt lat="40.284383" lon="-4.902733">
        <ele>2352.0</ele>
        <time>2018-06-23T12:55:52Z</time>
      </trkpt>
      <trkpt lat="40.284467" lon="-4.902633">
        <ele>2353.0</ele>
        <time>2018-06-23T12:55:53Z</time>
      </trkpt>
      <trkpt lat="40.284533" lon="-4.902550">
        <ele>2353.0</ele>
        <time>2018-06-23T12:55:54Z</time>
      </trkpt>
      <trkpt lat="40.284617" lon="-4.902467">
        <ele>2354.0</ele>
        <time>2018-06-23T12:55:55Z</time>
      </trkpt>
      <trkpt lat="40.284717" lon="-4.902367">
        <ele>2355.0</ele>
        <time>2018-06-23T12:55:56Z</time>
      </trkpt>
      <trkpt lat="40.284800" lon="-4.902267">
        <ele>2354.0</ele>
        <time>2018-06-23T12:55:57Z</time>
      </trkpt>
      <trkpt lat="40.284900" lon="-4.902183">
        <ele>2355.0</ele>
        <time>2018-06-23T12:55:58Z</time>
      </trkpt>
      <trkpt lat="40.284983" lon="-4.902083">
        <ele>2355.0</ele>
        <time>2018-06-23T12:55:59Z</time>
      </trkpt>
      <trkpt lat="40.285067" lon="-4.902000">
        <ele>2355.0</ele>
        <time>2018-06-23T12:56:00Z</time>
      </trkpt>
      <trkpt lat="40.285133" lon="-4.901900">
        <ele>2355.0</ele>
        <time>2018-06-23T12:56:01Z</time>
      </trkpt>
      <trkpt lat="40.285183" lon="-4.901783">
        <ele>2355.0</ele>
        <time>2018-06-23T12:56:02Z</time>
      </trkpt>
      <trkpt lat="40.285250" lon="-4.901667">
        <ele>2355.0</ele>
        <time>2018-06-23T12:56:03Z</time>
      </trkpt>
      <trkpt lat="40.285317" lon="-4.901533">
        <ele>2356.0</ele>
        <time>2018-06-23T12:56:04Z</time>
      </trkpt>
      <trkpt lat="40.285383" lon="-4.901433">
        <ele>2358.0</ele>
        <time>2018-06-23T12:56:05Z</time>
      </trkpt>
      <trkpt lat="40.285450" lon="-4.901333">
        <ele>2360.0</ele>
        <time>2018-06-23T12:56:06Z</time>
      </trkpt>
      <trkpt lat="40.285500" lon="-4.901233">
        <ele>2360.0</ele>
        <time>2018-06-23T12:56:07Z</time>
      </trkpt>
      <trkpt lat="40.285550" lon="-4.901133">
        <ele>2359.0</ele>
        <time>2018-06-23T12:56:08Z</time>
      </trkpt>
      <trkpt lat="40.285583" lon="-4.901033">
        <ele>2357.0</ele>
        <time>2018-06-23T12:56:09Z</time>
      </trkpt>
      <trkpt lat="40.285633" lon="-4.900917">
        <ele>2355.0</ele>
        <time>2018-06-23T12:56:10Z</time>
      </trkpt>
      <trkpt lat="40.285683" lon="-4.900800">
        <ele>2352.0</ele>
        <time>2018-06-23T12:56:11Z</time>
      </trkpt>
      <trkpt lat="40.285733" lon="-4.900667">
        <ele>2349.0</ele>
        <time>2018-06-23T12:56:12Z</time>
      </trkpt>
      <trkpt lat="40.285800" lon="-4.900550">
        <ele>2346.0</ele>
        <time>2018-06-23T12:56:13Z</time>
      </trkpt>
      <trkpt lat="40.285850" lon="-4.900417">
        <ele>2343.0</ele>
        <time>2018-06-23T12:56:14Z</time>
      </trkpt>
      <trkpt lat="40.285933" lon="-4.900283">
        <ele>2340.0</ele>
        <time>2018-06-23T12:56:15Z</time>
      </trkpt>
      <trkpt lat="40.286017" lon="-4.900150">
        <ele>2339.0</ele>
        <time>2018-06-23T12:56:16Z</time>
      </trkpt>
      <trkpt lat="40.286083" lon="-4.900033">
        <ele>2338.0</ele>
        <time>2018-06-23T12:56:17Z</time>
      </trkpt>
      <trkpt lat="40.286150" lon="-4.899933">
        <ele>2338.0</ele>
        <time>2018-06-23T12:56:18Z</time>
      </trkpt>
      <trkpt lat="40.286217" lon="-4.899833">
        <ele>2338.0</ele>
        <time>2018-06-23T12:56:19Z</time>
      </trkpt>
      <trkpt lat="40.286300" lon="-4.899733">
        <ele>2337.0</ele>
        <time>2018-06-23T12:56:20Z</time>
      </trkpt>
      <trkpt lat="40.286383" lon="-4.899617">
        <ele>2336.0</ele>
        <time>2018-06-23T12:56:21Z</time>
      </trkpt>
      <trkpt lat="40.286467" lon="-4.899500">
        <ele>2336.0</ele>
        <time>2018-06-23T12:56:22Z</time>
      </trkpt>
      <trkpt lat="40.286550" lon="-4.899383">
        <ele>2335.0</ele>
        <time>2018-06-23T12:56:23Z</time>
      </trkpt>
      <trkpt lat="40.286600" lon="-4.899250">
        <ele>2335.0</ele>
        <time>2018-06-23T12:56:24Z</time>
      </trkpt>
      <trkpt lat="40.286667" lon="-4.899117">
        <ele>2334.0</ele>
        <time>2018-06-23T12:56:25Z</time>
      </trkpt>
      <trkpt lat="40.286717" lon="-4.898983">
        <ele>2336.0</ele>
        <time>2018-06-23T12:56:26Z</time>
      </trkpt>
      <trkpt lat="40.286767" lon="-4.898867">
        <ele>2339.0</ele>
        <time>2018-06-23T12:56:27Z</time>
      </trkpt>
      <trkpt lat="40.286783" lon="-4.898783">
        <ele>2341.0</ele>
        <time>2018-06-23T12:56:28Z</time>
      </trkpt>
      <trkpt lat="40.286817" lon="-4.898717">
        <ele>2339.0</ele>
        <time>2018-06-23T12:56:29Z</time>
      </trkpt>
      <trkpt lat="40.286850" lon="-4.898633">
        <ele>2336.0</ele>
        <time>2018-06-23T12:56:30Z</time>
      </trkpt>
      <trkpt lat="40.286900" lon="-4.898550">
        <ele>2331.0</ele>
        <time>2018-06-23T12:56:31Z</time>
      </trkpt>
      <trkpt lat="40.286967" lon="-4.898417">
        <ele>2325.0</ele>
        <time>2018-06-23T12:56:32Z</time>
      </trkpt>
      <trkpt lat="40.287017" lon="-4.898267">
        <ele>2323.0</ele>
        <time>2018-06-23T12:56:33Z</time>
      </trkpt>
      <trkpt lat="40.287083" lon="-4.898100">
        <ele>2322.0</ele>
        <time>2018-06-23T12:56:34Z</time>
      </trkpt>
      <trkpt lat="40.287117" lon="-4.897967">
        <ele>2322.0</ele>
        <time>2018-06-23T12:56:35Z</time>
      </trkpt>
      <trkpt lat="40.287167" lon="-4.897833">
        <ele>2321.0</ele>
        <time>2018-06-23T12:56:36Z</time>
      </trkpt>
      <trkpt lat="40.287200" lon="-4.897700">
        <ele>2319.0</ele>
        <time>2018-06-23T12:56:37Z</time>
      </trkpt>
      <trkpt lat="40.287233" lon="-4.897583">
        <ele>2316.0</ele>
        <time>2018-06-23T12:56:38Z</time>
      </trkpt>
      <trkpt lat="40.287267" lon="-4.897433">
        <ele>2313.0</ele>
        <time>2018-06-23T12:56:39Z</time>
      </trkpt>
      <trkpt lat="40.287317" lon="-4.897300">
        <ele>2309.0</ele>
        <time>2018-06-23T12:56:40Z</time>
      </trkpt>
      <trkpt lat="40.287367" lon="-4.897150">
        <ele>2306.0</ele>
        <time>2018-06-23T12:56:41Z</time>
      </trkpt>
      <trkpt lat="40.287417" lon="-4.896983">
        <ele>2303.0</ele>
        <time>2018-06-23T12:56:42Z</time>
      </trkpt>
      <trkpt lat="40.287467" lon="-4.896833">
        <ele>2302.0</ele>
        <time>2018-06-23T12:56:43Z</time>
      </trkpt>
      <trkpt lat="40.287500" lon="-4.896683">
        <ele>2301.0</ele>
        <time>2018-06-23T12:56:44Z</time>
      </trkpt>
      <trkpt lat="40.287533" lon="-4.896533">
        <ele>2301.0</ele>
        <time>2018-06-23T12:56:45Z</time>
      </trkpt>
      <trkpt lat="40.287550" lon="-4.896383">
        <ele>2299.0</ele>
        <time>2018-06-23T12:56:46Z</time>
      </trkpt>
      <trkpt lat="40.287567" lon="-4.896233">
        <ele>2298.0</ele>
        <time>2018-06-23T12:56:47Z</time>
      </trkpt>
      <trkpt lat="40.287583" lon="-4.896083">
        <ele>2296.0</ele>
        <time>2018-06-23T12:56:48Z</time>
      </trkpt>
      <trkpt lat="40.287617" lon="-4.895917">
        <ele>2294.0</ele>
        <time>2018-06-23T12:56:49Z</time>
      </trkpt>
      <trkpt lat="40.287650" lon="-4.895767">
        <ele>2293.0</ele>
        <time>2018-06-23T12:56:50Z</time>
      </trkpt>
      <trkpt lat="40.287683" lon="-4.895633">
        <ele>2293.0</ele>
        <time>2018-06-23T12:56:51Z</time>
      </trkpt>
      <trkpt lat="40.287717" lon="-4.895500">
        <ele>2292.0</ele>
        <time>2018-06-23T12:56:52Z</time>
      </trkpt>
      <trkpt lat="40.287750" lon="-4.895367">
        <ele>2291.0</ele>
        <time>2018-06-23T12:56:53Z</time>
      </trkpt>
      <trkpt lat="40.287783" lon="-4.895217">
        <ele>2289.0</ele>
        <time>2018-06-23T12:56:54Z</time>
      </trkpt>
      <trkpt lat="40.287817" lon="-4.895083">
        <ele>2287.0</ele>
        <time>2018-06-23T12:56:55Z</time>
      </trkpt>
      <trkpt lat="40.287850" lon="-4.894933">
        <ele>2285.0</ele>
        <time>2018-06-23T12:56:56Z</time>
      </trkpt>
      <trkpt lat="40.287900" lon="-4.894783">
        <ele>2283.0</ele>
        <time>2018-06-23T12:56:57Z</time>
      </trkpt>
      <trkpt lat="40.287950" lon="-4.894633">
        <ele>2282.0</ele>
        <time>2018-06-23T12:56:58Z</time>
      </trkpt>
      <trkpt lat="40.287983" lon="-4.894483">
        <ele>2282.0</ele>
        <time>2018-06-23T12:56:59Z</time>
      </trkpt>
      <trkpt lat="40.288017" lon="-4.894333">
        <ele>2282.0</ele>
        <time>2018-06-23T12:57:00Z</time>
      </trkpt>
      <trkpt lat="40.288050" lon="-4.894200">
        <ele>2281.0</ele>
        <time>2018-06-23T12:57:01Z</time>
      </trkpt>
      <trkpt lat="40.288083" lon="-4.894067">
        <ele>2281.0</ele>
        <time>2018-06-23T12:57:02Z</time>
      </trkpt>
      <trkpt lat="40.288100" lon="-4.893933">
        <ele>2280.0</ele>
        <time>2018-06-23T12:57:03Z</time>
      </trkpt>
      <trkpt lat="40.288117" lon="-4.893783">
        <ele>2279.0</ele>
        <time>2018-06-23T12:57:04Z</time>
      </trkpt>
      <trkpt lat="40.288133" lon="-4.893650">
        <ele>2277.0</ele>
        <time>2018-06-23T12:57:05Z</time>
      </trkpt>
      <trkpt lat="40.288167" lon="-4.893517">
        <ele>2276.0</ele>
        <time>2018-06-23T12:57:06Z</time>
      </trkpt>
      <trkpt lat="40.288200" lon="-4.893367">
        <ele>2274.0</ele>
        <time>2018-06-23T12:57:07Z</time>
      </trkpt>
      <trkpt lat="40.288233" lon="-4.893217">
        <ele>2274.0</ele>
        <time>2018-06-23T12:57:08Z</time>
      </trkpt>
      <trkpt lat="40.288250" lon="-4.893083">
        <ele>2273.0</ele>
        <time>2018-06-23T12:57:09Z</time>
      </trkpt>
      <trkpt lat="40.288283" lon="-4.892950">
        <ele>2272.0</ele>
        <time>2018-06-23T12:57:10Z</time>
      </trkpt>
      <trkpt lat="40.288317" lon="-4.892800">
        <ele>2271.0</ele>
        <time>2018-06-23T12:57:11Z</time>
      </trkpt>
      <trkpt lat="40.288350" lon="-4.892667">
        <ele>2270.0</ele>
        <time>2018-06-23T12:57:12Z</time>
      </trkpt>
      <trkpt lat="40.288400" lon="-4.892533">
        <ele>2270.0</ele>
        <time>2018-06-23T12:57:13Z</time>
      </trkpt>
      <trkpt lat="40.288433" lon="-4.892383">
        <ele>2270.0</ele>
        <time>2018-06-23T12:57:14Z</time>
      </trkpt>
      <trkpt lat="40.288467" lon="-4.892250">
        <ele>2270.0</ele>
        <time>2018-06-23T12:57:15Z</time>
      </trkpt>
      <trkpt lat="40.288500" lon="-4.892117">
        <ele>2271.0</ele>
        <time>2018-06-23T12:57:16Z</time>
      </trkpt>
      <trkpt lat="40.288533" lon="-4.892000">
        <ele>2271.0</ele>
        <time>2018-06-23T12:57:17Z</time>
      </trkpt>
      <trkpt lat="40.288550" lon="-4.891883">
        <ele>2270.0</ele>
        <time>2018-06-23T12:57:18Z</time>
      </trkpt>
      <trkpt lat="40.288567" lon="-4.891750">
        <ele>2269.0</ele>
        <time>2018-06-23T12:57:19Z</time>
      </trkpt>
      <trkpt lat="40.288583" lon="-4.891617">
        <ele>2268.0</ele>
        <time>2018-06-23T12:57:20Z</time>
      </trkpt>
      <trkpt lat="40.288600" lon="-4.891500">
        <ele>2266.0</ele>
        <time>2018-06-23T12:57:21Z</time>
      </trkpt>
      <trkpt lat="40.288617" lon="-4.891350">
        <ele>2265.0</ele>
        <time>2018-06-23T12:57:22Z</time>
      </trkpt>
      <trkpt lat="40.288633" lon="-4.891217">
        <ele>2264.0</ele>
        <time>2018-06-23T12:57:23Z</time>
      </trkpt>
      <trkpt lat="40.288650" lon="-4.891100">
        <ele>2263.0</ele>
        <time>2018-06-23T12:57:24Z</time>
      </trkpt>
      <trkpt lat="40.288667" lon="-4.890967">
        <ele>2262.0</ele>
        <time>2018-06-23T12:57:25Z</time>
      </trkpt>
      <trkpt lat="40.288683" lon="-4.890850">
        <ele>2261.0</ele>
        <time>2018-06-23T12:57:26Z</time>
      </trkpt>
      <trkpt lat="40.288683" lon="-4.890717">
        <ele>2260.0</ele>
        <time>2018-06-23T12:57:27Z</time>
      </trkpt>
      <trkpt lat="40.288683" lon="-4.890583">
        <ele>2258.0</ele>
        <time>2018-06-23T12:57:28Z</time>
      </trkpt>
      <trkpt lat="40.288700" lon="-4.890450">
        <ele>2257.0</ele>
        <time>2018-06-23T12:57:29Z</time>
      </trkpt>
      <trkpt lat="40.288717" lon="-4.890333">
        <ele>2257.0</ele>
        <time>2018-06-23T12:57:30Z</time>
      </trkpt>
      <trkpt lat="40.288750" lon="-4.890217">
        <ele>2257.0</ele>
        <time>2018-06-23T12:57:31Z</time>
      </trkpt>
      <trkpt lat="40.288783" lon="-4.890133">
        <ele>2257.0</ele>
        <time>2018-06-23T12:57:32Z</time>
      </trkpt>
      <trkpt lat="40.288833" lon="-4.890050">
        <ele>2256.0</ele>
        <time>2018-06-23T12:57:33Z</time>
      </trkpt>
      <trkpt lat="40.288867" lon="-4.889967">
        <ele>2255.0</ele>
        <time>2018-06-23T12:57:34Z</time>
      </trkpt>
      <trkpt lat="40.288917" lon="-4.889883">
        <ele>2253.0</ele>
        <time>2018-06-23T12:57:35Z</time>
      </trkpt>
      <trkpt lat="40.288983" lon="-4.889800">
        <ele>2251.0</ele>
        <time>2018-06-23T12:57:36Z</time>
      </trkpt>
      <trkpt lat="40.289050" lon="-4.889733">
        <ele>2249.0</ele>
        <time>2018-06-23T12:57:37Z</time>
      </trkpt>
      <trkpt lat="40.289117" lon="-4.889683">
        <ele>2248.0</ele>
        <time>2018-06-23T12:57:38Z</time>
      </trkpt>
      <trkpt lat="40.289200" lon="-4.889650">
        <ele>2247.0</ele>
        <time>2018-06-23T12:57:39Z</time>
      </trkpt>
      <trkpt lat="40.289283" lon="-4.889633">
        <ele>2246.0</ele>
        <time>2018-06-23T12:57:40Z</time>
      </trkpt>
      <trkpt lat="40.289350" lon="-4.889633">
        <ele>2245.0</ele>
        <time>2018-06-23T12:57:41Z</time>
      </trkpt>
      <trkpt lat="40.289433" lon="-4.889633">
        <ele>2244.0</ele>
        <time>2018-06-23T12:57:42Z</time>
      </trkpt>
      <trkpt lat="40.289517" lon="-4.889650">
        <ele>2243.0</ele>
        <time>2018-06-23T12:57:43Z</time>
      </trkpt>
      <trkpt lat="40.289583" lon="-4.889700">
        <ele>2241.0</ele>
        <time>2018-06-23T12:57:44Z</time>
      </trkpt>
      <trkpt lat="40.289667" lon="-4.889750">
        <ele>2240.0</ele>
        <time>2018-06-23T12:57:45Z</time>
      </trkpt>
      <trkpt lat="40.289733" lon="-4.889817">
        <ele>2239.0</ele>
        <time>2018-06-23T12:57:46Z</time>
      </trkpt>
      <trkpt lat="40.289817" lon="-4.889883">
        <ele>2239.0</ele>
        <time>2018-06-23T12:57:47Z</time>
      </trkpt>
      <trkpt lat="40.289900" lon="-4.889917">
        <ele>2239.0</ele>
        <time>2018-06-23T12:57:48Z</time>
      </trkpt>
      <trkpt lat="40.289983" lon="-4.889950">
        <ele>2238.0</ele>
        <time>2018-06-23T12:57:49Z</time>
      </trkpt>
      <trkpt lat="40.290067" lon="-4.889967">
        <ele>2237.0</ele>
        <time>2018-06-23T12:57:50Z</time>
      </trkpt>
      <trkpt lat="40.290167" lon="-4.890000">
        <ele>2236.0</ele>
        <time>2018-06-23T12:57:51Z</time>
      </trkpt>
      <trkpt lat="40.290250" lon="-4.890017">
        <ele>2235.0</ele>
        <time>2018-06-23T12:57:52Z</time>
      </trkpt>
      <trkpt lat="40.290350" lon="-4.890017">
        <ele>2234.0</ele>
        <time>2018-06-23T12:57:53Z</time>
      </trkpt>
      <trkpt lat="40.290433" lon="-4.890033">
        <ele>2233.0</ele>
        <time>2018-06-23T12:57:54Z</time>
      </trkpt>
      <trkpt lat="40.290517" lon="-4.890050">
        <ele>2232.0</ele>
        <time>2018-06-23T12:57:55Z</time>
      </trkpt>
      <trkpt lat="40.290617" lon="-4.890067">
        <ele>2231.0</ele>
        <time>2018-06-23T12:57:56Z</time>
      </trkpt>
      <trkpt lat="40.290700" lon="-4.890083">
        <ele>2230.0</ele>
        <time>2018-06-23T12:57:57Z</time>
      </trkpt>
      <trkpt lat="40.290783" lon="-4.890100">
        <ele>2230.0</ele>
        <time>2018-06-23T12:57:58Z</time>
      </trkpt>
      <trkpt lat="40.290867" lon="-4.890117">
        <ele>2229.0</ele>
        <time>2018-06-23T12:57:59Z</time>
      </trkpt>
      <trkpt lat="40.290950" lon="-4.890117">
        <ele>2229.0</ele>
        <time>2018-06-23T12:58:00Z</time>
      </trkpt>
      <trkpt lat="40.291033" lon="-4.890117">
        <ele>2228.0</ele>
        <time>2018-06-23T12:58:01Z</time>
      </trkpt>
      <trkpt lat="40.291117" lon="-4.890117">
        <ele>2227.0</ele>
        <time>2018-06-23T12:58:02Z</time>
      </trkpt>
      <trkpt lat="40.291200" lon="-4.890133">
        <ele>2226.0</ele>
        <time>2018-06-23T12:58:03Z</time>
      </trkpt>
      <trkpt lat="40.291283" lon="-4.890133">
        <ele>2225.0</ele>
        <time>2018-06-23T12:58:04Z</time>
      </trkpt>
      <trkpt lat="40.291383" lon="-4.890150">
        <ele>2224.0</ele>
        <time>2018-06-23T12:58:05Z</time>
      </trkpt>
      <trkpt lat="40.291467" lon="-4.890167">
        <ele>2223.0</ele>
        <time>2018-06-23T12:58:06Z</time>
      </trkpt>
      <trkpt lat="40.291567" lon="-4.890183">
        <ele>2222.0</ele>
        <time>2018-06-23T12:58:07Z</time>
      </trkpt>
      <trkpt lat="40.291650" lon="-4.890183">
        <ele>2222.0</ele>
        <time>2018-06-23T12:58:08Z</time>
      </trkpt>
      <trkpt lat="40.291733" lon="-4.890200">
        <ele>2221.0</ele>
        <time>2018-06-23T12:58:09Z</time>
      </trkpt>
      <trkpt lat="40.291817" lon="-4.890233">
        <ele>2221.0</ele>
        <time>2018-06-23T12:58:10Z</time>
      </trkpt>
      <trkpt lat="40.291900" lon="-4.890250">
        <ele>2220.0</ele>
        <time>2018-06-23T12:58:11Z</time>
      </trkpt>
      <trkpt lat="40.292000" lon="-4.890267">
        <ele>2219.0</ele>
        <time>2018-06-23T12:58:12Z</time>
      </trkpt>
      <trkpt lat="40.292083" lon="-4.890283">
        <ele>2219.0</ele>
        <time>2018-06-23T12:58:13Z</time>
      </trkpt>
      <trkpt lat="40.292167" lon="-4.890300">
        <ele>2218.0</ele>
        <time>2018-06-23T12:58:14Z</time>
      </trkpt>
      <trkpt lat="40.292233" lon="-4.890333">
        <ele>2217.0</ele>
        <time>2018-06-23T12:58:15Z</time>
      </trkpt>
      <trkpt lat="40.292300" lon="-4.890383">
        <ele>2216.0</ele>
        <time>2018-06-23T12:58:16Z</time>
      </trkpt>
      <trkpt lat="40.292383" lon="-4.890417">
        <ele>2215.0</ele>
        <time>2018-06-23T12:58:17Z</time>
      </trkpt>
      <trkpt lat="40.292500" lon="-4.890450">
        <ele>2214.0</ele>
        <time>2018-06-23T12:58:18Z</time>
      </trkpt>
      <trkpt lat="40.292600" lon="-4.890500">
        <ele>2213.0</ele>
        <time>2018-06-23T12:58:19Z</time>
      </trkpt>
      <trkpt lat="40.292700" lon="-4.890533">
        <ele>2213.0</ele>
        <time>2018-06-23T12:58:20Z</time>
      </trkpt>
      <trkpt lat="40.292783" lon="-4.890550">
        <ele>2212.0</ele>
        <time>2018-06-23T12:58:21Z</time>
      </trkpt>
      <trkpt lat="40.292883" lon="-4.890567">
        <ele>2211.0</ele>
        <time>2018-06-23T12:58:22Z</time>
      </trkpt>
      <trkpt lat="40.292983" lon="-4.890583">
        <ele>2210.0</ele>
        <time>2018-06-23T12:58:23Z</time>
      </trkpt>
      <trkpt lat="40.293083" lon="-4.890617">
        <ele>2210.0</ele>
        <time>2018-06-23T12:58:24Z</time>
      </trkpt>
      <trkpt lat="40.293183" lon="-4.890633">
        <ele>2209.0</ele>
        <time>2018-06-23T12:58:25Z</time>
      </trkpt>
      <trkpt lat="40.293283" lon="-4.890667">
        <ele>2209.0</ele>
        <time>2018-06-23T12:58:26Z</time>
      </trkpt>
      <trkpt lat="40.293383" lon="-4.890683">
        <ele>2209.0</ele>
        <time>2018-06-23T12:58:27Z</time>
      </trkpt>
      <trkpt lat="40.293483" lon="-4.890717">
        <ele>2209.0</ele>
        <time>2018-06-23T12:58:28Z</time>
      </trkpt>
      <trkpt lat="40.293567" lon="-4.890750">
        <ele>2209.0</ele>
        <time>2018-06-23T12:58:29Z</time>
      </trkpt>
      <trkpt lat="40.293650" lon="-4.890800">
        <ele>2210.0</ele>
        <time>2018-06-23T12:58:30Z</time>
      </trkpt>
      <trkpt lat="40.293733" lon="-4.890850">
        <ele>2209.0</ele>
        <time>2018-06-23T12:58:31Z</time>
      </trkpt>
      <trkpt lat="40.293800" lon="-4.890917">
        <ele>2207.0</ele>
        <time>2018-06-23T12:58:32Z</time>
      </trkpt>
      <trkpt lat="40.293867" lon="-4.890983">
        <ele>2206.0</ele>
        <time>2018-06-23T12:58:33Z</time>
      </trkpt>
      <trkpt lat="40.293950" lon="-4.891050">
        <ele>2205.0</ele>
        <time>2018-06-23T12:58:34Z</time>
      </trkpt>
      <trkpt lat="40.294017" lon="-4.891117">
        <ele>2204.0</ele>
        <time>2018-06-23T12:58:35Z</time>
      </trkpt>
      <trkpt lat="40.294100" lon="-4.891150">
        <ele>2205.0</ele>
        <time>2018-06-23T12:58:36Z</time>
      </trkpt>
      <trkpt lat="40.294183" lon="-4.891200">
        <ele>2203.0</ele>
        <time>2018-06-23T12:58:37Z</time>
      </trkpt>
      <trkpt lat="40.294250" lon="-4.891233">
        <ele>2202.0</ele>
        <time>2018-06-23T12:58:38Z</time>
      </trkpt>
      <trkpt lat="40.294333" lon="-4.891300">
        <ele>2201.0</ele>
        <time>2018-06-23T12:58:39Z</time>
      </trkpt>
      <trkpt lat="40.294433" lon="-4.891350">
        <ele>2200.0</ele>
        <time>2018-06-23T12:58:40Z</time>
      </trkpt>
      <trkpt lat="40.294517" lon="-4.891383">
        <ele>2199.0</ele>
        <time>2018-06-23T12:58:41Z</time>
      </trkpt>
      <trkpt lat="40.294600" lon="-4.891400">
        <ele>2198.0</ele>
        <time>2018-06-23T12:58:42Z</time>
      </trkpt>
      <trkpt lat="40.294700" lon="-4.891417">
        <ele>2197.0</ele>
        <time>2018-06-23T12:58:43Z</time>
      </trkpt>
      <trkpt lat="40.294783" lon="-4.891450">
        <ele>2196.0</ele>
        <time>2018-06-23T12:58:44Z</time>
      </trkpt>
      <trkpt lat="40.294883" lon="-4.891500">
        <ele>2195.0</ele>
        <time>2018-06-23T12:58:45Z</time>
      </trkpt>
      <trkpt lat="40.294967" lon="-4.891583">
        <ele>2193.0</ele>
        <time>2018-06-23T12:58:46Z</time>
      </trkpt>
      <trkpt lat="40.295067" lon="-4.891650">
        <ele>2191.0</ele>
        <time>2018-06-23T12:58:47Z</time>
      </trkpt>
      <trkpt lat="40.295150" lon="-4.891717">
        <ele>2191.0</ele>
        <time>2018-06-23T12:58:48Z</time>
      </trkpt>
      <trkpt lat="40.295250" lon="-4.891767">
        <ele>2191.0</ele>
        <time>2018-06-23T12:58:49Z</time>
      </trkpt>
      <trkpt lat="40.295333" lon="-4.891817">
        <ele>2191.0</ele>
        <time>2018-06-23T12:58:50Z</time>
      </trkpt>
      <trkpt lat="40.295417" lon="-4.891867">
        <ele>2191.0</ele>
        <time>2018-06-23T12:58:51Z</time>
      </trkpt>
      <trkpt lat="40.295500" lon="-4.891917">
        <ele>2190.0</ele>
        <time>2018-06-23T12:58:52Z</time>
      </trkpt>
      <trkpt lat="40.295583" lon="-4.891983">
        <ele>2188.0</ele>
        <time>2018-06-23T12:58:53Z</time>
      </trkpt>
      <trkpt lat="40.295683" lon="-4.892033">
        <ele>2186.0</ele>
        <time>2018-06-23T12:58:54Z</time>
      </trkpt>
      <trkpt lat="40.295783" lon="-4.892083">
        <ele>2185.0</ele>
        <time>2018-06-23T12:58:55Z</time>
      </trkpt>
      <trkpt lat="40.295883" lon="-4.892133">
        <ele>2184.0</ele>
        <time>2018-06-23T12:58:56Z</time>
      </trkpt>
      <trkpt lat="40.295983" lon="-4.892167">
        <ele>2183.0</ele>
        <time>2018-06-23T12:58:57Z</time>
      </trkpt>
      <trkpt lat="40.296083" lon="-4.892200">
        <ele>2182.0</ele>
        <time>2018-06-23T12:58:58Z</time>
      </trkpt>
      <trkpt lat="40.296183" lon="-4.892233">
        <ele>2181.0</ele>
        <time>2018-06-23T12:58:59Z</time>
      </trkpt>
      <trkpt lat="40.296267" lon="-4.892283">
        <ele>2179.0</ele>
        <time>2018-06-23T12:59:00Z</time>
      </trkpt>
      <trkpt lat="40.296367" lon="-4.892317">
        <ele>2177.0</ele>
        <time>2018-06-23T12:59:01Z</time>
      </trkpt>
      <trkpt lat="40.296467" lon="-4.892367">
        <ele>2176.0</ele>
        <time>2018-06-23T12:59:02Z</time>
      </trkpt>
      <trkpt lat="40.296567" lon="-4.892417">
        <ele>2174.0</ele>
        <time>2018-06-23T12:59:03Z</time>
      </trkpt>
      <trkpt lat="40.296667" lon="-4.892467">
        <ele>2173.0</ele>
        <time>2018-06-23T12:59:04Z</time>
      </trkpt>
      <trkpt lat="40.296767" lon="-4.892517">
        <ele>2173.0</ele>
        <time>2018-06-23T12:59:05Z</time>
      </trkpt>
      <trkpt lat="40.296867" lon="-4.892550">
        <ele>2172.0</ele>
        <time>2018-06-23T12:59:06Z</time>
      </trkpt>
      <trkpt lat="40.296967" lon="-4.892600">
        <ele>2171.0</ele>
        <time>2018-06-23T12:59:07Z</time>
      </trkpt>
      <trkpt lat="40.297067" lon="-4.892633">
        <ele>2170.0</ele>
        <time>2018-06-23T12:59:08Z</time>
      </trkpt>
      <trkpt lat="40.297167" lon="-4.892700">
        <ele>2169.0</ele>
        <time>2018-06-23T12:59:09Z</time>
      </trkpt>
      <trkpt lat="40.297267" lon="-4.892767">
        <ele>2168.0</ele>
        <time>2018-06-23T12:59:10Z</time>
      </trkpt>
      <trkpt lat="40.297367" lon="-4.892817">
        <ele>2167.0</ele>
        <time>2018-06-23T12:59:11Z</time>
      </trkpt>
      <trkpt lat="40.297467" lon="-4.892867">
        <ele>2167.0</ele>
        <time>2018-06-23T12:59:12Z</time>
      </trkpt>
      <trkpt lat="40.297567" lon="-4.892900">
        <ele>2167.0</ele>
        <time>2018-06-23T12:59:13Z</time>
      </trkpt>
      <trkpt lat="40.297667" lon="-4.892917">
        <ele>2167.0</ele>
        <time>2018-06-23T12:59:14Z</time>
      </trkpt>
      <trkpt lat="40.297750" lon="-4.892950">
        <ele>2166.0</ele>
        <time>2018-06-23T12:59:15Z</time>
      </trkpt>
      <trkpt lat="40.297850" lon="-4.892983">
        <ele>2165.0</ele>
        <time>2018-06-23T12:59:16Z</time>
      </trkpt>
      <trkpt lat="40.297950" lon="-4.893000">
        <ele>2163.0</ele>
        <time>2018-06-23T12:59:17Z</time>
      </trkpt>
      <trkpt lat="40.298050" lon="-4.893033">
        <ele>2162.0</ele>
        <time>2018-06-23T12:59:18Z</time>
      </trkpt>
      <trkpt lat="40.298150" lon="-4.893067">
        <ele>2162.0</ele>
        <time>2018-06-23T12:59:19Z</time>
      </trkpt>
      <trkpt lat="40.298250" lon="-4.893083">
        <ele>2162.0</ele>
        <time>2018-06-23T12:59:20Z</time>
      </trkpt>
      <trkpt lat="40.298350" lon="-4.893100">
        <ele>2162.0</ele>
        <time>2018-06-23T12:59:21Z</time>
      </trkpt>
      <trkpt lat="40.298450" lon="-4.893117">
        <ele>2161.0</ele>
        <time>2018-06-23T12:59:22Z</time>
      </trkpt>
      <trkpt lat="40.298550" lon="-4.893133">
        <ele>2160.0</ele>
        <time>2018-06-23T12:59:23Z</time>
      </trkpt>
      <trkpt lat="40.298667" lon="-4.893167">
        <ele>2159.0</ele>
        <time>2018-06-23T12:59:24Z</time>
      </trkpt>
      <trkpt lat="40.298767" lon="-4.893183">
        <ele>2159.0</ele>
        <time>2018-06-23T12:59:25Z</time>
      </trkpt>
      <trkpt lat="40.298883" lon="-4.893200">
        <ele>2158.0</ele>
        <time>2018-06-23T12:59:26Z</time>
      </trkpt>
      <trkpt lat="40.298983" lon="-4.893233">
        <ele>2159.0</ele>
        <time>2018-06-23T12:59:27Z</time>
      </trkpt>
      <trkpt lat="40.299100" lon="-4.893233">
        <ele>2159.0</ele>
        <time>2018-06-23T12:59:28Z</time>
      </trkpt>
      <trkpt lat="40.299200" lon="-4.893250">
        <ele>2158.0</ele>
        <time>2018-06-23T12:59:29Z</time>
      </trkpt>
      <trkpt lat="40.299300" lon="-4.893233">
        <ele>2157.0</ele>
        <time>2018-06-23T12:59:30Z</time>
      </trkpt>
      <trkpt lat="40.299417" lon="-4.893217">
        <ele>2156.0</ele>
        <time>2018-06-23T12:59:31Z</time>
      </trkpt>
      <trkpt lat="40.299533" lon="-4.893200">
        <ele>2155.0</ele>
        <time>2018-06-23T12:59:32Z</time>
      </trkpt>
      <trkpt lat="40.299633" lon="-4.893183">
        <ele>2155.0</ele>
        <time>2018-06-23T12:59:33Z</time>
      </trkpt>
      <trkpt lat="40.299750" lon="-4.893150">
        <ele>2155.0</ele>
        <time>2018-06-23T12:59:34Z</time>
      </trkpt>
      <trkpt lat="40.299850" lon="-4.893133">
        <ele>2154.0</ele>
        <time>2018-06-23T12:59:35Z</time>
      </trkpt>
      <trkpt lat="40.299950" lon="-4.893117">
        <ele>2153.0</ele>
        <time>2018-06-23T12:59:36Z</time>
      </trkpt>
      <trkpt lat="40.300050" lon="-4.893083">
        <ele>2151.0</ele>
        <time>2018-06-23T12:59:37Z</time>
      </trkpt>
      <trkpt lat="40.300150" lon="-4.893067">
        <ele>2148.0</ele>
        <time>2018-06-23T12:59:38Z</time>
      </trkpt>
      <trkpt lat="40.300267" lon="-4.893050">
        <ele>2145.0</ele>
        <time>2018-06-23T12:59:39Z</time>
      </trkpt>
      <trkpt lat="40.300383" lon="-4.893033">
        <ele>2143.0</ele>
        <time>2018-06-23T12:59:40Z</time>
      </trkpt>
      <trkpt lat="40.300500" lon="-4.893000">
        <ele>2141.0</ele>
        <time>2018-06-23T12:59:41Z</time>
      </trkpt>
      <trkpt lat="40.300633" lon="-4.892983">
        <ele>2140.0</ele>
        <time>2018-06-23T12:59:42Z</time>
      </trkpt>
      <trkpt lat="40.300750" lon="-4.892967">
        <ele>2139.0</ele>
        <time>2018-06-23T12:59:43Z</time>
      </trkpt>
      <trkpt lat="40.300867" lon="-4.892933">
        <ele>2139.0</ele>
        <time>2018-06-23T12:59:44Z</time>
      </trkpt>
      <trkpt lat="40.300967" lon="-4.892900">
        <ele>2138.0</ele>
        <time>2018-06-23T12:59:45Z</time>
      </trkpt>
      <trkpt lat="40.301067" lon="-4.892867">
        <ele>2138.0</ele>
        <time>2018-06-23T12:59:46Z</time>
      </trkpt>
      <trkpt lat="40.301167" lon="-4.892833">
        <ele>2137.0</ele>
        <time>2018-06-23T12:59:47Z</time>
      </trkpt>
      <trkpt lat="40.301267" lon="-4.892800">
        <ele>2136.0</ele>
        <time>2018-06-23T12:59:48Z</time>
      </trkpt>
      <trkpt lat="40.301367" lon="-4.892783">
        <ele>2135.0</ele>
        <time>2018-06-23T12:59:49Z</time>
      </trkpt>
      <trkpt lat="40.301467" lon="-4.892750">
        <ele>2133.0</ele>
        <time>2018-06-23T12:59:50Z</time>
      </trkpt>
      <trkpt lat="40.301567" lon="-4.892700">
        <ele>2131.0</ele>
        <time>2018-06-23T12:59:51Z</time>
      </trkpt>
      <trkpt lat="40.301667" lon="-4.892667">
        <ele>2129.0</ele>
        <time>2018-06-23T12:59:52Z</time>
      </trkpt>
      <trkpt lat="40.301783" lon="-4.892617">
        <ele>2127.0</ele>
        <time>2018-06-23T12:59:53Z</time>
      </trkpt>
      <trkpt lat="40.301883" lon="-4.892583">
        <ele>2126.0</ele>
        <time>2018-06-23T12:59:54Z</time>
      </trkpt>
      <trkpt lat="40.301983" lon="-4.892550">
        <ele>2126.0</ele>
        <time>2018-06-23T12:59:55Z</time>
      </trkpt>
      <trkpt lat="40.302100" lon="-4.892517">
        <ele>2126.0</ele>
        <time>2018-06-23T12:59:56Z</time>
      </trkpt>
      <trkpt lat="40.302183" lon="-4.892483">
        <ele>2125.0</ele>
        <time>2018-06-23T12:59:57Z</time>
      </trkpt>
      <trkpt lat="40.302283" lon="-4.892450">
        <ele>2125.0</ele>
        <time>2018-06-23T12:59:58Z</time>
      </trkpt>
      <trkpt lat="40.302383" lon="-4.892417">
        <ele>2124.0</ele>
        <time>2018-06-23T12:59:59Z</time>
      </trkpt>
      <trkpt lat="40.302467" lon="-4.892383">
        <ele>2122.0</ele>
        <time>2018-06-23T13:00:00Z</time>
      </trkpt>
      <trkpt lat="40.302583" lon="-4.892350">
        <ele>2120.0</ele>
        <time>2018-06-23T13:00:01Z</time>
      </trkpt>
      <trkpt lat="40.302683" lon="-4.892317">
        <ele>2118.0</ele>
        <time>2018-06-23T13:00:02Z</time>
      </trkpt>
      <trkpt lat="40.302817" lon="-4.892283">
        <ele>2117.0</ele>
        <time>2018-06-23T13:00:03Z</time>
      </trkpt>
      <trkpt lat="40.302917" lon="-4.892250">
        <ele>2117.0</ele>
        <time>2018-06-23T13:00:04Z</time>
      </trkpt>
      <trkpt lat="40.303017" lon="-4.892217">
        <ele>2117.0</ele>
        <time>2018-06-23T13:00:05Z</time>
      </trkpt>
      <trkpt lat="40.303100" lon="-4.892167">
        <ele>2117.0</ele>
        <time>2018-06-23T13:00:06Z</time>
      </trkpt>
      <trkpt lat="40.303183" lon="-4.892133">
        <ele>2117.0</ele>
        <time>2018-06-23T13:00:07Z</time>
      </trkpt>
      <trkpt lat="40.303250" lon="-4.892100">
        <ele>2117.0</ele>
        <time>2018-06-23T13:00:08Z</time>
      </trkpt>
      <trkpt lat="40.303333" lon="-4.892050">
        <ele>2116.0</ele>
        <time>2018-06-23T13:00:09Z</time>
      </trkpt>
      <trkpt lat="40.303400" lon="-4.892000">
        <ele>2115.0</ele>
        <time>2018-06-23T13:00:10Z</time>
      </trkpt>
      <trkpt lat="40.303467" lon="-4.891917">
        <ele>2113.0</ele>
        <time>2018-06-23T13:00:11Z</time>
      </trkpt>
      <trkpt lat="40.303517" lon="-4.891833">
        <ele>2112.0</ele>
        <time>2018-06-23T13:00:12Z</time>
      </trkpt>
      <trkpt lat="40.303583" lon="-4.891750">
        <ele>2111.0</ele>
        <time>2018-06-23T13:00:13Z</time>
      </trkpt>
      <trkpt lat="40.303650" lon="-4.891667">
        <ele>2110.0</ele>
        <time>2018-06-23T13:00:14Z</time>
      </trkpt>
      <trkpt lat="40.303700" lon="-4.891583">
        <ele>2109.0</ele>
        <time>2018-06-23T13:00:15Z</time>
      </trkpt>
      <trkpt lat="40.303750" lon="-4.891483">
        <ele>2109.0</ele>
        <time>2018-06-23T13:00:16Z</time>
      </trkpt>
      <trkpt lat="40.303800" lon="-4.891400">
        <ele>2108.0</ele>
        <time>2018-06-23T13:00:17Z</time>
      </trkpt>
      <trkpt lat="40.303850" lon="-4.891333">
        <ele>2107.0</ele>
        <time>2018-06-23T13:00:18Z</time>
      </trkpt>
      <trkpt lat="40.303917" lon="-4.891283">
        <ele>2105.0</ele>
        <time>2018-06-23T13:00:19Z</time>
      </trkpt>
      <trkpt lat="40.303983" lon="-4.891217">
        <ele>2103.0</ele>
        <time>2018-06-23T13:00:20Z</time>
      </trkpt>
      <trkpt lat="40.304050" lon="-4.891133">
        <ele>2101.0</ele>
        <time>2018-06-23T13:00:21Z</time>
      </trkpt>
      <trkpt lat="40.304133" lon="-4.891033">
        <ele>2100.0</ele>
        <time>2018-06-23T13:00:22Z</time>
      </trkpt>
      <trkpt lat="40.304233" lon="-4.890950">
        <ele>2100.0</ele>
        <time>2018-06-23T13:00:23Z</time>
      </trkpt>
      <trkpt lat="40.304317" lon="-4.890867">
        <ele>2102.0</ele>
        <time>2018-06-23T13:00:24Z</time>
      </trkpt>
      <trkpt lat="40.304400" lon="-4.890817">
        <ele>2103.0</ele>
        <time>2018-06-23T13:00:25Z</time>
      </trkpt>
      <trkpt lat="40.304483" lon="-4.890750">
        <ele>2104.0</ele>
        <time>2018-06-23T13:00:26Z</time>
      </trkpt>
      <trkpt lat="40.304550" lon="-4.890683">
        <ele>2104.0</ele>
        <time>2018-06-23T13:00:27Z</time>
      </trkpt>
      <trkpt lat="40.304633" lon="-4.890600">
        <ele>2103.0</ele>
        <time>2018-06-23T13:00:28Z</time>
      </trkpt>
      <trkpt lat="40.304717" lon="-4.890533">
        <ele>2103.0</ele>
        <time>2018-06-23T13:00:29Z</time>
      </trkpt>
      <trkpt lat="40.304800" lon="-4.890450">
        <ele>2103.0</ele>
        <time>2018-06-23T13:00:30Z</time>
      </trkpt>
      <trkpt lat="40.304883" lon="-4.890383">
        <ele>2104.0</ele>
        <time>2018-06-23T13:00:31Z</time>
      </trkpt>
      <trkpt lat="40.304950" lon="-4.890300">
        <ele>2106.0</ele>
        <time>2018-06-23T13:00:32Z</time>
      </trkpt>
      <trkpt lat="40.305033" lon="-4.890217">
        <ele>2109.0</ele>
        <time>2018-06-23T13:00:33Z</time>
      </trkpt>
      <trkpt lat="40.305083" lon="-4.890133">
        <ele>2113.0</ele>
        <time>2018-06-23T13:00:34Z</time>
      </trkpt>
      <trkpt lat="40.305117" lon="-4.890067">
        <ele>2116.0</ele>
        <time>2018-06-23T13:00:35Z</time>
      </trkpt>
      <trkpt lat="40.305150" lon="-4.890000">
        <ele>2117.0</ele>
        <time>2018-06-23T13:00:36Z</time>
      </trkpt>
      <trkpt lat="40.305150" lon="-4.889933">
        <ele>2118.0</ele>
        <time>2018-06-23T13:00:37Z</time>
      </trkpt>
      <trkpt lat="40.305133" lon="-4.889867">
        <ele>2119.0</ele>
        <time>2018-06-23T13:00:38Z</time>
      </trkpt>
      <trkpt lat="40.305100" lon="-4.889817">
        <ele>2121.0</ele>
        <time>2018-06-23T13:00:39Z</time>
      </trkpt>
      <trkpt lat="40.305050" lon="-4.889783">
        <ele>2121.0</ele>
        <time>2018-06-23T13:00:40Z</time>
      </trkpt>
      <trkpt lat="40.304967" lon="-4.889800">
        <ele>2122.0</ele>
        <time>2018-06-23T13:00:41Z</time>
      </trkpt>
      <trkpt lat="40.304883" lon="-4.889883">
        <ele>2123.0</ele>
        <time>2018-06-23T13:00:42Z</time>
      </trkpt>
      <trkpt lat="40.304833" lon="-4.890000">
        <ele>2124.0</ele>
        <time>2018-06-23T13:00:43Z</time>
      </trkpt>
      <trkpt lat="40.304817" lon="-4.890150">
        <ele>2124.0</ele>
        <time>2018-06-23T13:00:44Z</time>
      </trkpt>
      <trkpt lat="40.304833" lon="-4.890317">
        <ele>2124.0</ele>
        <time>2018-06-23T13:00:45Z</time>
      </trkpt>
      <trkpt lat="40.304900" lon="-4.890467">
        <ele>2125.0</ele>
        <time>2018-06-23T13:00:46Z</time>
      </trkpt>
      <trkpt lat="40.305000" lon="-4.890583">
        <ele>2126.0</ele>
        <time>2018-06-23T13:00:47Z</time>
      </trkpt>
      <trkpt lat="40.305117" lon="-4.890633">
        <ele>2128.0</ele>
        <time>2018-06-23T13:00:48Z</time>
      </trkpt>
      <trkpt lat="40.305233" lon="-4.890633">
        <ele>2130.0</ele>
        <time>2018-06-23T13:00:49Z</time>
      </trkpt>
      <trkpt lat="40.305333" lon="-4.890617">
        <ele>2133.0</ele>
        <time>2018-06-23T13:00:50Z</time>
      </trkpt>
      <trkpt lat="40.305417" lon="-4.890600">
        <ele>2136.0</ele>
        <time>2018-06-23T13:00:51Z</time>
      </trkpt>
      <trkpt lat="40.305517" lon="-4.890583">
        <ele>2139.0</ele>
        <time>2018-06-23T13:00:52Z</time>
      </trkpt>
      <trkpt lat="40.305600" lon="-4.890567">
        <ele>2142.0</ele>
        <time>2018-06-23T13:00:53Z</time>
      </trkpt>
      <trkpt lat="40.305683" lon="-4.890517">
        <ele>2143.0</ele>
        <time>2018-06-23T13:00:54Z</time>
      </trkpt>
      <trkpt lat="40.305733" lon="-4.890433">
        <ele>2144.0</ele>
        <time>2018-06-23T13:00:55Z</time>
      </trkpt>
      <trkpt lat="40.305767" lon="-4.890333">
        <ele>2145.0</ele>
        <time>2018-06-23T13:00:56Z</time>
      </trkpt>
      <trkpt lat="40.305750" lon="-4.890250">
        <ele>2145.0</ele>
        <time>2018-06-23T13:00:57Z</time>
      </trkpt>
      <trkpt lat="40.305683" lon="-4.890183">
        <ele>2145.0</ele>
        <time>2018-06-23T13:00:58Z</time>
      </trkpt>
      <trkpt lat="40.305600" lon="-4.890167">
        <ele>2147.0</ele>
        <time>2018-06-23T13:00:59Z</time>
      </trkpt>
      <trkpt lat="40.305533" lon="-4.890200">
        <ele>2150.0</ele>
        <time>2018-06-23T13:01:00Z</time>
      </trkpt>
      <trkpt lat="40.305467" lon="-4.890300">
        <ele>2151.0</ele>
        <time>2018-06-23T13:01:01Z</time>
      </trkpt>
      <trkpt lat="40.305433" lon="-4.890433">
        <ele>2152.0</ele>
        <time>2018-06-23T13:01:02Z</time>
      </trkpt>
      <trkpt lat="40.305417" lon="-4.890583">
        <ele>2152.0</ele>
        <time>2018-06-23T13:01:03Z</time>
      </trkpt>
      <trkpt lat="40.305433" lon="-4.890750">
        <ele>2153.0</ele>
        <time>2018-06-23T13:01:04Z</time>
      </trkpt>
      <trkpt lat="40.305467" lon="-4.890900">
        <ele>2154.0</ele>
        <time>2018-06-23T13:01:05Z</time>
      </trkpt>
      <trkpt lat="40.305533" lon="-4.891050">
        <ele>2156.0</ele>
        <time>2018-06-23T13:01:06Z</time>
      </trkpt>
      <trkpt lat="40.305617" lon="-4.891150">
        <ele>2158.0</ele>
        <time>2018-06-23T13:01:07Z</time>
      </trkpt>
      <trkpt lat="40.305733" lon="-4.891217">
        <ele>2160.0</ele>
        <time>2018-06-23T13:01:08Z</time>
      </trkpt>
      <trkpt lat="40.305833" lon="-4.891233">
        <ele>2161.0</ele>
        <time>2018-06-23T13:01:09Z</time>
      </trkpt>
      <trkpt lat="40.305950" lon="-4.891200">
        <ele>2162.0</ele>
        <time>2018-06-23T13:01:10Z</time>
      </trkpt>
      <trkpt lat="40.306050" lon="-4.891150">
        <ele>2163.0</ele>
        <time>2018-06-23T13:01:11Z</time>
      </trkpt>
      <trkpt lat="40.306117" lon="-4.891083">
        <ele>2166.0</ele>
        <time>2018-06-23T13:01:12Z</time>
      </trkpt>
      <trkpt lat="40.306167" lon="-4.890983">
        <ele>2168.0</ele>
        <time>2018-06-23T13:01:13Z</time>
      </trkpt>
      <trkpt lat="40.306167" lon="-4.890900">
        <ele>2169.0</ele>
        <time>2018-06-23T13:01:14Z</time>
      </trkpt>
      <trkpt lat="40.306167" lon="-4.890817">
        <ele>2171.0</ele>
        <time>2018-06-23T13:01:15Z</time>
      </trkpt>
      <trkpt lat="40.306133" lon="-4.890733">
        <ele>2173.0</ele>
        <time>2018-06-23T13:01:16Z</time>
      </trkpt>
      <trkpt lat="40.306083" lon="-4.890683">
        <ele>2175.0</ele>
        <time>2018-06-23T13:01:17Z</time>
      </trkpt>
      <trkpt lat="40.306033" lon="-4.890667">
        <ele>2177.0</ele>
        <time>2018-06-23T13:01:18Z</time>
      </trkpt>
      <trkpt lat="40.305967" lon="-4.890700">
        <ele>2178.0</ele>
        <time>2018-06-23T13:01:19Z</time>
      </trkpt>
      <trkpt lat="40.305900" lon="-4.890783">
        <ele>2178.0</ele>
        <time>2018-06-23T13:01:20Z</time>
      </trkpt>
      <trkpt lat="40.305850" lon="-4.890917">
        <ele>2177.0</ele>
        <time>2018-06-23T13:01:21Z</time>
      </trkpt>
      <trkpt lat="40.305833" lon="-4.891100">
        <ele>2178.0</ele>
        <time>2018-06-23T13:01:22Z</time>
      </trkpt>
      <trkpt lat="40.305833" lon="-4.891267">
        <ele>2179.0</ele>
        <time>2018-06-23T13:01:23Z</time>
      </trkpt>
      <trkpt lat="40.305867" lon="-4.891433">
        <ele>2182.0</ele>
        <time>2018-06-23T13:01:24Z</time>
      </trkpt>
      <trkpt lat="40.305917" lon="-4.891567">
        <ele>2185.0</ele>
        <time>2018-06-23T13:01:25Z</time>
      </trkpt>
      <trkpt lat="40.305983" lon="-4.891683">
        <ele>2187.0</ele>
        <time>2018-06-23T13:01:26Z</time>
      </trkpt>
      <trkpt lat="40.306067" lon="-4.891783">
        <ele>2188.0</ele>
        <time>2018-06-23T13:01:27Z</time>
      </trkpt>
      <trkpt lat="40.306167" lon="-4.891883">
        <ele>2189.0</ele>
        <time>2018-06-23T13:01:28Z</time>
      </trkpt>
      <trkpt lat="40.306267" lon="-4.891950">
        <ele>2191.0</ele>
        <time>2018-06-23T13:01:29Z</time>
      </trkpt>
      <trkpt lat="40.306383" lon="-4.891983">
        <ele>2193.0</ele>
        <time>2018-06-23T13:01:30Z</time>
      </trkpt>
      <trkpt lat="40.306483" lon="-4.891983">
        <ele>2195.0</ele>
        <time>2018-06-23T13:01:31Z</time>
      </trkpt>
      <trkpt lat="40.306583" lon="-4.891967">
        <ele>2197.0</ele>
        <time>2018-06-23T13:01:32Z</time>
      </trkpt>
      <trkpt lat="40.306667" lon="-4.891917">
        <ele>2200.0</ele>
        <time>2018-06-23T13:01:33Z</time>
      </trkpt>
      <trkpt lat="40.306750" lon="-4.891850">
        <ele>2202.0</ele>
        <time>2018-06-23T13:01:34Z</time>
      </trkpt>
      <trkpt lat="40.306800" lon="-4.891783">
        <ele>2205.0</ele>
        <time>2018-06-23T13:01:35Z</time>
      </trkpt>
      <trkpt lat="40.306833" lon="-4.891700">
        <ele>2207.0</ele>
        <time>2018-06-23T13:01:36Z</time>
      </trkpt>
      <trkpt lat="40.306817" lon="-4.891633">
        <ele>2209.0</ele>
        <time>2018-06-23T13:01:37Z</time>
      </trkpt>
      <trkpt lat="40.306783" lon="-4.891567">
        <ele>2210.0</ele>
        <time>2018-06-23T13:01:38Z</time>
      </trkpt>
      <trkpt lat="40.306717" lon="-4.891533">
        <ele>2210.0</ele>
        <time>2018-06-23T13:01:39Z</time>
      </trkpt>
      <trkpt lat="40.306633" lon="-4.891533">
        <ele>2210.0</ele>
        <time>2018-06-23T13:01:40Z</time>
      </trkpt>
      <trkpt lat="40.306550" lon="-4.891600">
        <ele>2212.0</ele>
        <time>2018-06-23T13:01:41Z</time>
      </trkpt>
      <trkpt lat="40.306483" lon="-4.891717">
        <ele>2213.0</ele>
        <time>2018-06-23T13:01:42Z</time>
      </trkpt>
      <trkpt lat="40.306433" lon="-4.891867">
        <ele>2213.0</ele>
        <time>2018-06-23T13:01:43Z</time>
      </trkpt>
      <trkpt lat="40.306417" lon="-4.892033">
        <ele>2214.0</ele>
        <time>2018-06-23T13:01:44Z</time>
      </trkpt>
      <trkpt lat="40.306417" lon="-4.892183">
        <ele>2217.0</ele>
        <time>2018-06-23T13:01:45Z</time>
      </trkpt>
      <trkpt lat="40.306450" lon="-4.892333">
        <ele>2220.0</ele>
        <time>2018-06-23T13:01:46Z</time>
      </trkpt>
      <trkpt lat="40.306500" lon="-4.892483">
        <ele>2222.0</ele>
        <time>2018-06-23T13:01:47Z</time>
      </trkpt>
      <trkpt lat="40.306583" lon="-4.892600">
        <ele>2223.0</ele>
        <time>2018-06-23T13:01:48Z</time>
      </trkpt>
      <trkpt lat="40.306683" lon="-4.892667">
        <ele>2224.0</ele>
        <time>2018-06-23T13:01:49Z</time>
      </trkpt>
      <trkpt lat="40.306800" lon="-4.892700">
        <ele>2224.0</ele>
        <time>2018-06-23T13:01:50Z</time>
      </trkpt>
      <trkpt lat="40.306933" lon="-4.892700">
        <ele>2225.0</ele>
        <time>2018-06-23T13:01:51Z</time>
      </trkpt>
      <trkpt lat="40.307050" lon="-4.892650">
        <ele>2226.0</ele>
        <time>2018-06-23T13:01:52Z</time>
      </trkpt>
      <trkpt lat="40.307150" lon="-4.892567">
        <ele>2228.0</ele>
        <time>2018-06-23T13:01:53Z</time>
      </trkpt>
      <trkpt lat="40.307233" lon="-4.892483">
        <ele>2231.0</ele>
        <time>2018-06-23T13:01:54Z</time>
      </trkpt>
      <trkpt lat="40.307300" lon="-4.892383">
        <ele>2235.0</ele>
        <time>2018-06-23T13:01:55Z</time>
      </trkpt>
      <trkpt lat="40.307333" lon="-4.892317">
        <ele>2239.0</ele>
        <time>2018-06-23T13:01:56Z</time>
      </trkpt>
      <trkpt lat="40.307350" lon="-4.892250">
        <ele>2242.0</ele>
        <time>2018-06-23T13:01:57Z</time>
      </trkpt>
      <trkpt lat="40.307350" lon="-4.892183">
        <ele>2245.0</ele>
        <time>2018-06-23T13:01:58Z</time>
      </trkpt>
      <trkpt lat="40.307333" lon="-4.892117">
        <ele>2246.0</ele>
        <time>2018-06-23T13:01:59Z</time>
      </trkpt>
      <trkpt lat="40.307300" lon="-4.892050">
        <ele>2248.0</ele>
        <time>2018-06-23T13:02:00Z</time>
      </trkpt>
      <trkpt lat="40.307267" lon="-4.891967">
        <ele>2250.0</ele>
        <time>2018-06-23T13:02:01Z</time>
      </trkpt>
      <trkpt lat="40.307233" lon="-4.891900">
        <ele>2252.0</ele>
        <time>2018-06-23T13:02:02Z</time>
      </trkpt>
      <trkpt lat="40.307183" lon="-4.891850">
        <ele>2254.0</ele>
        <time>2018-06-23T13:02:03Z</time>
      </trkpt>
      <trkpt lat="40.307117" lon="-4.891850">
        <ele>2255.0</ele>
        <time>2018-06-23T13:02:04Z</time>
      </trkpt>
      <trkpt lat="40.307033" lon="-4.891883">
        <ele>2256.0</ele>
        <time>2018-06-23T13:02:05Z</time>
      </trkpt>
      <trkpt lat="40.306950" lon="-4.891983">
        <ele>2257.0</ele>
        <time>2018-06-23T13:02:06Z</time>
      </trkpt>
      <trkpt lat="40.306900" lon="-4.892117">
        <ele>2259.0</ele>
        <time>2018-06-23T13:02:07Z</time>
      </trkpt>
      <trkpt lat="40.306900" lon="-4.892267">
        <ele>2261.0</ele>
        <time>2018-06-23T13:02:08Z</time>
      </trkpt>
      <trkpt lat="40.306933" lon="-4.892417">
        <ele>2263.0</ele>
        <time>2018-06-23T13:02:09Z</time>
      </trkpt>
      <trkpt lat="40.307000" lon="-4.892533">
        <ele>2264.0</ele>
        <time>2018-06-23T13:02:10Z</time>
      </trkpt>
      <trkpt lat="40.307083" lon="-4.892650">
        <ele>2267.0</ele>
        <time>2018-06-23T13:02:11Z</time>
      </trkpt>
      <trkpt lat="40.307150" lon="-4.892733">
        <ele>2270.0</ele>
        <time>2018-06-23T13:02:12Z</time>
      </trkpt>
      <trkpt lat="40.307217" lon="-4.892817">
        <ele>2274.0</ele>
        <time>2018-06-23T13:02:13Z</time>
      </trkpt>
      <trkpt lat="40.307300" lon="-4.892883">
        <ele>2275.0</ele>
        <time>2018-06-23T13:02:14Z</time>
      </trkpt>
      <trkpt lat="40.307383" lon="-4.892933">
        <ele>2275.0</ele>
        <time>2018-06-23T13:02:15Z</time>
      </trkpt>
      <trkpt lat="40.307483" lon="-4.892983">
        <ele>2275.0</ele>
        <time>2018-06-23T13:02:16Z</time>
      </trkpt>
      <trkpt lat="40.307600" lon="-4.893000">
        <ele>2274.0</ele>
        <time>2018-06-23T13:02:17Z</time>
      </trkpt>
      <trkpt lat="40.307733" lon="-4.892983">
        <ele>2275.0</ele>
        <time>2018-06-23T13:02:18Z</time>
      </trkpt>
      <trkpt lat="40.307867" lon="-4.892933">
        <ele>2276.0</ele>
        <time>2018-06-23T13:02:19Z</time>
      </trkpt>
      <trkpt lat="40.307967" lon="-4.892867">
        <ele>2277.0</ele>
        <time>2018-06-23T13:02:20Z</time>
      </trkpt>
      <trkpt lat="40.308050" lon="-4.892767">
        <ele>2278.0</ele>
        <time>2018-06-23T13:02:21Z</time>
      </trkpt>
      <trkpt lat="40.308117" lon="-4.892650">
        <ele>2279.0</ele>
        <time>2018-06-23T13:02:22Z</time>
      </trkpt>
      <trkpt lat="40.308183" lon="-4.892533">
        <ele>2281.0</ele>
        <time>2018-06-23T13:02:23Z</time>
      </trkpt>
      <trkpt lat="40.308250" lon="-4.892400">
        <ele>2283.0</ele>
        <time>2018-06-23T13:02:24Z</time>
      </trkpt>
      <trkpt lat="40.308300" lon="-4.892267">
        <ele>2285.0</ele>
        <time>2018-06-23T13:02:25Z</time>
      </trkpt>
      <trkpt lat="40.308350" lon="-4.892150">
        <ele>2289.0</ele>
        <time>2018-06-23T13:02:26Z</time>
      </trkpt>
      <trkpt lat="40.308383" lon="-4.892050">
        <ele>2293.0</ele>
        <time>2018-06-23T13:02:27Z</time>
      </trkpt>
      <trkpt lat="40.308417" lon="-4.891950">
        <ele>2298.0</ele>
        <time>2018-06-23T13:02:28Z</time>
      </trkpt>
      <trkpt lat="40.308483" lon="-4.891883">
        <ele>2303.0</ele>
        <time>2018-06-23T13:02:29Z</time>
      </trkpt>
      <trkpt lat="40.308550" lon="-4.891833">
        <ele>2306.0</ele>
        <time>2018-06-23T13:02:30Z</time>
      </trkpt>
      <trkpt lat="40.308617" lon="-4.891783">
        <ele>2309.0</ele>
        <time>2018-06-23T13:02:31Z</time>
      </trkpt>
      <trkpt lat="40.308683" lon="-4.891733">
        <ele>2311.0</ele>
        <time>2018-06-23T13:02:32Z</time>
      </trkpt>
      <trkpt lat="40.308733" lon="-4.891667">
        <ele>2312.0</ele>
        <time>2018-06-23T13:02:33Z</time>
      </trkpt>
      <trkpt lat="40.308750" lon="-4.891567">
        <ele>2312.0</ele>
        <time>2018-06-23T13:02:34Z</time>
      </trkpt>
      <trkpt lat="40.308750" lon="-4.891467">
        <ele>2312.0</ele>
        <time>2018-06-23T13:02:35Z</time>
      </trkpt>
      <trkpt lat="40.308700" lon="-4.891383">
        <ele>2311.0</ele>
        <time>2018-06-23T13:02:36Z</time>
      </trkpt>
      <trkpt lat="40.308633" lon="-4.891317">
        <ele>2312.0</ele>
        <time>2018-06-23T13:02:37Z</time>
      </trkpt>
      <trkpt lat="40.308550" lon="-4.891300">
        <ele>2312.0</ele>
        <time>2018-06-23T13:02:38Z</time>
      </trkpt>
      <trkpt lat="40.308450" lon="-4.891333">
        <ele>2313.0</ele>
        <time>2018-06-23T13:02:39Z</time>
      </trkpt>
      <trkpt lat="40.308367" lon="-4.891433">
        <ele>2314.0</ele>
        <time>2018-06-23T13:02:40Z</time>
      </trkpt>
      <trkpt lat="40.308317" lon="-4.891583">
        <ele>2315.0</ele>
        <time>2018-06-23T13:02:41Z</time>
      </trkpt>
      <trkpt lat="40.308317" lon="-4.891767">
        <ele>2317.0</ele>
        <time>2018-06-23T13:02:42Z</time>
      </trkpt>
      <trkpt lat="40.308350" lon="-4.891933">
        <ele>2322.0</ele>
        <time>2018-06-23T13:02:43Z</time>
      </trkpt>
      <trkpt lat="40.308433" lon="-4.892067">
        <ele>2326.0</ele>
        <time>2018-06-23T13:02:44Z</time>
      </trkpt>
      <trkpt lat="40.308517" lon="-4.892167">
        <ele>2329.0</ele>
        <time>2018-06-23T13:02:45Z</time>
      </trkpt>
      <trkpt lat="40.308600" lon="-4.892233">
        <ele>2331.0</ele>
        <time>2018-06-23T13:02:46Z</time>
      </trkpt>
      <trkpt lat="40.308700" lon="-4.892300">
        <ele>2333.0</ele>
        <time>2018-06-23T13:02:47Z</time>
      </trkpt>
      <trkpt lat="40.308783" lon="-4.892367">
        <ele>2335.0</ele>
        <time>2018-06-23T13:02:48Z</time>
      </trkpt>
      <trkpt lat="40.308900" lon="-4.892417">
        <ele>2337.0</ele>
        <time>2018-06-23T13:02:49Z</time>
      </trkpt>
      <trkpt lat="40.309017" lon="-4.892433">
        <ele>2338.0</ele>
        <time>2018-06-23T13:02:50Z</time>
      </trkpt>
      <trkpt lat="40.309150" lon="-4.892417">
        <ele>2340.0</ele>
        <time>2018-06-23T13:02:51Z</time>
      </trkpt>
      <trkpt lat="40.309267" lon="-4.892367">
        <ele>2341.0</ele>
        <time>2018-06-23T13:02:52Z</time>
      </trkpt>
      <trkpt lat="40.309367" lon="-4.892283">
        <ele>2342.0</ele>
        <time>2018-06-23T13:02:53Z</time>
      </trkpt>
      <trkpt lat="40.309483" lon="-4.892200">
        <ele>2345.0</ele>
        <time>2018-06-23T13:02:54Z</time>
      </trkpt>
      <trkpt lat="40.309583" lon="-4.892133">
        <ele>2349.0</ele>
        <time>2018-06-23T13:02:55Z</time>
      </trkpt>
      <trkpt lat="40.309667" lon="-4.892067">
        <ele>2353.0</ele>
        <time>2018-06-23T13:02:56Z</time>
      </trkpt>
      <trkpt lat="40.309767" lon="-4.892017">
        <ele>2355.0</ele>
        <time>2018-06-23T13:02:57Z</time>
      </trkpt>
      <trkpt lat="40.309850" lon="-4.891950">
        <ele>2357.0</ele>
        <time>2018-06-23T13:02:58Z</time>
      </trkpt>
      <trkpt lat="40.309933" lon="-4.891883">
        <ele>2358.0</ele>
        <time>2018-06-23T13:02:59Z</time>
      </trkpt>
      <trkpt lat="40.310000" lon="-4.891800">
        <ele>2358.0</ele>
        <time>2018-06-23T13:03:00Z</time>
      </trkpt>
      <trkpt lat="40.310050" lon="-4.891717">
        <ele>2357.0</ele>
        <time>2018-06-23T13:03:01Z</time>
      </trkpt>
      <trkpt lat="40.310083" lon="-4.891600">
        <ele>2355.0</ele>
        <time>2018-06-23T13:03:02Z</time>
      </trkpt>
      <trkpt lat="40.310100" lon="-4.891467">
        <ele>2354.0</ele>
        <time>2018-06-23T13:03:03Z</time>
      </trkpt>
      <trkpt lat="40.310117" lon="-4.891350">
        <ele>2352.0</ele>
        <time>2018-06-23T13:03:04Z</time>
      </trkpt>
      <trkpt lat="40.310117" lon="-4.891233">
        <ele>2351.0</ele>
        <time>2018-06-23T13:03:05Z</time>
      </trkpt>
      <trkpt lat="40.310117" lon="-4.891117">
        <ele>2350.0</ele>
        <time>2018-06-23T13:03:06Z</time>
      </trkpt>
      <trkpt lat="40.310117" lon="-4.891017">
        <ele>2348.0</ele>
        <time>2018-06-23T13:03:07Z</time>
      </trkpt>
      <trkpt lat="40.310100" lon="-4.890900">
        <ele>2347.0</ele>
        <time>2018-06-23T13:03:08Z</time>
      </trkpt>
      <trkpt lat="40.310083" lon="-4.890783">
        <ele>2346.0</ele>
        <time>2018-06-23T13:03:09Z</time>
      </trkpt>
      <trkpt lat="40.310050" lon="-4.890667">
        <ele>2346.0</ele>
        <time>2018-06-23T13:03:10Z</time>
      </trkpt>
      <trkpt lat="40.310017" lon="-4.890550">
        <ele>2346.0</ele>
        <time>2018-06-23T13:03:11Z</time>
      </trkpt>
      <trkpt lat="40.309967" lon="-4.890467">
        <ele>2347.0</ele>
        <time>2018-06-23T13:03:12Z</time>
      </trkpt>
      <trkpt lat="40.309933" lon="-4.890367">
        <ele>2347.0</ele>
        <time>2018-06-23T13:03:13Z</time>
      </trkpt>
      <trkpt lat="40.309917" lon="-4.890283">
        <ele>2347.0</ele>
        <time>2018-06-23T13:03:14Z</time>
      </trkpt>
      <trkpt lat="40.309883" lon="-4.890200">
        <ele>2346.0</ele>
        <time>2018-06-23T13:03:15Z</time>
      </trkpt>
      <trkpt lat="40.309867" lon="-4.890100">
        <ele>2345.0</ele>
        <time>2018-06-23T13:03:16Z</time>
      </trkpt>
      <trkpt lat="40.309833" lon="-4.890017">
        <ele>2345.0</ele>
        <time>2018-06-23T13:03:17Z</time>
      </trkpt>
      <trkpt lat="40.309800" lon="-4.889917">
        <ele>2345.0</ele>
        <time>2018-06-23T13:03:18Z</time>
      </trkpt>
      <trkpt lat="40.309767" lon="-4.889833">
        <ele>2345.0</ele>
        <time>2018-06-23T13:03:19Z</time>
      </trkpt>
      <trkpt lat="40.309750" lon="-4.889733">
        <ele>2345.0</ele>
        <time>2018-06-23T13:03:20Z</time>
      </trkpt>
      <trkpt lat="40.309717" lon="-4.889633">
        <ele>2344.0</ele>
        <time>2018-06-23T13:03:21Z</time>
      </trkpt>
      <trkpt lat="40.309700" lon="-4.889533">
        <ele>2344.0</ele>
        <time>2018-06-23T13:03:22Z</time>
      </trkpt>
      <trkpt lat="40.309683" lon="-4.889450">
        <ele>2343.0</ele>
        <time>2018-06-23T13:03:23Z</time>
      </trkpt>
      <trkpt lat="40.309667" lon="-4.889350">
        <ele>2341.0</ele>
        <time>2018-06-23T13:03:24Z</time>
      </trkpt>
      <trkpt lat="40.309650" lon="-4.889250">
        <ele>2339.0</ele>
        <time>2018-06-23T13:03:25Z</time>
      </trkpt>
      <trkpt lat="40.309633" lon="-4.889167">
        <ele>2338.0</ele>
        <time>2018-06-23T13:03:26Z</time>
      </trkpt>
      <trkpt lat="40.309600" lon="-4.889100">
        <ele>2337.0</ele>
        <time>2018-06-23T13:03:27Z</time>
      </trkpt>
      <trkpt lat="40.309583" lon="-4.889033">
        <ele>2335.0</ele>
        <time>2018-06-23T13:03:28Z</time>
      </trkpt>
      <trkpt lat="40.309550" lon="-4.888967">
        <ele>2333.0</ele>
        <time>2018-06-23T13:03:29Z</time>
      </trkpt>
      <trkpt lat="40.309517" lon="-4.888883">
        <ele>2331.0</ele>
        <time>2018-06-23T13:03:30Z</time>
      </trkpt>
      <trkpt lat="40.309517" lon="-4.888800">
        <ele>2329.0</ele>
        <time>2018-06-23T13:03:31Z</time>
      </trkpt>
      <trkpt lat="40.309517" lon="-4.888717">
        <ele>2327.0</ele>
        <time>2018-06-23T13:03:32Z</time>
      </trkpt>
      <trkpt lat="40.309517" lon="-4.888633">
        <ele>2325.0</ele>
        <time>2018-06-23T13:03:33Z</time>
      </trkpt>
      <trkpt lat="40.309517" lon="-4.888533">
        <ele>2324.0</ele>
        <time>2018-06-23T13:03:34Z</time>
      </trkpt>
      <trkpt lat="40.309517" lon="-4.888450">
        <ele>2322.0</ele>
        <time>2018-06-23T13:03:35Z</time>
      </trkpt>
      <trkpt lat="40.309517" lon="-4.888350">
        <ele>2321.0</ele>
        <time>2018-06-23T13:03:36Z</time>
      </trkpt>
      <trkpt lat="40.309517" lon="-4.888250">
        <ele>2321.0</ele>
        <time>2018-06-23T13:03:37Z</time>
      </trkpt>
      <trkpt lat="40.309533" lon="-4.888133">
        <ele>2322.0</ele>
        <time>2018-06-23T13:03:38Z</time>
      </trkpt>
      <trkpt lat="40.309533" lon="-4.888017">
        <ele>2324.0</ele>
        <time>2018-06-23T13:03:39Z</time>
      </trkpt>
      <trkpt lat="40.309550" lon="-4.887933">
        <ele>2328.0</ele>
        <time>2018-06-23T13:03:40Z</time>
      </trkpt>
      <trkpt lat="40.309550" lon="-4.887867">
        <ele>2331.0</ele>
        <time>2018-06-23T13:03:41Z</time>
      </trkpt>
      <trkpt lat="40.309567" lon="-4.887817">
        <ele>2332.0</ele>
        <time>2018-06-23T13:03:42Z</time>
      </trkpt>
      <trkpt lat="40.309583" lon="-4.887733">
        <ele>2333.0</ele>
        <time>2018-06-23T13:03:43Z</time>
      </trkpt>
      <trkpt lat="40.309600" lon="-4.887633">
        <ele>2334.0</ele>
        <time>2018-06-23T13:03:44Z</time>
      </trkpt>
      <trkpt lat="40.309617" lon="-4.887517">
        <ele>2335.0</ele>
        <time>2018-06-23T13:03:45Z</time>
      </trkpt>
      <trkpt lat="40.309633" lon="-4.887400">
        <ele>2337.0</ele>
        <time>2018-06-23T13:03:46Z</time>
      </trkpt>
      <trkpt lat="40.309633" lon="-4.887300">
        <ele>2340.0</ele>
        <time>2018-06-23T13:03:47Z</time>
      </trkpt>
      <trkpt lat="40.309650" lon="-4.887200">
        <ele>2341.0</ele>
        <time>2018-06-23T13:03:48Z</time>
      </trkpt>
      <trkpt lat="40.309650" lon="-4.887117">
        <ele>2343.0</ele>
        <time>2018-06-23T13:03:49Z</time>
      </trkpt>
      <trkpt lat="40.309617" lon="-4.887017">
        <ele>2344.0</ele>
        <time>2018-06-23T13:03:50Z</time>
      </trkpt>
      <trkpt lat="40.309550" lon="-4.886933">
        <ele>2345.0</ele>
        <time>2018-06-23T13:03:51Z</time>
      </trkpt>
      <trkpt lat="40.309467" lon="-4.886883">
        <ele>2346.0</ele>
        <time>2018-06-23T13:03:52Z</time>
      </trkpt>
      <trkpt lat="40.309383" lon="-4.886883">
        <ele>2348.0</ele>
        <time>2018-06-23T13:03:53Z</time>
      </trkpt>
      <trkpt lat="40.309283" lon="-4.886917">
        <ele>2351.0</ele>
        <time>2018-06-23T13:03:54Z</time>
      </trkpt>
      <trkpt lat="40.309217" lon="-4.887000">
        <ele>2352.0</ele>
        <time>2018-06-23T13:03:55Z</time>
      </trkpt>
      <trkpt lat="40.309150" lon="-4.887133">
        <ele>2354.0</ele>
        <time>2018-06-23T13:03:56Z</time>
      </trkpt>
      <trkpt lat="40.309117" lon="-4.887267">
        <ele>2355.0</ele>
        <time>2018-06-23T13:03:57Z</time>
      </trkpt>
      <trkpt lat="40.309117" lon="-4.887417">
        <ele>2358.0</ele>
        <time>2018-06-23T13:03:58Z</time>
      </trkpt>
      <trkpt lat="40.309133" lon="-4.887550">
        <ele>2359.0</ele>
        <time>2018-06-23T13:03:59Z</time>
      </trkpt>
      <trkpt lat="40.309200" lon="-4.887650">
        <ele>2358.0</ele>
        <time>2018-06-23T13:04:00Z</time>
      </trkpt>
      <trkpt lat="40.309283" lon="-4.887717">
        <ele>2356.0</ele>
        <time>2018-06-23T13:04:01Z</time>
      </trkpt>
      <trkpt lat="40.309367" lon="-4.887767">
        <ele>2356.0</ele>
        <time>2018-06-23T13:04:02Z</time>
      </trkpt>
      <trkpt lat="40.309450" lon="-4.887783">
        <ele>2357.0</ele>
        <time>2018-06-23T13:04:03Z</time>
      </trkpt>
      <trkpt lat="40.309550" lon="-4.887767">
        <ele>2357.0</ele>
        <time>2018-06-23T13:04:04Z</time>
      </trkpt>
      <trkpt lat="40.309617" lon="-4.887717">
        <ele>2356.0</ele>
        <time>2018-06-23T13:04:05Z</time>
      </trkpt>
      <trkpt lat="40.309683" lon="-4.887650">
        <ele>2355.0</ele>
        <time>2018-06-23T13:04:06Z</time>
      </trkpt>
      <trkpt lat="40.309750" lon="-4.887567">
        <ele>2356.0</ele>
        <time>2018-06-23T13:04:07Z</time>
      </trkpt>
      <trkpt lat="40.309800" lon="-4.887467">
        <ele>2357.0</ele>
        <time>2018-06-23T13:04:08Z</time>
      </trkpt>
      <trkpt lat="40.309850" lon="-4.887367">
        <ele>2358.0</ele>
        <time>2018-06-23T13:04:09Z</time>
      </trkpt>
      <trkpt lat="40.309883" lon="-4.887267">
        <ele>2359.0</ele>
        <time>2018-06-23T13:04:10Z</time>
      </trkpt>
      <trkpt lat="40.309917" lon="-4.887167">
        <ele>2360.0</ele>
        <time>2018-06-23T13:04:11Z</time>
      </trkpt>
      <trkpt lat="40.309950" lon="-4.887067">
        <ele>2361.0</ele>
        <time>2018-06-23T13:04:12Z</time>
      </trkpt>
      <trkpt lat="40.310000" lon="-4.886950">
        <ele>2364.0</ele>
        <time>2018-06-23T13:04:13Z</time>
      </trkpt>
      <trkpt lat="40.310017" lon="-4.886867">
        <ele>2365.0</ele>
        <time>2018-06-23T13:04:14Z</time>
      </trkpt>
      <trkpt lat="40.310033" lon="-4.886800">
        <ele>2367.0</ele>
        <time>2018-06-23T13:04:15Z</time>
      </trkpt>
      <trkpt lat="40.310050" lon="-4.886733">
        <ele>2368.0</ele>
        <time>2018-06-23T13:04:16Z</time>
      </trkpt>
      <trkpt lat="40.310050" lon="-4.886667">
        <ele>2367.0</ele>
        <time>2018-06-23T13:04:17Z</time>
      </trkpt>
      <trkpt lat="40.310067" lon="-4.886583">
        <ele>2365.0</ele>
        <time>2018-06-23T13:04:18Z</time>
      </trkpt>
      <trkpt lat="40.310100" lon="-4.886467">
        <ele>2365.0</ele>
        <time>2018-06-23T13:04:19Z</time>
      </trkpt>
      <trkpt lat="40.310117" lon="-4.886350">
        <ele>2366.0</ele>
        <time>2018-06-23T13:04:20Z</time>
      </trkpt>
      <trkpt lat="40.310133" lon="-4.886233">
        <ele>2366.0</ele>
        <time>2018-06-23T13:04:21Z</time>
      </trkpt>
      <trkpt lat="40.310133" lon="-4.886133">
        <ele>2367.0</ele>
        <time>2018-06-23T13:04:22Z</time>
      </trkpt>
      <trkpt lat="40.310117" lon="-4.886033">
        <ele>2367.0</ele>
        <time>2018-06-23T13:04:23Z</time>
      </trkpt>
      <trkpt lat="40.310083" lon="-4.885933">
        <ele>2367.0</ele>
        <time>2018-06-23T13:04:24Z</time>
      </trkpt>
      <trkpt lat="40.310067" lon="-4.885817">
        <ele>2369.0</ele>
        <time>2018-06-23T13:04:25Z</time>
      </trkpt>
      <trkpt lat="40.310050" lon="-4.885700">
        <ele>2371.0</ele>
        <time>2018-06-23T13:04:26Z</time>
      </trkpt>
      <trkpt lat="40.310050" lon="-4.885600">
        <ele>2372.0</ele>
        <time>2018-06-23T13:04:27Z</time>
      </trkpt>
      <trkpt lat="40.310033" lon="-4.885500">
        <ele>2374.0</ele>
        <time>2018-06-23T13:04:28Z</time>
      </trkpt>
      <trkpt lat="40.310033" lon="-4.885400">
        <ele>2376.0</ele>
        <time>2018-06-23T13:04:29Z</time>
      </trkpt>
      <trkpt lat="40.310017" lon="-4.885317">
        <ele>2377.0</ele>
        <time>2018-06-23T13:04:30Z</time>
      </trkpt>
      <trkpt lat="40.310017" lon="-4.885217">
        <ele>2379.0</ele>
        <time>2018-06-23T13:04:31Z</time>
      </trkpt>
      <trkpt lat="40.309983" lon="-4.885133">
        <ele>2380.0</ele>
        <time>2018-06-23T13:04:32Z</time>
      </trkpt>
      <trkpt lat="40.309933" lon="-4.885067">
        <ele>2381.0</ele>
        <time>2018-06-23T13:04:33Z</time>
      </trkpt>
      <trkpt lat="40.309850" lon="-4.885050">
        <ele>2381.0</ele>
        <time>2018-06-23T13:04:34Z</time>
      </trkpt>
      <trkpt lat="40.309767" lon="-4.885067">
        <ele>2382.0</ele>
        <time>2018-06-23T13:04:35Z</time>
      </trkpt>
      <trkpt lat="40.309683" lon="-4.885133">
        <ele>2382.0</ele>
        <time>2018-06-23T13:04:36Z</time>
      </trkpt>
      <trkpt lat="40.309633" lon="-4.885233">
        <ele>2383.0</ele>
        <time>2018-06-23T13:04:37Z</time>
      </trkpt>
      <trkpt lat="40.309600" lon="-4.885350">
        <ele>2383.0</ele>
        <time>2018-06-23T13:04:38Z</time>
      </trkpt>
      <trkpt lat="40.309600" lon="-4.885500">
        <ele>2382.0</ele>
        <time>2018-06-23T13:04:39Z</time>
      </trkpt>
      <trkpt lat="40.309633" lon="-4.885650">
        <ele>2381.0</ele>
        <time>2018-06-23T13:04:40Z</time>
      </trkpt>
      <trkpt lat="40.309700" lon="-4.885783">
        <ele>2380.0</ele>
        <time>2018-06-23T13:04:41Z</time>
      </trkpt>
      <trkpt lat="40.309783" lon="-4.885883">
        <ele>2381.0</ele>
        <time>2018-06-23T13:04:42Z</time>
      </trkpt>
      <trkpt lat="40.309883" lon="-4.885950">
        <ele>2381.0</ele>
        <time>2018-06-23T13:04:43Z</time>
      </trkpt>
      <trkpt lat="40.309983" lon="-4.885967">
        <ele>2382.0</ele>
        <time>2018-06-23T13:04:44Z</time>
      </trkpt>
      <trkpt lat="40.310083" lon="-4.885950">
        <ele>2382.0</ele>
        <time>2018-06-23T13:04:45Z</time>
      </trkpt>
      <trkpt lat="40.310183" lon="-4.885900">
        <ele>2382.0</ele>
        <time>2018-06-23T13:04:46Z</time>
      </trkpt>
      <trkpt lat="40.310267" lon="-4.885850">
        <ele>2383.0</ele>
        <time>2018-06-23T13:04:47Z</time>
      </trkpt>
      <trkpt lat="40.310350" lon="-4.885783">
        <ele>2386.0</ele>
        <time>2018-06-23T13:04:48Z</time>
      </trkpt>
      <trkpt lat="40.310400" lon="-4.885717">
        <ele>2388.0</ele>
        <time>2018-06-23T13:04:49Z</time>
      </trkpt>
      <trkpt lat="40.310433" lon="-4.885633">
        <ele>2391.0</ele>
        <time>2018-06-23T13:04:50Z</time>
      </trkpt>
      <trkpt lat="40.310483" lon="-4.885550">
        <ele>2393.0</ele>
        <time>2018-06-23T13:04:51Z</time>
      </trkpt>
      <trkpt lat="40.310517" lon="-4.885467">
        <ele>2396.0</ele>
        <time>2018-06-23T13:04:52Z</time>
      </trkpt>
      <trkpt lat="40.310567" lon="-4.885383">
        <ele>2398.0</ele>
        <time>2018-06-23T13:04:53Z</time>
      </trkpt>
      <trkpt lat="40.310617" lon="-4.885317">
        <ele>2400.0</ele>
        <time>2018-06-23T13:04:54Z</time>
      </trkpt>
      <trkpt lat="40.310700" lon="-4.885267">
        <ele>2401.0</ele>
        <time>2018-06-23T13:04:55Z</time>
      </trkpt>
      <trkpt lat="40.310783" lon="-4.885217">
        <ele>2404.0</ele>
        <time>2018-06-23T13:04:56Z</time>
      </trkpt>
      <trkpt lat="40.310867" lon="-4.885150">
        <ele>2406.0</ele>
        <time>2018-06-23T13:04:57Z</time>
      </trkpt>
      <trkpt lat="40.310917" lon="-4.885083">
        <ele>2410.0</ele>
        <time>2018-06-23T13:04:58Z</time>
      </trkpt>
      <trkpt lat="40.310967" lon="-4.885000">
        <ele>2413.0</ele>
        <time>2018-06-23T13:04:59Z</time>
      </trkpt>
      <trkpt lat="40.310967" lon="-4.884883">
        <ele>2415.0</ele>
        <time>2018-06-23T13:05:00Z</time>
      </trkpt>
      <trkpt lat="40.310950" lon="-4.884767">
        <ele>2418.0</ele>
        <time>2018-06-23T13:05:01Z</time>
      </trkpt>
      <trkpt lat="40.310883" lon="-4.884683">
        <ele>2420.0</ele>
        <time>2018-06-23T13:05:02Z</time>
      </trkpt>
      <trkpt lat="40.310800" lon="-4.884650">
        <ele>2423.0</ele>
        <time>2018-06-23T13:05:03Z</time>
      </trkpt>
      <trkpt lat="40.310700" lon="-4.884700">
        <ele>2424.0</ele>
        <time>2018-06-23T13:05:04Z</time>
      </trkpt>
      <trkpt lat="40.310633" lon="-4.884817">
        <ele>2425.0</ele>
        <time>2018-06-23T13:05:05Z</time>
      </trkpt>
      <trkpt lat="40.310600" lon="-4.885000">
        <ele>2428.0</ele>
        <time>2018-06-23T13:05:06Z</time>
      </trkpt>
      <trkpt lat="40.310633" lon="-4.885167">
        <ele>2432.0</ele>
        <time>2018-06-23T13:05:07Z</time>
      </trkpt>
      <trkpt lat="40.310700" lon="-4.885300">
        <ele>2435.0</ele>
        <time>2018-06-23T13:05:08Z</time>
      </trkpt>
      <trkpt lat="40.310767" lon="-4.885383">
        <ele>2437.0</ele>
        <time>2018-06-23T13:05:09Z</time>
      </trkpt>
      <trkpt lat="40.310867" lon="-4.885433">
        <ele>2440.0</ele>
        <time>2018-06-23T13:05:10Z</time>
      </trkpt>
      <trkpt lat="40.310950" lon="-4.885467">
        <ele>2442.0</ele>
        <time>2018-06-23T13:05:11Z</time>
      </trkpt>
      <trkpt lat="40.311050" lon="-4.885450">
        <ele>2443.0</ele>
        <time>2018-06-23T13:05:12Z</time>
      </trkpt>
      <trkpt lat="40.311150" lon="-4.885400">
        <ele>2444.0</ele>
        <time>2018-06-23T13:05:13Z</time>
      </trkpt>
      <trkpt lat="40.311233" lon="-4.885317">
        <ele>2446.0</ele>
        <time>2018-06-23T13:05:14Z</time>
      </trkpt>
      <trkpt lat="40.311283" lon="-4.885200">
        <ele>2448.0</ele>
        <time>2018-06-23T13:05:15Z</time>
      </trkpt>
      <trkpt lat="40.311300" lon="-4.885067">
        <ele>2451.0</ele>
        <time>2018-06-23T13:05:16Z</time>
      </trkpt>
      <trkpt lat="40.311267" lon="-4.884950">
        <ele>2454.0</ele>
        <time>2018-06-23T13:05:17Z</time>
      </trkpt>
      <trkpt lat="40.311217" lon="-4.884867">
        <ele>2458.0</ele>
        <time>2018-06-23T13:05:18Z</time>
      </trkpt>
      <trkpt lat="40.311150" lon="-4.884817">
        <ele>2463.0</ele>
        <time>2018-06-23T13:05:19Z</time>
      </trkpt>
      <trkpt lat="40.311083" lon="-4.884817">
        <ele>2466.0</ele>
        <time>2018-06-23T13:05:20Z</time>
      </trkpt>
      <trkpt lat="40.311017" lon="-4.884850">
        <ele>2468.0</ele>
        <time>2018-06-23T13:05:21Z</time>
      </trkpt>
      <trkpt lat="40.310950" lon="-4.884933">
        <ele>2470.0</ele>
        <time>2018-06-23T13:05:22Z</time>
      </trkpt>
      <trkpt lat="40.310883" lon="-4.885033">
        <ele>2471.0</ele>
        <time>2018-06-23T13:05:23Z</time>
      </trkpt>
      <trkpt lat="40.310850" lon="-4.885167">
        <ele>2473.0</ele>
        <time>2018-06-23T13:05:24Z</time>
      </trkpt>
      <trkpt lat="40.310850" lon="-4.885317">
        <ele>2475.0</ele>
        <time>2018-06-23T13:05:25Z</time>
      </trkpt>
      <trkpt lat="40.310900" lon="-4.885450">
        <ele>2477.0</ele>
        <time>2018-06-23T13:05:26Z</time>
      </trkpt>
      <trkpt lat="40.310967" lon="-4.885550">
        <ele>2479.0</ele>
        <time>2018-06-23T13:05:27Z</time>
      </trkpt>
      <trkpt lat="40.311067" lon="-4.885633">
        <ele>2480.0</ele>
        <time>2018-06-23T13:05:28Z</time>
      </trkpt>
      <trkpt lat="40.311150" lon="-4.885700">
        <ele>2483.0</ele>
        <time>2018-06-23T13:05:29Z</time>
      </trkpt>
      <trkpt lat="40.311267" lon="-4.885717">
        <ele>2484.0</ele>
        <time>2018-06-23T13:05:30Z</time>
      </trkpt>
      <trkpt lat="40.311367" lon="-4.885717">
        <ele>2486.0</ele>
        <time>2018-06-23T13:05:31Z</time>
      </trkpt>
      <trkpt lat="40.311467" lon="-4.885667">
        <ele>2487.0</ele>
        <time>2018-06-23T13:05:32Z</time>
      </trkpt>
      <trkpt lat="40.311550" lon="-4.885583">
        <ele>2488.0</ele>
        <time>2018-06-23T13:05:33Z</time>
      </trkpt>
      <trkpt lat="40.311633" lon="-4.885483">
        <ele>2489.0</ele>
        <time>2018-06-23T13:05:34Z</time>
      </trkpt>
      <trkpt lat="40.311683" lon="-4.885383">
        <ele>2492.0</ele>
        <time>2018-06-23T13:05:35Z</time>
      </trkpt>
      <trkpt lat="40.311700" lon="-4.885267">
        <ele>2494.0</ele>
        <time>2018-06-23T13:05:36Z</time>
      </trkpt>
      <trkpt lat="40.311683" lon="-4.885150">
        <ele>2497.0</ele>
        <time>2018-06-23T13:05:37Z</time>
      </trkpt>
      <trkpt lat="40.311650" lon="-4.885050">
        <ele>2499.0</ele>
        <time>2018-06-23T13:05:38Z</time>
      </trkpt>
      <trkpt lat="40.311567" lon="-4.884983">
        <ele>2502.0</ele>
        <time>2018-06-23T13:05:39Z</time>
      </trkpt>
      <trkpt lat="40.311483" lon="-4.884950">
        <ele>2506.0</ele>
        <time>2018-06-23T13:05:40Z</time>
      </trkpt>
      <trkpt lat="40.311383" lon="-4.884967">
        <ele>2511.0</ele>
        <time>2018-06-23T13:05:41Z</time>
      </trkpt>
      <trkpt lat="40.311317" lon="-4.885033">
        <ele>2515.0</ele>
        <time>2018-06-23T13:05:42Z</time>
      </trkpt>
      <trkpt lat="40.311250" lon="-4.885133">
        <ele>2518.0</ele>
        <time>2018-06-23T13:05:43Z</time>
      </trkpt>
      <trkpt lat="40.311217" lon="-4.885233">
        <ele>2521.0</ele>
        <time>2018-06-23T13:05:44Z</time>
      </trkpt>
      <trkpt lat="40.311183" lon="-4.885350">
        <ele>2523.0</ele>
        <time>2018-06-23T13:05:45Z</time>
      </trkpt>
      <trkpt lat="40.311200" lon="-4.885467">
        <ele>2524.0</ele>
        <time>2018-06-23T13:05:46Z</time>
      </trkpt>
      <trkpt lat="40.311233" lon="-4.885600">
        <ele>2524.0</ele>
        <time>2018-06-23T13:05:47Z</time>
      </trkpt>
      <trkpt lat="40.311300" lon="-4.885733">
        <ele>2524.0</ele>
        <time>2018-06-23T13:05:48Z</time>
      </trkpt>
      <trkpt lat="40.311400" lon="-4.885817">
        <ele>2525.0</ele>
        <time>2018-06-23T13:05:49Z</time>
      </trkpt>
      <trkpt lat="40.311500" lon="-4.885883">
        <ele>2527.0</ele>
        <time>2018-06-23T13:05:50Z</time>
      </trkpt>
      <trkpt lat="40.311600" lon="-4.885867">
        <ele>2530.0</ele>
        <time>2018-06-23T13:05:51Z</time>
      </trkpt>
      <trkpt lat="40.311700" lon="-4.885817">
        <ele>2532.0</ele>
        <time>2018-06-23T13:05:52Z</time>
      </trkpt>
      <trkpt lat="40.311750" lon="-4.885717">
        <ele>2534.0</ele>
        <time>2018-06-23T13:05:53Z</time>
      </trkpt>
      <trkpt lat="40.311767" lon="-4.885600">
        <ele>2536.0</ele>
        <time>2018-06-23T13:05:54Z</time>
      </trkpt>
      <trkpt lat="40.311750" lon="-4.885483">
        <ele>2539.0</ele>
        <time>2018-06-23T13:05:55Z</time>
      </trkpt>
      <trkpt lat="40.311733" lon="-4.885383">
        <ele>2543.0</ele>
        <time>2018-06-23T13:05:56Z</time>
      </trkpt>
      <trkpt lat="40.311733" lon="-4.885283">
        <ele>2548.0</ele>
        <time>2018-06-23T13:05:57Z</time>
      </trkpt>
      <trkpt lat="40.311733" lon="-4.885217">
        <ele>2552.0</ele>
        <time>2018-06-23T13:05:58Z</time>
      </trkpt>
      <trkpt lat="40.311750" lon="-4.885133">
        <ele>2555.0</ele>
        <time>2018-06-23T13:05:59Z</time>
      </trkpt>
      <trkpt lat="40.311750" lon="-4.885050">
        <ele>2557.0</ele>
        <time>2018-06-23T13:06:00Z</time>
      </trkpt>
      <trkpt lat="40.311750" lon="-4.884950">
        <ele>2559.0</ele>
        <time>2018-06-23T13:06:01Z</time>
      </trkpt>
      <trkpt lat="40.311717" lon="-4.884850">
        <ele>2560.0</ele>
        <time>2018-06-23T13:06:02Z</time>
      </trkpt>
      <trkpt lat="40.311650" lon="-4.884783">
        <ele>2562.0</ele>
        <time>2018-06-23T13:06:03Z</time>
      </trkpt>
      <trkpt lat="40.311550" lon="-4.884767">
        <ele>2564.0</ele>
        <time>2018-06-23T13:06:04Z</time>
      </trkpt>
      <trkpt lat="40.311450" lon="-4.884800">
        <ele>2567.0</ele>
        <time>2018-06-23T13:06:05Z</time>
      </trkpt>
      <trkpt lat="40.311367" lon="-4.884867">
        <ele>2571.0</ele>
        <time>2018-06-23T13:06:06Z</time>
      </trkpt>
      <trkpt lat="40.311317" lon="-4.884967">
        <ele>2576.0</ele>
        <time>2018-06-23T13:06:07Z</time>
      </trkpt>
      <trkpt lat="40.311283" lon="-4.885083">
        <ele>2579.0</ele>
        <time>2018-06-23T13:06:08Z</time>
      </trkpt>
      <trkpt lat="40.311267" lon="-4.885217">
        <ele>2582.0</ele>
        <time>2018-06-23T13:06:09Z</time>
      </trkpt>
      <trkpt lat="40.311283" lon="-4.885350">
        <ele>2583.0</ele>
        <time>2018-06-23T13:06:10Z</time>
      </trkpt>
      <trkpt lat="40.311333" lon="-4.885500">
        <ele>2585.0</ele>
        <time>2018-06-23T13:06:11Z</time>
      </trkpt>
      <trkpt lat="40.311400" lon="-4.885600">
        <ele>2587.0</ele>
        <time>2018-06-23T13:06:12Z</time>
      </trkpt>
      <trkpt lat="40.311517" lon="-4.885667">
        <ele>2588.0</ele>
        <time>2018-06-23T13:06:13Z</time>
      </trkpt>
      <trkpt lat="40.311633" lon="-4.885683">
        <ele>2589.0</ele>
        <time>2018-06-23T13:06:14Z</time>
      </trkpt>
      <trkpt lat="40.311750" lon="-4.885667">
        <ele>2593.0</ele>
        <time>2018-06-23T13:06:15Z</time>
      </trkpt>
      <trkpt lat="40.311850" lon="-4.885617">
        <ele>2598.0</ele>
        <time>2018-06-23T13:06:16Z</time>
      </trkpt>
      <trkpt lat="40.311933" lon="-4.885567">
        <ele>2603.0</ele>
        <time>2018-06-23T13:06:17Z</time>
      </trkpt>
      <trkpt lat="40.312000" lon="-4.885500">
        <ele>2606.0</ele>
        <time>2018-06-23T13:06:18Z</time>
      </trkpt>
      <trkpt lat="40.312067" lon="-4.885417">
        <ele>2609.0</ele>
        <time>2018-06-23T13:06:19Z</time>
      </trkpt>
      <trkpt lat="40.312100" lon="-4.885300">
        <ele>2610.0</ele>
        <time>2018-06-23T13:06:20Z</time>
      </trkpt>
      <trkpt lat="40.312133" lon="-4.885167">
        <ele>2612.0</ele>
        <time>2018-06-23T13:06:21Z</time>
      </trkpt>
      <trkpt lat="40.312133" lon="-4.885017">
        <ele>2613.0</ele>
        <time>2018-06-23T13:06:22Z</time>
      </trkpt>
      <trkpt lat="40.312100" lon="-4.884900">
        <ele>2615.0</ele>
        <time>2018-06-23T13:06:23Z</time>
      </trkpt>
      <trkpt lat="40.312033" lon="-4.884783">
        <ele>2616.0</ele>
        <time>2018-06-23T13:06:24Z</time>
      </trkpt>
      <trkpt lat="40.311933" lon="-4.884700">
        <ele>2618.0</ele>
        <time>2018-06-23T13:06:25Z</time>
      </trkpt>
      <trkpt lat="40.311817" lon="-4.884650">
        <ele>2621.0</ele>
        <time>2018-06-23T13:06:26Z</time>
      </trkpt>
      <trkpt lat="40.311700" lon="-4.884650">
        <ele>2625.0</ele>
        <time>2018-06-23T13:06:27Z</time>
      </trkpt>
      <trkpt lat="40.311600" lon="-4.884683">
        <ele>2629.0</ele>
        <time>2018-06-23T13:06:28Z</time>
      </trkpt>
      <trkpt lat="40.311517" lon="-4.884767">
        <ele>2633.0</ele>
        <time>2018-06-23T13:06:29Z</time>
      </trkpt>
      <trkpt lat="40.311450" lon="-4.884867">
        <ele>2636.0</ele>
        <time>2018-06-23T13:06:30Z</time>
      </trkpt>
      <trkpt lat="40.311417" lon="-4.884967">
        <ele>2638.0</ele>
        <time>2018-06-23T13:06:31Z</time>
      </trkpt>
      <trkpt lat="40.311383" lon="-4.885083">
        <ele>2639.0</ele>
        <time>2018-06-23T13:06:32Z</time>
      </trkpt>
      <trkpt lat="40.311383" lon="-4.885217">
        <ele>2639.0</ele>
        <time>2018-06-23T13:06:33Z</time>
      </trkpt>
      <trkpt lat="40.311417" lon="-4.885350">
        <ele>2640.0</ele>
        <time>2018-06-23T13:06:34Z</time>
      </trkpt>
      <trkpt lat="40.311467" lon="-4.885450">
        <ele>2640.0</ele>
        <time>2018-06-23T13:06:35Z</time>
      </trkpt>
      <trkpt lat="40.311550" lon="-4.885533">
        <ele>2641.0</ele>
        <time>2018-06-23T13:06:36Z</time>
      </trkpt>
      <trkpt lat="40.311667" lon="-4.885567">
        <ele>2644.0</ele>
        <time>2018-06-23T13:06:37Z</time>
      </trkpt>
      <trkpt lat="40.311750" lon="-4.885567">
        <ele>2649.0</ele>
        <time>2018-06-23T13:06:38Z</time>
      </trkpt>
      <trkpt lat="40.311833" lon="-4.885550">
        <ele>2653.0</ele>
        <time>2018-06-23T13:06:39Z</time>
      </trkpt>
      <trkpt lat="40.311900" lon="-4.885483">
        <ele>2657.0</ele>
        <time>2018-06-23T13:06:40Z</time>
      </trkpt>
      <trkpt lat="40.311950" lon="-4.885417">
        <ele>2660.0</ele>
        <time>2018-06-23T13:06:41Z</time>
      </trkpt>
      <trkpt lat="40.312000" lon="-4.885350">
        <ele>2663.0</ele>
        <time>2018-06-23T13:06:42Z</time>
      </trkpt>
      <trkpt lat="40.312050" lon="-4.885267">
        <ele>2664.0</ele>
        <time>2018-06-23T13:06:43Z</time>
      </trkpt>
      <trkpt lat="40.312100" lon="-4.885167">
        <ele>2666.0</ele>
        <time>2018-06-23T13:06:44Z</time>
      </trkpt>
      <trkpt lat="40.312117" lon="-4.885050">
        <ele>2668.0</ele>
        <time>2018-06-23T13:06:45Z</time>
      </trkpt>
      <trkpt lat="40.312100" lon="-4.884917">
        <ele>2669.0</ele>
        <time>2018-06-23T13:06:46Z</time>
      </trkpt>
      <trkpt lat="40.312067" lon="-4.884783">
        <ele>2671.0</ele>
        <time>2018-06-23T13:06:47Z</time>
      </trkpt>
      <trkpt lat="40.312033" lon="-4.884650">
        <ele>2674.0</ele>
        <time>2018-06-23T13:06:48Z</time>
      </trkpt>
      <trkpt lat="40.312017" lon="-4.884500">
        <ele>2677.0</ele>
        <time>2018-06-23T13:06:49Z</time>
      </trkpt>
      <trkpt lat="40.312017" lon="-4.884350">
        <ele>2682.0</ele>
        <time>2018-06-23T13:06:50Z</time>
      </trkpt>
      <trkpt lat="40.312017" lon="-4.884217">
        <ele>2687.0</ele>
        <time>2018-06-23T13:06:51Z</time>
      </trkpt>
      <trkpt lat="40.312033" lon="-4.884100">
        <ele>2692.0</ele>
        <time>2018-06-23T13:06:52Z</time>
      </trkpt>
      <trkpt lat="40.312067" lon="-4.883983">
        <ele>2696.0</ele>
        <time>2018-06-23T13:06:53Z</time>
      </trkpt>
      <trkpt lat="40.312083" lon="-4.883883">
        <ele>2698.0</ele>
        <time>2018-06-23T13:06:54Z</time>
      </trkpt>
      <trkpt lat="40.312100" lon="-4.883767">
        <ele>2700.0</ele>
        <time>2018-06-23T13:06:55Z</time>
      </trkpt>
      <trkpt lat="40.312100" lon="-4.883633">
        <ele>2702.0</ele>
        <time>2018-06-23T13:06:56Z</time>
      </trkpt>
      <trkpt lat="40.312100" lon="-4.883500">
        <ele>2705.0</ele>
        <time>2018-06-23T13:06:57Z</time>
      </trkpt>
      <trkpt lat="40.312083" lon="-4.883367">
        <ele>2707.0</ele>
        <time>2018-06-23T13:06:58Z</time>
      </trkpt>
      <trkpt lat="40.312050" lon="-4.883250">
        <ele>2710.0</ele>
        <time>2018-06-23T13:06:59Z</time>
      </trkpt>
      <trkpt lat="40.311967" lon="-4.883167">
        <ele>2712.0</ele>
        <time>2018-06-23T13:07:00Z</time>
      </trkpt>
      <trkpt lat="40.311867" lon="-4.883117">
        <ele>2714.0</ele>
        <time>2018-06-23T13:07:01Z</time>
      </trkpt>
      <trkpt lat="40.311767" lon="-4.883117">
        <ele>2716.0</ele>
        <time>2018-06-23T13:07:02Z</time>
      </trkpt>
      <trkpt lat="40.311667" lon="-4.883167">
        <ele>2719.0</ele>
        <time>2018-06-23T13:07:03Z</time>
      </trkpt>
      <trkpt lat="40.311583" lon="-4.883250">
        <ele>2721.0</ele>
        <time>2018-06-23T13:07:04Z</time>
      </trkpt>
      <trkpt lat="40.311550" lon="-4.883350">
        <ele>2722.0</ele>
        <time>2018-06-23T13:07:05Z</time>
      </trkpt>
      <trkpt lat="40.311533" lon="-4.883467">
        <ele>2720.0</ele>
        <time>2018-06-23T13:07:06Z</time>
      </trkpt>
      <trkpt lat="40.311567" lon="-4.883583">
        <ele>2719.0</ele>
        <time>2018-06-23T13:07:07Z</time>
      </trkpt>
      <trkpt lat="40.311617" lon="-4.883683">
        <ele>2718.0</ele>
        <time>2018-06-23T13:07:08Z</time>
      </trkpt>
      <trkpt lat="40.311683" lon="-4.883767">
        <ele>2717.0</ele>
        <time>2018-06-23T13:07:09Z</time>
      </trkpt>
      <trkpt lat="40.311750" lon="-4.883833">
        <ele>2717.0</ele>
        <time>2018-06-23T13:07:10Z</time>
      </trkpt>
      <trkpt lat="40.311817" lon="-4.883883">
        <ele>2717.0</ele>
        <time>2018-06-23T13:07:11Z</time>
      </trkpt>
      <trkpt lat="40.311917" lon="-4.883900">
        <ele>2716.0</ele>
        <time>2018-06-23T13:07:12Z</time>
      </trkpt>
      <trkpt lat="40.312017" lon="-4.883900">
        <ele>2717.0</ele>
        <time>2018-06-23T13:07:13Z</time>
      </trkpt>
      <trkpt lat="40.312100" lon="-4.883867">
        <ele>2718.0</ele>
        <time>2018-06-23T13:07:14Z</time>
      </trkpt>
      <trkpt lat="40.312200" lon="-4.883800">
        <ele>2719.0</ele>
        <time>2018-06-23T13:07:15Z</time>
      </trkpt>
      <trkpt lat="40.312283" lon="-4.883717">
        <ele>2722.0</ele>
        <time>2018-06-23T13:07:16Z</time>
      </trkpt>
      <trkpt lat="40.312350" lon="-4.883617">
        <ele>2724.0</ele>
        <time>2018-06-23T13:07:17Z</time>
      </trkpt>
      <trkpt lat="40.312417" lon="-4.883517">
        <ele>2727.0</ele>
        <time>2018-06-23T13:07:18Z</time>
      </trkpt>
      <trkpt lat="40.312467" lon="-4.883417">
        <ele>2729.0</ele>
        <time>2018-06-23T13:07:19Z</time>
      </trkpt>
      <trkpt lat="40.312517" lon="-4.883300">
        <ele>2731.0</ele>
        <time>2018-06-23T13:07:20Z</time>
      </trkpt>
      <trkpt lat="40.312583" lon="-4.883183">
        <ele>2733.0</ele>
        <time>2018-06-23T13:07:21Z</time>
      </trkpt>
      <trkpt lat="40.312617" lon="-4.883067">
        <ele>2734.0</ele>
        <time>2018-06-23T13:07:22Z</time>
      </trkpt>
      <trkpt lat="40.312650" lon="-4.882933">
        <ele>2737.0</ele>
        <time>2018-06-23T13:07:23Z</time>
      </trkpt>
      <trkpt lat="40.312650" lon="-4.882783">
        <ele>2739.0</ele>
        <time>2018-06-23T13:07:24Z</time>
      </trkpt>
      <trkpt lat="40.312633" lon="-4.882650">
        <ele>2741.0</ele>
        <time>2018-06-23T13:07:25Z</time>
      </trkpt>
      <trkpt lat="40.312600" lon="-4.882550">
        <ele>2741.0</ele>
        <time>2018-06-23T13:07:26Z</time>
      </trkpt>
      <trkpt lat="40.312550" lon="-4.882450">
        <ele>2740.0</ele>
        <time>2018-06-23T13:07:27Z</time>
      </trkpt>
      <trkpt lat="40.312500" lon="-4.882350">
        <ele>2738.0</ele>
        <time>2018-06-23T13:07:28Z</time>
      </trkpt>
      <trkpt lat="40.312450" lon="-4.882250">
        <ele>2736.0</ele>
        <time>2018-06-23T13:07:29Z</time>
      </trkpt>
      <trkpt lat="40.312400" lon="-4.882117">
        <ele>2735.0</ele>
        <time>2018-06-23T13:07:30Z</time>
      </trkpt>
      <trkpt lat="40.312367" lon="-4.882000">
        <ele>2734.0</ele>
        <time>2018-06-23T13:07:31Z</time>
      </trkpt>
      <trkpt lat="40.312333" lon="-4.881883">
        <ele>2732.0</ele>
        <time>2018-06-23T13:07:32Z</time>
      </trkpt>
      <trkpt lat="40.312283" lon="-4.881767">
        <ele>2730.0</ele>
        <time>2018-06-23T13:07:33Z</time>
      </trkpt>
      <trkpt lat="40.312233" lon="-4.881667">
        <ele>2727.0</ele>
        <time>2018-06-23T13:07:34Z</time>
      </trkpt>
      <trkpt lat="40.312167" lon="-4.881533">
        <ele>2724.0</ele>
        <time>2018-06-23T13:07:35Z</time>
      </trkpt>
      <trkpt lat="40.312117" lon="-4.881400">
        <ele>2720.0</ele>
        <time>2018-06-23T13:07:36Z</time>
      </trkpt>
      <trkpt lat="40.312083" lon="-4.881267">
        <ele>2718.0</ele>
        <time>2018-06-23T13:07:37Z</time>
      </trkpt>
      <trkpt lat="40.312033" lon="-4.881117">
        <ele>2716.0</ele>
        <time>2018-06-23T13:07:38Z</time>
      </trkpt>
      <trkpt lat="40.311983" lon="-4.880983">
        <ele>2715.0</ele>
        <time>2018-06-23T13:07:39Z</time>
      </trkpt>
      <trkpt lat="40.311933" lon="-4.880867">
        <ele>2713.0</ele>
        <time>2018-06-23T13:07:40Z</time>
      </trkpt>
      <trkpt lat="40.311883" lon="-4.880750">
        <ele>2712.0</ele>
        <time>2018-06-23T13:07:41Z</time>
      </trkpt>
      <trkpt lat="40.311833" lon="-4.880617">
        <ele>2709.0</ele>
        <time>2018-06-23T13:07:42Z</time>
      </trkpt>
      <trkpt lat="40.311767" lon="-4.880483">
        <ele>2707.0</ele>
        <time>2018-06-23T13:07:43Z</time>
      </trkpt>
      <trkpt lat="40.311717" lon="-4.880350">
        <ele>2704.0</ele>
        <time>2018-06-23T13:07:44Z</time>
      </trkpt>
      <trkpt lat="40.311667" lon="-4.880217">
        <ele>2702.0</ele>
        <time>2018-06-23T13:07:45Z</time>
      </trkpt>
      <trkpt lat="40.311633" lon="-4.880083">
        <ele>2701.0</ele>
        <time>2018-06-23T13:07:46Z</time>
      </trkpt>
      <trkpt lat="40.311600" lon="-4.879933">
        <ele>2699.0</ele>
        <time>2018-06-23T13:07:47Z</time>
      </trkpt>
      <trkpt lat="40.311583" lon="-4.879800">
        <ele>2697.0</ele>
        <time>2018-06-23T13:07:48Z</time>
      </trkpt>
      <trkpt lat="40.311550" lon="-4.879667">
        <ele>2695.0</ele>
        <time>2018-06-23T13:07:49Z</time>
      </trkpt>
      <trkpt lat="40.311517" lon="-4.879517">
        <ele>2692.0</ele>
        <time>2018-06-23T13:07:50Z</time>
      </trkpt>
      <trkpt lat="40.311483" lon="-4.879367">
        <ele>2691.0</ele>
        <time>2018-06-23T13:07:51Z</time>
      </trkpt>
      <trkpt lat="40.311433" lon="-4.879217">
        <ele>2690.0</ele>
        <time>2018-06-23T13:07:52Z</time>
      </trkpt>
      <trkpt lat="40.311400" lon="-4.879083">
        <ele>2689.0</ele>
        <time>2018-06-23T13:07:53Z</time>
      </trkpt>
      <trkpt lat="40.311350" lon="-4.878950">
        <ele>2688.0</ele>
        <time>2018-06-23T13:07:54Z</time>
      </trkpt>
      <trkpt lat="40.311317" lon="-4.878817">
        <ele>2686.0</ele>
        <time>2018-06-23T13:07:55Z</time>
      </trkpt>
      <trkpt lat="40.311267" lon="-4.878683">
        <ele>2684.0</ele>
        <time>2018-06-23T13:07:56Z</time>
      </trkpt>
      <trkpt lat="40.311233" lon="-4.878550">
        <ele>2681.0</ele>
        <time>2018-06-23T13:07:57Z</time>
      </trkpt>
      <trkpt lat="40.311183" lon="-4.878400">
        <ele>2679.0</ele>
        <time>2018-06-23T13:07:58Z</time>
      </trkpt>
      <trkpt lat="40.311133" lon="-4.878267">
        <ele>2677.0</ele>
        <time>2018-06-23T13:07:59Z</time>
      </trkpt>
      <trkpt lat="40.311083" lon="-4.878133">
        <ele>2675.0</ele>
        <time>2018-06-23T13:08:00Z</time>
      </trkpt>
      <trkpt lat="40.311050" lon="-4.877983">
        <ele>2674.0</ele>
        <time>2018-06-23T13:08:01Z</time>
      </trkpt>
      <trkpt lat="40.311000" lon="-4.877850">
        <ele>2672.0</ele>
        <time>2018-06-23T13:08:02Z</time>
      </trkpt>
      <trkpt lat="40.310967" lon="-4.877700">
        <ele>2670.0</ele>
        <time>2018-06-23T13:08:03Z</time>
      </trkpt>
      <trkpt lat="40.310917" lon="-4.877567">
        <ele>2668.0</ele>
        <time>2018-06-23T13:08:04Z</time>
      </trkpt>
      <trkpt lat="40.310883" lon="-4.877417">
        <ele>2666.0</ele>
        <time>2018-06-23T13:08:05Z</time>
      </trkpt>
      <trkpt lat="40.310833" lon="-4.877267">
        <ele>2665.0</ele>
        <time>2018-06-23T13:08:06Z</time>
      </trkpt>
      <trkpt lat="40.310800" lon="-4.877133">
        <ele>2664.0</ele>
        <time>2018-06-23T13:08:07Z</time>
      </trkpt>
      <trkpt lat="40.310767" lon="-4.876983">
        <ele>2662.0</ele>
        <time>2018-06-23T13:08:08Z</time>
      </trkpt>
      <trkpt lat="40.310733" lon="-4.876850">
        <ele>2660.0</ele>
        <time>2018-06-23T13:08:09Z</time>
      </trkpt>
      <trkpt lat="40.310683" lon="-4.876717">
        <ele>2658.0</ele>
        <time>2018-06-23T13:08:10Z</time>
      </trkpt>
      <trkpt lat="40.310650" lon="-4.876567">
        <ele>2656.0</ele>
        <time>2018-06-23T13:08:11Z</time>
      </trkpt>
      <trkpt lat="40.310617" lon="-4.876417">
        <ele>2655.0</ele>
        <time>2018-06-23T13:08:12Z</time>
      </trkpt>
      <trkpt lat="40.310583" lon="-4.876283">
        <ele>2654.0</ele>
        <time>2018-06-23T13:08:13Z</time>
      </trkpt>
      <trkpt lat="40.310550" lon="-4.876150">
        <ele>2653.0</ele>
        <time>2018-06-23T13:08:14Z</time>
      </trkpt>
      <trkpt lat="40.310517" lon="-4.876000">
        <ele>2651.0</ele>
        <time>2018-06-23T13:08:15Z</time>
      </trkpt>
      <trkpt lat="40.310483" lon="-4.875867">
        <ele>2650.0</ele>
        <time>2018-06-23T13:08:16Z</time>
      </trkpt>
      <trkpt lat="40.310433" lon="-4.875733">
        <ele>2648.0</ele>
        <time>2018-06-23T13:08:17Z</time>
      </trkpt>
      <trkpt lat="40.310400" lon="-4.875600">
        <ele>2648.0</ele>
        <time>2018-06-23T13:08:18Z</time>
      </trkpt>
      <trkpt lat="40.310367" lon="-4.875450">
        <ele>2647.0</ele>
        <time>2018-06-23T13:08:19Z</time>
      </trkpt>
      <trkpt lat="40.310333" lon="-4.875317">
        <ele>2647.0</ele>
        <time>2018-06-23T13:08:20Z</time>
      </trkpt>
      <trkpt lat="40.310317" lon="-4.875200">
        <ele>2646.0</ele>
        <time>2018-06-23T13:08:21Z</time>
      </trkpt>
      <trkpt lat="40.310283" lon="-4.875067">
        <ele>2644.0</ele>
        <time>2018-06-23T13:08:22Z</time>
      </trkpt>
      <trkpt lat="40.310250" lon="-4.874933">
        <ele>2643.0</ele>
        <time>2018-06-23T13:08:23Z</time>
      </trkpt>
      <trkpt lat="40.310217" lon="-4.874800">
        <ele>2641.0</ele>
        <time>2018-06-23T13:08:24Z</time>
      </trkpt>
      <trkpt lat="40.310200" lon="-4.874667">
        <ele>2640.0</ele>
        <time>2018-06-23T13:08:25Z</time>
      </trkpt>
      <trkpt lat="40.310183" lon="-4.874550">
        <ele>2639.0</ele>
        <time>2018-06-23T13:08:26Z</time>
      </trkpt>
      <trkpt lat="40.310150" lon="-4.874450">
        <ele>2638.0</ele>
        <time>2018-06-23T13:08:27Z</time>
      </trkpt>
      <trkpt lat="40.310133" lon="-4.874333">
        <ele>2636.0</ele>
        <time>2018-06-23T13:08:28Z</time>
      </trkpt>
      <trkpt lat="40.310117" lon="-4.874233">
        <ele>2635.0</ele>
        <time>2018-06-23T13:08:29Z</time>
      </trkpt>
      <trkpt lat="40.310100" lon="-4.874150">
        <ele>2633.0</ele>
        <time>2018-06-23T13:08:30Z</time>
      </trkpt>
      <trkpt lat="40.310067" lon="-4.874050">
        <ele>2633.0</ele>
        <time>2018-06-23T13:08:31Z</time>
      </trkpt>
      <trkpt lat="40.310033" lon="-4.873967">
        <ele>2633.0</ele>
        <time>2018-06-23T13:08:32Z</time>
      </trkpt>
      <trkpt lat="40.310000" lon="-4.873867">
        <ele>2633.0</ele>
        <time>2018-06-23T13:08:33Z</time>
      </trkpt>
      <trkpt lat="40.309983" lon="-4.873783">
        <ele>2633.0</ele>
        <time>2018-06-23T13:08:34Z</time>
      </trkpt>
      <trkpt lat="40.309967" lon="-4.873700">
        <ele>2633.0</ele>
        <time>2018-06-23T13:08:35Z</time>
      </trkpt>
      <trkpt lat="40.309950" lon="-4.873617">
        <ele>2633.0</ele>
        <time>2018-06-23T13:08:36Z</time>
      </trkpt>
      <trkpt lat="40.309933" lon="-4.873517">
        <ele>2633.0</ele>
        <time>2018-06-23T13:08:37Z</time>
      </trkpt>
      <trkpt lat="40.309917" lon="-4.873417">
        <ele>2634.0</ele>
        <time>2018-06-23T13:08:38Z</time>
      </trkpt>
      <trkpt lat="40.309900" lon="-4.873333">
        <ele>2635.0</ele>
        <time>2018-06-23T13:08:39Z</time>
      </trkpt>
      <trkpt lat="40.309867" lon="-4.873267">
        <ele>2635.0</ele>
        <time>2018-06-23T13:08:40Z</time>
      </trkpt>
      <trkpt lat="40.309817" lon="-4.873217">
        <ele>2634.0</ele>
        <time>2018-06-23T13:08:41Z</time>
      </trkpt>
      <trkpt lat="40.309733" lon="-4.873200">
        <ele>2634.0</ele>
        <time>2018-06-23T13:08:42Z</time>
      </trkpt>
      <trkpt lat="40.309650" lon="-4.873233">
        <ele>2633.0</ele>
        <time>2018-06-23T13:08:43Z</time>
      </trkpt>
      <trkpt lat="40.309583" lon="-4.873283">
        <ele>2632.0</ele>
        <time>2018-06-23T13:08:44Z</time>
      </trkpt>
      <trkpt lat="40.309517" lon="-4.873367">
        <ele>2630.0</ele>
        <time>2018-06-23T13:08:45Z</time>
      </trkpt>
      <trkpt lat="40.309483" lon="-4.873500">
        <ele>2630.0</ele>
        <time>2018-06-23T13:08:46Z</time>
      </trkpt>
      <trkpt lat="40.309467" lon="-4.873650">
        <ele>2629.0</ele>
        <time>2018-06-23T13:08:47Z</time>
      </trkpt>
      <trkpt lat="40.309483" lon="-4.873800">
        <ele>2628.0</ele>
        <time>2018-06-23T13:08:48Z</time>
      </trkpt>
      <trkpt lat="40.309550" lon="-4.873933">
        <ele>2627.0</ele>
        <time>2018-06-23T13:08:49Z</time>
      </trkpt>
      <trkpt lat="40.309617" lon="-4.874067">
        <ele>2626.0</ele>
        <time>2018-06-23T13:08:50Z</time>
      </trkpt>
      <trkpt lat="40.309700" lon="-4.874167">
        <ele>2627.0</ele>
        <time>2018-06-23T13:08:51Z</time>
      </trkpt>
      <trkpt lat="40.309783" lon="-4.874250">
        <ele>2627.0</ele>
        <time>2018-06-23T13:08:52Z</time>
      </trkpt>
      <trkpt lat="40.309867" lon="-4.874300">
        <ele>2628.0</ele>
        <time>2018-06-23T13:08:53Z</time>
      </trkpt>
      <trkpt lat="40.309950" lon="-4.874367">
        <ele>2628.0</ele>
        <time>2018-06-23T13:08:54Z</time>
      </trkpt>
      <trkpt lat="40.310050" lon="-4.874417">
        <ele>2628.0</ele>
        <time>2018-06-23T13:08:55Z</time>
      </trkpt>
      <trkpt lat="40.310133" lon="-4.874467">
        <ele>2628.0</ele>
        <time>2018-06-23T13:08:56Z</time>
      </trkpt>
      <trkpt lat="40.310217" lon="-4.874483">
        <ele>2627.0</ele>
        <time>2018-06-23T13:08:57Z</time>
      </trkpt>
      <trkpt lat="40.310317" lon="-4.874483">
        <ele>2626.0</ele>
        <time>2018-06-23T13:08:58Z</time>
      </trkpt>
      <trkpt lat="40.310400" lon="-4.874433">
        <ele>2623.0</ele>
        <time>2018-06-23T13:08:59Z</time>
      </trkpt>
      <trkpt lat="40.310483" lon="-4.874367">
        <ele>2620.0</ele>
        <time>2018-06-23T13:09:00Z</time>
      </trkpt>
      <trkpt lat="40.310517" lon="-4.874250">
        <ele>2617.0</ele>
        <time>2018-06-23T13:09:01Z</time>
      </trkpt>
      <trkpt lat="40.310533" lon="-4.874117">
        <ele>2615.0</ele>
        <time>2018-06-23T13:09:02Z</time>
      </trkpt>
      <trkpt lat="40.310517" lon="-4.873983">
        <ele>2613.0</ele>
        <time>2018-06-23T13:09:03Z</time>
      </trkpt>
      <trkpt lat="40.310500" lon="-4.873850">
        <ele>2614.0</ele>
        <time>2018-06-23T13:09:04Z</time>
      </trkpt>
      <trkpt lat="40.310467" lon="-4.873733">
        <ele>2613.0</ele>
        <time>2018-06-23T13:09:05Z</time>
      </trkpt>
      <trkpt lat="40.310433" lon="-4.873633">
        <ele>2615.0</ele>
        <time>2018-06-23T13:09:06Z</time>
      </trkpt>
      <trkpt lat="40.310400" lon="-4.873533">
        <ele>2616.0</ele>
        <time>2018-06-23T13:09:07Z</time>
      </trkpt>
      <trkpt lat="40.310383" lon="-4.873417">
        <ele>2616.0</ele>
        <time>2018-06-23T13:09:08Z</time>
      </trkpt>
      <trkpt lat="40.310350" lon="-4.873317">
        <ele>2618.0</ele>
        <time>2018-06-23T13:09:09Z</time>
      </trkpt>
      <trkpt lat="40.310333" lon="-4.873200">
        <ele>2620.0</ele>
        <time>2018-06-23T13:09:10Z</time>
      </trkpt>
      <trkpt lat="40.310300" lon="-4.873083">
        <ele>2622.0</ele>
        <time>2018-06-23T13:09:11Z</time>
      </trkpt>
      <trkpt lat="40.310283" lon="-4.872950">
        <ele>2624.0</ele>
        <time>2018-06-23T13:09:12Z</time>
      </trkpt>
      <trkpt lat="40.310267" lon="-4.872833">
        <ele>2627.0</ele>
        <time>2018-06-23T13:09:13Z</time>
      </trkpt>
      <trkpt lat="40.310250" lon="-4.872717">
        <ele>2630.0</ele>
        <time>2018-06-23T13:09:14Z</time>
      </trkpt>
      <trkpt lat="40.310233" lon="-4.872633">
        <ele>2632.0</ele>
        <time>2018-06-23T13:09:15Z</time>
      </trkpt>
      <trkpt lat="40.310183" lon="-4.872550">
        <ele>2633.0</ele>
        <time>2018-06-23T13:09:16Z</time>
      </trkpt>
      <trkpt lat="40.310133" lon="-4.872500">
        <ele>2633.0</ele>
        <time>2018-06-23T13:09:17Z</time>
      </trkpt>
      <trkpt lat="40.310033" lon="-4.872500">
        <ele>2632.0</ele>
        <time>2018-06-23T13:09:18Z</time>
      </trkpt>
      <trkpt lat="40.309950" lon="-4.872533">
        <ele>2632.0</ele>
        <time>2018-06-23T13:09:19Z</time>
      </trkpt>
      <trkpt lat="40.309900" lon="-4.872617">
        <ele>2630.0</ele>
        <time>2018-06-23T13:09:20Z</time>
      </trkpt>
      <trkpt lat="40.309867" lon="-4.872733">
        <ele>2630.0</ele>
        <time>2018-06-23T13:09:21Z</time>
      </trkpt>
      <trkpt lat="40.309883" lon="-4.872867">
        <ele>2631.0</ele>
        <time>2018-06-23T13:09:22Z</time>
      </trkpt>
      <trkpt lat="40.309933" lon="-4.873000">
        <ele>2632.0</ele>
        <time>2018-06-23T13:09:23Z</time>
      </trkpt>
      <trkpt lat="40.310000" lon="-4.873100">
        <ele>2634.0</ele>
        <time>2018-06-23T13:09:24Z</time>
      </trkpt>
      <trkpt lat="40.310083" lon="-4.873183">
        <ele>2637.0</ele>
        <time>2018-06-23T13:09:25Z</time>
      </trkpt>
      <trkpt lat="40.310183" lon="-4.873233">
        <ele>2643.0</ele>
        <time>2018-06-23T13:09:26Z</time>
      </trkpt>
      <trkpt lat="40.310283" lon="-4.873267">
        <ele>2646.0</ele>
        <time>2018-06-23T13:09:27Z</time>
      </trkpt>
      <trkpt lat="40.310367" lon="-4.873283">
        <ele>2648.0</ele>
        <time>2018-06-23T13:09:28Z</time>
      </trkpt>
      <trkpt lat="40.310467" lon="-4.873300">
        <ele>2651.0</ele>
        <time>2018-06-23T13:09:29Z</time>
      </trkpt>
      <trkpt lat="40.310583" lon="-4.873300">
        <ele>2655.0</ele>
        <time>2018-06-23T13:09:30Z</time>
      </trkpt>
      <trkpt lat="40.310683" lon="-4.873300">
        <ele>2658.0</ele>
        <time>2018-06-23T13:09:31Z</time>
      </trkpt>
      <trkpt lat="40.310783" lon="-4.873283">
        <ele>2661.0</ele>
        <time>2018-06-23T13:09:32Z</time>
      </trkpt>
      <trkpt lat="40.310867" lon="-4.873233">
        <ele>2663.0</ele>
        <time>2018-06-23T13:09:33Z</time>
      </trkpt>
      <trkpt lat="40.310967" lon="-4.873167">
        <ele>2665.0</ele>
        <time>2018-06-23T13:09:34Z</time>
      </trkpt>
      <trkpt lat="40.311067" lon="-4.873083">
        <ele>2667.0</ele>
        <time>2018-06-23T13:09:35Z</time>
      </trkpt>
      <trkpt lat="40.311167" lon="-4.872983">
        <ele>2668.0</ele>
        <time>2018-06-23T13:09:36Z</time>
      </trkpt>
      <trkpt lat="40.311250" lon="-4.872867">
        <ele>2671.0</ele>
        <time>2018-06-23T13:09:37Z</time>
      </trkpt>
      <trkpt lat="40.311283" lon="-4.872750">
        <ele>2673.0</ele>
        <time>2018-06-23T13:09:38Z</time>
      </trkpt>
      <trkpt lat="40.311317" lon="-4.872617">
        <ele>2675.0</ele>
        <time>2018-06-23T13:09:39Z</time>
      </trkpt>
      <trkpt lat="40.311317" lon="-4.872483">
        <ele>2676.0</ele>
        <time>2018-06-23T13:09:40Z</time>
      </trkpt>
      <trkpt lat="40.311333" lon="-4.872367">
        <ele>2677.0</ele>
        <time>2018-06-23T13:09:41Z</time>
      </trkpt>
      <trkpt lat="40.311333" lon="-4.872250">
        <ele>2678.0</ele>
        <time>2018-06-23T13:09:42Z</time>
      </trkpt>
      <trkpt lat="40.311317" lon="-4.872150">
        <ele>2679.0</ele>
        <time>2018-06-23T13:09:43Z</time>
      </trkpt>
      <trkpt lat="40.311300" lon="-4.872033">
        <ele>2679.0</ele>
        <time>2018-06-23T13:09:44Z</time>
      </trkpt>
      <trkpt lat="40.311283" lon="-4.871917">
        <ele>2679.0</ele>
        <time>2018-06-23T13:09:45Z</time>
      </trkpt>
      <trkpt lat="40.311250" lon="-4.871817">
        <ele>2678.0</ele>
        <time>2018-06-23T13:09:46Z</time>
      </trkpt>
      <trkpt lat="40.311200" lon="-4.871717">
        <ele>2678.0</ele>
        <time>2018-06-23T13:09:47Z</time>
      </trkpt>
      <trkpt lat="40.311150" lon="-4.871617">
        <ele>2679.0</ele>
        <time>2018-06-23T13:09:48Z</time>
      </trkpt>
      <trkpt lat="40.311117" lon="-4.871517">
        <ele>2678.0</ele>
        <time>2018-06-23T13:09:49Z</time>
      </trkpt>
      <trkpt lat="40.311100" lon="-4.871400">
        <ele>2679.0</ele>
        <time>2018-06-23T13:09:50Z</time>
      </trkpt>
      <trkpt lat="40.311083" lon="-4.871283">
        <ele>2679.0</ele>
        <time>2018-06-23T13:09:51Z</time>
      </trkpt>
      <trkpt lat="40.311067" lon="-4.871167">
        <ele>2680.0</ele>
        <time>2018-06-23T13:09:52Z</time>
      </trkpt>
      <trkpt lat="40.311067" lon="-4.871067">
        <ele>2680.0</ele>
        <time>2018-06-23T13:09:53Z</time>
      </trkpt>
      <trkpt lat="40.311033" lon="-4.870967">
        <ele>2681.0</ele>
        <time>2018-06-23T13:09:54Z</time>
      </trkpt>
      <trkpt lat="40.311000" lon="-4.870867">
        <ele>2682.0</ele>
        <time>2018-06-23T13:09:55Z</time>
      </trkpt>
      <trkpt lat="40.310983" lon="-4.870767">
        <ele>2683.0</ele>
        <time>2018-06-23T13:09:56Z</time>
      </trkpt>
      <trkpt lat="40.310967" lon="-4.870650">
        <ele>2683.0</ele>
        <time>2018-06-23T13:09:57Z</time>
      </trkpt>
      <trkpt lat="40.310950" lon="-4.870533">
        <ele>2684.0</ele>
        <time>2018-06-23T13:09:58Z</time>
      </trkpt>
      <trkpt lat="40.310933" lon="-4.870417">
        <ele>2685.0</ele>
        <time>2018-06-23T13:09:59Z</time>
      </trkpt>
      <trkpt lat="40.310900" lon="-4.870300">
        <ele>2684.0</ele>
        <time>2018-06-23T13:10:00Z</time>
      </trkpt>
      <trkpt lat="40.310867" lon="-4.870183">
        <ele>2684.0</ele>
        <time>2018-06-23T13:10:01Z</time>
      </trkpt>
      <trkpt lat="40.310833" lon="-4.870050">
        <ele>2683.0</ele>
        <time>2018-06-23T13:10:02Z</time>
      </trkpt>
      <trkpt lat="40.310817" lon="-4.869933">
        <ele>2683.0</ele>
        <time>2018-06-23T13:10:03Z</time>
      </trkpt>
      <trkpt lat="40.310783" lon="-4.869800">
        <ele>2682.0</ele>
        <time>2018-06-23T13:10:04Z</time>
      </trkpt>
      <trkpt lat="40.310767" lon="-4.869683">
        <ele>2682.0</ele>
        <time>2018-06-23T13:10:05Z</time>
      </trkpt>
      <trkpt lat="40.310733" lon="-4.869567">
        <ele>2681.0</ele>
        <time>2018-06-23T13:10:06Z</time>
      </trkpt>
      <trkpt lat="40.310700" lon="-4.869450">
        <ele>2679.0</ele>
        <time>2018-06-23T13:10:07Z</time>
      </trkpt>
      <trkpt lat="40.310667" lon="-4.869333">
        <ele>2677.0</ele>
        <time>2018-06-23T13:10:08Z</time>
      </trkpt>
      <trkpt lat="40.310633" lon="-4.869217">
        <ele>2675.0</ele>
        <time>2018-06-23T13:10:09Z</time>
      </trkpt>
      <trkpt lat="40.310600" lon="-4.869100">
        <ele>2672.0</ele>
        <time>2018-06-23T13:10:10Z</time>
      </trkpt>
      <trkpt lat="40.310567" lon="-4.868983">
        <ele>2669.0</ele>
        <time>2018-06-23T13:10:11Z</time>
      </trkpt>
      <trkpt lat="40.310533" lon="-4.868867">
        <ele>2667.0</ele>
        <time>2018-06-23T13:10:12Z</time>
      </trkpt>
      <trkpt lat="40.310500" lon="-4.868750">
        <ele>2664.0</ele>
        <time>2018-06-23T13:10:13Z</time>
      </trkpt>
      <trkpt lat="40.310467" lon="-4.868617">
        <ele>2662.0</ele>
        <time>2018-06-23T13:10:14Z</time>
      </trkpt>
      <trkpt lat="40.310433" lon="-4.868483">
        <ele>2659.0</ele>
        <time>2018-06-23T13:10:15Z</time>
      </trkpt>
      <trkpt lat="40.310400" lon="-4.868350">
        <ele>2657.0</ele>
        <time>2018-06-23T13:10:16Z</time>
      </trkpt>
      <trkpt lat="40.310383" lon="-4.868217">
        <ele>2654.0</ele>
        <time>2018-06-23T13:10:17Z</time>
      </trkpt>
      <trkpt lat="40.310367" lon="-4.868067">
        <ele>2653.0</ele>
        <time>2018-06-23T13:10:18Z</time>
      </trkpt>
      <trkpt lat="40.310350" lon="-4.867917">
        <ele>2651.0</ele>
        <time>2018-06-23T13:10:19Z</time>
      </trkpt>
      <trkpt lat="40.310333" lon="-4.867783">
        <ele>2650.0</ele>
        <time>2018-06-23T13:10:20Z</time>
      </trkpt>
      <trkpt lat="40.310300" lon="-4.867633">
        <ele>2649.0</ele>
        <time>2018-06-23T13:10:21Z</time>
      </trkpt>
      <trkpt lat="40.310267" lon="-4.867517">
        <ele>2649.0</ele>
        <time>2018-06-23T13:10:22Z</time>
      </trkpt>
      <trkpt lat="40.310233" lon="-4.867400">
        <ele>2649.0</ele>
        <time>2018-06-23T13:10:23Z</time>
      </trkpt>
      <trkpt lat="40.310200" lon="-4.867300">
        <ele>2648.0</ele>
        <time>2018-06-23T13:10:24Z</time>
      </trkpt>
      <trkpt lat="40.310167" lon="-4.867183">
        <ele>2647.0</ele>
        <time>2018-06-23T13:10:25Z</time>
      </trkpt>
      <trkpt lat="40.310150" lon="-4.867067">
        <ele>2645.0</ele>
        <time>2018-06-23T13:10:26Z</time>
      </trkpt>
      <trkpt lat="40.310133" lon="-4.866933">
        <ele>2644.0</ele>
        <time>2018-06-23T13:10:27Z</time>
      </trkpt>
      <trkpt lat="40.310100" lon="-4.866800">
        <ele>2642.0</ele>
        <time>2018-06-23T13:10:28Z</time>
      </trkpt>
      <trkpt lat="40.310083" lon="-4.866667">
        <ele>2641.0</ele>
        <time>2018-06-23T13:10:29Z</time>
      </trkpt>
      <trkpt lat="40.310050" lon="-4.866533">
        <ele>2640.0</ele>
        <time>2018-06-23T13:10:30Z</time>
      </trkpt>
      <trkpt lat="40.310017" lon="-4.866400">
        <ele>2639.0</ele>
        <time>2018-06-23T13:10:31Z</time>
      </trkpt>
      <trkpt lat="40.309983" lon="-4.866267">
        <ele>2637.0</ele>
        <time>2018-06-23T13:10:32Z</time>
      </trkpt>
      <trkpt lat="40.309950" lon="-4.866133">
        <ele>2635.0</ele>
        <time>2018-06-23T13:10:33Z</time>
      </trkpt>
      <trkpt lat="40.309917" lon="-4.866000">
        <ele>2634.0</ele>
        <time>2018-06-23T13:10:34Z</time>
      </trkpt>
      <trkpt lat="40.309883" lon="-4.865867">
        <ele>2633.0</ele>
        <time>2018-06-23T13:10:35Z</time>
      </trkpt>
      <trkpt lat="40.309850" lon="-4.865733">
        <ele>2632.0</ele>
        <time>2018-06-23T13:10:36Z</time>
      </trkpt>
      <trkpt lat="40.309817" lon="-4.865600">
        <ele>2630.0</ele>
        <time>2018-06-23T13:10:37Z</time>
      </trkpt>
      <trkpt lat="40.309800" lon="-4.865467">
        <ele>2629.0</ele>
        <time>2018-06-23T13:10:38Z</time>
      </trkpt>
      <trkpt lat="40.309767" lon="-4.865317">
        <ele>2627.0</ele>
        <time>2018-06-23T13:10:39Z</time>
      </trkpt>
      <trkpt lat="40.309733" lon="-4.865183">
        <ele>2625.0</ele>
        <time>2018-06-23T13:10:40Z</time>
      </trkpt>
      <trkpt lat="40.309717" lon="-4.865050">
        <ele>2624.0</ele>
        <time>2018-06-23T13:10:41Z</time>
      </trkpt>
      <trkpt lat="40.309700" lon="-4.864917">
        <ele>2622.0</ele>
        <time>2018-06-23T13:10:42Z</time>
      </trkpt>
      <trkpt lat="40.309683" lon="-4.864783">
        <ele>2620.0</ele>
        <time>2018-06-23T13:10:43Z</time>
      </trkpt>
      <trkpt lat="40.309667" lon="-4.864650">
        <ele>2617.0</ele>
        <time>2018-06-23T13:10:44Z</time>
      </trkpt>
      <trkpt lat="40.309667" lon="-4.864517">
        <ele>2613.0</ele>
        <time>2018-06-23T13:10:45Z</time>
      </trkpt>
      <trkpt lat="40.309650" lon="-4.864383">
        <ele>2609.0</ele>
        <time>2018-06-23T13:10:46Z</time>
      </trkpt>
      <trkpt lat="40.309633" lon="-4.864250">
        <ele>2606.0</ele>
        <time>2018-06-23T13:10:47Z</time>
      </trkpt>
      <trkpt lat="40.309617" lon="-4.864117">
        <ele>2604.0</ele>
        <time>2018-06-23T13:10:48Z</time>
      </trkpt>
      <trkpt lat="40.309600" lon="-4.863983">
        <ele>2601.0</ele>
        <time>2018-06-23T13:10:49Z</time>
      </trkpt>
      <trkpt lat="40.309583" lon="-4.863850">
        <ele>2598.0</ele>
        <time>2018-06-23T13:10:50Z</time>
      </trkpt>
      <trkpt lat="40.309583" lon="-4.863733">
        <ele>2594.0</ele>
        <time>2018-06-23T13:10:51Z</time>
      </trkpt>
      <trkpt lat="40.309567" lon="-4.863617">
        <ele>2591.0</ele>
        <time>2018-06-23T13:10:52Z</time>
      </trkpt>
      <trkpt lat="40.309533" lon="-4.863500">
        <ele>2586.0</ele>
        <time>2018-06-23T13:10:53Z</time>
      </trkpt>
      <trkpt lat="40.309500" lon="-4.863350">
        <ele>2583.0</ele>
        <time>2018-06-23T13:10:54Z</time>
      </trkpt>
      <trkpt lat="40.309483" lon="-4.863217">
        <ele>2581.0</ele>
        <time>2018-06-23T13:10:55Z</time>
      </trkpt>
      <trkpt lat="40.309450" lon="-4.863067">
        <ele>2579.0</ele>
        <time>2018-06-23T13:10:56Z</time>
      </trkpt>
      <trkpt lat="40.309417" lon="-4.862917">
        <ele>2577.0</ele>
        <time>2018-06-23T13:10:57Z</time>
      </trkpt>
      <trkpt lat="40.309383" lon="-4.862783">
        <ele>2574.0</ele>
        <time>2018-06-23T13:10:58Z</time>
      </trkpt>
      <trkpt lat="40.309350" lon="-4.862633">
        <ele>2571.0</ele>
        <time>2018-06-23T13:10:59Z</time>
      </trkpt>
      <trkpt lat="40.309300" lon="-4.862483">
        <ele>2569.0</ele>
        <time>2018-06-23T13:11:00Z</time>
      </trkpt>
      <trkpt lat="40.309267" lon="-4.862333">
        <ele>2567.0</ele>
        <time>2018-06-23T13:11:01Z</time>
      </trkpt>
      <trkpt lat="40.309217" lon="-4.862183">
        <ele>2566.0</ele>
        <time>2018-06-23T13:11:02Z</time>
      </trkpt>
      <trkpt lat="40.309167" lon="-4.862050">
        <ele>2564.0</ele>
        <time>2018-06-23T13:11:03Z</time>
      </trkpt>
      <trkpt lat="40.309100" lon="-4.861933">
        <ele>2561.0</ele>
        <time>2018-06-23T13:11:04Z</time>
      </trkpt>
      <trkpt lat="40.309033" lon="-4.861800">
        <ele>2559.0</ele>
        <time>2018-06-23T13:11:05Z</time>
      </trkpt>
      <trkpt lat="40.308983" lon="-4.861683">
        <ele>2557.0</ele>
        <time>2018-06-23T13:11:06Z</time>
      </trkpt>
      <trkpt lat="40.308933" lon="-4.861550">
        <ele>2554.0</ele>
        <time>2018-06-23T13:11:07Z</time>
      </trkpt>
      <trkpt lat="40.308900" lon="-4.861400">
        <ele>2552.0</ele>
        <time>2018-06-23T13:11:08Z</time>
      </trkpt>
      <trkpt lat="40.308867" lon="-4.861267">
        <ele>2549.0</ele>
        <time>2018-06-23T13:11:09Z</time>
      </trkpt>
      <trkpt lat="40.308833" lon="-4.861133">
        <ele>2547.0</ele>
        <time>2018-06-23T13:11:10Z</time>
      </trkpt>
      <trkpt lat="40.308800" lon="-4.860983">
        <ele>2545.0</ele>
        <time>2018-06-23T13:11:11Z</time>
      </trkpt>
      <trkpt lat="40.308767" lon="-4.860850">
        <ele>2542.0</ele>
        <time>2018-06-23T13:11:12Z</time>
      </trkpt>
      <trkpt lat="40.308750" lon="-4.860683">
        <ele>2539.0</ele>
        <time>2018-06-23T13:11:13Z</time>
      </trkpt>
      <trkpt lat="40.308733" lon="-4.860533">
        <ele>2535.0</ele>
        <time>2018-06-23T13:11:14Z</time>
      </trkpt>
      <trkpt lat="40.308717" lon="-4.860367">
        <ele>2532.0</ele>
        <time>2018-06-23T13:11:15Z</time>
      </trkpt>
      <trkpt lat="40.308700" lon="-4.860200">
        <ele>2529.0</ele>
        <time>2018-06-23T13:11:16Z</time>
      </trkpt>
      <trkpt lat="40.308667" lon="-4.860033">
        <ele>2526.0</ele>
        <time>2018-06-23T13:11:17Z</time>
      </trkpt>
      <trkpt lat="40.308650" lon="-4.859883">
        <ele>2524.0</ele>
        <time>2018-06-23T13:11:18Z</time>
      </trkpt>
      <trkpt lat="40.308617" lon="-4.859733">
        <ele>2522.0</ele>
        <time>2018-06-23T13:11:19Z</time>
      </trkpt>
      <trkpt lat="40.308583" lon="-4.859600">
        <ele>2519.0</ele>
        <time>2018-06-23T13:11:20Z</time>
      </trkpt>
      <trkpt lat="40.308550" lon="-4.859467">
        <ele>2515.0</ele>
        <time>2018-06-23T13:11:21Z</time>
      </trkpt>
      <trkpt lat="40.308517" lon="-4.859317">
        <ele>2511.0</ele>
        <time>2018-06-23T13:11:22Z</time>
      </trkpt>
      <trkpt lat="40.308483" lon="-4.859167">
        <ele>2508.0</ele>
        <time>2018-06-23T13:11:23Z</time>
      </trkpt>
      <trkpt lat="40.308450" lon="-4.859017">
        <ele>2504.0</ele>
        <time>2018-06-23T13:11:24Z</time>
      </trkpt>
      <trkpt lat="40.308417" lon="-4.858867">
        <ele>2501.0</ele>
        <time>2018-06-23T13:11:25Z</time>
      </trkpt>
      <trkpt lat="40.308383" lon="-4.858717">
        <ele>2499.0</ele>
        <time>2018-06-23T13:11:26Z</time>
      </trkpt>
      <trkpt lat="40.308350" lon="-4.858583">
        <ele>2497.0</ele>
        <time>2018-06-23T13:11:27Z</time>
      </trkpt>
      <trkpt lat="40.308317" lon="-4.858450">
        <ele>2496.0</ele>
        <time>2018-06-23T13:11:28Z</time>
      </trkpt>
      <trkpt lat="40.308283" lon="-4.858333">
        <ele>2494.0</ele>
        <time>2018-06-23T13:11:29Z</time>
      </trkpt>
      <trkpt lat="40.308250" lon="-4.858217">
        <ele>2492.0</ele>
        <time>2018-06-23T13:11:30Z</time>
      </trkpt>
      <trkpt lat="40.308217" lon="-4.858083">
        <ele>2490.0</ele>
        <time>2018-06-23T13:11:31Z</time>
      </trkpt>
      <trkpt lat="40.308167" lon="-4.857950">
        <ele>2487.0</ele>
        <time>2018-06-23T13:11:32Z</time>
      </trkpt>
      <trkpt lat="40.308133" lon="-4.857817">
        <ele>2484.0</ele>
        <time>2018-06-23T13:11:33Z</time>
      </trkpt>
      <trkpt lat="40.308100" lon="-4.857683">
        <ele>2482.0</ele>
        <time>2018-06-23T13:11:34Z</time>
      </trkpt>
      <trkpt lat="40.308067" lon="-4.857533">
        <ele>2481.0</ele>
        <time>2018-06-23T13:11:35Z</time>
      </trkpt>
      <trkpt lat="40.308033" lon="-4.857400">
        <ele>2480.0</ele>
        <time>2018-06-23T13:11:36Z</time>
      </trkpt>
      <trkpt lat="40.308017" lon="-4.857267">
        <ele>2479.0</ele>
        <time>2018-06-23T13:11:37Z</time>
      </trkpt>
      <trkpt lat="40.307983" lon="-4.857150">
        <ele>2477.0</ele>
        <time>2018-06-23T13:11:38Z</time>
      </trkpt>
      <trkpt lat="40.307967" lon="-4.857033">
        <ele>2476.0</ele>
        <time>2018-06-23T13:11:39Z</time>
      </trkpt>
      <trkpt lat="40.307950" lon="-4.856900">
        <ele>2473.0</ele>
        <time>2018-06-23T13:11:40Z</time>
      </trkpt>
      <trkpt lat="40.307933" lon="-4.856767">
        <ele>2471.0</ele>
        <time>2018-06-23T13:11:41Z</time>
      </trkpt>
      <trkpt lat="40.307900" lon="-4.856633">
        <ele>2469.0</ele>
        <time>2018-06-23T13:11:42Z</time>
      </trkpt>
      <trkpt lat="40.307883" lon="-4.856483">
        <ele>2467.0</ele>
        <time>2018-06-23T13:11:43Z</time>
      </trkpt>
      <trkpt lat="40.307867" lon="-4.856350">
        <ele>2466.0</ele>
        <time>2018-06-23T13:11:44Z</time>
      </trkpt>
      <trkpt lat="40.307833" lon="-4.856233">
        <ele>2464.0</ele>
        <time>2018-06-23T13:11:45Z</time>
      </trkpt>
      <trkpt lat="40.307800" lon="-4.856100">
        <ele>2462.0</ele>
        <time>2018-06-23T13:11:46Z</time>
      </trkpt>
      <trkpt lat="40.307767" lon="-4.855983">
        <ele>2460.0</ele>
        <time>2018-06-23T13:11:47Z</time>
      </trkpt>
      <trkpt lat="40.307733" lon="-4.855867">
        <ele>2458.0</ele>
        <time>2018-06-23T13:11:48Z</time>
      </trkpt>
      <trkpt lat="40.307683" lon="-4.855733">
        <ele>2457.0</ele>
        <time>2018-06-23T13:11:49Z</time>
      </trkpt>
      <trkpt lat="40.307633" lon="-4.855617">
        <ele>2455.0</ele>
        <time>2018-06-23T13:11:50Z</time>
      </trkpt>
      <trkpt lat="40.307583" lon="-4.855483">
        <ele>2454.0</ele>
        <time>2018-06-23T13:11:51Z</time>
      </trkpt>
      <trkpt lat="40.307533" lon="-4.855367">
        <ele>2452.0</ele>
        <time>2018-06-23T13:11:52Z</time>
      </trkpt>
      <trkpt lat="40.307483" lon="-4.855250">
        <ele>2451.0</ele>
        <time>2018-06-23T13:11:53Z</time>
      </trkpt>
      <trkpt lat="40.307450" lon="-4.855117">
        <ele>2449.0</ele>
        <time>2018-06-23T13:11:54Z</time>
      </trkpt>
      <trkpt lat="40.307400" lon="-4.855000">
        <ele>2448.0</ele>
        <time>2018-06-23T13:11:55Z</time>
      </trkpt>
      <trkpt lat="40.307367" lon="-4.854867">
        <ele>2446.0</ele>
        <time>2018-06-23T13:11:56Z</time>
      </trkpt>
      <trkpt lat="40.307333" lon="-4.854750">
        <ele>2445.0</ele>
        <time>2018-06-23T13:11:57Z</time>
      </trkpt>
      <trkpt lat="40.307300" lon="-4.854633">
        <ele>2443.0</ele>
        <time>2018-06-23T13:11:58Z</time>
      </trkpt>
      <trkpt lat="40.307267" lon="-4.854500">
        <ele>2442.0</ele>
        <time>2018-06-23T13:11:59Z</time>
      </trkpt>
      <trkpt lat="40.307233" lon="-4.854383">
        <ele>2440.0</ele>
        <time>2018-06-23T13:12:00Z</time>
      </trkpt>
      <trkpt lat="40.307200" lon="-4.854267">
        <ele>2439.0</ele>
        <time>2018-06-23T13:12:01Z</time>
      </trkpt>
      <trkpt lat="40.307150" lon="-4.854133">
        <ele>2437.0</ele>
        <time>2018-06-23T13:12:02Z</time>
      </trkpt>
      <trkpt lat="40.307117" lon="-4.854017">
        <ele>2436.0</ele>
        <time>2018-06-23T13:12:03Z</time>
      </trkpt>
      <trkpt lat="40.307083" lon="-4.853900">
        <ele>2434.0</ele>
        <time>2018-06-23T13:12:04Z</time>
      </trkpt>
      <trkpt lat="40.307067" lon="-4.853767">
        <ele>2432.0</ele>
        <time>2018-06-23T13:12:05Z</time>
      </trkpt>
      <trkpt lat="40.307033" lon="-4.853650">
        <ele>2430.0</ele>
        <time>2018-06-23T13:12:06Z</time>
      </trkpt>
      <trkpt lat="40.307000" lon="-4.853517">
        <ele>2429.0</ele>
        <time>2018-06-23T13:12:07Z</time>
      </trkpt>
      <trkpt lat="40.306967" lon="-4.853383">
        <ele>2427.0</ele>
        <time>2018-06-23T13:12:08Z</time>
      </trkpt>
      <trkpt lat="40.306933" lon="-4.853267">
        <ele>2426.0</ele>
        <time>2018-06-23T13:12:09Z</time>
      </trkpt>
      <trkpt lat="40.306917" lon="-4.853133">
        <ele>2425.0</ele>
        <time>2018-06-23T13:12:10Z</time>
      </trkpt>
      <trkpt lat="40.306883" lon="-4.853017">
        <ele>2424.0</ele>
        <time>2018-06-23T13:12:11Z</time>
      </trkpt>
      <trkpt lat="40.306867" lon="-4.852883">
        <ele>2423.0</ele>
        <time>2018-06-23T13:12:12Z</time>
      </trkpt>
      <trkpt lat="40.306850" lon="-4.852767">
        <ele>2422.0</ele>
        <time>2018-06-23T13:12:13Z</time>
      </trkpt>
      <trkpt lat="40.306833" lon="-4.852633">
        <ele>2421.0</ele>
        <time>2018-06-23T13:12:14Z</time>
      </trkpt>
      <trkpt lat="40.306817" lon="-4.852500">
        <ele>2420.0</ele>
        <time>2018-06-23T13:12:15Z</time>
      </trkpt>
      <trkpt lat="40.306800" lon="-4.852367">
        <ele>2419.0</ele>
        <time>2018-06-23T13:12:16Z</time>
      </trkpt>
      <trkpt lat="40.306767" lon="-4.852250">
        <ele>2418.0</ele>
        <time>2018-06-23T13:12:17Z</time>
      </trkpt>
      <trkpt lat="40.306750" lon="-4.852117">
        <ele>2417.0</ele>
        <time>2018-06-23T13:12:18Z</time>
      </trkpt>
      <trkpt lat="40.306733" lon="-4.851983">
        <ele>2417.0</ele>
        <time>2018-06-23T13:12:19Z</time>
      </trkpt>
      <trkpt lat="40.306700" lon="-4.851850">
        <ele>2417.0</ele>
        <time>2018-06-23T13:12:20Z</time>
      </trkpt>
      <trkpt lat="40.306683" lon="-4.851717">
        <ele>2416.0</ele>
        <time>2018-06-23T13:12:21Z</time>
      </trkpt>
      <trkpt lat="40.306650" lon="-4.851600">
        <ele>2415.0</ele>
        <time>2018-06-23T13:12:22Z</time>
      </trkpt>
      <trkpt lat="40.306617" lon="-4.851467">
        <ele>2414.0</ele>
        <time>2018-06-23T13:12:23Z</time>
      </trkpt>
      <trkpt lat="40.306600" lon="-4.851333">
        <ele>2413.0</ele>
        <time>2018-06-23T13:12:24Z</time>
      </trkpt>
      <trkpt lat="40.306567" lon="-4.851183">
        <ele>2413.0</ele>
        <time>2018-06-23T13:12:25Z</time>
      </trkpt>
      <trkpt lat="40.306533" lon="-4.851050">
        <ele>2413.0</ele>
        <time>2018-06-23T13:12:26Z</time>
      </trkpt>
      <trkpt lat="40.306500" lon="-4.850933">
        <ele>2412.0</ele>
        <time>2018-06-23T13:12:27Z</time>
      </trkpt>
      <trkpt lat="40.306467" lon="-4.850817">
        <ele>2411.0</ele>
        <time>2018-06-23T13:12:28Z</time>
      </trkpt>
      <trkpt lat="40.306433" lon="-4.850683">
        <ele>2410.0</ele>
        <time>2018-06-23T13:12:29Z</time>
      </trkpt>
      <trkpt lat="40.306400" lon="-4.850550">
        <ele>2409.0</ele>
        <time>2018-06-23T13:12:30Z</time>
      </trkpt>
      <trkpt lat="40.306367" lon="-4.850433">
        <ele>2408.0</ele>
        <time>2018-06-23T13:12:31Z</time>
      </trkpt>
      <trkpt lat="40.306333" lon="-4.850300">
        <ele>2407.0</ele>
        <time>2018-06-23T13:12:32Z</time>
      </trkpt>
      <trkpt lat="40.306300" lon="-4.850150">
        <ele>2406.0</ele>
        <time>2018-06-23T13:12:33Z</time>
      </trkpt>
      <trkpt lat="40.306267" lon="-4.850017">
        <ele>2405.0</ele>
        <time>2018-06-23T13:12:34Z</time>
      </trkpt>
      <trkpt lat="40.306233" lon="-4.849883">
        <ele>2404.0</ele>
        <time>2018-06-23T13:12:35Z</time>
      </trkpt>
      <trkpt lat="40.306200" lon="-4.849733">
        <ele>2403.0</ele>
        <time>2018-06-23T13:12:36Z</time>
      </trkpt>
      <trkpt lat="40.306167" lon="-4.849600">
        <ele>2402.0</ele>
        <time>2018-06-23T13:12:37Z</time>
      </trkpt>
      <trkpt lat="40.306133" lon="-4.849467">
        <ele>2402.0</ele>
        <time>2018-06-23T13:12:38Z</time>
      </trkpt>
      <trkpt lat="40.306117" lon="-4.849333">
        <ele>2401.0</ele>
        <time>2018-06-23T13:12:39Z</time>
      </trkpt>
      <trkpt lat="40.306083" lon="-4.849200">
        <ele>2400.0</ele>
        <time>2018-06-23T13:12:40Z</time>
      </trkpt>
      <trkpt lat="40.306050" lon="-4.849050">
        <ele>2398.0</ele>
        <time>2018-06-23T13:12:41Z</time>
      </trkpt>
      <trkpt lat="40.306017" lon="-4.848917">
        <ele>2397.0</ele>
        <time>2018-06-23T13:12:42Z</time>
      </trkpt>
      <trkpt lat="40.306000" lon="-4.848783">
        <ele>2396.0</ele>
        <time>2018-06-23T13:12:43Z</time>
      </trkpt>
      <trkpt lat="40.305967" lon="-4.848633">
        <ele>2395.0</ele>
        <time>2018-06-23T13:12:44Z</time>
      </trkpt>
      <trkpt lat="40.305950" lon="-4.848500">
        <ele>2393.0</ele>
        <time>2018-06-23T13:12:45Z</time>
      </trkpt>
      <trkpt lat="40.305933" lon="-4.848350">
        <ele>2392.0</ele>
        <time>2018-06-23T13:12:46Z</time>
      </trkpt>
      <trkpt lat="40.305917" lon="-4.848217">
        <ele>2391.0</ele>
        <time>2018-06-23T13:12:47Z</time>
      </trkpt>
      <trkpt lat="40.305900" lon="-4.848067">
        <ele>2389.0</ele>
        <time>2018-06-23T13:12:48Z</time>
      </trkpt>
      <trkpt lat="40.305867" lon="-4.847933">
        <ele>2388.0</ele>
        <time>2018-06-23T13:12:49Z</time>
      </trkpt>
      <trkpt lat="40.305850" lon="-4.847783">
        <ele>2386.0</ele>
        <time>2018-06-23T13:12:50Z</time>
      </trkpt>
      <trkpt lat="40.305833" lon="-4.847650">
        <ele>2385.0</ele>
        <time>2018-06-23T13:12:51Z</time>
      </trkpt>
      <trkpt lat="40.305817" lon="-4.847517">
        <ele>2383.0</ele>
        <time>2018-06-23T13:12:52Z</time>
      </trkpt>
      <trkpt lat="40.305800" lon="-4.847383">
        <ele>2381.0</ele>
        <time>2018-06-23T13:12:53Z</time>
      </trkpt>
      <trkpt lat="40.305800" lon="-4.847233">
        <ele>2380.0</ele>
        <time>2018-06-23T13:12:54Z</time>
      </trkpt>
      <trkpt lat="40.305783" lon="-4.847100">
        <ele>2378.0</ele>
        <time>2018-06-23T13:12:55Z</time>
      </trkpt>
      <trkpt lat="40.305750" lon="-4.846950">
        <ele>2376.0</ele>
        <time>2018-06-23T13:12:56Z</time>
      </trkpt>
      <trkpt lat="40.305733" lon="-4.846817">
        <ele>2375.0</ele>
        <time>2018-06-23T13:12:57Z</time>
      </trkpt>
      <trkpt lat="40.305717" lon="-4.846667">
        <ele>2374.0</ele>
        <time>2018-06-23T13:12:58Z</time>
      </trkpt>
      <trkpt lat="40.305700" lon="-4.846533">
        <ele>2372.0</ele>
        <time>2018-06-23T13:12:59Z</time>
      </trkpt>
      <trkpt lat="40.305683" lon="-4.846400">
        <ele>2370.0</ele>
        <time>2018-06-23T13:13:00Z</time>
      </trkpt>
      <trkpt lat="40.305667" lon="-4.846267">
        <ele>2369.0</ele>
        <time>2018-06-23T13:13:01Z</time>
      </trkpt>
      <trkpt lat="40.305667" lon="-4.846133">
        <ele>2366.0</ele>
        <time>2018-06-23T13:13:02Z</time>
      </trkpt>
      <trkpt lat="40.305650" lon="-4.845983">
        <ele>2365.0</ele>
        <time>2018-06-23T13:13:03Z</time>
      </trkpt>
      <trkpt lat="40.305633" lon="-4.845833">
        <ele>2364.0</ele>
        <time>2018-06-23T13:13:04Z</time>
      </trkpt>
      <trkpt lat="40.305617" lon="-4.845700">
        <ele>2362.0</ele>
        <time>2018-06-23T13:13:05Z</time>
      </trkpt>
      <trkpt lat="40.305600" lon="-4.845567">
        <ele>2360.0</ele>
        <time>2018-06-23T13:13:06Z</time>
      </trkpt>
      <trkpt lat="40.305600" lon="-4.845433">
        <ele>2358.0</ele>
        <time>2018-06-23T13:13:07Z</time>
      </trkpt>
      <trkpt lat="40.305567" lon="-4.845300">
        <ele>2358.0</ele>
        <time>2018-06-23T13:13:08Z</time>
      </trkpt>
      <trkpt lat="40.305550" lon="-4.845167">
        <ele>2356.0</ele>
        <time>2018-06-23T13:13:09Z</time>
      </trkpt>
      <trkpt lat="40.305517" lon="-4.845050">
        <ele>2354.0</ele>
        <time>2018-06-23T13:13:10Z</time>
      </trkpt>
      <trkpt lat="40.305467" lon="-4.844933">
        <ele>2353.0</ele>
        <time>2018-06-23T13:13:11Z</time>
      </trkpt>
      <trkpt lat="40.305417" lon="-4.844817">
        <ele>2352.0</ele>
        <time>2018-06-23T13:13:12Z</time>
      </trkpt>
      <trkpt lat="40.305383" lon="-4.844683">
        <ele>2351.0</ele>
        <time>2018-06-23T13:13:13Z</time>
      </trkpt>
      <trkpt lat="40.305333" lon="-4.844567">
        <ele>2350.0</ele>
        <time>2018-06-23T13:13:14Z</time>
      </trkpt>
      <trkpt lat="40.305283" lon="-4.844433">
        <ele>2350.0</ele>
        <time>2018-06-23T13:13:15Z</time>
      </trkpt>
      <trkpt lat="40.305233" lon="-4.844300">
        <ele>2349.0</ele>
        <time>2018-06-23T13:13:16Z</time>
      </trkpt>
      <trkpt lat="40.305183" lon="-4.844167">
        <ele>2348.0</ele>
        <time>2018-06-23T13:13:17Z</time>
      </trkpt>
      <trkpt lat="40.305150" lon="-4.844050">
        <ele>2348.0</ele>
        <time>2018-06-23T13:13:18Z</time>
      </trkpt>
      <trkpt lat="40.305100" lon="-4.843917">
        <ele>2347.0</ele>
        <time>2018-06-23T13:13:19Z</time>
      </trkpt>
      <trkpt lat="40.305050" lon="-4.843800">
        <ele>2346.0</ele>
        <time>2018-06-23T13:13:20Z</time>
      </trkpt>
      <trkpt lat="40.305000" lon="-4.843667">
        <ele>2346.0</ele>
        <time>2018-06-23T13:13:21Z</time>
      </trkpt>
      <trkpt lat="40.304950" lon="-4.843533">
        <ele>2344.0</ele>
        <time>2018-06-23T13:13:22Z</time>
      </trkpt>
      <trkpt lat="40.304917" lon="-4.843400">
        <ele>2343.0</ele>
        <time>2018-06-23T13:13:23Z</time>
      </trkpt>
      <trkpt lat="40.304867" lon="-4.843267">
        <ele>2342.0</ele>
        <time>2018-06-23T13:13:24Z</time>
      </trkpt>
      <trkpt lat="40.304833" lon="-4.843133">
        <ele>2341.0</ele>
        <time>2018-06-23T13:13:25Z</time>
      </trkpt>
      <trkpt lat="40.304800" lon="-4.843000">
        <ele>2341.0</ele>
        <time>2018-06-23T13:13:26Z</time>
      </trkpt>
      <trkpt lat="40.304767" lon="-4.842883">
        <ele>2341.0</ele>
        <time>2018-06-23T13:13:27Z</time>
      </trkpt>
      <trkpt lat="40.304733" lon="-4.842750">
        <ele>2340.0</ele>
        <time>2018-06-23T13:13:28Z</time>
      </trkpt>
      <trkpt lat="40.304700" lon="-4.842633">
        <ele>2339.0</ele>
        <time>2018-06-23T13:13:29Z</time>
      </trkpt>
      <trkpt lat="40.304667" lon="-4.842500">
        <ele>2338.0</ele>
        <time>2018-06-23T13:13:30Z</time>
      </trkpt>
      <trkpt lat="40.304633" lon="-4.842383">
        <ele>2337.0</ele>
        <time>2018-06-23T13:13:31Z</time>
      </trkpt>
      <trkpt lat="40.304617" lon="-4.842250">
        <ele>2336.0</ele>
        <time>2018-06-23T13:13:32Z</time>
      </trkpt>
      <trkpt lat="40.304583" lon="-4.842117">
        <ele>2335.0</ele>
        <time>2018-06-23T13:13:33Z</time>
      </trkpt>
      <trkpt lat="40.304567" lon="-4.841983">
        <ele>2333.0</ele>
        <time>2018-06-23T13:13:34Z</time>
      </trkpt>
      <trkpt lat="40.304533" lon="-4.841850">
        <ele>2333.0</ele>
        <time>2018-06-23T13:13:35Z</time>
      </trkpt>
      <trkpt lat="40.304500" lon="-4.841717">
        <ele>2331.0</ele>
        <time>2018-06-23T13:13:36Z</time>
      </trkpt>
      <trkpt lat="40.304483" lon="-4.841583">
        <ele>2330.0</ele>
        <time>2018-06-23T13:13:37Z</time>
      </trkpt>
      <trkpt lat="40.304450" lon="-4.841450">
        <ele>2329.0</ele>
        <time>2018-06-23T13:13:38Z</time>
      </trkpt>
      <trkpt lat="40.304433" lon="-4.841317">
        <ele>2329.0</ele>
        <time>2018-06-23T13:13:39Z</time>
      </trkpt>
      <trkpt lat="40.304400" lon="-4.841183">
        <ele>2329.0</ele>
        <time>2018-06-23T13:13:40Z</time>
      </trkpt>
      <trkpt lat="40.304383" lon="-4.841067">
        <ele>2328.0</ele>
        <time>2018-06-23T13:13:41Z</time>
      </trkpt>
      <trkpt lat="40.304350" lon="-4.840933">
        <ele>2328.0</ele>
        <time>2018-06-23T13:13:42Z</time>
      </trkpt>
      <trkpt lat="40.304317" lon="-4.840800">
        <ele>2328.0</ele>
        <time>2018-06-23T13:13:43Z</time>
      </trkpt>
      <trkpt lat="40.304283" lon="-4.840667">
        <ele>2327.0</ele>
        <time>2018-06-23T13:13:44Z</time>
      </trkpt>
      <trkpt lat="40.304250" lon="-4.840533">
        <ele>2327.0</ele>
        <time>2018-06-23T13:13:45Z</time>
      </trkpt>
      <trkpt lat="40.304217" lon="-4.840383">
        <ele>2327.0</ele>
        <time>2018-06-23T13:13:46Z</time>
      </trkpt>
      <trkpt lat="40.304183" lon="-4.840250">
        <ele>2327.0</ele>
        <time>2018-06-23T13:13:47Z</time>
      </trkpt>
      <trkpt lat="40.304133" lon="-4.840117">
        <ele>2326.0</ele>
        <time>2018-06-23T13:13:48Z</time>
      </trkpt>
      <trkpt lat="40.304100" lon="-4.839983">
        <ele>2325.0</ele>
        <time>2018-06-23T13:13:49Z</time>
      </trkpt>
      <trkpt lat="40.304067" lon="-4.839850">
        <ele>2324.0</ele>
        <time>2018-06-23T13:13:50Z</time>
      </trkpt>
      <trkpt lat="40.304033" lon="-4.839717">
        <ele>2324.0</ele>
        <time>2018-06-23T13:13:51Z</time>
      </trkpt>
      <trkpt lat="40.303983" lon="-4.839583">
        <ele>2323.0</ele>
        <time>2018-06-23T13:13:52Z</time>
      </trkpt>
      <trkpt lat="40.303950" lon="-4.839450">
        <ele>2323.0</ele>
        <time>2018-06-23T13:13:53Z</time>
      </trkpt>
      <trkpt lat="40.303917" lon="-4.839317">
        <ele>2323.0</ele>
        <time>2018-06-23T13:13:54Z</time>
      </trkpt>
      <trkpt lat="40.303883" lon="-4.839200">
        <ele>2323.0</ele>
        <time>2018-06-23T13:13:55Z</time>
      </trkpt>
      <trkpt lat="40.303850" lon="-4.839067">
        <ele>2323.0</ele>
        <time>2018-06-23T13:13:56Z</time>
      </trkpt>
      <trkpt lat="40.303833" lon="-4.838933">
        <ele>2322.0</ele>
        <time>2018-06-23T13:13:57Z</time>
      </trkpt>
      <trkpt lat="40.303817" lon="-4.838817">
        <ele>2321.0</ele>
        <time>2018-06-23T13:13:58Z</time>
      </trkpt>
      <trkpt lat="40.303783" lon="-4.838700">
        <ele>2319.0</ele>
        <time>2018-06-23T13:13:59Z</time>
      </trkpt>
      <trkpt lat="40.303750" lon="-4.838583">
        <ele>2318.0</ele>
        <time>2018-06-23T13:14:00Z</time>
      </trkpt>
      <trkpt lat="40.303717" lon="-4.838467">
        <ele>2317.0</ele>
        <time>2018-06-23T13:14:01Z</time>
      </trkpt>
      <trkpt lat="40.303667" lon="-4.838333">
        <ele>2316.0</ele>
        <time>2018-06-23T13:14:02Z</time>
      </trkpt>
      <trkpt lat="40.303617" lon="-4.838217">
        <ele>2316.0</ele>
        <time>2018-06-23T13:14:03Z</time>
      </trkpt>
      <trkpt lat="40.303567" lon="-4.838100">
        <ele>2315.0</ele>
        <time>2018-06-23T13:14:04Z</time>
      </trkpt>
      <trkpt lat="40.303500" lon="-4.838000">
        <ele>2315.0</ele>
        <time>2018-06-23T13:14:05Z</time>
      </trkpt>
      <trkpt lat="40.303450" lon="-4.837883">
        <ele>2314.0</ele>
        <time>2018-06-23T13:14:06Z</time>
      </trkpt>
      <trkpt lat="40.303383" lon="-4.837783">
        <ele>2313.0</ele>
        <time>2018-06-23T13:14:07Z</time>
      </trkpt>
      <trkpt lat="40.303333" lon="-4.837667">
        <ele>2313.0</ele>
        <time>2018-06-23T13:14:08Z</time>
      </trkpt>
      <trkpt lat="40.303283" lon="-4.837550">
        <ele>2312.0</ele>
        <time>2018-06-23T13:14:09Z</time>
      </trkpt>
      <trkpt lat="40.303217" lon="-4.837433">
        <ele>2312.0</ele>
        <time>2018-06-23T13:14:10Z</time>
      </trkpt>
      <trkpt lat="40.303167" lon="-4.837333">
        <ele>2312.0</ele>
        <time>2018-06-23T13:14:11Z</time>
      </trkpt>
      <trkpt lat="40.303100" lon="-4.837217">
        <ele>2311.0</ele>
        <time>2018-06-23T13:14:12Z</time>
      </trkpt>
      <trkpt lat="40.303033" lon="-4.837117">
        <ele>2310.0</ele>
        <time>2018-06-23T13:14:13Z</time>
      </trkpt>
      <trkpt lat="40.302983" lon="-4.837017">
        <ele>2309.0</ele>
        <time>2018-06-23T13:14:14Z</time>
      </trkpt>
      <trkpt lat="40.302900" lon="-4.836900">
        <ele>2308.0</ele>
        <time>2018-06-23T13:14:15Z</time>
      </trkpt>
      <trkpt lat="40.302833" lon="-4.836800">
        <ele>2307.0</ele>
        <time>2018-06-23T13:14:16Z</time>
      </trkpt>
      <trkpt lat="40.302767" lon="-4.836683">
        <ele>2306.0</ele>
        <time>2018-06-23T13:14:17Z</time>
      </trkpt>
      <trkpt lat="40.302717" lon="-4.836567">
        <ele>2306.0</ele>
        <time>2018-06-23T13:14:18Z</time>
      </trkpt>
      <trkpt lat="40.302667" lon="-4.836450">
        <ele>2306.0</ele>
        <time>2018-06-23T13:14:19Z</time>
      </trkpt>
      <trkpt lat="40.302600" lon="-4.836350">
        <ele>2305.0</ele>
        <time>2018-06-23T13:14:20Z</time>
      </trkpt>
      <trkpt lat="40.302533" lon="-4.836250">
        <ele>2304.0</ele>
        <time>2018-06-23T13:14:21Z</time>
      </trkpt>
      <trkpt lat="40.302483" lon="-4.836133">
        <ele>2303.0</ele>
        <time>2018-06-23T13:14:22Z</time>
      </trkpt>
      <trkpt lat="40.302433" lon="-4.836033">
        <ele>2302.0</ele>
        <time>2018-06-23T13:14:23Z</time>
      </trkpt>
      <trkpt lat="40.302367" lon="-4.835917">
        <ele>2301.0</ele>
        <time>2018-06-23T13:14:24Z</time>
      </trkpt>
      <trkpt lat="40.302317" lon="-4.835800">
        <ele>2301.0</ele>
        <time>2018-06-23T13:14:25Z</time>
      </trkpt>
      <trkpt lat="40.302267" lon="-4.835700">
        <ele>2300.0</ele>
        <time>2018-06-23T13:14:26Z</time>
      </trkpt>
      <trkpt lat="40.302200" lon="-4.835600">
        <ele>2300.0</ele>
        <time>2018-06-23T13:14:27Z</time>
      </trkpt>
      <trkpt lat="40.302150" lon="-4.835500">
        <ele>2299.0</ele>
        <time>2018-06-23T13:14:28Z</time>
      </trkpt>
      <trkpt lat="40.302100" lon="-4.835400">
        <ele>2298.0</ele>
        <time>2018-06-23T13:14:29Z</time>
      </trkpt>
      <trkpt lat="40.302033" lon="-4.835283">
        <ele>2297.0</ele>
        <time>2018-06-23T13:14:30Z</time>
      </trkpt>
      <trkpt lat="40.301983" lon="-4.835150">
        <ele>2296.0</ele>
        <time>2018-06-23T13:14:31Z</time>
      </trkpt>
      <trkpt lat="40.301933" lon="-4.835033">
        <ele>2296.0</ele>
        <time>2018-06-23T13:14:32Z</time>
      </trkpt>
      <trkpt lat="40.301900" lon="-4.834917">
        <ele>2297.0</ele>
        <time>2018-06-23T13:14:33Z</time>
      </trkpt>
      <trkpt lat="40.301867" lon="-4.834800">
        <ele>2297.0</ele>
        <time>2018-06-23T13:14:34Z</time>
      </trkpt>
      <trkpt lat="40.301833" lon="-4.834700">
        <ele>2296.0</ele>
        <time>2018-06-23T13:14:35Z</time>
      </trkpt>
      <trkpt lat="40.301800" lon="-4.834583">
        <ele>2295.0</ele>
        <time>2018-06-23T13:14:36Z</time>
      </trkpt>
      <trkpt lat="40.301783" lon="-4.834450">
        <ele>2294.0</ele>
        <time>2018-06-23T13:14:37Z</time>
      </trkpt>
      <trkpt lat="40.301750" lon="-4.834317">
        <ele>2292.0</ele>
        <time>2018-06-23T13:14:38Z</time>
      </trkpt>
      <trkpt lat="40.301717" lon="-4.834183">
        <ele>2291.0</ele>
        <time>2018-06-23T13:14:39Z</time>
      </trkpt>
      <trkpt lat="40.301700" lon="-4.834050">
        <ele>2290.0</ele>
        <time>2018-06-23T13:14:40Z</time>
      </trkpt>
      <trkpt lat="40.301683" lon="-4.833933">
        <ele>2289.0</ele>
        <time>2018-06-23T13:14:41Z</time>
      </trkpt>
      <trkpt lat="40.301650" lon="-4.833817">
        <ele>2288.0</ele>
        <time>2018-06-23T13:14:42Z</time>
      </trkpt>
      <trkpt lat="40.301633" lon="-4.833683">
        <ele>2286.0</ele>
        <time>2018-06-23T13:14:43Z</time>
      </trkpt>
      <trkpt lat="40.301600" lon="-4.833567">
        <ele>2284.0</ele>
        <time>2018-06-23T13:14:44Z</time>
      </trkpt>
      <trkpt lat="40.301567" lon="-4.833450">
        <ele>2284.0</ele>
        <time>2018-06-23T13:14:45Z</time>
      </trkpt>
      <trkpt lat="40.301550" lon="-4.833333">
        <ele>2283.0</ele>
        <time>2018-06-23T13:14:46Z</time>
      </trkpt>
      <trkpt lat="40.301517" lon="-4.833217">
        <ele>2282.0</ele>
        <time>2018-06-23T13:14:47Z</time>
      </trkpt>
      <trkpt lat="40.301483" lon="-4.833100">
        <ele>2281.0</ele>
        <time>2018-06-23T13:14:48Z</time>
      </trkpt>
      <trkpt lat="40.301467" lon="-4.832983">
        <ele>2280.0</ele>
        <time>2018-06-23T13:14:49Z</time>
      </trkpt>
      <trkpt lat="40.301450" lon="-4.832867">
        <ele>2279.0</ele>
        <time>2018-06-23T13:14:50Z</time>
      </trkpt>
      <trkpt lat="40.301433" lon="-4.832750">
        <ele>2278.0</ele>
        <time>2018-06-23T13:14:51Z</time>
      </trkpt>
      <trkpt lat="40.301433" lon="-4.832633">
        <ele>2277.0</ele>
        <time>2018-06-23T13:14:52Z</time>
      </trkpt>
      <trkpt lat="40.301433" lon="-4.832517">
        <ele>2277.0</ele>
        <time>2018-06-23T13:14:53Z</time>
      </trkpt>
      <trkpt lat="40.301433" lon="-4.832417">
        <ele>2276.0</ele>
        <time>2018-06-23T13:14:54Z</time>
      </trkpt>
      <trkpt lat="40.301433" lon="-4.832317">
        <ele>2275.0</ele>
        <time>2018-06-23T13:14:55Z</time>
      </trkpt>
      <trkpt lat="40.301433" lon="-4.832217">
        <ele>2274.0</ele>
        <time>2018-06-23T13:14:56Z</time>
      </trkpt>
      <trkpt lat="40.301417" lon="-4.832100">
        <ele>2272.0</ele>
        <time>2018-06-23T13:14:57Z</time>
      </trkpt>
      <trkpt lat="40.301417" lon="-4.831983">
        <ele>2270.0</ele>
        <time>2018-06-23T13:14:58Z</time>
      </trkpt>
      <trkpt lat="40.301417" lon="-4.831867">
        <ele>2270.0</ele>
        <time>2018-06-23T13:14:59Z</time>
      </trkpt>
      <trkpt lat="40.301417" lon="-4.831750">
        <ele>2270.0</ele>
        <time>2018-06-23T13:15:00Z</time>
      </trkpt>
      <trkpt lat="40.301417" lon="-4.831633">
        <ele>2271.0</ele>
        <time>2018-06-23T13:15:01Z</time>
      </trkpt>
      <trkpt lat="40.301417" lon="-4.831533">
        <ele>2272.0</ele>
        <time>2018-06-23T13:15:02Z</time>
      </trkpt>
      <trkpt lat="40.301433" lon="-4.831417">
        <ele>2272.0</ele>
        <time>2018-06-23T13:15:03Z</time>
      </trkpt>
      <trkpt lat="40.301433" lon="-4.831317">
        <ele>2270.0</ele>
        <time>2018-06-23T13:15:04Z</time>
      </trkpt>
      <trkpt lat="40.301433" lon="-4.831217">
        <ele>2269.0</ele>
        <time>2018-06-23T13:15:05Z</time>
      </trkpt>
      <trkpt lat="40.301450" lon="-4.831100">
        <ele>2266.0</ele>
        <time>2018-06-23T13:15:06Z</time>
      </trkpt>
      <trkpt lat="40.301450" lon="-4.830967">
        <ele>2265.0</ele>
        <time>2018-06-23T13:15:07Z</time>
      </trkpt>
      <trkpt lat="40.301433" lon="-4.830850">
        <ele>2263.0</ele>
        <time>2018-06-23T13:15:08Z</time>
      </trkpt>
      <trkpt lat="40.301417" lon="-4.830750">
        <ele>2263.0</ele>
        <time>2018-06-23T13:15:09Z</time>
      </trkpt>
      <trkpt lat="40.301417" lon="-4.830650">
        <ele>2263.0</ele>
        <time>2018-06-23T13:15:10Z</time>
      </trkpt>
      <trkpt lat="40.301400" lon="-4.830567">
        <ele>2263.0</ele>
        <time>2018-06-23T13:15:11Z</time>
      </trkpt>
      <trkpt lat="40.301400" lon="-4.830483">
        <ele>2263.0</ele>
        <time>2018-06-23T13:15:12Z</time>
      </trkpt>
      <trkpt lat="40.301383" lon="-4.830417">
        <ele>2262.0</ele>
        <time>2018-06-23T13:15:13Z</time>
      </trkpt>
      <trkpt lat="40.301333" lon="-4.830333">
        <ele>2260.0</ele>
        <time>2018-06-23T13:15:14Z</time>
      </trkpt>
      <trkpt lat="40.301267" lon="-4.830250">
        <ele>2258.0</ele>
        <time>2018-06-23T13:15:15Z</time>
      </trkpt>
      <trkpt lat="40.301200" lon="-4.830183">
        <ele>2260.0</ele>
        <time>2018-06-23T13:15:16Z</time>
      </trkpt>
      <trkpt lat="40.301117" lon="-4.830117">
        <ele>2262.0</ele>
        <time>2018-06-23T13:15:17Z</time>
      </trkpt>
      <trkpt lat="40.301033" lon="-4.830067">
        <ele>2265.0</ele>
        <time>2018-06-23T13:15:18Z</time>
      </trkpt>
      <trkpt lat="40.300967" lon="-4.830017">
        <ele>2264.0</ele>
        <time>2018-06-23T13:15:19Z</time>
      </trkpt>
      <trkpt lat="40.300900" lon="-4.829950">
        <ele>2263.0</ele>
        <time>2018-06-23T13:15:20Z</time>
      </trkpt>
      <trkpt lat="40.300817" lon="-4.829883">
        <ele>2262.0</ele>
        <time>2018-06-23T13:15:21Z</time>
      </trkpt>
      <trkpt lat="40.300750" lon="-4.829817">
        <ele>2261.0</ele>
        <time>2018-06-23T13:15:22Z</time>
      </trkpt>
      <trkpt lat="40.300667" lon="-4.829767">
        <ele>2260.0</ele>
        <time>2018-06-23T13:15:23Z</time>
      </trkpt>
      <trkpt lat="40.300567" lon="-4.829700">
        <ele>2258.0</ele>
        <time>2018-06-23T13:15:24Z</time>
      </trkpt>
      <trkpt lat="40.300483" lon="-4.829650">
        <ele>2256.0</ele>
        <time>2018-06-23T13:15:25Z</time>
      </trkpt>
      <trkpt lat="40.300383" lon="-4.829583">
        <ele>2254.0</ele>
        <time>2018-06-23T13:15:26Z</time>
      </trkpt>
      <trkpt lat="40.300300" lon="-4.829500">
        <ele>2255.0</ele>
        <time>2018-06-23T13:15:27Z</time>
      </trkpt>
      <trkpt lat="40.300217" lon="-4.829417">
        <ele>2256.0</ele>
        <time>2018-06-23T13:15:28Z</time>
      </trkpt>
      <trkpt lat="40.300150" lon="-4.829350">
        <ele>2259.0</ele>
        <time>2018-06-23T13:15:29Z</time>
      </trkpt>
      <trkpt lat="40.300083" lon="-4.829300">
        <ele>2262.0</ele>
        <time>2018-06-23T13:15:30Z</time>
      </trkpt>
      <trkpt lat="40.300017" lon="-4.829250">
        <ele>2263.0</ele>
        <time>2018-06-23T13:15:31Z</time>
      </trkpt>
      <trkpt lat="40.299967" lon="-4.829183">
        <ele>2264.0</ele>
        <time>2018-06-23T13:15:32Z</time>
      </trkpt>
      <trkpt lat="40.299917" lon="-4.829133">
        <ele>2265.0</ele>
        <time>2018-06-23T13:15:33Z</time>
      </trkpt>
      <trkpt lat="40.299850" lon="-4.829083">
        <ele>2265.0</ele>
        <time>2018-06-23T13:15:34Z</time>
      </trkpt>
      <trkpt lat="40.299783" lon="-4.829033">
        <ele>2264.0</ele>
        <time>2018-06-23T13:15:35Z</time>
      </trkpt>
      <trkpt lat="40.299700" lon="-4.828983">
        <ele>2264.0</ele>
        <time>2018-06-23T13:15:36Z</time>
      </trkpt>
      <trkpt lat="40.299633" lon="-4.828933">
        <ele>2264.0</ele>
        <time>2018-06-23T13:15:37Z</time>
      </trkpt>
      <trkpt lat="40.299567" lon="-4.828867">
        <ele>2264.0</ele>
        <time>2018-06-23T13:15:38Z</time>
      </trkpt>
      <trkpt lat="40.299517" lon="-4.828817">
        <ele>2264.0</ele>
        <time>2018-06-23T13:15:39Z</time>
      </trkpt>
      <trkpt lat="40.299450" lon="-4.828767">
        <ele>2264.0</ele>
        <time>2018-06-23T13:15:40Z</time>
      </trkpt>
      <trkpt lat="40.299400" lon="-4.828717">
        <ele>2264.0</ele>
        <time>2018-06-23T13:15:41Z</time>
      </trkpt>
      <trkpt lat="40.299333" lon="-4.828650">
        <ele>2263.0</ele>
        <time>2018-06-23T13:15:42Z</time>
      </trkpt>
      <trkpt lat="40.299300" lon="-4.828600">
        <ele>2263.0</ele>
        <time>2018-06-23T13:15:43Z</time>
      </trkpt>
      <trkpt lat="40.299250" lon="-4.828533">
        <ele>2263.0</ele>
        <time>2018-06-23T13:15:44Z</time>
      </trkpt>
      <trkpt lat="40.299200" lon="-4.828467">
        <ele>2262.0</ele>
        <time>2018-06-23T13:15:45Z</time>
      </trkpt>
      <trkpt lat="40.299150" lon="-4.828383">
        <ele>2260.0</ele>
        <time>2018-06-23T13:15:46Z</time>
      </trkpt>
      <trkpt lat="40.299100" lon="-4.828317">
        <ele>2259.0</ele>
        <time>2018-06-23T13:15:47Z</time>
      </trkpt>
      <trkpt lat="40.299050" lon="-4.828233">
        <ele>2259.0</ele>
        <time>2018-06-23T13:15:48Z</time>
      </trkpt>
      <trkpt lat="40.299000" lon="-4.828167">
        <ele>2259.0</ele>
        <time>2018-06-23T13:15:49Z</time>
      </trkpt>
      <trkpt lat="40.298967" lon="-4.828117">
        <ele>2259.0</ele>
        <time>2018-06-23T13:15:50Z</time>
      </trkpt>
      <trkpt lat="40.298917" lon="-4.828067">
        <ele>2258.0</ele>
        <time>2018-06-23T13:15:51Z</time>
      </trkpt>
      <trkpt lat="40.298867" lon="-4.828017">
        <ele>2256.0</ele>
        <time>2018-06-23T13:15:52Z</time>
      </trkpt>
      <trkpt lat="40.298817" lon="-4.827967">
        <ele>2253.0</ele>
        <time>2018-06-23T13:15:53Z</time>
      </trkpt>
      <trkpt lat="40.298750" lon="-4.827900">
        <ele>2251.0</ele>
        <time>2018-06-23T13:15:54Z</time>
      </trkpt>
      <trkpt lat="40.298667" lon="-4.827850">
        <ele>2249.0</ele>
        <time>2018-06-23T13:15:55Z</time>
      </trkpt>
      <trkpt lat="40.298600" lon="-4.827817">
        <ele>2247.0</ele>
        <time>2018-06-23T13:15:56Z</time>
      </trkpt>
      <trkpt lat="40.298533" lon="-4.827783">
        <ele>2246.0</ele>
        <time>2018-06-23T13:15:57Z</time>
      </trkpt>
      <trkpt lat="40.298450" lon="-4.827750">
        <ele>2244.0</ele>
        <time>2018-06-23T13:15:58Z</time>
      </trkpt>
      <trkpt lat="40.298383" lon="-4.827717">
        <ele>2243.0</ele>
        <time>2018-06-23T13:15:59Z</time>
      </trkpt>
      <trkpt lat="40.298300" lon="-4.827650">
        <ele>2242.0</ele>
        <time>2018-06-23T13:16:00Z</time>
      </trkpt>
      <trkpt lat="40.298233" lon="-4.827600">
        <ele>2241.0</ele>
        <time>2018-06-23T13:16:01Z</time>
      </trkpt>
      <trkpt lat="40.298167" lon="-4.827567">
        <ele>2240.0</ele>
        <time>2018-06-23T13:16:02Z</time>
      </trkpt>
      <trkpt lat="40.298117" lon="-4.827533">
        <ele>2239.0</ele>
        <time>2018-06-23T13:16:03Z</time>
      </trkpt>
      <trkpt lat="40.298050" lon="-4.827500">
        <ele>2237.0</ele>
        <time>2018-06-23T13:16:04Z</time>
      </trkpt>
      <trkpt lat="40.297983" lon="-4.827433">
        <ele>2234.0</ele>
        <time>2018-06-23T13:16:05Z</time>
      </trkpt>
      <trkpt lat="40.297917" lon="-4.827367">
        <ele>2232.0</ele>
        <time>2018-06-23T13:16:06Z</time>
      </trkpt>
      <trkpt lat="40.297833" lon="-4.827300">
        <ele>2230.0</ele>
        <time>2018-06-23T13:16:07Z</time>
      </trkpt>
      <trkpt lat="40.297767" lon="-4.827250">
        <ele>2228.0</ele>
        <time>2018-06-23T13:16:08Z</time>
      </trkpt>
      <trkpt lat="40.297700" lon="-4.827200">
        <ele>2226.0</ele>
        <time>2018-06-23T13:16:09Z</time>
      </trkpt>
      <trkpt lat="40.297633" lon="-4.827167">
        <ele>2224.0</ele>
        <time>2018-06-23T13:16:10Z</time>
      </trkpt>
      <trkpt lat="40.297550" lon="-4.827133">
        <ele>2222.0</ele>
        <time>2018-06-23T13:16:11Z</time>
      </trkpt>
      <trkpt lat="40.297483" lon="-4.827100">
        <ele>2219.0</ele>
        <time>2018-06-23T13:16:12Z</time>
      </trkpt>
      <trkpt lat="40.297417" lon="-4.827067">
        <ele>2216.0</ele>
        <time>2018-06-23T13:16:13Z</time>
      </trkpt>
      <trkpt lat="40.297350" lon="-4.827000">
        <ele>2214.0</ele>
        <time>2018-06-23T13:16:14Z</time>
      </trkpt>
      <trkpt lat="40.297283" lon="-4.826933">
        <ele>2211.0</ele>
        <time>2018-06-23T13:16:15Z</time>
      </trkpt>
      <trkpt lat="40.297233" lon="-4.826850">
        <ele>2208.0</ele>
        <time>2018-06-23T13:16:16Z</time>
      </trkpt>
      <trkpt lat="40.297167" lon="-4.826767">
        <ele>2205.0</ele>
        <time>2018-06-23T13:16:17Z</time>
      </trkpt>
      <trkpt lat="40.297117" lon="-4.826700">
        <ele>2203.0</ele>
        <time>2018-06-23T13:16:18Z</time>
      </trkpt>
      <trkpt lat="40.297050" lon="-4.826633">
        <ele>2200.0</ele>
        <time>2018-06-23T13:16:19Z</time>
      </trkpt>
      <trkpt lat="40.296983" lon="-4.826567">
        <ele>2198.0</ele>
        <time>2018-06-23T13:16:20Z</time>
      </trkpt>
      <trkpt lat="40.296900" lon="-4.826517">
        <ele>2196.0</ele>
        <time>2018-06-23T13:16:21Z</time>
      </trkpt>
      <trkpt lat="40.296833" lon="-4.826467">
        <ele>2196.0</ele>
        <time>2018-06-23T13:16:22Z</time>
      </trkpt>
      <trkpt lat="40.296767" lon="-4.826433">
        <ele>2197.0</ele>
        <time>2018-06-23T13:16:23Z</time>
      </trkpt>
      <trkpt lat="40.296700" lon="-4.826417">
        <ele>2197.0</ele>
        <time>2018-06-23T13:16:24Z</time>
      </trkpt>
      <trkpt lat="40.296633" lon="-4.826400">
        <ele>2197.0</ele>
        <time>2018-06-23T13:16:25Z</time>
      </trkpt>
      <trkpt lat="40.296583" lon="-4.826383">
        <ele>2196.0</ele>
        <time>2018-06-23T13:16:26Z</time>
      </trkpt>
      <trkpt lat="40.296517" lon="-4.826350">
        <ele>2194.0</ele>
        <time>2018-06-23T13:16:27Z</time>
      </trkpt>
      <trkpt lat="40.296450" lon="-4.826300">
        <ele>2194.0</ele>
        <time>2018-06-23T13:16:28Z</time>
      </trkpt>
      <trkpt lat="40.296383" lon="-4.826250">
        <ele>2193.0</ele>
        <time>2018-06-23T13:16:29Z</time>
      </trkpt>
      <trkpt lat="40.296317" lon="-4.826183">
        <ele>2194.0</ele>
        <time>2018-06-23T13:16:30Z</time>
      </trkpt>
      <trkpt lat="40.296250" lon="-4.826133">
        <ele>2195.0</ele>
        <time>2018-06-23T13:16:31Z</time>
      </trkpt>
      <trkpt lat="40.296200" lon="-4.826100">
        <ele>2196.0</ele>
        <time>2018-06-23T13:16:32Z</time>
      </trkpt>
      <trkpt lat="40.296133" lon="-4.826083">
        <ele>2197.0</ele>
        <time>2018-06-23T13:16:33Z</time>
      </trkpt>
      <trkpt lat="40.296067" lon="-4.826033">
        <ele>2198.0</ele>
        <time>2018-06-23T13:16:34Z</time>
      </trkpt>
      <trkpt lat="40.296017" lon="-4.825983">
        <ele>2199.0</ele>
        <time>2018-06-23T13:16:35Z</time>
      </trkpt>
      <trkpt lat="40.295933" lon="-4.825933">
        <ele>2200.0</ele>
        <time>2018-06-23T13:16:36Z</time>
      </trkpt>
      <trkpt lat="40.295850" lon="-4.825883">
        <ele>2202.0</ele>
        <time>2018-06-23T13:16:37Z</time>
      </trkpt>
      <trkpt lat="40.295767" lon="-4.825850">
        <ele>2204.0</ele>
        <time>2018-06-23T13:16:38Z</time>
      </trkpt>
      <trkpt lat="40.295700" lon="-4.825800">
        <ele>2205.0</ele>
        <time>2018-06-23T13:16:39Z</time>
      </trkpt>
      <trkpt lat="40.295617" lon="-4.825767">
        <ele>2207.0</ele>
        <time>2018-06-23T13:16:40Z</time>
      </trkpt>
      <trkpt lat="40.295550" lon="-4.825717">
        <ele>2208.0</ele>
        <time>2018-06-23T13:16:41Z</time>
      </trkpt>
      <trkpt lat="40.295467" lon="-4.825683">
        <ele>2210.0</ele>
        <time>2018-06-23T13:16:42Z</time>
      </trkpt>
      <trkpt lat="40.295400" lon="-4.825617">
        <ele>2211.0</ele>
        <time>2018-06-23T13:16:43Z</time>
      </trkpt>
      <trkpt lat="40.295333" lon="-4.825567">
        <ele>2212.0</ele>
        <time>2018-06-23T13:16:44Z</time>
      </trkpt>
      <trkpt lat="40.295267" lon="-4.825500">
        <ele>2212.0</ele>
        <time>2018-06-23T13:16:45Z</time>
      </trkpt>
      <trkpt lat="40.295183" lon="-4.825450">
        <ele>2213.0</ele>
        <time>2018-06-23T13:16:46Z</time>
      </trkpt>
      <trkpt lat="40.295100" lon="-4.825383">
        <ele>2214.0</ele>
        <time>2018-06-23T13:16:47Z</time>
      </trkpt>
      <trkpt lat="40.295017" lon="-4.825333">
        <ele>2217.0</ele>
        <time>2018-06-23T13:16:48Z</time>
      </trkpt>
      <trkpt lat="40.294950" lon="-4.825283">
        <ele>2220.0</ele>
        <time>2018-06-23T13:16:49Z</time>
      </trkpt>
      <trkpt lat="40.294883" lon="-4.825217">
        <ele>2224.0</ele>
        <time>2018-06-23T13:16:50Z</time>
      </trkpt>
      <trkpt lat="40.294833" lon="-4.825167">
        <ele>2226.0</ele>
        <time>2018-06-23T13:16:51Z</time>
      </trkpt>
      <trkpt lat="40.294767" lon="-4.825117">
        <ele>2228.0</ele>
        <time>2018-06-23T13:16:52Z</time>
      </trkpt>
      <trkpt lat="40.294717" lon="-4.825067">
        <ele>2229.0</ele>
        <time>2018-06-23T13:16:53Z</time>
      </trkpt>
      <trkpt lat="40.294650" lon="-4.825017">
        <ele>2231.0</ele>
        <time>2018-06-23T13:16:54Z</time>
      </trkpt>
      <trkpt lat="40.294600" lon="-4.824950">
        <ele>2233.0</ele>
        <time>2018-06-23T13:16:55Z</time>
      </trkpt>
      <trkpt lat="40.294533" lon="-4.824883">
        <ele>2235.0</ele>
        <time>2018-06-23T13:16:56Z</time>
      </trkpt>
      <trkpt lat="40.294483" lon="-4.824817">
        <ele>2238.0</ele>
        <time>2018-06-23T13:16:57Z</time>
      </trkpt>
      <trkpt lat="40.294433" lon="-4.824750">
        <ele>2239.0</ele>
        <time>2018-06-23T13:16:58Z</time>
      </trkpt>
      <trkpt lat="40.294383" lon="-4.824683">
        <ele>2241.0</ele>
        <time>2018-06-23T13:16:59Z</time>
      </trkpt>
      <trkpt lat="40.294317" lon="-4.824633">
        <ele>2243.0</ele>
        <time>2018-06-23T13:17:00Z</time>
      </trkpt>
      <trkpt lat="40.294267" lon="-4.824583">
        <ele>2244.0</ele>
        <time>2018-06-23T13:17:01Z</time>
      </trkpt>
      <trkpt lat="40.294217" lon="-4.824517">
        <ele>2244.0</ele>
        <time>2018-06-23T13:17:02Z</time>
      </trkpt>
      <trkpt lat="40.294200" lon="-4.824417">
        <ele>2244.0</ele>
        <time>2018-06-23T13:17:03Z</time>
      </trkpt>
      <trkpt lat="40.294217" lon="-4.824317">
        <ele>2243.0</ele>
        <time>2018-06-23T13:17:04Z</time>
      </trkpt>
      <trkpt lat="40.294267" lon="-4.824200">
        <ele>2242.0</ele>
        <time>2018-06-23T13:17:05Z</time>
      </trkpt>
      <trkpt lat="40.294350" lon="-4.824117">
        <ele>2242.0</ele>
        <time>2018-06-23T13:17:06Z</time>
      </trkpt>
      <trkpt lat="40.294450" lon="-4.824067">
        <ele>2242.0</ele>
        <time>2018-06-23T13:17:07Z</time>
      </trkpt>
      <trkpt lat="40.294550" lon="-4.824050">
        <ele>2242.0</ele>
        <time>2018-06-23T13:17:08Z</time>
      </trkpt>
      <trkpt lat="40.294650" lon="-4.824083">
        <ele>2242.0</ele>
        <time>2018-06-23T13:17:09Z</time>
      </trkpt>
      <trkpt lat="40.294750" lon="-4.824133">
        <ele>2244.0</ele>
        <time>2018-06-23T13:17:10Z</time>
      </trkpt>
      <trkpt lat="40.294850" lon="-4.824217">
        <ele>2245.0</ele>
        <time>2018-06-23T13:17:11Z</time>
      </trkpt>
      <trkpt lat="40.294933" lon="-4.824317">
        <ele>2247.0</ele>
        <time>2018-06-23T13:17:12Z</time>
      </trkpt>
      <trkpt lat="40.295017" lon="-4.824400">
        <ele>2250.0</ele>
        <time>2018-06-23T13:17:13Z</time>
      </trkpt>
      <trkpt lat="40.295083" lon="-4.824500">
        <ele>2252.0</ele>
        <time>2018-06-23T13:17:14Z</time>
      </trkpt>
      <trkpt lat="40.295150" lon="-4.824617">
        <ele>2254.0</ele>
        <time>2018-06-23T13:17:15Z</time>
      </trkpt>
      <trkpt lat="40.295183" lon="-4.824750">
        <ele>2255.0</ele>
        <time>2018-06-23T13:17:16Z</time>
      </trkpt>
      <trkpt lat="40.295200" lon="-4.824900">
        <ele>2256.0</ele>
        <time>2018-06-23T13:17:17Z</time>
      </trkpt>
      <trkpt lat="40.295183" lon="-4.825050">
        <ele>2257.0</ele>
        <time>2018-06-23T13:17:18Z</time>
      </trkpt>
      <trkpt lat="40.295150" lon="-4.825200">
        <ele>2260.0</ele>
        <time>2018-06-23T13:17:19Z</time>
      </trkpt>
      <trkpt lat="40.295083" lon="-4.825317">
        <ele>2263.0</ele>
        <time>2018-06-23T13:17:20Z</time>
      </trkpt>
      <trkpt lat="40.295000" lon="-4.825383">
        <ele>2265.0</ele>
        <time>2018-06-23T13:17:21Z</time>
      </trkpt>
      <trkpt lat="40.294917" lon="-4.825417">
        <ele>2267.0</ele>
        <time>2018-06-23T13:17:22Z</time>
      </trkpt>
      <trkpt lat="40.294833" lon="-4.825417">
        <ele>2267.0</ele>
        <time>2018-06-23T13:17:23Z</time>
      </trkpt>
      <trkpt lat="40.294767" lon="-4.825367">
        <ele>2267.0</ele>
        <time>2018-06-23T13:17:24Z</time>
      </trkpt>
      <trkpt lat="40.294717" lon="-4.825283">
        <ele>2267.0</ele>
        <time>2018-06-23T13:17:25Z</time>
      </trkpt>
      <trkpt lat="40.294700" lon="-4.825183">
        <ele>2267.0</ele>
        <time>2018-06-23T13:17:26Z</time>
      </trkpt>
      <trkpt lat="40.294700" lon="-4.825067">
        <ele>2267.0</ele>
        <time>2018-06-23T13:17:27Z</time>
      </trkpt>
      <trkpt lat="40.294733" lon="-4.824950">
        <ele>2267.0</ele>
        <time>2018-06-23T13:17:28Z</time>
      </trkpt>
      <trkpt lat="40.294783" lon="-4.824850">
        <ele>2268.0</ele>
        <time>2018-06-23T13:17:29Z</time>
      </trkpt>
      <trkpt lat="40.294867" lon="-4.824767">
        <ele>2269.0</ele>
        <time>2018-06-23T13:17:30Z</time>
      </trkpt>
      <trkpt lat="40.294933" lon="-4.824700">
        <ele>2271.0</ele>
        <time>2018-06-23T13:17:31Z</time>
      </trkpt>
      <trkpt lat="40.295017" lon="-4.824650">
        <ele>2273.0</ele>
        <time>2018-06-23T13:17:32Z</time>
      </trkpt>
      <trkpt lat="40.295117" lon="-4.824617">
        <ele>2275.0</ele>
        <time>2018-06-23T13:17:33Z</time>
      </trkpt>
      <trkpt lat="40.295200" lon="-4.824567">
        <ele>2276.0</ele>
        <time>2018-06-23T13:17:34Z</time>
      </trkpt>
      <trkpt lat="40.295267" lon="-4.824517">
        <ele>2277.0</ele>
        <time>2018-06-23T13:17:35Z</time>
      </trkpt>
      <trkpt lat="40.295350" lon="-4.824467">
        <ele>2278.0</ele>
        <time>2018-06-23T13:17:36Z</time>
      </trkpt>
      <trkpt lat="40.295433" lon="-4.824417">
        <ele>2279.0</ele>
        <time>2018-06-23T13:17:37Z</time>
      </trkpt>
      <trkpt lat="40.295533" lon="-4.824400">
        <ele>2280.0</ele>
        <time>2018-06-23T13:17:38Z</time>
      </trkpt>
      <trkpt lat="40.295650" lon="-4.824417">
        <ele>2281.0</ele>
        <time>2018-06-23T13:17:39Z</time>
      </trkpt>
      <trkpt lat="40.295750" lon="-4.824467">
        <ele>2282.0</ele>
        <time>2018-06-23T13:17:40Z</time>
      </trkpt>
      <trkpt lat="40.295850" lon="-4.824567">
        <ele>2283.0</ele>
        <time>2018-06-23T13:17:41Z</time>
      </trkpt>
      <trkpt lat="40.295900" lon="-4.824700">
        <ele>2286.0</ele>
        <time>2018-06-23T13:17:42Z</time>
      </trkpt>
      <trkpt lat="40.295933" lon="-4.824833">
        <ele>2289.0</ele>
        <time>2018-06-23T13:17:43Z</time>
      </trkpt>
      <trkpt lat="40.295933" lon="-4.824967">
        <ele>2292.0</ele>
        <time>2018-06-23T13:17:44Z</time>
      </trkpt>
      <trkpt lat="40.295900" lon="-4.825100">
        <ele>2294.0</ele>
        <time>2018-06-23T13:17:45Z</time>
      </trkpt>
      <trkpt lat="40.295850" lon="-4.825217">
        <ele>2295.0</ele>
        <time>2018-06-23T13:17:46Z</time>
      </trkpt>
      <trkpt lat="40.295767" lon="-4.825300">
        <ele>2297.0</ele>
        <time>2018-06-23T13:17:47Z</time>
      </trkpt>
      <trkpt lat="40.295667" lon="-4.825350">
        <ele>2299.0</ele>
        <time>2018-06-23T13:17:48Z</time>
      </trkpt>
      <trkpt lat="40.295567" lon="-4.825367">
        <ele>2300.0</ele>
        <time>2018-06-23T13:17:49Z</time>
      </trkpt>
      <trkpt lat="40.295483" lon="-4.825333">
        <ele>2302.0</ele>
        <time>2018-06-23T13:17:50Z</time>
      </trkpt>
      <trkpt lat="40.295417" lon="-4.825267">
        <ele>2303.0</ele>
        <time>2018-06-23T13:17:51Z</time>
      </trkpt>
      <trkpt lat="40.295367" lon="-4.825183">
        <ele>2304.0</ele>
        <time>2018-06-23T13:17:52Z</time>
      </trkpt>
      <trkpt lat="40.295350" lon="-4.825100">
        <ele>2305.0</ele>
        <time>2018-06-23T13:17:53Z</time>
      </trkpt>
      <trkpt lat="40.295367" lon="-4.825000">
        <ele>2305.0</ele>
        <time>2018-06-23T13:17:54Z</time>
      </trkpt>
      <trkpt lat="40.295417" lon="-4.824900">
        <ele>2305.0</ele>
        <time>2018-06-23T13:17:55Z</time>
      </trkpt>
      <trkpt lat="40.295500" lon="-4.824817">
        <ele>2305.0</ele>
        <time>2018-06-23T13:17:56Z</time>
      </trkpt>
      <trkpt lat="40.295600" lon="-4.824783">
        <ele>2306.0</ele>
        <time>2018-06-23T13:17:57Z</time>
      </trkpt>
      <trkpt lat="40.295700" lon="-4.824767">
        <ele>2308.0</ele>
        <time>2018-06-23T13:17:58Z</time>
      </trkpt>
      <trkpt lat="40.295800" lon="-4.824783">
        <ele>2310.0</ele>
        <time>2018-06-23T13:17:59Z</time>
      </trkpt>
      <trkpt lat="40.295900" lon="-4.824783">
        <ele>2312.0</ele>
        <time>2018-06-23T13:18:00Z</time>
      </trkpt>
      <trkpt lat="40.295983" lon="-4.824800">
        <ele>2314.0</ele>
        <time>2018-06-23T13:18:01Z</time>
      </trkpt>
      <trkpt lat="40.296050" lon="-4.824817">
        <ele>2316.0</ele>
        <time>2018-06-23T13:18:02Z</time>
      </trkpt>
      <trkpt lat="40.296133" lon="-4.824817">
        <ele>2318.0</ele>
        <time>2018-06-23T13:18:03Z</time>
      </trkpt>
      <trkpt lat="40.296200" lon="-4.824800">
        <ele>2319.0</ele>
        <time>2018-06-23T13:18:04Z</time>
      </trkpt>
      <trkpt lat="40.296283" lon="-4.824800">
        <ele>2321.0</ele>
        <time>2018-06-23T13:18:05Z</time>
      </trkpt>
      <trkpt lat="40.296367" lon="-4.824800">
        <ele>2322.0</ele>
        <time>2018-06-23T13:18:06Z</time>
      </trkpt>
      <trkpt lat="40.296467" lon="-4.824800">
        <ele>2324.0</ele>
        <time>2018-06-23T13:18:07Z</time>
      </trkpt>
      <trkpt lat="40.296567" lon="-4.824850">
        <ele>2326.0</ele>
        <time>2018-06-23T13:18:08Z</time>
      </trkpt>
      <trkpt lat="40.296667" lon="-4.824917">
        <ele>2326.0</ele>
        <time>2018-06-23T13:18:09Z</time>
      </trkpt>
      <trkpt lat="40.296733" lon="-4.825033">
        <ele>2327.0</ele>
        <time>2018-06-23T13:18:10Z</time>
      </trkpt>
      <trkpt lat="40.296783" lon="-4.825167">
        <ele>2328.0</ele>
        <time>2018-06-23T13:18:11Z</time>
      </trkpt>
      <trkpt lat="40.296783" lon="-4.825300">
        <ele>2328.0</ele>
        <time>2018-06-23T13:18:12Z</time>
      </trkpt>
      <trkpt lat="40.296750" lon="-4.825433">
        <ele>2329.0</ele>
        <time>2018-06-23T13:18:13Z</time>
      </trkpt>
      <trkpt lat="40.296700" lon="-4.825567">
        <ele>2330.0</ele>
        <time>2018-06-23T13:18:14Z</time>
      </trkpt>
      <trkpt lat="40.296617" lon="-4.825650">
        <ele>2332.0</ele>
        <time>2018-06-23T13:18:15Z</time>
      </trkpt>
      <trkpt lat="40.296550" lon="-4.825717">
        <ele>2335.0</ele>
        <time>2018-06-23T13:18:16Z</time>
      </trkpt>
      <trkpt lat="40.296467" lon="-4.825733">
        <ele>2336.0</ele>
        <time>2018-06-23T13:18:17Z</time>
      </trkpt>
      <trkpt lat="40.296400" lon="-4.825700">
        <ele>2338.0</ele>
        <time>2018-06-23T13:18:18Z</time>
      </trkpt>
      <trkpt lat="40.296333" lon="-4.825650">
        <ele>2339.0</ele>
        <time>2018-06-23T13:18:19Z</time>
      </trkpt>
      <trkpt lat="40.296267" lon="-4.825550">
        <ele>2340.0</ele>
        <time>2018-06-23T13:18:20Z</time>
      </trkpt>
      <trkpt lat="40.296233" lon="-4.825450">
        <ele>2341.0</ele>
        <time>2018-06-23T13:18:21Z</time>
      </trkpt>
      <trkpt lat="40.296200" lon="-4.825333">
        <ele>2343.0</ele>
        <time>2018-06-23T13:18:22Z</time>
      </trkpt>
      <trkpt lat="40.296200" lon="-4.825217">
        <ele>2345.0</ele>
        <time>2018-06-23T13:18:23Z</time>
      </trkpt>
      <trkpt lat="40.296200" lon="-4.825117">
        <ele>2347.0</ele>
        <time>2018-06-23T13:18:24Z</time>
      </trkpt>
      <trkpt lat="40.296217" lon="-4.825017">
        <ele>2349.0</ele>
        <time>2018-06-23T13:18:25Z</time>
      </trkpt>
      <trkpt lat="40.296250" lon="-4.824933">
        <ele>2350.0</ele>
        <time>2018-06-23T13:18:26Z</time>
      </trkpt>
      <trkpt lat="40.296317" lon="-4.824833">
        <ele>2351.0</ele>
        <time>2018-06-23T13:18:27Z</time>
      </trkpt>
      <trkpt lat="40.296400" lon="-4.824767">
        <ele>2352.0</ele>
        <time>2018-06-23T13:18:28Z</time>
      </trkpt>
      <trkpt lat="40.296467" lon="-4.824700">
        <ele>2354.0</ele>
        <time>2018-06-23T13:18:29Z</time>
      </trkpt>
      <trkpt lat="40.296550" lon="-4.824650">
        <ele>2355.0</ele>
        <time>2018-06-23T13:18:30Z</time>
      </trkpt>
      <trkpt lat="40.296650" lon="-4.824633">
        <ele>2357.0</ele>
        <time>2018-06-23T13:18:31Z</time>
      </trkpt>
      <trkpt lat="40.296750" lon="-4.824633">
        <ele>2357.0</ele>
        <time>2018-06-23T13:18:32Z</time>
      </trkpt>
      <trkpt lat="40.296833" lon="-4.824683">
        <ele>2357.0</ele>
        <time>2018-06-23T13:18:33Z</time>
      </trkpt>
      <trkpt lat="40.296917" lon="-4.824783">
        <ele>2357.0</ele>
        <time>2018-06-23T13:18:34Z</time>
      </trkpt>
      <trkpt lat="40.296967" lon="-4.824900">
        <ele>2356.0</ele>
        <time>2018-06-23T13:18:35Z</time>
      </trkpt>
      <trkpt lat="40.296983" lon="-4.825033">
        <ele>2357.0</ele>
        <time>2018-06-23T13:18:36Z</time>
      </trkpt>
      <trkpt lat="40.296967" lon="-4.825167">
        <ele>2358.0</ele>
        <time>2018-06-23T13:18:37Z</time>
      </trkpt>
      <trkpt lat="40.296933" lon="-4.825267">
        <ele>2360.0</ele>
        <time>2018-06-23T13:18:38Z</time>
      </trkpt>
      <trkpt lat="40.296883" lon="-4.825350">
        <ele>2363.0</ele>
        <time>2018-06-23T13:18:39Z</time>
      </trkpt>
      <trkpt lat="40.296817" lon="-4.825433">
        <ele>2366.0</ele>
        <time>2018-06-23T13:18:40Z</time>
      </trkpt>
      <trkpt lat="40.296750" lon="-4.825483">
        <ele>2368.0</ele>
        <time>2018-06-23T13:18:41Z</time>
      </trkpt>
      <trkpt lat="40.296667" lon="-4.825500">
        <ele>2371.0</ele>
        <time>2018-06-23T13:18:42Z</time>
      </trkpt>
      <trkpt lat="40.296567" lon="-4.825517">
        <ele>2373.0</ele>
        <time>2018-06-23T13:18:43Z</time>
      </trkpt>
      <trkpt lat="40.296500" lon="-4.825483">
        <ele>2375.0</ele>
        <time>2018-06-23T13:18:44Z</time>
      </trkpt>
      <trkpt lat="40.296433" lon="-4.825417">
        <ele>2378.0</ele>
        <time>2018-06-23T13:18:45Z</time>
      </trkpt>
      <trkpt lat="40.296417" lon="-4.825350">
        <ele>2379.0</ele>
        <time>2018-06-23T13:18:46Z</time>
      </trkpt>
      <trkpt lat="40.296400" lon="-4.825250">
        <ele>2380.0</ele>
        <time>2018-06-23T13:18:47Z</time>
      </trkpt>
      <trkpt lat="40.296400" lon="-4.825150">
        <ele>2380.0</ele>
        <time>2018-06-23T13:18:48Z</time>
      </trkpt>
      <trkpt lat="40.296417" lon="-4.825050">
        <ele>2381.0</ele>
        <time>2018-06-23T13:18:49Z</time>
      </trkpt>
      <trkpt lat="40.296450" lon="-4.824967">
        <ele>2383.0</ele>
        <time>2018-06-23T13:18:50Z</time>
      </trkpt>
      <trkpt lat="40.296517" lon="-4.824900">
        <ele>2383.0</ele>
        <time>2018-06-23T13:18:51Z</time>
      </trkpt>
      <trkpt lat="40.296600" lon="-4.824833">
        <ele>2384.0</ele>
        <time>2018-06-23T13:18:52Z</time>
      </trkpt>
      <trkpt lat="40.296683" lon="-4.824783">
        <ele>2385.0</ele>
        <time>2018-06-23T13:18:53Z</time>
      </trkpt>
      <trkpt lat="40.296767" lon="-4.824750">
        <ele>2387.0</ele>
        <time>2018-06-23T13:18:54Z</time>
      </trkpt>
      <trkpt lat="40.296850" lon="-4.824700">
        <ele>2388.0</ele>
        <time>2018-06-23T13:18:55Z</time>
      </trkpt>
      <trkpt lat="40.296933" lon="-4.824683">
        <ele>2389.0</ele>
        <time>2018-06-23T13:18:56Z</time>
      </trkpt>
      <trkpt lat="40.297033" lon="-4.824650">
        <ele>2389.0</ele>
        <time>2018-06-23T13:18:57Z</time>
      </trkpt>
      <trkpt lat="40.297117" lon="-4.824617">
        <ele>2389.0</ele>
        <time>2018-06-23T13:18:58Z</time>
      </trkpt>
      <trkpt lat="40.297217" lon="-4.824583">
        <ele>2389.0</ele>
        <time>2018-06-23T13:18:59Z</time>
      </trkpt>
      <trkpt lat="40.297300" lon="-4.824567">
        <ele>2389.0</ele>
        <time>2018-06-23T13:19:00Z</time>
      </trkpt>
      <trkpt lat="40.297400" lon="-4.824533">
        <ele>2389.0</ele>
        <time>2018-06-23T13:19:01Z</time>
      </trkpt>
      <trkpt lat="40.297500" lon="-4.824483">
        <ele>2388.0</ele>
        <time>2018-06-23T13:19:02Z</time>
      </trkpt>
      <trkpt lat="40.297617" lon="-4.824450">
        <ele>2387.0</ele>
        <time>2018-06-23T13:19:03Z</time>
      </trkpt>
      <trkpt lat="40.297717" lon="-4.824417">
        <ele>2387.0</ele>
        <time>2018-06-23T13:19:04Z</time>
      </trkpt>
      <trkpt lat="40.297817" lon="-4.824383">
        <ele>2386.0</ele>
        <time>2018-06-23T13:19:05Z</time>
      </trkpt>
      <trkpt lat="40.297917" lon="-4.824350">
        <ele>2386.0</ele>
        <time>2018-06-23T13:19:06Z</time>
      </trkpt>
      <trkpt lat="40.298000" lon="-4.824300">
        <ele>2384.0</ele>
        <time>2018-06-23T13:19:07Z</time>
      </trkpt>
      <trkpt lat="40.298083" lon="-4.824233">
        <ele>2383.0</ele>
        <time>2018-06-23T13:19:08Z</time>
      </trkpt>
      <trkpt lat="40.298167" lon="-4.824150">
        <ele>2382.0</ele>
        <time>2018-06-23T13:19:09Z</time>
      </trkpt>
      <trkpt lat="40.298250" lon="-4.824067">
        <ele>2381.0</ele>
        <time>2018-06-23T13:19:10Z</time>
      </trkpt>
      <trkpt lat="40.298317" lon="-4.823967">
        <ele>2379.0</ele>
        <time>2018-06-23T13:19:11Z</time>
      </trkpt>
      <trkpt lat="40.298367" lon="-4.823867">
        <ele>2377.0</ele>
        <time>2018-06-23T13:19:12Z</time>
      </trkpt>
      <trkpt lat="40.298433" lon="-4.823767">
        <ele>2374.0</ele>
        <time>2018-06-23T13:19:13Z</time>
      </trkpt>
      <trkpt lat="40.298517" lon="-4.823667">
        <ele>2372.0</ele>
        <time>2018-06-23T13:19:14Z</time>
      </trkpt>
      <trkpt lat="40.298600" lon="-4.823550">
        <ele>2370.0</ele>
        <time>2018-06-23T13:19:15Z</time>
      </trkpt>
      <trkpt lat="40.298683" lon="-4.823450">
        <ele>2369.0</ele>
        <time>2018-06-23T13:19:16Z</time>
      </trkpt>
      <trkpt lat="40.298750" lon="-4.823333">
        <ele>2368.0</ele>
        <time>2018-06-23T13:19:17Z</time>
      </trkpt>
      <trkpt lat="40.298817" lon="-4.823233">
        <ele>2367.0</ele>
        <time>2018-06-23T13:19:18Z</time>
      </trkpt>
      <trkpt lat="40.298883" lon="-4.823133">
        <ele>2366.0</ele>
        <time>2018-06-23T13:19:19Z</time>
      </trkpt>
      <trkpt lat="40.298967" lon="-4.823050">
        <ele>2365.0</ele>
        <time>2018-06-23T13:19:20Z</time>
      </trkpt>
      <trkpt lat="40.299050" lon="-4.822950">
        <ele>2364.0</ele>
        <time>2018-06-23T13:19:21Z</time>
      </trkpt>
      <trkpt lat="40.299133" lon="-4.822867">
        <ele>2363.0</ele>
        <time>2018-06-23T13:19:22Z</time>
      </trkpt>
      <trkpt lat="40.299200" lon="-4.822767">
        <ele>2362.0</ele>
        <time>2018-06-23T13:19:23Z</time>
      </trkpt>
      <trkpt lat="40.299267" lon="-4.822667">
        <ele>2361.0</ele>
        <time>2018-06-23T13:19:24Z</time>
      </trkpt>
      <trkpt lat="40.299350" lon="-4.822567">
        <ele>2359.0</ele>
        <time>2018-06-23T13:19:25Z</time>
      </trkpt>
      <trkpt lat="40.299417" lon="-4.822483">
        <ele>2358.0</ele>
        <time>2018-06-23T13:19:26Z</time>
      </trkpt>
      <trkpt lat="40.299483" lon="-4.822383">
        <ele>2357.0</ele>
        <time>2018-06-23T13:19:27Z</time>
      </trkpt>
      <trkpt lat="40.299567" lon="-4.822283">
        <ele>2355.0</ele>
        <time>2018-06-23T13:19:28Z</time>
      </trkpt>
      <trkpt lat="40.299633" lon="-4.822183">
        <ele>2354.0</ele>
        <time>2018-06-23T13:19:29Z</time>
      </trkpt>
      <trkpt lat="40.299700" lon="-4.822083">
        <ele>2353.0</ele>
        <time>2018-06-23T13:19:30Z</time>
      </trkpt>
      <trkpt lat="40.299767" lon="-4.821983">
        <ele>2351.0</ele>
        <time>2018-06-23T13:19:31Z</time>
      </trkpt>
      <trkpt lat="40.299817" lon="-4.821883">
        <ele>2350.0</ele>
        <time>2018-06-23T13:19:32Z</time>
      </trkpt>
      <trkpt lat="40.299883" lon="-4.821783">
        <ele>2349.0</ele>
        <time>2018-06-23T13:19:33Z</time>
      </trkpt>
      <trkpt lat="40.299950" lon="-4.821700">
        <ele>2348.0</ele>
        <time>2018-06-23T13:19:34Z</time>
      </trkpt>
      <trkpt lat="40.300017" lon="-4.821617">
        <ele>2346.0</ele>
        <time>2018-06-23T13:19:35Z</time>
      </trkpt>
      <trkpt lat="40.300083" lon="-4.821533">
        <ele>2344.0</ele>
        <time>2018-06-23T13:19:36Z</time>
      </trkpt>
      <trkpt lat="40.300150" lon="-4.821433">
        <ele>2342.0</ele>
        <time>2018-06-23T13:19:37Z</time>
      </trkpt>
      <trkpt lat="40.300217" lon="-4.821333">
        <ele>2340.0</ele>
        <time>2018-06-23T13:19:38Z</time>
      </trkpt>
      <trkpt lat="40.300283" lon="-4.821233">
        <ele>2338.0</ele>
        <time>2018-06-23T13:19:39Z</time>
      </trkpt>
      <trkpt lat="40.300350" lon="-4.821133">
        <ele>2336.0</ele>
        <time>2018-06-23T13:19:40Z</time>
      </trkpt>
      <trkpt lat="40.300417" lon="-4.821050">
        <ele>2335.0</ele>
        <time>2018-06-23T13:19:41Z</time>
      </trkpt>
      <trkpt lat="40.300467" lon="-4.820967">
        <ele>2333.0</ele>
        <time>2018-06-23T13:19:42Z</time>
      </trkpt>
      <trkpt lat="40.300533" lon="-4.820883">
        <ele>2331.0</ele>
        <time>2018-06-23T13:19:43Z</time>
      </trkpt>
      <trkpt lat="40.300583" lon="-4.820800">
        <ele>2329.0</ele>
        <time>2018-06-23T13:19:44Z</time>
      </trkpt>
      <trkpt lat="40.300633" lon="-4.820700">
        <ele>2326.0</ele>
        <time>2018-06-23T13:19:45Z</time>
      </trkpt>
      <trkpt lat="40.300683" lon="-4.820600">
        <ele>2324.0</ele>
        <time>2018-06-23T13:19:46Z</time>
      </trkpt>
      <trkpt lat="40.300733" lon="-4.820500">
        <ele>2321.0</ele>
        <time>2018-06-23T13:19:47Z</time>
      </trkpt>
      <trkpt lat="40.300783" lon="-4.820400">
        <ele>2319.0</ele>
        <time>2018-06-23T13:19:48Z</time>
      </trkpt>
      <trkpt lat="40.300833" lon="-4.820283">
        <ele>2316.0</ele>
        <time>2018-06-23T13:19:49Z</time>
      </trkpt>
      <trkpt lat="40.300900" lon="-4.820183">
        <ele>2314.0</ele>
        <time>2018-06-23T13:19:50Z</time>
      </trkpt>
      <trkpt lat="40.300950" lon="-4.820083">
        <ele>2312.0</ele>
        <time>2018-06-23T13:19:51Z</time>
      </trkpt>
      <trkpt lat="40.301017" lon="-4.819983">
        <ele>2311.0</ele>
        <time>2018-06-23T13:19:52Z</time>
      </trkpt>
      <trkpt lat="40.301067" lon="-4.819883">
        <ele>2309.0</ele>
        <time>2018-06-23T13:19:53Z</time>
      </trkpt>
      <trkpt lat="40.301117" lon="-4.819800">
        <ele>2307.0</ele>
        <time>2018-06-23T13:19:54Z</time>
      </trkpt>
      <trkpt lat="40.301167" lon="-4.819700">
        <ele>2305.0</ele>
        <time>2018-06-23T13:19:55Z</time>
      </trkpt>
      <trkpt lat="40.301233" lon="-4.819617">
        <ele>2303.0</ele>
        <time>2018-06-23T13:19:56Z</time>
      </trkpt>
      <trkpt lat="40.301300" lon="-4.819533">
        <ele>2301.0</ele>
        <time>2018-06-23T13:19:57Z</time>
      </trkpt>
      <trkpt lat="40.301383" lon="-4.819450">
        <ele>2300.0</ele>
        <time>2018-06-23T13:19:58Z</time>
      </trkpt>
      <trkpt lat="40.301450" lon="-4.819367">
        <ele>2299.0</ele>
        <time>2018-06-23T13:19:59Z</time>
      </trkpt>
      <trkpt lat="40.301533" lon="-4.819283">
        <ele>2297.0</ele>
        <time>2018-06-23T13:20:00Z</time>
      </trkpt>
      <trkpt lat="40.301600" lon="-4.819217">
        <ele>2296.0</ele>
        <time>2018-06-23T13:20:01Z</time>
      </trkpt>
      <trkpt lat="40.301683" lon="-4.819133">
        <ele>2294.0</ele>
        <time>2018-06-23T13:20:02Z</time>
      </trkpt>
      <trkpt lat="40.301783" lon="-4.819067">
        <ele>2292.0</ele>
        <time>2018-06-23T13:20:03Z</time>
      </trkpt>
      <trkpt lat="40.301867" lon="-4.819000">
        <ele>2292.0</ele>
        <time>2018-06-23T13:20:04Z</time>
      </trkpt>
      <trkpt lat="40.301950" lon="-4.818950">
        <ele>2292.0</ele>
        <time>2018-06-23T13:20:05Z</time>
      </trkpt>
      <trkpt lat="40.302033" lon="-4.818900">
        <ele>2291.0</ele>
        <time>2018-06-23T13:20:06Z</time>
      </trkpt>
      <trkpt lat="40.302100" lon="-4.818850">
        <ele>2290.0</ele>
        <time>2018-06-23T13:20:07Z</time>
      </trkpt>
      <trkpt lat="40.302183" lon="-4.818817">
        <ele>2288.0</ele>
        <time>2018-06-23T13:20:08Z</time>
      </trkpt>
      <trkpt lat="40.302267" lon="-4.818750">
        <ele>2286.0</ele>
        <time>2018-06-23T13:20:09Z</time>
      </trkpt>
      <trkpt lat="40.302350" lon="-4.818700">
        <ele>2285.0</ele>
        <time>2018-06-23T13:20:10Z</time>
      </trkpt>
      <trkpt lat="40.302417" lon="-4.818633">
        <ele>2284.0</ele>
        <time>2018-06-23T13:20:11Z</time>
      </trkpt>
      <trkpt lat="40.302483" lon="-4.818567">
        <ele>2284.0</ele>
        <time>2018-06-23T13:20:12Z</time>
      </trkpt>
      <trkpt lat="40.302550" lon="-4.818517">
        <ele>2283.0</ele>
        <time>2018-06-23T13:20:13Z</time>
      </trkpt>
      <trkpt lat="40.302633" lon="-4.818450">
        <ele>2282.0</ele>
        <time>2018-06-23T13:20:14Z</time>
      </trkpt>
      <trkpt lat="40.302700" lon="-4.818367">
        <ele>2281.0</ele>
        <time>2018-06-23T13:20:15Z</time>
      </trkpt>
      <trkpt lat="40.302783" lon="-4.818283">
        <ele>2281.0</ele>
        <time>2018-06-23T13:20:16Z</time>
      </trkpt>
      <trkpt lat="40.302850" lon="-4.818200">
        <ele>2282.0</ele>
        <time>2018-06-23T13:20:17Z</time>
      </trkpt>
      <trkpt lat="40.302900" lon="-4.818117">
        <ele>2282.0</ele>
        <time>2018-06-23T13:20:18Z</time>
      </trkpt>
      <trkpt lat="40.302967" lon="-4.818033">
        <ele>2282.0</ele>
        <time>2018-06-23T13:20:19Z</time>
      </trkpt>
      <trkpt lat="40.303017" lon="-4.817933">
        <ele>2281.0</ele>
        <time>2018-06-23T13:20:20Z</time>
      </trkpt>
      <trkpt lat="40.303100" lon="-4.817850">
        <ele>2282.0</ele>
        <time>2018-06-23T13:20:21Z</time>
      </trkpt>
      <trkpt lat="40.303167" lon="-4.817750">
        <ele>2282.0</ele>
        <time>2018-06-23T13:20:22Z</time>
      </trkpt>
      <trkpt lat="40.303250" lon="-4.817667">
        <ele>2284.0</ele>
        <time>2018-06-23T13:20:23Z</time>
      </trkpt>
      <trkpt lat="40.303317" lon="-4.817600">
        <ele>2285.0</ele>
        <time>2018-06-23T13:20:24Z</time>
      </trkpt>
      <trkpt lat="40.303400" lon="-4.817533">
        <ele>2286.0</ele>
        <time>2018-06-23T13:20:25Z</time>
      </trkpt>
      <trkpt lat="40.303500" lon="-4.817483">
        <ele>2286.0</ele>
        <time>2018-06-23T13:20:26Z</time>
      </trkpt>
      <trkpt lat="40.303600" lon="-4.817450">
        <ele>2285.0</ele>
        <time>2018-06-23T13:20:27Z</time>
      </trkpt>
      <trkpt lat="40.303717" lon="-4.817433">
        <ele>2284.0</ele>
        <time>2018-06-23T13:20:28Z</time>
      </trkpt>
      <trkpt lat="40.303850" lon="-4.817417">
        <ele>2284.0</ele>
        <time>2018-06-23T13:20:29Z</time>
      </trkpt>
      <trkpt lat="40.303983" lon="-4.817417">
        <ele>2284.0</ele>
        <time>2018-06-23T13:20:30Z</time>
      </trkpt>
      <trkpt lat="40.304100" lon="-4.817417">
        <ele>2285.0</ele>
        <time>2018-06-23T13:20:31Z</time>
      </trkpt>
      <trkpt lat="40.304233" lon="-4.817417">
        <ele>2285.0</ele>
        <time>2018-06-23T13:20:32Z</time>
      </trkpt>
      <trkpt lat="40.304350" lon="-4.817417">
        <ele>2287.0</ele>
        <time>2018-06-23T13:20:33Z</time>
      </trkpt>
      <trkpt lat="40.304467" lon="-4.817433">
        <ele>2288.0</ele>
        <time>2018-06-23T13:20:34Z</time>
      </trkpt>
      <trkpt lat="40.304583" lon="-4.817467">
        <ele>2289.0</ele>
        <time>2018-06-23T13:20:35Z</time>
      </trkpt>
      <trkpt lat="40.304700" lon="-4.817483">
        <ele>2290.0</ele>
        <time>2018-06-23T13:20:36Z</time>
      </trkpt>
      <trkpt lat="40.304800" lon="-4.817500">
        <ele>2291.0</ele>
        <time>2018-06-23T13:20:37Z</time>
      </trkpt>
      <trkpt lat="40.304917" lon="-4.817517">
        <ele>2291.0</ele>
        <time>2018-06-23T13:20:38Z</time>
      </trkpt>
      <trkpt lat="40.305017" lon="-4.817567">
        <ele>2291.0</ele>
        <time>2018-06-23T13:20:39Z</time>
      </trkpt>
      <trkpt lat="40.305117" lon="-4.817617">
        <ele>2292.0</ele>
        <time>2018-06-23T13:20:40Z</time>
      </trkpt>
      <trkpt lat="40.305200" lon="-4.817700">
        <ele>2293.0</ele>
        <time>2018-06-23T13:20:41Z</time>
      </trkpt>
      <trkpt lat="40.305300" lon="-4.817767">
        <ele>2295.0</ele>
        <time>2018-06-23T13:20:42Z</time>
      </trkpt>
      <trkpt lat="40.305383" lon="-4.817817">
        <ele>2298.0</ele>
        <time>2018-06-23T13:20:43Z</time>
      </trkpt>
      <trkpt lat="40.305450" lon="-4.817867">
        <ele>2299.0</ele>
        <time>2018-06-23T13:20:44Z</time>
      </trkpt>
      <trkpt lat="40.305533" lon="-4.817933">
        <ele>2299.0</ele>
        <time>2018-06-23T13:20:45Z</time>
      </trkpt>
      <trkpt lat="40.305600" lon="-4.818017">
        <ele>2299.0</ele>
        <time>2018-06-23T13:20:46Z</time>
      </trkpt>
      <trkpt lat="40.305667" lon="-4.818133">
        <ele>2299.0</ele>
        <time>2018-06-23T13:20:47Z</time>
      </trkpt>
      <trkpt lat="40.305733" lon="-4.818250">
        <ele>2299.0</ele>
        <time>2018-06-23T13:20:48Z</time>
      </trkpt>
      <trkpt lat="40.305767" lon="-4.818383">
        <ele>2300.0</ele>
        <time>2018-06-23T13:20:49Z</time>
      </trkpt>
      <trkpt lat="40.305783" lon="-4.818500">
        <ele>2300.0</ele>
        <time>2018-06-23T13:20:50Z</time>
      </trkpt>
      <trkpt lat="40.305767" lon="-4.818633">
        <ele>2301.0</ele>
        <time>2018-06-23T13:20:51Z</time>
      </trkpt>
      <trkpt lat="40.305750" lon="-4.818750">
        <ele>2302.0</ele>
        <time>2018-06-23T13:20:52Z</time>
      </trkpt>
      <trkpt lat="40.305700" lon="-4.818850">
        <ele>2303.0</ele>
        <time>2018-06-23T13:20:53Z</time>
      </trkpt>
      <trkpt lat="40.305667" lon="-4.818933">
        <ele>2303.0</ele>
        <time>2018-06-23T13:20:54Z</time>
      </trkpt>
      <trkpt lat="40.305600" lon="-4.818983">
        <ele>2303.0</ele>
        <time>2018-06-23T13:20:55Z</time>
      </trkpt>
      <trkpt lat="40.305517" lon="-4.819017">
        <ele>2302.0</ele>
        <time>2018-06-23T13:20:56Z</time>
      </trkpt>
      <trkpt lat="40.305433" lon="-4.819017">
        <ele>2301.0</ele>
        <time>2018-06-23T13:20:57Z</time>
      </trkpt>
      <trkpt lat="40.305350" lon="-4.819017">
        <ele>2301.0</ele>
        <time>2018-06-23T13:20:58Z</time>
      </trkpt>
      <trkpt lat="40.305267" lon="-4.818983">
        <ele>2301.0</ele>
        <time>2018-06-23T13:20:59Z</time>
      </trkpt>
      <trkpt lat="40.305200" lon="-4.818917">
        <ele>2302.0</ele>
        <time>2018-06-23T13:21:00Z</time>
      </trkpt>
      <trkpt lat="40.305150" lon="-4.818833">
        <ele>2302.0</ele>
        <time>2018-06-23T13:21:01Z</time>
      </trkpt>
      <trkpt lat="40.305117" lon="-4.818733">
        <ele>2303.0</ele>
        <time>2018-06-23T13:21:02Z</time>
      </trkpt>
      <trkpt lat="40.305100" lon="-4.818617">
        <ele>2304.0</ele>
        <time>2018-06-23T13:21:03Z</time>
      </trkpt>
      <trkpt lat="40.305100" lon="-4.818483">
        <ele>2304.0</ele>
        <time>2018-06-23T13:21:04Z</time>
      </trkpt>
      <trkpt lat="40.305100" lon="-4.818350">
        <ele>2306.0</ele>
        <time>2018-06-23T13:21:05Z</time>
      </trkpt>
      <trkpt lat="40.305133" lon="-4.818200">
        <ele>2307.0</ele>
        <time>2018-06-23T13:21:06Z</time>
      </trkpt>
      <trkpt lat="40.305167" lon="-4.818083">
        <ele>2310.0</ele>
        <time>2018-06-23T13:21:07Z</time>
      </trkpt>
      <trkpt lat="40.305167" lon="-4.817983">
        <ele>2313.0</ele>
        <time>2018-06-23T13:21:08Z</time>
      </trkpt>
      <trkpt lat="40.305183" lon="-4.817883">
        <ele>2315.0</ele>
        <time>2018-06-23T13:21:09Z</time>
      </trkpt>
      <trkpt lat="40.305183" lon="-4.817800">
        <ele>2316.0</ele>
        <time>2018-06-23T13:21:10Z</time>
      </trkpt>
      <trkpt lat="40.305200" lon="-4.817700">
        <ele>2316.0</ele>
        <time>2018-06-23T13:21:11Z</time>
      </trkpt>
      <trkpt lat="40.305250" lon="-4.817583">
        <ele>2316.0</ele>
        <time>2018-06-23T13:21:12Z</time>
      </trkpt>
      <trkpt lat="40.305317" lon="-4.817467">
        <ele>2316.0</ele>
        <time>2018-06-23T13:21:13Z</time>
      </trkpt>
      <trkpt lat="40.305400" lon="-4.817350">
        <ele>2316.0</ele>
        <time>2018-06-23T13:21:14Z</time>
      </trkpt>
      <trkpt lat="40.305500" lon="-4.817267">
        <ele>2317.0</ele>
        <time>2018-06-23T13:21:15Z</time>
      </trkpt>
      <trkpt lat="40.305617" lon="-4.817200">
        <ele>2318.0</ele>
        <time>2018-06-23T13:21:16Z</time>
      </trkpt>
      <trkpt lat="40.305733" lon="-4.817183">
        <ele>2318.0</ele>
        <time>2018-06-23T13:21:17Z</time>
      </trkpt>
      <trkpt lat="40.305850" lon="-4.817200">
        <ele>2318.0</ele>
        <time>2018-06-23T13:21:18Z</time>
      </trkpt>
      <trkpt lat="40.305967" lon="-4.817233">
        <ele>2317.0</ele>
        <time>2018-06-23T13:21:19Z</time>
      </trkpt>
      <trkpt lat="40.306067" lon="-4.817317">
        <ele>2317.0</ele>
        <time>2018-06-23T13:21:20Z</time>
      </trkpt>
      <trkpt lat="40.306167" lon="-4.817400">
        <ele>2316.0</ele>
        <time>2018-06-23T13:21:21Z</time>
      </trkpt>
      <trkpt lat="40.306250" lon="-4.817500">
        <ele>2316.0</ele>
        <time>2018-06-23T13:21:22Z</time>
      </trkpt>
      <trkpt lat="40.306300" lon="-4.817617">
        <ele>2316.0</ele>
        <time>2018-06-23T13:21:23Z</time>
      </trkpt>
      <trkpt lat="40.306333" lon="-4.817733">
        <ele>2316.0</ele>
        <time>2018-06-23T13:21:24Z</time>
      </trkpt>
      <trkpt lat="40.306350" lon="-4.817850">
        <ele>2315.0</ele>
        <time>2018-06-23T13:21:25Z</time>
      </trkpt>
      <trkpt lat="40.306333" lon="-4.817950">
        <ele>2315.0</ele>
        <time>2018-06-23T13:21:26Z</time>
      </trkpt>
      <trkpt lat="40.306300" lon="-4.818033">
        <ele>2315.0</ele>
        <time>2018-06-23T13:21:27Z</time>
      </trkpt>
      <trkpt lat="40.306267" lon="-4.818117">
        <ele>2315.0</ele>
        <time>2018-06-23T13:21:28Z</time>
      </trkpt>
      <trkpt lat="40.306200" lon="-4.818150">
        <ele>2316.0</ele>
        <time>2018-06-23T13:21:29Z</time>
      </trkpt>
      <trkpt lat="40.306150" lon="-4.818167">
        <ele>2317.0</ele>
        <time>2018-06-23T13:21:30Z</time>
      </trkpt>
      <trkpt lat="40.306083" lon="-4.818150">
        <ele>2317.0</ele>
        <time>2018-06-23T13:21:31Z</time>
      </trkpt>
      <trkpt lat="40.306017" lon="-4.818100">
        <ele>2318.0</ele>
        <time>2018-06-23T13:21:32Z</time>
      </trkpt>
      <trkpt lat="40.305950" lon="-4.818033">
        <ele>2320.0</ele>
        <time>2018-06-23T13:21:33Z</time>
      </trkpt>
      <trkpt lat="40.305900" lon="-4.817950">
        <ele>2323.0</ele>
        <time>2018-06-23T13:21:34Z</time>
      </trkpt>
      <trkpt lat="40.305867" lon="-4.817850">
        <ele>2326.0</ele>
        <time>2018-06-23T13:21:35Z</time>
      </trkpt>
      <trkpt lat="40.305850" lon="-4.817767">
        <ele>2328.0</ele>
        <time>2018-06-23T13:21:36Z</time>
      </trkpt>
      <trkpt lat="40.305833" lon="-4.817650">
        <ele>2330.0</ele>
        <time>2018-06-23T13:21:37Z</time>
      </trkpt>
      <trkpt lat="40.305833" lon="-4.817550">
        <ele>2331.0</ele>
        <time>2018-06-23T13:21:38Z</time>
      </trkpt>
      <trkpt lat="40.305833" lon="-4.817433">
        <ele>2332.0</ele>
        <time>2018-06-23T13:21:39Z</time>
      </trkpt>
      <trkpt lat="40.305833" lon="-4.817300">
        <ele>2333.0</ele>
        <time>2018-06-23T13:21:40Z</time>
      </trkpt>
      <trkpt lat="40.305833" lon="-4.817183">
        <ele>2333.0</ele>
        <time>2018-06-23T13:21:41Z</time>
      </trkpt>
      <trkpt lat="40.305850" lon="-4.817050">
        <ele>2334.0</ele>
        <time>2018-06-23T13:21:42Z</time>
      </trkpt>
      <trkpt lat="40.305883" lon="-4.816917">
        <ele>2335.0</ele>
        <time>2018-06-23T13:21:43Z</time>
      </trkpt>
      <trkpt lat="40.305933" lon="-4.816783">
        <ele>2335.0</ele>
        <time>2018-06-23T13:21:44Z</time>
      </trkpt>
      <trkpt lat="40.306017" lon="-4.816650">
        <ele>2335.0</ele>
        <time>2018-06-23T13:21:45Z</time>
      </trkpt>
      <trkpt lat="40.306100" lon="-4.816533">
        <ele>2336.0</ele>
        <time>2018-06-23T13:21:46Z</time>
      </trkpt>
      <trkpt lat="40.306217" lon="-4.816433">
        <ele>2336.0</ele>
        <time>2018-06-23T13:21:47Z</time>
      </trkpt>
      <trkpt lat="40.306333" lon="-4.816367">
        <ele>2336.0</ele>
        <time>2018-06-23T13:21:48Z</time>
      </trkpt>
      <trkpt lat="40.306450" lon="-4.816317">
        <ele>2336.0</ele>
        <time>2018-06-23T13:21:49Z</time>
      </trkpt>
      <trkpt lat="40.306550" lon="-4.816300">
        <ele>2335.0</ele>
        <time>2018-06-23T13:21:50Z</time>
      </trkpt>
      <trkpt lat="40.306667" lon="-4.816300">
        <ele>2335.0</ele>
        <time>2018-06-23T13:21:51Z</time>
      </trkpt>
      <trkpt lat="40.306767" lon="-4.816300">
        <ele>2334.0</ele>
        <time>2018-06-23T13:21:52Z</time>
      </trkpt>
      <trkpt lat="40.306867" lon="-4.816300">
        <ele>2333.0</ele>
        <time>2018-06-23T13:21:53Z</time>
      </trkpt>
      <trkpt lat="40.306967" lon="-4.816283">
        <ele>2331.0</ele>
        <time>2018-06-23T13:21:54Z</time>
      </trkpt>
      <trkpt lat="40.307067" lon="-4.816233">
        <ele>2329.0</ele>
        <time>2018-06-23T13:21:55Z</time>
      </trkpt>
      <trkpt lat="40.307167" lon="-4.816183">
        <ele>2327.0</ele>
        <time>2018-06-23T13:21:56Z</time>
      </trkpt>
      <trkpt lat="40.307267" lon="-4.816100">
        <ele>2326.0</ele>
        <time>2018-06-23T13:21:57Z</time>
      </trkpt>
      <trkpt lat="40.307350" lon="-4.816017">
        <ele>2324.0</ele>
        <time>2018-06-23T13:21:58Z</time>
      </trkpt>
      <trkpt lat="40.307450" lon="-4.815917">
        <ele>2322.0</ele>
        <time>2018-06-23T13:21:59Z</time>
      </trkpt>
      <trkpt lat="40.307550" lon="-4.815817">
        <ele>2320.0</ele>
        <time>2018-06-23T13:22:00Z</time>
      </trkpt>
      <trkpt lat="40.307650" lon="-4.815717">
        <ele>2318.0</ele>
        <time>2018-06-23T13:22:01Z</time>
      </trkpt>
      <trkpt lat="40.307750" lon="-4.815617">
        <ele>2318.0</ele>
        <time>2018-06-23T13:22:02Z</time>
      </trkpt>
      <trkpt lat="40.307833" lon="-4.815517">
        <ele>2318.0</ele>
        <time>2018-06-23T13:22:03Z</time>
      </trkpt>
      <trkpt lat="40.307933" lon="-4.815433">
        <ele>2318.0</ele>
        <time>2018-06-23T13:22:04Z</time>
      </trkpt>
      <trkpt lat="40.308017" lon="-4.815350">
        <ele>2318.0</ele>
        <time>2018-06-23T13:22:05Z</time>
      </trkpt>
      <trkpt lat="40.308083" lon="-4.815283">
        <ele>2318.0</ele>
        <time>2018-06-23T13:22:06Z</time>
      </trkpt>
      <trkpt lat="40.308150" lon="-4.815200">
        <ele>2317.0</ele>
        <time>2018-06-23T13:22:07Z</time>
      </trkpt>
      <trkpt lat="40.308233" lon="-4.815133">
        <ele>2316.0</ele>
        <time>2018-06-23T13:22:08Z</time>
      </trkpt>
      <trkpt lat="40.308300" lon="-4.815050">
        <ele>2315.0</ele>
        <time>2018-06-23T13:22:09Z</time>
      </trkpt>
      <trkpt lat="40.308367" lon="-4.815000">
        <ele>2314.0</ele>
        <time>2018-06-23T13:22:10Z</time>
      </trkpt>
      <trkpt lat="40.308433" lon="-4.814933">
        <ele>2311.0</ele>
        <time>2018-06-23T13:22:11Z</time>
      </trkpt>
      <trkpt lat="40.308533" lon="-4.814883">
        <ele>2310.0</ele>
        <time>2018-06-23T13:22:12Z</time>
      </trkpt>
      <trkpt lat="40.308633" lon="-4.814833">
        <ele>2307.0</ele>
        <time>2018-06-23T13:22:13Z</time>
      </trkpt>
      <trkpt lat="40.308750" lon="-4.814783">
        <ele>2306.0</ele>
        <time>2018-06-23T13:22:14Z</time>
      </trkpt>
      <trkpt lat="40.308850" lon="-4.814717">
        <ele>2306.0</ele>
        <time>2018-06-23T13:22:15Z</time>
      </trkpt>
      <trkpt lat="40.308950" lon="-4.814650">
        <ele>2305.0</ele>
        <time>2018-06-23T13:22:16Z</time>
      </trkpt>
      <trkpt lat="40.309050" lon="-4.814583">
        <ele>2305.0</ele>
        <time>2018-06-23T13:22:17Z</time>
      </trkpt>
      <trkpt lat="40.309150" lon="-4.814517">
        <ele>2305.0</ele>
        <time>2018-06-23T13:22:18Z</time>
      </trkpt>
      <trkpt lat="40.309233" lon="-4.814450">
        <ele>2305.0</ele>
        <time>2018-06-23T13:22:19Z</time>
      </trkpt>
      <trkpt lat="40.309333" lon="-4.814400">
        <ele>2304.0</ele>
        <time>2018-06-23T13:22:20Z</time>
      </trkpt>
      <trkpt lat="40.309433" lon="-4.814333">
        <ele>2303.0</ele>
        <time>2018-06-23T13:22:21Z</time>
      </trkpt>
      <trkpt lat="40.309533" lon="-4.814250">
        <ele>2303.0</ele>
        <time>2018-06-23T13:22:22Z</time>
      </trkpt>
      <trkpt lat="40.309650" lon="-4.814183">
        <ele>2304.0</ele>
        <time>2018-06-23T13:22:23Z</time>
      </trkpt>
      <trkpt lat="40.309750" lon="-4.814117">
        <ele>2306.0</ele>
        <time>2018-06-23T13:22:24Z</time>
      </trkpt>
      <trkpt lat="40.309850" lon="-4.814050">
        <ele>2309.0</ele>
        <time>2018-06-23T13:22:25Z</time>
      </trkpt>
      <trkpt lat="40.309950" lon="-4.814017">
        <ele>2311.0</ele>
        <time>2018-06-23T13:22:26Z</time>
      </trkpt>
      <trkpt lat="40.310050" lon="-4.814000">
        <ele>2313.0</ele>
        <time>2018-06-23T13:22:27Z</time>
      </trkpt>
      <trkpt lat="40.310167" lon="-4.814000">
        <ele>2315.0</ele>
        <time>2018-06-23T13:22:28Z</time>
      </trkpt>
      <trkpt lat="40.310283" lon="-4.814033">
        <ele>2316.0</ele>
        <time>2018-06-23T13:22:29Z</time>
      </trkpt>
      <trkpt lat="40.310400" lon="-4.814083">
        <ele>2316.0</ele>
        <time>2018-06-23T13:22:30Z</time>
      </trkpt>
      <trkpt lat="40.310517" lon="-4.814167">
        <ele>2316.0</ele>
        <time>2018-06-23T13:22:31Z</time>
      </trkpt>
      <trkpt lat="40.310633" lon="-4.814283">
        <ele>2316.0</ele>
        <time>2018-06-23T13:22:32Z</time>
      </trkpt>
      <trkpt lat="40.310717" lon="-4.814417">
        <ele>2316.0</ele>
        <time>2018-06-23T13:22:33Z</time>
      </trkpt>
      <trkpt lat="40.310783" lon="-4.814583">
        <ele>2317.0</ele>
        <time>2018-06-23T13:22:34Z</time>
      </trkpt>
      <trkpt lat="40.310817" lon="-4.814750">
        <ele>2318.0</ele>
        <time>2018-06-23T13:22:35Z</time>
      </trkpt>
      <trkpt lat="40.310817" lon="-4.814917">
        <ele>2319.0</ele>
        <time>2018-06-23T13:22:36Z</time>
      </trkpt>
      <trkpt lat="40.310800" lon="-4.815067">
        <ele>2321.0</ele>
        <time>2018-06-23T13:22:37Z</time>
      </trkpt>
      <trkpt lat="40.310783" lon="-4.815200">
        <ele>2322.0</ele>
        <time>2018-06-23T13:22:38Z</time>
      </trkpt>
      <trkpt lat="40.310733" lon="-4.815317">
        <ele>2322.0</ele>
        <time>2018-06-23T13:22:39Z</time>
      </trkpt>
      <trkpt lat="40.310667" lon="-4.815383">
        <ele>2322.0</ele>
        <time>2018-06-23T13:22:40Z</time>
      </trkpt>
      <trkpt lat="40.310583" lon="-4.815417">
        <ele>2321.0</ele>
        <time>2018-06-23T13:22:41Z</time>
      </trkpt>
      <trkpt lat="40.310517" lon="-4.815400">
        <ele>2321.0</ele>
        <time>2018-06-23T13:22:42Z</time>
      </trkpt>
      <trkpt lat="40.310450" lon="-4.815350">
        <ele>2321.0</ele>
        <time>2018-06-23T13:22:43Z</time>
      </trkpt>
      <trkpt lat="40.310417" lon="-4.815300">
        <ele>2320.0</ele>
        <time>2018-06-23T13:22:44Z</time>
      </trkpt>
      <trkpt lat="40.310400" lon="-4.815217">
        <ele>2319.0</ele>
        <time>2018-06-23T13:22:45Z</time>
      </trkpt>
      <trkpt lat="40.310417" lon="-4.815117">
        <ele>2318.0</ele>
        <time>2018-06-23T13:22:46Z</time>
      </trkpt>
      <trkpt lat="40.310450" lon="-4.815000">
        <ele>2317.0</ele>
        <time>2018-06-23T13:22:47Z</time>
      </trkpt>
      <trkpt lat="40.310533" lon="-4.814900">
        <ele>2316.0</ele>
        <time>2018-06-23T13:22:48Z</time>
      </trkpt>
      <trkpt lat="40.310633" lon="-4.814817">
        <ele>2318.0</ele>
        <time>2018-06-23T13:22:49Z</time>
      </trkpt>
      <trkpt lat="40.310717" lon="-4.814750">
        <ele>2321.0</ele>
        <time>2018-06-23T13:22:50Z</time>
      </trkpt>
      <trkpt lat="40.310817" lon="-4.814717">
        <ele>2323.0</ele>
        <time>2018-06-23T13:22:51Z</time>
      </trkpt>
      <trkpt lat="40.310917" lon="-4.814683">
        <ele>2324.0</ele>
        <time>2018-06-23T13:22:52Z</time>
      </trkpt>
      <trkpt lat="40.311017" lon="-4.814633">
        <ele>2324.0</ele>
        <time>2018-06-23T13:22:53Z</time>
      </trkpt>
      <trkpt lat="40.311133" lon="-4.814600">
        <ele>2324.0</ele>
        <time>2018-06-23T13:22:54Z</time>
      </trkpt>
      <trkpt lat="40.311250" lon="-4.814550">
        <ele>2325.0</ele>
        <time>2018-06-23T13:22:55Z</time>
      </trkpt>
      <trkpt lat="40.311367" lon="-4.814500">
        <ele>2326.0</ele>
        <time>2018-06-23T13:22:56Z</time>
      </trkpt>
      <trkpt lat="40.311483" lon="-4.814450">
        <ele>2327.0</ele>
        <time>2018-06-23T13:22:57Z</time>
      </trkpt>
      <trkpt lat="40.311600" lon="-4.814433">
        <ele>2329.0</ele>
        <time>2018-06-23T13:22:58Z</time>
      </trkpt>
      <trkpt lat="40.311733" lon="-4.814400">
        <ele>2330.0</ele>
        <time>2018-06-23T13:22:59Z</time>
      </trkpt>
      <trkpt lat="40.311867" lon="-4.814383">
        <ele>2332.0</ele>
        <time>2018-06-23T13:23:00Z</time>
      </trkpt>
      <trkpt lat="40.311983" lon="-4.814350">
        <ele>2334.0</ele>
        <time>2018-06-23T13:23:01Z</time>
      </trkpt>
      <trkpt lat="40.312083" lon="-4.814317">
        <ele>2335.0</ele>
        <time>2018-06-23T13:23:02Z</time>
      </trkpt>
      <trkpt lat="40.312200" lon="-4.814283">
        <ele>2336.0</ele>
        <time>2018-06-23T13:23:03Z</time>
      </trkpt>
      <trkpt lat="40.312333" lon="-4.814267">
        <ele>2337.0</ele>
        <time>2018-06-23T13:23:04Z</time>
      </trkpt>
      <trkpt lat="40.312467" lon="-4.814250">
        <ele>2339.0</ele>
        <time>2018-06-23T13:23:05Z</time>
      </trkpt>
      <trkpt lat="40.312583" lon="-4.814217">
        <ele>2343.0</ele>
        <time>2018-06-23T13:23:06Z</time>
      </trkpt>
      <trkpt lat="40.312700" lon="-4.814183">
        <ele>2346.0</ele>
        <time>2018-06-23T13:23:07Z</time>
      </trkpt>
      <trkpt lat="40.312783" lon="-4.814150">
        <ele>2348.0</ele>
        <time>2018-06-23T13:23:08Z</time>
      </trkpt>
      <trkpt lat="40.312867" lon="-4.814100">
        <ele>2349.0</ele>
        <time>2018-06-23T13:23:09Z</time>
      </trkpt>
      <trkpt lat="40.312967" lon="-4.814083">
        <ele>2349.0</ele>
        <time>2018-06-23T13:23:10Z</time>
      </trkpt>
      <trkpt lat="40.313083" lon="-4.814083">
        <ele>2347.0</ele>
        <time>2018-06-23T13:23:11Z</time>
      </trkpt>
      <trkpt lat="40.313200" lon="-4.814117">
        <ele>2346.0</ele>
        <time>2018-06-23T13:23:12Z</time>
      </trkpt>
      <trkpt lat="40.313333" lon="-4.814217">
        <ele>2345.0</ele>
        <time>2018-06-23T13:23:13Z</time>
      </trkpt>
      <trkpt lat="40.313450" lon="-4.814350">
        <ele>2345.0</ele>
        <time>2018-06-23T13:23:14Z</time>
      </trkpt>
      <trkpt lat="40.313517" lon="-4.814517">
        <ele>2347.0</ele>
        <time>2018-06-23T13:23:15Z</time>
      </trkpt>
      <trkpt lat="40.313533" lon="-4.814683">
        <ele>2350.0</ele>
        <time>2018-06-23T13:23:16Z</time>
      </trkpt>
      <trkpt lat="40.313533" lon="-4.814833">
        <ele>2353.0</ele>
        <time>2018-06-23T13:23:17Z</time>
      </trkpt>
      <trkpt lat="40.313517" lon="-4.814983">
        <ele>2355.0</ele>
        <time>2018-06-23T13:23:18Z</time>
      </trkpt>
      <trkpt lat="40.313483" lon="-4.815100">
        <ele>2357.0</ele>
        <time>2018-06-23T13:23:19Z</time>
      </trkpt>
      <trkpt lat="40.313450" lon="-4.815233">
        <ele>2359.0</ele>
        <time>2018-06-23T13:23:20Z</time>
      </trkpt>
      <trkpt lat="40.313400" lon="-4.815350">
        <ele>2360.0</ele>
        <time>2018-06-23T13:23:21Z</time>
      </trkpt>
      <trkpt lat="40.313350" lon="-4.815450">
        <ele>2362.0</ele>
        <time>2018-06-23T13:23:22Z</time>
      </trkpt>
      <trkpt lat="40.313300" lon="-4.815517">
        <ele>2364.0</ele>
        <time>2018-06-23T13:23:23Z</time>
      </trkpt>
      <trkpt lat="40.313250" lon="-4.815550">
        <ele>2365.0</ele>
        <time>2018-06-23T13:23:24Z</time>
      </trkpt>
      <trkpt lat="40.313217" lon="-4.815567">
        <ele>2365.0</ele>
        <time>2018-06-23T13:23:25Z</time>
      </trkpt>
      <trkpt lat="40.313183" lon="-4.815567">
        <ele>2365.0</ele>
        <time>2018-06-23T13:23:26Z</time>
      </trkpt>
      <trkpt lat="40.313133" lon="-4.815533">
        <ele>2363.0</ele>
        <time>2018-06-23T13:23:27Z</time>
      </trkpt>
      <trkpt lat="40.313100" lon="-4.815467">
        <ele>2362.0</ele>
        <time>2018-06-23T13:23:28Z</time>
      </trkpt>
      <trkpt lat="40.313067" lon="-4.815383">
        <ele>2362.0</ele>
        <time>2018-06-23T13:23:29Z</time>
      </trkpt>
      <trkpt lat="40.313067" lon="-4.815283">
        <ele>2365.0</ele>
        <time>2018-06-23T13:23:30Z</time>
      </trkpt>
      <trkpt lat="40.313083" lon="-4.815167">
        <ele>2368.0</ele>
        <time>2018-06-23T13:23:31Z</time>
      </trkpt>
      <trkpt lat="40.313100" lon="-4.815083">
        <ele>2373.0</ele>
        <time>2018-06-23T13:23:32Z</time>
      </trkpt>
      <trkpt lat="40.313117" lon="-4.815000">
        <ele>2376.0</ele>
        <time>2018-06-23T13:23:33Z</time>
      </trkpt>
      <trkpt lat="40.313117" lon="-4.814917">
        <ele>2379.0</ele>
        <time>2018-06-23T13:23:34Z</time>
      </trkpt>
      <trkpt lat="40.313117" lon="-4.814850">
        <ele>2381.0</ele>
        <time>2018-06-23T13:23:35Z</time>
      </trkpt>
      <trkpt lat="40.313133" lon="-4.814767">
        <ele>2383.0</ele>
        <time>2018-06-23T13:23:36Z</time>
      </trkpt>
      <trkpt lat="40.313167" lon="-4.814700">
        <ele>2385.0</ele>
        <time>2018-06-23T13:23:37Z</time>
      </trkpt>
      <trkpt lat="40.313233" lon="-4.814617">
        <ele>2385.0</ele>
        <time>2018-06-23T13:23:38Z</time>
      </trkpt>
      <trkpt lat="40.313317" lon="-4.814567">
        <ele>2386.0</ele>
        <time>2018-06-23T13:23:39Z</time>
      </trkpt>
      <trkpt lat="40.313417" lon="-4.814533">
        <ele>2385.0</ele>
        <time>2018-06-23T13:23:40Z</time>
      </trkpt>
      <trkpt lat="40.313533" lon="-4.814517">
        <ele>2385.0</ele>
        <time>2018-06-23T13:23:41Z</time>
      </trkpt>
      <trkpt lat="40.313667" lon="-4.814517">
        <ele>2384.0</ele>
        <time>2018-06-23T13:23:42Z</time>
      </trkpt>
      <trkpt lat="40.313800" lon="-4.814550">
        <ele>2384.0</ele>
        <time>2018-06-23T13:23:43Z</time>
      </trkpt>
      <trkpt lat="40.313917" lon="-4.814600">
        <ele>2386.0</ele>
        <time>2018-06-23T13:23:44Z</time>
      </trkpt>
      <trkpt lat="40.314017" lon="-4.814683">
        <ele>2387.0</ele>
        <time>2018-06-23T13:23:45Z</time>
      </trkpt>
      <trkpt lat="40.314100" lon="-4.814767">
        <ele>2389.0</ele>
        <time>2018-06-23T13:23:46Z</time>
      </trkpt>
      <trkpt lat="40.314183" lon="-4.814867">
        <ele>2392.0</ele>
        <time>2018-06-23T13:23:47Z</time>
      </trkpt>
      <trkpt lat="40.314267" lon="-4.814967">
        <ele>2395.0</ele>
        <time>2018-06-23T13:23:48Z</time>
      </trkpt>
      <trkpt lat="40.314317" lon="-4.815067">
        <ele>2398.0</ele>
        <time>2018-06-23T13:23:49Z</time>
      </trkpt>
      <trkpt lat="40.314383" lon="-4.815183">
        <ele>2400.0</ele>
        <time>2018-06-23T13:23:50Z</time>
      </trkpt>
      <trkpt lat="40.314433" lon="-4.815283">
        <ele>2402.0</ele>
        <time>2018-06-23T13:23:51Z</time>
      </trkpt>
      <trkpt lat="40.314483" lon="-4.815383">
        <ele>2404.0</ele>
        <time>2018-06-23T13:23:52Z</time>
      </trkpt>
      <trkpt lat="40.314533" lon="-4.815500">
        <ele>2405.0</ele>
        <time>2018-06-23T13:23:53Z</time>
      </trkpt>
      <trkpt lat="40.314583" lon="-4.815617">
        <ele>2405.0</ele>
        <time>2018-06-23T13:23:54Z</time>
      </trkpt>
      <trkpt lat="40.314617" lon="-4.815750">
        <ele>2405.0</ele>
        <time>2018-06-23T13:23:55Z</time>
      </trkpt>
      <trkpt lat="40.314633" lon="-4.815883">
        <ele>2405.0</ele>
        <time>2018-06-23T13:23:56Z</time>
      </trkpt>
      <trkpt lat="40.314650" lon="-4.816017">
        <ele>2403.0</ele>
        <time>2018-06-23T13:23:57Z</time>
      </trkpt>
      <trkpt lat="40.314633" lon="-4.816150">
        <ele>2402.0</ele>
        <time>2018-06-23T13:23:58Z</time>
      </trkpt>
      <trkpt lat="40.314583" lon="-4.816267">
        <ele>2400.0</ele>
        <time>2018-06-23T13:23:59Z</time>
      </trkpt>
      <trkpt lat="40.314550" lon="-4.816383">
        <ele>2401.0</ele>
        <time>2018-06-23T13:24:00Z</time>
      </trkpt>
      <trkpt lat="40.314500" lon="-4.816467">
        <ele>2401.0</ele>
        <time>2018-06-23T13:24:01Z</time>
      </trkpt>
      <trkpt lat="40.314467" lon="-4.816550">
        <ele>2402.0</ele>
        <time>2018-06-23T13:24:02Z</time>
      </trkpt>
      <trkpt lat="40.314433" lon="-4.816617">
        <ele>2402.0</ele>
        <time>2018-06-23T13:24:03Z</time>
      </trkpt>
      <trkpt lat="40.314400" lon="-4.816667">
        <ele>2401.0</ele>
        <time>2018-06-23T13:24:04Z</time>
      </trkpt>
      <trkpt lat="40.314367" lon="-4.816717">
        <ele>2399.0</ele>
        <time>2018-06-23T13:24:05Z</time>
      </trkpt>
      <trkpt lat="40.314300" lon="-4.816767">
        <ele>2397.0</ele>
        <time>2018-06-23T13:24:06Z</time>
      </trkpt>
      <trkpt lat="40.314233" lon="-4.816817">
        <ele>2395.0</ele>
        <time>2018-06-23T13:24:07Z</time>
      </trkpt>
      <trkpt lat="40.314150" lon="-4.816833">
        <ele>2395.0</ele>
        <time>2018-06-23T13:24:08Z</time>
      </trkpt>
      <trkpt lat="40.314083" lon="-4.816850">
        <ele>2395.0</ele>
        <time>2018-06-23T13:24:09Z</time>
      </trkpt>
      <trkpt lat="40.314017" lon="-4.816850">
        <ele>2395.0</ele>
        <time>2018-06-23T13:24:10Z</time>
      </trkpt>
      <trkpt lat="40.313950" lon="-4.816850">
        <ele>2396.0</ele>
        <time>2018-06-23T13:24:11Z</time>
      </trkpt>
      <trkpt lat="40.313867" lon="-4.816867">
        <ele>2397.0</ele>
        <time>2018-06-23T13:24:12Z</time>
      </trkpt>
      <trkpt lat="40.313800" lon="-4.816867">
        <ele>2398.0</ele>
        <time>2018-06-23T13:24:13Z</time>
      </trkpt>
      <trkpt lat="40.313733" lon="-4.816867">
        <ele>2400.0</ele>
        <time>2018-06-23T13:24:14Z</time>
      </trkpt>
      <trkpt lat="40.313683" lon="-4.816883">
        <ele>2402.0</ele>
        <time>2018-06-23T13:24:15Z</time>
      </trkpt>
      <trkpt lat="40.313633" lon="-4.816900">
        <ele>2404.0</ele>
        <time>2018-06-23T13:24:16Z</time>
      </trkpt>
      <trkpt lat="40.313583" lon="-4.816900">
        <ele>2405.0</ele>
        <time>2018-06-23T13:24:17Z</time>
      </trkpt>
      <trkpt lat="40.313550" lon="-4.816883">
        <ele>2405.0</ele>
        <time>2018-06-23T13:24:18Z</time>
      </trkpt>
      <trkpt lat="40.313500" lon="-4.816850">
        <ele>2404.0</ele>
        <time>2018-06-23T13:24:19Z</time>
      </trkpt>
      <trkpt lat="40.313450" lon="-4.816783">
        <ele>2404.0</ele>
        <time>2018-06-23T13:24:20Z</time>
      </trkpt>
      <trkpt lat="40.313400" lon="-4.816733">
        <ele>2404.0</ele>
        <time>2018-06-23T13:24:21Z</time>
      </trkpt>
      <trkpt lat="40.313350" lon="-4.816683">
        <ele>2406.0</ele>
        <time>2018-06-23T13:24:22Z</time>
      </trkpt>
      <trkpt lat="40.313300" lon="-4.816633">
        <ele>2407.0</ele>
        <time>2018-06-23T13:24:23Z</time>
      </trkpt>
      <trkpt lat="40.313267" lon="-4.816617">
        <ele>2410.0</ele>
        <time>2018-06-23T13:24:24Z</time>
      </trkpt>
      <trkpt lat="40.313233" lon="-4.816600">
        <ele>2411.0</ele>
        <time>2018-06-23T13:24:25Z</time>
      </trkpt>
      <trkpt lat="40.313183" lon="-4.816583">
        <ele>2411.0</ele>
        <time>2018-06-23T13:24:26Z</time>
      </trkpt>
      <trkpt lat="40.313167" lon="-4.816550">
        <ele>2410.0</ele>
        <time>2018-06-23T13:24:27Z</time>
      </trkpt>
      <trkpt lat="40.313133" lon="-4.816500">
        <ele>2409.0</ele>
        <time>2018-06-23T13:24:28Z</time>
      </trkpt>
      <trkpt lat="40.313133" lon="-4.816433">
        <ele>2407.0</ele>
        <time>2018-06-23T13:24:29Z</time>
      </trkpt>
      <trkpt lat="40.313133" lon="-4.816333">
        <ele>2406.0</ele>
        <time>2018-06-23T13:24:30Z</time>
      </trkpt>
      <trkpt lat="40.313133" lon="-4.816217">
        <ele>2405.0</ele>
        <time>2018-06-23T13:24:31Z</time>
      </trkpt>
      <trkpt lat="40.313167" lon="-4.816100">
        <ele>2405.0</ele>
        <time>2018-06-23T13:24:32Z</time>
      </trkpt>
      <trkpt lat="40.313200" lon="-4.815983">
        <ele>2405.0</ele>
        <time>2018-06-23T13:24:33Z</time>
      </trkpt>
      <trkpt lat="40.313233" lon="-4.815867">
        <ele>2406.0</ele>
        <time>2018-06-23T13:24:34Z</time>
      </trkpt>
      <trkpt lat="40.313283" lon="-4.815767">
        <ele>2407.0</ele>
        <time>2018-06-23T13:24:35Z</time>
      </trkpt>
      <trkpt lat="40.313317" lon="-4.815683">
        <ele>2409.0</ele>
        <time>2018-06-23T13:24:36Z</time>
      </trkpt>
      <trkpt lat="40.313367" lon="-4.815583">
        <ele>2409.0</ele>
        <time>2018-06-23T13:24:37Z</time>
      </trkpt>
      <trkpt lat="40.313433" lon="-4.815500">
        <ele>2409.0</ele>
        <time>2018-06-23T13:24:38Z</time>
      </trkpt>
      <trkpt lat="40.313500" lon="-4.815400">
        <ele>2409.0</ele>
        <time>2018-06-23T13:24:39Z</time>
      </trkpt>
      <trkpt lat="40.313583" lon="-4.815300">
        <ele>2409.0</ele>
        <time>2018-06-23T13:24:40Z</time>
      </trkpt>
      <trkpt lat="40.313650" lon="-4.815217">
        <ele>2408.0</ele>
        <time>2018-06-23T13:24:41Z</time>
      </trkpt>
      <trkpt lat="40.313717" lon="-4.815117">
        <ele>2408.0</ele>
        <time>2018-06-23T13:24:42Z</time>
      </trkpt>
      <trkpt lat="40.313800" lon="-4.815033">
        <ele>2408.0</ele>
        <time>2018-06-23T13:24:43Z</time>
      </trkpt>
      <trkpt lat="40.313883" lon="-4.814933">
        <ele>2407.0</ele>
        <time>2018-06-23T13:24:44Z</time>
      </trkpt>
      <trkpt lat="40.313967" lon="-4.814850">
        <ele>2406.0</ele>
        <time>2018-06-23T13:24:45Z</time>
      </trkpt>
      <trkpt lat="40.314050" lon="-4.814750">
        <ele>2405.0</ele>
        <time>2018-06-23T13:24:46Z</time>
      </trkpt>
      <trkpt lat="40.314133" lon="-4.814650">
        <ele>2406.0</ele>
        <time>2018-06-23T13:24:47Z</time>
      </trkpt>
      <trkpt lat="40.314217" lon="-4.814550">
        <ele>2408.0</ele>
        <time>2018-06-23T13:24:48Z</time>
      </trkpt>
      <trkpt lat="40.314300" lon="-4.814450">
        <ele>2411.0</ele>
        <time>2018-06-23T13:24:49Z</time>
      </trkpt>
      <trkpt lat="40.314367" lon="-4.814350">
        <ele>2414.0</ele>
        <time>2018-06-23T13:24:50Z</time>
      </trkpt>
      <trkpt lat="40.314417" lon="-4.814267">
        <ele>2416.0</ele>
        <time>2018-06-23T13:24:51Z</time>
      </trkpt>
      <trkpt lat="40.314450" lon="-4.814167">
        <ele>2417.0</ele>
        <time>2018-06-23T13:24:52Z</time>
      </trkpt>
      <trkpt lat="40.314483" lon="-4.814083">
        <ele>2417.0</ele>
        <time>2018-06-23T13:24:53Z</time>
      </trkpt>
      <trkpt lat="40.314533" lon="-4.813983">
        <ele>2419.0</ele>
        <time>2018-06-23T13:24:54Z</time>
      </trkpt>
      <trkpt lat="40.314617" lon="-4.813883">
        <ele>2422.0</ele>
        <time>2018-06-23T13:24:55Z</time>
      </trkpt>
      <trkpt lat="40.314717" lon="-4.813817">
        <ele>2424.0</ele>
        <time>2018-06-23T13:24:56Z</time>
      </trkpt>
      <trkpt lat="40.314800" lon="-4.813750">
        <ele>2427.0</ele>
        <time>2018-06-23T13:24:57Z</time>
      </trkpt>
      <trkpt lat="40.314883" lon="-4.813700">
        <ele>2429.0</ele>
        <time>2018-06-23T13:24:58Z</time>
      </trkpt>
      <trkpt lat="40.314967" lon="-4.813667">
        <ele>2430.0</ele>
        <time>2018-06-23T13:24:59Z</time>
      </trkpt>
      <trkpt lat="40.315083" lon="-4.813667">
        <ele>2430.0</ele>
        <time>2018-06-23T13:25:00Z</time>
      </trkpt>
      <trkpt lat="40.315200" lon="-4.813700">
        <ele>2430.0</ele>
        <time>2018-06-23T13:25:01Z</time>
      </trkpt>
      <trkpt lat="40.315317" lon="-4.813767">
        <ele>2432.0</ele>
        <time>2018-06-23T13:25:02Z</time>
      </trkpt>
      <trkpt lat="40.315400" lon="-4.813850">
        <ele>2434.0</ele>
        <time>2018-06-23T13:25:03Z</time>
      </trkpt>
      <trkpt lat="40.315467" lon="-4.813967">
        <ele>2434.0</ele>
        <time>2018-06-23T13:25:04Z</time>
      </trkpt>
      <trkpt lat="40.315500" lon="-4.814100">
        <ele>2433.0</ele>
        <time>2018-06-23T13:25:05Z</time>
      </trkpt>
      <trkpt lat="40.315533" lon="-4.814267">
        <ele>2431.0</ele>
        <time>2018-06-23T13:25:06Z</time>
      </trkpt>
      <trkpt lat="40.315550" lon="-4.814433">
        <ele>2430.0</ele>
        <time>2018-06-23T13:25:07Z</time>
      </trkpt>
      <trkpt lat="40.315550" lon="-4.814600">
        <ele>2431.0</ele>
        <time>2018-06-23T13:25:08Z</time>
      </trkpt>
      <trkpt lat="40.315533" lon="-4.814750">
        <ele>2432.0</ele>
        <time>2018-06-23T13:25:09Z</time>
      </trkpt>
      <trkpt lat="40.315483" lon="-4.814867">
        <ele>2434.0</ele>
        <time>2018-06-23T13:25:10Z</time>
      </trkpt>
      <trkpt lat="40.315417" lon="-4.814967">
        <ele>2436.0</ele>
        <time>2018-06-23T13:25:11Z</time>
      </trkpt>
      <trkpt lat="40.315367" lon="-4.815050">
        <ele>2439.0</ele>
        <time>2018-06-23T13:25:12Z</time>
      </trkpt>
      <trkpt lat="40.315333" lon="-4.815100">
        <ele>2442.0</ele>
        <time>2018-06-23T13:25:13Z</time>
      </trkpt>
      <trkpt lat="40.315283" lon="-4.815133">
        <ele>2444.0</ele>
        <time>2018-06-23T13:25:14Z</time>
      </trkpt>
      <trkpt lat="40.315250" lon="-4.815150">
        <ele>2444.0</ele>
        <time>2018-06-23T13:25:15Z</time>
      </trkpt>
      <trkpt lat="40.315200" lon="-4.815150">
        <ele>2444.0</ele>
        <time>2018-06-23T13:25:16Z</time>
      </trkpt>
      <trkpt lat="40.315150" lon="-4.815150">
        <ele>2443.0</ele>
        <time>2018-06-23T13:25:17Z</time>
      </trkpt>
      <trkpt lat="40.315100" lon="-4.815133">
        <ele>2444.0</ele>
        <time>2018-06-23T13:25:18Z</time>
      </trkpt>
      <trkpt lat="40.315067" lon="-4.815100">
        <ele>2445.0</ele>
        <time>2018-06-23T13:25:19Z</time>
      </trkpt>
      <trkpt lat="40.315033" lon="-4.815067">
        <ele>2445.0</ele>
        <time>2018-06-23T13:25:20Z</time>
      </trkpt>
      <trkpt lat="40.315017" lon="-4.815000">
        <ele>2445.0</ele>
        <time>2018-06-23T13:25:21Z</time>
      </trkpt>
      <trkpt lat="40.315000" lon="-4.814917">
        <ele>2446.0</ele>
        <time>2018-06-23T13:25:22Z</time>
      </trkpt>
      <trkpt lat="40.315000" lon="-4.814833">
        <ele>2446.0</ele>
        <time>2018-06-23T13:25:23Z</time>
      </trkpt>
      <trkpt lat="40.315017" lon="-4.814733">
        <ele>2447.0</ele>
        <time>2018-06-23T13:25:24Z</time>
      </trkpt>
      <trkpt lat="40.315033" lon="-4.814650">
        <ele>2448.0</ele>
        <time>2018-06-23T13:25:25Z</time>
      </trkpt>
      <trkpt lat="40.315050" lon="-4.814533">
        <ele>2449.0</ele>
        <time>2018-06-23T13:25:26Z</time>
      </trkpt>
      <trkpt lat="40.315067" lon="-4.814433">
        <ele>2450.0</ele>
        <time>2018-06-23T13:25:27Z</time>
      </trkpt>
      <trkpt lat="40.315117" lon="-4.814333">
        <ele>2452.0</ele>
        <time>2018-06-23T13:25:28Z</time>
      </trkpt>
      <trkpt lat="40.315150" lon="-4.814217">
        <ele>2453.0</ele>
        <time>2018-06-23T13:25:29Z</time>
      </trkpt>
      <trkpt lat="40.315200" lon="-4.814117">
        <ele>2454.0</ele>
        <time>2018-06-23T13:25:30Z</time>
      </trkpt>
      <trkpt lat="40.315250" lon="-4.814000">
        <ele>2455.0</ele>
        <time>2018-06-23T13:25:31Z</time>
      </trkpt>
      <trkpt lat="40.315267" lon="-4.813900">
        <ele>2458.0</ele>
        <time>2018-06-23T13:25:32Z</time>
      </trkpt>
      <trkpt lat="40.315300" lon="-4.813817">
        <ele>2460.0</ele>
        <time>2018-06-23T13:25:33Z</time>
      </trkpt>
      <trkpt lat="40.315317" lon="-4.813750">
        <ele>2462.0</ele>
        <time>2018-06-23T13:25:34Z</time>
      </trkpt>
      <trkpt lat="40.315350" lon="-4.813683">
        <ele>2462.0</ele>
        <time>2018-06-23T13:25:35Z</time>
      </trkpt>
      <trkpt lat="40.315400" lon="-4.813633">
        <ele>2461.0</ele>
        <time>2018-06-23T13:25:36Z</time>
      </trkpt>
      <trkpt lat="40.315483" lon="-4.813583">
        <ele>2460.0</ele>
        <time>2018-06-23T13:25:37Z</time>
      </trkpt>
      <trkpt lat="40.315583" lon="-4.813533">
        <ele>2459.0</ele>
        <time>2018-06-23T13:25:38Z</time>
      </trkpt>
      <trkpt lat="40.315717" lon="-4.813533">
        <ele>2460.0</ele>
        <time>2018-06-23T13:25:39Z</time>
      </trkpt>
      <trkpt lat="40.315833" lon="-4.813550">
        <ele>2462.0</ele>
        <time>2018-06-23T13:25:40Z</time>
      </trkpt>
      <trkpt lat="40.315933" lon="-4.813617">
        <ele>2464.0</ele>
        <time>2018-06-23T13:25:41Z</time>
      </trkpt>
      <trkpt lat="40.316033" lon="-4.813683">
        <ele>2466.0</ele>
        <time>2018-06-23T13:25:42Z</time>
      </trkpt>
      <trkpt lat="40.316117" lon="-4.813767">
        <ele>2467.0</ele>
        <time>2018-06-23T13:25:43Z</time>
      </trkpt>
      <trkpt lat="40.316200" lon="-4.813867">
        <ele>2466.0</ele>
        <time>2018-06-23T13:25:44Z</time>
      </trkpt>
      <trkpt lat="40.316267" lon="-4.813967">
        <ele>2465.0</ele>
        <time>2018-06-23T13:25:45Z</time>
      </trkpt>
      <trkpt lat="40.316317" lon="-4.814117">
        <ele>2463.0</ele>
        <time>2018-06-23T13:25:46Z</time>
      </trkpt>
      <trkpt lat="40.316350" lon="-4.814267">
        <ele>2462.0</ele>
        <time>2018-06-23T13:25:47Z</time>
      </trkpt>
      <trkpt lat="40.316383" lon="-4.814417">
        <ele>2461.0</ele>
        <time>2018-06-23T13:25:48Z</time>
      </trkpt>
      <trkpt lat="40.316383" lon="-4.814567">
        <ele>2461.0</ele>
        <time>2018-06-23T13:25:49Z</time>
      </trkpt>
      <trkpt lat="40.316383" lon="-4.814717">
        <ele>2460.0</ele>
        <time>2018-06-23T13:25:50Z</time>
      </trkpt>
      <trkpt lat="40.316383" lon="-4.814867">
        <ele>2460.0</ele>
        <time>2018-06-23T13:25:51Z</time>
      </trkpt>
      <trkpt lat="40.316350" lon="-4.815000">
        <ele>2459.0</ele>
        <time>2018-06-23T13:25:52Z</time>
      </trkpt>
      <trkpt lat="40.316333" lon="-4.815117">
        <ele>2458.0</ele>
        <time>2018-06-23T13:25:53Z</time>
      </trkpt>
      <trkpt lat="40.316300" lon="-4.815233">
        <ele>2456.0</ele>
        <time>2018-06-23T13:25:54Z</time>
      </trkpt>
      <trkpt lat="40.316250" lon="-4.815350">
        <ele>2455.0</ele>
        <time>2018-06-23T13:25:55Z</time>
      </trkpt>
      <trkpt lat="40.316200" lon="-4.815467">
        <ele>2454.0</ele>
        <time>2018-06-23T13:25:56Z</time>
      </trkpt>
      <trkpt lat="40.316150" lon="-4.815583">
        <ele>2454.0</ele>
        <time>2018-06-23T13:25:57Z</time>
      </trkpt>
      <trkpt lat="40.316100" lon="-4.815733">
        <ele>2455.0</ele>
        <time>2018-06-23T13:25:58Z</time>
      </trkpt>
      <trkpt lat="40.316067" lon="-4.815883">
        <ele>2457.0</ele>
        <time>2018-06-23T13:25:59Z</time>
      </trkpt>
      <trkpt lat="40.316050" lon="-4.816033">
        <ele>2460.0</ele>
        <time>2018-06-23T13:26:00Z</time>
      </trkpt>
      <trkpt lat="40.316050" lon="-4.816150">
        <ele>2462.0</ele>
        <time>2018-06-23T13:26:01Z</time>
      </trkpt>
      <trkpt lat="40.316050" lon="-4.816267">
        <ele>2462.0</ele>
        <time>2018-06-23T13:26:02Z</time>
      </trkpt>
      <trkpt lat="40.316050" lon="-4.816367">
        <ele>2461.0</ele>
        <time>2018-06-23T13:26:03Z</time>
      </trkpt>
      <trkpt lat="40.316017" lon="-4.816450">
        <ele>2459.0</ele>
        <time>2018-06-23T13:26:04Z</time>
      </trkpt>
      <trkpt lat="40.315983" lon="-4.816550">
        <ele>2456.0</ele>
        <time>2018-06-23T13:26:05Z</time>
      </trkpt>
      <trkpt lat="40.315917" lon="-4.816617">
        <ele>2453.0</ele>
        <time>2018-06-23T13:26:06Z</time>
      </trkpt>
      <trkpt lat="40.315850" lon="-4.816667">
        <ele>2453.0</ele>
        <time>2018-06-23T13:26:07Z</time>
      </trkpt>
      <trkpt lat="40.315800" lon="-4.816700">
        <ele>2453.0</ele>
        <time>2018-06-23T13:26:08Z</time>
      </trkpt>
      <trkpt lat="40.315767" lon="-4.816700">
        <ele>2453.0</ele>
        <time>2018-06-23T13:26:09Z</time>
      </trkpt>
      <trkpt lat="40.315717" lon="-4.816667">
        <ele>2451.0</ele>
        <time>2018-06-23T13:26:10Z</time>
      </trkpt>
      <trkpt lat="40.315667" lon="-4.816633">
        <ele>2449.0</ele>
        <time>2018-06-23T13:26:11Z</time>
      </trkpt>
      <trkpt lat="40.315617" lon="-4.816567">
        <ele>2447.0</ele>
        <time>2018-06-23T13:26:12Z</time>
      </trkpt>
      <trkpt lat="40.315567" lon="-4.816500">
        <ele>2446.0</ele>
        <time>2018-06-23T13:26:13Z</time>
      </trkpt>
      <trkpt lat="40.315533" lon="-4.816450">
        <ele>2446.0</ele>
        <time>2018-06-23T13:26:14Z</time>
      </trkpt>
      <trkpt lat="40.315483" lon="-4.816400">
        <ele>2446.0</ele>
        <time>2018-06-23T13:26:15Z</time>
      </trkpt>
      <trkpt lat="40.315467" lon="-4.816367">
        <ele>2445.0</ele>
        <time>2018-06-23T13:26:16Z</time>
      </trkpt>
      <trkpt lat="40.315433" lon="-4.816333">
        <ele>2444.0</ele>
        <time>2018-06-23T13:26:17Z</time>
      </trkpt>
      <trkpt lat="40.315400" lon="-4.816300">
        <ele>2442.0</ele>
        <time>2018-06-23T13:26:18Z</time>
      </trkpt>
      <trkpt lat="40.315383" lon="-4.816250">
        <ele>2439.0</ele>
        <time>2018-06-23T13:26:19Z</time>
      </trkpt>
      <trkpt lat="40.315350" lon="-4.816183">
        <ele>2437.0</ele>
        <time>2018-06-23T13:26:20Z</time>
      </trkpt>
      <trkpt lat="40.315333" lon="-4.816117">
        <ele>2435.0</ele>
        <time>2018-06-23T13:26:21Z</time>
      </trkpt>
      <trkpt lat="40.315317" lon="-4.816033">
        <ele>2432.0</ele>
        <time>2018-06-23T13:26:22Z</time>
      </trkpt>
      <trkpt lat="40.315300" lon="-4.815950">
        <ele>2430.0</ele>
        <time>2018-06-23T13:26:23Z</time>
      </trkpt>
      <trkpt lat="40.315300" lon="-4.815883">
        <ele>2428.0</ele>
        <time>2018-06-23T13:26:24Z</time>
      </trkpt>
      <trkpt lat="40.315300" lon="-4.815817">
        <ele>2426.0</ele>
        <time>2018-06-23T13:26:25Z</time>
      </trkpt>
      <trkpt lat="40.315267" lon="-4.815767">
        <ele>2424.0</ele>
        <time>2018-06-23T13:26:26Z</time>
      </trkpt>
      <trkpt lat="40.315250" lon="-4.815700">
        <ele>2423.0</ele>
        <time>2018-06-23T13:26:27Z</time>
      </trkpt>
      <trkpt lat="40.315233" lon="-4.815633">
        <ele>2422.0</ele>
        <time>2018-06-23T13:26:28Z</time>
      </trkpt>
      <trkpt lat="40.315217" lon="-4.815583">
        <ele>2423.0</ele>
        <time>2018-06-23T13:26:29Z</time>
      </trkpt>
      <trkpt lat="40.315200" lon="-4.815550">
        <ele>2423.0</ele>
        <time>2018-06-23T13:26:30Z</time>
      </trkpt>
      <trkpt lat="40.315183" lon="-4.815500">
        <ele>2422.0</ele>
        <time>2018-06-23T13:26:31Z</time>
      </trkpt>
      <trkpt lat="40.315167" lon="-4.815450">
        <ele>2421.0</ele>
        <time>2018-06-23T13:26:32Z</time>
      </trkpt>
      <trkpt lat="40.315150" lon="-4.815367">
        <ele>2420.0</ele>
        <time>2018-06-23T13:26:33Z</time>
      </trkpt>
      <trkpt lat="40.315133" lon="-4.815300">
        <ele>2419.0</ele>
        <time>2018-06-23T13:26:34Z</time>
      </trkpt>
      <trkpt lat="40.315117" lon="-4.815233">
        <ele>2421.0</ele>
        <time>2018-06-23T13:26:35Z</time>
      </trkpt>
      <trkpt lat="40.315100" lon="-4.815167">
        <ele>2423.0</ele>
        <time>2018-06-23T13:26:36Z</time>
      </trkpt>
      <trkpt lat="40.315100" lon="-4.815117">
        <ele>2424.0</ele>
        <time>2018-06-23T13:26:37Z</time>
      </trkpt>
      <trkpt lat="40.315083" lon="-4.815067">
        <ele>2424.0</ele>
        <time>2018-06-23T13:26:38Z</time>
      </trkpt>
      <trkpt lat="40.315083" lon="-4.815000">
        <ele>2424.0</ele>
        <time>2018-06-23T13:26:39Z</time>
      </trkpt>
      <trkpt lat="40.315067" lon="-4.814917">
        <ele>2423.0</ele>
        <time>2018-06-23T13:26:40Z</time>
      </trkpt>
      <trkpt lat="40.315050" lon="-4.814833">
        <ele>2423.0</ele>
        <time>2018-06-23T13:26:41Z</time>
      </trkpt>
      <trkpt lat="40.315033" lon="-4.814750">
        <ele>2424.0</ele>
        <time>2018-06-23T13:26:42Z</time>
      </trkpt>
      <trkpt lat="40.315017" lon="-4.814667">
        <ele>2424.0</ele>
        <time>2018-06-23T13:26:43Z</time>
      </trkpt>
      <trkpt lat="40.315017" lon="-4.814600">
        <ele>2425.0</ele>
        <time>2018-06-23T13:26:44Z</time>
      </trkpt>
      <trkpt lat="40.314983" lon="-4.814533">
        <ele>2426.0</ele>
        <time>2018-06-23T13:26:45Z</time>
      </trkpt>
      <trkpt lat="40.314967" lon="-4.814467">
        <ele>2426.0</ele>
        <time>2018-06-23T13:26:46Z</time>
      </trkpt>
      <trkpt lat="40.314950" lon="-4.814400">
        <ele>2425.0</ele>
        <time>2018-06-23T13:26:47Z</time>
      </trkpt>
      <trkpt lat="40.314933" lon="-4.814333">
        <ele>2424.0</ele>
        <time>2018-06-23T13:26:48Z</time>
      </trkpt>
      <trkpt lat="40.314917" lon="-4.814233">
        <ele>2424.0</ele>
        <time>2018-06-23T13:26:49Z</time>
      </trkpt>
      <trkpt lat="40.314900" lon="-4.814150">
        <ele>2424.0</ele>
        <time>2018-06-23T13:26:50Z</time>
      </trkpt>
      <trkpt lat="40.314883" lon="-4.814067">
        <ele>2424.0</ele>
        <time>2018-06-23T13:26:51Z</time>
      </trkpt>
      <trkpt lat="40.314867" lon="-4.813983">
        <ele>2425.0</ele>
        <time>2018-06-23T13:26:52Z</time>
      </trkpt>
      <trkpt lat="40.314850" lon="-4.813900">
        <ele>2426.0</ele>
        <time>2018-06-23T13:26:53Z</time>
      </trkpt>
      <trkpt lat="40.314833" lon="-4.813833">
        <ele>2427.0</ele>
        <time>2018-06-23T13:26:54Z</time>
      </trkpt>
      <trkpt lat="40.314817" lon="-4.813750">
        <ele>2427.0</ele>
        <time>2018-06-23T13:26:55Z</time>
      </trkpt>
      <trkpt lat="40.314817" lon="-4.813683">
        <ele>2427.0</ele>
        <time>2018-06-23T13:26:56Z</time>
      </trkpt>
      <trkpt lat="40.314833" lon="-4.813583">
        <ele>2426.0</ele>
        <time>2018-06-23T13:26:57Z</time>
      </trkpt>
      <trkpt lat="40.314867" lon="-4.813483">
        <ele>2425.0</ele>
        <time>2018-06-23T13:26:58Z</time>
      </trkpt>
      <trkpt lat="40.314900" lon="-4.813350">
        <ele>2426.0</ele>
        <time>2018-06-23T13:26:59Z</time>
      </trkpt>
      <trkpt lat="40.314933" lon="-4.813217">
        <ele>2428.0</ele>
        <time>2018-06-23T13:27:00Z</time>
      </trkpt>
      <trkpt lat="40.314967" lon="-4.813117">
        <ele>2432.0</ele>
        <time>2018-06-23T13:27:01Z</time>
      </trkpt>
      <trkpt lat="40.314983" lon="-4.813033">
        <ele>2436.0</ele>
        <time>2018-06-23T13:27:02Z</time>
      </trkpt>
      <trkpt lat="40.315000" lon="-4.812967">
        <ele>2440.0</ele>
        <time>2018-06-23T13:27:03Z</time>
      </trkpt>
      <trkpt lat="40.315017" lon="-4.812917">
        <ele>2442.0</ele>
        <time>2018-06-23T13:27:04Z</time>
      </trkpt>
      <trkpt lat="40.315017" lon="-4.812833">
        <ele>2444.0</ele>
        <time>2018-06-23T13:27:05Z</time>
      </trkpt>
      <trkpt lat="40.315050" lon="-4.812767">
        <ele>2445.0</ele>
        <time>2018-06-23T13:27:06Z</time>
      </trkpt>
      <trkpt lat="40.315117" lon="-4.812683">
        <ele>2447.0</ele>
        <time>2018-06-23T13:27:07Z</time>
      </trkpt>
      <trkpt lat="40.315200" lon="-4.812617">
        <ele>2448.0</ele>
        <time>2018-06-23T13:27:08Z</time>
      </trkpt>
      <trkpt lat="40.315300" lon="-4.812583">
        <ele>2451.0</ele>
        <time>2018-06-23T13:27:09Z</time>
      </trkpt>
      <trkpt lat="40.315417" lon="-4.812567">
        <ele>2453.0</ele>
        <time>2018-06-23T13:27:10Z</time>
      </trkpt>
      <trkpt lat="40.315533" lon="-4.812567">
        <ele>2456.0</ele>
        <time>2018-06-23T13:27:11Z</time>
      </trkpt>
      <trkpt lat="40.315650" lon="-4.812617">
        <ele>2458.0</ele>
        <time>2018-06-23T13:27:12Z</time>
      </trkpt>
      <trkpt lat="40.315750" lon="-4.812683">
        <ele>2460.0</ele>
        <time>2018-06-23T13:27:13Z</time>
      </trkpt>
      <trkpt lat="40.315850" lon="-4.812783">
        <ele>2462.0</ele>
        <time>2018-06-23T13:27:14Z</time>
      </trkpt>
      <trkpt lat="40.315900" lon="-4.812933">
        <ele>2465.0</ele>
        <time>2018-06-23T13:27:15Z</time>
      </trkpt>
      <trkpt lat="40.315933" lon="-4.813083">
        <ele>2468.0</ele>
        <time>2018-06-23T13:27:16Z</time>
      </trkpt>
      <trkpt lat="40.315933" lon="-4.813233">
        <ele>2471.0</ele>
        <time>2018-06-23T13:27:17Z</time>
      </trkpt>
      <trkpt lat="40.315883" lon="-4.813350">
        <ele>2475.0</ele>
        <time>2018-06-23T13:27:18Z</time>
      </trkpt>
      <trkpt lat="40.315833" lon="-4.813450">
        <ele>2478.0</ele>
        <time>2018-06-23T13:27:19Z</time>
      </trkpt>
      <trkpt lat="40.315767" lon="-4.813517">
        <ele>2480.0</ele>
        <time>2018-06-23T13:27:20Z</time>
      </trkpt>
      <trkpt lat="40.315683" lon="-4.813567">
        <ele>2481.0</ele>
        <time>2018-06-23T13:27:21Z</time>
      </trkpt>
      <trkpt lat="40.315600" lon="-4.813583">
        <ele>2482.0</ele>
        <time>2018-06-23T13:27:22Z</time>
      </trkpt>
      <trkpt lat="40.315533" lon="-4.813583">
        <ele>2484.0</ele>
        <time>2018-06-23T13:27:23Z</time>
      </trkpt>
      <trkpt lat="40.315467" lon="-4.813550">
        <ele>2486.0</ele>
        <time>2018-06-23T13:27:24Z</time>
      </trkpt>
      <trkpt lat="40.315417" lon="-4.813500">
        <ele>2488.0</ele>
        <time>2018-06-23T13:27:25Z</time>
      </trkpt>
      <trkpt lat="40.315383" lon="-4.813417">
        <ele>2490.0</ele>
        <time>2018-06-23T13:27:26Z</time>
      </trkpt>
      <trkpt lat="40.315383" lon="-4.813317">
        <ele>2491.0</ele>
        <time>2018-06-23T13:27:27Z</time>
      </trkpt>
      <trkpt lat="40.315400" lon="-4.813233">
        <ele>2493.0</ele>
        <time>2018-06-23T13:27:28Z</time>
      </trkpt>
      <trkpt lat="40.315433" lon="-4.813133">
        <ele>2495.0</ele>
        <time>2018-06-23T13:27:29Z</time>
      </trkpt>
      <trkpt lat="40.315483" lon="-4.813050">
        <ele>2497.0</ele>
        <time>2018-06-23T13:27:30Z</time>
      </trkpt>
      <trkpt lat="40.315567" lon="-4.812983">
        <ele>2497.0</ele>
        <time>2018-06-23T13:27:31Z</time>
      </trkpt>
      <trkpt lat="40.315683" lon="-4.812950">
        <ele>2499.0</ele>
        <time>2018-06-23T13:27:32Z</time>
      </trkpt>
      <trkpt lat="40.315800" lon="-4.812933">
        <ele>2501.0</ele>
        <time>2018-06-23T13:27:33Z</time>
      </trkpt>
      <trkpt lat="40.315917" lon="-4.812967">
        <ele>2503.0</ele>
        <time>2018-06-23T13:27:34Z</time>
      </trkpt>
      <trkpt lat="40.316033" lon="-4.813000">
        <ele>2505.0</ele>
        <time>2018-06-23T13:27:35Z</time>
      </trkpt>
      <trkpt lat="40.316150" lon="-4.813083">
        <ele>2507.0</ele>
        <time>2018-06-23T13:27:36Z</time>
      </trkpt>
      <trkpt lat="40.316233" lon="-4.813200">
        <ele>2509.0</ele>
        <time>2018-06-23T13:27:37Z</time>
      </trkpt>
      <trkpt lat="40.316283" lon="-4.813333">
        <ele>2509.0</ele>
        <time>2018-06-23T13:27:38Z</time>
      </trkpt>
      <trkpt lat="40.316317" lon="-4.813500">
        <ele>2511.0</ele>
        <time>2018-06-23T13:27:39Z</time>
      </trkpt>
      <trkpt lat="40.316350" lon="-4.813683">
        <ele>2514.0</ele>
        <time>2018-06-23T13:27:40Z</time>
      </trkpt>
      <trkpt lat="40.316333" lon="-4.813850">
        <ele>2519.0</ele>
        <time>2018-06-23T13:27:41Z</time>
      </trkpt>
      <trkpt lat="40.316333" lon="-4.813983">
        <ele>2524.0</ele>
        <time>2018-06-23T13:27:42Z</time>
      </trkpt>
      <trkpt lat="40.316300" lon="-4.814083">
        <ele>2526.0</ele>
        <time>2018-06-23T13:27:43Z</time>
      </trkpt>
      <trkpt lat="40.316267" lon="-4.814183">
        <ele>2527.0</ele>
        <time>2018-06-23T13:27:44Z</time>
      </trkpt>
      <trkpt lat="40.316217" lon="-4.814250">
        <ele>2528.0</ele>
        <time>2018-06-23T13:27:45Z</time>
      </trkpt>
      <trkpt lat="40.316150" lon="-4.814317">
        <ele>2528.0</ele>
        <time>2018-06-23T13:27:46Z</time>
      </trkpt>
      <trkpt lat="40.316067" lon="-4.814367">
        <ele>2529.0</ele>
        <time>2018-06-23T13:27:47Z</time>
      </trkpt>
      <trkpt lat="40.316000" lon="-4.814383">
        <ele>2529.0</ele>
        <time>2018-06-23T13:27:48Z</time>
      </trkpt>
      <trkpt lat="40.315950" lon="-4.814367">
        <ele>2529.0</ele>
        <time>2018-06-23T13:27:49Z</time>
      </trkpt>
      <trkpt lat="40.315900" lon="-4.814317">
        <ele>2529.0</ele>
        <time>2018-06-23T13:27:50Z</time>
      </trkpt>
      <trkpt lat="40.315850" lon="-4.814233">
        <ele>2530.0</ele>
        <time>2018-06-23T13:27:51Z</time>
      </trkpt>
      <trkpt lat="40.315833" lon="-4.814150">
        <ele>2532.0</ele>
        <time>2018-06-23T13:27:52Z</time>
      </trkpt>
      <trkpt lat="40.315817" lon="-4.814050">
        <ele>2535.0</ele>
        <time>2018-06-23T13:27:53Z</time>
      </trkpt>
      <trkpt lat="40.315800" lon="-4.813967">
        <ele>2537.0</ele>
        <time>2018-06-23T13:27:54Z</time>
      </trkpt>
      <trkpt lat="40.315817" lon="-4.813883">
        <ele>2539.0</ele>
        <time>2018-06-23T13:27:55Z</time>
      </trkpt>
      <trkpt lat="40.315850" lon="-4.813783">
        <ele>2540.0</ele>
        <time>2018-06-23T13:27:56Z</time>
      </trkpt>
      <trkpt lat="40.315917" lon="-4.813700">
        <ele>2540.0</ele>
        <time>2018-06-23T13:27:57Z</time>
      </trkpt>
      <trkpt lat="40.316000" lon="-4.813617">
        <ele>2541.0</ele>
        <time>2018-06-23T13:27:58Z</time>
      </trkpt>
      <trkpt lat="40.316100" lon="-4.813550">
        <ele>2542.0</ele>
        <time>2018-06-23T13:27:59Z</time>
      </trkpt>
      <trkpt lat="40.316217" lon="-4.813500">
        <ele>2543.0</ele>
        <time>2018-06-23T13:28:00Z</time>
      </trkpt>
      <trkpt lat="40.316317" lon="-4.813483">
        <ele>2545.0</ele>
        <time>2018-06-23T13:28:01Z</time>
      </trkpt>
      <trkpt lat="40.316433" lon="-4.813517">
        <ele>2546.0</ele>
        <time>2018-06-23T13:28:02Z</time>
      </trkpt>
      <trkpt lat="40.316567" lon="-4.813567">
        <ele>2546.0</ele>
        <time>2018-06-23T13:28:03Z</time>
      </trkpt>
      <trkpt lat="40.316683" lon="-4.813667">
        <ele>2547.0</ele>
        <time>2018-06-23T13:28:04Z</time>
      </trkpt>
      <trkpt lat="40.316767" lon="-4.813800">
        <ele>2548.0</ele>
        <time>2018-06-23T13:28:05Z</time>
      </trkpt>
      <trkpt lat="40.316833" lon="-4.813950">
        <ele>2551.0</ele>
        <time>2018-06-23T13:28:06Z</time>
      </trkpt>
      <trkpt lat="40.316883" lon="-4.814083">
        <ele>2553.0</ele>
        <time>2018-06-23T13:28:07Z</time>
      </trkpt>
      <trkpt lat="40.316900" lon="-4.814233">
        <ele>2556.0</ele>
        <time>2018-06-23T13:28:08Z</time>
      </trkpt>
      <trkpt lat="40.316883" lon="-4.814367">
        <ele>2557.0</ele>
        <time>2018-06-23T13:28:09Z</time>
      </trkpt>
      <trkpt lat="40.316867" lon="-4.814500">
        <ele>2557.0</ele>
        <time>2018-06-23T13:28:10Z</time>
      </trkpt>
      <trkpt lat="40.316833" lon="-4.814633">
        <ele>2559.0</ele>
        <time>2018-06-23T13:28:11Z</time>
      </trkpt>
      <trkpt lat="40.316783" lon="-4.814733">
        <ele>2561.0</ele>
        <time>2018-06-23T13:28:12Z</time>
      </trkpt>
      <trkpt lat="40.316717" lon="-4.814800">
        <ele>2562.0</ele>
        <time>2018-06-23T13:28:13Z</time>
      </trkpt>
      <trkpt lat="40.316633" lon="-4.814833">
        <ele>2564.0</ele>
        <time>2018-06-23T13:28:14Z</time>
      </trkpt>
      <trkpt lat="40.316550" lon="-4.814833">
        <ele>2566.0</ele>
        <time>2018-06-23T13:28:15Z</time>
      </trkpt>
      <trkpt lat="40.316483" lon="-4.814800">
        <ele>2567.0</ele>
        <time>2018-06-23T13:28:16Z</time>
      </trkpt>
      <trkpt lat="40.316450" lon="-4.814750">
        <ele>2569.0</ele>
        <time>2018-06-23T13:28:17Z</time>
      </trkpt>
      <trkpt lat="40.316417" lon="-4.814683">
        <ele>2569.0</ele>
        <time>2018-06-23T13:28:18Z</time>
      </trkpt>
      <trkpt lat="40.316400" lon="-4.814617">
        <ele>2570.0</ele>
        <time>2018-06-23T13:28:19Z</time>
      </trkpt>
      <trkpt lat="40.316400" lon="-4.814517">
        <ele>2570.0</ele>
        <time>2018-06-23T13:28:20Z</time>
      </trkpt>
      <trkpt lat="40.316417" lon="-4.814417">
        <ele>2570.0</ele>
        <time>2018-06-23T13:28:21Z</time>
      </trkpt>
      <trkpt lat="40.316450" lon="-4.814317">
        <ele>2571.0</ele>
        <time>2018-06-23T13:28:22Z</time>
      </trkpt>
      <trkpt lat="40.316500" lon="-4.814233">
        <ele>2571.0</ele>
        <time>2018-06-23T13:28:23Z</time>
      </trkpt>
      <trkpt lat="40.316567" lon="-4.814133">
        <ele>2572.0</ele>
        <time>2018-06-23T13:28:24Z</time>
      </trkpt>
      <trkpt lat="40.316650" lon="-4.814067">
        <ele>2574.0</ele>
        <time>2018-06-23T13:28:25Z</time>
      </trkpt>
      <trkpt lat="40.316750" lon="-4.814000">
        <ele>2575.0</ele>
        <time>2018-06-23T13:28:26Z</time>
      </trkpt>
      <trkpt lat="40.316850" lon="-4.813967">
        <ele>2576.0</ele>
        <time>2018-06-23T13:28:27Z</time>
      </trkpt>
      <trkpt lat="40.316950" lon="-4.813950">
        <ele>2576.0</ele>
        <time>2018-06-23T13:28:28Z</time>
      </trkpt>
      <trkpt lat="40.317067" lon="-4.813950">
        <ele>2576.0</ele>
        <time>2018-06-23T13:28:29Z</time>
      </trkpt>
      <trkpt lat="40.317183" lon="-4.813983">
        <ele>2576.0</ele>
        <time>2018-06-23T13:28:30Z</time>
      </trkpt>
      <trkpt lat="40.317300" lon="-4.814050">
        <ele>2576.0</ele>
        <time>2018-06-23T13:28:31Z</time>
      </trkpt>
      <trkpt lat="40.317417" lon="-4.814150">
        <ele>2577.0</ele>
        <time>2018-06-23T13:28:32Z</time>
      </trkpt>
      <trkpt lat="40.317517" lon="-4.814267">
        <ele>2577.0</ele>
        <time>2018-06-23T13:28:33Z</time>
      </trkpt>
      <trkpt lat="40.317583" lon="-4.814400">
        <ele>2578.0</ele>
        <time>2018-06-23T13:28:34Z</time>
      </trkpt>
      <trkpt lat="40.317650" lon="-4.814550">
        <ele>2579.0</ele>
        <time>2018-06-23T13:28:35Z</time>
      </trkpt>
      <trkpt lat="40.317683" lon="-4.814700">
        <ele>2580.0</ele>
        <time>2018-06-23T13:28:36Z</time>
      </trkpt>
      <trkpt lat="40.317717" lon="-4.814867">
        <ele>2581.0</ele>
        <time>2018-06-23T13:28:37Z</time>
      </trkpt>
      <trkpt lat="40.317717" lon="-4.815017">
        <ele>2583.0</ele>
        <time>2018-06-23T13:28:38Z</time>
      </trkpt>
      <trkpt lat="40.317700" lon="-4.815150">
        <ele>2584.0</ele>
        <time>2018-06-23T13:28:39Z</time>
      </trkpt>
      <trkpt lat="40.317667" lon="-4.815267">
        <ele>2585.0</ele>
        <time>2018-06-23T13:28:40Z</time>
      </trkpt>
      <trkpt lat="40.317617" lon="-4.815350">
        <ele>2585.0</ele>
        <time>2018-06-23T13:28:41Z</time>
      </trkpt>
      <trkpt lat="40.317550" lon="-4.815433">
        <ele>2585.0</ele>
        <time>2018-06-23T13:28:42Z</time>
      </trkpt>
      <trkpt lat="40.317483" lon="-4.815500">
        <ele>2586.0</ele>
        <time>2018-06-23T13:28:43Z</time>
      </trkpt>
      <trkpt lat="40.317417" lon="-4.815533">
        <ele>2588.0</ele>
        <time>2018-06-23T13:28:44Z</time>
      </trkpt>
      <trkpt lat="40.317350" lon="-4.815517">
        <ele>2589.0</ele>
        <time>2018-06-23T13:28:45Z</time>
      </trkpt>
      <trkpt lat="40.317300" lon="-4.815483">
        <ele>2590.0</ele>
        <time>2018-06-23T13:28:46Z</time>
      </trkpt>
      <trkpt lat="40.317250" lon="-4.815417">
        <ele>2591.0</ele>
        <time>2018-06-23T13:28:47Z</time>
      </trkpt>
      <trkpt lat="40.317217" lon="-4.815317">
        <ele>2593.0</ele>
        <time>2018-06-23T13:28:48Z</time>
      </trkpt>
      <trkpt lat="40.317217" lon="-4.815233">
        <ele>2596.0</ele>
        <time>2018-06-23T13:28:49Z</time>
      </trkpt>
      <trkpt lat="40.317217" lon="-4.815133">
        <ele>2599.0</ele>
        <time>2018-06-23T13:28:50Z</time>
      </trkpt>
      <trkpt lat="40.317233" lon="-4.815050">
        <ele>2600.0</ele>
        <time>2018-06-23T13:28:51Z</time>
      </trkpt>
      <trkpt lat="40.317283" lon="-4.814967">
        <ele>2601.0</ele>
        <time>2018-06-23T13:28:52Z</time>
      </trkpt>
      <trkpt lat="40.317333" lon="-4.814883">
        <ele>2600.0</ele>
        <time>2018-06-23T13:28:53Z</time>
      </trkpt>
      <trkpt lat="40.317433" lon="-4.814800">
        <ele>2600.0</ele>
        <time>2018-06-23T13:28:54Z</time>
      </trkpt>
      <trkpt lat="40.317533" lon="-4.814733">
        <ele>2600.0</ele>
        <time>2018-06-23T13:28:55Z</time>
      </trkpt>
      <trkpt lat="40.317650" lon="-4.814733">
        <ele>2600.0</ele>
        <time>2018-06-23T13:28:56Z</time>
      </trkpt>
      <trkpt lat="40.317767" lon="-4.814750">
        <ele>2599.0</ele>
        <time>2018-06-23T13:28:57Z</time>
      </trkpt>
      <trkpt lat="40.317900" lon="-4.814817">
        <ele>2598.0</ele>
        <time>2018-06-23T13:28:58Z</time>
      </trkpt>
      <trkpt lat="40.318000" lon="-4.814900">
        <ele>2598.0</ele>
        <time>2018-06-23T13:28:59Z</time>
      </trkpt>
      <trkpt lat="40.318100" lon="-4.815017">
        <ele>2599.0</ele>
        <time>2018-06-23T13:29:00Z</time>
      </trkpt>
      <trkpt lat="40.318200" lon="-4.815133">
        <ele>2600.0</ele>
        <time>2018-06-23T13:29:01Z</time>
      </trkpt>
      <trkpt lat="40.318267" lon="-4.815283">
        <ele>2601.0</ele>
        <time>2018-06-23T13:29:02Z</time>
      </trkpt>
      <trkpt lat="40.318317" lon="-4.815433">
        <ele>2603.0</ele>
        <time>2018-06-23T13:29:03Z</time>
      </trkpt>
      <trkpt lat="40.318350" lon="-4.815583">
        <ele>2604.0</ele>
        <time>2018-06-23T13:29:04Z</time>
      </trkpt>
      <trkpt lat="40.318383" lon="-4.815733">
        <ele>2605.0</ele>
        <time>2018-06-23T13:29:05Z</time>
      </trkpt>
      <trkpt lat="40.318367" lon="-4.815867">
        <ele>2606.0</ele>
        <time>2018-06-23T13:29:06Z</time>
      </trkpt>
      <trkpt lat="40.318333" lon="-4.816000">
        <ele>2606.0</ele>
        <time>2018-06-23T13:29:07Z</time>
      </trkpt>
      <trkpt lat="40.318283" lon="-4.816117">
        <ele>2606.0</ele>
        <time>2018-06-23T13:29:08Z</time>
      </trkpt>
      <trkpt lat="40.318217" lon="-4.816200">
        <ele>2606.0</ele>
        <time>2018-06-23T13:29:09Z</time>
      </trkpt>
      <trkpt lat="40.318150" lon="-4.816267">
        <ele>2607.0</ele>
        <time>2018-06-23T13:29:10Z</time>
      </trkpt>
      <trkpt lat="40.318083" lon="-4.816300">
        <ele>2609.0</ele>
        <time>2018-06-23T13:29:11Z</time>
      </trkpt>
      <trkpt lat="40.318000" lon="-4.816317">
        <ele>2610.0</ele>
        <time>2018-06-23T13:29:12Z</time>
      </trkpt>
      <trkpt lat="40.317950" lon="-4.816300">
        <ele>2611.0</ele>
        <time>2018-06-23T13:29:13Z</time>
      </trkpt>
      <trkpt lat="40.317883" lon="-4.816267">
        <ele>2611.0</ele>
        <time>2018-06-23T13:29:14Z</time>
      </trkpt>
      <trkpt lat="40.317833" lon="-4.816217">
        <ele>2612.0</ele>
        <time>2018-06-23T13:29:15Z</time>
      </trkpt>
      <trkpt lat="40.317783" lon="-4.816150">
        <ele>2612.0</ele>
        <time>2018-06-23T13:29:16Z</time>
      </trkpt>
      <trkpt lat="40.317750" lon="-4.816067">
        <ele>2612.0</ele>
        <time>2018-06-23T13:29:17Z</time>
      </trkpt>
      <trkpt lat="40.317733" lon="-4.815950">
        <ele>2612.0</ele>
        <time>2018-06-23T13:29:18Z</time>
      </trkpt>
      <trkpt lat="40.317733" lon="-4.815833">
        <ele>2612.0</ele>
        <time>2018-06-23T13:29:19Z</time>
      </trkpt>
      <trkpt lat="40.317750" lon="-4.815700">
        <ele>2612.0</ele>
        <time>2018-06-23T13:29:20Z</time>
      </trkpt>
      <trkpt lat="40.317767" lon="-4.815583">
        <ele>2613.0</ele>
        <time>2018-06-23T13:29:21Z</time>
      </trkpt>
      <trkpt lat="40.317800" lon="-4.815450">
        <ele>2614.0</ele>
        <time>2018-06-23T13:29:22Z</time>
      </trkpt>
      <trkpt lat="40.317850" lon="-4.815350">
        <ele>2616.0</ele>
        <time>2018-06-23T13:29:23Z</time>
      </trkpt>
      <trkpt lat="40.317917" lon="-4.815250">
        <ele>2617.0</ele>
        <time>2018-06-23T13:29:24Z</time>
      </trkpt>
      <trkpt lat="40.317983" lon="-4.815150">
        <ele>2619.0</ele>
        <time>2018-06-23T13:29:25Z</time>
      </trkpt>
      <trkpt lat="40.318050" lon="-4.815067">
        <ele>2621.0</ele>
        <time>2018-06-23T13:29:26Z</time>
      </trkpt>
      <trkpt lat="40.318117" lon="-4.814983">
        <ele>2622.0</ele>
        <time>2018-06-23T13:29:27Z</time>
      </trkpt>
      <trkpt lat="40.318183" lon="-4.814900">
        <ele>2622.0</ele>
        <time>2018-06-23T13:29:28Z</time>
      </trkpt>
      <trkpt lat="40.318267" lon="-4.814817">
        <ele>2622.0</ele>
        <time>2018-06-23T13:29:29Z</time>
      </trkpt>
      <trkpt lat="40.318367" lon="-4.814750">
        <ele>2621.0</ele>
        <time>2018-06-23T13:29:30Z</time>
      </trkpt>
      <trkpt lat="40.318467" lon="-4.814667">
        <ele>2621.0</ele>
        <time>2018-06-23T13:29:31Z</time>
      </trkpt>
      <trkpt lat="40.318550" lon="-4.814583">
        <ele>2621.0</ele>
        <time>2018-06-23T13:29:32Z</time>
      </trkpt>
      <trkpt lat="40.318617" lon="-4.814467">
        <ele>2620.0</ele>
        <time>2018-06-23T13:29:33Z</time>
      </trkpt>
      <trkpt lat="40.318633" lon="-4.814367">
        <ele>2619.0</ele>
        <time>2018-06-23T13:29:34Z</time>
      </trkpt>
      <trkpt lat="40.318633" lon="-4.814283">
        <ele>2617.0</ele>
        <time>2018-06-23T13:29:35Z</time>
      </trkpt>
      <trkpt lat="40.318583" lon="-4.814200">
        <ele>2615.0</ele>
        <time>2018-06-23T13:29:36Z</time>
      </trkpt>
      <trkpt lat="40.318517" lon="-4.814133">
        <ele>2615.0</ele>
        <time>2018-06-23T13:29:37Z</time>
      </trkpt>
      <trkpt lat="40.318450" lon="-4.814100">
        <ele>2616.0</ele>
        <time>2018-06-23T13:29:38Z</time>
      </trkpt>
      <trkpt lat="40.318383" lon="-4.814100">
        <ele>2618.0</ele>
        <time>2018-06-23T13:29:39Z</time>
      </trkpt>
      <trkpt lat="40.318317" lon="-4.814150">
        <ele>2618.0</ele>
        <time>2018-06-23T13:29:40Z</time>
      </trkpt>
      <trkpt lat="40.318250" lon="-4.814250">
        <ele>2618.0</ele>
        <time>2018-06-23T13:29:41Z</time>
      </trkpt>
      <trkpt lat="40.318200" lon="-4.814350">
        <ele>2618.0</ele>
        <time>2018-06-23T13:29:42Z</time>
      </trkpt>
      <trkpt lat="40.318167" lon="-4.814467">
        <ele>2618.0</ele>
        <time>2018-06-23T13:29:43Z</time>
      </trkpt>
      <trkpt lat="40.318150" lon="-4.814600">
        <ele>2619.0</ele>
        <time>2018-06-23T13:29:44Z</time>
      </trkpt>
      <trkpt lat="40.318150" lon="-4.814733">
        <ele>2619.0</ele>
        <time>2018-06-23T13:29:45Z</time>
      </trkpt>
      <trkpt lat="40.318150" lon="-4.814883">
        <ele>2620.0</ele>
        <time>2018-06-23T13:29:46Z</time>
      </trkpt>
      <trkpt lat="40.318150" lon="-4.815033">
        <ele>2622.0</ele>
        <time>2018-06-23T13:29:47Z</time>
      </trkpt>
      <trkpt lat="40.318150" lon="-4.815167">
        <ele>2624.0</ele>
        <time>2018-06-23T13:29:48Z</time>
      </trkpt>
      <trkpt lat="40.318167" lon="-4.815283">
        <ele>2626.0</ele>
        <time>2018-06-23T13:29:49Z</time>
      </trkpt>
      <trkpt lat="40.318167" lon="-4.815400">
        <ele>2626.0</ele>
        <time>2018-06-23T13:29:50Z</time>
      </trkpt>
      <trkpt lat="40.318200" lon="-4.815517">
        <ele>2625.0</ele>
        <time>2018-06-23T13:29:51Z</time>
      </trkpt>
      <trkpt lat="40.318250" lon="-4.815650">
        <ele>2622.0</ele>
        <time>2018-06-23T13:29:52Z</time>
      </trkpt>
      <trkpt lat="40.318317" lon="-4.815783">
        <ele>2620.0</ele>
        <time>2018-06-23T13:29:53Z</time>
      </trkpt>
      <trkpt lat="40.318417" lon="-4.815917">
        <ele>2619.0</ele>
        <time>2018-06-23T13:29:54Z</time>
      </trkpt>
      <trkpt lat="40.318517" lon="-4.816017">
        <ele>2619.0</ele>
        <time>2018-06-23T13:29:55Z</time>
      </trkpt>
      <trkpt lat="40.318633" lon="-4.816083">
        <ele>2620.0</ele>
        <time>2018-06-23T13:29:56Z</time>
      </trkpt>
      <trkpt lat="40.318750" lon="-4.816100">
        <ele>2621.0</ele>
        <time>2018-06-23T13:29:57Z</time>
      </trkpt>
      <trkpt lat="40.318867" lon="-4.816083">
        <ele>2620.0</ele>
        <time>2018-06-23T13:29:58Z</time>
      </trkpt>
      <trkpt lat="40.318983" lon="-4.816033">
        <ele>2620.0</ele>
        <time>2018-06-23T13:29:59Z</time>
      </trkpt>
      <trkpt lat="40.319100" lon="-4.816000">
        <ele>2619.0</ele>
        <time>2018-06-23T13:30:00Z</time>
      </trkpt>
      <trkpt lat="40.319217" lon="-4.815950">
        <ele>2619.0</ele>
        <time>2018-06-23T13:30:01Z</time>
      </trkpt>
      <trkpt lat="40.319333" lon="-4.815883">
        <ele>2619.0</ele>
        <time>2018-06-23T13:30:02Z</time>
      </trkpt>
      <trkpt lat="40.319433" lon="-4.815800">
        <ele>2618.0</ele>
        <time>2018-06-23T13:30:03Z</time>
      </trkpt>
      <trkpt lat="40.319517" lon="-4.815717">
        <ele>2618.0</ele>
        <time>2018-06-23T13:30:04Z</time>
      </trkpt>
      <trkpt lat="40.319600" lon="-4.815633">
        <ele>2618.0</ele>
        <time>2018-06-23T13:30:05Z</time>
      </trkpt>
      <trkpt lat="40.319683" lon="-4.815567">
        <ele>2617.0</ele>
        <time>2018-06-23T13:30:06Z</time>
      </trkpt>
      <trkpt lat="40.319750" lon="-4.815483">
        <ele>2615.0</ele>
        <time>2018-06-23T13:30:07Z</time>
      </trkpt>
      <trkpt lat="40.319833" lon="-4.815383">
        <ele>2613.0</ele>
        <time>2018-06-23T13:30:08Z</time>
      </trkpt>
      <trkpt lat="40.319900" lon="-4.815267">
        <ele>2612.0</ele>
        <time>2018-06-23T13:30:09Z</time>
      </trkpt>
      <trkpt lat="40.319967" lon="-4.815167">
        <ele>2610.0</ele>
        <time>2018-06-23T13:30:10Z</time>
      </trkpt>
      <trkpt lat="40.320033" lon="-4.815067">
        <ele>2609.0</ele>
        <time>2018-06-23T13:30:11Z</time>
      </trkpt>
      <trkpt lat="40.320100" lon="-4.814967">
        <ele>2607.0</ele>
        <time>2018-06-23T13:30:12Z</time>
      </trkpt>
      <trkpt lat="40.320167" lon="-4.814867">
        <ele>2604.0</ele>
        <time>2018-06-23T13:30:13Z</time>
      </trkpt>
      <trkpt lat="40.320233" lon="-4.814767">
        <ele>2601.0</ele>
        <time>2018-06-23T13:30:14Z</time>
      </trkpt>
      <trkpt lat="40.320300" lon="-4.814650">
        <ele>2598.0</ele>
        <time>2018-06-23T13:30:15Z</time>
      </trkpt>
      <trkpt lat="40.320367" lon="-4.814550">
        <ele>2595.0</ele>
        <time>2018-06-23T13:30:16Z</time>
      </trkpt>
      <trkpt lat="40.320433" lon="-4.814450">
        <ele>2594.0</ele>
        <time>2018-06-23T13:30:17Z</time>
      </trkpt>
      <trkpt lat="40.320517" lon="-4.814367">
        <ele>2592.0</ele>
        <time>2018-06-23T13:30:18Z</time>
      </trkpt>
      <trkpt lat="40.320600" lon="-4.814300">
        <ele>2591.0</ele>
        <time>2018-06-23T13:30:19Z</time>
      </trkpt>
      <trkpt lat="40.320683" lon="-4.814217">
        <ele>2590.0</ele>
        <time>2018-06-23T13:30:20Z</time>
      </trkpt>
      <trkpt lat="40.320750" lon="-4.814133">
        <ele>2590.0</ele>
        <time>2018-06-23T13:30:21Z</time>
      </trkpt>
      <trkpt lat="40.320817" lon="-4.814050">
        <ele>2589.0</ele>
        <time>2018-06-23T13:30:22Z</time>
      </trkpt>
      <trkpt lat="40.320867" lon="-4.813967">
        <ele>2588.0</ele>
        <time>2018-06-23T13:30:23Z</time>
      </trkpt>
      <trkpt lat="40.320900" lon="-4.813883">
        <ele>2586.0</ele>
        <time>2018-06-23T13:30:24Z</time>
      </trkpt>
      <trkpt lat="40.320967" lon="-4.813800">
        <ele>2583.0</ele>
        <time>2018-06-23T13:30:25Z</time>
      </trkpt>
      <trkpt lat="40.321033" lon="-4.813700">
        <ele>2580.0</ele>
        <time>2018-06-23T13:30:26Z</time>
      </trkpt>
      <trkpt lat="40.321117" lon="-4.813617">
        <ele>2578.0</ele>
        <time>2018-06-23T13:30:27Z</time>
      </trkpt>
      <trkpt lat="40.321200" lon="-4.813533">
        <ele>2577.0</ele>
        <time>2018-06-23T13:30:28Z</time>
      </trkpt>
      <trkpt lat="40.321300" lon="-4.813450">
        <ele>2577.0</ele>
        <time>2018-06-23T13:30:29Z</time>
      </trkpt>
      <trkpt lat="40.321400" lon="-4.813383">
        <ele>2577.0</ele>
        <time>2018-06-23T13:30:30Z</time>
      </trkpt>
      <trkpt lat="40.321533" lon="-4.813350">
        <ele>2576.0</ele>
        <time>2018-06-23T13:30:31Z</time>
      </trkpt>
      <trkpt lat="40.321667" lon="-4.813333">
        <ele>2576.0</ele>
        <time>2018-06-23T13:30:32Z</time>
      </trkpt>
      <trkpt lat="40.321783" lon="-4.813300">
        <ele>2575.0</ele>
        <time>2018-06-23T13:30:33Z</time>
      </trkpt>
      <trkpt lat="40.321900" lon="-4.813250">
        <ele>2575.0</ele>
        <time>2018-06-23T13:30:34Z</time>
      </trkpt>
      <trkpt lat="40.322033" lon="-4.813200">
        <ele>2574.0</ele>
        <time>2018-06-23T13:30:35Z</time>
      </trkpt>
      <trkpt lat="40.322133" lon="-4.813150">
        <ele>2575.0</ele>
        <time>2018-06-23T13:30:36Z</time>
      </trkpt>
      <trkpt lat="40.322250" lon="-4.813133">
        <ele>2576.0</ele>
        <time>2018-06-23T13:30:37Z</time>
      </trkpt>
      <trkpt lat="40.322367" lon="-4.813100">
        <ele>2578.0</ele>
        <time>2018-06-23T13:30:38Z</time>
      </trkpt>
      <trkpt lat="40.322467" lon="-4.813083">
        <ele>2579.0</ele>
        <time>2018-06-23T13:30:39Z</time>
      </trkpt>
      <trkpt lat="40.322583" lon="-4.813050">
        <ele>2580.0</ele>
        <time>2018-06-23T13:30:40Z</time>
      </trkpt>
      <trkpt lat="40.322700" lon="-4.813033">
        <ele>2582.0</ele>
        <time>2018-06-23T13:30:41Z</time>
      </trkpt>
      <trkpt lat="40.322817" lon="-4.813017">
        <ele>2583.0</ele>
        <time>2018-06-23T13:30:42Z</time>
      </trkpt>
      <trkpt lat="40.322933" lon="-4.813000">
        <ele>2585.0</ele>
        <time>2018-06-23T13:30:43Z</time>
      </trkpt>
      <trkpt lat="40.323050" lon="-4.813000">
        <ele>2585.0</ele>
        <time>2018-06-23T13:30:44Z</time>
      </trkpt>
      <trkpt lat="40.323150" lon="-4.813000">
        <ele>2585.0</ele>
        <time>2018-06-23T13:30:45Z</time>
      </trkpt>
      <trkpt lat="40.323267" lon="-4.813017">
        <ele>2584.0</ele>
        <time>2018-06-23T13:30:46Z</time>
      </trkpt>
      <trkpt lat="40.323367" lon="-4.813067">
        <ele>2582.0</ele>
        <time>2018-06-23T13:30:47Z</time>
      </trkpt>
      <trkpt lat="40.323483" lon="-4.813133">
        <ele>2580.0</ele>
        <time>2018-06-23T13:30:48Z</time>
      </trkpt>
      <trkpt lat="40.323583" lon="-4.813217">
        <ele>2579.0</ele>
        <time>2018-06-23T13:30:49Z</time>
      </trkpt>
      <trkpt lat="40.323700" lon="-4.813267">
        <ele>2578.0</ele>
        <time>2018-06-23T13:30:50Z</time>
      </trkpt>
      <trkpt lat="40.323833" lon="-4.813317">
        <ele>2578.0</ele>
        <time>2018-06-23T13:30:51Z</time>
      </trkpt>
      <trkpt lat="40.323983" lon="-4.813333">
        <ele>2578.0</ele>
        <time>2018-06-23T13:30:52Z</time>
      </trkpt>
      <trkpt lat="40.324117" lon="-4.813333">
        <ele>2579.0</ele>
        <time>2018-06-23T13:30:53Z</time>
      </trkpt>
      <trkpt lat="40.324250" lon="-4.813317">
        <ele>2580.0</ele>
        <time>2018-06-23T13:30:54Z</time>
      </trkpt>
      <trkpt lat="40.324367" lon="-4.813283">
        <ele>2581.0</ele>
        <time>2018-06-23T13:30:55Z</time>
      </trkpt>
      <trkpt lat="40.324483" lon="-4.813233">
        <ele>2582.0</ele>
        <time>2018-06-23T13:30:56Z</time>
      </trkpt>
      <trkpt lat="40.324600" lon="-4.813183">
        <ele>2583.0</ele>
        <time>2018-06-23T13:30:57Z</time>
      </trkpt>
      <trkpt lat="40.324700" lon="-4.813100">
        <ele>2584.0</ele>
        <time>2018-06-23T13:30:58Z</time>
      </trkpt>
      <trkpt lat="40.324783" lon="-4.813017">
        <ele>2584.0</ele>
        <time>2018-06-23T13:30:59Z</time>
      </trkpt>
      <trkpt lat="40.324883" lon="-4.812917">
        <ele>2584.0</ele>
        <time>2018-06-23T13:31:00Z</time>
      </trkpt>
      <trkpt lat="40.324967" lon="-4.812800">
        <ele>2583.0</ele>
        <time>2018-06-23T13:31:01Z</time>
      </trkpt>
      <trkpt lat="40.325050" lon="-4.812700">
        <ele>2584.0</ele>
        <time>2018-06-23T13:31:02Z</time>
      </trkpt>
      <trkpt lat="40.325117" lon="-4.812600">
        <ele>2584.0</ele>
        <time>2018-06-23T13:31:03Z</time>
      </trkpt>
      <trkpt lat="40.325183" lon="-4.812483">
        <ele>2584.0</ele>
        <time>2018-06-23T13:31:04Z</time>
      </trkpt>
      <trkpt lat="40.325250" lon="-4.812367">
        <ele>2584.0</ele>
        <time>2018-06-23T13:31:05Z</time>
      </trkpt>
      <trkpt lat="40.325317" lon="-4.812233">
        <ele>2583.0</ele>
        <time>2018-06-23T13:31:06Z</time>
      </trkpt>
      <trkpt lat="40.325383" lon="-4.812117">
        <ele>2583.0</ele>
        <time>2018-06-23T13:31:07Z</time>
      </trkpt>
      <trkpt lat="40.325417" lon="-4.812000">
        <ele>2583.0</ele>
        <time>2018-06-23T13:31:08Z</time>
      </trkpt>
      <trkpt lat="40.325467" lon="-4.811900">
        <ele>2583.0</ele>
        <time>2018-06-23T13:31:09Z</time>
      </trkpt>
      <trkpt lat="40.325500" lon="-4.811783">
        <ele>2582.0</ele>
        <time>2018-06-23T13:31:10Z</time>
      </trkpt>
      <trkpt lat="40.325533" lon="-4.811667">
        <ele>2581.0</ele>
        <time>2018-06-23T13:31:11Z</time>
      </trkpt>
      <trkpt lat="40.325567" lon="-4.811567">
        <ele>2579.0</ele>
        <time>2018-06-23T13:31:12Z</time>
      </trkpt>
      <trkpt lat="40.325617" lon="-4.811450">
        <ele>2577.0</ele>
        <time>2018-06-23T13:31:13Z</time>
      </trkpt>
      <trkpt lat="40.325667" lon="-4.811350">
        <ele>2575.0</ele>
        <time>2018-06-23T13:31:14Z</time>
      </trkpt>
      <trkpt lat="40.325750" lon="-4.811250">
        <ele>2572.0</ele>
        <time>2018-06-23T13:31:15Z</time>
      </trkpt>
      <trkpt lat="40.325850" lon="-4.811183">
        <ele>2570.0</ele>
        <time>2018-06-23T13:31:16Z</time>
      </trkpt>
      <trkpt lat="40.325967" lon="-4.811150">
        <ele>2568.0</ele>
        <time>2018-06-23T13:31:17Z</time>
      </trkpt>
      <trkpt lat="40.326067" lon="-4.811133">
        <ele>2566.0</ele>
        <time>2018-06-23T13:31:18Z</time>
      </trkpt>
      <trkpt lat="40.326167" lon="-4.811117">
        <ele>2565.0</ele>
        <time>2018-06-23T13:31:19Z</time>
      </trkpt>
      <trkpt lat="40.326267" lon="-4.811117">
        <ele>2562.0</ele>
        <time>2018-06-23T13:31:20Z</time>
      </trkpt>
      <trkpt lat="40.326383" lon="-4.811133">
        <ele>2559.0</ele>
        <time>2018-06-23T13:31:21Z</time>
      </trkpt>
      <trkpt lat="40.326500" lon="-4.811167">
        <ele>2555.0</ele>
        <time>2018-06-23T13:31:22Z</time>
      </trkpt>
      <trkpt lat="40.326600" lon="-4.811233">
        <ele>2550.0</ele>
        <time>2018-06-23T13:31:23Z</time>
      </trkpt>
      <trkpt lat="40.326717" lon="-4.811300">
        <ele>2546.0</ele>
        <time>2018-06-23T13:31:24Z</time>
      </trkpt>
      <trkpt lat="40.326833" lon="-4.811367">
        <ele>2543.0</ele>
        <time>2018-06-23T13:31:25Z</time>
      </trkpt>
      <trkpt lat="40.326967" lon="-4.811433">
        <ele>2540.0</ele>
        <time>2018-06-23T13:31:26Z</time>
      </trkpt>
      <trkpt lat="40.327083" lon="-4.811483">
        <ele>2538.0</ele>
        <time>2018-06-23T13:31:27Z</time>
      </trkpt>
      <trkpt lat="40.327217" lon="-4.811517">
        <ele>2537.0</ele>
        <time>2018-06-23T13:31:28Z</time>
      </trkpt>
      <trkpt lat="40.327333" lon="-4.811567">
        <ele>2535.0</ele>
        <time>2018-06-23T13:31:29Z</time>
      </trkpt>
      <trkpt lat="40.327450" lon="-4.811617">
        <ele>2533.0</ele>
        <time>2018-06-23T13:31:30Z</time>
      </trkpt>
      <trkpt lat="40.327567" lon="-4.811667">
        <ele>2531.0</ele>
        <time>2018-06-23T13:31:31Z</time>
      </trkpt>
      <trkpt lat="40.327700" lon="-4.811733">
        <ele>2529.0</ele>
        <time>2018-06-23T13:31:32Z</time>
      </trkpt>
      <trkpt lat="40.327817" lon="-4.811767">
        <ele>2528.0</ele>
        <time>2018-06-23T13:31:33Z</time>
      </trkpt>
      <trkpt lat="40.327933" lon="-4.811817">
        <ele>2527.0</ele>
        <time>2018-06-23T13:31:34Z</time>
      </trkpt>
      <trkpt lat="40.328033" lon="-4.811850">
        <ele>2525.0</ele>
        <time>2018-06-23T13:31:35Z</time>
      </trkpt>
      <trkpt lat="40.328150" lon="-4.811883">
        <ele>2522.0</ele>
        <time>2018-06-23T13:31:36Z</time>
      </trkpt>
      <trkpt lat="40.328267" lon="-4.811933">
        <ele>2518.0</ele>
        <time>2018-06-23T13:31:37Z</time>
      </trkpt>
      <trkpt lat="40.328383" lon="-4.811983">
        <ele>2515.0</ele>
        <time>2018-06-23T13:31:38Z</time>
      </trkpt>
      <trkpt lat="40.328500" lon="-4.812033">
        <ele>2512.0</ele>
        <time>2018-06-23T13:31:39Z</time>
      </trkpt>
      <trkpt lat="40.328617" lon="-4.812083">
        <ele>2509.0</ele>
        <time>2018-06-23T13:31:40Z</time>
      </trkpt>
      <trkpt lat="40.328750" lon="-4.812133">
        <ele>2507.0</ele>
        <time>2018-06-23T13:31:41Z</time>
      </trkpt>
      <trkpt lat="40.328867" lon="-4.812167">
        <ele>2503.0</ele>
        <time>2018-06-23T13:31:42Z</time>
      </trkpt>
      <trkpt lat="40.328983" lon="-4.812217">
        <ele>2500.0</ele>
        <time>2018-06-23T13:31:43Z</time>
      </trkpt>
      <trkpt lat="40.329117" lon="-4.812267">
        <ele>2496.0</ele>
        <time>2018-06-23T13:31:44Z</time>
      </trkpt>
      <trkpt lat="40.329233" lon="-4.812317">
        <ele>2493.0</ele>
        <time>2018-06-23T13:31:45Z</time>
      </trkpt>
      <trkpt lat="40.329367" lon="-4.812367">
        <ele>2491.0</ele>
        <time>2018-06-23T13:31:46Z</time>
      </trkpt>
      <trkpt lat="40.329483" lon="-4.812417">
        <ele>2489.0</ele>
        <time>2018-06-23T13:31:47Z</time>
      </trkpt>
      <trkpt lat="40.329600" lon="-4.812483">
        <ele>2487.0</ele>
        <time>2018-06-23T13:31:48Z</time>
      </trkpt>
      <trkpt lat="40.329717" lon="-4.812550">
        <ele>2485.0</ele>
        <time>2018-06-23T13:31:49Z</time>
      </trkpt>
      <trkpt lat="40.329817" lon="-4.812633">
        <ele>2483.0</ele>
        <time>2018-06-23T13:31:50Z</time>
      </trkpt>
      <trkpt lat="40.329917" lon="-4.812717">
        <ele>2481.0</ele>
        <time>2018-06-23T13:31:51Z</time>
      </trkpt>
      <trkpt lat="40.330017" lon="-4.812800">
        <ele>2479.0</ele>
        <time>2018-06-23T13:31:52Z</time>
      </trkpt>
      <trkpt lat="40.330117" lon="-4.812883">
        <ele>2477.0</ele>
        <time>2018-06-23T13:31:53Z</time>
      </trkpt>
      <trkpt lat="40.330217" lon="-4.812967">
        <ele>2474.0</ele>
        <time>2018-06-23T13:31:54Z</time>
      </trkpt>
      <trkpt lat="40.330317" lon="-4.813067">
        <ele>2470.0</ele>
        <time>2018-06-23T13:31:55Z</time>
      </trkpt>
      <trkpt lat="40.330433" lon="-4.813150">
        <ele>2466.0</ele>
        <time>2018-06-23T13:31:56Z</time>
      </trkpt>
      <trkpt lat="40.330533" lon="-4.813250">
        <ele>2464.0</ele>
        <time>2018-06-23T13:31:57Z</time>
      </trkpt>
      <trkpt lat="40.330667" lon="-4.813333">
        <ele>2462.0</ele>
        <time>2018-06-23T13:31:58Z</time>
      </trkpt>
      <trkpt lat="40.330767" lon="-4.813400">
        <ele>2461.0</ele>
        <time>2018-06-23T13:31:59Z</time>
      </trkpt>
      <trkpt lat="40.330883" lon="-4.813450">
        <ele>2458.0</ele>
        <time>2018-06-23T13:32:00Z</time>
      </trkpt>
      <trkpt lat="40.331000" lon="-4.813500">
        <ele>2455.0</ele>
        <time>2018-06-23T13:32:01Z</time>
      </trkpt>
      <trkpt lat="40.331117" lon="-4.813550">
        <ele>2452.0</ele>
        <time>2018-06-23T13:32:02Z</time>
      </trkpt>
      <trkpt lat="40.331250" lon="-4.813600">
        <ele>2449.0</ele>
        <time>2018-06-23T13:32:03Z</time>
      </trkpt>
      <trkpt lat="40.331383" lon="-4.813650">
        <ele>2448.0</ele>
        <time>2018-06-23T13:32:04Z</time>
      </trkpt>
      <trkpt lat="40.331500" lon="-4.813683">
        <ele>2447.0</ele>
        <time>2018-06-23T13:32:05Z</time>
      </trkpt>
      <trkpt lat="40.331633" lon="-4.813717">
        <ele>2446.0</ele>
        <time>2018-06-23T13:32:06Z</time>
      </trkpt>
      <trkpt lat="40.331750" lon="-4.813733">
        <ele>2444.0</ele>
        <time>2018-06-23T13:32:07Z</time>
      </trkpt>
      <trkpt lat="40.331883" lon="-4.813767">
        <ele>2441.0</ele>
        <time>2018-06-23T13:32:08Z</time>
      </trkpt>
      <trkpt lat="40.332017" lon="-4.813817">
        <ele>2438.0</ele>
        <time>2018-06-23T13:32:09Z</time>
      </trkpt>
      <trkpt lat="40.332150" lon="-4.813867">
        <ele>2436.0</ele>
        <time>2018-06-23T13:32:10Z</time>
      </trkpt>
      <trkpt lat="40.332283" lon="-4.813933">
        <ele>2434.0</ele>
        <time>2018-06-23T13:32:11Z</time>
      </trkpt>
      <trkpt lat="40.332417" lon="-4.813967">
        <ele>2433.0</ele>
        <time>2018-06-23T13:32:12Z</time>
      </trkpt>
      <trkpt lat="40.332533" lon="-4.814000">
        <ele>2433.0</ele>
        <time>2018-06-23T13:32:13Z</time>
      </trkpt>
      <trkpt lat="40.332650" lon="-4.814017">
        <ele>2432.0</ele>
        <time>2018-06-23T13:32:14Z</time>
      </trkpt>
      <trkpt lat="40.332767" lon="-4.814033">
        <ele>2431.0</ele>
        <time>2018-06-23T13:32:15Z</time>
      </trkpt>
      <trkpt lat="40.332900" lon="-4.814033">
        <ele>2428.0</ele>
        <time>2018-06-23T13:32:16Z</time>
      </trkpt>
      <trkpt lat="40.333017" lon="-4.814050">
        <ele>2425.0</ele>
        <time>2018-06-23T13:32:17Z</time>
      </trkpt>
      <trkpt lat="40.333150" lon="-4.814050">
        <ele>2423.0</ele>
        <time>2018-06-23T13:32:18Z</time>
      </trkpt>
      <trkpt lat="40.333300" lon="-4.814067">
        <ele>2421.0</ele>
        <time>2018-06-23T13:32:19Z</time>
      </trkpt>
      <trkpt lat="40.333417" lon="-4.814083">
        <ele>2421.0</ele>
        <time>2018-06-23T13:32:20Z</time>
      </trkpt>
      <trkpt lat="40.333550" lon="-4.814100">
        <ele>2420.0</ele>
        <time>2018-06-23T13:32:21Z</time>
      </trkpt>
      <trkpt lat="40.333667" lon="-4.814100">
        <ele>2418.0</ele>
        <time>2018-06-23T13:32:22Z</time>
      </trkpt>
      <trkpt lat="40.333783" lon="-4.814117">
        <ele>2416.0</ele>
        <time>2018-06-23T13:32:23Z</time>
      </trkpt>
      <trkpt lat="40.333900" lon="-4.814133">
        <ele>2413.0</ele>
        <time>2018-06-23T13:32:24Z</time>
      </trkpt>
      <trkpt lat="40.334033" lon="-4.814167">
        <ele>2409.0</ele>
        <time>2018-06-23T13:32:25Z</time>
      </trkpt>
      <trkpt lat="40.334167" lon="-4.814183">
        <ele>2406.0</ele>
        <time>2018-06-23T13:32:26Z</time>
      </trkpt>
      <trkpt lat="40.334300" lon="-4.814217">
        <ele>2403.0</ele>
        <time>2018-06-23T13:32:27Z</time>
      </trkpt>
      <trkpt lat="40.334433" lon="-4.814233">
        <ele>2402.0</ele>
        <time>2018-06-23T13:32:28Z</time>
      </trkpt>
      <trkpt lat="40.334550" lon="-4.814267">
        <ele>2401.0</ele>
        <time>2018-06-23T13:32:29Z</time>
      </trkpt>
      <trkpt lat="40.334650" lon="-4.814300">
        <ele>2399.0</ele>
        <time>2018-06-23T13:32:30Z</time>
      </trkpt>
      <trkpt lat="40.334767" lon="-4.814317">
        <ele>2396.0</ele>
        <time>2018-06-23T13:32:31Z</time>
      </trkpt>
      <trkpt lat="40.334883" lon="-4.814350">
        <ele>2393.0</ele>
        <time>2018-06-23T13:32:32Z</time>
      </trkpt>
      <trkpt lat="40.335000" lon="-4.814383">
        <ele>2391.0</ele>
        <time>2018-06-23T13:32:33Z</time>
      </trkpt>
      <trkpt lat="40.335133" lon="-4.814417">
        <ele>2389.0</ele>
        <time>2018-06-23T13:32:34Z</time>
      </trkpt>
      <trkpt lat="40.335250" lon="-4.814433">
        <ele>2387.0</ele>
        <time>2018-06-23T13:32:35Z</time>
      </trkpt>
      <trkpt lat="40.335367" lon="-4.814450">
        <ele>2384.0</ele>
        <time>2018-06-23T13:32:36Z</time>
      </trkpt>
      <trkpt lat="40.335483" lon="-4.814450">
        <ele>2382.0</ele>
        <time>2018-06-23T13:32:37Z</time>
      </trkpt>
      <trkpt lat="40.335617" lon="-4.814450">
        <ele>2380.0</ele>
        <time>2018-06-23T13:32:38Z</time>
      </trkpt>
      <trkpt lat="40.335733" lon="-4.814450">
        <ele>2379.0</ele>
        <time>2018-06-23T13:32:39Z</time>
      </trkpt>
      <trkpt lat="40.335850" lon="-4.814450">
        <ele>2378.0</ele>
        <time>2018-06-23T13:32:40Z</time>
      </trkpt>
      <trkpt lat="40.335983" lon="-4.814450">
        <ele>2377.0</ele>
        <time>2018-06-23T13:32:41Z</time>
      </trkpt>
      <trkpt lat="40.336100" lon="-4.814433">
        <ele>2375.0</ele>
        <time>2018-06-23T13:32:42Z</time>
      </trkpt>
      <trkpt lat="40.336217" lon="-4.814400">
        <ele>2373.0</ele>
        <time>2018-06-23T13:32:43Z</time>
      </trkpt>
      <trkpt lat="40.336333" lon="-4.814383">
        <ele>2370.0</ele>
        <time>2018-06-23T13:32:44Z</time>
      </trkpt>
      <trkpt lat="40.336467" lon="-4.814367">
        <ele>2368.0</ele>
        <time>2018-06-23T13:32:45Z</time>
      </trkpt>
      <trkpt lat="40.336583" lon="-4.814350">
        <ele>2366.0</ele>
        <time>2018-06-23T13:32:46Z</time>
      </trkpt>
      <trkpt lat="40.336717" lon="-4.814350">
        <ele>2366.0</ele>
        <time>2018-06-23T13:32:47Z</time>
      </trkpt>
      <trkpt lat="40.336833" lon="-4.814367">
        <ele>2366.0</ele>
        <time>2018-06-23T13:32:48Z</time>
      </trkpt>
      <trkpt lat="40.336950" lon="-4.814367">
        <ele>2366.0</ele>
        <time>2018-06-23T13:32:49Z</time>
      </trkpt>
      <trkpt lat="40.337050" lon="-4.814367">
        <ele>2365.0</ele>
        <time>2018-06-23T13:32:50Z</time>
      </trkpt>
      <trkpt lat="40.337150" lon="-4.814383">
        <ele>2364.0</ele>
        <time>2018-06-23T13:32:51Z</time>
      </trkpt>
      <trkpt lat="40.337267" lon="-4.814400">
        <ele>2361.0</ele>
        <time>2018-06-23T13:32:52Z</time>
      </trkpt>
      <trkpt lat="40.337400" lon="-4.814417">
        <ele>2359.0</ele>
        <time>2018-06-23T13:32:53Z</time>
      </trkpt>
      <trkpt lat="40.337517" lon="-4.814450">
        <ele>2358.0</ele>
        <time>2018-06-23T13:32:54Z</time>
      </trkpt>
      <trkpt lat="40.337633" lon="-4.814483">
        <ele>2357.0</ele>
        <time>2018-06-23T13:32:55Z</time>
      </trkpt>
      <trkpt lat="40.337750" lon="-4.814500">
        <ele>2356.0</ele>
        <time>2018-06-23T13:32:56Z</time>
      </trkpt>
      <trkpt lat="40.337850" lon="-4.814517">
        <ele>2355.0</ele>
        <time>2018-06-23T13:32:57Z</time>
      </trkpt>
      <trkpt lat="40.337967" lon="-4.814550">
        <ele>2353.0</ele>
        <time>2018-06-23T13:32:58Z</time>
      </trkpt>
      <trkpt lat="40.338083" lon="-4.814567">
        <ele>2350.0</ele>
        <time>2018-06-23T13:32:59Z</time>
      </trkpt>
      <trkpt lat="40.338200" lon="-4.814600">
        <ele>2348.0</ele>
        <time>2018-06-23T13:33:00Z</time>
      </trkpt>
      <trkpt lat="40.338317" lon="-4.814633">
        <ele>2347.0</ele>
        <time>2018-06-23T13:33:01Z</time>
      </trkpt>
      <trkpt lat="40.338433" lon="-4.814650">
        <ele>2346.0</ele>
        <time>2018-06-23T13:33:02Z</time>
      </trkpt>
      <trkpt lat="40.338533" lon="-4.814683">
        <ele>2344.0</ele>
        <time>2018-06-23T13:33:03Z</time>
      </trkpt>
      <trkpt lat="40.338650" lon="-4.814717">
        <ele>2342.0</ele>
        <time>2018-06-23T13:33:04Z</time>
      </trkpt>
      <trkpt lat="40.338767" lon="-4.814750">
        <ele>2340.0</ele>
        <time>2018-06-23T13:33:05Z</time>
      </trkpt>
      <trkpt lat="40.338883" lon="-4.814767">
        <ele>2338.0</ele>
        <time>2018-06-23T13:33:06Z</time>
      </trkpt>
      <trkpt lat="40.339000" lon="-4.814817">
        <ele>2336.0</ele>
        <time>2018-06-23T13:33:07Z</time>
      </trkpt>
      <trkpt lat="40.339117" lon="-4.814867">
        <ele>2335.0</ele>
        <time>2018-06-23T13:33:08Z</time>
      </trkpt>
      <trkpt lat="40.339217" lon="-4.814933">
        <ele>2334.0</ele>
        <time>2018-06-23T13:33:09Z</time>
      </trkpt>
      <trkpt lat="40.339317" lon="-4.815000">
        <ele>2333.0</ele>
        <time>2018-06-23T13:33:10Z</time>
      </trkpt>
      <trkpt lat="40.339417" lon="-4.815050">
        <ele>2331.0</ele>
        <time>2018-06-23T13:33:11Z</time>
      </trkpt>
      <trkpt lat="40.339533" lon="-4.815100">
        <ele>2329.0</ele>
        <time>2018-06-23T13:33:12Z</time>
      </trkpt>
      <trkpt lat="40.339633" lon="-4.815167">
        <ele>2326.0</ele>
        <time>2018-06-23T13:33:13Z</time>
      </trkpt>
      <trkpt lat="40.339733" lon="-4.815233">
        <ele>2325.0</ele>
        <time>2018-06-23T13:33:14Z</time>
      </trkpt>
      <trkpt lat="40.339833" lon="-4.815300">
        <ele>2323.0</ele>
        <time>2018-06-23T13:33:15Z</time>
      </trkpt>
      <trkpt lat="40.339933" lon="-4.815367">
        <ele>2321.0</ele>
        <time>2018-06-23T13:33:16Z</time>
      </trkpt>
      <trkpt lat="40.340017" lon="-4.815450">
        <ele>2320.0</ele>
        <time>2018-06-23T13:33:17Z</time>
      </trkpt>
      <trkpt lat="40.340117" lon="-4.815517">
        <ele>2317.0</ele>
        <time>2018-06-23T13:33:18Z</time>
      </trkpt>
      <trkpt lat="40.340233" lon="-4.815583">
        <ele>2315.0</ele>
        <time>2018-06-23T13:33:19Z</time>
      </trkpt>
      <trkpt lat="40.340333" lon="-4.815667">
        <ele>2313.0</ele>
        <time>2018-06-23T13:33:20Z</time>
      </trkpt>
      <trkpt lat="40.340450" lon="-4.815733">
        <ele>2312.0</ele>
        <time>2018-06-23T13:33:21Z</time>
      </trkpt>
      <trkpt lat="40.340550" lon="-4.815817">
        <ele>2311.0</ele>
        <time>2018-06-23T13:33:22Z</time>
      </trkpt>
      <trkpt lat="40.340650" lon="-4.815883">
        <ele>2310.0</ele>
        <time>2018-06-23T13:33:23Z</time>
      </trkpt>
      <trkpt lat="40.340750" lon="-4.815933">
        <ele>2308.0</ele>
        <time>2018-06-23T13:33:24Z</time>
      </trkpt>
      <trkpt lat="40.340850" lon="-4.816000">
        <ele>2306.0</ele>
        <time>2018-06-23T13:33:25Z</time>
      </trkpt>
      <trkpt lat="40.340950" lon="-4.816067">
        <ele>2303.0</ele>
        <time>2018-06-23T13:33:26Z</time>
      </trkpt>
      <trkpt lat="40.341067" lon="-4.816133">
        <ele>2301.0</ele>
        <time>2018-06-23T13:33:27Z</time>
      </trkpt>
      <trkpt lat="40.341167" lon="-4.816200">
        <ele>2300.0</ele>
        <time>2018-06-23T13:33:28Z</time>
      </trkpt>
      <trkpt lat="40.341267" lon="-4.816267">
        <ele>2299.0</ele>
        <time>2018-06-23T13:33:29Z</time>
      </trkpt>
      <trkpt lat="40.341367" lon="-4.816350">
        <ele>2298.0</ele>
        <time>2018-06-23T13:33:30Z</time>
      </trkpt>
      <trkpt lat="40.341450" lon="-4.816417">
        <ele>2296.0</ele>
        <time>2018-06-23T13:33:31Z</time>
      </trkpt>
      <trkpt lat="40.341550" lon="-4.816500">
        <ele>2294.0</ele>
        <time>2018-06-23T13:33:32Z</time>
      </trkpt>
      <trkpt lat="40.341650" lon="-4.816583">
        <ele>2292.0</ele>
        <time>2018-06-23T13:33:33Z</time>
      </trkpt>
      <trkpt lat="40.341750" lon="-4.816667">
        <ele>2290.0</ele>
        <time>2018-06-23T13:33:34Z</time>
      </trkpt>
      <trkpt lat="40.341850" lon="-4.816733">
        <ele>2288.0</ele>
        <time>2018-06-23T13:33:35Z</time>
      </trkpt>
      <trkpt lat="40.341950" lon="-4.816800">
        <ele>2286.0</ele>
        <time>2018-06-23T13:33:36Z</time>
      </trkpt>
      <trkpt lat="40.342050" lon="-4.816867">
        <ele>2283.0</ele>
        <time>2018-06-23T13:33:37Z</time>
      </trkpt>
      <trkpt lat="40.342150" lon="-4.816950">
        <ele>2281.0</ele>
        <time>2018-06-23T13:33:38Z</time>
      </trkpt>
      <trkpt lat="40.342250" lon="-4.817017">
        <ele>2278.0</ele>
        <time>2018-06-23T13:33:39Z</time>
      </trkpt>
      <trkpt lat="40.342350" lon="-4.817100">
        <ele>2276.0</ele>
        <time>2018-06-23T13:33:40Z</time>
      </trkpt>
      <trkpt lat="40.342450" lon="-4.817167">
        <ele>2274.0</ele>
        <time>2018-06-23T13:33:41Z</time>
      </trkpt>
      <trkpt lat="40.342550" lon="-4.817250">
        <ele>2272.0</ele>
        <time>2018-06-23T13:33:42Z</time>
      </trkpt>
      <trkpt lat="40.342650" lon="-4.817333">
        <ele>2270.0</ele>
        <time>2018-06-23T13:33:43Z</time>
      </trkpt>
      <trkpt lat="40.342750" lon="-4.817417">
        <ele>2268.0</ele>
        <time>2018-06-23T13:33:44Z</time>
      </trkpt>
      <trkpt lat="40.342850" lon="-4.817500">
        <ele>2267.0</ele>
        <time>2018-06-23T13:33:45Z</time>
      </trkpt>
      <trkpt lat="40.342950" lon="-4.817583">
        <ele>2265.0</ele>
        <time>2018-06-23T13:33:46Z</time>
      </trkpt>
      <trkpt lat="40.343050" lon="-4.817667">
        <ele>2263.0</ele>
        <time>2018-06-23T13:33:47Z</time>
      </trkpt>
      <trkpt lat="40.343150" lon="-4.817750">
        <ele>2261.0</ele>
        <time>2018-06-23T13:33:48Z</time>
      </trkpt>
      <trkpt lat="40.343233" lon="-4.817833">
        <ele>2258.0</ele>
        <time>2018-06-23T13:33:49Z</time>
      </trkpt>
      <trkpt lat="40.343333" lon="-4.817917">
        <ele>2256.0</ele>
        <time>2018-06-23T13:33:50Z</time>
      </trkpt>
      <trkpt lat="40.343450" lon="-4.818000">
        <ele>2254.0</ele>
        <time>2018-06-23T13:33:51Z</time>
      </trkpt>
      <trkpt lat="40.343550" lon="-4.818050">
        <ele>2252.0</ele>
        <time>2018-06-23T13:33:52Z</time>
      </trkpt>
      <trkpt lat="40.343667" lon="-4.818117">
        <ele>2251.0</ele>
        <time>2018-06-23T13:33:53Z</time>
      </trkpt>
      <trkpt lat="40.343767" lon="-4.818183">
        <ele>2250.0</ele>
        <time>2018-06-23T13:33:54Z</time>
      </trkpt>
      <trkpt lat="40.343867" lon="-4.818250">
        <ele>2249.0</ele>
        <time>2018-06-23T13:33:55Z</time>
      </trkpt>
      <trkpt lat="40.343950" lon="-4.818333">
        <ele>2247.0</ele>
        <time>2018-06-23T13:33:56Z</time>
      </trkpt>
      <trkpt lat="40.344050" lon="-4.818400">
        <ele>2246.0</ele>
        <time>2018-06-23T13:33:57Z</time>
      </trkpt>
      <trkpt lat="40.344150" lon="-4.818433">
        <ele>2244.0</ele>
        <time>2018-06-23T13:33:58Z</time>
      </trkpt>
      <trkpt lat="40.344267" lon="-4.818450">
        <ele>2242.0</ele>
        <time>2018-06-23T13:33:59Z</time>
      </trkpt>
      <trkpt lat="40.344383" lon="-4.818467">
        <ele>2240.0</ele>
        <time>2018-06-23T13:34:00Z</time>
      </trkpt>
      <trkpt lat="40.344483" lon="-4.818450">
        <ele>2239.0</ele>
        <time>2018-06-23T13:34:01Z</time>
      </trkpt>
      <trkpt lat="40.344600" lon="-4.818433">
        <ele>2237.0</ele>
        <time>2018-06-23T13:34:02Z</time>
      </trkpt>
      <trkpt lat="40.344717" lon="-4.818417">
        <ele>2235.0</ele>
        <time>2018-06-23T13:34:03Z</time>
      </trkpt>
      <trkpt lat="40.344833" lon="-4.818400">
        <ele>2234.0</ele>
        <time>2018-06-23T13:34:04Z</time>
      </trkpt>
      <trkpt lat="40.344950" lon="-4.818400">
        <ele>2233.0</ele>
        <time>2018-06-23T13:34:05Z</time>
      </trkpt>
      <trkpt lat="40.345050" lon="-4.818383">
        <ele>2232.0</ele>
        <time>2018-06-23T13:34:06Z</time>
      </trkpt>
      <trkpt lat="40.345167" lon="-4.818367">
        <ele>2230.0</ele>
        <time>2018-06-23T13:34:07Z</time>
      </trkpt>
      <trkpt lat="40.345267" lon="-4.818333">
        <ele>2228.0</ele>
        <time>2018-06-23T13:34:08Z</time>
      </trkpt>
      <trkpt lat="40.345383" lon="-4.818317">
        <ele>2226.0</ele>
        <time>2018-06-23T13:34:09Z</time>
      </trkpt>
      <trkpt lat="40.345483" lon="-4.818283">
        <ele>2224.0</ele>
        <time>2018-06-23T13:34:10Z</time>
      </trkpt>
      <trkpt lat="40.345600" lon="-4.818267">
        <ele>2222.0</ele>
        <time>2018-06-23T13:34:11Z</time>
      </trkpt>
      <trkpt lat="40.345700" lon="-4.818233">
        <ele>2221.0</ele>
        <time>2018-06-23T13:34:12Z</time>
      </trkpt>
      <trkpt lat="40.345817" lon="-4.818200">
        <ele>2219.0</ele>
        <time>2018-06-23T13:34:13Z</time>
      </trkpt>
      <trkpt lat="40.345917" lon="-4.818167">
        <ele>2218.0</ele>
        <time>2018-06-23T13:34:14Z</time>
      </trkpt>
      <trkpt lat="40.346033" lon="-4.818133">
        <ele>2216.0</ele>
        <time>2018-06-23T13:34:15Z</time>
      </trkpt>
      <trkpt lat="40.346133" lon="-4.818117">
        <ele>2214.0</ele>
        <time>2018-06-23T13:34:16Z</time>
      </trkpt>
      <trkpt lat="40.346250" lon="-4.818083">
        <ele>2213.0</ele>
        <time>2018-06-23T13:34:17Z</time>
      </trkpt>
      <trkpt lat="40.346367" lon="-4.818067">
        <ele>2211.0</ele>
        <time>2018-06-23T13:34:18Z</time>
      </trkpt>
      <trkpt lat="40.346467" lon="-4.818033">
        <ele>2209.0</ele>
        <time>2018-06-23T13:34:19Z</time>
      </trkpt>
      <trkpt lat="40.346583" lon="-4.818017">
        <ele>2207.0</ele>
        <time>2018-06-23T13:34:20Z</time>
      </trkpt>
      <trkpt lat="40.346700" lon="-4.817983">
        <ele>2205.0</ele>
        <time>2018-06-23T13:34:21Z</time>
      </trkpt>
      <trkpt lat="40.346800" lon="-4.817967">
        <ele>2204.0</ele>
        <time>2018-06-23T13:34:22Z</time>
      </trkpt>
      <trkpt lat="40.346917" lon="-4.817933">
        <ele>2202.0</ele>
        <time>2018-06-23T13:34:23Z</time>
      </trkpt>
      <trkpt lat="40.347033" lon="-4.817900">
        <ele>2200.0</ele>
        <time>2018-06-23T13:34:24Z</time>
      </trkpt>
      <trkpt lat="40.347150" lon="-4.817867">
        <ele>2198.0</ele>
        <time>2018-06-23T13:34:25Z</time>
      </trkpt>
      <trkpt lat="40.347267" lon="-4.817817">
        <ele>2196.0</ele>
        <time>2018-06-23T13:34:26Z</time>
      </trkpt>
      <trkpt lat="40.347383" lon="-4.817783">
        <ele>2195.0</ele>
        <time>2018-06-23T13:34:27Z</time>
      </trkpt>
      <trkpt lat="40.347500" lon="-4.817750">
        <ele>2194.0</ele>
        <time>2018-06-23T13:34:28Z</time>
      </trkpt>
      <trkpt lat="40.347600" lon="-4.817700">
        <ele>2192.0</ele>
        <time>2018-06-23T13:34:29Z</time>
      </trkpt>
      <trkpt lat="40.347717" lon="-4.817667">
        <ele>2190.0</ele>
        <time>2018-06-23T13:34:30Z</time>
      </trkpt>
      <trkpt lat="40.347833" lon="-4.817617">
        <ele>2188.0</ele>
        <time>2018-06-23T13:34:31Z</time>
      </trkpt>
      <trkpt lat="40.347950" lon="-4.817550">
        <ele>2186.0</ele>
        <time>2018-06-23T13:34:32Z</time>
      </trkpt>
      <trkpt lat="40.348067" lon="-4.817500">
        <ele>2185.0</ele>
        <time>2018-06-23T13:34:33Z</time>
      </trkpt>
      <trkpt lat="40.348167" lon="-4.817433">
        <ele>2184.0</ele>
        <time>2018-06-23T13:34:34Z</time>
      </trkpt>
      <trkpt lat="40.348283" lon="-4.817367">
        <ele>2182.0</ele>
        <time>2018-06-23T13:34:35Z</time>
      </trkpt>
      <trkpt lat="40.348383" lon="-4.817300">
        <ele>2181.0</ele>
        <time>2018-06-23T13:34:36Z</time>
      </trkpt>
      <trkpt lat="40.348500" lon="-4.817250">
        <ele>2179.0</ele>
        <time>2018-06-23T13:34:37Z</time>
      </trkpt>
      <trkpt lat="40.348600" lon="-4.817183">
        <ele>2177.0</ele>
        <time>2018-06-23T13:34:38Z</time>
      </trkpt>
      <trkpt lat="40.348717" lon="-4.817117">
        <ele>2175.0</ele>
        <time>2018-06-23T13:34:39Z</time>
      </trkpt>
      <trkpt lat="40.348833" lon="-4.817050">
        <ele>2173.0</ele>
        <time>2018-06-23T13:34:40Z</time>
      </trkpt>
      <trkpt lat="40.348933" lon="-4.817000">
        <ele>2171.0</ele>
        <time>2018-06-23T13:34:41Z</time>
      </trkpt>
      <trkpt lat="40.349033" lon="-4.816933">
        <ele>2169.0</ele>
        <time>2018-06-23T13:34:42Z</time>
      </trkpt>
      <trkpt lat="40.349150" lon="-4.816883">
        <ele>2167.0</ele>
        <time>2018-06-23T13:34:43Z</time>
      </trkpt>
      <trkpt lat="40.349267" lon="-4.816817">
        <ele>2165.0</ele>
        <time>2018-06-23T13:34:44Z</time>
      </trkpt>
      <trkpt lat="40.349383" lon="-4.816767">
        <ele>2163.0</ele>
        <time>2018-06-23T13:34:45Z</time>
      </trkpt>
      <trkpt lat="40.349500" lon="-4.816717">
        <ele>2162.0</ele>
        <time>2018-06-23T13:34:46Z</time>
      </trkpt>
      <trkpt lat="40.349617" lon="-4.816667">
        <ele>2161.0</ele>
        <time>2018-06-23T13:34:47Z</time>
      </trkpt>
      <trkpt lat="40.349733" lon="-4.816600">
        <ele>2160.0</ele>
        <time>2018-06-23T13:34:48Z</time>
      </trkpt>
      <trkpt lat="40.349850" lon="-4.816533">
        <ele>2160.0</ele>
        <time>2018-06-23T13:34:49Z</time>
      </trkpt>
      <trkpt lat="40.349950" lon="-4.816450">
        <ele>2159.0</ele>
        <time>2018-06-23T13:34:50Z</time>
      </trkpt>
      <trkpt lat="40.350050" lon="-4.816383">
        <ele>2158.0</ele>
        <time>2018-06-23T13:34:51Z</time>
      </trkpt>
      <trkpt lat="40.350150" lon="-4.816317">
        <ele>2156.0</ele>
        <time>2018-06-23T13:34:52Z</time>
      </trkpt>
      <trkpt lat="40.350267" lon="-4.816250">
        <ele>2155.0</ele>
        <time>2018-06-23T13:34:53Z</time>
      </trkpt>
      <trkpt lat="40.350367" lon="-4.816183">
        <ele>2153.0</ele>
        <time>2018-06-23T13:34:54Z</time>
      </trkpt>
      <trkpt lat="40.350467" lon="-4.816100">
        <ele>2151.0</ele>
        <time>2018-06-23T13:34:55Z</time>
      </trkpt>
      <trkpt lat="40.350567" lon="-4.816017">
        <ele>2149.0</ele>
        <time>2018-06-23T13:34:56Z</time>
      </trkpt>
      <trkpt lat="40.350667" lon="-4.815933">
        <ele>2147.0</ele>
        <time>2018-06-23T13:34:57Z</time>
      </trkpt>
      <trkpt lat="40.350767" lon="-4.815833">
        <ele>2145.0</ele>
        <time>2018-06-23T13:34:58Z</time>
      </trkpt>
      <trkpt lat="40.350867" lon="-4.815750">
        <ele>2144.0</ele>
        <time>2018-06-23T13:34:59Z</time>
      </trkpt>
      <trkpt lat="40.350967" lon="-4.815650">
        <ele>2142.0</ele>
        <time>2018-06-23T13:35:00Z</time>
      </trkpt>
      <trkpt lat="40.351067" lon="-4.815567">
        <ele>2141.0</ele>
        <time>2018-06-23T13:35:01Z</time>
      </trkpt>
      <trkpt lat="40.351167" lon="-4.815483">
        <ele>2139.0</ele>
        <time>2018-06-23T13:35:02Z</time>
      </trkpt>
      <trkpt lat="40.351267" lon="-4.815400">
        <ele>2138.0</ele>
        <time>2018-06-23T13:35:03Z</time>
      </trkpt>
      <trkpt lat="40.351383" lon="-4.815317">
        <ele>2136.0</ele>
        <time>2018-06-23T13:35:04Z</time>
      </trkpt>
      <trkpt lat="40.351483" lon="-4.815250">
        <ele>2135.0</ele>
        <time>2018-06-23T13:35:05Z</time>
      </trkpt>
      <trkpt lat="40.351600" lon="-4.815183">
        <ele>2134.0</ele>
        <time>2018-06-23T13:35:06Z</time>
      </trkpt>
      <trkpt lat="40.351700" lon="-4.815117">
        <ele>2132.0</ele>
        <time>2018-06-23T13:35:07Z</time>
      </trkpt>
      <trkpt lat="40.351800" lon="-4.815050">
        <ele>2131.0</ele>
        <time>2018-06-23T13:35:08Z</time>
      </trkpt>
      <trkpt lat="40.351917" lon="-4.814967">
        <ele>2129.0</ele>
        <time>2018-06-23T13:35:09Z</time>
      </trkpt>
      <trkpt lat="40.352017" lon="-4.814900">
        <ele>2127.0</ele>
        <time>2018-06-23T13:35:10Z</time>
      </trkpt>
      <trkpt lat="40.352133" lon="-4.814833">
        <ele>2126.0</ele>
        <time>2018-06-23T13:35:11Z</time>
      </trkpt>
      <trkpt lat="40.352250" lon="-4.814767">
        <ele>2125.0</ele>
        <time>2018-06-23T13:35:12Z</time>
      </trkpt>
      <trkpt lat="40.352350" lon="-4.814683">
        <ele>2124.0</ele>
        <time>2018-06-23T13:35:13Z</time>
      </trkpt>
      <trkpt lat="40.352450" lon="-4.814600">
        <ele>2123.0</ele>
        <time>2018-06-23T13:35:14Z</time>
      </trkpt>
      <trkpt lat="40.352550" lon="-4.814517">
        <ele>2122.0</ele>
        <time>2018-06-23T13:35:15Z</time>
      </trkpt>
      <trkpt lat="40.352667" lon="-4.814450">
        <ele>2120.0</ele>
        <time>2018-06-23T13:35:16Z</time>
      </trkpt>
      <trkpt lat="40.352767" lon="-4.814367">
        <ele>2119.0</ele>
        <time>2018-06-23T13:35:17Z</time>
      </trkpt>
      <trkpt lat="40.352883" lon="-4.814300">
        <ele>2117.0</ele>
        <time>2018-06-23T13:35:18Z</time>
      </trkpt>
      <trkpt lat="40.353000" lon="-4.814217">
        <ele>2116.0</ele>
        <time>2018-06-23T13:35:19Z</time>
      </trkpt>
      <trkpt lat="40.353100" lon="-4.814150">
        <ele>2115.0</ele>
        <time>2018-06-23T13:35:20Z</time>
      </trkpt>
      <trkpt lat="40.353200" lon="-4.814067">
        <ele>2114.0</ele>
        <time>2018-06-23T13:35:21Z</time>
      </trkpt>
      <trkpt lat="40.353300" lon="-4.814000">
        <ele>2113.0</ele>
        <time>2018-06-23T13:35:22Z</time>
      </trkpt>
      <trkpt lat="40.353417" lon="-4.813933">
        <ele>2111.0</ele>
        <time>2018-06-23T13:35:23Z</time>
      </trkpt>
      <trkpt lat="40.353517" lon="-4.813850">
        <ele>2109.0</ele>
        <time>2018-06-23T13:35:24Z</time>
      </trkpt>
      <trkpt lat="40.353600" lon="-4.813750">
        <ele>2107.0</ele>
        <time>2018-06-23T13:35:25Z</time>
      </trkpt>
      <trkpt lat="40.353717" lon="-4.813667">
        <ele>2105.0</ele>
        <time>2018-06-23T13:35:26Z</time>
      </trkpt>
      <trkpt lat="40.353817" lon="-4.813583">
        <ele>2103.0</ele>
        <time>2018-06-23T13:35:27Z</time>
      </trkpt>
      <trkpt lat="40.353917" lon="-4.813517">
        <ele>2101.0</ele>
        <time>2018-06-23T13:35:28Z</time>
      </trkpt>
      <trkpt lat="40.354033" lon="-4.813450">
        <ele>2100.0</ele>
        <time>2018-06-23T13:35:29Z</time>
      </trkpt>
      <trkpt lat="40.354133" lon="-4.813367">
        <ele>2098.0</ele>
        <time>2018-06-23T13:35:30Z</time>
      </trkpt>
      <trkpt lat="40.354250" lon="-4.813300">
        <ele>2096.0</ele>
        <time>2018-06-23T13:35:31Z</time>
      </trkpt>
      <trkpt lat="40.354350" lon="-4.813233">
        <ele>2094.0</ele>
        <time>2018-06-23T13:35:32Z</time>
      </trkpt>
      <trkpt lat="40.354467" lon="-4.813167">
        <ele>2092.0</ele>
        <time>2018-06-23T13:35:33Z</time>
      </trkpt>
      <trkpt lat="40.354583" lon="-4.813117">
        <ele>2090.0</ele>
        <time>2018-06-23T13:35:34Z</time>
      </trkpt>
      <trkpt lat="40.354700" lon="-4.813050">
        <ele>2087.0</ele>
        <time>2018-06-23T13:35:35Z</time>
      </trkpt>
      <trkpt lat="40.354800" lon="-4.812983">
        <ele>2085.0</ele>
        <time>2018-06-23T13:35:36Z</time>
      </trkpt>
      <trkpt lat="40.354917" lon="-4.812917">
        <ele>2083.0</ele>
        <time>2018-06-23T13:35:37Z</time>
      </trkpt>
      <trkpt lat="40.355017" lon="-4.812867">
        <ele>2080.0</ele>
        <time>2018-06-23T13:35:38Z</time>
      </trkpt>
      <trkpt lat="40.355117" lon="-4.812817">
        <ele>2076.0</ele>
        <time>2018-06-23T13:35:39Z</time>
      </trkpt>
      <trkpt lat="40.355233" lon="-4.812750">
        <ele>2073.0</ele>
        <time>2018-06-23T13:35:40Z</time>
      </trkpt>
      <trkpt lat="40.355333" lon="-4.812700">
        <ele>2070.0</ele>
        <time>2018-06-23T13:35:41Z</time>
      </trkpt>
      <trkpt lat="40.355450" lon="-4.812633">
        <ele>2067.0</ele>
        <time>2018-06-23T13:35:42Z</time>
      </trkpt>
      <trkpt lat="40.355550" lon="-4.812583">
        <ele>2064.0</ele>
        <time>2018-06-23T13:35:43Z</time>
      </trkpt>
      <trkpt lat="40.355667" lon="-4.812533">
        <ele>2061.0</ele>
        <time>2018-06-23T13:35:44Z</time>
      </trkpt>
      <trkpt lat="40.355767" lon="-4.812500">
        <ele>2058.0</ele>
        <time>2018-06-23T13:35:45Z</time>
      </trkpt>
      <trkpt lat="40.355883" lon="-4.812467">
        <ele>2054.0</ele>
        <time>2018-06-23T13:35:46Z</time>
      </trkpt>
      <trkpt lat="40.356000" lon="-4.812417">
        <ele>2050.0</ele>
        <time>2018-06-23T13:35:47Z</time>
      </trkpt>
      <trkpt lat="40.356133" lon="-4.812383">
        <ele>2046.0</ele>
        <time>2018-06-23T13:35:48Z</time>
      </trkpt>
      <trkpt lat="40.356250" lon="-4.812367">
        <ele>2043.0</ele>
        <time>2018-06-23T13:35:49Z</time>
      </trkpt>
      <trkpt lat="40.356383" lon="-4.812350">
        <ele>2041.0</ele>
        <time>2018-06-23T13:35:50Z</time>
      </trkpt>
      <trkpt lat="40.356500" lon="-4.812333">
        <ele>2040.0</ele>
        <time>2018-06-23T13:35:51Z</time>
      </trkpt>
      <trkpt lat="40.356600" lon="-4.812283">
        <ele>2038.0</ele>
        <time>2018-06-23T13:35:52Z</time>
      </trkpt>
      <trkpt lat="40.356700" lon="-4.812250">
        <ele>2035.0</ele>
        <time>2018-06-23T13:35:53Z</time>
      </trkpt>
      <trkpt lat="40.356817" lon="-4.812233">
        <ele>2031.0</ele>
        <time>2018-06-23T13:35:54Z</time>
      </trkpt>
      <trkpt lat="40.356933" lon="-4.812217">
        <ele>2028.0</ele>
        <time>2018-06-23T13:35:55Z</time>
      </trkpt>
      <trkpt lat="40.357067" lon="-4.812200">
        <ele>2027.0</ele>
        <time>2018-06-23T13:35:56Z</time>
      </trkpt>
      <trkpt lat="40.357183" lon="-4.812150">
        <ele>2025.0</ele>
        <time>2018-06-23T13:35:57Z</time>
      </trkpt>
      <trkpt lat="40.357283" lon="-4.812100">
        <ele>2024.0</ele>
        <time>2018-06-23T13:35:58Z</time>
      </trkpt>
      <trkpt lat="40.357400" lon="-4.812050">
        <ele>2024.0</ele>
        <time>2018-06-23T13:35:59Z</time>
      </trkpt>
      <trkpt lat="40.357500" lon="-4.812017">
        <ele>2024.0</ele>
        <time>2018-06-23T13:36:00Z</time>
      </trkpt>
      <trkpt lat="40.357583" lon="-4.812000">
        <ele>2023.0</ele>
        <time>2018-06-23T13:36:01Z</time>
      </trkpt>
      <trkpt lat="40.357667" lon="-4.811983">
        <ele>2021.0</ele>
        <time>2018-06-23T13:36:02Z</time>
      </trkpt>
      <trkpt lat="40.357733" lon="-4.811950">
        <ele>2019.0</ele>
        <time>2018-06-23T13:36:03Z</time>
      </trkpt>
      <trkpt lat="40.357817" lon="-4.811900">
        <ele>2015.0</ele>
        <time>2018-06-23T13:36:04Z</time>
      </trkpt>
      <trkpt lat="40.357917" lon="-4.811867">
        <ele>2012.0</ele>
        <time>2018-06-23T13:36:05Z</time>
      </trkpt>
      <trkpt lat="40.358000" lon="-4.811817">
        <ele>2009.0</ele>
        <time>2018-06-23T13:36:06Z</time>
      </trkpt>
      <trkpt lat="40.358100" lon="-4.811767">
        <ele>2007.0</ele>
        <time>2018-06-23T13:36:07Z</time>
      </trkpt>
      <trkpt lat="40.358200" lon="-4.811717">
        <ele>2005.0</ele>
        <time>2018-06-23T13:36:08Z</time>
      </trkpt>
      <trkpt lat="40.358283" lon="-4.811667">
        <ele>2003.0</ele>
        <time>2018-06-23T13:36:09Z</time>
      </trkpt>
      <trkpt lat="40.358367" lon="-4.811617">
        <ele>2001.0</ele>
        <time>2018-06-23T13:36:10Z</time>
      </trkpt>
      <trkpt lat="40.358450" lon="-4.811583">
        <ele>1998.0</ele>
        <time>2018-06-23T13:36:11Z</time>
      </trkpt>
      <trkpt lat="40.358550" lon="-4.811567">
        <ele>1995.0</ele>
        <time>2018-06-23T13:36:12Z</time>
      </trkpt>
      <trkpt lat="40.358667" lon="-4.811550">
        <ele>1992.0</ele>
        <time>2018-06-23T13:36:13Z</time>
      </trkpt>
      <trkpt lat="40.358767" lon="-4.811533">
        <ele>1989.0</ele>
        <time>2018-06-23T13:36:14Z</time>
      </trkpt>
      <trkpt lat="40.358883" lon="-4.811533">
        <ele>1986.0</ele>
        <time>2018-06-23T13:36:15Z</time>
      </trkpt>
      <trkpt lat="40.359017" lon="-4.811517">
        <ele>1985.0</ele>
        <time>2018-06-23T13:36:16Z</time>
      </trkpt>
      <trkpt lat="40.359117" lon="-4.811517">
        <ele>1983.0</ele>
        <time>2018-06-23T13:36:17Z</time>
      </trkpt>
      <trkpt lat="40.359217" lon="-4.811517">
        <ele>1982.0</ele>
        <time>2018-06-23T13:36:18Z</time>
      </trkpt>
      <trkpt lat="40.359333" lon="-4.811517">
        <ele>1980.0</ele>
        <time>2018-06-23T13:36:19Z</time>
      </trkpt>
      <trkpt lat="40.359433" lon="-4.811517">
        <ele>1977.0</ele>
        <time>2018-06-23T13:36:20Z</time>
      </trkpt>
      <trkpt lat="40.359550" lon="-4.811517">
        <ele>1975.0</ele>
        <time>2018-06-23T13:36:21Z</time>
      </trkpt>
      <trkpt lat="40.359667" lon="-4.811517">
        <ele>1972.0</ele>
        <time>2018-06-23T13:36:22Z</time>
      </trkpt>
      <trkpt lat="40.359767" lon="-4.811483">
        <ele>1971.0</ele>
        <time>2018-06-23T13:36:23Z</time>
      </trkpt>
      <trkpt lat="40.359867" lon="-4.811450">
        <ele>1969.0</ele>
        <time>2018-06-23T13:36:24Z</time>
      </trkpt>
      <trkpt lat="40.359967" lon="-4.811417">
        <ele>1967.0</ele>
        <time>2018-06-23T13:36:25Z</time>
      </trkpt>
      <trkpt lat="40.360067" lon="-4.811383">
        <ele>1965.0</ele>
        <time>2018-06-23T13:36:26Z</time>
      </trkpt>
      <trkpt lat="40.360167" lon="-4.811350">
        <ele>1964.0</ele>
        <time>2018-06-23T13:36:27Z</time>
      </trkpt>
      <trkpt lat="40.360250" lon="-4.811317">
        <ele>1962.0</ele>
        <time>2018-06-23T13:36:28Z</time>
      </trkpt>
      <trkpt lat="40.360350" lon="-4.811283">
        <ele>1960.0</ele>
        <time>2018-06-23T13:36:29Z</time>
      </trkpt>
      <trkpt lat="40.360450" lon="-4.811233">
        <ele>1958.0</ele>
        <time>2018-06-23T13:36:30Z</time>
      </trkpt>
      <trkpt lat="40.360550" lon="-4.811200">
        <ele>1956.0</ele>
        <time>2018-06-23T13:36:31Z</time>
      </trkpt>
      <trkpt lat="40.360667" lon="-4.811167">
        <ele>1954.0</ele>
        <time>2018-06-23T13:36:32Z</time>
      </trkpt>
      <trkpt lat="40.360783" lon="-4.811167">
        <ele>1952.0</ele>
        <time>2018-06-23T13:36:33Z</time>
      </trkpt>
      <trkpt lat="40.360900" lon="-4.811167">
        <ele>1951.0</ele>
        <time>2018-06-23T13:36:34Z</time>
      </trkpt>
      <trkpt lat="40.361000" lon="-4.811167">
        <ele>1949.0</ele>
        <time>2018-06-23T13:36:35Z</time>
      </trkpt>
      <trkpt lat="40.361100" lon="-4.811150">
        <ele>1945.0</ele>
        <time>2018-06-23T13:36:36Z</time>
      </trkpt>
      <trkpt lat="40.361217" lon="-4.811133">
        <ele>1942.0</ele>
        <time>2018-06-23T13:36:37Z</time>
      </trkpt>
      <trkpt lat="40.361317" lon="-4.811117">
        <ele>1939.0</ele>
        <time>2018-06-23T13:36:38Z</time>
      </trkpt>
      <trkpt lat="40.361433" lon="-4.811100">
        <ele>1937.0</ele>
        <time>2018-06-23T13:36:39Z</time>
      </trkpt>
      <trkpt lat="40.361567" lon="-4.811117">
        <ele>1935.0</ele>
        <time>2018-06-23T13:36:40Z</time>
      </trkpt>
      <trkpt lat="40.361683" lon="-4.811117">
        <ele>1933.0</ele>
        <time>2018-06-23T13:36:41Z</time>
      </trkpt>
      <trkpt lat="40.361800" lon="-4.811117">
        <ele>1931.0</ele>
        <time>2018-06-23T13:36:42Z</time>
      </trkpt>
      <trkpt lat="40.361917" lon="-4.811117">
        <ele>1929.0</ele>
        <time>2018-06-23T13:36:43Z</time>
      </trkpt>
      <trkpt lat="40.362050" lon="-4.811117">
        <ele>1926.0</ele>
        <time>2018-06-23T13:36:44Z</time>
      </trkpt>
      <trkpt lat="40.362183" lon="-4.811117">
        <ele>1925.0</ele>
        <time>2018-06-23T13:36:45Z</time>
      </trkpt>
      <trkpt lat="40.362333" lon="-4.811117">
        <ele>1924.0</ele>
        <time>2018-06-23T13:36:46Z</time>
      </trkpt>
      <trkpt lat="40.362467" lon="-4.811100">
        <ele>1926.0</ele>
        <time>2018-06-23T13:36:47Z</time>
      </trkpt>
      <trkpt lat="40.362600" lon="-4.811083">
        <ele>1928.0</ele>
        <time>2018-06-23T13:36:48Z</time>
      </trkpt>
      <trkpt lat="40.362700" lon="-4.811050">
        <ele>1931.0</ele>
        <time>2018-06-23T13:36:49Z</time>
      </trkpt>
      <trkpt lat="40.362817" lon="-4.811050">
        <ele>1933.0</ele>
        <time>2018-06-23T13:36:50Z</time>
      </trkpt>
      <trkpt lat="40.362917" lon="-4.811017">
        <ele>1936.0</ele>
        <time>2018-06-23T13:36:51Z</time>
      </trkpt>
      <trkpt lat="40.363000" lon="-4.810983">
        <ele>1937.0</ele>
        <time>2018-06-23T13:36:52Z</time>
      </trkpt>
      <trkpt lat="40.363083" lon="-4.810917">
        <ele>1938.0</ele>
        <time>2018-06-23T13:36:53Z</time>
      </trkpt>
      <trkpt lat="40.363133" lon="-4.810833">
        <ele>1938.0</ele>
        <time>2018-06-23T13:36:54Z</time>
      </trkpt>
      <trkpt lat="40.363167" lon="-4.810717">
        <ele>1937.0</ele>
        <time>2018-06-23T13:36:55Z</time>
      </trkpt>
      <trkpt lat="40.363150" lon="-4.810583">
        <ele>1937.0</ele>
        <time>2018-06-23T13:36:56Z</time>
      </trkpt>
      <trkpt lat="40.363117" lon="-4.810467">
        <ele>1939.0</ele>
        <time>2018-06-23T13:36:57Z</time>
      </trkpt>
      <trkpt lat="40.363050" lon="-4.810367">
        <ele>1941.0</ele>
        <time>2018-06-23T13:36:58Z</time>
      </trkpt>
      <trkpt lat="40.362967" lon="-4.810333">
        <ele>1942.0</ele>
        <time>2018-06-23T13:36:59Z</time>
      </trkpt>
      <trkpt lat="40.362867" lon="-4.810333">
        <ele>1943.0</ele>
        <time>2018-06-23T13:37:00Z</time>
      </trkpt>
      <trkpt lat="40.362783" lon="-4.810383">
        <ele>1944.0</ele>
        <time>2018-06-23T13:37:01Z</time>
      </trkpt>
      <trkpt lat="40.362717" lon="-4.810467">
        <ele>1947.0</ele>
        <time>2018-06-23T13:37:02Z</time>
      </trkpt>
      <trkpt lat="40.362683" lon="-4.810567">
        <ele>1948.0</ele>
        <time>2018-06-23T13:37:03Z</time>
      </trkpt>
      <trkpt lat="40.362667" lon="-4.810683">
        <ele>1950.0</ele>
        <time>2018-06-23T13:37:04Z</time>
      </trkpt>
      <trkpt lat="40.362667" lon="-4.810783">
        <ele>1951.0</ele>
        <time>2018-06-23T13:37:05Z</time>
      </trkpt>
      <trkpt lat="40.362700" lon="-4.810900">
        <ele>1952.0</ele>
        <time>2018-06-23T13:37:06Z</time>
      </trkpt>
      <trkpt lat="40.362717" lon="-4.811017">
        <ele>1954.0</ele>
        <time>2018-06-23T13:37:07Z</time>
      </trkpt>
      <trkpt lat="40.362783" lon="-4.811133">
        <ele>1954.0</ele>
        <time>2018-06-23T13:37:08Z</time>
      </trkpt>
      <trkpt lat="40.362867" lon="-4.811217">
        <ele>1955.0</ele>
        <time>2018-06-23T13:37:09Z</time>
      </trkpt>
      <trkpt lat="40.362983" lon="-4.811283">
        <ele>1955.0</ele>
        <time>2018-06-23T13:37:10Z</time>
      </trkpt>
      <trkpt lat="40.363100" lon="-4.811333">
        <ele>1956.0</ele>
        <time>2018-06-23T13:37:11Z</time>
      </trkpt>
      <trkpt lat="40.363217" lon="-4.811350">
        <ele>1958.0</ele>
        <time>2018-06-23T13:37:12Z</time>
      </trkpt>
      <trkpt lat="40.363317" lon="-4.811383">
        <ele>1961.0</ele>
        <time>2018-06-23T13:37:13Z</time>
      </trkpt>
      <trkpt lat="40.363417" lon="-4.811417">
        <ele>1963.0</ele>
        <time>2018-06-23T13:37:14Z</time>
      </trkpt>
      <trkpt lat="40.363533" lon="-4.811467">
        <ele>1964.0</ele>
        <time>2018-06-23T13:37:15Z</time>
      </trkpt>
      <trkpt lat="40.363633" lon="-4.811483">
        <ele>1965.0</ele>
        <time>2018-06-23T13:37:16Z</time>
      </trkpt>
      <trkpt lat="40.363750" lon="-4.811467">
        <ele>1965.0</ele>
        <time>2018-06-23T13:37:17Z</time>
      </trkpt>
      <trkpt lat="40.363867" lon="-4.811400">
        <ele>1965.0</ele>
        <time>2018-06-23T13:37:18Z</time>
      </trkpt>
      <trkpt lat="40.363950" lon="-4.811300">
        <ele>1965.0</ele>
        <time>2018-06-23T13:37:19Z</time>
      </trkpt>
      <trkpt lat="40.363983" lon="-4.811167">
        <ele>1966.0</ele>
        <time>2018-06-23T13:37:20Z</time>
      </trkpt>
      <trkpt lat="40.364000" lon="-4.811050">
        <ele>1967.0</ele>
        <time>2018-06-23T13:37:21Z</time>
      </trkpt>
      <trkpt lat="40.363983" lon="-4.810933">
        <ele>1967.0</ele>
        <time>2018-06-23T13:37:22Z</time>
      </trkpt>
      <trkpt lat="40.363933" lon="-4.810850">
        <ele>1967.0</ele>
        <time>2018-06-23T13:37:23Z</time>
      </trkpt>
      <trkpt lat="40.363867" lon="-4.810783">
        <ele>1968.0</ele>
        <time>2018-06-23T13:37:24Z</time>
      </trkpt>
      <trkpt lat="40.363783" lon="-4.810750">
        <ele>1969.0</ele>
        <time>2018-06-23T13:37:25Z</time>
      </trkpt>
      <trkpt lat="40.363700" lon="-4.810767">
        <ele>1970.0</ele>
        <time>2018-06-23T13:37:26Z</time>
      </trkpt>
      <trkpt lat="40.363617" lon="-4.810783">
        <ele>1972.0</ele>
        <time>2018-06-23T13:37:27Z</time>
      </trkpt>
      <trkpt lat="40.363533" lon="-4.810833">
        <ele>1973.0</ele>
        <time>2018-06-23T13:37:28Z</time>
      </trkpt>
      <trkpt lat="40.363467" lon="-4.810883">
        <ele>1975.0</ele>
        <time>2018-06-23T13:37:29Z</time>
      </trkpt>
      <trkpt lat="40.363400" lon="-4.810950">
        <ele>1976.0</ele>
        <time>2018-06-23T13:37:30Z</time>
      </trkpt>
      <trkpt lat="40.363333" lon="-4.811033">
        <ele>1977.0</ele>
        <time>2018-06-23T13:37:31Z</time>
      </trkpt>
      <trkpt lat="40.363283" lon="-4.811150">
        <ele>1978.0</ele>
        <time>2018-06-23T13:37:32Z</time>
      </trkpt>
      <trkpt lat="40.363267" lon="-4.811283">
        <ele>1979.0</ele>
        <time>2018-06-23T13:37:33Z</time>
      </trkpt>
      <trkpt lat="40.363250" lon="-4.811400">
        <ele>1980.0</ele>
        <time>2018-06-23T13:37:34Z</time>
      </trkpt>
      <trkpt lat="40.363233" lon="-4.811533">
        <ele>1981.0</ele>
        <time>2018-06-23T13:37:35Z</time>
      </trkpt>
      <trkpt lat="40.363217" lon="-4.811683">
        <ele>1982.0</ele>
        <time>2018-06-23T13:37:36Z</time>
      </trkpt>
      <trkpt lat="40.363217" lon="-4.811817">
        <ele>1984.0</ele>
        <time>2018-06-23T13:37:37Z</time>
      </trkpt>
      <trkpt lat="40.363233" lon="-4.811933">
        <ele>1986.0</ele>
        <time>2018-06-23T13:37:38Z</time>
      </trkpt>
      <trkpt lat="40.363267" lon="-4.812050">
        <ele>1986.0</ele>
        <time>2018-06-23T13:37:39Z</time>
      </trkpt>
      <trkpt lat="40.363317" lon="-4.812167">
        <ele>1985.0</ele>
        <time>2018-06-23T13:37:40Z</time>
      </trkpt>
      <trkpt lat="40.363383" lon="-4.812267">
        <ele>1983.0</ele>
        <time>2018-06-23T13:37:41Z</time>
      </trkpt>
      <trkpt lat="40.363467" lon="-4.812367">
        <ele>1982.0</ele>
        <time>2018-06-23T13:37:42Z</time>
      </trkpt>
      <trkpt lat="40.363583" lon="-4.812467">
        <ele>1982.0</ele>
        <time>2018-06-23T13:37:43Z</time>
      </trkpt>
      <trkpt lat="40.363700" lon="-4.812517">
        <ele>1984.0</ele>
        <time>2018-06-23T13:37:44Z</time>
      </trkpt>
      <trkpt lat="40.363817" lon="-4.812550">
        <ele>1987.0</ele>
        <time>2018-06-23T13:37:45Z</time>
      </trkpt>
      <trkpt lat="40.363917" lon="-4.812550">
        <ele>1990.0</ele>
        <time>2018-06-23T13:37:46Z</time>
      </trkpt>
      <trkpt lat="40.364017" lon="-4.812583">
        <ele>1991.0</ele>
        <time>2018-06-23T13:37:47Z</time>
      </trkpt>
      <trkpt lat="40.364117" lon="-4.812600">
        <ele>1991.0</ele>
        <time>2018-06-23T13:37:48Z</time>
      </trkpt>
      <trkpt lat="40.364217" lon="-4.812633">
        <ele>1990.0</ele>
        <time>2018-06-23T13:37:49Z</time>
      </trkpt>
      <trkpt lat="40.364317" lon="-4.812633">
        <ele>1990.0</ele>
        <time>2018-06-23T13:37:50Z</time>
      </trkpt>
      <trkpt lat="40.364433" lon="-4.812633">
        <ele>1989.0</ele>
        <time>2018-06-23T13:37:51Z</time>
      </trkpt>
      <trkpt lat="40.364533" lon="-4.812600">
        <ele>1988.0</ele>
        <time>2018-06-23T13:37:52Z</time>
      </trkpt>
      <trkpt lat="40.364650" lon="-4.812567">
        <ele>1988.0</ele>
        <time>2018-06-23T13:37:53Z</time>
      </trkpt>
      <trkpt lat="40.364750" lon="-4.812517">
        <ele>1988.0</ele>
        <time>2018-06-23T13:37:54Z</time>
      </trkpt>
      <trkpt lat="40.364850" lon="-4.812467">
        <ele>1987.0</ele>
        <time>2018-06-23T13:37:55Z</time>
      </trkpt>
      <trkpt lat="40.364950" lon="-4.812383">
        <ele>1988.0</ele>
        <time>2018-06-23T13:37:56Z</time>
      </trkpt>
      <trkpt lat="40.365050" lon="-4.812300">
        <ele>1989.0</ele>
        <time>2018-06-23T13:37:57Z</time>
      </trkpt>
      <trkpt lat="40.365150" lon="-4.812233">
        <ele>1990.0</ele>
        <time>2018-06-23T13:37:58Z</time>
      </trkpt>
      <trkpt lat="40.365250" lon="-4.812183">
        <ele>1992.0</ele>
        <time>2018-06-23T13:37:59Z</time>
      </trkpt>
      <trkpt lat="40.365350" lon="-4.812133">
        <ele>1994.0</ele>
        <time>2018-06-23T13:38:00Z</time>
      </trkpt>
      <trkpt lat="40.365467" lon="-4.812100">
        <ele>1994.0</ele>
        <time>2018-06-23T13:38:01Z</time>
      </trkpt>
      <trkpt lat="40.365567" lon="-4.812067">
        <ele>1993.0</ele>
        <time>2018-06-23T13:38:02Z</time>
      </trkpt>
      <trkpt lat="40.365667" lon="-4.812000">
        <ele>1993.0</ele>
        <time>2018-06-23T13:38:03Z</time>
      </trkpt>
      <trkpt lat="40.365767" lon="-4.811933">
        <ele>1993.0</ele>
        <time>2018-06-23T13:38:04Z</time>
      </trkpt>
      <trkpt lat="40.365867" lon="-4.811833">
        <ele>1993.0</ele>
        <time>2018-06-23T13:38:05Z</time>
      </trkpt>
      <trkpt lat="40.365950" lon="-4.811750">
        <ele>1994.0</ele>
        <time>2018-06-23T13:38:06Z</time>
      </trkpt>
      <trkpt lat="40.366033" lon="-4.811650">
        <ele>1995.0</ele>
        <time>2018-06-23T13:38:07Z</time>
      </trkpt>
      <trkpt lat="40.366100" lon="-4.811567">
        <ele>1997.0</ele>
        <time>2018-06-23T13:38:08Z</time>
      </trkpt>
      <trkpt lat="40.366183" lon="-4.811483">
        <ele>1998.0</ele>
        <time>2018-06-23T13:38:09Z</time>
      </trkpt>
      <trkpt lat="40.366250" lon="-4.811417">
        <ele>1999.0</ele>
        <time>2018-06-23T13:38:10Z</time>
      </trkpt>
      <trkpt lat="40.366350" lon="-4.811367">
        <ele>1999.0</ele>
        <time>2018-06-23T13:38:11Z</time>
      </trkpt>
      <trkpt lat="40.366450" lon="-4.811317">
        <ele>1999.0</ele>
        <time>2018-06-23T13:38:12Z</time>
      </trkpt>
      <trkpt lat="40.366550" lon="-4.811283">
        <ele>1998.0</ele>
        <time>2018-06-23T13:38:13Z</time>
      </trkpt>
      <trkpt lat="40.366667" lon="-4.811267">
        <ele>1998.0</ele>
        <time>2018-06-23T13:38:14Z</time>
      </trkpt>
      <trkpt lat="40.366800" lon="-4.811283">
        <ele>1998.0</ele>
        <time>2018-06-23T13:38:15Z</time>
      </trkpt>
      <trkpt lat="40.366917" lon="-4.811350">
        <ele>1999.0</ele>
        <time>2018-06-23T13:38:16Z</time>
      </trkpt>
      <trkpt lat="40.367033" lon="-4.811417">
        <ele>1999.0</ele>
        <time>2018-06-23T13:38:17Z</time>
      </trkpt>
      <trkpt lat="40.367133" lon="-4.811517">
        <ele>2000.0</ele>
        <time>2018-06-23T13:38:18Z</time>
      </trkpt>
      <trkpt lat="40.367217" lon="-4.811633">
        <ele>2000.0</ele>
        <time>2018-06-23T13:38:19Z</time>
      </trkpt>
      <trkpt lat="40.367283" lon="-4.811783">
        <ele>2001.0</ele>
        <time>2018-06-23T13:38:20Z</time>
      </trkpt>
      <trkpt lat="40.367317" lon="-4.811933">
        <ele>2001.0</ele>
        <time>2018-06-23T13:38:21Z</time>
      </trkpt>
      <trkpt lat="40.367317" lon="-4.812083">
        <ele>2002.0</ele>
        <time>2018-06-23T13:38:22Z</time>
      </trkpt>
      <trkpt lat="40.367283" lon="-4.812217">
        <ele>2003.0</ele>
        <time>2018-06-23T13:38:23Z</time>
      </trkpt>
      <trkpt lat="40.367217" lon="-4.812300">
        <ele>2005.0</ele>
        <time>2018-06-23T13:38:24Z</time>
      </trkpt>
      <trkpt lat="40.367150" lon="-4.812350">
        <ele>2006.0</ele>
        <time>2018-06-23T13:38:25Z</time>
      </trkpt>
      <trkpt lat="40.367083" lon="-4.812350">
        <ele>2007.0</ele>
        <time>2018-06-23T13:38:26Z</time>
      </trkpt>
      <trkpt lat="40.367017" lon="-4.812300">
        <ele>2007.0</ele>
        <time>2018-06-23T13:38:27Z</time>
      </trkpt>
      <trkpt lat="40.366967" lon="-4.812233">
        <ele>2008.0</ele>
        <time>2018-06-23T13:38:28Z</time>
      </trkpt>
      <trkpt lat="40.366933" lon="-4.812133">
        <ele>2009.0</ele>
        <time>2018-06-23T13:38:29Z</time>
      </trkpt>
      <trkpt lat="40.366917" lon="-4.812033">
        <ele>2010.0</ele>
        <time>2018-06-23T13:38:30Z</time>
      </trkpt>
      <trkpt lat="40.366933" lon="-4.811933">
        <ele>2011.0</ele>
        <time>2018-06-23T13:38:31Z</time>
      </trkpt>
      <trkpt lat="40.366967" lon="-4.811833">
        <ele>2012.0</ele>
        <time>2018-06-23T13:38:32Z</time>
      </trkpt>
      <trkpt lat="40.367033" lon="-4.811750">
        <ele>2012.0</ele>
        <time>2018-06-23T13:38:33Z</time>
      </trkpt>
      <trkpt lat="40.367133" lon="-4.811700">
        <ele>2012.0</ele>
        <time>2018-06-23T13:38:34Z</time>
      </trkpt>
      <trkpt lat="40.367250" lon="-4.811667">
        <ele>2011.0</ele>
        <time>2018-06-23T13:38:35Z</time>
      </trkpt>
      <trkpt lat="40.367367" lon="-4.811683">
        <ele>2011.0</ele>
        <time>2018-06-23T13:38:36Z</time>
      </trkpt>
      <trkpt lat="40.367500" lon="-4.811700">
        <ele>2012.0</ele>
        <time>2018-06-23T13:38:37Z</time>
      </trkpt>
      <trkpt lat="40.367617" lon="-4.811733">
        <ele>2014.0</ele>
        <time>2018-06-23T13:38:38Z</time>
      </trkpt>
      <trkpt lat="40.367717" lon="-4.811817">
        <ele>2016.0</ele>
        <time>2018-06-23T13:38:39Z</time>
      </trkpt>
      <trkpt lat="40.367817" lon="-4.811917">
        <ele>2017.0</ele>
        <time>2018-06-23T13:38:40Z</time>
      </trkpt>
      <trkpt lat="40.367883" lon="-4.812050">
        <ele>2018.0</ele>
        <time>2018-06-23T13:38:41Z</time>
      </trkpt>
      <trkpt lat="40.367933" lon="-4.812200">
        <ele>2018.0</ele>
        <time>2018-06-23T13:38:42Z</time>
      </trkpt>
      <trkpt lat="40.367950" lon="-4.812367">
        <ele>2018.0</ele>
        <time>2018-06-23T13:38:43Z</time>
      </trkpt>
      <trkpt lat="40.367917" lon="-4.812517">
        <ele>2018.0</ele>
        <time>2018-06-23T13:38:44Z</time>
      </trkpt>
      <trkpt lat="40.367867" lon="-4.812633">
        <ele>2019.0</ele>
        <time>2018-06-23T13:38:45Z</time>
      </trkpt>
      <trkpt lat="40.367800" lon="-4.812717">
        <ele>2019.0</ele>
        <time>2018-06-23T13:38:46Z</time>
      </trkpt>
      <trkpt lat="40.367717" lon="-4.812733">
        <ele>2020.0</ele>
        <time>2018-06-23T13:38:47Z</time>
      </trkpt>
      <trkpt lat="40.367650" lon="-4.812717">
        <ele>2020.0</ele>
        <time>2018-06-23T13:38:48Z</time>
      </trkpt>
      <trkpt lat="40.367583" lon="-4.812667">
        <ele>2021.0</ele>
        <time>2018-06-23T13:38:49Z</time>
      </trkpt>
      <trkpt lat="40.367533" lon="-4.812600">
        <ele>2022.0</ele>
        <time>2018-06-23T13:38:50Z</time>
      </trkpt>
      <trkpt lat="40.367500" lon="-4.812500">
        <ele>2023.0</ele>
        <time>2018-06-23T13:38:51Z</time>
      </trkpt>
      <trkpt lat="40.367517" lon="-4.812400">
        <ele>2023.0</ele>
        <time>2018-06-23T13:38:52Z</time>
      </trkpt>
      <trkpt lat="40.367550" lon="-4.812283">
        <ele>2023.0</ele>
        <time>2018-06-23T13:38:53Z</time>
      </trkpt>
      <trkpt lat="40.367617" lon="-4.812183">
        <ele>2023.0</ele>
        <time>2018-06-23T13:38:54Z</time>
      </trkpt>
      <trkpt lat="40.367717" lon="-4.812117">
        <ele>2023.0</ele>
        <time>2018-06-23T13:38:55Z</time>
      </trkpt>
      <trkpt lat="40.367817" lon="-4.812050">
        <ele>2024.0</ele>
        <time>2018-06-23T13:38:56Z</time>
      </trkpt>
      <trkpt lat="40.367933" lon="-4.812017">
        <ele>2025.0</ele>
        <time>2018-06-23T13:38:57Z</time>
      </trkpt>
      <trkpt lat="40.368033" lon="-4.812000">
        <ele>2025.0</ele>
        <time>2018-06-23T13:38:58Z</time>
      </trkpt>
      <trkpt lat="40.368167" lon="-4.812017">
        <ele>2026.0</ele>
        <time>2018-06-23T13:38:59Z</time>
      </trkpt>
      <trkpt lat="40.368283" lon="-4.812083">
        <ele>2026.0</ele>
        <time>2018-06-23T13:39:00Z</time>
      </trkpt>
      <trkpt lat="40.368383" lon="-4.812183">
        <ele>2026.0</ele>
        <time>2018-06-23T13:39:01Z</time>
      </trkpt>
      <trkpt lat="40.368450" lon="-4.812317">
        <ele>2025.0</ele>
        <time>2018-06-23T13:39:02Z</time>
      </trkpt>
      <trkpt lat="40.368500" lon="-4.812467">
        <ele>2025.0</ele>
        <time>2018-06-23T13:39:03Z</time>
      </trkpt>
      <trkpt lat="40.368533" lon="-4.812633">
        <ele>2026.0</ele>
        <time>2018-06-23T13:39:04Z</time>
      </trkpt>
      <trkpt lat="40.368517" lon="-4.812783">
        <ele>2027.0</ele>
        <time>2018-06-23T13:39:05Z</time>
      </trkpt>
      <trkpt lat="40.368500" lon="-4.812917">
        <ele>2028.0</ele>
        <time>2018-06-23T13:39:06Z</time>
      </trkpt>
      <trkpt lat="40.368450" lon="-4.813033">
        <ele>2029.0</ele>
        <time>2018-06-23T13:39:07Z</time>
      </trkpt>
      <trkpt lat="40.368400" lon="-4.813100">
        <ele>2029.0</ele>
        <time>2018-06-23T13:39:08Z</time>
      </trkpt>
      <trkpt lat="40.368333" lon="-4.813150">
        <ele>2029.0</ele>
        <time>2018-06-23T13:39:09Z</time>
      </trkpt>
      <trkpt lat="40.368267" lon="-4.813150">
        <ele>2029.0</ele>
        <time>2018-06-23T13:39:10Z</time>
      </trkpt>
      <trkpt lat="40.368200" lon="-4.813117">
        <ele>2028.0</ele>
        <time>2018-06-23T13:39:11Z</time>
      </trkpt>
      <trkpt lat="40.368150" lon="-4.813033">
        <ele>2028.0</ele>
        <time>2018-06-23T13:39:12Z</time>
      </trkpt>
      <trkpt lat="40.368117" lon="-4.812933">
        <ele>2027.0</ele>
        <time>2018-06-23T13:39:13Z</time>
      </trkpt>
      <trkpt lat="40.368100" lon="-4.812817">
        <ele>2028.0</ele>
        <time>2018-06-23T13:39:14Z</time>
      </trkpt>
      <trkpt lat="40.368117" lon="-4.812700">
        <ele>2029.0</ele>
        <time>2018-06-23T13:39:15Z</time>
      </trkpt>
      <trkpt lat="40.368167" lon="-4.812600">
        <ele>2029.0</ele>
        <time>2018-06-23T13:39:16Z</time>
      </trkpt>
      <trkpt lat="40.368233" lon="-4.812500">
        <ele>2030.0</ele>
        <time>2018-06-23T13:39:17Z</time>
      </trkpt>
      <trkpt lat="40.368317" lon="-4.812433">
        <ele>2031.0</ele>
        <time>2018-06-23T13:39:18Z</time>
      </trkpt>
      <trkpt lat="40.368433" lon="-4.812383">
        <ele>2032.0</ele>
        <time>2018-06-23T13:39:19Z</time>
      </trkpt>
      <trkpt lat="40.368550" lon="-4.812350">
        <ele>2033.0</ele>
        <time>2018-06-23T13:39:20Z</time>
      </trkpt>
      <trkpt lat="40.368667" lon="-4.812350">
        <ele>2034.0</ele>
        <time>2018-06-23T13:39:21Z</time>
      </trkpt>
      <trkpt lat="40.368783" lon="-4.812383">
        <ele>2035.0</ele>
        <time>2018-06-23T13:39:22Z</time>
      </trkpt>
      <trkpt lat="40.368900" lon="-4.812450">
        <ele>2036.0</ele>
        <time>2018-06-23T13:39:23Z</time>
      </trkpt>
      <trkpt lat="40.368983" lon="-4.812567">
        <ele>2036.0</ele>
        <time>2018-06-23T13:39:24Z</time>
      </trkpt>
      <trkpt lat="40.369050" lon="-4.812700">
        <ele>2036.0</ele>
        <time>2018-06-23T13:39:25Z</time>
      </trkpt>
      <trkpt lat="40.369083" lon="-4.812850">
        <ele>2035.0</ele>
        <time>2018-06-23T13:39:26Z</time>
      </trkpt>
      <trkpt lat="40.369083" lon="-4.813017">
        <ele>2034.0</ele>
        <time>2018-06-23T13:39:27Z</time>
      </trkpt>
      <trkpt lat="40.369050" lon="-4.813150">
        <ele>2035.0</ele>
        <time>2018-06-23T13:39:28Z</time>
      </trkpt>
      <trkpt lat="40.368983" lon="-4.813250">
        <ele>2035.0</ele>
        <time>2018-06-23T13:39:29Z</time>
      </trkpt>
      <trkpt lat="40.368917" lon="-4.813300">
        <ele>2036.0</ele>
        <time>2018-06-23T13:39:30Z</time>
      </trkpt>
      <trkpt lat="40.368850" lon="-4.813300">
        <ele>2037.0</ele>
        <time>2018-06-23T13:39:31Z</time>
      </trkpt>
      <trkpt lat="40.368783" lon="-4.813283">
        <ele>2037.0</ele>
        <time>2018-06-23T13:39:32Z</time>
      </trkpt>
      <trkpt lat="40.368733" lon="-4.813217">
        <ele>2037.0</ele>
        <time>2018-06-23T13:39:33Z</time>
      </trkpt>
      <trkpt lat="40.368683" lon="-4.813133">
        <ele>2037.0</ele>
        <time>2018-06-23T13:39:34Z</time>
      </trkpt>
      <trkpt lat="40.368667" lon="-4.813033">
        <ele>2037.0</ele>
        <time>2018-06-23T13:39:35Z</time>
      </trkpt>
      <trkpt lat="40.368667" lon="-4.812917">
        <ele>2037.0</ele>
        <time>2018-06-23T13:39:36Z</time>
      </trkpt>
      <trkpt lat="40.368700" lon="-4.812800">
        <ele>2037.0</ele>
        <time>2018-06-23T13:39:37Z</time>
      </trkpt>
      <trkpt lat="40.368767" lon="-4.812700">
        <ele>2037.0</ele>
        <time>2018-06-23T13:39:38Z</time>
      </trkpt>
      <trkpt lat="40.368850" lon="-4.812617">
        <ele>2038.0</ele>
        <time>2018-06-23T13:39:39Z</time>
      </trkpt>
      <trkpt lat="40.368950" lon="-4.812533">
        <ele>2039.0</ele>
        <time>2018-06-23T13:39:40Z</time>
      </trkpt>
      <trkpt lat="40.369050" lon="-4.812483">
        <ele>2040.0</ele>
        <time>2018-06-23T13:39:41Z</time>
      </trkpt>
      <trkpt lat="40.369150" lon="-4.812417">
        <ele>2041.0</ele>
        <time>2018-06-23T13:39:42Z</time>
      </trkpt>
      <trkpt lat="40.369267" lon="-4.812383">
        <ele>2043.0</ele>
        <time>2018-06-23T13:39:43Z</time>
      </trkpt>
      <trkpt lat="40.369383" lon="-4.812350">
        <ele>2044.0</ele>
        <time>2018-06-23T13:39:44Z</time>
      </trkpt>
      <trkpt lat="40.369500" lon="-4.812333">
        <ele>2046.0</ele>
        <time>2018-06-23T13:39:45Z</time>
      </trkpt>
      <trkpt lat="40.369600" lon="-4.812367">
        <ele>2047.0</ele>
        <time>2018-06-23T13:39:46Z</time>
      </trkpt>
      <trkpt lat="40.369717" lon="-4.812417">
        <ele>2047.0</ele>
        <time>2018-06-23T13:39:47Z</time>
      </trkpt>
      <trkpt lat="40.369817" lon="-4.812500">
        <ele>2047.0</ele>
        <time>2018-06-23T13:39:48Z</time>
      </trkpt>
      <trkpt lat="40.369917" lon="-4.812617">
        <ele>2047.0</ele>
        <time>2018-06-23T13:39:49Z</time>
      </trkpt>
      <trkpt lat="40.369983" lon="-4.812750">
        <ele>2047.0</ele>
        <time>2018-06-23T13:39:50Z</time>
      </trkpt>
      <trkpt lat="40.370017" lon="-4.812900">
        <ele>2046.0</ele>
        <time>2018-06-23T13:39:51Z</time>
      </trkpt>
      <trkpt lat="40.370017" lon="-4.813050">
        <ele>2045.0</ele>
        <time>2018-06-23T13:39:52Z</time>
      </trkpt>
      <trkpt lat="40.369983" lon="-4.813167">
        <ele>2043.0</ele>
        <time>2018-06-23T13:39:53Z</time>
      </trkpt>
      <trkpt lat="40.369917" lon="-4.813267">
        <ele>2042.0</ele>
        <time>2018-06-23T13:39:54Z</time>
      </trkpt>
      <trkpt lat="40.369833" lon="-4.813317">
        <ele>2042.0</ele>
        <time>2018-06-23T13:39:55Z</time>
      </trkpt>
      <trkpt lat="40.369750" lon="-4.813333">
        <ele>2042.0</ele>
        <time>2018-06-23T13:39:56Z</time>
      </trkpt>
      <trkpt lat="40.369683" lon="-4.813300">
        <ele>2043.0</ele>
        <time>2018-06-23T13:39:57Z</time>
      </trkpt>
      <trkpt lat="40.369650" lon="-4.813217">
        <ele>2043.0</ele>
        <time>2018-06-23T13:39:58Z</time>
      </trkpt>
      <trkpt lat="40.369633" lon="-4.813133">
        <ele>2044.0</ele>
        <time>2018-06-23T13:39:59Z</time>
      </trkpt>
      <trkpt lat="40.369633" lon="-4.813033">
        <ele>2044.0</ele>
        <time>2018-06-23T13:40:00Z</time>
      </trkpt>
      <trkpt lat="40.369633" lon="-4.812933">
        <ele>2045.0</ele>
        <time>2018-06-23T13:40:01Z</time>
      </trkpt>
      <trkpt lat="40.369667" lon="-4.812833">
        <ele>2046.0</ele>
        <time>2018-06-23T13:40:02Z</time>
      </trkpt>
      <trkpt lat="40.369700" lon="-4.812717">
        <ele>2046.0</ele>
        <time>2018-06-23T13:40:03Z</time>
      </trkpt>
      <trkpt lat="40.369750" lon="-4.812600">
        <ele>2047.0</ele>
        <time>2018-06-23T13:40:04Z</time>
      </trkpt>
      <trkpt lat="40.369783" lon="-4.812483">
        <ele>2047.0</ele>
        <time>2018-06-23T13:40:05Z</time>
      </trkpt>
      <trkpt lat="40.369833" lon="-4.812383">
        <ele>2048.0</ele>
        <time>2018-06-23T13:40:06Z</time>
      </trkpt>
      <trkpt lat="40.369883" lon="-4.812283">
        <ele>2049.0</ele>
        <time>2018-06-23T13:40:07Z</time>
      </trkpt>
      <trkpt lat="40.369967" lon="-4.812200">
        <ele>2049.0</ele>
        <time>2018-06-23T13:40:08Z</time>
      </trkpt>
      <trkpt lat="40.370067" lon="-4.812150">
        <ele>2049.0</ele>
        <time>2018-06-23T13:40:09Z</time>
      </trkpt>
      <trkpt lat="40.370167" lon="-4.812117">
        <ele>2049.0</ele>
        <time>2018-06-23T13:40:10Z</time>
      </trkpt>
      <trkpt lat="40.370283" lon="-4.812100">
        <ele>2048.0</ele>
        <time>2018-06-23T13:40:11Z</time>
      </trkpt>
      <trkpt lat="40.370417" lon="-4.812117">
        <ele>2048.0</ele>
        <time>2018-06-23T13:40:12Z</time>
      </trkpt>
      <trkpt lat="40.370517" lon="-4.812150">
        <ele>2048.0</ele>
        <time>2018-06-23T13:40:13Z</time>
      </trkpt>
      <trkpt lat="40.370633" lon="-4.812217">
        <ele>2048.0</ele>
        <time>2018-06-23T13:40:14Z</time>
      </trkpt>
      <trkpt lat="40.370717" lon="-4.812317">
        <ele>2047.0</ele>
        <time>2018-06-23T13:40:15Z</time>
      </trkpt>
      <trkpt lat="40.370800" lon="-4.812433">
        <ele>2046.0</ele>
        <time>2018-06-23T13:40:16Z</time>
      </trkpt>
      <trkpt lat="40.370867" lon="-4.812567">
        <ele>2045.0</ele>
        <time>2018-06-23T13:40:17Z</time>
      </trkpt>
      <trkpt lat="40.370917" lon="-4.812717">
        <ele>2044.0</ele>
        <time>2018-06-23T13:40:18Z</time>
      </trkpt>
      <trkpt lat="40.370933" lon="-4.812867">
        <ele>2043.0</ele>
        <time>2018-06-23T13:40:19Z</time>
      </trkpt>
      <trkpt lat="40.370933" lon="-4.813017">
        <ele>2042.0</ele>
        <time>2018-06-23T13:40:20Z</time>
      </trkpt>
      <trkpt lat="40.370917" lon="-4.813150">
        <ele>2042.0</ele>
        <time>2018-06-23T13:40:21Z</time>
      </trkpt>
      <trkpt lat="40.370883" lon="-4.813250">
        <ele>2041.0</ele>
        <time>2018-06-23T13:40:22Z</time>
      </trkpt>
      <trkpt lat="40.370833" lon="-4.813333">
        <ele>2040.0</ele>
        <time>2018-06-23T13:40:23Z</time>
      </trkpt>
      <trkpt lat="40.370783" lon="-4.813383">
        <ele>2038.0</ele>
        <time>2018-06-23T13:40:24Z</time>
      </trkpt>
      <trkpt lat="40.370700" lon="-4.813400">
        <ele>2035.0</ele>
        <time>2018-06-23T13:40:25Z</time>
      </trkpt>
      <trkpt lat="40.370633" lon="-4.813383">
        <ele>2033.0</ele>
        <time>2018-06-23T13:40:26Z</time>
      </trkpt>
      <trkpt lat="40.370567" lon="-4.813317">
        <ele>2032.0</ele>
        <time>2018-06-23T13:40:27Z</time>
      </trkpt>
      <trkpt lat="40.370533" lon="-4.813217">
        <ele>2032.0</ele>
        <time>2018-06-23T13:40:28Z</time>
      </trkpt>
      <trkpt lat="40.370533" lon="-4.813100">
        <ele>2032.0</ele>
        <time>2018-06-23T13:40:29Z</time>
      </trkpt>
      <trkpt lat="40.370583" lon="-4.813000">
        <ele>2032.0</ele>
        <time>2018-06-23T13:40:30Z</time>
      </trkpt>
      <trkpt lat="40.370633" lon="-4.812900">
        <ele>2033.0</ele>
        <time>2018-06-23T13:40:31Z</time>
      </trkpt>
      <trkpt lat="40.370700" lon="-4.812817">
        <ele>2034.0</ele>
        <time>2018-06-23T13:40:32Z</time>
      </trkpt>
      <trkpt lat="40.370783" lon="-4.812767">
        <ele>2034.0</ele>
        <time>2018-06-23T13:40:33Z</time>
      </trkpt>
      <trkpt lat="40.370867" lon="-4.812717">
        <ele>2033.0</ele>
        <time>2018-06-23T13:40:34Z</time>
      </trkpt>
      <trkpt lat="40.370967" lon="-4.812683">
        <ele>2032.0</ele>
        <time>2018-06-23T13:40:35Z</time>
      </trkpt>
      <trkpt lat="40.371067" lon="-4.812650">
        <ele>2030.0</ele>
        <time>2018-06-23T13:40:36Z</time>
      </trkpt>
      <trkpt lat="40.371183" lon="-4.812633">
        <ele>2028.0</ele>
        <time>2018-06-23T13:40:37Z</time>
      </trkpt>
      <trkpt lat="40.371300" lon="-4.812633">
        <ele>2026.0</ele>
        <time>2018-06-23T13:40:38Z</time>
      </trkpt>
      <trkpt lat="40.371433" lon="-4.812633">
        <ele>2025.0</ele>
        <time>2018-06-23T13:40:39Z</time>
      </trkpt>
      <trkpt lat="40.371567" lon="-4.812650">
        <ele>2024.0</ele>
        <time>2018-06-23T13:40:40Z</time>
      </trkpt>
      <trkpt lat="40.371700" lon="-4.812667">
        <ele>2024.0</ele>
        <time>2018-06-23T13:40:41Z</time>
      </trkpt>
      <trkpt lat="40.371817" lon="-4.812667">
        <ele>2023.0</ele>
        <time>2018-06-23T13:40:42Z</time>
      </trkpt>
      <trkpt lat="40.371933" lon="-4.812650">
        <ele>2020.0</ele>
        <time>2018-06-23T13:40:43Z</time>
      </trkpt>
      <trkpt lat="40.372033" lon="-4.812633">
        <ele>2016.0</ele>
        <time>2018-06-23T13:40:44Z</time>
      </trkpt>
      <trkpt lat="40.372150" lon="-4.812633">
        <ele>2012.0</ele>
        <time>2018-06-23T13:40:45Z</time>
      </trkpt>
      <trkpt lat="40.372283" lon="-4.812633">
        <ele>2007.0</ele>
        <time>2018-06-23T13:40:46Z</time>
      </trkpt>
      <trkpt lat="40.372433" lon="-4.812667">
        <ele>2002.0</ele>
        <time>2018-06-23T13:40:47Z</time>
      </trkpt>
      <trkpt lat="40.372583" lon="-4.812700">
        <ele>1999.0</ele>
        <time>2018-06-23T13:40:48Z</time>
      </trkpt>
      <trkpt lat="40.372717" lon="-4.812717">
        <ele>1998.0</ele>
        <time>2018-06-23T13:40:49Z</time>
      </trkpt>
      <trkpt lat="40.372833" lon="-4.812733">
        <ele>1997.0</ele>
        <time>2018-06-23T13:40:50Z</time>
      </trkpt>
      <trkpt lat="40.372950" lon="-4.812750">
        <ele>1995.0</ele>
        <time>2018-06-23T13:40:51Z</time>
      </trkpt>
      <trkpt lat="40.373067" lon="-4.812783">
        <ele>1993.0</ele>
        <time>2018-06-23T13:40:52Z</time>
      </trkpt>
      <trkpt lat="40.373183" lon="-4.812817">
        <ele>1990.0</ele>
        <time>2018-06-23T13:40:53Z</time>
      </trkpt>
      <trkpt lat="40.373300" lon="-4.812833">
        <ele>1986.0</ele>
        <time>2018-06-23T13:40:54Z</time>
      </trkpt>
      <trkpt lat="40.373433" lon="-4.812867">
        <ele>1983.0</ele>
        <time>2018-06-23T13:40:55Z</time>
      </trkpt>
      <trkpt lat="40.373550" lon="-4.812883">
        <ele>1981.0</ele>
        <time>2018-06-23T13:40:56Z</time>
      </trkpt>
      <trkpt lat="40.373667" lon="-4.812917">
        <ele>1980.0</ele>
        <time>2018-06-23T13:40:57Z</time>
      </trkpt>
      <trkpt lat="40.373767" lon="-4.812933">
        <ele>1980.0</ele>
        <time>2018-06-23T13:40:58Z</time>
      </trkpt>
      <trkpt lat="40.373883" lon="-4.812950">
        <ele>1978.0</ele>
        <time>2018-06-23T13:40:59Z</time>
      </trkpt>
      <trkpt lat="40.374000" lon="-4.812950">
        <ele>1977.0</ele>
        <time>2018-06-23T13:41:00Z</time>
      </trkpt>
      <trkpt lat="40.374133" lon="-4.812967">
        <ele>1977.0</ele>
        <time>2018-06-23T13:41:01Z</time>
      </trkpt>
      <trkpt lat="40.374267" lon="-4.812983">
        <ele>1978.0</ele>
        <time>2018-06-23T13:41:02Z</time>
      </trkpt>
      <trkpt lat="40.374383" lon="-4.813017">
        <ele>1980.0</ele>
        <time>2018-06-23T13:41:03Z</time>
      </trkpt>
      <trkpt lat="40.374483" lon="-4.813050">
        <ele>1983.0</ele>
        <time>2018-06-23T13:41:04Z</time>
      </trkpt>
      <trkpt lat="40.374600" lon="-4.813083">
        <ele>1985.0</ele>
        <time>2018-06-23T13:41:05Z</time>
      </trkpt>
      <trkpt lat="40.374717" lon="-4.813117">
        <ele>1986.0</ele>
        <time>2018-06-23T13:41:06Z</time>
      </trkpt>
      <trkpt lat="40.374833" lon="-4.813150">
        <ele>1987.0</ele>
        <time>2018-06-23T13:41:07Z</time>
      </trkpt>
      <trkpt lat="40.374967" lon="-4.813150">
        <ele>1987.0</ele>
        <time>2018-06-23T13:41:08Z</time>
      </trkpt>
      <trkpt lat="40.375083" lon="-4.813117">
        <ele>1988.0</ele>
        <time>2018-06-23T13:41:09Z</time>
      </trkpt>
      <trkpt lat="40.375200" lon="-4.813067">
        <ele>1989.0</ele>
        <time>2018-06-23T13:41:10Z</time>
      </trkpt>
      <trkpt lat="40.375283" lon="-4.813000">
        <ele>1990.0</ele>
        <time>2018-06-23T13:41:11Z</time>
      </trkpt>
      <trkpt lat="40.375317" lon="-4.812917">
        <ele>1992.0</ele>
        <time>2018-06-23T13:41:12Z</time>
      </trkpt>
      <trkpt lat="40.375333" lon="-4.812833">
        <ele>1993.0</ele>
        <time>2018-06-23T13:41:13Z</time>
      </trkpt>
      <trkpt lat="40.375300" lon="-4.812767">
        <ele>1995.0</ele>
        <time>2018-06-23T13:41:14Z</time>
      </trkpt>
      <trkpt lat="40.375250" lon="-4.812700">
        <ele>1998.0</ele>
        <time>2018-06-23T13:41:15Z</time>
      </trkpt>
      <trkpt lat="40.375183" lon="-4.812667">
        <ele>2001.0</ele>
        <time>2018-06-23T13:41:16Z</time>
      </trkpt>
      <trkpt lat="40.375100" lon="-4.812633">
        <ele>2005.0</ele>
        <time>2018-06-23T13:41:17Z</time>
      </trkpt>
      <trkpt lat="40.375017" lon="-4.812650">
        <ele>2009.0</ele>
        <time>2018-06-23T13:41:18Z</time>
      </trkpt>
      <trkpt lat="40.374933" lon="-4.812683">
        <ele>2012.0</ele>
        <time>2018-06-23T13:41:19Z</time>
      </trkpt>
      <trkpt lat="40.374850" lon="-4.812783">
        <ele>2014.0</ele>
        <time>2018-06-23T13:41:20Z</time>
      </trkpt>
      <trkpt lat="40.374800" lon="-4.812933">
        <ele>2014.0</ele>
        <time>2018-06-23T13:41:21Z</time>
      </trkpt>
      <trkpt lat="40.374800" lon="-4.813100">
        <ele>2015.0</ele>
        <time>2018-06-23T13:41:22Z</time>
      </trkpt>
      <trkpt lat="40.374817" lon="-4.813250">
        <ele>2017.0</ele>
        <time>2018-06-23T13:41:23Z</time>
      </trkpt>
      <trkpt lat="40.374867" lon="-4.813383">
        <ele>2020.0</ele>
        <time>2018-06-23T13:41:24Z</time>
      </trkpt>
      <trkpt lat="40.374900" lon="-4.813517">
        <ele>2022.0</ele>
        <time>2018-06-23T13:41:25Z</time>
      </trkpt>
      <trkpt lat="40.374950" lon="-4.813617">
        <ele>2024.0</ele>
        <time>2018-06-23T13:41:26Z</time>
      </trkpt>
      <trkpt lat="40.375000" lon="-4.813717">
        <ele>2025.0</ele>
        <time>2018-06-23T13:41:27Z</time>
      </trkpt>
      <trkpt lat="40.375083" lon="-4.813817">
        <ele>2025.0</ele>
        <time>2018-06-23T13:41:28Z</time>
      </trkpt>
      <trkpt lat="40.375200" lon="-4.813900">
        <ele>2025.0</ele>
        <time>2018-06-23T13:41:29Z</time>
      </trkpt>
      <trkpt lat="40.375317" lon="-4.813950">
        <ele>2025.0</ele>
        <time>2018-06-23T13:41:30Z</time>
      </trkpt>
      <trkpt lat="40.375450" lon="-4.814000">
        <ele>2027.0</ele>
        <time>2018-06-23T13:41:31Z</time>
      </trkpt>
      <trkpt lat="40.375567" lon="-4.814017">
        <ele>2030.0</ele>
        <time>2018-06-23T13:41:32Z</time>
      </trkpt>
      <trkpt lat="40.375683" lon="-4.814017">
        <ele>2032.0</ele>
        <time>2018-06-23T13:41:33Z</time>
      </trkpt>
      <trkpt lat="40.375817" lon="-4.814033">
        <ele>2034.0</ele>
        <time>2018-06-23T13:41:34Z</time>
      </trkpt>
      <trkpt lat="40.375950" lon="-4.814033">
        <ele>2035.0</ele>
        <time>2018-06-23T13:41:35Z</time>
      </trkpt>
      <trkpt lat="40.376067" lon="-4.814050">
        <ele>2037.0</ele>
        <time>2018-06-23T13:41:36Z</time>
      </trkpt>
      <trkpt lat="40.376167" lon="-4.814033">
        <ele>2040.0</ele>
        <time>2018-06-23T13:41:37Z</time>
      </trkpt>
      <trkpt lat="40.376267" lon="-4.813983">
        <ele>2042.0</ele>
        <time>2018-06-23T13:41:38Z</time>
      </trkpt>
      <trkpt lat="40.376333" lon="-4.813917">
        <ele>2044.0</ele>
        <time>2018-06-23T13:41:39Z</time>
      </trkpt>
      <trkpt lat="40.376383" lon="-4.813867">
        <ele>2047.0</ele>
        <time>2018-06-23T13:41:40Z</time>
      </trkpt>
      <trkpt lat="40.376433" lon="-4.813800">
        <ele>2050.0</ele>
        <time>2018-06-23T13:41:41Z</time>
      </trkpt>
      <trkpt lat="40.376467" lon="-4.813750">
        <ele>2052.0</ele>
        <time>2018-06-23T13:41:42Z</time>
      </trkpt>
      <trkpt lat="40.376500" lon="-4.813683">
        <ele>2054.0</ele>
        <time>2018-06-23T13:41:43Z</time>
      </trkpt>
      <trkpt lat="40.376517" lon="-4.813600">
        <ele>2056.0</ele>
        <time>2018-06-23T13:41:44Z</time>
      </trkpt>
      <trkpt lat="40.376517" lon="-4.813517">
        <ele>2058.0</ele>
        <time>2018-06-23T13:41:45Z</time>
      </trkpt>
      <trkpt lat="40.376483" lon="-4.813450">
        <ele>2059.0</ele>
        <time>2018-06-23T13:41:46Z</time>
      </trkpt>
      <trkpt lat="40.376450" lon="-4.813367">
        <ele>2062.0</ele>
        <time>2018-06-23T13:41:47Z</time>
      </trkpt>
      <trkpt lat="40.376400" lon="-4.813317">
        <ele>2065.0</ele>
        <time>2018-06-23T13:41:48Z</time>
      </trkpt>
      <trkpt lat="40.376333" lon="-4.813283">
        <ele>2067.0</ele>
        <time>2018-06-23T13:41:49Z</time>
      </trkpt>
      <trkpt lat="40.376267" lon="-4.813283">
        <ele>2069.0</ele>
        <time>2018-06-23T13:41:50Z</time>
      </trkpt>
      <trkpt lat="40.376183" lon="-4.813317">
        <ele>2070.0</ele>
        <time>2018-06-23T13:41:51Z</time>
      </trkpt>
      <trkpt lat="40.376100" lon="-4.813367">
        <ele>2073.0</ele>
        <time>2018-06-23T13:41:52Z</time>
      </trkpt>
      <trkpt lat="40.376033" lon="-4.813450">
        <ele>2076.0</ele>
        <time>2018-06-23T13:41:53Z</time>
      </trkpt>
      <trkpt lat="40.375983" lon="-4.813567">
        <ele>2079.0</ele>
        <time>2018-06-23T13:41:54Z</time>
      </trkpt>
      <trkpt lat="40.375950" lon="-4.813700">
        <ele>2082.0</ele>
        <time>2018-06-23T13:41:55Z</time>
      </trkpt>
      <trkpt lat="40.375950" lon="-4.813850">
        <ele>2084.0</ele>
        <time>2018-06-23T13:41:56Z</time>
      </trkpt>
      <trkpt lat="40.375983" lon="-4.814017">
        <ele>2086.0</ele>
        <time>2018-06-23T13:41:57Z</time>
      </trkpt>
      <trkpt lat="40.376017" lon="-4.814167">
        <ele>2087.0</ele>
        <time>2018-06-23T13:41:58Z</time>
      </trkpt>
      <trkpt lat="40.376067" lon="-4.814317">
        <ele>2090.0</ele>
        <time>2018-06-23T13:41:59Z</time>
      </trkpt>
      <trkpt lat="40.376133" lon="-4.814467">
        <ele>2092.0</ele>
        <time>2018-06-23T13:42:00Z</time>
      </trkpt>
      <trkpt lat="40.376233" lon="-4.814583">
        <ele>2093.0</ele>
        <time>2018-06-23T13:42:01Z</time>
      </trkpt>
      <trkpt lat="40.376333" lon="-4.814683">
        <ele>2094.0</ele>
        <time>2018-06-23T13:42:02Z</time>
      </trkpt>
      <trkpt lat="40.376450" lon="-4.814733">
        <ele>2096.0</ele>
        <time>2018-06-23T13:42:03Z</time>
      </trkpt>
      <trkpt lat="40.376567" lon="-4.814783">
        <ele>2100.0</ele>
        <time>2018-06-23T13:42:04Z</time>
      </trkpt>
      <trkpt lat="40.376667" lon="-4.814783">
        <ele>2103.0</ele>
        <time>2018-06-23T13:42:05Z</time>
      </trkpt>
      <trkpt lat="40.376750" lon="-4.814783">
        <ele>2105.0</ele>
        <time>2018-06-23T13:42:06Z</time>
      </trkpt>
      <trkpt lat="40.376833" lon="-4.814750">
        <ele>2106.0</ele>
        <time>2018-06-23T13:42:07Z</time>
      </trkpt>
      <trkpt lat="40.376883" lon="-4.814683">
        <ele>2107.0</ele>
        <time>2018-06-23T13:42:08Z</time>
      </trkpt>
      <trkpt lat="40.376933" lon="-4.814617">
        <ele>2108.0</ele>
        <time>2018-06-23T13:42:09Z</time>
      </trkpt>
      <trkpt lat="40.376933" lon="-4.814517">
        <ele>2110.0</ele>
        <time>2018-06-23T13:42:10Z</time>
      </trkpt>
      <trkpt lat="40.376933" lon="-4.814433">
        <ele>2112.0</ele>
        <time>2018-06-23T13:42:11Z</time>
      </trkpt>
      <trkpt lat="40.376883" lon="-4.814350">
        <ele>2113.0</ele>
        <time>2018-06-23T13:42:12Z</time>
      </trkpt>
      <trkpt lat="40.376833" lon="-4.814300">
        <ele>2115.0</ele>
        <time>2018-06-23T13:42:13Z</time>
      </trkpt>
      <trkpt lat="40.376750" lon="-4.814250">
        <ele>2116.0</ele>
        <time>2018-06-23T13:42:14Z</time>
      </trkpt>
      <trkpt lat="40.376667" lon="-4.814250">
        <ele>2118.0</ele>
        <time>2018-06-23T13:42:15Z</time>
      </trkpt>
      <trkpt lat="40.376583" lon="-4.814267">
        <ele>2121.0</ele>
        <time>2018-06-23T13:42:16Z</time>
      </trkpt>
      <trkpt lat="40.376500" lon="-4.814317">
        <ele>2124.0</ele>
        <time>2018-06-23T13:42:17Z</time>
      </trkpt>
      <trkpt lat="40.376433" lon="-4.814383">
        <ele>2127.0</ele>
        <time>2018-06-23T13:42:18Z</time>
      </trkpt>
      <trkpt lat="40.376367" lon="-4.814467">
        <ele>2129.0</ele>
        <time>2018-06-23T13:42:19Z</time>
      </trkpt>
      <trkpt lat="40.376300" lon="-4.814567">
        <ele>2131.0</ele>
        <time>2018-06-23T13:42:20Z</time>
      </trkpt>
      <trkpt lat="40.376250" lon="-4.814700">
        <ele>2134.0</ele>
        <time>2018-06-23T13:42:21Z</time>
      </trkpt>
      <trkpt lat="40.376233" lon="-4.814850">
        <ele>2135.0</ele>
        <time>2018-06-23T13:42:22Z</time>
      </trkpt>
      <trkpt lat="40.376233" lon="-4.815017">
        <ele>2137.0</ele>
        <time>2018-06-23T13:42:23Z</time>
      </trkpt>
      <trkpt lat="40.376250" lon="-4.815167">
        <ele>2140.0</ele>
        <time>2018-06-23T13:42:24Z</time>
      </trkpt>
      <trkpt lat="40.376300" lon="-4.815317">
        <ele>2144.0</ele>
        <time>2018-06-23T13:42:25Z</time>
      </trkpt>
      <trkpt lat="40.376350" lon="-4.815433">
        <ele>2146.0</ele>
        <time>2018-06-23T13:42:26Z</time>
      </trkpt>
      <trkpt lat="40.376433" lon="-4.815550">
        <ele>2147.0</ele>
        <time>2018-06-23T13:42:27Z</time>
      </trkpt>
      <trkpt lat="40.376517" lon="-4.815650">
        <ele>2149.0</ele>
        <time>2018-06-23T13:42:28Z</time>
      </trkpt>
      <trkpt lat="40.376633" lon="-4.815750">
        <ele>2150.0</ele>
        <time>2018-06-23T13:42:29Z</time>
      </trkpt>
      <trkpt lat="40.376750" lon="-4.815800">
        <ele>2152.0</ele>
        <time>2018-06-23T13:42:30Z</time>
      </trkpt>
      <trkpt lat="40.376850" lon="-4.815817">
        <ele>2153.0</ele>
        <time>2018-06-23T13:42:31Z</time>
      </trkpt>
      <trkpt lat="40.376933" lon="-4.815800">
        <ele>2155.0</ele>
        <time>2018-06-23T13:42:32Z</time>
      </trkpt>
      <trkpt lat="40.377000" lon="-4.815750">
        <ele>2156.0</ele>
        <time>2018-06-23T13:42:33Z</time>
      </trkpt>
      <trkpt lat="40.377050" lon="-4.815683">
        <ele>2157.0</ele>
        <time>2018-06-23T13:42:34Z</time>
      </trkpt>
      <trkpt lat="40.377067" lon="-4.815617">
        <ele>2157.0</ele>
        <time>2018-06-23T13:42:35Z</time>
      </trkpt>
      <trkpt lat="40.377083" lon="-4.815550">
        <ele>2157.0</ele>
        <time>2018-06-23T13:42:36Z</time>
      </trkpt>
      <trkpt lat="40.377083" lon="-4.815467">
        <ele>2158.0</ele>
        <time>2018-06-23T13:42:37Z</time>
      </trkpt>
      <trkpt lat="40.377050" lon="-4.815383">
        <ele>2159.0</ele>
        <time>2018-06-23T13:42:38Z</time>
      </trkpt>
      <trkpt lat="40.376983" lon="-4.815317">
        <ele>2159.0</ele>
        <time>2018-06-23T13:42:39Z</time>
      </trkpt>
      <trkpt lat="40.376900" lon="-4.815283">
        <ele>2159.0</ele>
        <time>2018-06-23T13:42:40Z</time>
      </trkpt>
      <trkpt lat="40.376800" lon="-4.815283">
        <ele>2160.0</ele>
        <time>2018-06-23T13:42:41Z</time>
      </trkpt>
      <trkpt lat="40.376683" lon="-4.815333">
        <ele>2162.0</ele>
        <time>2018-06-23T13:42:42Z</time>
      </trkpt>
      <trkpt lat="40.376600" lon="-4.815400">
        <ele>2164.0</ele>
        <time>2018-06-23T13:42:43Z</time>
      </trkpt>
      <trkpt lat="40.376517" lon="-4.815483">
        <ele>2167.0</ele>
        <time>2018-06-23T13:42:44Z</time>
      </trkpt>
      <trkpt lat="40.376450" lon="-4.815583">
        <ele>2171.0</ele>
        <time>2018-06-23T13:42:45Z</time>
      </trkpt>
      <trkpt lat="40.376400" lon="-4.815683">
        <ele>2174.0</ele>
        <time>2018-06-23T13:42:46Z</time>
      </trkpt>
      <trkpt lat="40.376350" lon="-4.815767">
        <ele>2177.0</ele>
        <time>2018-06-23T13:42:47Z</time>
      </trkpt>
      <trkpt lat="40.376300" lon="-4.815867">
        <ele>2179.0</ele>
        <time>2018-06-23T13:42:48Z</time>
      </trkpt>
      <trkpt lat="40.376283" lon="-4.815967">
        <ele>2181.0</ele>
        <time>2018-06-23T13:42:49Z</time>
      </trkpt>
      <trkpt lat="40.376267" lon="-4.816083">
        <ele>2181.0</ele>
        <time>2018-06-23T13:42:50Z</time>
      </trkpt>
      <trkpt lat="40.376267" lon="-4.816217">
        <ele>2181.0</ele>
        <time>2018-06-23T13:42:51Z</time>
      </trkpt>
      <trkpt lat="40.376283" lon="-4.816350">
        <ele>2180.0</ele>
        <time>2018-06-23T13:42:52Z</time>
      </trkpt>
      <trkpt lat="40.376333" lon="-4.816467">
        <ele>2179.0</ele>
        <time>2018-06-23T13:42:53Z</time>
      </trkpt>
      <trkpt lat="40.376383" lon="-4.816583">
        <ele>2176.0</ele>
        <time>2018-06-23T13:42:54Z</time>
      </trkpt>
      <trkpt lat="40.376483" lon="-4.816683">
        <ele>2174.0</ele>
        <time>2018-06-23T13:42:55Z</time>
      </trkpt>
      <trkpt lat="40.376583" lon="-4.816767">
        <ele>2173.0</ele>
        <time>2018-06-23T13:42:56Z</time>
      </trkpt>
      <trkpt lat="40.376700" lon="-4.816783">
        <ele>2173.0</ele>
        <time>2018-06-23T13:42:57Z</time>
      </trkpt>
      <trkpt lat="40.376800" lon="-4.816783">
        <ele>2173.0</ele>
        <time>2018-06-23T13:42:58Z</time>
      </trkpt>
      <trkpt lat="40.376900" lon="-4.816750">
        <ele>2174.0</ele>
        <time>2018-06-23T13:42:59Z</time>
      </trkpt>
      <trkpt lat="40.376983" lon="-4.816733">
        <ele>2175.0</ele>
        <time>2018-06-23T13:43:00Z</time>
      </trkpt>
      <trkpt lat="40.377067" lon="-4.816700">
        <ele>2177.0</ele>
        <time>2018-06-23T13:43:01Z</time>
      </trkpt>
      <trkpt lat="40.377150" lon="-4.816667">
        <ele>2178.0</ele>
        <time>2018-06-23T13:43:02Z</time>
      </trkpt>
      <trkpt lat="40.377233" lon="-4.816617">
        <ele>2178.0</ele>
        <time>2018-06-23T13:43:03Z</time>
      </trkpt>
      <trkpt lat="40.377300" lon="-4.816567">
        <ele>2179.0</ele>
        <time>2018-06-23T13:43:04Z</time>
      </trkpt>
      <trkpt lat="40.377383" lon="-4.816500">
        <ele>2180.0</ele>
        <time>2018-06-23T13:43:05Z</time>
      </trkpt>
      <trkpt lat="40.377467" lon="-4.816450">
        <ele>2183.0</ele>
        <time>2018-06-23T13:43:06Z</time>
      </trkpt>
      <trkpt lat="40.377550" lon="-4.816400">
        <ele>2187.0</ele>
        <time>2018-06-23T13:43:07Z</time>
      </trkpt>
      <trkpt lat="40.377633" lon="-4.816383">
        <ele>2190.0</ele>
        <time>2018-06-23T13:43:08Z</time>
      </trkpt>
      <trkpt lat="40.377717" lon="-4.816367">
        <ele>2192.0</ele>
        <time>2018-06-23T13:43:09Z</time>
      </trkpt>
      <trkpt lat="40.377800" lon="-4.816333">
        <ele>2193.0</ele>
        <time>2018-06-23T13:43:10Z</time>
      </trkpt>
      <trkpt lat="40.377883" lon="-4.816300">
        <ele>2194.0</ele>
        <time>2018-06-23T13:43:11Z</time>
      </trkpt>
      <trkpt lat="40.377950" lon="-4.816233">
        <ele>2195.0</ele>
        <time>2018-06-23T13:43:12Z</time>
      </trkpt>
      <trkpt lat="40.378000" lon="-4.816150">
        <ele>2196.0</ele>
        <time>2018-06-23T13:43:13Z</time>
      </trkpt>
      <trkpt lat="40.378050" lon="-4.816050">
        <ele>2198.0</ele>
        <time>2018-06-23T13:43:14Z</time>
      </trkpt>
      <trkpt lat="40.378067" lon="-4.815933">
        <ele>2201.0</ele>
        <time>2018-06-23T13:43:15Z</time>
      </trkpt>
      <trkpt lat="40.378050" lon="-4.815833">
        <ele>2203.0</ele>
        <time>2018-06-23T13:43:16Z</time>
      </trkpt>
      <trkpt lat="40.378017" lon="-4.815750">
        <ele>2206.0</ele>
        <time>2018-06-23T13:43:17Z</time>
      </trkpt>
      <trkpt lat="40.377983" lon="-4.815683">
        <ele>2208.0</ele>
        <time>2018-06-23T13:43:18Z</time>
      </trkpt>
      <trkpt lat="40.377917" lon="-4.815633">
        <ele>2210.0</ele>
        <time>2018-06-23T13:43:19Z</time>
      </trkpt>
      <trkpt lat="40.377850" lon="-4.815617">
        <ele>2212.0</ele>
        <time>2018-06-23T13:43:20Z</time>
      </trkpt>
      <trkpt lat="40.377767" lon="-4.815617">
        <ele>2215.0</ele>
        <time>2018-06-23T13:43:21Z</time>
      </trkpt>
      <trkpt lat="40.377700" lon="-4.815683">
        <ele>2216.0</ele>
        <time>2018-06-23T13:43:22Z</time>
      </trkpt>
      <trkpt lat="40.377633" lon="-4.815783">
        <ele>2218.0</ele>
        <time>2018-06-23T13:43:23Z</time>
      </trkpt>
      <trkpt lat="40.377600" lon="-4.815917">
        <ele>2218.0</ele>
        <time>2018-06-23T13:43:24Z</time>
      </trkpt>
      <trkpt lat="40.377583" lon="-4.816067">
        <ele>2219.0</ele>
        <time>2018-06-23T13:43:25Z</time>
      </trkpt>
      <trkpt lat="40.377600" lon="-4.816233">
        <ele>2220.0</ele>
        <time>2018-06-23T13:43:26Z</time>
      </trkpt>
      <trkpt lat="40.377633" lon="-4.816383">
        <ele>2221.0</ele>
        <time>2018-06-23T13:43:27Z</time>
      </trkpt>
      <trkpt lat="40.377683" lon="-4.816533">
        <ele>2223.0</ele>
        <time>2018-06-23T13:43:28Z</time>
      </trkpt>
      <trkpt lat="40.377733" lon="-4.816667">
        <ele>2224.0</ele>
        <time>2018-06-23T13:43:29Z</time>
      </trkpt>
      <trkpt lat="40.377817" lon="-4.816783">
        <ele>2225.0</ele>
        <time>2018-06-23T13:43:30Z</time>
      </trkpt>
      <trkpt lat="40.377917" lon="-4.816867">
        <ele>2226.0</ele>
        <time>2018-06-23T13:43:31Z</time>
      </trkpt>
      <trkpt lat="40.378033" lon="-4.816933">
        <ele>2227.0</ele>
        <time>2018-06-23T13:43:32Z</time>
      </trkpt>
      <trkpt lat="40.378150" lon="-4.816983">
        <ele>2228.0</ele>
        <time>2018-06-23T13:43:33Z</time>
      </trkpt>
      <trkpt lat="40.378267" lon="-4.817017">
        <ele>2230.0</ele>
        <time>2018-06-23T13:43:34Z</time>
      </trkpt>
      <trkpt lat="40.378367" lon="-4.817033">
        <ele>2232.0</ele>
        <time>2018-06-23T13:43:35Z</time>
      </trkpt>
      <trkpt lat="40.378450" lon="-4.817000">
        <ele>2233.0</ele>
        <time>2018-06-23T13:43:36Z</time>
      </trkpt>
      <trkpt lat="40.378550" lon="-4.816967">
        <ele>2233.0</ele>
        <time>2018-06-23T13:43:37Z</time>
      </trkpt>
      <trkpt lat="40.378617" lon="-4.816883">
        <ele>2233.0</ele>
        <time>2018-06-23T13:43:38Z</time>
      </trkpt>
      <trkpt lat="40.378667" lon="-4.816767">
        <ele>2232.0</ele>
        <time>2018-06-23T13:43:39Z</time>
      </trkpt>
      <trkpt lat="40.378683" lon="-4.816650">
        <ele>2233.0</ele>
        <time>2018-06-23T13:43:40Z</time>
      </trkpt>
      <trkpt lat="40.378683" lon="-4.816533">
        <ele>2234.0</ele>
        <time>2018-06-23T13:43:41Z</time>
      </trkpt>
      <trkpt lat="40.378650" lon="-4.816450">
        <ele>2236.0</ele>
        <time>2018-06-23T13:43:42Z</time>
      </trkpt>
      <trkpt lat="40.378617" lon="-4.816367">
        <ele>2239.0</ele>
        <time>2018-06-23T13:43:43Z</time>
      </trkpt>
      <trkpt lat="40.378583" lon="-4.816300">
        <ele>2241.0</ele>
        <time>2018-06-23T13:43:44Z</time>
      </trkpt>
      <trkpt lat="40.378550" lon="-4.816233">
        <ele>2242.0</ele>
        <time>2018-06-23T13:43:45Z</time>
      </trkpt>
      <trkpt lat="40.378517" lon="-4.816167">
        <ele>2243.0</ele>
        <time>2018-06-23T13:43:46Z</time>
      </trkpt>
      <trkpt lat="40.378450" lon="-4.816100">
        <ele>2244.0</ele>
        <time>2018-06-23T13:43:47Z</time>
      </trkpt>
      <trkpt lat="40.378400" lon="-4.816050">
        <ele>2245.0</ele>
        <time>2018-06-23T13:43:48Z</time>
      </trkpt>
      <trkpt lat="40.378333" lon="-4.816017">
        <ele>2247.0</ele>
        <time>2018-06-23T13:43:49Z</time>
      </trkpt>
      <trkpt lat="40.378283" lon="-4.816000">
        <ele>2249.0</ele>
        <time>2018-06-23T13:43:50Z</time>
      </trkpt>
      <trkpt lat="40.378217" lon="-4.816017">
        <ele>2251.0</ele>
        <time>2018-06-23T13:43:51Z</time>
      </trkpt>
      <trkpt lat="40.378150" lon="-4.816050">
        <ele>2253.0</ele>
        <time>2018-06-23T13:43:52Z</time>
      </trkpt>
      <trkpt lat="40.378083" lon="-4.816100">
        <ele>2254.0</ele>
        <time>2018-06-23T13:43:53Z</time>
      </trkpt>
      <trkpt lat="40.378017" lon="-4.816150">
        <ele>2256.0</ele>
        <time>2018-06-23T13:43:54Z</time>
      </trkpt>
      <trkpt lat="40.377933" lon="-4.816217">
        <ele>2257.0</ele>
        <time>2018-06-23T13:43:55Z</time>
      </trkpt>
      <trkpt lat="40.377883" lon="-4.816300">
        <ele>2259.0</ele>
        <time>2018-06-23T13:43:56Z</time>
      </trkpt>
      <trkpt lat="40.377833" lon="-4.816400">
        <ele>2260.0</ele>
        <time>2018-06-23T13:43:57Z</time>
      </trkpt>
      <trkpt lat="40.377783" lon="-4.816517">
        <ele>2260.0</ele>
        <time>2018-06-23T13:43:58Z</time>
      </trkpt>
      <trkpt lat="40.377767" lon="-4.816667">
        <ele>2260.0</ele>
        <time>2018-06-23T13:43:59Z</time>
      </trkpt>
      <trkpt lat="40.377767" lon="-4.816800">
        <ele>2261.0</ele>
        <time>2018-06-23T13:44:00Z</time>
      </trkpt>
      <trkpt lat="40.377783" lon="-4.816933">
        <ele>2261.0</ele>
        <time>2018-06-23T13:44:01Z</time>
      </trkpt>
      <trkpt lat="40.377817" lon="-4.817067">
        <ele>2262.0</ele>
        <time>2018-06-23T13:44:02Z</time>
      </trkpt>
      <trkpt lat="40.377883" lon="-4.817200">
        <ele>2262.0</ele>
        <time>2018-06-23T13:44:03Z</time>
      </trkpt>
      <trkpt lat="40.377967" lon="-4.817300">
        <ele>2263.0</ele>
        <time>2018-06-23T13:44:04Z</time>
      </trkpt>
      <trkpt lat="40.378050" lon="-4.817383">
        <ele>2263.0</ele>
        <time>2018-06-23T13:44:05Z</time>
      </trkpt>
      <trkpt lat="40.378150" lon="-4.817467">
        <ele>2264.0</ele>
        <time>2018-06-23T13:44:06Z</time>
      </trkpt>
      <trkpt lat="40.378233" lon="-4.817533">
        <ele>2266.0</ele>
        <time>2018-06-23T13:44:07Z</time>
      </trkpt>
      <trkpt lat="40.378333" lon="-4.817583">
        <ele>2267.0</ele>
        <time>2018-06-23T13:44:08Z</time>
      </trkpt>
      <trkpt lat="40.378433" lon="-4.817633">
        <ele>2268.0</ele>
        <time>2018-06-23T13:44:09Z</time>
      </trkpt>
      <trkpt lat="40.378533" lon="-4.817667">
        <ele>2269.0</ele>
        <time>2018-06-23T13:44:10Z</time>
      </trkpt>
      <trkpt lat="40.378633" lon="-4.817683">
        <ele>2270.0</ele>
        <time>2018-06-23T13:44:11Z</time>
      </trkpt>
      <trkpt lat="40.378717" lon="-4.817700">
        <ele>2271.0</ele>
        <time>2018-06-23T13:44:12Z</time>
      </trkpt>
      <trkpt lat="40.378817" lon="-4.817683">
        <ele>2272.0</ele>
        <time>2018-06-23T13:44:13Z</time>
      </trkpt>
      <trkpt lat="40.378917" lon="-4.817667">
        <ele>2273.0</ele>
        <time>2018-06-23T13:44:14Z</time>
      </trkpt>
      <trkpt lat="40.379033" lon="-4.817650">
        <ele>2274.0</ele>
        <time>2018-06-23T13:44:15Z</time>
      </trkpt>
      <trkpt lat="40.379117" lon="-4.817617">
        <ele>2275.0</ele>
        <time>2018-06-23T13:44:16Z</time>
      </trkpt>
      <trkpt lat="40.379200" lon="-4.817567">
        <ele>2277.0</ele>
        <time>2018-06-23T13:44:17Z</time>
      </trkpt>
      <trkpt lat="40.379267" lon="-4.817517">
        <ele>2279.0</ele>
        <time>2018-06-23T13:44:18Z</time>
      </trkpt>
      <trkpt lat="40.379333" lon="-4.817467">
        <ele>2280.0</ele>
        <time>2018-06-23T13:44:19Z</time>
      </trkpt>
      <trkpt lat="40.379383" lon="-4.817383">
        <ele>2281.0</ele>
        <time>2018-06-23T13:44:20Z</time>
      </trkpt>
      <trkpt lat="40.379433" lon="-4.817283">
        <ele>2281.0</ele>
        <time>2018-06-23T13:44:21Z</time>
      </trkpt>
      <trkpt lat="40.379467" lon="-4.817167">
        <ele>2282.0</ele>
        <time>2018-06-23T13:44:22Z</time>
      </trkpt>
      <trkpt lat="40.379467" lon="-4.817033">
        <ele>2284.0</ele>
        <time>2018-06-23T13:44:23Z</time>
      </trkpt>
      <trkpt lat="40.379467" lon="-4.816917">
        <ele>2287.0</ele>
        <time>2018-06-23T13:44:24Z</time>
      </trkpt>
      <trkpt lat="40.379450" lon="-4.816833">
        <ele>2290.0</ele>
        <time>2018-06-23T13:44:25Z</time>
      </trkpt>
      <trkpt lat="40.379417" lon="-4.816750">
        <ele>2293.0</ele>
        <time>2018-06-23T13:44:26Z</time>
      </trkpt>
      <trkpt lat="40.379383" lon="-4.816717">
        <ele>2293.0</ele>
        <time>2018-06-23T13:44:27Z</time>
      </trkpt>
      <trkpt lat="40.379317" lon="-4.816683">
        <ele>2293.0</ele>
        <time>2018-06-23T13:44:28Z</time>
      </trkpt>
      <trkpt lat="40.379250" lon="-4.816650">
        <ele>2292.0</ele>
        <time>2018-06-23T13:44:29Z</time>
      </trkpt>
      <trkpt lat="40.379183" lon="-4.816650">
        <ele>2292.0</ele>
        <time>2018-06-23T13:44:30Z</time>
      </trkpt>
      <trkpt lat="40.379100" lon="-4.816683">
        <ele>2293.0</ele>
        <time>2018-06-23T13:44:31Z</time>
      </trkpt>
      <trkpt lat="40.379033" lon="-4.816733">
        <ele>2295.0</ele>
        <time>2018-06-23T13:44:32Z</time>
      </trkpt>
      <trkpt lat="40.378983" lon="-4.816817">
        <ele>2297.0</ele>
        <time>2018-06-23T13:44:33Z</time>
      </trkpt>
      <trkpt lat="40.378933" lon="-4.816917">
        <ele>2298.0</ele>
        <time>2018-06-23T13:44:34Z</time>
      </trkpt>
      <trkpt lat="40.378900" lon="-4.817033">
        <ele>2299.0</ele>
        <time>2018-06-23T13:44:35Z</time>
      </trkpt>
      <trkpt lat="40.378900" lon="-4.817167">
        <ele>2299.0</ele>
        <time>2018-06-23T13:44:36Z</time>
      </trkpt>
      <trkpt lat="40.378900" lon="-4.817300">
        <ele>2299.0</ele>
        <time>2018-06-23T13:44:37Z</time>
      </trkpt>
      <trkpt lat="40.378917" lon="-4.817450">
        <ele>2300.0</ele>
        <time>2018-06-23T13:44:38Z</time>
      </trkpt>
      <trkpt lat="40.378950" lon="-4.817600">
        <ele>2300.0</ele>
        <time>2018-06-23T13:44:39Z</time>
      </trkpt>
      <trkpt lat="40.379017" lon="-4.817733">
        <ele>2301.0</ele>
        <time>2018-06-23T13:44:40Z</time>
      </trkpt>
      <trkpt lat="40.379083" lon="-4.817867">
        <ele>2301.0</ele>
        <time>2018-06-23T13:44:41Z</time>
      </trkpt>
      <trkpt lat="40.379167" lon="-4.817983">
        <ele>2303.0</ele>
        <time>2018-06-23T13:44:42Z</time>
      </trkpt>
      <trkpt lat="40.379267" lon="-4.818067">
        <ele>2304.0</ele>
        <time>2018-06-23T13:44:43Z</time>
      </trkpt>
      <trkpt lat="40.379367" lon="-4.818133">
        <ele>2304.0</ele>
        <time>2018-06-23T13:44:44Z</time>
      </trkpt>
      <trkpt lat="40.379483" lon="-4.818183">
        <ele>2305.0</ele>
        <time>2018-06-23T13:44:45Z</time>
      </trkpt>
      <trkpt lat="40.379617" lon="-4.818200">
        <ele>2305.0</ele>
        <time>2018-06-23T13:44:46Z</time>
      </trkpt>
      <trkpt lat="40.379733" lon="-4.818217">
        <ele>2306.0</ele>
        <time>2018-06-23T13:44:47Z</time>
      </trkpt>
      <trkpt lat="40.379867" lon="-4.818200">
        <ele>2308.0</ele>
        <time>2018-06-23T13:44:48Z</time>
      </trkpt>
      <trkpt lat="40.379983" lon="-4.818150">
        <ele>2309.0</ele>
        <time>2018-06-23T13:44:49Z</time>
      </trkpt>
      <trkpt lat="40.380100" lon="-4.818083">
        <ele>2310.0</ele>
        <time>2018-06-23T13:44:50Z</time>
      </trkpt>
      <trkpt lat="40.380200" lon="-4.817983">
        <ele>2312.0</ele>
        <time>2018-06-23T13:44:51Z</time>
      </trkpt>
      <trkpt lat="40.380300" lon="-4.817883">
        <ele>2314.0</ele>
        <time>2018-06-23T13:44:52Z</time>
      </trkpt>
      <trkpt lat="40.380367" lon="-4.817783">
        <ele>2315.0</ele>
        <time>2018-06-23T13:44:53Z</time>
      </trkpt>
      <trkpt lat="40.380433" lon="-4.817683">
        <ele>2316.0</ele>
        <time>2018-06-23T13:44:54Z</time>
      </trkpt>
      <trkpt lat="40.380467" lon="-4.817550">
        <ele>2316.0</ele>
        <time>2018-06-23T13:44:55Z</time>
      </trkpt>
      <trkpt lat="40.380483" lon="-4.817433">
        <ele>2317.0</ele>
        <time>2018-06-23T13:44:56Z</time>
      </trkpt>
      <trkpt lat="40.380467" lon="-4.817317">
        <ele>2318.0</ele>
        <time>2018-06-23T13:44:57Z</time>
      </trkpt>
      <trkpt lat="40.380433" lon="-4.817233">
        <ele>2321.0</ele>
        <time>2018-06-23T13:44:58Z</time>
      </trkpt>
      <trkpt lat="40.380383" lon="-4.817167">
        <ele>2323.0</ele>
        <time>2018-06-23T13:44:59Z</time>
      </trkpt>
      <trkpt lat="40.380317" lon="-4.817133">
        <ele>2325.0</ele>
        <time>2018-06-23T13:45:00Z</time>
      </trkpt>
      <trkpt lat="40.380233" lon="-4.817133">
        <ele>2327.0</ele>
        <time>2018-06-23T13:45:01Z</time>
      </trkpt>
      <trkpt lat="40.380167" lon="-4.817167">
        <ele>2329.0</ele>
        <time>2018-06-23T13:45:02Z</time>
      </trkpt>
      <trkpt lat="40.380083" lon="-4.817217">
        <ele>2332.0</ele>
        <time>2018-06-23T13:45:03Z</time>
      </trkpt>
      <trkpt lat="40.380050" lon="-4.817300">
        <ele>2334.0</ele>
        <time>2018-06-23T13:45:04Z</time>
      </trkpt>
      <trkpt lat="40.380033" lon="-4.817417">
        <ele>2336.0</ele>
        <time>2018-06-23T13:45:05Z</time>
      </trkpt>
      <trkpt lat="40.380017" lon="-4.817517">
        <ele>2336.0</ele>
        <time>2018-06-23T13:45:06Z</time>
      </trkpt>
      <trkpt lat="40.380033" lon="-4.817650">
        <ele>2335.0</ele>
        <time>2018-06-23T13:45:07Z</time>
      </trkpt>
      <trkpt lat="40.380050" lon="-4.817800">
        <ele>2336.0</ele>
        <time>2018-06-23T13:45:08Z</time>
      </trkpt>
      <trkpt lat="40.380100" lon="-4.817950">
        <ele>2335.0</ele>
        <time>2018-06-23T13:45:09Z</time>
      </trkpt>
      <trkpt lat="40.380167" lon="-4.818083">
        <ele>2335.0</ele>
        <time>2018-06-23T13:45:10Z</time>
      </trkpt>
      <trkpt lat="40.380283" lon="-4.818217">
        <ele>2336.0</ele>
        <time>2018-06-23T13:45:11Z</time>
      </trkpt>
      <trkpt lat="40.380400" lon="-4.818317">
        <ele>2338.0</ele>
        <time>2018-06-23T13:45:12Z</time>
      </trkpt>
      <trkpt lat="40.380517" lon="-4.818383">
        <ele>2341.0</ele>
        <time>2018-06-23T13:45:13Z</time>
      </trkpt>
      <trkpt lat="40.380633" lon="-4.818433">
        <ele>2343.0</ele>
        <time>2018-06-23T13:45:14Z</time>
      </trkpt>
      <trkpt lat="40.380750" lon="-4.818450">
        <ele>2344.0</ele>
        <time>2018-06-23T13:45:15Z</time>
      </trkpt>
      <trkpt lat="40.380867" lon="-4.818450">
        <ele>2343.0</ele>
        <time>2018-06-23T13:45:16Z</time>
      </trkpt>
      <trkpt lat="40.381000" lon="-4.818417">
        <ele>2343.0</ele>
        <time>2018-06-23T13:45:17Z</time>
      </trkpt>
      <trkpt lat="40.381117" lon="-4.818350">
        <ele>2342.0</ele>
        <time>2018-06-23T13:45:18Z</time>
      </trkpt>
      <trkpt lat="40.381233" lon="-4.818267">
        <ele>2342.0</ele>
        <time>2018-06-23T13:45:19Z</time>
      </trkpt>
      <trkpt lat="40.381317" lon="-4.818150">
        <ele>2342.0</ele>
        <time>2018-06-23T13:45:20Z</time>
      </trkpt>
      <trkpt lat="40.381383" lon="-4.818033">
        <ele>2342.0</ele>
        <time>2018-06-23T13:45:21Z</time>
      </trkpt>
      <trkpt lat="40.381400" lon="-4.817917">
        <ele>2342.0</ele>
        <time>2018-06-23T13:45:22Z</time>
      </trkpt>
      <trkpt lat="40.381417" lon="-4.817800">
        <ele>2341.0</ele>
        <time>2018-06-23T13:45:23Z</time>
      </trkpt>
      <trkpt lat="40.381417" lon="-4.817700">
        <ele>2340.0</ele>
        <time>2018-06-23T13:45:24Z</time>
      </trkpt>
      <trkpt lat="40.381383" lon="-4.817617">
        <ele>2338.0</ele>
        <time>2018-06-23T13:45:25Z</time>
      </trkpt>
      <trkpt lat="40.381317" lon="-4.817567">
        <ele>2337.0</ele>
        <time>2018-06-23T13:45:26Z</time>
      </trkpt>
      <trkpt lat="40.381233" lon="-4.817567">
        <ele>2336.0</ele>
        <time>2018-06-23T13:45:27Z</time>
      </trkpt>
      <trkpt lat="40.381150" lon="-4.817600">
        <ele>2334.0</ele>
        <time>2018-06-23T13:45:28Z</time>
      </trkpt>
      <trkpt lat="40.381067" lon="-4.817683">
        <ele>2335.0</ele>
        <time>2018-06-23T13:45:29Z</time>
      </trkpt>
      <trkpt lat="40.380983" lon="-4.817767">
        <ele>2337.0</ele>
        <time>2018-06-23T13:45:30Z</time>
      </trkpt>
      <trkpt lat="40.380917" lon="-4.817867">
        <ele>2340.0</ele>
        <time>2018-06-23T13:45:31Z</time>
      </trkpt>
      <trkpt lat="40.380867" lon="-4.817967">
        <ele>2343.0</ele>
        <time>2018-06-23T13:45:32Z</time>
      </trkpt>
      <trkpt lat="40.380833" lon="-4.818067">
        <ele>2345.0</ele>
        <time>2018-06-23T13:45:33Z</time>
      </trkpt>
      <trkpt lat="40.380817" lon="-4.818167">
        <ele>2346.0</ele>
        <time>2018-06-23T13:45:34Z</time>
      </trkpt>
      <trkpt lat="40.380783" lon="-4.818267">
        <ele>2347.0</ele>
        <time>2018-06-23T13:45:35Z</time>
      </trkpt>
      <trkpt lat="40.380767" lon="-4.818383">
        <ele>2347.0</ele>
        <time>2018-06-23T13:45:36Z</time>
      </trkpt>
      <trkpt lat="40.380767" lon="-4.818517">
        <ele>2347.0</ele>
        <time>2018-06-23T13:45:37Z</time>
      </trkpt>
      <trkpt lat="40.380767" lon="-4.818650">
        <ele>2347.0</ele>
        <time>2018-06-23T13:45:38Z</time>
      </trkpt>
      <trkpt lat="40.380783" lon="-4.818800">
        <ele>2348.0</ele>
        <time>2018-06-23T13:45:39Z</time>
      </trkpt>
      <trkpt lat="40.380817" lon="-4.818933">
        <ele>2350.0</ele>
        <time>2018-06-23T13:45:40Z</time>
      </trkpt>
      <trkpt lat="40.380833" lon="-4.819067">
        <ele>2352.0</ele>
        <time>2018-06-23T13:45:41Z</time>
      </trkpt>
      <trkpt lat="40.380833" lon="-4.819200">
        <ele>2353.0</ele>
        <time>2018-06-23T13:45:42Z</time>
      </trkpt>
      <trkpt lat="40.380867" lon="-4.819333">
        <ele>2355.0</ele>
        <time>2018-06-23T13:45:43Z</time>
      </trkpt>
      <trkpt lat="40.380900" lon="-4.819467">
        <ele>2357.0</ele>
        <time>2018-06-23T13:45:44Z</time>
      </trkpt>
      <trkpt lat="40.380950" lon="-4.819617">
        <ele>2357.0</ele>
        <time>2018-06-23T13:45:45Z</time>
      </trkpt>
      <trkpt lat="40.381033" lon="-4.819750">
        <ele>2358.0</ele>
        <time>2018-06-23T13:45:46Z</time>
      </trkpt>
      <trkpt lat="40.381117" lon="-4.819883">
        <ele>2359.0</ele>
        <time>2018-06-23T13:45:47Z</time>
      </trkpt>
      <trkpt lat="40.381200" lon="-4.820017">
        <ele>2361.0</ele>
        <time>2018-06-23T13:45:48Z</time>
      </trkpt>
      <trkpt lat="40.381283" lon="-4.820150">
        <ele>2363.0</ele>
        <time>2018-06-23T13:45:49Z</time>
      </trkpt>
      <trkpt lat="40.381367" lon="-4.820250">
        <ele>2364.0</ele>
        <time>2018-06-23T13:45:50Z</time>
      </trkpt>
      <trkpt lat="40.381483" lon="-4.820333">
        <ele>2364.0</ele>
        <time>2018-06-23T13:45:51Z</time>
      </trkpt>
      <trkpt lat="40.381600" lon="-4.820433">
        <ele>2364.0</ele>
        <time>2018-06-23T13:45:52Z</time>
      </trkpt>
      <trkpt lat="40.381733" lon="-4.820500">
        <ele>2364.0</ele>
        <time>2018-06-23T13:45:53Z</time>
      </trkpt>
      <trkpt lat="40.381867" lon="-4.820567">
        <ele>2365.0</ele>
        <time>2018-06-23T13:45:54Z</time>
      </trkpt>
      <trkpt lat="40.381983" lon="-4.820600">
        <ele>2366.0</ele>
        <time>2018-06-23T13:45:55Z</time>
      </trkpt>
      <trkpt lat="40.382100" lon="-4.820617">
        <ele>2366.0</ele>
        <time>2018-06-23T13:45:56Z</time>
      </trkpt>
      <trkpt lat="40.382233" lon="-4.820600">
        <ele>2364.0</ele>
        <time>2018-06-23T13:45:57Z</time>
      </trkpt>
      <trkpt lat="40.382350" lon="-4.820567">
        <ele>2362.0</ele>
        <time>2018-06-23T13:45:58Z</time>
      </trkpt>
      <trkpt lat="40.382483" lon="-4.820500">
        <ele>2359.0</ele>
        <time>2018-06-23T13:45:59Z</time>
      </trkpt>
      <trkpt lat="40.382600" lon="-4.820433">
        <ele>2357.0</ele>
        <time>2018-06-23T13:46:00Z</time>
      </trkpt>
      <trkpt lat="40.382700" lon="-4.820333">
        <ele>2355.0</ele>
        <time>2018-06-23T13:46:01Z</time>
      </trkpt>
      <trkpt lat="40.382767" lon="-4.820217">
        <ele>2354.0</ele>
        <time>2018-06-23T13:46:02Z</time>
      </trkpt>
      <trkpt lat="40.382817" lon="-4.820083">
        <ele>2351.0</ele>
        <time>2018-06-23T13:46:03Z</time>
      </trkpt>
      <trkpt lat="40.382850" lon="-4.819933">
        <ele>2349.0</ele>
        <time>2018-06-23T13:46:04Z</time>
      </trkpt>
      <trkpt lat="40.382833" lon="-4.819817">
        <ele>2347.0</ele>
        <time>2018-06-23T13:46:05Z</time>
      </trkpt>
      <trkpt lat="40.382817" lon="-4.819700">
        <ele>2345.0</ele>
        <time>2018-06-23T13:46:06Z</time>
      </trkpt>
      <trkpt lat="40.382767" lon="-4.819617">
        <ele>2342.0</ele>
        <time>2018-06-23T13:46:07Z</time>
      </trkpt>
      <trkpt lat="40.382700" lon="-4.819567">
        <ele>2340.0</ele>
        <time>2018-06-23T13:46:08Z</time>
      </trkpt>
      <trkpt lat="40.382633" lon="-4.819550">
        <ele>2338.0</ele>
        <time>2018-06-23T13:46:09Z</time>
      </trkpt>
      <trkpt lat="40.382583" lon="-4.819567">
        <ele>2336.0</ele>
        <time>2018-06-23T13:46:10Z</time>
      </trkpt>
      <trkpt lat="40.382517" lon="-4.819600">
        <ele>2334.0</ele>
        <time>2018-06-23T13:46:11Z</time>
      </trkpt>
      <trkpt lat="40.382483" lon="-4.819667">
        <ele>2332.0</ele>
        <time>2018-06-23T13:46:12Z</time>
      </trkpt>
      <trkpt lat="40.382450" lon="-4.819767">
        <ele>2329.0</ele>
        <time>2018-06-23T13:46:13Z</time>
      </trkpt>
      <trkpt lat="40.382433" lon="-4.819867">
        <ele>2327.0</ele>
        <time>2018-06-23T13:46:14Z</time>
      </trkpt>
      <trkpt lat="40.382450" lon="-4.820000">
        <ele>2326.0</ele>
        <time>2018-06-23T13:46:15Z</time>
      </trkpt>
      <trkpt lat="40.382467" lon="-4.820133">
        <ele>2327.0</ele>
        <time>2018-06-23T13:46:16Z</time>
      </trkpt>
      <trkpt lat="40.382500" lon="-4.820250">
        <ele>2330.0</ele>
        <time>2018-06-23T13:46:17Z</time>
      </trkpt>
      <trkpt lat="40.382533" lon="-4.820350">
        <ele>2333.0</ele>
        <time>2018-06-23T13:46:18Z</time>
      </trkpt>
      <trkpt lat="40.382550" lon="-4.820433">
        <ele>2335.0</ele>
        <time>2018-06-23T13:46:19Z</time>
      </trkpt>
      <trkpt lat="40.382567" lon="-4.820500">
        <ele>2335.0</ele>
        <time>2018-06-23T13:46:20Z</time>
      </trkpt>
      <trkpt lat="40.382583" lon="-4.820583">
        <ele>2334.0</ele>
        <time>2018-06-23T13:46:21Z</time>
      </trkpt>
      <trkpt lat="40.382617" lon="-4.820683">
        <ele>2332.0</ele>
        <time>2018-06-23T13:46:22Z</time>
      </trkpt>
      <trkpt lat="40.382667" lon="-4.820800">
        <ele>2330.0</ele>
        <time>2018-06-23T13:46:23Z</time>
      </trkpt>
      <trkpt lat="40.382733" lon="-4.820917">
        <ele>2328.0</ele>
        <time>2018-06-23T13:46:24Z</time>
      </trkpt>
      <trkpt lat="40.382817" lon="-4.821017">
        <ele>2326.0</ele>
        <time>2018-06-23T13:46:25Z</time>
      </trkpt>
      <trkpt lat="40.382900" lon="-4.821100">
        <ele>2325.0</ele>
        <time>2018-06-23T13:46:26Z</time>
      </trkpt>
      <trkpt lat="40.383017" lon="-4.821167">
        <ele>2323.0</ele>
        <time>2018-06-23T13:46:27Z</time>
      </trkpt>
      <trkpt lat="40.383133" lon="-4.821217">
        <ele>2321.0</ele>
        <time>2018-06-23T13:46:28Z</time>
      </trkpt>
      <trkpt lat="40.383267" lon="-4.821250">
        <ele>2319.0</ele>
        <time>2018-06-23T13:46:29Z</time>
      </trkpt>
      <trkpt lat="40.383400" lon="-4.821267">
        <ele>2318.0</ele>
        <time>2018-06-23T13:46:30Z</time>
      </trkpt>
      <trkpt lat="40.383517" lon="-4.821300">
        <ele>2317.0</ele>
        <time>2018-06-23T13:46:31Z</time>
      </trkpt>
      <trkpt lat="40.383650" lon="-4.821317">
        <ele>2315.0</ele>
        <time>2018-06-23T13:46:32Z</time>
      </trkpt>
      <trkpt lat="40.383800" lon="-4.821333">
        <ele>2312.0</ele>
        <time>2018-06-23T13:46:33Z</time>
      </trkpt>
      <trkpt lat="40.383933" lon="-4.821333">
        <ele>2310.0</ele>
        <time>2018-06-23T13:46:34Z</time>
      </trkpt>
      <trkpt lat="40.384083" lon="-4.821367">
        <ele>2309.0</ele>
        <time>2018-06-23T13:46:35Z</time>
      </trkpt>
      <trkpt lat="40.384217" lon="-4.821383">
        <ele>2308.0</ele>
        <time>2018-06-23T13:46:36Z</time>
      </trkpt>
      <trkpt lat="40.384367" lon="-4.821417">
        <ele>2306.0</ele>
        <time>2018-06-23T13:46:37Z</time>
      </trkpt>
      <trkpt lat="40.384500" lon="-4.821450">
        <ele>2305.0</ele>
        <time>2018-06-23T13:46:38Z</time>
      </trkpt>
      <trkpt lat="40.384633" lon="-4.821483">
        <ele>2303.0</ele>
        <time>2018-06-23T13:46:39Z</time>
      </trkpt>
      <trkpt lat="40.384767" lon="-4.821500">
        <ele>2301.0</ele>
        <time>2018-06-23T13:46:40Z</time>
      </trkpt>
      <trkpt lat="40.384917" lon="-4.821517">
        <ele>2299.0</ele>
        <time>2018-06-23T13:46:41Z</time>
      </trkpt>
      <trkpt lat="40.385050" lon="-4.821533">
        <ele>2296.0</ele>
        <time>2018-06-23T13:46:42Z</time>
      </trkpt>
      <trkpt lat="40.385183" lon="-4.821533">
        <ele>2294.0</ele>
        <time>2018-06-23T13:46:43Z</time>
      </trkpt>
      <trkpt lat="40.385333" lon="-4.821533">
        <ele>2292.0</ele>
        <time>2018-06-23T13:46:44Z</time>
      </trkpt>
      <trkpt lat="40.385483" lon="-4.821533">
        <ele>2289.0</ele>
        <time>2018-06-23T13:46:45Z</time>
      </trkpt>
      <trkpt lat="40.385617" lon="-4.821500">
        <ele>2287.0</ele>
        <time>2018-06-23T13:46:46Z</time>
      </trkpt>
      <trkpt lat="40.385750" lon="-4.821483">
        <ele>2285.0</ele>
        <time>2018-06-23T13:46:47Z</time>
      </trkpt>
      <trkpt lat="40.385900" lon="-4.821450">
        <ele>2283.0</ele>
        <time>2018-06-23T13:46:48Z</time>
      </trkpt>
      <trkpt lat="40.386033" lon="-4.821433">
        <ele>2281.0</ele>
        <time>2018-06-23T13:46:49Z</time>
      </trkpt>
      <trkpt lat="40.386167" lon="-4.821400">
        <ele>2279.0</ele>
        <time>2018-06-23T13:46:50Z</time>
      </trkpt>
      <trkpt lat="40.386317" lon="-4.821383">
        <ele>2277.0</ele>
        <time>2018-06-23T13:46:51Z</time>
      </trkpt>
      <trkpt lat="40.386450" lon="-4.821367">
        <ele>2276.0</ele>
        <time>2018-06-23T13:46:52Z</time>
      </trkpt>
      <trkpt lat="40.386583" lon="-4.821367">
        <ele>2274.0</ele>
        <time>2018-06-23T13:46:53Z</time>
      </trkpt>
      <trkpt lat="40.386717" lon="-4.821367">
        <ele>2273.0</ele>
        <time>2018-06-23T13:46:54Z</time>
      </trkpt>
      <trkpt lat="40.386850" lon="-4.821367">
        <ele>2271.0</ele>
        <time>2018-06-23T13:46:55Z</time>
      </trkpt>
      <trkpt lat="40.386983" lon="-4.821367">
        <ele>2269.0</ele>
        <time>2018-06-23T13:46:56Z</time>
      </trkpt>
      <trkpt lat="40.387117" lon="-4.821367">
        <ele>2266.0</ele>
        <time>2018-06-23T13:46:57Z</time>
      </trkpt>
      <trkpt lat="40.387250" lon="-4.821367">
        <ele>2263.0</ele>
        <time>2018-06-23T13:46:58Z</time>
      </trkpt>
      <trkpt lat="40.387383" lon="-4.821350">
        <ele>2261.0</ele>
        <time>2018-06-23T13:46:59Z</time>
      </trkpt>
      <trkpt lat="40.387517" lon="-4.821350">
        <ele>2259.0</ele>
        <time>2018-06-23T13:47:00Z</time>
      </trkpt>
      <trkpt lat="40.387633" lon="-4.821333">
        <ele>2257.0</ele>
        <time>2018-06-23T13:47:01Z</time>
      </trkpt>
      <trkpt lat="40.387767" lon="-4.821317">
        <ele>2255.0</ele>
        <time>2018-06-23T13:47:02Z</time>
      </trkpt>
      <trkpt lat="40.387883" lon="-4.821300">
        <ele>2252.0</ele>
        <time>2018-06-23T13:47:03Z</time>
      </trkpt>
      <trkpt lat="40.388000" lon="-4.821267">
        <ele>2249.0</ele>
        <time>2018-06-23T13:47:04Z</time>
      </trkpt>
      <trkpt lat="40.388133" lon="-4.821233">
        <ele>2246.0</ele>
        <time>2018-06-23T13:47:05Z</time>
      </trkpt>
      <trkpt lat="40.388267" lon="-4.821217">
        <ele>2243.0</ele>
        <time>2018-06-23T13:47:06Z</time>
      </trkpt>
      <trkpt lat="40.388400" lon="-4.821200">
        <ele>2240.0</ele>
        <time>2018-06-23T13:47:07Z</time>
      </trkpt>
      <trkpt lat="40.388533" lon="-4.821200">
        <ele>2239.0</ele>
        <time>2018-06-23T13:47:08Z</time>
      </trkpt>
      <trkpt lat="40.388667" lon="-4.821200">
        <ele>2237.0</ele>
        <time>2018-06-23T13:47:09Z</time>
      </trkpt>
      <trkpt lat="40.388783" lon="-4.821200">
        <ele>2236.0</ele>
        <time>2018-06-23T13:47:10Z</time>
      </trkpt>
      <trkpt lat="40.388900" lon="-4.821200">
        <ele>2234.0</ele>
        <time>2018-06-23T13:47:11Z</time>
      </trkpt>
      <trkpt lat="40.389017" lon="-4.821200">
        <ele>2231.0</ele>
        <time>2018-06-23T13:47:12Z</time>
      </trkpt>
      <trkpt lat="40.389133" lon="-4.821183">
        <ele>2228.0</ele>
        <time>2018-06-23T13:47:13Z</time>
      </trkpt>
      <trkpt lat="40.389267" lon="-4.821200">
        <ele>2225.0</ele>
        <time>2018-06-23T13:47:14Z</time>
      </trkpt>
      <trkpt lat="40.389400" lon="-4.821200">
        <ele>2223.0</ele>
        <time>2018-06-23T13:47:15Z</time>
      </trkpt>
      <trkpt lat="40.389533" lon="-4.821217">
        <ele>2220.0</ele>
        <time>2018-06-23T13:47:16Z</time>
      </trkpt>
      <trkpt lat="40.389667" lon="-4.821233">
        <ele>2218.0</ele>
        <time>2018-06-23T13:47:17Z</time>
      </trkpt>
      <trkpt lat="40.389800" lon="-4.821233">
        <ele>2215.0</ele>
        <time>2018-06-23T13:47:18Z</time>
      </trkpt>
      <trkpt lat="40.389933" lon="-4.821233">
        <ele>2213.0</ele>
        <time>2018-06-23T13:47:19Z</time>
      </trkpt>
      <trkpt lat="40.390067" lon="-4.821233">
        <ele>2211.0</ele>
        <time>2018-06-23T13:47:20Z</time>
      </trkpt>
      <trkpt lat="40.390200" lon="-4.821233">
        <ele>2208.0</ele>
        <time>2018-06-23T13:47:21Z</time>
      </trkpt>
      <trkpt lat="40.390317" lon="-4.821233">
        <ele>2206.0</ele>
        <time>2018-06-23T13:47:22Z</time>
      </trkpt>
      <trkpt lat="40.390450" lon="-4.821250">
        <ele>2202.0</ele>
        <time>2018-06-23T13:47:23Z</time>
      </trkpt>
      <trkpt lat="40.390583" lon="-4.821250">
        <ele>2199.0</ele>
        <time>2018-06-23T13:47:24Z</time>
      </trkpt>
      <trkpt lat="40.390717" lon="-4.821267">
        <ele>2195.0</ele>
        <time>2018-06-23T13:47:25Z</time>
      </trkpt>
      <trkpt lat="40.390867" lon="-4.821267">
        <ele>2192.0</ele>
        <time>2018-06-23T13:47:26Z</time>
      </trkpt>
      <trkpt lat="40.391000" lon="-4.821267">
        <ele>2190.0</ele>
        <time>2018-06-23T13:47:27Z</time>
      </trkpt>
      <trkpt lat="40.391133" lon="-4.821283">
        <ele>2188.0</ele>
        <time>2018-06-23T13:47:28Z</time>
      </trkpt>
      <trkpt lat="40.391267" lon="-4.821300">
        <ele>2186.0</ele>
        <time>2018-06-23T13:47:29Z</time>
      </trkpt>
      <trkpt lat="40.391400" lon="-4.821333">
        <ele>2184.0</ele>
        <time>2018-06-23T13:47:30Z</time>
      </trkpt>
      <trkpt lat="40.391550" lon="-4.821350">
        <ele>2181.0</ele>
        <time>2018-06-23T13:47:31Z</time>
      </trkpt>
      <trkpt lat="40.391700" lon="-4.821383">
        <ele>2179.0</ele>
        <time>2018-06-23T13:47:32Z</time>
      </trkpt>
      <trkpt lat="40.391850" lon="-4.821383">
        <ele>2178.0</ele>
        <time>2018-06-23T13:47:33Z</time>
      </trkpt>
      <trkpt lat="40.391983" lon="-4.821400">
        <ele>2178.0</ele>
        <time>2018-06-23T13:47:34Z</time>
      </trkpt>
      <trkpt lat="40.392100" lon="-4.821383">
        <ele>2176.0</ele>
        <time>2018-06-23T13:47:35Z</time>
      </trkpt>
      <trkpt lat="40.392217" lon="-4.821383">
        <ele>2174.0</ele>
        <time>2018-06-23T13:47:36Z</time>
      </trkpt>
      <trkpt lat="40.392333" lon="-4.821383">
        <ele>2172.0</ele>
        <time>2018-06-23T13:47:37Z</time>
      </trkpt>
      <trkpt lat="40.392467" lon="-4.821383">
        <ele>2169.0</ele>
        <time>2018-06-23T13:47:38Z</time>
      </trkpt>
      <trkpt lat="40.392600" lon="-4.821400">
        <ele>2166.0</ele>
        <time>2018-06-23T13:47:39Z</time>
      </trkpt>
      <trkpt lat="40.392733" lon="-4.821417">
        <ele>2163.0</ele>
        <time>2018-06-23T13:47:40Z</time>
      </trkpt>
      <trkpt lat="40.392883" lon="-4.821417">
        <ele>2161.0</ele>
        <time>2018-06-23T13:47:41Z</time>
      </trkpt>
      <trkpt lat="40.393000" lon="-4.821417">
        <ele>2161.0</ele>
        <time>2018-06-23T13:47:42Z</time>
      </trkpt>
      <trkpt lat="40.393117" lon="-4.821450">
        <ele>2159.0</ele>
        <time>2018-06-23T13:47:43Z</time>
      </trkpt>
      <trkpt lat="40.393217" lon="-4.821483">
        <ele>2156.0</ele>
        <time>2018-06-23T13:47:44Z</time>
      </trkpt>
      <trkpt lat="40.393317" lon="-4.821533">
        <ele>2153.0</ele>
        <time>2018-06-23T13:47:45Z</time>
      </trkpt>
      <trkpt lat="40.393433" lon="-4.821567">
        <ele>2150.0</ele>
        <time>2018-06-23T13:47:46Z</time>
      </trkpt>
      <trkpt lat="40.393567" lon="-4.821583">
        <ele>2146.0</ele>
        <time>2018-06-23T13:47:47Z</time>
      </trkpt>
      <trkpt lat="40.393700" lon="-4.821600">
        <ele>2143.0</ele>
        <time>2018-06-23T13:47:48Z</time>
      </trkpt>
      <trkpt lat="40.393817" lon="-4.821617">
        <ele>2141.0</ele>
        <time>2018-06-23T13:47:49Z</time>
      </trkpt>
      <trkpt lat="40.393950" lon="-4.821633">
        <ele>2138.0</ele>
        <time>2018-06-23T13:47:50Z</time>
      </trkpt>
      <trkpt lat="40.394083" lon="-4.821667">
        <ele>2135.0</ele>
        <time>2018-06-23T13:47:51Z</time>
      </trkpt>
      <trkpt lat="40.394200" lon="-4.821683">
        <ele>2132.0</ele>
        <time>2018-06-23T13:47:52Z</time>
      </trkpt>
      <trkpt lat="40.394333" lon="-4.821683">
        <ele>2130.0</ele>
        <time>2018-06-23T13:47:53Z</time>
      </trkpt>
      <trkpt lat="40.394450" lon="-4.821700">
        <ele>2128.0</ele>
        <time>2018-06-23T13:47:54Z</time>
      </trkpt>
      <trkpt lat="40.394583" lon="-4.821717">
        <ele>2125.0</ele>
        <time>2018-06-23T13:47:55Z</time>
      </trkpt>
      <trkpt lat="40.394700" lon="-4.821750">
        <ele>2123.0</ele>
        <time>2018-06-23T13:47:56Z</time>
      </trkpt>
      <trkpt lat="40.394817" lon="-4.821783">
        <ele>2121.0</ele>
        <time>2018-06-23T13:47:57Z</time>
      </trkpt>
      <trkpt lat="40.394950" lon="-4.821817">
        <ele>2119.0</ele>
        <time>2018-06-23T13:47:58Z</time>
      </trkpt>
      <trkpt lat="40.395067" lon="-4.821850">
        <ele>2117.0</ele>
        <time>2018-06-23T13:47:59Z</time>
      </trkpt>
      <trkpt lat="40.395183" lon="-4.821867">
        <ele>2114.0</ele>
        <time>2018-06-23T13:48:00Z</time>
      </trkpt>
      <trkpt lat="40.395317" lon="-4.821917">
        <ele>2112.0</ele>
        <time>2018-06-23T13:48:01Z</time>
      </trkpt>
      <trkpt lat="40.395433" lon="-4.821950">
        <ele>2110.0</ele>
        <time>2018-06-23T13:48:02Z</time>
      </trkpt>
      <trkpt lat="40.395567" lon="-4.821967">
        <ele>2107.0</ele>
        <time>2018-06-23T13:48:03Z</time>
      </trkpt>
      <trkpt lat="40.395717" lon="-4.821967">
        <ele>2106.0</ele>
        <time>2018-06-23T13:48:04Z</time>
      </trkpt>
      <trkpt lat="40.395833" lon="-4.821967">
        <ele>2105.0</ele>
        <time>2018-06-23T13:48:05Z</time>
      </trkpt>
      <trkpt lat="40.395950" lon="-4.821967">
        <ele>2104.0</ele>
        <time>2018-06-23T13:48:06Z</time>
      </trkpt>
      <trkpt lat="40.396067" lon="-4.821983">
        <ele>2103.0</ele>
        <time>2018-06-23T13:48:07Z</time>
      </trkpt>
      <trkpt lat="40.396183" lon="-4.822000">
        <ele>2101.0</ele>
        <time>2018-06-23T13:48:08Z</time>
      </trkpt>
      <trkpt lat="40.396300" lon="-4.822033">
        <ele>2098.0</ele>
        <time>2018-06-23T13:48:09Z</time>
      </trkpt>
      <trkpt lat="40.396417" lon="-4.822067">
        <ele>2096.0</ele>
        <time>2018-06-23T13:48:10Z</time>
      </trkpt>
      <trkpt lat="40.396550" lon="-4.822083">
        <ele>2093.0</ele>
        <time>2018-06-23T13:48:11Z</time>
      </trkpt>
      <trkpt lat="40.396683" lon="-4.822100">
        <ele>2092.0</ele>
        <time>2018-06-23T13:48:12Z</time>
      </trkpt>
      <trkpt lat="40.396800" lon="-4.822133">
        <ele>2090.0</ele>
        <time>2018-06-23T13:48:13Z</time>
      </trkpt>
      <trkpt lat="40.396933" lon="-4.822150">
        <ele>2089.0</ele>
        <time>2018-06-23T13:48:14Z</time>
      </trkpt>
      <trkpt lat="40.397050" lon="-4.822183">
        <ele>2087.0</ele>
        <time>2018-06-23T13:48:15Z</time>
      </trkpt>
      <trkpt lat="40.397167" lon="-4.822200">
        <ele>2085.0</ele>
        <time>2018-06-23T13:48:16Z</time>
      </trkpt>
      <trkpt lat="40.397300" lon="-4.822233">
        <ele>2084.0</ele>
        <time>2018-06-23T13:48:17Z</time>
      </trkpt>
      <trkpt lat="40.397417" lon="-4.822283">
        <ele>2082.0</ele>
        <time>2018-06-23T13:48:18Z</time>
      </trkpt>
      <trkpt lat="40.397533" lon="-4.822333">
        <ele>2081.0</ele>
        <time>2018-06-23T13:48:19Z</time>
      </trkpt>
      <trkpt lat="40.397633" lon="-4.822417">
        <ele>2079.0</ele>
        <time>2018-06-23T13:48:20Z</time>
      </trkpt>
      <trkpt lat="40.397733" lon="-4.822500">
        <ele>2077.0</ele>
        <time>2018-06-23T13:48:21Z</time>
      </trkpt>
      <trkpt lat="40.397817" lon="-4.822583">
        <ele>2076.0</ele>
        <time>2018-06-23T13:48:22Z</time>
      </trkpt>
      <trkpt lat="40.397917" lon="-4.822650">
        <ele>2073.0</ele>
        <time>2018-06-23T13:48:23Z</time>
      </trkpt>
      <trkpt lat="40.398017" lon="-4.822733">
        <ele>2070.0</ele>
        <time>2018-06-23T13:48:24Z</time>
      </trkpt>
      <trkpt lat="40.398117" lon="-4.822817">
        <ele>2067.0</ele>
        <time>2018-06-23T13:48:25Z</time>
      </trkpt>
      <trkpt lat="40.398217" lon="-4.822900">
        <ele>2064.0</ele>
        <time>2018-06-23T13:48:26Z</time>
      </trkpt>
      <trkpt lat="40.398317" lon="-4.822983">
        <ele>2061.0</ele>
        <time>2018-06-23T13:48:27Z</time>
      </trkpt>
      <trkpt lat="40.398417" lon="-4.823067">
        <ele>2057.0</ele>
        <time>2018-06-23T13:48:28Z</time>
      </trkpt>
      <trkpt lat="40.398517" lon="-4.823167">
        <ele>2053.0</ele>
        <time>2018-06-23T13:48:29Z</time>
      </trkpt>
      <trkpt lat="40.398600" lon="-4.823267">
        <ele>2050.0</ele>
        <time>2018-06-23T13:48:30Z</time>
      </trkpt>
      <trkpt lat="40.398700" lon="-4.823367">
        <ele>2047.0</ele>
        <time>2018-06-23T13:48:31Z</time>
      </trkpt>
      <trkpt lat="40.398817" lon="-4.823433">
        <ele>2044.0</ele>
        <time>2018-06-23T13:48:32Z</time>
      </trkpt>
      <trkpt lat="40.398917" lon="-4.823500">
        <ele>2040.0</ele>
        <time>2018-06-23T13:48:33Z</time>
      </trkpt>
      <trkpt lat="40.399017" lon="-4.823567">
        <ele>2037.0</ele>
        <time>2018-06-23T13:48:34Z</time>
      </trkpt>
      <trkpt lat="40.399133" lon="-4.823617">
        <ele>2033.0</ele>
        <time>2018-06-23T13:48:35Z</time>
      </trkpt>
      <trkpt lat="40.399250" lon="-4.823667">
        <ele>2029.0</ele>
        <time>2018-06-23T13:48:36Z</time>
      </trkpt>
      <trkpt lat="40.399383" lon="-4.823733">
        <ele>2026.0</ele>
        <time>2018-06-23T13:48:37Z</time>
      </trkpt>
      <trkpt lat="40.399500" lon="-4.823800">
        <ele>2025.0</ele>
        <time>2018-06-23T13:48:38Z</time>
      </trkpt>
      <trkpt lat="40.399600" lon="-4.823883">
        <ele>2023.0</ele>
        <time>2018-06-23T13:48:39Z</time>
      </trkpt>
      <trkpt lat="40.399717" lon="-4.823950">
        <ele>2020.0</ele>
        <time>2018-06-23T13:48:40Z</time>
      </trkpt>
      <trkpt lat="40.399817" lon="-4.824033">
        <ele>2017.0</ele>
        <time>2018-06-23T13:48:41Z</time>
      </trkpt>
      <trkpt lat="40.399917" lon="-4.824100">
        <ele>2013.0</ele>
        <time>2018-06-23T13:48:42Z</time>
      </trkpt>
      <trkpt lat="40.400017" lon="-4.824200">
        <ele>2009.0</ele>
        <time>2018-06-23T13:48:43Z</time>
      </trkpt>
      <trkpt lat="40.400117" lon="-4.824317">
        <ele>2006.0</ele>
        <time>2018-06-23T13:48:44Z</time>
      </trkpt>
      <trkpt lat="40.400217" lon="-4.824433">
        <ele>2003.0</ele>
        <time>2018-06-23T13:48:45Z</time>
      </trkpt>
      <trkpt lat="40.400333" lon="-4.824550">
        <ele>2001.0</ele>
        <time>2018-06-23T13:48:46Z</time>
      </trkpt>
      <trkpt lat="40.400433" lon="-4.824650">
        <ele>1999.0</ele>
        <time>2018-06-23T13:48:47Z</time>
      </trkpt>
      <trkpt lat="40.400550" lon="-4.824733">
        <ele>1997.0</ele>
        <time>2018-06-23T13:48:48Z</time>
      </trkpt>
      <trkpt lat="40.400667" lon="-4.824833">
        <ele>1995.0</ele>
        <time>2018-06-23T13:48:49Z</time>
      </trkpt>
      <trkpt lat="40.400767" lon="-4.824917">
        <ele>1994.0</ele>
        <time>2018-06-23T13:48:50Z</time>
      </trkpt>
      <trkpt lat="40.400867" lon="-4.825017">
        <ele>1992.0</ele>
        <time>2018-06-23T13:48:51Z</time>
      </trkpt>
      <trkpt lat="40.400950" lon="-4.825117">
        <ele>1990.0</ele>
        <time>2018-06-23T13:48:52Z</time>
      </trkpt>
      <trkpt lat="40.401050" lon="-4.825217">
        <ele>1987.0</ele>
        <time>2018-06-23T13:48:53Z</time>
      </trkpt>
      <trkpt lat="40.401150" lon="-4.825317">
        <ele>1985.0</ele>
        <time>2018-06-23T13:48:54Z</time>
      </trkpt>
      <trkpt lat="40.401267" lon="-4.825433">
        <ele>1983.0</ele>
        <time>2018-06-23T13:48:55Z</time>
      </trkpt>
      <trkpt lat="40.401367" lon="-4.825533">
        <ele>1981.0</ele>
        <time>2018-06-23T13:48:56Z</time>
      </trkpt>
      <trkpt lat="40.401483" lon="-4.825633">
        <ele>1980.0</ele>
        <time>2018-06-23T13:48:57Z</time>
      </trkpt>
      <trkpt lat="40.401583" lon="-4.825700">
        <ele>1978.0</ele>
        <time>2018-06-23T13:48:58Z</time>
      </trkpt>
      <trkpt lat="40.401683" lon="-4.825783">
        <ele>1976.0</ele>
        <time>2018-06-23T13:48:59Z</time>
      </trkpt>
      <trkpt lat="40.401800" lon="-4.825850">
        <ele>1973.0</ele>
        <time>2018-06-23T13:49:00Z</time>
      </trkpt>
      <trkpt lat="40.401900" lon="-4.825917">
        <ele>1970.0</ele>
        <time>2018-06-23T13:49:01Z</time>
      </trkpt>
      <trkpt lat="40.402017" lon="-4.826000">
        <ele>1968.0</ele>
        <time>2018-06-23T13:49:02Z</time>
      </trkpt>
      <trkpt lat="40.402133" lon="-4.826050">
        <ele>1966.0</ele>
        <time>2018-06-23T13:49:03Z</time>
      </trkpt>
      <trkpt lat="40.402267" lon="-4.826100">
        <ele>1964.0</ele>
        <time>2018-06-23T13:49:04Z</time>
      </trkpt>
      <trkpt lat="40.402383" lon="-4.826150">
        <ele>1963.0</ele>
        <time>2018-06-23T13:49:05Z</time>
      </trkpt>
      <trkpt lat="40.402500" lon="-4.826217">
        <ele>1961.0</ele>
        <time>2018-06-23T13:49:06Z</time>
      </trkpt>
      <trkpt lat="40.402600" lon="-4.826267">
        <ele>1960.0</ele>
        <time>2018-06-23T13:49:07Z</time>
      </trkpt>
      <trkpt lat="40.402700" lon="-4.826317">
        <ele>1959.0</ele>
        <time>2018-06-23T13:49:08Z</time>
      </trkpt>
      <trkpt lat="40.402817" lon="-4.826383">
        <ele>1958.0</ele>
        <time>2018-06-23T13:49:09Z</time>
      </trkpt>
      <trkpt lat="40.402933" lon="-4.826450">
        <ele>1957.0</ele>
        <time>2018-06-23T13:49:10Z</time>
      </trkpt>
      <trkpt lat="40.403033" lon="-4.826517">
        <ele>1956.0</ele>
        <time>2018-06-23T13:49:11Z</time>
      </trkpt>
      <trkpt lat="40.403117" lon="-4.826583">
        <ele>1957.0</ele>
        <time>2018-06-23T13:49:12Z</time>
      </trkpt>
      <trkpt lat="40.403217" lon="-4.826650">
        <ele>1956.0</ele>
        <time>2018-06-23T13:49:13Z</time>
      </trkpt>
      <trkpt lat="40.403300" lon="-4.826717">
        <ele>1955.0</ele>
        <time>2018-06-23T13:49:14Z</time>
      </trkpt>
      <trkpt lat="40.403400" lon="-4.826783">
        <ele>1953.0</ele>
        <time>2018-06-23T13:49:15Z</time>
      </trkpt>
      <trkpt lat="40.403500" lon="-4.826867">
        <ele>1950.0</ele>
        <time>2018-06-23T13:49:16Z</time>
      </trkpt>
      <trkpt lat="40.403583" lon="-4.826967">
        <ele>1949.0</ele>
        <time>2018-06-23T13:49:17Z</time>
      </trkpt>
      <trkpt lat="40.403667" lon="-4.827050">
        <ele>1947.0</ele>
        <time>2018-06-23T13:49:18Z</time>
      </trkpt>
      <trkpt lat="40.403767" lon="-4.827133">
        <ele>1946.0</ele>
        <time>2018-06-23T13:49:19Z</time>
      </trkpt>
      <trkpt lat="40.403850" lon="-4.827217">
        <ele>1945.0</ele>
        <time>2018-06-23T13:49:20Z</time>
      </trkpt>
      <trkpt lat="40.403950" lon="-4.827300">
        <ele>1944.0</ele>
        <time>2018-06-23T13:49:21Z</time>
      </trkpt>
      <trkpt lat="40.404033" lon="-4.827383">
        <ele>1942.0</ele>
        <time>2018-06-23T13:49:22Z</time>
      </trkpt>
      <trkpt lat="40.404117" lon="-4.827467">
        <ele>1941.0</ele>
        <time>2018-06-23T13:49:23Z</time>
      </trkpt>
      <trkpt lat="40.404217" lon="-4.827567">
        <ele>1939.0</ele>
        <time>2018-06-23T13:49:24Z</time>
      </trkpt>
      <trkpt lat="40.404317" lon="-4.827650">
        <ele>1938.0</ele>
        <time>2018-06-23T13:49:25Z</time>
      </trkpt>
      <trkpt lat="40.404417" lon="-4.827733">
        <ele>1936.0</ele>
        <time>2018-06-23T13:49:26Z</time>
      </trkpt>
      <trkpt lat="40.404517" lon="-4.827817">
        <ele>1934.0</ele>
        <time>2018-06-23T13:49:27Z</time>
      </trkpt>
      <trkpt lat="40.404617" lon="-4.827883">
        <ele>1932.0</ele>
        <time>2018-06-23T13:49:28Z</time>
      </trkpt>
      <trkpt lat="40.404717" lon="-4.827950">
        <ele>1930.0</ele>
        <time>2018-06-23T13:49:29Z</time>
      </trkpt>
      <trkpt lat="40.404833" lon="-4.828017">
        <ele>1927.0</ele>
        <time>2018-06-23T13:49:30Z</time>
      </trkpt>
      <trkpt lat="40.404950" lon="-4.828083">
        <ele>1925.0</ele>
        <time>2018-06-23T13:49:31Z</time>
      </trkpt>
      <trkpt lat="40.405083" lon="-4.828133">
        <ele>1922.0</ele>
        <time>2018-06-23T13:49:32Z</time>
      </trkpt>
      <trkpt lat="40.405200" lon="-4.828183">
        <ele>1920.0</ele>
        <time>2018-06-23T13:49:33Z</time>
      </trkpt>
      <trkpt lat="40.405317" lon="-4.828233">
        <ele>1918.0</ele>
        <time>2018-06-23T13:49:34Z</time>
      </trkpt>
      <trkpt lat="40.405433" lon="-4.828283">
        <ele>1916.0</ele>
        <time>2018-06-23T13:49:35Z</time>
      </trkpt>
      <trkpt lat="40.405550" lon="-4.828333">
        <ele>1912.0</ele>
        <time>2018-06-23T13:49:36Z</time>
      </trkpt>
      <trkpt lat="40.405667" lon="-4.828383">
        <ele>1908.0</ele>
        <time>2018-06-23T13:49:37Z</time>
      </trkpt>
      <trkpt lat="40.405783" lon="-4.828433">
        <ele>1905.0</ele>
        <time>2018-06-23T13:49:38Z</time>
      </trkpt>
      <trkpt lat="40.405917" lon="-4.828483">
        <ele>1902.0</ele>
        <time>2018-06-23T13:49:39Z</time>
      </trkpt>
      <trkpt lat="40.406050" lon="-4.828533">
        <ele>1899.0</ele>
        <time>2018-06-23T13:49:40Z</time>
      </trkpt>
      <trkpt lat="40.406167" lon="-4.828567">
        <ele>1896.0</ele>
        <time>2018-06-23T13:49:41Z</time>
      </trkpt>
      <trkpt lat="40.406283" lon="-4.828600">
        <ele>1894.0</ele>
        <time>2018-06-23T13:49:42Z</time>
      </trkpt>
      <trkpt lat="40.406400" lon="-4.828617">
        <ele>1891.0</ele>
        <time>2018-06-23T13:49:43Z</time>
      </trkpt>
      <trkpt lat="40.406533" lon="-4.828633">
        <ele>1889.0</ele>
        <time>2018-06-23T13:49:44Z</time>
      </trkpt>
      <trkpt lat="40.406667" lon="-4.828650">
        <ele>1886.0</ele>
        <time>2018-06-23T13:49:45Z</time>
      </trkpt>
      <trkpt lat="40.406800" lon="-4.828667">
        <ele>1884.0</ele>
        <time>2018-06-23T13:49:46Z</time>
      </trkpt>
      <trkpt lat="40.406917" lon="-4.828683">
        <ele>1883.0</ele>
        <time>2018-06-23T13:49:47Z</time>
      </trkpt>
      <trkpt lat="40.407033" lon="-4.828717">
        <ele>1882.0</ele>
        <time>2018-06-23T13:49:48Z</time>
      </trkpt>
      <trkpt lat="40.407150" lon="-4.828733">
        <ele>1881.0</ele>
        <time>2018-06-23T13:49:49Z</time>
      </trkpt>
      <trkpt lat="40.407283" lon="-4.828767">
        <ele>1879.0</ele>
        <time>2018-06-23T13:49:50Z</time>
      </trkpt>
      <trkpt lat="40.407400" lon="-4.828800">
        <ele>1878.0</ele>
        <time>2018-06-23T13:49:51Z</time>
      </trkpt>
      <trkpt lat="40.407517" lon="-4.828833">
        <ele>1877.0</ele>
        <time>2018-06-23T13:49:52Z</time>
      </trkpt>
      <trkpt lat="40.407650" lon="-4.828850">
        <ele>1876.0</ele>
        <time>2018-06-23T13:49:53Z</time>
      </trkpt>
      <trkpt lat="40.407767" lon="-4.828883">
        <ele>1876.0</ele>
        <time>2018-06-23T13:49:54Z</time>
      </trkpt>
      <trkpt lat="40.407883" lon="-4.828900">
        <ele>1875.0</ele>
        <time>2018-06-23T13:49:55Z</time>
      </trkpt>
      <trkpt lat="40.408000" lon="-4.828933">
        <ele>1874.0</ele>
        <time>2018-06-23T13:49:56Z</time>
      </trkpt>
      <trkpt lat="40.408117" lon="-4.828967">
        <ele>1872.0</ele>
        <time>2018-06-23T13:49:57Z</time>
      </trkpt>
      <trkpt lat="40.408233" lon="-4.829000">
        <ele>1870.0</ele>
        <time>2018-06-23T13:49:58Z</time>
      </trkpt>
      <trkpt lat="40.408350" lon="-4.829050">
        <ele>1868.0</ele>
        <time>2018-06-23T13:49:59Z</time>
      </trkpt>
      <trkpt lat="40.408483" lon="-4.829083">
        <ele>1867.0</ele>
        <time>2018-06-23T13:50:00Z</time>
      </trkpt>
      <trkpt lat="40.408600" lon="-4.829117">
        <ele>1866.0</ele>
        <time>2018-06-23T13:50:01Z</time>
      </trkpt>
      <trkpt lat="40.408717" lon="-4.829150">
        <ele>1864.0</ele>
        <time>2018-06-23T13:50:02Z</time>
      </trkpt>
      <trkpt lat="40.408833" lon="-4.829200">
        <ele>1863.0</ele>
        <time>2018-06-23T13:50:03Z</time>
      </trkpt>
      <trkpt lat="40.408950" lon="-4.829250">
        <ele>1860.0</ele>
        <time>2018-06-23T13:50:04Z</time>
      </trkpt>
      <trkpt lat="40.409067" lon="-4.829300">
        <ele>1859.0</ele>
        <time>2018-06-23T13:50:05Z</time>
      </trkpt>
      <trkpt lat="40.409200" lon="-4.829367">
        <ele>1857.0</ele>
        <time>2018-06-23T13:50:06Z</time>
      </trkpt>
      <trkpt lat="40.409333" lon="-4.829433">
        <ele>1855.0</ele>
        <time>2018-06-23T13:50:07Z</time>
      </trkpt>
      <trkpt lat="40.409467" lon="-4.829500">
        <ele>1855.0</ele>
        <time>2018-06-23T13:50:08Z</time>
      </trkpt>
      <trkpt lat="40.409600" lon="-4.829550">
        <ele>1854.0</ele>
        <time>2018-06-23T13:50:09Z</time>
      </trkpt>
      <trkpt lat="40.409717" lon="-4.829617">
        <ele>1853.0</ele>
        <time>2018-06-23T13:50:10Z</time>
      </trkpt>
      <trkpt lat="40.409833" lon="-4.829667">
        <ele>1851.0</ele>
        <time>2018-06-23T13:50:11Z</time>
      </trkpt>
      <trkpt lat="40.409950" lon="-4.829717">
        <ele>1850.0</ele>
        <time>2018-06-23T13:50:12Z</time>
      </trkpt>
      <trkpt lat="40.410067" lon="-4.829783">
        <ele>1850.0</ele>
        <time>2018-06-23T13:50:13Z</time>
      </trkpt>
      <trkpt lat="40.410183" lon="-4.829833">
        <ele>1849.0</ele>
        <time>2018-06-23T13:50:14Z</time>
      </trkpt>
      <trkpt lat="40.410300" lon="-4.829883">
        <ele>1847.0</ele>
        <time>2018-06-23T13:50:15Z</time>
      </trkpt>
      <trkpt lat="40.410400" lon="-4.829933">
        <ele>1845.0</ele>
        <time>2018-06-23T13:50:16Z</time>
      </trkpt>
      <trkpt lat="40.410533" lon="-4.829983">
        <ele>1843.0</ele>
        <time>2018-06-23T13:50:17Z</time>
      </trkpt>
      <trkpt lat="40.410650" lon="-4.830017">
        <ele>1840.0</ele>
        <time>2018-06-23T13:50:18Z</time>
      </trkpt>
      <trkpt lat="40.410783" lon="-4.830050">
        <ele>1838.0</ele>
        <time>2018-06-23T13:50:19Z</time>
      </trkpt>
      <trkpt lat="40.410917" lon="-4.830100">
        <ele>1836.0</ele>
        <time>2018-06-23T13:50:20Z</time>
      </trkpt>
      <trkpt lat="40.411033" lon="-4.830150">
        <ele>1833.0</ele>
        <time>2018-06-23T13:50:21Z</time>
      </trkpt>
      <trkpt lat="40.411150" lon="-4.830200">
        <ele>1832.0</ele>
        <time>2018-06-23T13:50:22Z</time>
      </trkpt>
      <trkpt lat="40.411267" lon="-4.830250">
        <ele>1829.0</ele>
        <time>2018-06-23T13:50:23Z</time>
      </trkpt>
      <trkpt lat="40.411383" lon="-4.830300">
        <ele>1825.0</ele>
        <time>2018-06-23T13:50:24Z</time>
      </trkpt>
      <trkpt lat="40.411500" lon="-4.830350">
        <ele>1822.0</ele>
        <time>2018-06-23T13:50:25Z</time>
      </trkpt>
      <trkpt lat="40.411617" lon="-4.830400">
        <ele>1819.0</ele>
        <time>2018-06-23T13:50:26Z</time>
      </trkpt>
      <trkpt lat="40.411767" lon="-4.830467">
        <ele>1814.0</ele>
        <time>2018-06-23T13:50:27Z</time>
      </trkpt>
      <trkpt lat="40.411900" lon="-4.830533">
        <ele>1810.0</ele>
        <time>2018-06-23T13:50:28Z</time>
      </trkpt>
      <trkpt lat="40.412033" lon="-4.830600">
        <ele>1806.0</ele>
        <time>2018-06-23T13:50:29Z</time>
      </trkpt>
      <trkpt lat="40.412150" lon="-4.830683">
        <ele>1802.0</ele>
        <time>2018-06-23T13:50:30Z</time>
      </trkpt>
      <trkpt lat="40.412267" lon="-4.830767">
        <ele>1799.0</ele>
        <time>2018-06-23T13:50:31Z</time>
      </trkpt>
      <trkpt lat="40.412383" lon="-4.830867">
        <ele>1796.0</ele>
        <time>2018-06-23T13:50:32Z</time>
      </trkpt>
      <trkpt lat="40.412500" lon="-4.830967">
        <ele>1792.0</ele>
        <time>2018-06-23T13:50:33Z</time>
      </trkpt>
      <trkpt lat="40.412633" lon="-4.831050">
        <ele>1789.0</ele>
        <time>2018-06-23T13:50:34Z</time>
      </trkpt>
      <trkpt lat="40.412750" lon="-4.831133">
        <ele>1786.0</ele>
        <time>2018-06-23T13:50:35Z</time>
      </trkpt>
      <trkpt lat="40.412883" lon="-4.831233">
        <ele>1783.0</ele>
        <time>2018-06-23T13:50:36Z</time>
      </trkpt>
      <trkpt lat="40.413000" lon="-4.831300">
        <ele>1780.0</ele>
        <time>2018-06-23T13:50:37Z</time>
      </trkpt>
      <trkpt lat="40.413100" lon="-4.831383">
        <ele>1777.0</ele>
        <time>2018-06-23T13:50:38Z</time>
      </trkpt>
      <trkpt lat="40.413217" lon="-4.831450">
        <ele>1774.0</ele>
        <time>2018-06-23T13:50:39Z</time>
      </trkpt>
      <trkpt lat="40.413317" lon="-4.831500">
        <ele>1770.0</ele>
        <time>2018-06-23T13:50:40Z</time>
      </trkpt>
      <trkpt lat="40.413433" lon="-4.831567">
        <ele>1766.0</ele>
        <time>2018-06-23T13:50:41Z</time>
      </trkpt>
      <trkpt lat="40.413533" lon="-4.831650">
        <ele>1763.0</ele>
        <time>2018-06-23T13:50:42Z</time>
      </trkpt>
      <trkpt lat="40.413633" lon="-4.831733">
        <ele>1760.0</ele>
        <time>2018-06-23T13:50:43Z</time>
      </trkpt>
      <trkpt lat="40.413733" lon="-4.831833">
        <ele>1757.0</ele>
        <time>2018-06-23T13:50:44Z</time>
      </trkpt>
      <trkpt lat="40.413817" lon="-4.831917">
        <ele>1754.0</ele>
        <time>2018-06-23T13:50:45Z</time>
      </trkpt>
      <trkpt lat="40.413883" lon="-4.832017">
        <ele>1751.0</ele>
        <time>2018-06-23T13:50:46Z</time>
      </trkpt>
      <trkpt lat="40.413967" lon="-4.832100">
        <ele>1748.0</ele>
        <time>2018-06-23T13:50:47Z</time>
      </trkpt>
      <trkpt lat="40.414050" lon="-4.832200">
        <ele>1744.0</ele>
        <time>2018-06-23T13:50:48Z</time>
      </trkpt>
      <trkpt lat="40.414133" lon="-4.832300">
        <ele>1741.0</ele>
        <time>2018-06-23T13:50:49Z</time>
      </trkpt>
      <trkpt lat="40.414233" lon="-4.832417">
        <ele>1738.0</ele>
        <time>2018-06-23T13:50:50Z</time>
      </trkpt>
      <trkpt lat="40.414317" lon="-4.832517">
        <ele>1735.0</ele>
        <time>2018-06-23T13:50:51Z</time>
      </trkpt>
      <trkpt lat="40.414417" lon="-4.832600">
        <ele>1732.0</ele>
        <time>2018-06-23T13:50:52Z</time>
      </trkpt>
      <trkpt lat="40.414500" lon="-4.832683">
        <ele>1730.0</ele>
        <time>2018-06-23T13:50:53Z</time>
      </trkpt>
      <trkpt lat="40.414583" lon="-4.832750">
        <ele>1727.0</ele>
        <time>2018-06-23T13:50:54Z</time>
      </trkpt>
      <trkpt lat="40.414667" lon="-4.832833">
        <ele>1723.0</ele>
        <time>2018-06-23T13:50:55Z</time>
      </trkpt>
      <trkpt lat="40.414750" lon="-4.832933">
        <ele>1719.0</ele>
        <time>2018-06-23T13:50:56Z</time>
      </trkpt>
      <trkpt lat="40.414833" lon="-4.833050">
        <ele>1713.0</ele>
        <time>2018-06-23T13:50:57Z</time>
      </trkpt>
      <trkpt lat="40.414917" lon="-4.833167">
        <ele>1708.0</ele>
        <time>2018-06-23T13:50:58Z</time>
      </trkpt>
      <trkpt lat="40.415000" lon="-4.833317">
        <ele>1703.0</ele>
        <time>2018-06-23T13:50:59Z</time>
      </trkpt>
      <trkpt lat="40.415083" lon="-4.833467">
        <ele>1700.0</ele>
        <time>2018-06-23T13:51:00Z</time>
      </trkpt>
      <trkpt lat="40.415167" lon="-4.833600">
        <ele>1696.0</ele>
        <time>2018-06-23T13:51:01Z</time>
      </trkpt>
      <trkpt lat="40.415233" lon="-4.833733">
        <ele>1694.0</ele>
        <time>2018-06-23T13:51:02Z</time>
      </trkpt>
      <trkpt lat="40.415300" lon="-4.833867">
        <ele>1691.0</ele>
        <time>2018-06-23T13:51:03Z</time>
      </trkpt>
      <trkpt lat="40.415367" lon="-4.834000">
        <ele>1688.0</ele>
        <time>2018-06-23T13:51:04Z</time>
      </trkpt>
      <trkpt lat="40.415433" lon="-4.834150">
        <ele>1685.0</ele>
        <time>2018-06-23T13:51:05Z</time>
      </trkpt>
      <trkpt lat="40.415500" lon="-4.834283">
        <ele>1682.0</ele>
        <time>2018-06-23T13:51:06Z</time>
      </trkpt>
      <trkpt lat="40.415567" lon="-4.834433">
        <ele>1680.0</ele>
        <time>2018-06-23T13:51:07Z</time>
      </trkpt>
      <trkpt lat="40.415650" lon="-4.834567">
        <ele>1678.0</ele>
        <time>2018-06-23T13:51:08Z</time>
      </trkpt>
      <trkpt lat="40.415717" lon="-4.834700">
        <ele>1676.0</ele>
        <time>2018-06-23T13:51:09Z</time>
      </trkpt>
      <trkpt lat="40.415800" lon="-4.834850">
        <ele>1674.0</ele>
        <time>2018-06-23T13:51:10Z</time>
      </trkpt>
      <trkpt lat="40.415867" lon="-4.835000">
        <ele>1672.0</ele>
        <time>2018-06-23T13:51:11Z</time>
      </trkpt>
      <trkpt lat="40.415933" lon="-4.835167">
        <ele>1671.0</ele>
        <time>2018-06-23T13:51:12Z</time>
      </trkpt>
      <trkpt lat="40.415983" lon="-4.835317">
        <ele>1672.0</ele>
        <time>2018-06-23T13:51:13Z</time>
      </trkpt>
      <trkpt lat="40.416033" lon="-4.835467">
        <ele>1674.0</ele>
        <time>2018-06-23T13:51:14Z</time>
      </trkpt>
      <trkpt lat="40.416067" lon="-4.835600">
        <ele>1676.0</ele>
        <time>2018-06-23T13:51:15Z</time>
      </trkpt>
      <trkpt lat="40.416117" lon="-4.835733">
        <ele>1677.0</ele>
        <time>2018-06-23T13:51:16Z</time>
      </trkpt>
      <trkpt lat="40.416150" lon="-4.835867">
        <ele>1679.0</ele>
        <time>2018-06-23T13:51:17Z</time>
      </trkpt>
      <trkpt lat="40.416183" lon="-4.836033">
        <ele>1681.0</ele>
        <time>2018-06-23T13:51:18Z</time>
      </trkpt>
      <trkpt lat="40.416200" lon="-4.836167">
        <ele>1683.0</ele>
        <time>2018-06-23T13:51:19Z</time>
      </trkpt>
      <trkpt lat="40.416167" lon="-4.836300">
        <ele>1685.0</ele>
        <time>2018-06-23T13:51:20Z</time>
      </trkpt>
      <trkpt lat="40.416100" lon="-4.836400">
        <ele>1687.0</ele>
        <time>2018-06-23T13:51:21Z</time>
      </trkpt>
      <trkpt lat="40.416017" lon="-4.836467">
        <ele>1691.0</ele>
        <time>2018-06-23T13:51:22Z</time>
      </trkpt>
      <trkpt lat="40.415950" lon="-4.836483">
        <ele>1698.0</ele>
        <time>2018-06-23T13:51:23Z</time>
      </trkpt>
      <trkpt lat="40.415900" lon="-4.836483">
        <ele>1704.0</ele>
        <time>2018-06-23T13:51:24Z</time>
      </trkpt>
      <trkpt lat="40.415850" lon="-4.836467">
        <ele>1708.0</ele>
        <time>2018-06-23T13:51:25Z</time>
      </trkpt>
      <trkpt lat="40.415817" lon="-4.836433">
        <ele>1710.0</ele>
        <time>2018-06-23T13:51:26Z</time>
      </trkpt>
      <trkpt lat="40.415800" lon="-4.836367">
        <ele>1710.0</ele>
        <time>2018-06-23T13:51:27Z</time>
      </trkpt>
      <trkpt lat="40.415817" lon="-4.836267">
        <ele>1712.0</ele>
        <time>2018-06-23T13:51:28Z</time>
      </trkpt>
      <trkpt lat="40.415850" lon="-4.836183">
        <ele>1712.0</ele>
        <time>2018-06-23T13:51:29Z</time>
      </trkpt>
      <trkpt lat="40.415917" lon="-4.836117">
        <ele>1714.0</ele>
        <time>2018-06-23T13:51:30Z</time>
      </trkpt>
      <trkpt lat="40.416000" lon="-4.836100">
        <ele>1714.0</ele>
        <time>2018-06-23T13:51:31Z</time>
      </trkpt>
      <trkpt lat="40.416100" lon="-4.836133">
        <ele>1715.0</ele>
        <time>2018-06-23T13:51:32Z</time>
      </trkpt>
      <trkpt lat="40.416183" lon="-4.836183">
        <ele>1718.0</ele>
        <time>2018-06-23T13:51:33Z</time>
      </trkpt>
      <trkpt lat="40.416267" lon="-4.836250">
        <ele>1722.0</ele>
        <time>2018-06-23T13:51:34Z</time>
      </trkpt>
      <trkpt lat="40.416333" lon="-4.836300">
        <ele>1728.0</ele>
        <time>2018-06-23T13:51:35Z</time>
      </trkpt>
      <trkpt lat="40.416417" lon="-4.836367">
        <ele>1732.0</ele>
        <time>2018-06-23T13:51:36Z</time>
      </trkpt>
      <trkpt lat="40.416483" lon="-4.836450">
        <ele>1736.0</ele>
        <time>2018-06-23T13:51:37Z</time>
      </trkpt>
      <trkpt lat="40.416550" lon="-4.836550">
        <ele>1740.0</ele>
        <time>2018-06-23T13:51:38Z</time>
      </trkpt>
      <trkpt lat="40.416600" lon="-4.836683">
        <ele>1742.0</ele>
        <time>2018-06-23T13:51:39Z</time>
      </trkpt>
      <trkpt lat="40.416583" lon="-4.836850">
        <ele>1744.0</ele>
        <time>2018-06-23T13:51:40Z</time>
      </trkpt>
      <trkpt lat="40.416533" lon="-4.837017">
        <ele>1744.0</ele>
        <time>2018-06-23T13:51:41Z</time>
      </trkpt>
      <trkpt lat="40.416450" lon="-4.837150">
        <ele>1746.0</ele>
        <time>2018-06-23T13:51:42Z</time>
      </trkpt>
      <trkpt lat="40.416383" lon="-4.837250">
        <ele>1751.0</ele>
        <time>2018-06-23T13:51:43Z</time>
      </trkpt>
      <trkpt lat="40.416317" lon="-4.837283">
        <ele>1756.0</ele>
        <time>2018-06-23T13:51:44Z</time>
      </trkpt>
      <trkpt lat="40.416267" lon="-4.837300">
        <ele>1759.0</ele>
        <time>2018-06-23T13:51:45Z</time>
      </trkpt>
      <trkpt lat="40.416217" lon="-4.837267">
        <ele>1761.0</ele>
        <time>2018-06-23T13:51:46Z</time>
      </trkpt>
      <trkpt lat="40.416150" lon="-4.837200">
        <ele>1765.0</ele>
        <time>2018-06-23T13:51:47Z</time>
      </trkpt>
      <trkpt lat="40.416100" lon="-4.837117">
        <ele>1768.0</ele>
        <time>2018-06-23T13:51:48Z</time>
      </trkpt>
      <trkpt lat="40.416067" lon="-4.837000">
        <ele>1771.0</ele>
        <time>2018-06-23T13:51:49Z</time>
      </trkpt>
      <trkpt lat="40.416067" lon="-4.836900">
        <ele>1773.0</ele>
        <time>2018-06-23T13:51:50Z</time>
      </trkpt>
      <trkpt lat="40.416100" lon="-4.836800">
        <ele>1775.0</ele>
        <time>2018-06-23T13:51:51Z</time>
      </trkpt>
      <trkpt lat="40.416167" lon="-4.836717">
        <ele>1776.0</ele>
        <time>2018-06-23T13:51:52Z</time>
      </trkpt>
      <trkpt lat="40.416267" lon="-4.836717">
        <ele>1778.0</ele>
        <time>2018-06-23T13:51:53Z</time>
      </trkpt>
      <trkpt lat="40.416350" lon="-4.836733">
        <ele>1781.0</ele>
        <time>2018-06-23T13:51:54Z</time>
      </trkpt>
      <trkpt lat="40.416417" lon="-4.836783">
        <ele>1784.0</ele>
        <time>2018-06-23T13:51:55Z</time>
      </trkpt>
      <trkpt lat="40.416500" lon="-4.836850">
        <ele>1787.0</ele>
        <time>2018-06-23T13:51:56Z</time>
      </trkpt>
      <trkpt lat="40.416550" lon="-4.836917">
        <ele>1789.0</ele>
        <time>2018-06-23T13:51:57Z</time>
      </trkpt>
      <trkpt lat="40.416600" lon="-4.837033">
        <ele>1790.0</ele>
        <time>2018-06-23T13:51:58Z</time>
      </trkpt>
      <trkpt lat="40.416617" lon="-4.837150">
        <ele>1791.0</ele>
        <time>2018-06-23T13:51:59Z</time>
      </trkpt>
      <trkpt lat="40.416583" lon="-4.837283">
        <ele>1793.0</ele>
        <time>2018-06-23T13:52:00Z</time>
      </trkpt>
      <trkpt lat="40.416517" lon="-4.837383">
        <ele>1795.0</ele>
        <time>2018-06-23T13:52:01Z</time>
      </trkpt>
      <trkpt lat="40.416400" lon="-4.837450">
        <ele>1799.0</ele>
        <time>2018-06-23T13:52:02Z</time>
      </trkpt>
      <trkpt lat="40.416317" lon="-4.837467">
        <ele>1806.0</ele>
        <time>2018-06-23T13:52:03Z</time>
      </trkpt>
      <trkpt lat="40.416250" lon="-4.837450">
        <ele>1813.0</ele>
        <time>2018-06-23T13:52:04Z</time>
      </trkpt>
      <trkpt lat="40.416200" lon="-4.837417">
        <ele>1819.0</ele>
        <time>2018-06-23T13:52:05Z</time>
      </trkpt>
      <trkpt lat="40.416150" lon="-4.837367">
        <ele>1824.0</ele>
        <time>2018-06-23T13:52:06Z</time>
      </trkpt>
      <trkpt lat="40.416100" lon="-4.837300">
        <ele>1827.0</ele>
        <time>2018-06-23T13:52:07Z</time>
      </trkpt>
      <trkpt lat="40.416050" lon="-4.837217">
        <ele>1831.0</ele>
        <time>2018-06-23T13:52:08Z</time>
      </trkpt>
      <trkpt lat="40.416017" lon="-4.837117">
        <ele>1834.0</ele>
        <time>2018-06-23T13:52:09Z</time>
      </trkpt>
      <trkpt lat="40.416000" lon="-4.836983">
        <ele>1834.0</ele>
        <time>2018-06-23T13:52:10Z</time>
      </trkpt>
      <trkpt lat="40.416000" lon="-4.836883">
        <ele>1835.0</ele>
        <time>2018-06-23T13:52:11Z</time>
      </trkpt>
      <trkpt lat="40.416033" lon="-4.836767">
        <ele>1835.0</ele>
        <time>2018-06-23T13:52:12Z</time>
      </trkpt>
      <trkpt lat="40.416100" lon="-4.836700">
        <ele>1836.0</ele>
        <time>2018-06-23T13:52:13Z</time>
      </trkpt>
      <trkpt lat="40.416200" lon="-4.836683">
        <ele>1838.0</ele>
        <time>2018-06-23T13:52:14Z</time>
      </trkpt>
      <trkpt lat="40.416333" lon="-4.836717">
        <ele>1841.0</ele>
        <time>2018-06-23T13:52:15Z</time>
      </trkpt>
      <trkpt lat="40.416417" lon="-4.836800">
        <ele>1844.0</ele>
        <time>2018-06-23T13:52:16Z</time>
      </trkpt>
      <trkpt lat="40.416467" lon="-4.836917">
        <ele>1848.0</ele>
        <time>2018-06-23T13:52:17Z</time>
      </trkpt>
      <trkpt lat="40.416500" lon="-4.837033">
        <ele>1854.0</ele>
        <time>2018-06-23T13:52:18Z</time>
      </trkpt>
      <trkpt lat="40.416517" lon="-4.837183">
        <ele>1858.0</ele>
        <time>2018-06-23T13:52:19Z</time>
      </trkpt>
      <trkpt lat="40.416500" lon="-4.837333">
        <ele>1862.0</ele>
        <time>2018-06-23T13:52:20Z</time>
      </trkpt>
      <trkpt lat="40.416500" lon="-4.837483">
        <ele>1865.0</ele>
        <time>2018-06-23T13:52:21Z</time>
      </trkpt>
      <trkpt lat="40.416483" lon="-4.837617">
        <ele>1869.0</ele>
        <time>2018-06-23T13:52:22Z</time>
      </trkpt>
      <trkpt lat="40.416467" lon="-4.837767">
        <ele>1873.0</ele>
        <time>2018-06-23T13:52:23Z</time>
      </trkpt>
      <trkpt lat="40.416433" lon="-4.837883">
        <ele>1877.0</ele>
        <time>2018-06-23T13:52:24Z</time>
      </trkpt>
      <trkpt lat="40.416400" lon="-4.838000">
        <ele>1880.0</ele>
        <time>2018-06-23T13:52:25Z</time>
      </trkpt>
      <trkpt lat="40.416367" lon="-4.838117">
        <ele>1882.0</ele>
        <time>2018-06-23T13:52:26Z</time>
      </trkpt>
      <trkpt lat="40.416300" lon="-4.838217">
        <ele>1883.0</ele>
        <time>2018-06-23T13:52:27Z</time>
      </trkpt>
      <trkpt lat="40.416250" lon="-4.838300">
        <ele>1883.0</ele>
        <time>2018-06-23T13:52:28Z</time>
      </trkpt>
      <trkpt lat="40.416167" lon="-4.838350">
        <ele>1884.0</ele>
        <time>2018-06-23T13:52:29Z</time>
      </trkpt>
      <trkpt lat="40.416100" lon="-4.838350">
        <ele>1884.0</ele>
        <time>2018-06-23T13:52:30Z</time>
      </trkpt>
      <trkpt lat="40.416033" lon="-4.838317">
        <ele>1885.0</ele>
        <time>2018-06-23T13:52:31Z</time>
      </trkpt>
      <trkpt lat="40.415983" lon="-4.838217">
        <ele>1886.0</ele>
        <time>2018-06-23T13:52:32Z</time>
      </trkpt>
      <trkpt lat="40.415983" lon="-4.838050">
        <ele>1887.0</ele>
        <time>2018-06-23T13:52:33Z</time>
      </trkpt>
      <trkpt lat="40.416000" lon="-4.837917">
        <ele>1889.0</ele>
        <time>2018-06-23T13:52:34Z</time>
      </trkpt>
      <trkpt lat="40.416033" lon="-4.837817">
        <ele>1892.0</ele>
        <time>2018-06-23T13:52:35Z</time>
      </trkpt>
      <trkpt lat="40.416100" lon="-4.837733">
        <ele>1895.0</ele>
        <time>2018-06-23T13:52:36Z</time>
      </trkpt>
      <trkpt lat="40.416200" lon="-4.837683">
        <ele>1899.0</ele>
        <time>2018-06-23T13:52:37Z</time>
      </trkpt>
      <trkpt lat="40.416317" lon="-4.837683">
        <ele>1902.0</ele>
        <time>2018-06-23T13:52:38Z</time>
      </trkpt>
      <trkpt lat="40.416450" lon="-4.837717">
        <ele>1904.0</ele>
        <time>2018-06-23T13:52:39Z</time>
      </trkpt>
      <trkpt lat="40.416550" lon="-4.837800">
        <ele>1906.0</ele>
        <time>2018-06-23T13:52:40Z</time>
      </trkpt>
      <trkpt lat="40.416633" lon="-4.837917">
        <ele>1908.0</ele>
        <time>2018-06-23T13:52:41Z</time>
      </trkpt>
      <trkpt lat="40.416667" lon="-4.838050">
        <ele>1908.0</ele>
        <time>2018-06-23T13:52:42Z</time>
      </trkpt>
      <trkpt lat="40.416633" lon="-4.838200">
        <ele>1912.0</ele>
        <time>2018-06-23T13:52:43Z</time>
      </trkpt>
      <trkpt lat="40.416600" lon="-4.838300">
        <ele>1917.0</ele>
        <time>2018-06-23T13:52:44Z</time>
      </trkpt>
      <trkpt lat="40.416567" lon="-4.838383">
        <ele>1920.0</ele>
        <time>2018-06-23T13:52:45Z</time>
      </trkpt>
      <trkpt lat="40.416517" lon="-4.838433">
        <ele>1921.0</ele>
        <time>2018-06-23T13:52:46Z</time>
      </trkpt>
      <trkpt lat="40.416467" lon="-4.838450">
        <ele>1921.0</ele>
        <time>2018-06-23T13:52:47Z</time>
      </trkpt>
      <trkpt lat="40.416400" lon="-4.838433">
        <ele>1922.0</ele>
        <time>2018-06-23T13:52:48Z</time>
      </trkpt>
      <trkpt lat="40.416317" lon="-4.838400">
        <ele>1923.0</ele>
        <time>2018-06-23T13:52:49Z</time>
      </trkpt>
      <trkpt lat="40.416217" lon="-4.838333">
        <ele>1923.0</ele>
        <time>2018-06-23T13:52:50Z</time>
      </trkpt>
      <trkpt lat="40.416133" lon="-4.838233">
        <ele>1925.0</ele>
        <time>2018-06-23T13:52:51Z</time>
      </trkpt>
      <trkpt lat="40.416100" lon="-4.838117">
        <ele>1928.0</ele>
        <time>2018-06-23T13:52:52Z</time>
      </trkpt>
      <trkpt lat="40.416083" lon="-4.838017">
        <ele>1930.0</ele>
        <time>2018-06-23T13:52:53Z</time>
      </trkpt>
      <trkpt lat="40.416083" lon="-4.837917">
        <ele>1931.0</ele>
        <time>2018-06-23T13:52:54Z</time>
      </trkpt>
      <trkpt lat="40.416117" lon="-4.837833">
        <ele>1933.0</ele>
        <time>2018-06-23T13:52:55Z</time>
      </trkpt>
      <trkpt lat="40.416150" lon="-4.837750">
        <ele>1935.0</ele>
        <time>2018-06-23T13:52:56Z</time>
      </trkpt>
      <trkpt lat="40.416217" lon="-4.837683">
        <ele>1936.0</ele>
        <time>2018-06-23T13:52:57Z</time>
      </trkpt>
      <trkpt lat="40.416300" lon="-4.837700">
        <ele>1934.0</ele>
        <time>2018-06-23T13:52:58Z</time>
      </trkpt>
      <trkpt lat="40.416400" lon="-4.837733">
        <ele>1930.0</ele>
        <time>2018-06-23T13:52:59Z</time>
      </trkpt>
      <trkpt lat="40.416500" lon="-4.837800">
        <ele>1926.0</ele>
        <time>2018-06-23T13:53:00Z</time>
      </trkpt>
      <trkpt lat="40.416533" lon="-4.837917">
        <ele>1921.0</ele>
        <time>2018-06-23T13:53:01Z</time>
      </trkpt>
      <trkpt lat="40.416550" lon="-4.838050">
        <ele>1919.0</ele>
        <time>2018-06-23T13:53:02Z</time>
      </trkpt>
      <trkpt lat="40.416550" lon="-4.838183">
        <ele>1921.0</ele>
        <time>2018-06-23T13:53:03Z</time>
      </trkpt>
      <trkpt lat="40.416567" lon="-4.838300">
        <ele>1926.0</ele>
        <time>2018-06-23T13:53:04Z</time>
      </trkpt>
      <trkpt lat="40.416583" lon="-4.838400">
        <ele>1932.0</ele>
        <time>2018-06-23T13:53:05Z</time>
      </trkpt>
      <trkpt lat="40.416600" lon="-4.838483">
        <ele>1936.0</ele>
        <time>2018-06-23T13:53:06Z</time>
      </trkpt>
      <trkpt lat="40.416600" lon="-4.838567">
        <ele>1938.0</ele>
        <time>2018-06-23T13:53:07Z</time>
      </trkpt>
      <trkpt lat="40.416583" lon="-4.838650">
        <ele>1939.0</ele>
        <time>2018-06-23T13:53:08Z</time>
      </trkpt>
      <trkpt lat="40.416550" lon="-4.838750">
        <ele>1939.0</ele>
        <time>2018-06-23T13:53:09Z</time>
      </trkpt>
      <trkpt lat="40.416483" lon="-4.838850">
        <ele>1939.0</ele>
        <time>2018-06-23T13:53:10Z</time>
      </trkpt>
      <trkpt lat="40.416400" lon="-4.838950">
        <ele>1941.0</ele>
        <time>2018-06-23T13:53:11Z</time>
      </trkpt>
      <trkpt lat="40.416317" lon="-4.839050">
        <ele>1943.0</ele>
        <time>2018-06-23T13:53:12Z</time>
      </trkpt>
      <trkpt lat="40.416217" lon="-4.839117">
        <ele>1945.0</ele>
        <time>2018-06-23T13:53:13Z</time>
      </trkpt>
      <trkpt lat="40.416133" lon="-4.839167">
        <ele>1947.0</ele>
        <time>2018-06-23T13:53:14Z</time>
      </trkpt>
      <trkpt lat="40.416050" lon="-4.839217">
        <ele>1948.0</ele>
        <time>2018-06-23T13:53:15Z</time>
      </trkpt>
      <trkpt lat="40.415933" lon="-4.839267">
        <ele>1949.0</ele>
        <time>2018-06-23T13:53:16Z</time>
      </trkpt>
      <trkpt lat="40.415833" lon="-4.839300">
        <ele>1952.0</ele>
        <time>2018-06-23T13:53:17Z</time>
      </trkpt>
      <trkpt lat="40.415700" lon="-4.839300">
        <ele>1953.0</ele>
        <time>2018-06-23T13:53:18Z</time>
      </trkpt>
      <trkpt lat="40.415600" lon="-4.839300">
        <ele>1955.0</ele>
        <time>2018-06-23T13:53:19Z</time>
      </trkpt>
      <trkpt lat="40.415500" lon="-4.839283">
        <ele>1958.0</ele>
        <time>2018-06-23T13:53:20Z</time>
      </trkpt>
      <trkpt lat="40.415400" lon="-4.839267">
        <ele>1961.0</ele>
        <time>2018-06-23T13:53:21Z</time>
      </trkpt>
      <trkpt lat="40.415317" lon="-4.839250">
        <ele>1964.0</ele>
        <time>2018-06-23T13:53:22Z</time>
      </trkpt>
      <trkpt lat="40.415233" lon="-4.839250">
        <ele>1966.0</ele>
        <time>2018-06-23T13:53:23Z</time>
      </trkpt>
      <trkpt lat="40.415150" lon="-4.839233">
        <ele>1968.0</ele>
        <time>2018-06-23T13:53:24Z</time>
      </trkpt>
      <trkpt lat="40.415067" lon="-4.839217">
        <ele>1969.0</ele>
        <time>2018-06-23T13:53:25Z</time>
      </trkpt>
      <trkpt lat="40.415017" lon="-4.839150">
        <ele>1968.0</ele>
        <time>2018-06-23T13:53:26Z</time>
      </trkpt>
      <trkpt lat="40.415000" lon="-4.839033">
        <ele>1965.0</ele>
        <time>2018-06-23T13:53:27Z</time>
      </trkpt>
      <trkpt lat="40.414983" lon="-4.838917">
        <ele>1963.0</ele>
        <time>2018-06-23T13:53:28Z</time>
      </trkpt>
      <trkpt lat="40.415000" lon="-4.838783">
        <ele>1962.0</ele>
        <time>2018-06-23T13:53:29Z</time>
      </trkpt>
      <trkpt lat="40.415033" lon="-4.838667">
        <ele>1961.0</ele>
        <time>2018-06-23T13:53:30Z</time>
      </trkpt>
      <trkpt lat="40.415100" lon="-4.838550">
        <ele>1960.0</ele>
        <time>2018-06-23T13:53:31Z</time>
      </trkpt>
      <trkpt lat="40.415167" lon="-4.838450">
        <ele>1960.0</ele>
        <time>2018-06-23T13:53:32Z</time>
      </trkpt>
      <trkpt lat="40.415267" lon="-4.838400">
        <ele>1959.0</ele>
        <time>2018-06-23T13:53:33Z</time>
      </trkpt>
      <trkpt lat="40.415367" lon="-4.838383">
        <ele>1958.0</ele>
        <time>2018-06-23T13:53:34Z</time>
      </trkpt>
      <trkpt lat="40.415467" lon="-4.838400">
        <ele>1957.0</ele>
        <time>2018-06-23T13:53:35Z</time>
      </trkpt>
      <trkpt lat="40.415567" lon="-4.838450">
        <ele>1957.0</ele>
        <time>2018-06-23T13:53:36Z</time>
      </trkpt>
      <trkpt lat="40.415650" lon="-4.838500">
        <ele>1959.0</ele>
        <time>2018-06-23T13:53:37Z</time>
      </trkpt>
      <trkpt lat="40.415750" lon="-4.838550">
        <ele>1962.0</ele>
        <time>2018-06-23T13:53:38Z</time>
      </trkpt>
      <trkpt lat="40.415833" lon="-4.838600">
        <ele>1964.0</ele>
        <time>2018-06-23T13:53:39Z</time>
      </trkpt>
      <trkpt lat="40.415900" lon="-4.838650">
        <ele>1965.0</ele>
        <time>2018-06-23T13:53:40Z</time>
      </trkpt>
      <trkpt lat="40.415967" lon="-4.838700">
        <ele>1966.0</ele>
        <time>2018-06-23T13:53:41Z</time>
      </trkpt>
      <trkpt lat="40.416033" lon="-4.838783">
        <ele>1965.0</ele>
        <time>2018-06-23T13:53:42Z</time>
      </trkpt>
      <trkpt lat="40.416083" lon="-4.838867">
        <ele>1965.0</ele>
        <time>2018-06-23T13:53:43Z</time>
      </trkpt>
      <trkpt lat="40.416100" lon="-4.838967">
        <ele>1964.0</ele>
        <time>2018-06-23T13:53:44Z</time>
      </trkpt>
      <trkpt lat="40.416117" lon="-4.839083">
        <ele>1964.0</ele>
        <time>2018-06-23T13:53:45Z</time>
      </trkpt>
      <trkpt lat="40.416083" lon="-4.839200">
        <ele>1964.0</ele>
        <time>2018-06-23T13:53:46Z</time>
      </trkpt>
      <trkpt lat="40.416033" lon="-4.839300">
        <ele>1965.0</ele>
        <time>2018-06-23T13:53:47Z</time>
      </trkpt>
      <trkpt lat="40.415950" lon="-4.839383">
        <ele>1964.0</ele>
        <time>2018-06-23T13:53:48Z</time>
      </trkpt>
      <trkpt lat="40.415867" lon="-4.839433">
        <ele>1963.0</ele>
        <time>2018-06-23T13:53:49Z</time>
      </trkpt>
      <trkpt lat="40.415783" lon="-4.839433">
        <ele>1962.0</ele>
        <time>2018-06-23T13:53:50Z</time>
      </trkpt>
      <trkpt lat="40.415700" lon="-4.839367">
        <ele>1957.0</ele>
        <time>2018-06-23T13:53:51Z</time>
      </trkpt>
      <trkpt lat="40.415600" lon="-4.839300">
        <ele>1956.0</ele>
        <time>2018-06-23T13:53:52Z</time>
      </trkpt>
      <trkpt lat="40.415550" lon="-4.839167">
        <ele>1953.0</ele>
        <time>2018-06-23T13:53:53Z</time>
      </trkpt>
      <trkpt lat="40.415533" lon="-4.839033">
        <ele>1952.0</ele>
        <time>2018-06-23T13:53:54Z</time>
      </trkpt>
      <trkpt lat="40.415533" lon="-4.838883">
        <ele>1952.0</ele>
        <time>2018-06-23T13:53:55Z</time>
      </trkpt>
      <trkpt lat="40.415550" lon="-4.838767">
        <ele>1951.0</ele>
        <time>2018-06-23T13:53:56Z</time>
      </trkpt>
      <trkpt lat="40.415600" lon="-4.838667">
        <ele>1950.0</ele>
        <time>2018-06-23T13:53:57Z</time>
      </trkpt>
      <trkpt lat="40.415667" lon="-4.838583">
        <ele>1948.0</ele>
        <time>2018-06-23T13:53:58Z</time>
      </trkpt>
      <trkpt lat="40.415767" lon="-4.838500">
        <ele>1947.0</ele>
        <time>2018-06-23T13:53:59Z</time>
      </trkpt>
      <trkpt lat="40.415850" lon="-4.838467">
        <ele>1945.0</ele>
        <time>2018-06-23T13:54:00Z</time>
      </trkpt>
      <trkpt lat="40.415950" lon="-4.838433">
        <ele>1943.0</ele>
        <time>2018-06-23T13:54:01Z</time>
      </trkpt>
      <trkpt lat="40.416067" lon="-4.838417">
        <ele>1941.0</ele>
        <time>2018-06-23T13:54:02Z</time>
      </trkpt>
      <trkpt lat="40.416183" lon="-4.838450">
        <ele>1939.0</ele>
        <time>2018-06-23T13:54:03Z</time>
      </trkpt>
      <trkpt lat="40.416300" lon="-4.838517">
        <ele>1938.0</ele>
        <time>2018-06-23T13:54:04Z</time>
      </trkpt>
      <trkpt lat="40.416400" lon="-4.838617">
        <ele>1937.0</ele>
        <time>2018-06-23T13:54:05Z</time>
      </trkpt>
      <trkpt lat="40.416483" lon="-4.838733">
        <ele>1938.0</ele>
        <time>2018-06-23T13:54:06Z</time>
      </trkpt>
      <trkpt lat="40.416550" lon="-4.838850">
        <ele>1938.0</ele>
        <time>2018-06-23T13:54:07Z</time>
      </trkpt>
      <trkpt lat="40.416617" lon="-4.838967">
        <ele>1939.0</ele>
        <time>2018-06-23T13:54:08Z</time>
      </trkpt>
      <trkpt lat="40.416683" lon="-4.839067">
        <ele>1939.0</ele>
        <time>2018-06-23T13:54:09Z</time>
      </trkpt>
      <trkpt lat="40.416767" lon="-4.839150">
        <ele>1941.0</ele>
        <time>2018-06-23T13:54:10Z</time>
      </trkpt>
      <trkpt lat="40.416850" lon="-4.839217">
        <ele>1942.0</ele>
        <time>2018-06-23T13:54:11Z</time>
      </trkpt>
      <trkpt lat="40.416950" lon="-4.839250">
        <ele>1941.0</ele>
        <time>2018-06-23T13:54:12Z</time>
      </trkpt>
      <trkpt lat="40.417050" lon="-4.839267">
        <ele>1941.0</ele>
        <time>2018-06-23T13:54:13Z</time>
      </trkpt>
      <trkpt lat="40.417133" lon="-4.839267">
        <ele>1941.0</ele>
        <time>2018-06-23T13:54:14Z</time>
      </trkpt>
      <trkpt lat="40.417217" lon="-4.839233">
        <ele>1940.0</ele>
        <time>2018-06-23T13:54:15Z</time>
      </trkpt>
      <trkpt lat="40.417300" lon="-4.839183">
        <ele>1938.0</ele>
        <time>2018-06-23T13:54:16Z</time>
      </trkpt>
      <trkpt lat="40.417367" lon="-4.839083">
        <ele>1936.0</ele>
        <time>2018-06-23T13:54:17Z</time>
      </trkpt>
      <trkpt lat="40.417417" lon="-4.838983">
        <ele>1936.0</ele>
        <time>2018-06-23T13:54:18Z</time>
      </trkpt>
      <trkpt lat="40.417433" lon="-4.838883">
        <ele>1934.0</ele>
        <time>2018-06-23T13:54:19Z</time>
      </trkpt>
      <trkpt lat="40.417417" lon="-4.838783">
        <ele>1934.0</ele>
        <time>2018-06-23T13:54:20Z</time>
      </trkpt>
      <trkpt lat="40.417367" lon="-4.838700">
        <ele>1937.0</ele>
        <time>2018-06-23T13:54:21Z</time>
      </trkpt>
      <trkpt lat="40.417300" lon="-4.838650">
        <ele>1939.0</ele>
        <time>2018-06-23T13:54:22Z</time>
      </trkpt>
      <trkpt lat="40.417233" lon="-4.838633">
        <ele>1940.0</ele>
        <time>2018-06-23T13:54:23Z</time>
      </trkpt>
      <trkpt lat="40.417167" lon="-4.838633">
        <ele>1941.0</ele>
        <time>2018-06-23T13:54:24Z</time>
      </trkpt>
      <trkpt lat="40.417083" lon="-4.838683">
        <ele>1940.0</ele>
        <time>2018-06-23T13:54:25Z</time>
      </trkpt>
      <trkpt lat="40.417017" lon="-4.838750">
        <ele>1940.0</ele>
        <time>2018-06-23T13:54:26Z</time>
      </trkpt>
      <trkpt lat="40.416933" lon="-4.838833">
        <ele>1941.0</ele>
        <time>2018-06-23T13:54:27Z</time>
      </trkpt>
      <trkpt lat="40.416883" lon="-4.838917">
        <ele>1941.0</ele>
        <time>2018-06-23T13:54:28Z</time>
      </trkpt>
      <trkpt lat="40.416817" lon="-4.839000">
        <ele>1941.0</ele>
        <time>2018-06-23T13:54:29Z</time>
      </trkpt>
      <trkpt lat="40.416767" lon="-4.839100">
        <ele>1941.0</ele>
        <time>2018-06-23T13:54:30Z</time>
      </trkpt>
      <trkpt lat="40.416750" lon="-4.839200">
        <ele>1940.0</ele>
        <time>2018-06-23T13:54:31Z</time>
      </trkpt>
      <trkpt lat="40.416750" lon="-4.839333">
        <ele>1939.0</ele>
        <time>2018-06-23T13:54:32Z</time>
      </trkpt>
      <trkpt lat="40.416767" lon="-4.839467">
        <ele>1938.0</ele>
        <time>2018-06-23T13:54:33Z</time>
      </trkpt>
      <trkpt lat="40.416800" lon="-4.839583">
        <ele>1937.0</ele>
        <time>2018-06-23T13:54:34Z</time>
      </trkpt>
      <trkpt lat="40.416833" lon="-4.839700">
        <ele>1937.0</ele>
        <time>2018-06-23T13:54:35Z</time>
      </trkpt>
      <trkpt lat="40.416867" lon="-4.839800">
        <ele>1937.0</ele>
        <time>2018-06-23T13:54:36Z</time>
      </trkpt>
      <trkpt lat="40.416900" lon="-4.839900">
        <ele>1937.0</ele>
        <time>2018-06-23T13:54:37Z</time>
      </trkpt>
      <trkpt lat="40.416950" lon="-4.840000">
        <ele>1936.0</ele>
        <time>2018-06-23T13:54:38Z</time>
      </trkpt>
      <trkpt lat="40.417000" lon="-4.840100">
        <ele>1935.0</ele>
        <time>2018-06-23T13:54:39Z</time>
      </trkpt>
      <trkpt lat="40.417083" lon="-4.840167">
        <ele>1935.0</ele>
        <time>2018-06-23T13:54:40Z</time>
      </trkpt>
      <trkpt lat="40.417150" lon="-4.840233">
        <ele>1934.0</ele>
        <time>2018-06-23T13:54:41Z</time>
      </trkpt>
      <trkpt lat="40.417217" lon="-4.840317">
        <ele>1933.0</ele>
        <time>2018-06-23T13:54:42Z</time>
      </trkpt>
      <trkpt lat="40.417300" lon="-4.840367">
        <ele>1932.0</ele>
        <time>2018-06-23T13:54:43Z</time>
      </trkpt>
      <trkpt lat="40.417383" lon="-4.840417">
        <ele>1931.0</ele>
        <time>2018-06-23T13:54:44Z</time>
      </trkpt>
      <trkpt lat="40.417483" lon="-4.840467">
        <ele>1930.0</ele>
        <time>2018-06-23T13:54:45Z</time>
      </trkpt>
      <trkpt lat="40.417583" lon="-4.840517">
        <ele>1929.0</ele>
        <time>2018-06-23T13:54:46Z</time>
      </trkpt>
      <trkpt lat="40.417683" lon="-4.840550">
        <ele>1930.0</ele>
        <time>2018-06-23T13:54:47Z</time>
      </trkpt>
      <trkpt lat="40.417767" lon="-4.840600">
        <ele>1931.0</ele>
        <time>2018-06-23T13:54:48Z</time>
      </trkpt>
      <trkpt lat="40.417850" lon="-4.840650">
        <ele>1931.0</ele>
        <time>2018-06-23T13:54:49Z</time>
      </trkpt>
      <trkpt lat="40.417950" lon="-4.840700">
        <ele>1930.0</ele>
        <time>2018-06-23T13:54:50Z</time>
      </trkpt>
      <trkpt lat="40.418050" lon="-4.840783">
        <ele>1930.0</ele>
        <time>2018-06-23T13:54:51Z</time>
      </trkpt>
      <trkpt lat="40.418150" lon="-4.840867">
        <ele>1929.0</ele>
        <time>2018-06-23T13:54:52Z</time>
      </trkpt>
      <trkpt lat="40.418250" lon="-4.840967">
        <ele>1929.0</ele>
        <time>2018-06-23T13:54:53Z</time>
      </trkpt>
      <trkpt lat="40.418333" lon="-4.841083">
        <ele>1929.0</ele>
        <time>2018-06-23T13:54:54Z</time>
      </trkpt>
      <trkpt lat="40.418417" lon="-4.841200">
        <ele>1930.0</ele>
        <time>2018-06-23T13:54:55Z</time>
      </trkpt>
      <trkpt lat="40.418500" lon="-4.841333">
        <ele>1931.0</ele>
        <time>2018-06-23T13:54:56Z</time>
      </trkpt>
      <trkpt lat="40.418583" lon="-4.841467">
        <ele>1931.0</ele>
        <time>2018-06-23T13:54:57Z</time>
      </trkpt>
      <trkpt lat="40.418667" lon="-4.841617">
        <ele>1932.0</ele>
        <time>2018-06-23T13:54:58Z</time>
      </trkpt>
      <trkpt lat="40.418733" lon="-4.841750">
        <ele>1933.0</ele>
        <time>2018-06-23T13:54:59Z</time>
      </trkpt>
      <trkpt lat="40.418817" lon="-4.841900">
        <ele>1934.0</ele>
        <time>2018-06-23T13:55:00Z</time>
      </trkpt>
      <trkpt lat="40.418900" lon="-4.842017">
        <ele>1936.0</ele>
        <time>2018-06-23T13:55:01Z</time>
      </trkpt>
      <trkpt lat="40.418983" lon="-4.842100">
        <ele>1937.0</ele>
        <time>2018-06-23T13:55:02Z</time>
      </trkpt>
      <trkpt lat="40.419067" lon="-4.842167">
        <ele>1937.0</ele>
        <time>2018-06-23T13:55:03Z</time>
      </trkpt>
      <trkpt lat="40.419167" lon="-4.842200">
        <ele>1937.0</ele>
        <time>2018-06-23T13:55:04Z</time>
      </trkpt>
      <trkpt lat="40.419267" lon="-4.842217">
        <ele>1937.0</ele>
        <time>2018-06-23T13:55:05Z</time>
      </trkpt>
      <trkpt lat="40.419367" lon="-4.842217">
        <ele>1936.0</ele>
        <time>2018-06-23T13:55:06Z</time>
      </trkpt>
      <trkpt lat="40.419467" lon="-4.842200">
        <ele>1936.0</ele>
        <time>2018-06-23T13:55:07Z</time>
      </trkpt>
      <trkpt lat="40.419550" lon="-4.842133">
        <ele>1936.0</ele>
        <time>2018-06-23T13:55:08Z</time>
      </trkpt>
      <trkpt lat="40.419633" lon="-4.842067">
        <ele>1936.0</ele>
        <time>2018-06-23T13:55:09Z</time>
      </trkpt>
      <trkpt lat="40.419683" lon="-4.841967">
        <ele>1936.0</ele>
        <time>2018-06-23T13:55:10Z</time>
      </trkpt>
      <trkpt lat="40.419717" lon="-4.841850">
        <ele>1937.0</ele>
        <time>2018-06-23T13:55:11Z</time>
      </trkpt>
      <trkpt lat="40.419733" lon="-4.841750">
        <ele>1937.0</ele>
        <time>2018-06-23T13:55:12Z</time>
      </trkpt>
      <trkpt lat="40.419733" lon="-4.841667">
        <ele>1936.0</ele>
        <time>2018-06-23T13:55:13Z</time>
      </trkpt>
      <trkpt lat="40.419700" lon="-4.841583">
        <ele>1936.0</ele>
        <time>2018-06-23T13:55:14Z</time>
      </trkpt>
      <trkpt lat="40.419650" lon="-4.841533">
        <ele>1935.0</ele>
        <time>2018-06-23T13:55:15Z</time>
      </trkpt>
      <trkpt lat="40.419583" lon="-4.841483">
        <ele>1935.0</ele>
        <time>2018-06-23T13:55:16Z</time>
      </trkpt>
      <trkpt lat="40.419517" lon="-4.841433">
        <ele>1935.0</ele>
        <time>2018-06-23T13:55:17Z</time>
      </trkpt>
      <trkpt lat="40.419433" lon="-4.841417">
        <ele>1935.0</ele>
        <time>2018-06-23T13:55:18Z</time>
      </trkpt>
      <trkpt lat="40.419350" lon="-4.841417">
        <ele>1935.0</ele>
        <time>2018-06-23T13:55:19Z</time>
      </trkpt>
      <trkpt lat="40.419267" lon="-4.841450">
        <ele>1935.0</ele>
        <time>2018-06-23T13:55:20Z</time>
      </trkpt>
      <trkpt lat="40.419183" lon="-4.841483">
        <ele>1935.0</ele>
        <time>2018-06-23T13:55:21Z</time>
      </trkpt>
      <trkpt lat="40.419100" lon="-4.841550">
        <ele>1935.0</ele>
        <time>2018-06-23T13:55:22Z</time>
      </trkpt>
      <trkpt lat="40.419017" lon="-4.841617">
        <ele>1935.0</ele>
        <time>2018-06-23T13:55:23Z</time>
      </trkpt>
      <trkpt lat="40.418933" lon="-4.841683">
        <ele>1936.0</ele>
        <time>2018-06-23T13:55:24Z</time>
      </trkpt>
      <trkpt lat="40.418867" lon="-4.841783">
        <ele>1936.0</ele>
        <time>2018-06-23T13:55:25Z</time>
      </trkpt>
      <trkpt lat="40.418783" lon="-4.841883">
        <ele>1937.0</ele>
        <time>2018-06-23T13:55:26Z</time>
      </trkpt>
      <trkpt lat="40.418700" lon="-4.841967">
        <ele>1939.0</ele>
        <time>2018-06-23T13:55:27Z</time>
      </trkpt>
      <trkpt lat="40.418633" lon="-4.842067">
        <ele>1940.0</ele>
        <time>2018-06-23T13:55:28Z</time>
      </trkpt>
      <trkpt lat="40.418583" lon="-4.842167">
        <ele>1943.0</ele>
        <time>2018-06-23T13:55:29Z</time>
      </trkpt>
      <trkpt lat="40.418517" lon="-4.842250">
        <ele>1945.0</ele>
        <time>2018-06-23T13:55:30Z</time>
      </trkpt>
      <trkpt lat="40.418450" lon="-4.842300">
        <ele>1947.0</ele>
        <time>2018-06-23T13:55:31Z</time>
      </trkpt>
      <trkpt lat="40.418383" lon="-4.842367">
        <ele>1947.0</ele>
        <time>2018-06-23T13:55:32Z</time>
      </trkpt>
      <trkpt lat="40.418317" lon="-4.842433">
        <ele>1948.0</ele>
        <time>2018-06-23T13:55:33Z</time>
      </trkpt>
      <trkpt lat="40.418250" lon="-4.842533">
        <ele>1949.0</ele>
        <time>2018-06-23T13:55:34Z</time>
      </trkpt>
      <trkpt lat="40.418200" lon="-4.842650">
        <ele>1950.0</ele>
        <time>2018-06-23T13:55:35Z</time>
      </trkpt>
      <trkpt lat="40.418150" lon="-4.842800">
        <ele>1951.0</ele>
        <time>2018-06-23T13:55:36Z</time>
      </trkpt>
      <trkpt lat="40.418133" lon="-4.842950">
        <ele>1952.0</ele>
        <time>2018-06-23T13:55:37Z</time>
      </trkpt>
      <trkpt lat="40.418117" lon="-4.843083">
        <ele>1954.0</ele>
        <time>2018-06-23T13:55:38Z</time>
      </trkpt>
      <trkpt lat="40.418117" lon="-4.843233">
        <ele>1955.0</ele>
        <time>2018-06-23T13:55:39Z</time>
      </trkpt>
      <trkpt lat="40.418150" lon="-4.843367">
        <ele>1956.0</ele>
        <time>2018-06-23T13:55:40Z</time>
      </trkpt>
      <trkpt lat="40.418183" lon="-4.843500">
        <ele>1956.0</ele>
        <time>2018-06-23T13:55:41Z</time>
      </trkpt>
      <trkpt lat="40.418250" lon="-4.843617">
        <ele>1957.0</ele>
        <time>2018-06-23T13:55:42Z</time>
      </trkpt>
      <trkpt lat="40.418317" lon="-4.843683">
        <ele>1958.0</ele>
        <time>2018-06-23T13:55:43Z</time>
      </trkpt>
      <trkpt lat="40.418400" lon="-4.843733">
        <ele>1959.0</ele>
        <time>2018-06-23T13:55:44Z</time>
      </trkpt>
      <trkpt lat="40.418483" lon="-4.843767">
        <ele>1959.0</ele>
        <time>2018-06-23T13:55:45Z</time>
      </trkpt>
      <trkpt lat="40.418567" lon="-4.843767">
        <ele>1960.0</ele>
        <time>2018-06-23T13:55:46Z</time>
      </trkpt>
      <trkpt lat="40.418650" lon="-4.843717">
        <ele>1961.0</ele>
        <time>2018-06-23T13:55:47Z</time>
      </trkpt>
      <trkpt lat="40.418717" lon="-4.843650">
        <ele>1962.0</ele>
        <time>2018-06-23T13:55:48Z</time>
      </trkpt>
      <trkpt lat="40.418750" lon="-4.843550">
        <ele>1963.0</ele>
        <time>2018-06-23T13:55:49Z</time>
      </trkpt>
      <trkpt lat="40.418750" lon="-4.843467">
        <ele>1963.0</ele>
        <time>2018-06-23T13:55:50Z</time>
      </trkpt>
      <trkpt lat="40.418717" lon="-4.843367">
        <ele>1964.0</ele>
        <time>2018-06-23T13:55:51Z</time>
      </trkpt>
      <trkpt lat="40.418667" lon="-4.843267">
        <ele>1965.0</ele>
        <time>2018-06-23T13:55:52Z</time>
      </trkpt>
      <trkpt lat="40.418617" lon="-4.843183">
        <ele>1967.0</ele>
        <time>2018-06-23T13:55:53Z</time>
      </trkpt>
      <trkpt lat="40.418550" lon="-4.843150">
        <ele>1970.0</ele>
        <time>2018-06-23T13:55:54Z</time>
      </trkpt>
      <trkpt lat="40.418467" lon="-4.843133">
        <ele>1972.0</ele>
        <time>2018-06-23T13:55:55Z</time>
      </trkpt>
      <trkpt lat="40.418383" lon="-4.843167">
        <ele>1973.0</ele>
        <time>2018-06-23T13:55:56Z</time>
      </trkpt>
      <trkpt lat="40.418283" lon="-4.843217">
        <ele>1974.0</ele>
        <time>2018-06-23T13:55:57Z</time>
      </trkpt>
      <trkpt lat="40.418200" lon="-4.843283">
        <ele>1976.0</ele>
        <time>2018-06-23T13:55:58Z</time>
      </trkpt>
      <trkpt lat="40.418133" lon="-4.843367">
        <ele>1977.0</ele>
        <time>2018-06-23T13:55:59Z</time>
      </trkpt>
      <trkpt lat="40.418100" lon="-4.843450">
        <ele>1975.0</ele>
        <time>2018-06-23T13:56:00Z</time>
      </trkpt>
      <trkpt lat="40.418067" lon="-4.843550">
        <ele>1974.0</ele>
        <time>2018-06-23T13:56:01Z</time>
      </trkpt>
      <trkpt lat="40.418050" lon="-4.843650">
        <ele>1973.0</ele>
        <time>2018-06-23T13:56:02Z</time>
      </trkpt>
      <trkpt lat="40.418033" lon="-4.843750">
        <ele>1973.0</ele>
        <time>2018-06-23T13:56:03Z</time>
      </trkpt>
      <trkpt lat="40.418033" lon="-4.843867">
        <ele>1973.0</ele>
        <time>2018-06-23T13:56:04Z</time>
      </trkpt>
      <trkpt lat="40.418083" lon="-4.843983">
        <ele>1972.0</ele>
        <time>2018-06-23T13:56:05Z</time>
      </trkpt>
      <trkpt lat="40.418133" lon="-4.844100">
        <ele>1971.0</ele>
        <time>2018-06-23T13:56:06Z</time>
      </trkpt>
      <trkpt lat="40.418200" lon="-4.844200">
        <ele>1972.0</ele>
        <time>2018-06-23T13:56:07Z</time>
      </trkpt>
      <trkpt lat="40.418267" lon="-4.844300">
        <ele>1975.0</ele>
        <time>2018-06-23T13:56:08Z</time>
      </trkpt>
      <trkpt lat="40.418300" lon="-4.844367">
        <ele>1979.0</ele>
        <time>2018-06-23T13:56:09Z</time>
      </trkpt>
      <trkpt lat="40.418333" lon="-4.844450">
        <ele>1982.0</ele>
        <time>2018-06-23T13:56:10Z</time>
      </trkpt>
      <trkpt lat="40.418350" lon="-4.844517">
        <ele>1984.0</ele>
        <time>2018-06-23T13:56:11Z</time>
      </trkpt>
      <trkpt lat="40.418383" lon="-4.844600">
        <ele>1985.0</ele>
        <time>2018-06-23T13:56:12Z</time>
      </trkpt>
      <trkpt lat="40.418450" lon="-4.844683">
        <ele>1985.0</ele>
        <time>2018-06-23T13:56:13Z</time>
      </trkpt>
      <trkpt lat="40.418517" lon="-4.844783">
        <ele>1987.0</ele>
        <time>2018-06-23T13:56:14Z</time>
      </trkpt>
      <trkpt lat="40.418567" lon="-4.844900">
        <ele>1989.0</ele>
        <time>2018-06-23T13:56:15Z</time>
      </trkpt>
      <trkpt lat="40.418583" lon="-4.844983">
        <ele>1991.0</ele>
        <time>2018-06-23T13:56:16Z</time>
      </trkpt>
      <trkpt lat="40.418583" lon="-4.845033">
        <ele>1993.0</ele>
        <time>2018-06-23T13:56:17Z</time>
      </trkpt>
      <trkpt lat="40.418600" lon="-4.845067">
        <ele>1992.0</ele>
        <time>2018-06-23T13:56:18Z</time>
      </trkpt>
      <trkpt lat="40.418617" lon="-4.845100">
        <ele>1990.0</ele>
        <time>2018-06-23T13:56:19Z</time>
      </trkpt>
      <trkpt lat="40.418667" lon="-4.845150">
        <ele>1986.0</ele>
        <time>2018-06-23T13:56:20Z</time>
      </trkpt>
      <trkpt lat="40.418733" lon="-4.845233">
        <ele>1981.0</ele>
        <time>2018-06-23T13:56:21Z</time>
      </trkpt>
      <trkpt lat="40.418817" lon="-4.845300">
        <ele>1978.0</ele>
        <time>2018-06-23T13:56:22Z</time>
      </trkpt>
      <trkpt lat="40.418917" lon="-4.845333">
        <ele>1977.0</ele>
        <time>2018-06-23T13:56:23Z</time>
      </trkpt>
      <trkpt lat="40.419017" lon="-4.845317">
        <ele>1978.0</ele>
        <time>2018-06-23T13:56:24Z</time>
      </trkpt>
      <trkpt lat="40.419117" lon="-4.845267">
        <ele>1978.0</ele>
        <time>2018-06-23T13:56:25Z</time>
      </trkpt>
      <trkpt lat="40.419217" lon="-4.845217">
        <ele>1980.0</ele>
        <time>2018-06-23T13:56:26Z</time>
      </trkpt>
      <trkpt lat="40.419317" lon="-4.845167">
        <ele>1982.0</ele>
        <time>2018-06-23T13:56:27Z</time>
      </trkpt>
      <trkpt lat="40.419400" lon="-4.845117">
        <ele>1983.0</ele>
        <time>2018-06-23T13:56:28Z</time>
      </trkpt>
      <trkpt lat="40.419483" lon="-4.845100">
        <ele>1984.0</ele>
        <time>2018-06-23T13:56:29Z</time>
      </trkpt>
      <trkpt lat="40.419567" lon="-4.845100">
        <ele>1983.0</ele>
        <time>2018-06-23T13:56:30Z</time>
      </trkpt>
      <trkpt lat="40.419667" lon="-4.845117">
        <ele>1984.0</ele>
        <time>2018-06-23T13:56:31Z</time>
      </trkpt>
      <trkpt lat="40.419783" lon="-4.845083">
        <ele>1985.0</ele>
        <time>2018-06-23T13:56:32Z</time>
      </trkpt>
      <trkpt lat="40.419867" lon="-4.845033">
        <ele>1987.0</ele>
        <time>2018-06-23T13:56:33Z</time>
      </trkpt>
      <trkpt lat="40.419967" lon="-4.844950">
        <ele>1988.0</ele>
        <time>2018-06-23T13:56:34Z</time>
      </trkpt>
      <trkpt lat="40.420033" lon="-4.844850">
        <ele>1989.0</ele>
        <time>2018-06-23T13:56:35Z</time>
      </trkpt>
      <trkpt lat="40.420100" lon="-4.844767">
        <ele>1991.0</ele>
        <time>2018-06-23T13:56:36Z</time>
      </trkpt>
      <trkpt lat="40.420167" lon="-4.844667">
        <ele>1992.0</ele>
        <time>2018-06-23T13:56:37Z</time>
      </trkpt>
      <trkpt lat="40.420217" lon="-4.844533">
        <ele>1992.0</ele>
        <time>2018-06-23T13:56:38Z</time>
      </trkpt>
      <trkpt lat="40.420283" lon="-4.844400">
        <ele>1993.0</ele>
        <time>2018-06-23T13:56:39Z</time>
      </trkpt>
      <trkpt lat="40.420350" lon="-4.844267">
        <ele>1995.0</ele>
        <time>2018-06-23T13:56:40Z</time>
      </trkpt>
      <trkpt lat="40.420433" lon="-4.844133">
        <ele>1998.0</ele>
        <time>2018-06-23T13:56:41Z</time>
      </trkpt>
      <trkpt lat="40.420533" lon="-4.844050">
        <ele>2000.0</ele>
        <time>2018-06-23T13:56:42Z</time>
      </trkpt>
      <trkpt lat="40.420633" lon="-4.843983">
        <ele>2002.0</ele>
        <time>2018-06-23T13:56:43Z</time>
      </trkpt>
      <trkpt lat="40.420750" lon="-4.843967">
        <ele>2004.0</ele>
        <time>2018-06-23T13:56:44Z</time>
      </trkpt>
      <trkpt lat="40.420833" lon="-4.843983">
        <ele>2004.0</ele>
        <time>2018-06-23T13:56:45Z</time>
      </trkpt>
      <trkpt lat="40.420933" lon="-4.844033">
        <ele>2003.0</ele>
        <time>2018-06-23T13:56:46Z</time>
      </trkpt>
      <trkpt lat="40.421033" lon="-4.844117">
        <ele>2003.0</ele>
        <time>2018-06-23T13:56:47Z</time>
      </trkpt>
      <trkpt lat="40.421100" lon="-4.844267">
        <ele>2003.0</ele>
        <time>2018-06-23T13:56:48Z</time>
      </trkpt>
      <trkpt lat="40.421167" lon="-4.844433">
        <ele>2004.0</ele>
        <time>2018-06-23T13:56:49Z</time>
      </trkpt>
      <trkpt lat="40.421233" lon="-4.844600">
        <ele>2010.0</ele>
        <time>2018-06-23T13:56:50Z</time>
      </trkpt>
      <trkpt lat="40.421267" lon="-4.844717">
        <ele>2014.0</ele>
        <time>2018-06-23T13:56:51Z</time>
      </trkpt>
      <trkpt lat="40.421283" lon="-4.844817">
        <ele>2019.0</ele>
        <time>2018-06-23T13:56:52Z</time>
      </trkpt>
      <trkpt lat="40.421300" lon="-4.844917">
        <ele>2023.0</ele>
        <time>2018-06-23T13:56:53Z</time>
      </trkpt>
      <trkpt lat="40.421300" lon="-4.844983">
        <ele>2026.0</ele>
        <time>2018-06-23T13:56:54Z</time>
      </trkpt>
      <trkpt lat="40.421300" lon="-4.845083">
        <ele>2027.0</ele>
        <time>2018-06-23T13:56:55Z</time>
      </trkpt>
      <trkpt lat="40.421300" lon="-4.845183">
        <ele>2027.0</ele>
        <time>2018-06-23T13:56:56Z</time>
      </trkpt>
      <trkpt lat="40.421283" lon="-4.845283">
        <ele>2028.0</ele>
        <time>2018-06-23T13:56:57Z</time>
      </trkpt>
      <trkpt lat="40.421233" lon="-4.845383">
        <ele>2029.0</ele>
        <time>2018-06-23T13:56:58Z</time>
      </trkpt>
      <trkpt lat="40.421167" lon="-4.845450">
        <ele>2030.0</ele>
        <time>2018-06-23T13:56:59Z</time>
      </trkpt>
      <trkpt lat="40.421083" lon="-4.845500">
        <ele>2033.0</ele>
        <time>2018-06-23T13:57:00Z</time>
      </trkpt>
      <trkpt lat="40.421000" lon="-4.845517">
        <ele>2037.0</ele>
        <time>2018-06-23T13:57:01Z</time>
      </trkpt>
      <trkpt lat="40.420917" lon="-4.845533">
        <ele>2041.0</ele>
        <time>2018-06-23T13:57:02Z</time>
      </trkpt>
      <trkpt lat="40.420833" lon="-4.845517">
        <ele>2044.0</ele>
        <time>2018-06-23T13:57:03Z</time>
      </trkpt>
      <trkpt lat="40.420783" lon="-4.845483">
        <ele>2045.0</ele>
        <time>2018-06-23T13:57:04Z</time>
      </trkpt>
      <trkpt lat="40.420717" lon="-4.845433">
        <ele>2044.0</ele>
        <time>2018-06-23T13:57:05Z</time>
      </trkpt>
      <trkpt lat="40.420667" lon="-4.845350">
        <ele>2041.0</ele>
        <time>2018-06-23T13:57:06Z</time>
      </trkpt>
      <trkpt lat="40.420633" lon="-4.845217">
        <ele>2038.0</ele>
        <time>2018-06-23T13:57:07Z</time>
      </trkpt>
      <trkpt lat="40.420633" lon="-4.845050">
        <ele>2036.0</ele>
        <time>2018-06-23T13:57:08Z</time>
      </trkpt>
      <trkpt lat="40.420633" lon="-4.844883">
        <ele>2035.0</ele>
        <time>2018-06-23T13:57:09Z</time>
      </trkpt>
      <trkpt lat="40.420650" lon="-4.844733">
        <ele>2035.0</ele>
        <time>2018-06-23T13:57:10Z</time>
      </trkpt>
      <trkpt lat="40.420683" lon="-4.844617">
        <ele>2036.0</ele>
        <time>2018-06-23T13:57:11Z</time>
      </trkpt>
      <trkpt lat="40.420767" lon="-4.844550">
        <ele>2037.0</ele>
        <time>2018-06-23T13:57:12Z</time>
      </trkpt>
      <trkpt lat="40.420850" lon="-4.844517">
        <ele>2038.0</ele>
        <time>2018-06-23T13:57:13Z</time>
      </trkpt>
      <trkpt lat="40.420967" lon="-4.844533">
        <ele>2038.0</ele>
        <time>2018-06-23T13:57:14Z</time>
      </trkpt>
      <trkpt lat="40.421067" lon="-4.844567">
        <ele>2038.0</ele>
        <time>2018-06-23T13:57:15Z</time>
      </trkpt>
      <trkpt lat="40.421150" lon="-4.844650">
        <ele>2039.0</ele>
        <time>2018-06-23T13:57:16Z</time>
      </trkpt>
      <trkpt lat="40.421217" lon="-4.844750">
        <ele>2041.0</ele>
        <time>2018-06-23T13:57:17Z</time>
      </trkpt>
      <trkpt lat="40.421250" lon="-4.844867">
        <ele>2043.0</ele>
        <time>2018-06-23T13:57:18Z</time>
      </trkpt>
      <trkpt lat="40.421283" lon="-4.844983">
        <ele>2045.0</ele>
        <time>2018-06-23T13:57:19Z</time>
      </trkpt>
      <trkpt lat="40.421283" lon="-4.845100">
        <ele>2046.0</ele>
        <time>2018-06-23T13:57:20Z</time>
      </trkpt>
      <trkpt lat="40.421283" lon="-4.845200">
        <ele>2048.0</ele>
        <time>2018-06-23T13:57:21Z</time>
      </trkpt>
      <trkpt lat="40.421233" lon="-4.845300">
        <ele>2049.0</ele>
        <time>2018-06-23T13:57:22Z</time>
      </trkpt>
      <trkpt lat="40.421183" lon="-4.845367">
        <ele>2049.0</ele>
        <time>2018-06-23T13:57:23Z</time>
      </trkpt>
      <trkpt lat="40.421117" lon="-4.845417">
        <ele>2050.0</ele>
        <time>2018-06-23T13:57:24Z</time>
      </trkpt>
      <trkpt lat="40.421050" lon="-4.845467">
        <ele>2051.0</ele>
        <time>2018-06-23T13:57:25Z</time>
      </trkpt>
      <trkpt lat="40.420983" lon="-4.845500">
        <ele>2052.0</ele>
        <time>2018-06-23T13:57:26Z</time>
      </trkpt>
      <trkpt lat="40.420917" lon="-4.845533">
        <ele>2051.0</ele>
        <time>2018-06-23T13:57:27Z</time>
      </trkpt>
      <trkpt lat="40.420867" lon="-4.845583">
        <ele>2052.0</ele>
        <time>2018-06-23T13:57:28Z</time>
      </trkpt>
      <trkpt lat="40.420817" lon="-4.845667">
        <ele>2051.0</ele>
        <time>2018-06-23T13:57:29Z</time>
      </trkpt>
      <trkpt lat="40.420767" lon="-4.845767">
        <ele>2052.0</ele>
        <time>2018-06-23T13:57:30Z</time>
      </trkpt>
      <trkpt lat="40.420733" lon="-4.845867">
        <ele>2053.0</ele>
        <time>2018-06-23T13:57:31Z</time>
      </trkpt>
      <trkpt lat="40.420700" lon="-4.845967">
        <ele>2056.0</ele>
        <time>2018-06-23T13:57:32Z</time>
      </trkpt>
      <trkpt lat="40.420683" lon="-4.846067">
        <ele>2058.0</ele>
        <time>2018-06-23T13:57:33Z</time>
      </trkpt>
      <trkpt lat="40.420650" lon="-4.846167">
        <ele>2060.0</ele>
        <time>2018-06-23T13:57:34Z</time>
      </trkpt>
      <trkpt lat="40.420617" lon="-4.846267">
        <ele>2063.0</ele>
        <time>2018-06-23T13:57:35Z</time>
      </trkpt>
      <trkpt lat="40.420600" lon="-4.846367">
        <ele>2066.0</ele>
        <time>2018-06-23T13:57:36Z</time>
      </trkpt>
      <trkpt lat="40.420617" lon="-4.846467">
        <ele>2069.0</ele>
        <time>2018-06-23T13:57:37Z</time>
      </trkpt>
      <trkpt lat="40.420633" lon="-4.846583">
        <ele>2071.0</ele>
        <time>2018-06-23T13:57:38Z</time>
      </trkpt>
      <trkpt lat="40.420683" lon="-4.846683">
        <ele>2074.0</ele>
        <time>2018-06-23T13:57:39Z</time>
      </trkpt>
      <trkpt lat="40.420750" lon="-4.846767">
        <ele>2076.0</ele>
        <time>2018-06-23T13:57:40Z</time>
      </trkpt>
      <trkpt lat="40.420817" lon="-4.846817">
        <ele>2079.0</ele>
        <time>2018-06-23T13:57:41Z</time>
      </trkpt>
      <trkpt lat="40.420933" lon="-4.846833">
        <ele>2083.0</ele>
        <time>2018-06-23T13:57:42Z</time>
      </trkpt>
      <trkpt lat="40.421033" lon="-4.846817">
        <ele>2087.0</ele>
        <time>2018-06-23T13:57:43Z</time>
      </trkpt>
      <trkpt lat="40.421133" lon="-4.846767">
        <ele>2089.0</ele>
        <time>2018-06-23T13:57:44Z</time>
      </trkpt>
      <trkpt lat="40.421233" lon="-4.846683">
        <ele>2091.0</ele>
        <time>2018-06-23T13:57:45Z</time>
      </trkpt>
      <trkpt lat="40.421317" lon="-4.846567">
        <ele>2094.0</ele>
        <time>2018-06-23T13:57:46Z</time>
      </trkpt>
      <trkpt lat="40.421383" lon="-4.846433">
        <ele>2097.0</ele>
        <time>2018-06-23T13:57:47Z</time>
      </trkpt>
      <trkpt lat="40.421383" lon="-4.846283">
        <ele>2099.0</ele>
        <time>2018-06-23T13:57:48Z</time>
      </trkpt>
      <trkpt lat="40.421350" lon="-4.846150">
        <ele>2100.0</ele>
        <time>2018-06-23T13:57:49Z</time>
      </trkpt>
      <trkpt lat="40.421300" lon="-4.846050">
        <ele>2102.0</ele>
        <time>2018-06-23T13:57:50Z</time>
      </trkpt>
      <trkpt lat="40.421217" lon="-4.845983">
        <ele>2105.0</ele>
        <time>2018-06-23T13:57:51Z</time>
      </trkpt>
      <trkpt lat="40.421150" lon="-4.845950">
        <ele>2107.0</ele>
        <time>2018-06-23T13:57:52Z</time>
      </trkpt>
      <trkpt lat="40.421067" lon="-4.845933">
        <ele>2110.0</ele>
        <time>2018-06-23T13:57:53Z</time>
      </trkpt>
      <trkpt lat="40.421000" lon="-4.845967">
        <ele>2112.0</ele>
        <time>2018-06-23T13:57:54Z</time>
      </trkpt>
      <trkpt lat="40.420933" lon="-4.846067">
        <ele>2114.0</ele>
        <time>2018-06-23T13:57:55Z</time>
      </trkpt>
      <trkpt lat="40.420917" lon="-4.846183">
        <ele>2117.0</ele>
        <time>2018-06-23T13:57:56Z</time>
      </trkpt>
      <trkpt lat="40.420917" lon="-4.846300">
        <ele>2120.0</ele>
        <time>2018-06-23T13:57:57Z</time>
      </trkpt>
      <trkpt lat="40.420950" lon="-4.846400">
        <ele>2123.0</ele>
        <time>2018-06-23T13:57:58Z</time>
      </trkpt>
      <trkpt lat="40.421000" lon="-4.846483">
        <ele>2126.0</ele>
        <time>2018-06-23T13:57:59Z</time>
      </trkpt>
      <trkpt lat="40.421100" lon="-4.846517">
        <ele>2129.0</ele>
        <time>2018-06-23T13:58:00Z</time>
      </trkpt>
      <trkpt lat="40.421183" lon="-4.846533">
        <ele>2132.0</ele>
        <time>2018-06-23T13:58:01Z</time>
      </trkpt>
      <trkpt lat="40.421283" lon="-4.846533">
        <ele>2137.0</ele>
        <time>2018-06-23T13:58:02Z</time>
      </trkpt>
      <trkpt lat="40.421383" lon="-4.846533">
        <ele>2141.0</ele>
        <time>2018-06-23T13:58:03Z</time>
      </trkpt>
      <trkpt lat="40.421467" lon="-4.846500">
        <ele>2144.0</ele>
        <time>2018-06-23T13:58:04Z</time>
      </trkpt>
      <trkpt lat="40.421550" lon="-4.846433">
        <ele>2147.0</ele>
        <time>2018-06-23T13:58:05Z</time>
      </trkpt>
      <trkpt lat="40.421633" lon="-4.846317">
        <ele>2149.0</ele>
        <time>2018-06-23T13:58:06Z</time>
      </trkpt>
      <trkpt lat="40.421683" lon="-4.846200">
        <ele>2152.0</ele>
        <time>2018-06-23T13:58:07Z</time>
      </trkpt>
      <trkpt lat="40.421717" lon="-4.846067">
        <ele>2156.0</ele>
        <time>2018-06-23T13:58:08Z</time>
      </trkpt>
      <trkpt lat="40.421717" lon="-4.845950">
        <ele>2159.0</ele>
        <time>2018-06-23T13:58:09Z</time>
      </trkpt>
      <trkpt lat="40.421700" lon="-4.845817">
        <ele>2161.0</ele>
        <time>2018-06-23T13:58:10Z</time>
      </trkpt>
      <trkpt lat="40.421650" lon="-4.845700">
        <ele>2164.0</ele>
        <time>2018-06-23T13:58:11Z</time>
      </trkpt>
      <trkpt lat="40.421583" lon="-4.845617">
        <ele>2167.0</ele>
        <time>2018-06-23T13:58:12Z</time>
      </trkpt>
      <trkpt lat="40.421483" lon="-4.845550">
        <ele>2169.0</ele>
        <time>2018-06-23T13:58:13Z</time>
      </trkpt>
      <trkpt lat="40.421400" lon="-4.845533">
        <ele>2171.0</ele>
        <time>2018-06-23T13:58:14Z</time>
      </trkpt>
      <trkpt lat="40.421300" lon="-4.845550">
        <ele>2173.0</ele>
        <time>2018-06-23T13:58:15Z</time>
      </trkpt>
      <trkpt lat="40.421200" lon="-4.845600">
        <ele>2175.0</ele>
        <time>2018-06-23T13:58:16Z</time>
      </trkpt>
      <trkpt lat="40.421133" lon="-4.845667">
        <ele>2177.0</ele>
        <time>2018-06-23T13:58:17Z</time>
      </trkpt>
      <trkpt lat="40.421067" lon="-4.845750">
        <ele>2180.0</ele>
        <time>2018-06-23T13:58:18Z</time>
      </trkpt>
      <trkpt lat="40.421017" lon="-4.845833">
        <ele>2182.0</ele>
        <time>2018-06-23T13:58:19Z</time>
      </trkpt>
      <trkpt lat="40.420983" lon="-4.845917">
        <ele>2184.0</ele>
        <time>2018-06-23T13:58:20Z</time>
      </trkpt>
      <trkpt lat="40.420967" lon="-4.846033">
        <ele>2185.0</ele>
        <time>2018-06-23T13:58:21Z</time>
      </trkpt>
      <trkpt lat="40.420967" lon="-4.846133">
        <ele>2185.0</ele>
        <time>2018-06-23T13:58:22Z</time>
      </trkpt>
      <trkpt lat="40.420983" lon="-4.846250">
        <ele>2187.0</ele>
        <time>2018-06-23T13:58:23Z</time>
      </trkpt>
      <trkpt lat="40.421033" lon="-4.846350">
        <ele>2189.0</ele>
        <time>2018-06-23T13:58:24Z</time>
      </trkpt>
      <trkpt lat="40.421100" lon="-4.846417">
        <ele>2191.0</ele>
        <time>2018-06-23T13:58:25Z</time>
      </trkpt>
      <trkpt lat="40.421200" lon="-4.846400">
        <ele>2195.0</ele>
        <time>2018-06-23T13:58:26Z</time>
      </trkpt>
      <trkpt lat="40.421300" lon="-4.846383">
        <ele>2199.0</ele>
        <time>2018-06-23T13:58:27Z</time>
      </trkpt>
      <trkpt lat="40.421383" lon="-4.846317">
        <ele>2201.0</ele>
        <time>2018-06-23T13:58:28Z</time>
      </trkpt>
      <trkpt lat="40.421483" lon="-4.846217">
        <ele>2203.0</ele>
        <time>2018-06-23T13:58:29Z</time>
      </trkpt>
      <trkpt lat="40.421550" lon="-4.846083">
        <ele>2206.0</ele>
        <time>2018-06-23T13:58:30Z</time>
      </trkpt>
      <trkpt lat="40.421600" lon="-4.845950">
        <ele>2210.0</ele>
        <time>2018-06-23T13:58:31Z</time>
      </trkpt>
      <trkpt lat="40.421617" lon="-4.845800">
        <ele>2214.0</ele>
        <time>2018-06-23T13:58:32Z</time>
      </trkpt>
      <trkpt lat="40.421583" lon="-4.845650">
        <ele>2216.0</ele>
        <time>2018-06-23T13:58:33Z</time>
      </trkpt>
      <trkpt lat="40.421533" lon="-4.845517">
        <ele>2217.0</ele>
        <time>2018-06-23T13:58:34Z</time>
      </trkpt>
      <trkpt lat="40.421450" lon="-4.845417">
        <ele>2220.0</ele>
        <time>2018-06-23T13:58:35Z</time>
      </trkpt>
      <trkpt lat="40.421367" lon="-4.845350">
        <ele>2223.0</ele>
        <time>2018-06-23T13:58:36Z</time>
      </trkpt>
      <trkpt lat="40.421267" lon="-4.845333">
        <ele>2225.0</ele>
        <time>2018-06-23T13:58:37Z</time>
      </trkpt>
      <trkpt lat="40.421150" lon="-4.845367">
        <ele>2227.0</ele>
        <time>2018-06-23T13:58:38Z</time>
      </trkpt>
      <trkpt lat="40.421067" lon="-4.845433">
        <ele>2229.0</ele>
        <time>2018-06-23T13:58:39Z</time>
      </trkpt>
      <trkpt lat="40.421017" lon="-4.845517">
        <ele>2231.0</ele>
        <time>2018-06-23T13:58:40Z</time>
      </trkpt>
      <trkpt lat="40.420967" lon="-4.845617">
        <ele>2233.0</ele>
        <time>2018-06-23T13:58:41Z</time>
      </trkpt>
      <trkpt lat="40.420933" lon="-4.845717">
        <ele>2236.0</ele>
        <time>2018-06-23T13:58:42Z</time>
      </trkpt>
      <trkpt lat="40.420900" lon="-4.845817">
        <ele>2239.0</ele>
        <time>2018-06-23T13:58:43Z</time>
      </trkpt>
      <trkpt lat="40.420900" lon="-4.845917">
        <ele>2240.0</ele>
        <time>2018-06-23T13:58:44Z</time>
      </trkpt>
      <trkpt lat="40.420900" lon="-4.846017">
        <ele>2241.0</ele>
        <time>2018-06-23T13:58:45Z</time>
      </trkpt>
      <trkpt lat="40.420933" lon="-4.846117">
        <ele>2243.0</ele>
        <time>2018-06-23T13:58:46Z</time>
      </trkpt>
      <trkpt lat="40.420983" lon="-4.846183">
        <ele>2245.0</ele>
        <time>2018-06-23T13:58:47Z</time>
      </trkpt>
      <trkpt lat="40.421083" lon="-4.846217">
        <ele>2248.0</ele>
        <time>2018-06-23T13:58:48Z</time>
      </trkpt>
      <trkpt lat="40.421167" lon="-4.846200">
        <ele>2251.0</ele>
        <time>2018-06-23T13:58:49Z</time>
      </trkpt>
      <trkpt lat="40.421267" lon="-4.846117">
        <ele>2254.0</ele>
        <time>2018-06-23T13:58:50Z</time>
      </trkpt>
      <trkpt lat="40.421333" lon="-4.846017">
        <ele>2257.0</ele>
        <time>2018-06-23T13:58:51Z</time>
      </trkpt>
      <trkpt lat="40.421383" lon="-4.845883">
        <ele>2260.0</ele>
        <time>2018-06-23T13:58:52Z</time>
      </trkpt>
      <trkpt lat="40.421417" lon="-4.845733">
        <ele>2264.0</ele>
        <time>2018-06-23T13:58:53Z</time>
      </trkpt>
      <trkpt lat="40.421400" lon="-4.845583">
        <ele>2267.0</ele>
        <time>2018-06-23T13:58:54Z</time>
      </trkpt>
      <trkpt lat="40.421367" lon="-4.845417">
        <ele>2270.0</ele>
        <time>2018-06-23T13:58:55Z</time>
      </trkpt>
      <trkpt lat="40.421300" lon="-4.845300">
        <ele>2272.0</ele>
        <time>2018-06-23T13:58:56Z</time>
      </trkpt>
      <trkpt lat="40.421233" lon="-4.845233">
        <ele>2274.0</ele>
        <time>2018-06-23T13:58:57Z</time>
      </trkpt>
      <trkpt lat="40.421150" lon="-4.845200">
        <ele>2276.0</ele>
        <time>2018-06-23T13:58:58Z</time>
      </trkpt>
      <trkpt lat="40.421050" lon="-4.845183">
        <ele>2279.0</ele>
        <time>2018-06-23T13:58:59Z</time>
      </trkpt>
      <trkpt lat="40.420950" lon="-4.845217">
        <ele>2281.0</ele>
        <time>2018-06-23T13:59:00Z</time>
      </trkpt>
      <trkpt lat="40.420867" lon="-4.845267">
        <ele>2282.0</ele>
        <time>2018-06-23T13:59:01Z</time>
      </trkpt>
      <trkpt lat="40.420800" lon="-4.845350">
        <ele>2283.0</ele>
        <time>2018-06-23T13:59:02Z</time>
      </trkpt>
      <trkpt lat="40.420733" lon="-4.845467">
        <ele>2285.0</ele>
        <time>2018-06-23T13:59:03Z</time>
      </trkpt>
      <trkpt lat="40.420683" lon="-4.845600">
        <ele>2286.0</ele>
        <time>2018-06-23T13:59:04Z</time>
      </trkpt>
      <trkpt lat="40.420650" lon="-4.845717">
        <ele>2288.0</ele>
        <time>2018-06-23T13:59:05Z</time>
      </trkpt>
      <trkpt lat="40.420650" lon="-4.845817">
        <ele>2290.0</ele>
        <time>2018-06-23T13:59:06Z</time>
      </trkpt>
      <trkpt lat="40.420667" lon="-4.845917">
        <ele>2292.0</ele>
        <time>2018-06-23T13:59:07Z</time>
      </trkpt>
      <trkpt lat="40.420750" lon="-4.845983">
        <ele>2293.0</ele>
        <time>2018-06-23T13:59:08Z</time>
      </trkpt>
      <trkpt lat="40.420867" lon="-4.846017">
        <ele>2290.0</ele>
        <time>2018-06-23T13:59:09Z</time>
      </trkpt>
      <trkpt lat="40.420967" lon="-4.846050">
        <ele>2291.0</ele>
        <time>2018-06-23T13:59:10Z</time>
      </trkpt>
      <trkpt lat="40.421050" lon="-4.846083">
        <ele>2294.0</ele>
        <time>2018-06-23T13:59:11Z</time>
      </trkpt>
      <trkpt lat="40.421133" lon="-4.846133">
        <ele>2295.0</ele>
        <time>2018-06-23T13:59:12Z</time>
      </trkpt>
      <trkpt lat="40.421217" lon="-4.846183">
        <ele>2298.0</ele>
        <time>2018-06-23T13:59:13Z</time>
      </trkpt>
      <trkpt lat="40.421283" lon="-4.846233">
        <ele>2302.0</ele>
        <time>2018-06-23T13:59:14Z</time>
      </trkpt>
      <trkpt lat="40.421367" lon="-4.846267">
        <ele>2308.0</ele>
        <time>2018-06-23T13:59:15Z</time>
      </trkpt>
      <trkpt lat="40.421417" lon="-4.846283">
        <ele>2312.0</ele>
        <time>2018-06-23T13:59:16Z</time>
      </trkpt>
      <trkpt lat="40.421467" lon="-4.846300">
        <ele>2313.0</ele>
        <time>2018-06-23T13:59:17Z</time>
      </trkpt>
      <trkpt lat="40.421517" lon="-4.846333">
        <ele>2314.0</ele>
        <time>2018-06-23T13:59:18Z</time>
      </trkpt>
      <trkpt lat="40.421567" lon="-4.846400">
        <ele>2314.0</ele>
        <time>2018-06-23T13:59:19Z</time>
      </trkpt>
      <trkpt lat="40.421583" lon="-4.846533">
        <ele>2314.0</ele>
        <time>2018-06-23T13:59:20Z</time>
      </trkpt>
      <trkpt lat="40.421583" lon="-4.846650">
        <ele>2316.0</ele>
        <time>2018-06-23T13:59:21Z</time>
      </trkpt>
      <trkpt lat="40.421533" lon="-4.846750">
        <ele>2317.0</ele>
        <time>2018-06-23T13:59:22Z</time>
      </trkpt>
      <trkpt lat="40.421483" lon="-4.846833">
        <ele>2319.0</ele>
        <time>2018-06-23T13:59:23Z</time>
      </trkpt>
      <trkpt lat="40.421417" lon="-4.846900">
        <ele>2320.0</ele>
        <time>2018-06-23T13:59:24Z</time>
      </trkpt>
      <trkpt lat="40.421317" lon="-4.846917">
        <ele>2321.0</ele>
        <time>2018-06-23T13:59:25Z</time>
      </trkpt>
      <trkpt lat="40.421233" lon="-4.846883">
        <ele>2322.0</ele>
        <time>2018-06-23T13:59:26Z</time>
      </trkpt>
      <trkpt lat="40.421150" lon="-4.846817">
        <ele>2323.0</ele>
        <time>2018-06-23T13:59:27Z</time>
      </trkpt>
      <trkpt lat="40.421117" lon="-4.846700">
        <ele>2324.0</ele>
        <time>2018-06-23T13:59:28Z</time>
      </trkpt>
      <trkpt lat="40.421117" lon="-4.846550">
        <ele>2324.0</ele>
        <time>2018-06-23T13:59:29Z</time>
      </trkpt>
      <trkpt lat="40.421117" lon="-4.846417">
        <ele>2324.0</ele>
        <time>2018-06-23T13:59:30Z</time>
      </trkpt>
      <trkpt lat="40.421150" lon="-4.846267">
        <ele>2324.0</ele>
        <time>2018-06-23T13:59:31Z</time>
      </trkpt>
      <trkpt lat="40.421200" lon="-4.846150">
        <ele>2325.0</ele>
        <time>2018-06-23T13:59:32Z</time>
      </trkpt>
      <trkpt lat="40.421283" lon="-4.846050">
        <ele>2326.0</ele>
        <time>2018-06-23T13:59:33Z</time>
      </trkpt>
      <trkpt lat="40.421383" lon="-4.846000">
        <ele>2328.0</ele>
        <time>2018-06-23T13:59:34Z</time>
      </trkpt>
      <trkpt lat="40.421483" lon="-4.846000">
        <ele>2331.0</ele>
        <time>2018-06-23T13:59:35Z</time>
      </trkpt>
      <trkpt lat="40.421567" lon="-4.846033">
        <ele>2335.0</ele>
        <time>2018-06-23T13:59:36Z</time>
      </trkpt>
      <trkpt lat="40.421633" lon="-4.846050">
        <ele>2338.0</ele>
        <time>2018-06-23T13:59:37Z</time>
      </trkpt>
      <trkpt lat="40.421683" lon="-4.846133">
        <ele>2341.0</ele>
        <time>2018-06-23T13:59:38Z</time>
      </trkpt>
      <trkpt lat="40.421717" lon="-4.846217">
        <ele>2343.0</ele>
        <time>2018-06-23T13:59:39Z</time>
      </trkpt>
      <trkpt lat="40.421717" lon="-4.846300">
        <ele>2344.0</ele>
        <time>2018-06-23T13:59:40Z</time>
      </trkpt>
      <trkpt lat="40.421700" lon="-4.846400">
        <ele>2345.0</ele>
        <time>2018-06-23T13:59:41Z</time>
      </trkpt>
      <trkpt lat="40.421667" lon="-4.846467">
        <ele>2346.0</ele>
        <time>2018-06-23T13:59:42Z</time>
      </trkpt>
      <trkpt lat="40.421583" lon="-4.846517">
        <ele>2347.0</ele>
        <time>2018-06-23T13:59:43Z</time>
      </trkpt>
      <trkpt lat="40.421483" lon="-4.846533">
        <ele>2348.0</ele>
        <time>2018-06-23T13:59:44Z</time>
      </trkpt>
      <trkpt lat="40.421383" lon="-4.846483">
        <ele>2349.0</ele>
        <time>2018-06-23T13:59:45Z</time>
      </trkpt>
      <trkpt lat="40.421317" lon="-4.846400">
        <ele>2350.0</ele>
        <time>2018-06-23T13:59:46Z</time>
      </trkpt>
      <trkpt lat="40.421283" lon="-4.846250">
        <ele>2350.0</ele>
        <time>2018-06-23T13:59:47Z</time>
      </trkpt>
      <trkpt lat="40.421283" lon="-4.846100">
        <ele>2351.0</ele>
        <time>2018-06-23T13:59:48Z</time>
      </trkpt>
      <trkpt lat="40.421283" lon="-4.845967">
        <ele>2352.0</ele>
        <time>2018-06-23T13:59:49Z</time>
      </trkpt>
      <trkpt lat="40.421317" lon="-4.845850">
        <ele>2353.0</ele>
        <time>2018-06-23T13:59:50Z</time>
      </trkpt>
      <trkpt lat="40.421367" lon="-4.845783">
        <ele>2354.0</ele>
        <time>2018-06-23T13:59:51Z</time>
      </trkpt>
      <trkpt lat="40.421433" lon="-4.845750">
        <ele>2356.0</ele>
        <time>2018-06-23T13:59:52Z</time>
      </trkpt>
      <trkpt lat="40.421517" lon="-4.845717">
        <ele>2357.0</ele>
        <time>2018-06-23T13:59:53Z</time>
      </trkpt>
      <trkpt lat="40.421600" lon="-4.845683">
        <ele>2359.0</ele>
        <time>2018-06-23T13:59:54Z</time>
      </trkpt>
      <trkpt lat="40.421700" lon="-4.845650">
        <ele>2360.0</ele>
        <time>2018-06-23T13:59:55Z</time>
      </trkpt>
      <trkpt lat="40.421783" lon="-4.845633">
        <ele>2362.0</ele>
        <time>2018-06-23T13:59:56Z</time>
      </trkpt>
      <trkpt lat="40.421867" lon="-4.845617">
        <ele>2364.0</ele>
        <time>2018-06-23T13:59:57Z</time>
      </trkpt>
      <trkpt lat="40.421967" lon="-4.845600">
        <ele>2365.0</ele>
        <time>2018-06-23T13:59:58Z</time>
      </trkpt>
      <trkpt lat="40.422033" lon="-4.845633">
        <ele>2367.0</ele>
        <time>2018-06-23T13:59:59Z</time>
      </trkpt>
      <trkpt lat="40.422100" lon="-4.845667">
        <ele>2369.0</ele>
        <time>2018-06-23T14:00:00Z</time>
      </trkpt>
      <trkpt lat="40.422167" lon="-4.845733">
        <ele>2371.0</ele>
        <time>2018-06-23T14:00:01Z</time>
      </trkpt>
      <trkpt lat="40.422200" lon="-4.845783">
        <ele>2373.0</ele>
        <time>2018-06-23T14:00:02Z</time>
      </trkpt>
      <trkpt lat="40.422217" lon="-4.845867">
        <ele>2374.0</ele>
        <time>2018-06-23T14:00:03Z</time>
      </trkpt>
      <trkpt lat="40.422183" lon="-4.845933">
        <ele>2375.0</ele>
        <time>2018-06-23T14:00:04Z</time>
      </trkpt>
      <trkpt lat="40.422150" lon="-4.846000">
        <ele>2376.0</ele>
        <time>2018-06-23T14:00:05Z</time>
      </trkpt>
      <trkpt lat="40.422083" lon="-4.846050">
        <ele>2376.0</ele>
        <time>2018-06-23T14:00:06Z</time>
      </trkpt>
      <trkpt lat="40.422017" lon="-4.846067">
        <ele>2376.0</ele>
        <time>2018-06-23T14:00:07Z</time>
      </trkpt>
      <trkpt lat="40.421933" lon="-4.846033">
        <ele>2376.0</ele>
        <time>2018-06-23T14:00:08Z</time>
      </trkpt>
      <trkpt lat="40.421833" lon="-4.845983">
        <ele>2376.0</ele>
        <time>2018-06-23T14:00:09Z</time>
      </trkpt>
      <trkpt lat="40.421767" lon="-4.845883">
        <ele>2376.0</ele>
        <time>2018-06-23T14:00:10Z</time>
      </trkpt>
      <trkpt lat="40.421733" lon="-4.845750">
        <ele>2377.0</ele>
        <time>2018-06-23T14:00:11Z</time>
      </trkpt>
      <trkpt lat="40.421700" lon="-4.845583">
        <ele>2378.0</ele>
        <time>2018-06-23T14:00:12Z</time>
      </trkpt>
      <trkpt lat="40.421700" lon="-4.845433">
        <ele>2378.0</ele>
        <time>2018-06-23T14:00:13Z</time>
      </trkpt>
      <trkpt lat="40.421733" lon="-4.845283">
        <ele>2378.0</ele>
        <time>2018-06-23T14:00:14Z</time>
      </trkpt>
      <trkpt lat="40.421800" lon="-4.845183">
        <ele>2377.0</ele>
        <time>2018-06-23T14:00:15Z</time>
      </trkpt>
      <trkpt lat="40.421883" lon="-4.845133">
        <ele>2376.0</ele>
        <time>2018-06-23T14:00:16Z</time>
      </trkpt>
      <trkpt lat="40.421967" lon="-4.845117">
        <ele>2380.0</ele>
        <time>2018-06-23T14:00:17Z</time>
      </trkpt>
      <trkpt lat="40.422033" lon="-4.845100">
        <ele>2383.0</ele>
        <time>2018-06-23T14:00:18Z</time>
      </trkpt>
      <trkpt lat="40.422100" lon="-4.845083">
        <ele>2386.0</ele>
        <time>2018-06-23T14:00:19Z</time>
      </trkpt>
      <trkpt lat="40.422183" lon="-4.845067">
        <ele>2387.0</ele>
        <time>2018-06-23T14:00:20Z</time>
      </trkpt>
      <trkpt lat="40.422250" lon="-4.845050">
        <ele>2388.0</ele>
        <time>2018-06-23T14:00:21Z</time>
      </trkpt>
      <trkpt lat="40.422333" lon="-4.845017">
        <ele>2390.0</ele>
        <time>2018-06-23T14:00:22Z</time>
      </trkpt>
      <trkpt lat="40.422417" lon="-4.845000">
        <ele>2393.0</ele>
        <time>2018-06-23T14:00:23Z</time>
      </trkpt>
      <trkpt lat="40.422483" lon="-4.845000">
        <ele>2396.0</ele>
        <time>2018-06-23T14:00:24Z</time>
      </trkpt>
      <trkpt lat="40.422567" lon="-4.844983">
        <ele>2398.0</ele>
        <time>2018-06-23T14:00:25Z</time>
      </trkpt>
      <trkpt lat="40.422633" lon="-4.844983">
        <ele>2400.0</ele>
        <time>2018-06-23T14:00:26Z</time>
      </trkpt>
      <trkpt lat="40.422700" lon="-4.845000">
        <ele>2402.0</ele>
        <time>2018-06-23T14:00:27Z</time>
      </trkpt>
      <trkpt lat="40.422750" lon="-4.845050">
        <ele>2403.0</ele>
        <time>2018-06-23T14:00:28Z</time>
      </trkpt>
      <trkpt lat="40.422783" lon="-4.845100">
        <ele>2403.0</ele>
        <time>2018-06-23T14:00:29Z</time>
      </trkpt>
      <trkpt lat="40.422783" lon="-4.845183">
        <ele>2405.0</ele>
        <time>2018-06-23T14:00:30Z</time>
      </trkpt>
      <trkpt lat="40.422767" lon="-4.845283">
        <ele>2406.0</ele>
        <time>2018-06-23T14:00:31Z</time>
      </trkpt>
      <trkpt lat="40.422733" lon="-4.845350">
        <ele>2408.0</ele>
        <time>2018-06-23T14:00:32Z</time>
      </trkpt>
      <trkpt lat="40.422700" lon="-4.845383">
        <ele>2410.0</ele>
        <time>2018-06-23T14:00:33Z</time>
      </trkpt>
      <trkpt lat="40.422650" lon="-4.845417">
        <ele>2411.0</ele>
        <time>2018-06-23T14:00:34Z</time>
      </trkpt>
      <trkpt lat="40.422583" lon="-4.845433">
        <ele>2412.0</ele>
        <time>2018-06-23T14:00:35Z</time>
      </trkpt>
      <trkpt lat="40.422483" lon="-4.845433">
        <ele>2413.0</ele>
        <time>2018-06-23T14:00:36Z</time>
      </trkpt>
      <trkpt lat="40.422383" lon="-4.845400">
        <ele>2414.0</ele>
        <time>2018-06-23T14:00:37Z</time>
      </trkpt>
      <trkpt lat="40.422300" lon="-4.845317">
        <ele>2415.0</ele>
        <time>2018-06-23T14:00:38Z</time>
      </trkpt>
      <trkpt lat="40.422250" lon="-4.845183">
        <ele>2415.0</ele>
        <time>2018-06-23T14:00:39Z</time>
      </trkpt>
      <trkpt lat="40.422217" lon="-4.845033">
        <ele>2418.0</ele>
        <time>2018-06-23T14:00:40Z</time>
      </trkpt>
      <trkpt lat="40.422217" lon="-4.844883">
        <ele>2418.0</ele>
        <time>2018-06-23T14:00:41Z</time>
      </trkpt>
      <trkpt lat="40.422250" lon="-4.844750">
        <ele>2417.0</ele>
        <time>2018-06-23T14:00:42Z</time>
      </trkpt>
      <trkpt lat="40.422317" lon="-4.844633">
        <ele>2417.0</ele>
        <time>2018-06-23T14:00:43Z</time>
      </trkpt>
      <trkpt lat="40.422400" lon="-4.844550">
        <ele>2417.0</ele>
        <time>2018-06-23T14:00:44Z</time>
      </trkpt>
      <trkpt lat="40.422483" lon="-4.844500">
        <ele>2414.0</ele>
        <time>2018-06-23T14:00:45Z</time>
      </trkpt>
      <trkpt lat="40.422583" lon="-4.844500">
        <ele>2413.0</ele>
        <time>2018-06-23T14:00:46Z</time>
      </trkpt>
      <trkpt lat="40.422667" lon="-4.844517">
        <ele>2415.0</ele>
        <time>2018-06-23T14:00:47Z</time>
      </trkpt>
      <trkpt lat="40.422750" lon="-4.844533">
        <ele>2416.0</ele>
        <time>2018-06-23T14:00:48Z</time>
      </trkpt>
      <trkpt lat="40.422817" lon="-4.844550">
        <ele>2418.0</ele>
        <time>2018-06-23T14:00:49Z</time>
      </trkpt>
      <trkpt lat="40.422867" lon="-4.844583">
        <ele>2419.0</ele>
        <time>2018-06-23T14:00:50Z</time>
      </trkpt>
      <trkpt lat="40.422933" lon="-4.844600">
        <ele>2420.0</ele>
        <time>2018-06-23T14:00:51Z</time>
      </trkpt>
      <trkpt lat="40.423000" lon="-4.844600">
        <ele>2421.0</ele>
        <time>2018-06-23T14:00:52Z</time>
      </trkpt>
      <trkpt lat="40.423083" lon="-4.844617">
        <ele>2420.0</ele>
        <time>2018-06-23T14:00:53Z</time>
      </trkpt>
      <trkpt lat="40.423150" lon="-4.844633">
        <ele>2421.0</ele>
        <time>2018-06-23T14:00:54Z</time>
      </trkpt>
      <trkpt lat="40.423233" lon="-4.844650">
        <ele>2421.0</ele>
        <time>2018-06-23T14:00:55Z</time>
      </trkpt>
      <trkpt lat="40.423317" lon="-4.844650">
        <ele>2423.0</ele>
        <time>2018-06-23T14:00:56Z</time>
      </trkpt>
      <trkpt lat="40.423383" lon="-4.844667">
        <ele>2424.0</ele>
        <time>2018-06-23T14:00:57Z</time>
      </trkpt>
      <trkpt lat="40.423450" lon="-4.844683">
        <ele>2425.0</ele>
        <time>2018-06-23T14:00:58Z</time>
      </trkpt>
      <trkpt lat="40.423533" lon="-4.844717">
        <ele>2425.0</ele>
        <time>2018-06-23T14:00:59Z</time>
      </trkpt>
      <trkpt lat="40.423600" lon="-4.844750">
        <ele>2426.0</ele>
        <time>2018-06-23T14:01:00Z</time>
      </trkpt>
      <trkpt lat="40.423683" lon="-4.844767">
        <ele>2427.0</ele>
        <time>2018-06-23T14:01:01Z</time>
      </trkpt>
      <trkpt lat="40.423783" lon="-4.844767">
        <ele>2427.0</ele>
        <time>2018-06-23T14:01:02Z</time>
      </trkpt>
      <trkpt lat="40.423883" lon="-4.844733">
        <ele>2428.0</ele>
        <time>2018-06-23T14:01:03Z</time>
      </trkpt>
      <trkpt lat="40.423983" lon="-4.844700">
        <ele>2430.0</ele>
        <time>2018-06-23T14:01:04Z</time>
      </trkpt>
      <trkpt lat="40.424083" lon="-4.844650">
        <ele>2432.0</ele>
        <time>2018-06-23T14:01:05Z</time>
      </trkpt>
      <trkpt lat="40.424167" lon="-4.844617">
        <ele>2433.0</ele>
        <time>2018-06-23T14:01:06Z</time>
      </trkpt>
      <trkpt lat="40.424267" lon="-4.844583">
        <ele>2434.0</ele>
        <time>2018-06-23T14:01:07Z</time>
      </trkpt>
      <trkpt lat="40.424350" lon="-4.844533">
        <ele>2434.0</ele>
        <time>2018-06-23T14:01:08Z</time>
      </trkpt>
      <trkpt lat="40.424450" lon="-4.844483">
        <ele>2433.0</ele>
        <time>2018-06-23T14:01:09Z</time>
      </trkpt>
      <trkpt lat="40.424550" lon="-4.844450">
        <ele>2433.0</ele>
        <time>2018-06-23T14:01:10Z</time>
      </trkpt>
      <trkpt lat="40.424650" lon="-4.844400">
        <ele>2433.0</ele>
        <time>2018-06-23T14:01:11Z</time>
      </trkpt>
      <trkpt lat="40.424750" lon="-4.844367">
        <ele>2433.0</ele>
        <time>2018-06-23T14:01:12Z</time>
      </trkpt>
      <trkpt lat="40.424867" lon="-4.844317">
        <ele>2433.0</ele>
        <time>2018-06-23T14:01:13Z</time>
      </trkpt>
      <trkpt lat="40.424967" lon="-4.844267">
        <ele>2433.0</ele>
        <time>2018-06-23T14:01:14Z</time>
      </trkpt>
      <trkpt lat="40.425083" lon="-4.844233">
        <ele>2432.0</ele>
        <time>2018-06-23T14:01:15Z</time>
      </trkpt>
      <trkpt lat="40.425183" lon="-4.844200">
        <ele>2432.0</ele>
        <time>2018-06-23T14:01:16Z</time>
      </trkpt>
      <trkpt lat="40.425283" lon="-4.844167">
        <ele>2431.0</ele>
        <time>2018-06-23T14:01:17Z</time>
      </trkpt>
      <trkpt lat="40.425367" lon="-4.844100">
        <ele>2430.0</ele>
        <time>2018-06-23T14:01:18Z</time>
      </trkpt>
      <trkpt lat="40.425467" lon="-4.844050">
        <ele>2429.0</ele>
        <time>2018-06-23T14:01:19Z</time>
      </trkpt>
      <trkpt lat="40.425550" lon="-4.844000">
        <ele>2428.0</ele>
        <time>2018-06-23T14:01:20Z</time>
      </trkpt>
      <trkpt lat="40.425633" lon="-4.843967">
        <ele>2426.0</ele>
        <time>2018-06-23T14:01:21Z</time>
      </trkpt>
      <trkpt lat="40.425733" lon="-4.843917">
        <ele>2424.0</ele>
        <time>2018-06-23T14:01:22Z</time>
      </trkpt>
      <trkpt lat="40.425833" lon="-4.843867">
        <ele>2421.0</ele>
        <time>2018-06-23T14:01:23Z</time>
      </trkpt>
      <trkpt lat="40.425933" lon="-4.843817">
        <ele>2419.0</ele>
        <time>2018-06-23T14:01:24Z</time>
      </trkpt>
      <trkpt lat="40.426033" lon="-4.843783">
        <ele>2416.0</ele>
        <time>2018-06-23T14:01:25Z</time>
      </trkpt>
      <trkpt lat="40.426150" lon="-4.843750">
        <ele>2413.0</ele>
        <time>2018-06-23T14:01:26Z</time>
      </trkpt>
      <trkpt lat="40.426250" lon="-4.843750">
        <ele>2411.0</ele>
        <time>2018-06-23T14:01:27Z</time>
      </trkpt>
      <trkpt lat="40.426367" lon="-4.843750">
        <ele>2409.0</ele>
        <time>2018-06-23T14:01:28Z</time>
      </trkpt>
      <trkpt lat="40.426467" lon="-4.843783">
        <ele>2408.0</ele>
        <time>2018-06-23T14:01:29Z</time>
      </trkpt>
      <trkpt lat="40.426567" lon="-4.843800">
        <ele>2406.0</ele>
        <time>2018-06-23T14:01:30Z</time>
      </trkpt>
      <trkpt lat="40.426667" lon="-4.843817">
        <ele>2404.0</ele>
        <time>2018-06-23T14:01:31Z</time>
      </trkpt>
      <trkpt lat="40.426750" lon="-4.843850">
        <ele>2402.0</ele>
        <time>2018-06-23T14:01:32Z</time>
      </trkpt>
      <trkpt lat="40.426850" lon="-4.843917">
        <ele>2400.0</ele>
        <time>2018-06-23T14:01:33Z</time>
      </trkpt>
      <trkpt lat="40.426950" lon="-4.843967">
        <ele>2398.0</ele>
        <time>2018-06-23T14:01:34Z</time>
      </trkpt>
      <trkpt lat="40.427050" lon="-4.844017">
        <ele>2396.0</ele>
        <time>2018-06-23T14:01:35Z</time>
      </trkpt>
      <trkpt lat="40.427133" lon="-4.844067">
        <ele>2395.0</ele>
        <time>2018-06-23T14:01:36Z</time>
      </trkpt>
      <trkpt lat="40.427233" lon="-4.844117">
        <ele>2394.0</ele>
        <time>2018-06-23T14:01:37Z</time>
      </trkpt>
      <trkpt lat="40.427333" lon="-4.844167">
        <ele>2394.0</ele>
        <time>2018-06-23T14:01:38Z</time>
      </trkpt>
      <trkpt lat="40.427417" lon="-4.844233">
        <ele>2393.0</ele>
        <time>2018-06-23T14:01:39Z</time>
      </trkpt>
      <trkpt lat="40.427500" lon="-4.844317">
        <ele>2393.0</ele>
        <time>2018-06-23T14:01:40Z</time>
      </trkpt>
      <trkpt lat="40.427583" lon="-4.844383">
        <ele>2393.0</ele>
        <time>2018-06-23T14:01:41Z</time>
      </trkpt>
      <trkpt lat="40.427667" lon="-4.844417">
        <ele>2393.0</ele>
        <time>2018-06-23T14:01:42Z</time>
      </trkpt>
      <trkpt lat="40.427767" lon="-4.844467">
        <ele>2393.0</ele>
        <time>2018-06-23T14:01:43Z</time>
      </trkpt>
      <trkpt lat="40.427850" lon="-4.844500">
        <ele>2392.0</ele>
        <time>2018-06-23T14:01:44Z</time>
      </trkpt>
      <trkpt lat="40.427950" lon="-4.844550">
        <ele>2391.0</ele>
        <time>2018-06-23T14:01:45Z</time>
      </trkpt>
      <trkpt lat="40.428067" lon="-4.844600">
        <ele>2390.0</ele>
        <time>2018-06-23T14:01:46Z</time>
      </trkpt>
      <trkpt lat="40.428167" lon="-4.844667">
        <ele>2390.0</ele>
        <time>2018-06-23T14:01:47Z</time>
      </trkpt>
      <trkpt lat="40.428283" lon="-4.844717">
        <ele>2390.0</ele>
        <time>2018-06-23T14:01:48Z</time>
      </trkpt>
      <trkpt lat="40.428383" lon="-4.844783">
        <ele>2391.0</ele>
        <time>2018-06-23T14:01:49Z</time>
      </trkpt>
      <trkpt lat="40.428483" lon="-4.844833">
        <ele>2391.0</ele>
        <time>2018-06-23T14:01:50Z</time>
      </trkpt>
      <trkpt lat="40.428583" lon="-4.844900">
        <ele>2391.0</ele>
        <time>2018-06-23T14:01:51Z</time>
      </trkpt>
      <trkpt lat="40.428683" lon="-4.844967">
        <ele>2391.0</ele>
        <time>2018-06-23T14:01:52Z</time>
      </trkpt>
      <trkpt lat="40.428783" lon="-4.845033">
        <ele>2390.0</ele>
        <time>2018-06-23T14:01:53Z</time>
      </trkpt>
      <trkpt lat="40.428883" lon="-4.845083">
        <ele>2390.0</ele>
        <time>2018-06-23T14:01:54Z</time>
      </trkpt>
      <trkpt lat="40.429000" lon="-4.845150">
        <ele>2391.0</ele>
        <time>2018-06-23T14:01:55Z</time>
      </trkpt>
      <trkpt lat="40.429117" lon="-4.845233">
        <ele>2391.0</ele>
        <time>2018-06-23T14:01:56Z</time>
      </trkpt>
      <trkpt lat="40.429217" lon="-4.845300">
        <ele>2392.0</ele>
        <time>2018-06-23T14:01:57Z</time>
      </trkpt>
      <trkpt lat="40.429317" lon="-4.845367">
        <ele>2394.0</ele>
        <time>2018-06-23T14:01:58Z</time>
      </trkpt>
      <trkpt lat="40.429433" lon="-4.845417">
        <ele>2395.0</ele>
        <time>2018-06-23T14:01:59Z</time>
      </trkpt>
      <trkpt lat="40.429533" lon="-4.845450">
        <ele>2396.0</ele>
        <time>2018-06-23T14:02:00Z</time>
      </trkpt>
      <trkpt lat="40.429667" lon="-4.845500">
        <ele>2397.0</ele>
        <time>2018-06-23T14:02:01Z</time>
      </trkpt>
      <trkpt lat="40.429783" lon="-4.845550">
        <ele>2398.0</ele>
        <time>2018-06-23T14:02:02Z</time>
      </trkpt>
      <trkpt lat="40.429900" lon="-4.845583">
        <ele>2400.0</ele>
        <time>2018-06-23T14:02:03Z</time>
      </trkpt>
      <trkpt lat="40.430017" lon="-4.845633">
        <ele>2401.0</ele>
        <time>2018-06-23T14:02:04Z</time>
      </trkpt>
      <trkpt lat="40.430117" lon="-4.845683">
        <ele>2403.0</ele>
        <time>2018-06-23T14:02:05Z</time>
      </trkpt>
      <trkpt lat="40.430233" lon="-4.845750">
        <ele>2404.0</ele>
        <time>2018-06-23T14:02:06Z</time>
      </trkpt>
      <trkpt lat="40.430350" lon="-4.845817">
        <ele>2405.0</ele>
        <time>2018-06-23T14:02:07Z</time>
      </trkpt>
      <trkpt lat="40.430467" lon="-4.845883">
        <ele>2407.0</ele>
        <time>2018-06-23T14:02:08Z</time>
      </trkpt>
      <trkpt lat="40.430567" lon="-4.845983">
        <ele>2409.0</ele>
        <time>2018-06-23T14:02:09Z</time>
      </trkpt>
      <trkpt lat="40.430650" lon="-4.846083">
        <ele>2410.0</ele>
        <time>2018-06-23T14:02:10Z</time>
      </trkpt>
      <trkpt lat="40.430717" lon="-4.846217">
        <ele>2411.0</ele>
        <time>2018-06-23T14:02:11Z</time>
      </trkpt>
      <trkpt lat="40.430750" lon="-4.846350">
        <ele>2412.0</ele>
        <time>2018-06-23T14:02:12Z</time>
      </trkpt>
      <trkpt lat="40.430750" lon="-4.846483">
        <ele>2412.0</ele>
        <time>2018-06-23T14:02:13Z</time>
      </trkpt>
      <trkpt lat="40.430700" lon="-4.846600">
        <ele>2413.0</ele>
        <time>2018-06-23T14:02:14Z</time>
      </trkpt>
      <trkpt lat="40.430650" lon="-4.846683">
        <ele>2413.0</ele>
        <time>2018-06-23T14:02:15Z</time>
      </trkpt>
      <trkpt lat="40.430583" lon="-4.846717">
        <ele>2414.0</ele>
        <time>2018-06-23T14:02:16Z</time>
      </trkpt>
      <trkpt lat="40.430517" lon="-4.846717">
        <ele>2413.0</ele>
        <time>2018-06-23T14:02:17Z</time>
      </trkpt>
      <trkpt lat="40.430450" lon="-4.846683">
        <ele>2412.0</ele>
        <time>2018-06-23T14:02:18Z</time>
      </trkpt>
      <trkpt lat="40.430383" lon="-4.846617">
        <ele>2412.0</ele>
        <time>2018-06-23T14:02:19Z</time>
      </trkpt>
      <trkpt lat="40.430350" lon="-4.846517">
        <ele>2412.0</ele>
        <time>2018-06-23T14:02:20Z</time>
      </trkpt>
      <trkpt lat="40.430367" lon="-4.846400">
        <ele>2412.0</ele>
        <time>2018-06-23T14:02:21Z</time>
      </trkpt>
      <trkpt lat="40.430383" lon="-4.846283">
        <ele>2413.0</ele>
        <time>2018-06-23T14:02:22Z</time>
      </trkpt>
      <trkpt lat="40.430433" lon="-4.846167">
        <ele>2414.0</ele>
        <time>2018-06-23T14:02:23Z</time>
      </trkpt>
      <trkpt lat="40.430483" lon="-4.846067">
        <ele>2416.0</ele>
        <time>2018-06-23T14:02:24Z</time>
      </trkpt>
      <trkpt lat="40.430567" lon="-4.845967">
        <ele>2417.0</ele>
        <time>2018-06-23T14:02:25Z</time>
      </trkpt>
      <trkpt lat="40.430667" lon="-4.845917">
        <ele>2417.0</ele>
        <time>2018-06-23T14:02:26Z</time>
      </trkpt>
      <trkpt lat="40.430783" lon="-4.845867">
        <ele>2418.0</ele>
        <time>2018-06-23T14:02:27Z</time>
      </trkpt>
      <trkpt lat="40.430900" lon="-4.845850">
        <ele>2419.0</ele>
        <time>2018-06-23T14:02:28Z</time>
      </trkpt>
      <trkpt lat="40.431033" lon="-4.845833">
        <ele>2420.0</ele>
        <time>2018-06-23T14:02:29Z</time>
      </trkpt>
      <trkpt lat="40.431150" lon="-4.845833">
        <ele>2421.0</ele>
        <time>2018-06-23T14:02:30Z</time>
      </trkpt>
      <trkpt lat="40.431267" lon="-4.845867">
        <ele>2422.0</ele>
        <time>2018-06-23T14:02:31Z</time>
      </trkpt>
      <trkpt lat="40.431400" lon="-4.845917">
        <ele>2423.0</ele>
        <time>2018-06-23T14:02:32Z</time>
      </trkpt>
      <trkpt lat="40.431517" lon="-4.846017">
        <ele>2424.0</ele>
        <time>2018-06-23T14:02:33Z</time>
      </trkpt>
      <trkpt lat="40.431600" lon="-4.846150">
        <ele>2427.0</ele>
        <time>2018-06-23T14:02:34Z</time>
      </trkpt>
      <trkpt lat="40.431667" lon="-4.846283">
        <ele>2431.0</ele>
        <time>2018-06-23T14:02:35Z</time>
      </trkpt>
      <trkpt lat="40.431683" lon="-4.846433">
        <ele>2434.0</ele>
        <time>2018-06-23T14:02:36Z</time>
      </trkpt>
      <trkpt lat="40.431650" lon="-4.846550">
        <ele>2435.0</ele>
        <time>2018-06-23T14:02:37Z</time>
      </trkpt>
      <trkpt lat="40.431617" lon="-4.846617">
        <ele>2436.0</ele>
        <time>2018-06-23T14:02:38Z</time>
      </trkpt>
      <trkpt lat="40.431567" lon="-4.846667">
        <ele>2435.0</ele>
        <time>2018-06-23T14:02:39Z</time>
      </trkpt>
      <trkpt lat="40.431500" lon="-4.846650">
        <ele>2434.0</ele>
        <time>2018-06-23T14:02:40Z</time>
      </trkpt>
      <trkpt lat="40.431433" lon="-4.846583">
        <ele>2434.0</ele>
        <time>2018-06-23T14:02:41Z</time>
      </trkpt>
      <trkpt lat="40.431383" lon="-4.846500">
        <ele>2434.0</ele>
        <time>2018-06-23T14:02:42Z</time>
      </trkpt>
      <trkpt lat="40.431383" lon="-4.846350">
        <ele>2435.0</ele>
        <time>2018-06-23T14:02:43Z</time>
      </trkpt>
      <trkpt lat="40.431417" lon="-4.846200">
        <ele>2436.0</ele>
        <time>2018-06-23T14:02:44Z</time>
      </trkpt>
      <trkpt lat="40.431450" lon="-4.846067">
        <ele>2437.0</ele>
        <time>2018-06-23T14:02:45Z</time>
      </trkpt>
      <trkpt lat="40.431517" lon="-4.845967">
        <ele>2438.0</ele>
        <time>2018-06-23T14:02:46Z</time>
      </trkpt>
      <trkpt lat="40.431600" lon="-4.845917">
        <ele>2439.0</ele>
        <time>2018-06-23T14:02:47Z</time>
      </trkpt>
      <trkpt lat="40.431717" lon="-4.845867">
        <ele>2440.0</ele>
        <time>2018-06-23T14:02:48Z</time>
      </trkpt>
      <trkpt lat="40.431833" lon="-4.845833">
        <ele>2439.0</ele>
        <time>2018-06-23T14:02:49Z</time>
      </trkpt>
      <trkpt lat="40.431967" lon="-4.845833">
        <ele>2440.0</ele>
        <time>2018-06-23T14:02:50Z</time>
      </trkpt>
      <trkpt lat="40.432100" lon="-4.845867">
        <ele>2442.0</ele>
        <time>2018-06-23T14:02:51Z</time>
      </trkpt>
      <trkpt lat="40.432233" lon="-4.845933">
        <ele>2444.0</ele>
        <time>2018-06-23T14:02:52Z</time>
      </trkpt>
      <trkpt lat="40.432350" lon="-4.846033">
        <ele>2447.0</ele>
        <time>2018-06-23T14:02:53Z</time>
      </trkpt>
      <trkpt lat="40.432433" lon="-4.846150">
        <ele>2448.0</ele>
        <time>2018-06-23T14:02:54Z</time>
      </trkpt>
      <trkpt lat="40.432500" lon="-4.846267">
        <ele>2450.0</ele>
        <time>2018-06-23T14:02:55Z</time>
      </trkpt>
      <trkpt lat="40.432550" lon="-4.846383">
        <ele>2451.0</ele>
        <time>2018-06-23T14:02:56Z</time>
      </trkpt>
      <trkpt lat="40.432550" lon="-4.846500">
        <ele>2451.0</ele>
        <time>2018-06-23T14:02:57Z</time>
      </trkpt>
      <trkpt lat="40.432533" lon="-4.846617">
        <ele>2451.0</ele>
        <time>2018-06-23T14:02:58Z</time>
      </trkpt>
      <trkpt lat="40.432483" lon="-4.846733">
        <ele>2450.0</ele>
        <time>2018-06-23T14:02:59Z</time>
      </trkpt>
      <trkpt lat="40.432400" lon="-4.846783">
        <ele>2448.0</ele>
        <time>2018-06-23T14:03:00Z</time>
      </trkpt>
      <trkpt lat="40.432350" lon="-4.846750">
        <ele>2446.0</ele>
        <time>2018-06-23T14:03:01Z</time>
      </trkpt>
      <trkpt lat="40.432283" lon="-4.846700">
        <ele>2444.0</ele>
        <time>2018-06-23T14:03:02Z</time>
      </trkpt>
      <trkpt lat="40.432267" lon="-4.846633">
        <ele>2442.0</ele>
        <time>2018-06-23T14:03:03Z</time>
      </trkpt>
      <trkpt lat="40.432250" lon="-4.846550">
        <ele>2441.0</ele>
        <time>2018-06-23T14:03:04Z</time>
      </trkpt>
      <trkpt lat="40.432250" lon="-4.846467">
        <ele>2441.0</ele>
        <time>2018-06-23T14:03:05Z</time>
      </trkpt>
      <trkpt lat="40.432283" lon="-4.846367">
        <ele>2440.0</ele>
        <time>2018-06-23T14:03:06Z</time>
      </trkpt>
      <trkpt lat="40.432317" lon="-4.846250">
        <ele>2440.0</ele>
        <time>2018-06-23T14:03:07Z</time>
      </trkpt>
      <trkpt lat="40.432383" lon="-4.846150">
        <ele>2439.0</ele>
        <time>2018-06-23T14:03:08Z</time>
      </trkpt>
      <trkpt lat="40.432467" lon="-4.846083">
        <ele>2439.0</ele>
        <time>2018-06-23T14:03:09Z</time>
      </trkpt>
      <trkpt lat="40.432567" lon="-4.846017">
        <ele>2439.0</ele>
        <time>2018-06-23T14:03:10Z</time>
      </trkpt>
      <trkpt lat="40.432683" lon="-4.845983">
        <ele>2440.0</ele>
        <time>2018-06-23T14:03:11Z</time>
      </trkpt>
      <trkpt lat="40.432783" lon="-4.845967">
        <ele>2441.0</ele>
        <time>2018-06-23T14:03:12Z</time>
      </trkpt>
      <trkpt lat="40.432867" lon="-4.845950">
        <ele>2444.0</ele>
        <time>2018-06-23T14:03:13Z</time>
      </trkpt>
      <trkpt lat="40.432967" lon="-4.845950">
        <ele>2444.0</ele>
        <time>2018-06-23T14:03:14Z</time>
      </trkpt>
      <trkpt lat="40.433050" lon="-4.845983">
        <ele>2443.0</ele>
        <time>2018-06-23T14:03:15Z</time>
      </trkpt>
      <trkpt lat="40.433167" lon="-4.846033">
        <ele>2442.0</ele>
        <time>2018-06-23T14:03:16Z</time>
      </trkpt>
      <trkpt lat="40.433267" lon="-4.846100">
        <ele>2441.0</ele>
        <time>2018-06-23T14:03:17Z</time>
      </trkpt>
      <trkpt lat="40.433367" lon="-4.846200">
        <ele>2440.0</ele>
        <time>2018-06-23T14:03:18Z</time>
      </trkpt>
      <trkpt lat="40.433467" lon="-4.846300">
        <ele>2441.0</ele>
        <time>2018-06-23T14:03:19Z</time>
      </trkpt>
      <trkpt lat="40.433567" lon="-4.846383">
        <ele>2443.0</ele>
        <time>2018-06-23T14:03:20Z</time>
      </trkpt>
      <trkpt lat="40.433667" lon="-4.846433">
        <ele>2445.0</ele>
        <time>2018-06-23T14:03:21Z</time>
      </trkpt>
      <trkpt lat="40.433767" lon="-4.846467">
        <ele>2448.0</ele>
        <time>2018-06-23T14:03:22Z</time>
      </trkpt>
      <trkpt lat="40.433867" lon="-4.846500">
        <ele>2448.0</ele>
        <time>2018-06-23T14:03:23Z</time>
      </trkpt>
      <trkpt lat="40.433967" lon="-4.846517">
        <ele>2448.0</ele>
        <time>2018-06-23T14:03:24Z</time>
      </trkpt>
      <trkpt lat="40.434083" lon="-4.846533">
        <ele>2448.0</ele>
        <time>2018-06-23T14:03:25Z</time>
      </trkpt>
      <trkpt lat="40.434200" lon="-4.846567">
        <ele>2447.0</ele>
        <time>2018-06-23T14:03:26Z</time>
      </trkpt>
      <trkpt lat="40.434317" lon="-4.846583">
        <ele>2447.0</ele>
        <time>2018-06-23T14:03:27Z</time>
      </trkpt>
      <trkpt lat="40.434450" lon="-4.846600">
        <ele>2446.0</ele>
        <time>2018-06-23T14:03:28Z</time>
      </trkpt>
      <trkpt lat="40.434567" lon="-4.846633">
        <ele>2447.0</ele>
        <time>2018-06-23T14:03:29Z</time>
      </trkpt>
      <trkpt lat="40.434700" lon="-4.846650">
        <ele>2447.0</ele>
        <time>2018-06-23T14:03:30Z</time>
      </trkpt>
      <trkpt lat="40.434817" lon="-4.846667">
        <ele>2447.0</ele>
        <time>2018-06-23T14:03:31Z</time>
      </trkpt>
      <trkpt lat="40.434933" lon="-4.846667">
        <ele>2447.0</ele>
        <time>2018-06-23T14:03:32Z</time>
      </trkpt>
      <trkpt lat="40.435050" lon="-4.846667">
        <ele>2447.0</ele>
        <time>2018-06-23T14:03:33Z</time>
      </trkpt>
      <trkpt lat="40.435167" lon="-4.846683">
        <ele>2448.0</ele>
        <time>2018-06-23T14:03:34Z</time>
      </trkpt>
      <trkpt lat="40.435283" lon="-4.846667">
        <ele>2448.0</ele>
        <time>2018-06-23T14:03:35Z</time>
      </trkpt>
      <trkpt lat="40.435383" lon="-4.846667">
        <ele>2448.0</ele>
        <time>2018-06-23T14:03:36Z</time>
      </trkpt>
      <trkpt lat="40.435483" lon="-4.846650">
        <ele>2448.0</ele>
        <time>2018-06-23T14:03:37Z</time>
      </trkpt>
      <trkpt lat="40.435600" lon="-4.846650">
        <ele>2447.0</ele>
        <time>2018-06-23T14:03:38Z</time>
      </trkpt>
      <trkpt lat="40.435717" lon="-4.846633">
        <ele>2446.0</ele>
        <time>2018-06-23T14:03:39Z</time>
      </trkpt>
      <trkpt lat="40.435833" lon="-4.846600">
        <ele>2445.0</ele>
        <time>2018-06-23T14:03:40Z</time>
      </trkpt>
      <trkpt lat="40.435950" lon="-4.846567">
        <ele>2445.0</ele>
        <time>2018-06-23T14:03:41Z</time>
      </trkpt>
      <trkpt lat="40.436067" lon="-4.846550">
        <ele>2444.0</ele>
        <time>2018-06-23T14:03:42Z</time>
      </trkpt>
      <trkpt lat="40.436167" lon="-4.846533">
        <ele>2443.0</ele>
        <time>2018-06-23T14:03:43Z</time>
      </trkpt>
      <trkpt lat="40.436283" lon="-4.846533">
        <ele>2442.0</ele>
        <time>2018-06-23T14:03:44Z</time>
      </trkpt>
      <trkpt lat="40.436383" lon="-4.846533">
        <ele>2439.0</ele>
        <time>2018-06-23T14:03:45Z</time>
      </trkpt>
      <trkpt lat="40.436500" lon="-4.846550">
        <ele>2437.0</ele>
        <time>2018-06-23T14:03:46Z</time>
      </trkpt>
      <trkpt lat="40.436617" lon="-4.846567">
        <ele>2436.0</ele>
        <time>2018-06-23T14:03:47Z</time>
      </trkpt>
      <trkpt lat="40.436733" lon="-4.846600">
        <ele>2435.0</ele>
        <time>2018-06-23T14:03:48Z</time>
      </trkpt>
      <trkpt lat="40.436850" lon="-4.846650">
        <ele>2435.0</ele>
        <time>2018-06-23T14:03:49Z</time>
      </trkpt>
      <trkpt lat="40.436950" lon="-4.846683">
        <ele>2436.0</ele>
        <time>2018-06-23T14:03:50Z</time>
      </trkpt>
      <trkpt lat="40.437033" lon="-4.846700">
        <ele>2435.0</ele>
        <time>2018-06-23T14:03:51Z</time>
      </trkpt>
      <trkpt lat="40.437133" lon="-4.846700">
        <ele>2435.0</ele>
        <time>2018-06-23T14:03:52Z</time>
      </trkpt>
      <trkpt lat="40.437233" lon="-4.846700">
        <ele>2435.0</ele>
        <time>2018-06-23T14:03:53Z</time>
      </trkpt>
      <trkpt lat="40.437333" lon="-4.846700">
        <ele>2434.0</ele>
        <time>2018-06-23T14:03:54Z</time>
      </trkpt>
      <trkpt lat="40.437433" lon="-4.846700">
        <ele>2433.0</ele>
        <time>2018-06-23T14:03:55Z</time>
      </trkpt>
      <trkpt lat="40.437550" lon="-4.846700">
        <ele>2433.0</ele>
        <time>2018-06-23T14:03:56Z</time>
      </trkpt>
      <trkpt lat="40.437667" lon="-4.846700">
        <ele>2433.0</ele>
        <time>2018-06-23T14:03:57Z</time>
      </trkpt>
      <trkpt lat="40.437767" lon="-4.846700">
        <ele>2433.0</ele>
        <time>2018-06-23T14:03:58Z</time>
      </trkpt>
      <trkpt lat="40.437867" lon="-4.846700">
        <ele>2433.0</ele>
        <time>2018-06-23T14:03:59Z</time>
      </trkpt>
      <trkpt lat="40.437967" lon="-4.846700">
        <ele>2432.0</ele>
        <time>2018-06-23T14:04:00Z</time>
      </trkpt>
      <trkpt lat="40.438050" lon="-4.846717">
        <ele>2431.0</ele>
        <time>2018-06-23T14:04:01Z</time>
      </trkpt>
      <trkpt lat="40.438133" lon="-4.846717">
        <ele>2429.0</ele>
        <time>2018-06-23T14:04:02Z</time>
      </trkpt>
      <trkpt lat="40.438233" lon="-4.846717">
        <ele>2427.0</ele>
        <time>2018-06-23T14:04:03Z</time>
      </trkpt>
      <trkpt lat="40.438333" lon="-4.846717">
        <ele>2425.0</ele>
        <time>2018-06-23T14:04:04Z</time>
      </trkpt>
      <trkpt lat="40.438417" lon="-4.846700">
        <ele>2423.0</ele>
        <time>2018-06-23T14:04:05Z</time>
      </trkpt>
      <trkpt lat="40.438517" lon="-4.846700">
        <ele>2422.0</ele>
        <time>2018-06-23T14:04:06Z</time>
      </trkpt>
      <trkpt lat="40.438617" lon="-4.846700">
        <ele>2420.0</ele>
        <time>2018-06-23T14:04:07Z</time>
      </trkpt>
      <trkpt lat="40.438700" lon="-4.846683">
        <ele>2418.0</ele>
        <time>2018-06-23T14:04:08Z</time>
      </trkpt>
      <trkpt lat="40.438800" lon="-4.846683">
        <ele>2417.0</ele>
        <time>2018-06-23T14:04:09Z</time>
      </trkpt>
      <trkpt lat="40.438900" lon="-4.846667">
        <ele>2416.0</ele>
        <time>2018-06-23T14:04:10Z</time>
      </trkpt>
      <trkpt lat="40.438983" lon="-4.846650">
        <ele>2415.0</ele>
        <time>2018-06-23T14:04:11Z</time>
      </trkpt>
      <trkpt lat="40.439067" lon="-4.846633">
        <ele>2413.0</ele>
        <time>2018-06-23T14:04:12Z</time>
      </trkpt>
      <trkpt lat="40.439150" lon="-4.846617">
        <ele>2411.0</ele>
        <time>2018-06-23T14:04:13Z</time>
      </trkpt>
      <trkpt lat="40.439250" lon="-4.846600">
        <ele>2409.0</ele>
        <time>2018-06-23T14:04:14Z</time>
      </trkpt>
      <trkpt lat="40.439350" lon="-4.846583">
        <ele>2406.0</ele>
        <time>2018-06-23T14:04:15Z</time>
      </trkpt>
      <trkpt lat="40.439467" lon="-4.846567">
        <ele>2404.0</ele>
        <time>2018-06-23T14:04:16Z</time>
      </trkpt>
      <trkpt lat="40.439567" lon="-4.846550">
        <ele>2402.0</ele>
        <time>2018-06-23T14:04:17Z</time>
      </trkpt>
      <trkpt lat="40.439667" lon="-4.846533">
        <ele>2400.0</ele>
        <time>2018-06-23T14:04:18Z</time>
      </trkpt>
      <trkpt lat="40.439767" lon="-4.846533">
        <ele>2396.0</ele>
        <time>2018-06-23T14:04:19Z</time>
      </trkpt>
      <trkpt lat="40.439867" lon="-4.846550">
        <ele>2391.0</ele>
        <time>2018-06-23T14:04:20Z</time>
      </trkpt>
      <trkpt lat="40.439983" lon="-4.846567">
        <ele>2387.0</ele>
        <time>2018-06-23T14:04:21Z</time>
      </trkpt>
      <trkpt lat="40.440100" lon="-4.846600">
        <ele>2385.0</ele>
        <time>2018-06-23T14:04:22Z</time>
      </trkpt>
      <trkpt lat="40.440200" lon="-4.846650">
        <ele>2383.0</ele>
        <time>2018-06-23T14:04:23Z</time>
      </trkpt>
      <trkpt lat="40.440300" lon="-4.846683">
        <ele>2382.0</ele>
        <time>2018-06-23T14:04:24Z</time>
      </trkpt>
      <trkpt lat="40.440417" lon="-4.846700">
        <ele>2381.0</ele>
        <time>2018-06-23T14:04:25Z</time>
      </trkpt>
      <trkpt lat="40.440517" lon="-4.846733">
        <ele>2379.0</ele>
        <time>2018-06-23T14:04:26Z</time>
      </trkpt>
      <trkpt lat="40.440617" lon="-4.846767">
        <ele>2377.0</ele>
        <time>2018-06-23T14:04:27Z</time>
      </trkpt>
      <trkpt lat="40.440717" lon="-4.846817">
        <ele>2374.0</ele>
        <time>2018-06-23T14:04:28Z</time>
      </trkpt>
      <trkpt lat="40.440833" lon="-4.846850">
        <ele>2372.0</ele>
        <time>2018-06-23T14:04:29Z</time>
      </trkpt>
      <trkpt lat="40.440950" lon="-4.846900">
        <ele>2370.0</ele>
        <time>2018-06-23T14:04:30Z</time>
      </trkpt>
      <trkpt lat="40.441050" lon="-4.846933">
        <ele>2368.0</ele>
        <time>2018-06-23T14:04:31Z</time>
      </trkpt>
      <trkpt lat="40.441150" lon="-4.846967">
        <ele>2367.0</ele>
        <time>2018-06-23T14:04:32Z</time>
      </trkpt>
      <trkpt lat="40.441250" lon="-4.847033">
        <ele>2365.0</ele>
        <time>2018-06-23T14:04:33Z</time>
      </trkpt>
      <trkpt lat="40.441367" lon="-4.847083">
        <ele>2364.0</ele>
        <time>2018-06-23T14:04:34Z</time>
      </trkpt>
      <trkpt lat="40.441467" lon="-4.847133">
        <ele>2363.0</ele>
        <time>2018-06-23T14:04:35Z</time>
      </trkpt>
      <trkpt lat="40.441567" lon="-4.847183">
        <ele>2362.0</ele>
        <time>2018-06-23T14:04:36Z</time>
      </trkpt>
      <trkpt lat="40.441667" lon="-4.847250">
        <ele>2361.0</ele>
        <time>2018-06-23T14:04:37Z</time>
      </trkpt>
      <trkpt lat="40.441767" lon="-4.847317">
        <ele>2361.0</ele>
        <time>2018-06-23T14:04:38Z</time>
      </trkpt>
      <trkpt lat="40.441867" lon="-4.847367">
        <ele>2360.0</ele>
        <time>2018-06-23T14:04:39Z</time>
      </trkpt>
      <trkpt lat="40.441967" lon="-4.847417">
        <ele>2360.0</ele>
        <time>2018-06-23T14:04:40Z</time>
      </trkpt>
      <trkpt lat="40.442067" lon="-4.847433">
        <ele>2360.0</ele>
        <time>2018-06-23T14:04:41Z</time>
      </trkpt>
      <trkpt lat="40.442167" lon="-4.847450">
        <ele>2360.0</ele>
        <time>2018-06-23T14:04:42Z</time>
      </trkpt>
      <trkpt lat="40.442267" lon="-4.847483">
        <ele>2360.0</ele>
        <time>2018-06-23T14:04:43Z</time>
      </trkpt>
      <trkpt lat="40.442350" lon="-4.847517">
        <ele>2359.0</ele>
        <time>2018-06-23T14:04:44Z</time>
      </trkpt>
      <trkpt lat="40.442450" lon="-4.847550">
        <ele>2358.0</ele>
        <time>2018-06-23T14:04:45Z</time>
      </trkpt>
      <trkpt lat="40.442550" lon="-4.847550">
        <ele>2357.0</ele>
        <time>2018-06-23T14:04:46Z</time>
      </trkpt>
      <trkpt lat="40.442650" lon="-4.847567">
        <ele>2355.0</ele>
        <time>2018-06-23T14:04:47Z</time>
      </trkpt>
      <trkpt lat="40.442750" lon="-4.847600">
        <ele>2354.0</ele>
        <time>2018-06-23T14:04:48Z</time>
      </trkpt>
      <trkpt lat="40.442850" lon="-4.847633">
        <ele>2353.0</ele>
        <time>2018-06-23T14:04:49Z</time>
      </trkpt>
      <trkpt lat="40.442950" lon="-4.847667">
        <ele>2354.0</ele>
        <time>2018-06-23T14:04:50Z</time>
      </trkpt>
      <trkpt lat="40.443050" lon="-4.847683">
        <ele>2354.0</ele>
        <time>2018-06-23T14:04:51Z</time>
      </trkpt>
      <trkpt lat="40.443133" lon="-4.847700">
        <ele>2353.0</ele>
        <time>2018-06-23T14:04:52Z</time>
      </trkpt>
      <trkpt lat="40.443233" lon="-4.847683">
        <ele>2352.0</ele>
        <time>2018-06-23T14:04:53Z</time>
      </trkpt>
      <trkpt lat="40.443333" lon="-4.847683">
        <ele>2350.0</ele>
        <time>2018-06-23T14:04:54Z</time>
      </trkpt>
      <trkpt lat="40.443433" lon="-4.847700">
        <ele>2349.0</ele>
        <time>2018-06-23T14:04:55Z</time>
      </trkpt>
      <trkpt lat="40.443550" lon="-4.847733">
        <ele>2347.0</ele>
        <time>2018-06-23T14:04:56Z</time>
      </trkpt>
      <trkpt lat="40.443667" lon="-4.847750">
        <ele>2347.0</ele>
        <time>2018-06-23T14:04:57Z</time>
      </trkpt>
      <trkpt lat="40.443767" lon="-4.847750">
        <ele>2347.0</ele>
        <time>2018-06-23T14:04:58Z</time>
      </trkpt>
      <trkpt lat="40.443867" lon="-4.847750">
        <ele>2346.0</ele>
        <time>2018-06-23T14:04:59Z</time>
      </trkpt>
      <trkpt lat="40.443950" lon="-4.847717">
        <ele>2346.0</ele>
        <time>2018-06-23T14:05:00Z</time>
      </trkpt>
      <trkpt lat="40.444050" lon="-4.847700">
        <ele>2345.0</ele>
        <time>2018-06-23T14:05:01Z</time>
      </trkpt>
      <trkpt lat="40.444150" lon="-4.847667">
        <ele>2344.0</ele>
        <time>2018-06-23T14:05:02Z</time>
      </trkpt>
      <trkpt lat="40.444267" lon="-4.847650">
        <ele>2343.0</ele>
        <time>2018-06-23T14:05:03Z</time>
      </trkpt>
      <trkpt lat="40.444367" lon="-4.847650">
        <ele>2343.0</ele>
        <time>2018-06-23T14:05:04Z</time>
      </trkpt>
      <trkpt lat="40.444483" lon="-4.847650">
        <ele>2343.0</ele>
        <time>2018-06-23T14:05:05Z</time>
      </trkpt>
      <trkpt lat="40.444583" lon="-4.847667">
        <ele>2343.0</ele>
        <time>2018-06-23T14:05:06Z</time>
      </trkpt>
      <trkpt lat="40.444683" lon="-4.847667">
        <ele>2342.0</ele>
        <time>2018-06-23T14:05:07Z</time>
      </trkpt>
      <trkpt lat="40.444783" lon="-4.847683">
        <ele>2340.0</ele>
        <time>2018-06-23T14:05:08Z</time>
      </trkpt>
      <trkpt lat="40.444883" lon="-4.847683">
        <ele>2338.0</ele>
        <time>2018-06-23T14:05:09Z</time>
      </trkpt>
      <trkpt lat="40.445000" lon="-4.847700">
        <ele>2336.0</ele>
        <time>2018-06-23T14:05:10Z</time>
      </trkpt>
      <trkpt lat="40.445117" lon="-4.847700">
        <ele>2334.0</ele>
        <time>2018-06-23T14:05:11Z</time>
      </trkpt>
      <trkpt lat="40.445233" lon="-4.847717">
        <ele>2333.0</ele>
        <time>2018-06-23T14:05:12Z</time>
      </trkpt>
      <trkpt lat="40.445333" lon="-4.847717">
        <ele>2332.0</ele>
        <time>2018-06-23T14:05:13Z</time>
      </trkpt>
      <trkpt lat="40.445433" lon="-4.847717">
        <ele>2331.0</ele>
        <time>2018-06-23T14:05:14Z</time>
      </trkpt>
      <trkpt lat="40.445550" lon="-4.847733">
        <ele>2329.0</ele>
        <time>2018-06-23T14:05:15Z</time>
      </trkpt>
      <trkpt lat="40.445650" lon="-4.847733">
        <ele>2326.0</ele>
        <time>2018-06-23T14:05:16Z</time>
      </trkpt>
      <trkpt lat="40.445767" lon="-4.847733">
        <ele>2323.0</ele>
        <time>2018-06-23T14:05:17Z</time>
      </trkpt>
      <trkpt lat="40.445900" lon="-4.847733">
        <ele>2321.0</ele>
        <time>2018-06-23T14:05:18Z</time>
      </trkpt>
      <trkpt lat="40.446017" lon="-4.847750">
        <ele>2321.0</ele>
        <time>2018-06-23T14:05:19Z</time>
      </trkpt>
      <trkpt lat="40.446117" lon="-4.847767">
        <ele>2320.0</ele>
        <time>2018-06-23T14:05:20Z</time>
      </trkpt>
      <trkpt lat="40.446217" lon="-4.847783">
        <ele>2320.0</ele>
        <time>2018-06-23T14:05:21Z</time>
      </trkpt>
      <trkpt lat="40.446317" lon="-4.847800">
        <ele>2319.0</ele>
        <time>2018-06-23T14:05:22Z</time>
      </trkpt>
      <trkpt lat="40.446417" lon="-4.847800">
        <ele>2317.0</ele>
        <time>2018-06-23T14:05:23Z</time>
      </trkpt>
      <trkpt lat="40.446517" lon="-4.847800">
        <ele>2315.0</ele>
        <time>2018-06-23T14:05:24Z</time>
      </trkpt>
      <trkpt lat="40.446617" lon="-4.847800">
        <ele>2313.0</ele>
        <time>2018-06-23T14:05:25Z</time>
      </trkpt>
      <trkpt lat="40.446733" lon="-4.847783">
        <ele>2312.0</ele>
        <time>2018-06-23T14:05:26Z</time>
      </trkpt>
      <trkpt lat="40.446833" lon="-4.847783">
        <ele>2310.0</ele>
        <time>2018-06-23T14:05:27Z</time>
      </trkpt>
      <trkpt lat="40.446933" lon="-4.847750">
        <ele>2309.0</ele>
        <time>2018-06-23T14:05:28Z</time>
      </trkpt>
      <trkpt lat="40.447050" lon="-4.847733">
        <ele>2307.0</ele>
        <time>2018-06-23T14:05:29Z</time>
      </trkpt>
      <trkpt lat="40.447150" lon="-4.847700">
        <ele>2306.0</ele>
        <time>2018-06-23T14:05:30Z</time>
      </trkpt>
      <trkpt lat="40.447250" lon="-4.847700">
        <ele>2305.0</ele>
        <time>2018-06-23T14:05:31Z</time>
      </trkpt>
      <trkpt lat="40.447350" lon="-4.847683">
        <ele>2303.0</ele>
        <time>2018-06-23T14:05:32Z</time>
      </trkpt>
      <trkpt lat="40.447433" lon="-4.847667">
        <ele>2302.0</ele>
        <time>2018-06-23T14:05:33Z</time>
      </trkpt>
      <trkpt lat="40.447533" lon="-4.847650">
        <ele>2300.0</ele>
        <time>2018-06-23T14:05:34Z</time>
      </trkpt>
      <trkpt lat="40.447633" lon="-4.847600">
        <ele>2298.0</ele>
        <time>2018-06-23T14:05:35Z</time>
      </trkpt>
      <trkpt lat="40.447733" lon="-4.847567">
        <ele>2295.0</ele>
        <time>2018-06-23T14:05:36Z</time>
      </trkpt>
      <trkpt lat="40.447867" lon="-4.847550">
        <ele>2294.0</ele>
        <time>2018-06-23T14:05:37Z</time>
      </trkpt>
      <trkpt lat="40.447983" lon="-4.847550">
        <ele>2293.0</ele>
        <time>2018-06-23T14:05:38Z</time>
      </trkpt>
      <trkpt lat="40.448100" lon="-4.847550">
        <ele>2293.0</ele>
        <time>2018-06-23T14:05:39Z</time>
      </trkpt>
      <trkpt lat="40.448200" lon="-4.847550">
        <ele>2292.0</ele>
        <time>2018-06-23T14:05:40Z</time>
      </trkpt>
      <trkpt lat="40.448317" lon="-4.847550">
        <ele>2291.0</ele>
        <time>2018-06-23T14:05:41Z</time>
      </trkpt>
      <trkpt lat="40.448417" lon="-4.847550">
        <ele>2289.0</ele>
        <time>2018-06-23T14:05:42Z</time>
      </trkpt>
      <trkpt lat="40.448533" lon="-4.847567">
        <ele>2284.0</ele>
        <time>2018-06-23T14:05:43Z</time>
      </trkpt>
      <trkpt lat="40.448667" lon="-4.847600">
        <ele>2280.0</ele>
        <time>2018-06-23T14:05:44Z</time>
      </trkpt>
      <trkpt lat="40.448800" lon="-4.847617">
        <ele>2278.0</ele>
        <time>2018-06-23T14:05:45Z</time>
      </trkpt>
      <trkpt lat="40.448933" lon="-4.847650">
        <ele>2277.0</ele>
        <time>2018-06-23T14:05:46Z</time>
      </trkpt>
      <trkpt lat="40.449050" lon="-4.847650">
        <ele>2275.0</ele>
        <time>2018-06-23T14:05:47Z</time>
      </trkpt>
      <trkpt lat="40.449167" lon="-4.847667">
        <ele>2274.0</ele>
        <time>2018-06-23T14:05:48Z</time>
      </trkpt>
      <trkpt lat="40.449283" lon="-4.847667">
        <ele>2272.0</ele>
        <time>2018-06-23T14:05:49Z</time>
      </trkpt>
      <trkpt lat="40.449400" lon="-4.847667">
        <ele>2269.0</ele>
        <time>2018-06-23T14:05:50Z</time>
      </trkpt>
      <trkpt lat="40.449533" lon="-4.847667">
        <ele>2266.0</ele>
        <time>2018-06-23T14:05:51Z</time>
      </trkpt>
      <trkpt lat="40.449667" lon="-4.847667">
        <ele>2264.0</ele>
        <time>2018-06-23T14:05:52Z</time>
      </trkpt>
      <trkpt lat="40.449800" lon="-4.847650">
        <ele>2264.0</ele>
        <time>2018-06-23T14:05:53Z</time>
      </trkpt>
      <trkpt lat="40.449917" lon="-4.847617">
        <ele>2264.0</ele>
        <time>2018-06-23T14:05:54Z</time>
      </trkpt>
      <trkpt lat="40.450033" lon="-4.847583">
        <ele>2263.0</ele>
        <time>2018-06-23T14:05:55Z</time>
      </trkpt>
      <trkpt lat="40.450150" lon="-4.847567">
        <ele>2261.0</ele>
        <time>2018-06-23T14:05:56Z</time>
      </trkpt>
      <trkpt lat="40.450250" lon="-4.847550">
        <ele>2259.0</ele>
        <time>2018-06-23T14:05:57Z</time>
      </trkpt>
      <trkpt lat="40.450367" lon="-4.847550">
        <ele>2256.0</ele>
        <time>2018-06-23T14:05:58Z</time>
      </trkpt>
      <trkpt lat="40.450483" lon="-4.847517">
        <ele>2252.0</ele>
        <time>2018-06-23T14:05:59Z</time>
      </trkpt>
      <trkpt lat="40.450600" lon="-4.847500">
        <ele>2249.0</ele>
        <time>2018-06-23T14:06:00Z</time>
      </trkpt>
      <trkpt lat="40.450717" lon="-4.847467">
        <ele>2246.0</ele>
        <time>2018-06-23T14:06:01Z</time>
      </trkpt>
      <trkpt lat="40.450817" lon="-4.847450">
        <ele>2244.0</ele>
        <time>2018-06-23T14:06:02Z</time>
      </trkpt>
      <trkpt lat="40.450933" lon="-4.847433">
        <ele>2241.0</ele>
        <time>2018-06-23T14:06:03Z</time>
      </trkpt>
      <trkpt lat="40.451033" lon="-4.847400">
        <ele>2238.0</ele>
        <time>2018-06-23T14:06:04Z</time>
      </trkpt>
      <trkpt lat="40.451150" lon="-4.847400">
        <ele>2235.0</ele>
        <time>2018-06-23T14:06:05Z</time>
      </trkpt>
      <trkpt lat="40.451250" lon="-4.847383">
        <ele>2231.0</ele>
        <time>2018-06-23T14:06:06Z</time>
      </trkpt>
      <trkpt lat="40.451383" lon="-4.847400">
        <ele>2228.0</ele>
        <time>2018-06-23T14:06:07Z</time>
      </trkpt>
      <trkpt lat="40.451500" lon="-4.847433">
        <ele>2225.0</ele>
        <time>2018-06-23T14:06:08Z</time>
      </trkpt>
      <trkpt lat="40.451617" lon="-4.847483">
        <ele>2223.0</ele>
        <time>2018-06-23T14:06:09Z</time>
      </trkpt>
      <trkpt lat="40.451717" lon="-4.847533">
        <ele>2223.0</ele>
        <time>2018-06-23T14:06:10Z</time>
      </trkpt>
      <trkpt lat="40.451817" lon="-4.847583">
        <ele>2222.0</ele>
        <time>2018-06-23T14:06:11Z</time>
      </trkpt>
      <trkpt lat="40.451917" lon="-4.847633">
        <ele>2221.0</ele>
        <time>2018-06-23T14:06:12Z</time>
      </trkpt>
      <trkpt lat="40.452000" lon="-4.847667">
        <ele>2218.0</ele>
        <time>2018-06-23T14:06:13Z</time>
      </trkpt>
      <trkpt lat="40.452083" lon="-4.847717">
        <ele>2215.0</ele>
        <time>2018-06-23T14:06:14Z</time>
      </trkpt>
      <trkpt lat="40.452200" lon="-4.847767">
        <ele>2211.0</ele>
        <time>2018-06-23T14:06:15Z</time>
      </trkpt>
      <trkpt lat="40.452300" lon="-4.847800">
        <ele>2208.0</ele>
        <time>2018-06-23T14:06:16Z</time>
      </trkpt>
      <trkpt lat="40.452400" lon="-4.847833">
        <ele>2206.0</ele>
        <time>2018-06-23T14:06:17Z</time>
      </trkpt>
      <trkpt lat="40.452500" lon="-4.847850">
        <ele>2204.0</ele>
        <time>2018-06-23T14:06:18Z</time>
      </trkpt>
      <trkpt lat="40.452600" lon="-4.847867">
        <ele>2202.0</ele>
        <time>2018-06-23T14:06:19Z</time>
      </trkpt>
      <trkpt lat="40.452700" lon="-4.847867">
        <ele>2199.0</ele>
        <time>2018-06-23T14:06:20Z</time>
      </trkpt>
      <trkpt lat="40.452800" lon="-4.847850">
        <ele>2196.0</ele>
        <time>2018-06-23T14:06:21Z</time>
      </trkpt>
      <trkpt lat="40.452900" lon="-4.847833">
        <ele>2193.0</ele>
        <time>2018-06-23T14:06:22Z</time>
      </trkpt>
      <trkpt lat="40.453000" lon="-4.847783">
        <ele>2190.0</ele>
        <time>2018-06-23T14:06:23Z</time>
      </trkpt>
      <trkpt lat="40.453100" lon="-4.847750">
        <ele>2189.0</ele>
        <time>2018-06-23T14:06:24Z</time>
      </trkpt>
      <trkpt lat="40.453183" lon="-4.847700">
        <ele>2189.0</ele>
        <time>2018-06-23T14:06:25Z</time>
      </trkpt>
      <trkpt lat="40.453267" lon="-4.847667">
        <ele>2188.0</ele>
        <time>2018-06-23T14:06:26Z</time>
      </trkpt>
      <trkpt lat="40.453333" lon="-4.847617">
        <ele>2184.0</ele>
        <time>2018-06-23T14:06:27Z</time>
      </trkpt>
      <trkpt lat="40.453417" lon="-4.847567">
        <ele>2179.0</ele>
        <time>2018-06-23T14:06:28Z</time>
      </trkpt>
      <trkpt lat="40.453500" lon="-4.847533">
        <ele>2174.0</ele>
        <time>2018-06-23T14:06:29Z</time>
      </trkpt>
      <trkpt lat="40.453600" lon="-4.847500">
        <ele>2170.0</ele>
        <time>2018-06-23T14:06:30Z</time>
      </trkpt>
      <trkpt lat="40.453683" lon="-4.847450">
        <ele>2167.0</ele>
        <time>2018-06-23T14:06:31Z</time>
      </trkpt>
      <trkpt lat="40.453767" lon="-4.847400">
        <ele>2166.0</ele>
        <time>2018-06-23T14:06:32Z</time>
      </trkpt>
      <trkpt lat="40.453850" lon="-4.847350">
        <ele>2165.0</ele>
        <time>2018-06-23T14:06:33Z</time>
      </trkpt>
      <trkpt lat="40.453933" lon="-4.847317">
        <ele>2163.0</ele>
        <time>2018-06-23T14:06:34Z</time>
      </trkpt>
      <trkpt lat="40.454017" lon="-4.847283">
        <ele>2161.0</ele>
        <time>2018-06-23T14:06:35Z</time>
      </trkpt>
      <trkpt lat="40.454100" lon="-4.847217">
        <ele>2158.0</ele>
        <time>2018-06-23T14:06:36Z</time>
      </trkpt>
      <trkpt lat="40.454183" lon="-4.847167">
        <ele>2157.0</ele>
        <time>2018-06-23T14:06:37Z</time>
      </trkpt>
      <trkpt lat="40.454267" lon="-4.847100">
        <ele>2155.0</ele>
        <time>2018-06-23T14:06:38Z</time>
      </trkpt>
      <trkpt lat="40.454333" lon="-4.847050">
        <ele>2154.0</ele>
        <time>2018-06-23T14:06:39Z</time>
      </trkpt>
      <trkpt lat="40.454417" lon="-4.846983">
        <ele>2151.0</ele>
        <time>2018-06-23T14:06:40Z</time>
      </trkpt>
      <trkpt lat="40.454500" lon="-4.846933">
        <ele>2149.0</ele>
        <time>2018-06-23T14:06:41Z</time>
      </trkpt>
      <trkpt lat="40.454583" lon="-4.846867">
        <ele>2147.0</ele>
        <time>2018-06-23T14:06:42Z</time>
      </trkpt>
      <trkpt lat="40.454667" lon="-4.846800">
        <ele>2146.0</ele>
        <time>2018-06-23T14:06:43Z</time>
      </trkpt>
      <trkpt lat="40.454733" lon="-4.846717">
        <ele>2144.0</ele>
        <time>2018-06-23T14:06:44Z</time>
      </trkpt>
      <trkpt lat="40.454817" lon="-4.846650">
        <ele>2143.0</ele>
        <time>2018-06-23T14:06:45Z</time>
      </trkpt>
      <trkpt lat="40.454917" lon="-4.846567">
        <ele>2142.0</ele>
        <time>2018-06-23T14:06:46Z</time>
      </trkpt>
      <trkpt lat="40.455017" lon="-4.846517">
        <ele>2142.0</ele>
        <time>2018-06-23T14:06:47Z</time>
      </trkpt>
      <trkpt lat="40.455117" lon="-4.846483">
        <ele>2144.0</ele>
        <time>2018-06-23T14:06:48Z</time>
      </trkpt>
      <trkpt lat="40.455200" lon="-4.846467">
        <ele>2145.0</ele>
        <time>2018-06-23T14:06:49Z</time>
      </trkpt>
      <trkpt lat="40.455283" lon="-4.846433">
        <ele>2145.0</ele>
        <time>2018-06-23T14:06:50Z</time>
      </trkpt>
      <trkpt lat="40.455367" lon="-4.846400">
        <ele>2144.0</ele>
        <time>2018-06-23T14:06:51Z</time>
      </trkpt>
      <trkpt lat="40.455450" lon="-4.846350">
        <ele>2142.0</ele>
        <time>2018-06-23T14:06:52Z</time>
      </trkpt>
      <trkpt lat="40.455550" lon="-4.846300">
        <ele>2141.0</ele>
        <time>2018-06-23T14:06:53Z</time>
      </trkpt>
      <trkpt lat="40.455667" lon="-4.846267">
        <ele>2140.0</ele>
        <time>2018-06-23T14:06:54Z</time>
      </trkpt>
      <trkpt lat="40.455767" lon="-4.846217">
        <ele>2139.0</ele>
        <time>2018-06-23T14:06:55Z</time>
      </trkpt>
      <trkpt lat="40.455883" lon="-4.846167">
        <ele>2139.0</ele>
        <time>2018-06-23T14:06:56Z</time>
      </trkpt>
      <trkpt lat="40.455983" lon="-4.846083">
        <ele>2140.0</ele>
        <time>2018-06-23T14:06:57Z</time>
      </trkpt>
      <trkpt lat="40.456067" lon="-4.846000">
        <ele>2140.0</ele>
        <time>2018-06-23T14:06:58Z</time>
      </trkpt>
      <trkpt lat="40.456150" lon="-4.845933">
        <ele>2140.0</ele>
        <time>2018-06-23T14:06:59Z</time>
      </trkpt>
      <trkpt lat="40.456233" lon="-4.845850">
        <ele>2139.0</ele>
        <time>2018-06-23T14:07:00Z</time>
      </trkpt>
      <trkpt lat="40.456333" lon="-4.845767">
        <ele>2138.0</ele>
        <time>2018-06-23T14:07:01Z</time>
      </trkpt>
      <trkpt lat="40.456417" lon="-4.845700">
        <ele>2138.0</ele>
        <time>2018-06-23T14:07:02Z</time>
      </trkpt>
      <trkpt lat="40.456500" lon="-4.845617">
        <ele>2138.0</ele>
        <time>2018-06-23T14:07:03Z</time>
      </trkpt>
      <trkpt lat="40.456583" lon="-4.845550">
        <ele>2138.0</ele>
        <time>2018-06-23T14:07:04Z</time>
      </trkpt>
      <trkpt lat="40.456683" lon="-4.845483">
        <ele>2137.0</ele>
        <time>2018-06-23T14:07:05Z</time>
      </trkpt>
      <trkpt lat="40.456767" lon="-4.845467">
        <ele>2136.0</ele>
        <time>2018-06-23T14:07:06Z</time>
      </trkpt>
      <trkpt lat="40.456867" lon="-4.845450">
        <ele>2135.0</ele>
        <time>2018-06-23T14:07:07Z</time>
      </trkpt>
      <trkpt lat="40.456983" lon="-4.845467">
        <ele>2134.0</ele>
        <time>2018-06-23T14:07:08Z</time>
      </trkpt>
      <trkpt lat="40.457083" lon="-4.845467">
        <ele>2132.0</ele>
        <time>2018-06-23T14:07:09Z</time>
      </trkpt>
      <trkpt lat="40.457200" lon="-4.845467">
        <ele>2131.0</ele>
        <time>2018-06-23T14:07:10Z</time>
      </trkpt>
      <trkpt lat="40.457317" lon="-4.845483">
        <ele>2131.0</ele>
        <time>2018-06-23T14:07:11Z</time>
      </trkpt>
      <trkpt lat="40.457433" lon="-4.845500">
        <ele>2131.0</ele>
        <time>2018-06-23T14:07:12Z</time>
      </trkpt>
      <trkpt lat="40.457533" lon="-4.845500">
        <ele>2131.0</ele>
        <time>2018-06-23T14:07:13Z</time>
      </trkpt>
      <trkpt lat="40.457650" lon="-4.845483">
        <ele>2130.0</ele>
        <time>2018-06-23T14:07:14Z</time>
      </trkpt>
      <trkpt lat="40.457750" lon="-4.845483">
        <ele>2130.0</ele>
        <time>2018-06-23T14:07:15Z</time>
      </trkpt>
      <trkpt lat="40.457850" lon="-4.845483">
        <ele>2128.0</ele>
        <time>2018-06-23T14:07:16Z</time>
      </trkpt>
      <trkpt lat="40.457950" lon="-4.845517">
        <ele>2126.0</ele>
        <time>2018-06-23T14:07:17Z</time>
      </trkpt>
      <trkpt lat="40.458033" lon="-4.845533">
        <ele>2122.0</ele>
        <time>2018-06-23T14:07:18Z</time>
      </trkpt>
      <trkpt lat="40.458150" lon="-4.845550">
        <ele>2119.0</ele>
        <time>2018-06-23T14:07:19Z</time>
      </trkpt>
      <trkpt lat="40.458267" lon="-4.845583">
        <ele>2116.0</ele>
        <time>2018-06-23T14:07:20Z</time>
      </trkpt>
      <trkpt lat="40.458383" lon="-4.845583">
        <ele>2114.0</ele>
        <time>2018-06-23T14:07:21Z</time>
      </trkpt>
      <trkpt lat="40.458500" lon="-4.845583">
        <ele>2112.0</ele>
        <time>2018-06-23T14:07:22Z</time>
      </trkpt>
      <trkpt lat="40.458600" lon="-4.845567">
        <ele>2110.0</ele>
        <time>2018-06-23T14:07:23Z</time>
      </trkpt>
      <trkpt lat="40.458700" lon="-4.845517">
        <ele>2107.0</ele>
        <time>2018-06-23T14:07:24Z</time>
      </trkpt>
      <trkpt lat="40.458800" lon="-4.845483">
        <ele>2103.0</ele>
        <time>2018-06-23T14:07:25Z</time>
      </trkpt>
      <trkpt lat="40.458917" lon="-4.845467">
        <ele>2099.0</ele>
        <time>2018-06-23T14:07:26Z</time>
      </trkpt>
      <trkpt lat="40.459033" lon="-4.845467">
        <ele>2095.0</ele>
        <time>2018-06-23T14:07:27Z</time>
      </trkpt>
      <trkpt lat="40.459150" lon="-4.845450">
        <ele>2093.0</ele>
        <time>2018-06-23T14:07:28Z</time>
      </trkpt>
      <trkpt lat="40.459250" lon="-4.845433">
        <ele>2092.0</ele>
        <time>2018-06-23T14:07:29Z</time>
      </trkpt>
      <trkpt lat="40.459350" lon="-4.845400">
        <ele>2091.0</ele>
        <time>2018-06-23T14:07:30Z</time>
      </trkpt>
      <trkpt lat="40.459433" lon="-4.845383">
        <ele>2091.0</ele>
        <time>2018-06-23T14:07:31Z</time>
      </trkpt>
      <trkpt lat="40.459517" lon="-4.845367">
        <ele>2089.0</ele>
        <time>2018-06-23T14:07:32Z</time>
      </trkpt>
      <trkpt lat="40.459617" lon="-4.845350">
        <ele>2086.0</ele>
        <time>2018-06-23T14:07:33Z</time>
      </trkpt>
      <trkpt lat="40.459700" lon="-4.845367">
        <ele>2082.0</ele>
        <time>2018-06-23T14:07:34Z</time>
      </trkpt>
      <trkpt lat="40.459817" lon="-4.845383">
        <ele>2080.0</ele>
        <time>2018-06-23T14:07:35Z</time>
      </trkpt>
      <trkpt lat="40.459917" lon="-4.845417">
        <ele>2078.0</ele>
        <time>2018-06-23T14:07:36Z</time>
      </trkpt>
      <trkpt lat="40.460033" lon="-4.845450">
        <ele>2077.0</ele>
        <time>2018-06-23T14:07:37Z</time>
      </trkpt>
      <trkpt lat="40.460133" lon="-4.845467">
        <ele>2076.0</ele>
        <time>2018-06-23T14:07:38Z</time>
      </trkpt>
      <trkpt lat="40.460233" lon="-4.845500">
        <ele>2075.0</ele>
        <time>2018-06-23T14:07:39Z</time>
      </trkpt>
      <trkpt lat="40.460333" lon="-4.845533">
        <ele>2074.0</ele>
        <time>2018-06-23T14:07:40Z</time>
      </trkpt>
      <trkpt lat="40.460433" lon="-4.845567">
        <ele>2072.0</ele>
        <time>2018-06-23T14:07:41Z</time>
      </trkpt>
      <trkpt lat="40.460533" lon="-4.845617">
        <ele>2070.0</ele>
        <time>2018-06-23T14:07:42Z</time>
      </trkpt>
      <trkpt lat="40.460617" lon="-4.845667">
        <ele>2069.0</ele>
        <time>2018-06-23T14:07:43Z</time>
      </trkpt>
      <trkpt lat="40.460717" lon="-4.845733">
        <ele>2068.0</ele>
        <time>2018-06-23T14:07:44Z</time>
      </trkpt>
      <trkpt lat="40.460800" lon="-4.845817">
        <ele>2066.0</ele>
        <time>2018-06-23T14:07:45Z</time>
      </trkpt>
      <trkpt lat="40.460883" lon="-4.845900">
        <ele>2065.0</ele>
        <time>2018-06-23T14:07:46Z</time>
      </trkpt>
      <trkpt lat="40.460983" lon="-4.845967">
        <ele>2063.0</ele>
        <time>2018-06-23T14:07:47Z</time>
      </trkpt>
      <trkpt lat="40.461083" lon="-4.846017">
        <ele>2061.0</ele>
        <time>2018-06-23T14:07:48Z</time>
      </trkpt>
      <trkpt lat="40.461183" lon="-4.846083">
        <ele>2059.0</ele>
        <time>2018-06-23T14:07:49Z</time>
      </trkpt>
      <trkpt lat="40.461283" lon="-4.846150">
        <ele>2056.0</ele>
        <time>2018-06-23T14:07:50Z</time>
      </trkpt>
      <trkpt lat="40.461400" lon="-4.846217">
        <ele>2054.0</ele>
        <time>2018-06-23T14:07:51Z</time>
      </trkpt>
      <trkpt lat="40.461517" lon="-4.846250">
        <ele>2053.0</ele>
        <time>2018-06-23T14:07:52Z</time>
      </trkpt>
      <trkpt lat="40.461633" lon="-4.846283">
        <ele>2051.0</ele>
        <time>2018-06-23T14:07:53Z</time>
      </trkpt>
      <trkpt lat="40.461733" lon="-4.846317">
        <ele>2050.0</ele>
        <time>2018-06-23T14:07:54Z</time>
      </trkpt>
      <trkpt lat="40.461817" lon="-4.846350">
        <ele>2048.0</ele>
        <time>2018-06-23T14:07:55Z</time>
      </trkpt>
      <trkpt lat="40.461917" lon="-4.846400">
        <ele>2045.0</ele>
        <time>2018-06-23T14:07:56Z</time>
      </trkpt>
      <trkpt lat="40.462017" lon="-4.846450">
        <ele>2041.0</ele>
        <time>2018-06-23T14:07:57Z</time>
      </trkpt>
      <trkpt lat="40.462133" lon="-4.846500">
        <ele>2038.0</ele>
        <time>2018-06-23T14:07:58Z</time>
      </trkpt>
      <trkpt lat="40.462233" lon="-4.846533">
        <ele>2034.0</ele>
        <time>2018-06-23T14:07:59Z</time>
      </trkpt>
      <trkpt lat="40.462350" lon="-4.846567">
        <ele>2032.0</ele>
        <time>2018-06-23T14:08:00Z</time>
      </trkpt>
      <trkpt lat="40.462450" lon="-4.846600">
        <ele>2029.0</ele>
        <time>2018-06-23T14:08:01Z</time>
      </trkpt>
      <trkpt lat="40.462567" lon="-4.846633">
        <ele>2026.0</ele>
        <time>2018-06-23T14:08:02Z</time>
      </trkpt>
      <trkpt lat="40.462700" lon="-4.846650">
        <ele>2024.0</ele>
        <time>2018-06-23T14:08:03Z</time>
      </trkpt>
      <trkpt lat="40.462817" lon="-4.846667">
        <ele>2023.0</ele>
        <time>2018-06-23T14:08:04Z</time>
      </trkpt>
      <trkpt lat="40.462933" lon="-4.846683">
        <ele>2021.0</ele>
        <time>2018-06-23T14:08:05Z</time>
      </trkpt>
      <trkpt lat="40.463050" lon="-4.846700">
        <ele>2020.0</ele>
        <time>2018-06-23T14:08:06Z</time>
      </trkpt>
      <trkpt lat="40.463167" lon="-4.846767">
        <ele>2017.0</ele>
        <time>2018-06-23T14:08:07Z</time>
      </trkpt>
      <trkpt lat="40.463267" lon="-4.846833">
        <ele>2015.0</ele>
        <time>2018-06-23T14:08:08Z</time>
      </trkpt>
      <trkpt lat="40.463383" lon="-4.846900">
        <ele>2013.0</ele>
        <time>2018-06-23T14:08:09Z</time>
      </trkpt>
      <trkpt lat="40.463483" lon="-4.846933">
        <ele>2012.0</ele>
        <time>2018-06-23T14:08:10Z</time>
      </trkpt>
      <trkpt lat="40.463583" lon="-4.846983">
        <ele>2012.0</ele>
        <time>2018-06-23T14:08:11Z</time>
      </trkpt>
      <trkpt lat="40.463683" lon="-4.847033">
        <ele>2010.0</ele>
        <time>2018-06-23T14:08:12Z</time>
      </trkpt>
      <trkpt lat="40.463767" lon="-4.847100">
        <ele>2008.0</ele>
        <time>2018-06-23T14:08:13Z</time>
      </trkpt>
      <trkpt lat="40.463867" lon="-4.847167">
        <ele>2004.0</ele>
        <time>2018-06-23T14:08:14Z</time>
      </trkpt>
      <trkpt lat="40.463967" lon="-4.847250">
        <ele>2001.0</ele>
        <time>2018-06-23T14:08:15Z</time>
      </trkpt>
      <trkpt lat="40.464083" lon="-4.847317">
        <ele>1997.0</ele>
        <time>2018-06-23T14:08:16Z</time>
      </trkpt>
      <trkpt lat="40.464200" lon="-4.847383">
        <ele>1994.0</ele>
        <time>2018-06-23T14:08:17Z</time>
      </trkpt>
      <trkpt lat="40.464317" lon="-4.847433">
        <ele>1992.0</ele>
        <time>2018-06-23T14:08:18Z</time>
      </trkpt>
      <trkpt lat="40.464433" lon="-4.847467">
        <ele>1990.0</ele>
        <time>2018-06-23T14:08:19Z</time>
      </trkpt>
      <trkpt lat="40.464550" lon="-4.847500">
        <ele>1988.0</ele>
        <time>2018-06-23T14:08:20Z</time>
      </trkpt>
      <trkpt lat="40.464667" lon="-4.847517">
        <ele>1986.0</ele>
        <time>2018-06-23T14:08:21Z</time>
      </trkpt>
      <trkpt lat="40.464767" lon="-4.847533">
        <ele>1984.0</ele>
        <time>2018-06-23T14:08:22Z</time>
      </trkpt>
      <trkpt lat="40.464883" lon="-4.847567">
        <ele>1982.0</ele>
        <time>2018-06-23T14:08:23Z</time>
      </trkpt>
      <trkpt lat="40.465000" lon="-4.847600">
        <ele>1980.0</ele>
        <time>2018-06-23T14:08:24Z</time>
      </trkpt>
      <trkpt lat="40.465117" lon="-4.847633">
        <ele>1978.0</ele>
        <time>2018-06-23T14:08:25Z</time>
      </trkpt>
      <trkpt lat="40.465217" lon="-4.847667">
        <ele>1976.0</ele>
        <time>2018-06-23T14:08:26Z</time>
      </trkpt>
      <trkpt lat="40.465333" lon="-4.847700">
        <ele>1975.0</ele>
        <time>2018-06-23T14:08:27Z</time>
      </trkpt>
      <trkpt lat="40.465450" lon="-4.847733">
        <ele>1974.0</ele>
        <time>2018-06-23T14:08:28Z</time>
      </trkpt>
      <trkpt lat="40.465567" lon="-4.847767">
        <ele>1973.0</ele>
        <time>2018-06-23T14:08:29Z</time>
      </trkpt>
      <trkpt lat="40.465683" lon="-4.847817">
        <ele>1971.0</ele>
        <time>2018-06-23T14:08:30Z</time>
      </trkpt>
      <trkpt lat="40.465783" lon="-4.847883">
        <ele>1969.0</ele>
        <time>2018-06-23T14:08:31Z</time>
      </trkpt>
      <trkpt lat="40.465883" lon="-4.847933">
        <ele>1967.0</ele>
        <time>2018-06-23T14:08:32Z</time>
      </trkpt>
      <trkpt lat="40.466000" lon="-4.848000">
        <ele>1964.0</ele>
        <time>2018-06-23T14:08:33Z</time>
      </trkpt>
      <trkpt lat="40.466117" lon="-4.848050">
        <ele>1962.0</ele>
        <time>2018-06-23T14:08:34Z</time>
      </trkpt>
      <trkpt lat="40.466233" lon="-4.848117">
        <ele>1960.0</ele>
        <time>2018-06-23T14:08:35Z</time>
      </trkpt>
      <trkpt lat="40.466333" lon="-4.848183">
        <ele>1958.0</ele>
        <time>2018-06-23T14:08:36Z</time>
      </trkpt>
      <trkpt lat="40.466450" lon="-4.848267">
        <ele>1956.0</ele>
        <time>2018-06-23T14:08:37Z</time>
      </trkpt>
      <trkpt lat="40.466583" lon="-4.848350">
        <ele>1955.0</ele>
        <time>2018-06-23T14:08:38Z</time>
      </trkpt>
      <trkpt lat="40.466700" lon="-4.848450">
        <ele>1955.0</ele>
        <time>2018-06-23T14:08:39Z</time>
      </trkpt>
      <trkpt lat="40.466817" lon="-4.848550">
        <ele>1955.0</ele>
        <time>2018-06-23T14:08:40Z</time>
      </trkpt>
      <trkpt lat="40.466917" lon="-4.848667">
        <ele>1956.0</ele>
        <time>2018-06-23T14:08:41Z</time>
      </trkpt>
      <trkpt lat="40.467000" lon="-4.848783">
        <ele>1957.0</ele>
        <time>2018-06-23T14:08:42Z</time>
      </trkpt>
      <trkpt lat="40.467083" lon="-4.848900">
        <ele>1957.0</ele>
        <time>2018-06-23T14:08:43Z</time>
      </trkpt>
      <trkpt lat="40.467167" lon="-4.849017">
        <ele>1957.0</ele>
        <time>2018-06-23T14:08:44Z</time>
      </trkpt>
      <trkpt lat="40.467250" lon="-4.849133">
        <ele>1957.0</ele>
        <time>2018-06-23T14:08:45Z</time>
      </trkpt>
      <trkpt lat="40.467350" lon="-4.849267">
        <ele>1957.0</ele>
        <time>2018-06-23T14:08:46Z</time>
      </trkpt>
      <trkpt lat="40.467433" lon="-4.849383">
        <ele>1957.0</ele>
        <time>2018-06-23T14:08:47Z</time>
      </trkpt>
      <trkpt lat="40.467517" lon="-4.849517">
        <ele>1957.0</ele>
        <time>2018-06-23T14:08:48Z</time>
      </trkpt>
      <trkpt lat="40.467600" lon="-4.849633">
        <ele>1957.0</ele>
        <time>2018-06-23T14:08:49Z</time>
      </trkpt>
      <trkpt lat="40.467700" lon="-4.849750">
        <ele>1957.0</ele>
        <time>2018-06-23T14:08:50Z</time>
      </trkpt>
      <trkpt lat="40.467783" lon="-4.849867">
        <ele>1957.0</ele>
        <time>2018-06-23T14:08:51Z</time>
      </trkpt>
      <trkpt lat="40.467883" lon="-4.850000">
        <ele>1957.0</ele>
        <time>2018-06-23T14:08:52Z</time>
      </trkpt>
      <trkpt lat="40.467967" lon="-4.850117">
        <ele>1957.0</ele>
        <time>2018-06-23T14:08:53Z</time>
      </trkpt>
      <trkpt lat="40.468050" lon="-4.850250">
        <ele>1957.0</ele>
        <time>2018-06-23T14:08:54Z</time>
      </trkpt>
      <trkpt lat="40.468133" lon="-4.850383">
        <ele>1958.0</ele>
        <time>2018-06-23T14:08:55Z</time>
      </trkpt>
      <trkpt lat="40.468217" lon="-4.850533">
        <ele>1958.0</ele>
        <time>2018-06-23T14:08:56Z</time>
      </trkpt>
      <trkpt lat="40.468300" lon="-4.850667">
        <ele>1959.0</ele>
        <time>2018-06-23T14:08:57Z</time>
      </trkpt>
      <trkpt lat="40.468383" lon="-4.850800">
        <ele>1959.0</ele>
        <time>2018-06-23T14:08:58Z</time>
      </trkpt>
      <trkpt lat="40.468450" lon="-4.850933">
        <ele>1960.0</ele>
        <time>2018-06-23T14:08:59Z</time>
      </trkpt>
      <trkpt lat="40.468533" lon="-4.851050">
        <ele>1960.0</ele>
        <time>2018-06-23T14:09:00Z</time>
      </trkpt>
      <trkpt lat="40.468633" lon="-4.851183">
        <ele>1960.0</ele>
        <time>2018-06-23T14:09:01Z</time>
      </trkpt>
      <trkpt lat="40.468733" lon="-4.851283">
        <ele>1960.0</ele>
        <time>2018-06-23T14:09:02Z</time>
      </trkpt>
      <trkpt lat="40.468833" lon="-4.851367">
        <ele>1960.0</ele>
        <time>2018-06-23T14:09:03Z</time>
      </trkpt>
      <trkpt lat="40.468950" lon="-4.851433">
        <ele>1960.0</ele>
        <time>2018-06-23T14:09:04Z</time>
      </trkpt>
      <trkpt lat="40.469067" lon="-4.851450">
        <ele>1961.0</ele>
        <time>2018-06-23T14:09:05Z</time>
      </trkpt>
      <trkpt lat="40.469183" lon="-4.851467">
        <ele>1961.0</ele>
        <time>2018-06-23T14:09:06Z</time>
      </trkpt>
      <trkpt lat="40.469300" lon="-4.851450">
        <ele>1962.0</ele>
        <time>2018-06-23T14:09:07Z</time>
      </trkpt>
      <trkpt lat="40.469417" lon="-4.851433">
        <ele>1964.0</ele>
        <time>2018-06-23T14:09:08Z</time>
      </trkpt>
      <trkpt lat="40.469500" lon="-4.851417">
        <ele>1966.0</ele>
        <time>2018-06-23T14:09:09Z</time>
      </trkpt>
      <trkpt lat="40.469583" lon="-4.851400">
        <ele>1966.0</ele>
        <time>2018-06-23T14:09:10Z</time>
      </trkpt>
      <trkpt lat="40.469683" lon="-4.851350">
        <ele>1965.0</ele>
        <time>2018-06-23T14:09:11Z</time>
      </trkpt>
      <trkpt lat="40.469767" lon="-4.851300">
        <ele>1963.0</ele>
        <time>2018-06-23T14:09:12Z</time>
      </trkpt>
      <trkpt lat="40.469817" lon="-4.851200">
        <ele>1962.0</ele>
        <time>2018-06-23T14:09:13Z</time>
      </trkpt>
      <trkpt lat="40.469850" lon="-4.851083">
        <ele>1960.0</ele>
        <time>2018-06-23T14:09:14Z</time>
      </trkpt>
      <trkpt lat="40.469867" lon="-4.850983">
        <ele>1959.0</ele>
        <time>2018-06-23T14:09:15Z</time>
      </trkpt>
      <trkpt lat="40.469833" lon="-4.850900">
        <ele>1957.0</ele>
        <time>2018-06-23T14:09:16Z</time>
      </trkpt>
      <trkpt lat="40.469783" lon="-4.850833">
        <ele>1955.0</ele>
        <time>2018-06-23T14:09:17Z</time>
      </trkpt>
      <trkpt lat="40.469717" lon="-4.850783">
        <ele>1952.0</ele>
        <time>2018-06-23T14:09:18Z</time>
      </trkpt>
      <trkpt lat="40.469633" lon="-4.850767">
        <ele>1950.0</ele>
        <time>2018-06-23T14:09:19Z</time>
      </trkpt>
      <trkpt lat="40.469550" lon="-4.850767">
        <ele>1949.0</ele>
        <time>2018-06-23T14:09:20Z</time>
      </trkpt>
      <trkpt lat="40.469450" lon="-4.850800">
        <ele>1948.0</ele>
        <time>2018-06-23T14:09:21Z</time>
      </trkpt>
      <trkpt lat="40.469367" lon="-4.850850">
        <ele>1949.0</ele>
        <time>2018-06-23T14:09:22Z</time>
      </trkpt>
      <trkpt lat="40.469300" lon="-4.850933">
        <ele>1950.0</ele>
        <time>2018-06-23T14:09:23Z</time>
      </trkpt>
      <trkpt lat="40.469233" lon="-4.851017">
        <ele>1950.0</ele>
        <time>2018-06-23T14:09:24Z</time>
      </trkpt>
      <trkpt lat="40.469183" lon="-4.851100">
        <ele>1950.0</ele>
        <time>2018-06-23T14:09:25Z</time>
      </trkpt>
      <trkpt lat="40.469150" lon="-4.851167">
        <ele>1949.0</ele>
        <time>2018-06-23T14:09:26Z</time>
      </trkpt>
      <trkpt lat="40.469100" lon="-4.851267">
        <ele>1948.0</ele>
        <time>2018-06-23T14:09:27Z</time>
      </trkpt>
      <trkpt lat="40.469067" lon="-4.851383">
        <ele>1947.0</ele>
        <time>2018-06-23T14:09:28Z</time>
      </trkpt>
      <trkpt lat="40.469033" lon="-4.851500">
        <ele>1946.0</ele>
        <time>2018-06-23T14:09:29Z</time>
      </trkpt>
      <trkpt lat="40.469000" lon="-4.851633">
        <ele>1945.0</ele>
        <time>2018-06-23T14:09:30Z</time>
      </trkpt>
      <trkpt lat="40.468967" lon="-4.851767">
        <ele>1945.0</ele>
        <time>2018-06-23T14:09:31Z</time>
      </trkpt>
      <trkpt lat="40.468950" lon="-4.851900">
        <ele>1945.0</ele>
        <time>2018-06-23T14:09:32Z</time>
      </trkpt>
      <trkpt lat="40.468967" lon="-4.852033">
        <ele>1945.0</ele>
        <time>2018-06-23T14:09:33Z</time>
      </trkpt>
      <trkpt lat="40.468983" lon="-4.852183">
        <ele>1944.0</ele>
        <time>2018-06-23T14:09:34Z</time>
      </trkpt>
      <trkpt lat="40.469017" lon="-4.852333">
        <ele>1943.0</ele>
        <time>2018-06-23T14:09:35Z</time>
      </trkpt>
      <trkpt lat="40.469067" lon="-4.852483">
        <ele>1942.0</ele>
        <time>2018-06-23T14:09:36Z</time>
      </trkpt>
      <trkpt lat="40.469133" lon="-4.852633">
        <ele>1941.0</ele>
        <time>2018-06-23T14:09:37Z</time>
      </trkpt>
      <trkpt lat="40.469233" lon="-4.852767">
        <ele>1941.0</ele>
        <time>2018-06-23T14:09:38Z</time>
      </trkpt>
      <trkpt lat="40.469333" lon="-4.852883">
        <ele>1941.0</ele>
        <time>2018-06-23T14:09:39Z</time>
      </trkpt>
      <trkpt lat="40.469450" lon="-4.852967">
        <ele>1941.0</ele>
        <time>2018-06-23T14:09:40Z</time>
      </trkpt>
      <trkpt lat="40.469550" lon="-4.853033">
        <ele>1942.0</ele>
        <time>2018-06-23T14:09:41Z</time>
      </trkpt>
      <trkpt lat="40.469650" lon="-4.853100">
        <ele>1941.0</ele>
        <time>2018-06-23T14:09:42Z</time>
      </trkpt>
      <trkpt lat="40.469767" lon="-4.853183">
        <ele>1939.0</ele>
        <time>2018-06-23T14:09:43Z</time>
      </trkpt>
      <trkpt lat="40.469883" lon="-4.853267">
        <ele>1937.0</ele>
        <time>2018-06-23T14:09:44Z</time>
      </trkpt>
      <trkpt lat="40.469983" lon="-4.853367">
        <ele>1936.0</ele>
        <time>2018-06-23T14:09:45Z</time>
      </trkpt>
      <trkpt lat="40.470100" lon="-4.853483">
        <ele>1936.0</ele>
        <time>2018-06-23T14:09:46Z</time>
      </trkpt>
      <trkpt lat="40.470183" lon="-4.853600">
        <ele>1937.0</ele>
        <time>2018-06-23T14:09:47Z</time>
      </trkpt>
      <trkpt lat="40.470233" lon="-4.853717">
        <ele>1938.0</ele>
        <time>2018-06-23T14:09:48Z</time>
      </trkpt>
      <trkpt lat="40.470267" lon="-4.853817">
        <ele>1939.0</ele>
        <time>2018-06-23T14:09:49Z</time>
      </trkpt>
      <trkpt lat="40.470317" lon="-4.853900">
        <ele>1938.0</ele>
        <time>2018-06-23T14:09:50Z</time>
      </trkpt>
      <trkpt lat="40.470383" lon="-4.853983">
        <ele>1937.0</ele>
        <time>2018-06-23T14:09:51Z</time>
      </trkpt>
      <trkpt lat="40.470467" lon="-4.854083">
        <ele>1935.0</ele>
        <time>2018-06-23T14:09:52Z</time>
      </trkpt>
      <trkpt lat="40.470533" lon="-4.854200">
        <ele>1934.0</ele>
        <time>2018-06-23T14:09:53Z</time>
      </trkpt>
      <trkpt lat="40.470583" lon="-4.854333">
        <ele>1934.0</ele>
        <time>2018-06-23T14:09:54Z</time>
      </trkpt>
      <trkpt lat="40.470633" lon="-4.854467">
        <ele>1935.0</ele>
        <time>2018-06-23T14:09:55Z</time>
      </trkpt>
      <trkpt lat="40.470700" lon="-4.854583">
        <ele>1936.0</ele>
        <time>2018-06-23T14:09:56Z</time>
      </trkpt>
      <trkpt lat="40.470750" lon="-4.854700">
        <ele>1938.0</ele>
        <time>2018-06-23T14:09:57Z</time>
      </trkpt>
      <trkpt lat="40.470783" lon="-4.854833">
        <ele>1938.0</ele>
        <time>2018-06-23T14:09:58Z</time>
      </trkpt>
      <trkpt lat="40.470833" lon="-4.854950">
        <ele>1938.0</ele>
        <time>2018-06-23T14:09:59Z</time>
      </trkpt>
      <trkpt lat="40.470867" lon="-4.855083">
        <ele>1937.0</ele>
        <time>2018-06-23T14:10:00Z</time>
      </trkpt>
      <trkpt lat="40.470917" lon="-4.855217">
        <ele>1936.0</ele>
        <time>2018-06-23T14:10:01Z</time>
      </trkpt>
      <trkpt lat="40.470967" lon="-4.855350">
        <ele>1935.0</ele>
        <time>2018-06-23T14:10:02Z</time>
      </trkpt>
      <trkpt lat="40.471017" lon="-4.855467">
        <ele>1934.0</ele>
        <time>2018-06-23T14:10:03Z</time>
      </trkpt>
      <trkpt lat="40.471067" lon="-4.855583">
        <ele>1931.0</ele>
        <time>2018-06-23T14:10:04Z</time>
      </trkpt>
      <trkpt lat="40.471150" lon="-4.855700">
        <ele>1928.0</ele>
        <time>2018-06-23T14:10:05Z</time>
      </trkpt>
      <trkpt lat="40.471233" lon="-4.855850">
        <ele>1924.0</ele>
        <time>2018-06-23T14:10:06Z</time>
      </trkpt>
      <trkpt lat="40.471333" lon="-4.855983">
        <ele>1921.0</ele>
        <time>2018-06-23T14:10:07Z</time>
      </trkpt>
      <trkpt lat="40.471433" lon="-4.856117">
        <ele>1920.0</ele>
        <time>2018-06-23T14:10:08Z</time>
      </trkpt>
      <trkpt lat="40.471533" lon="-4.856250">
        <ele>1920.0</ele>
        <time>2018-06-23T14:10:09Z</time>
      </trkpt>
      <trkpt lat="40.471633" lon="-4.856367">
        <ele>1920.0</ele>
        <time>2018-06-23T14:10:10Z</time>
      </trkpt>
      <trkpt lat="40.471717" lon="-4.856467">
        <ele>1921.0</ele>
        <time>2018-06-23T14:10:11Z</time>
      </trkpt>
      <trkpt lat="40.471800" lon="-4.856567">
        <ele>1921.0</ele>
        <time>2018-06-23T14:10:12Z</time>
      </trkpt>
      <trkpt lat="40.471867" lon="-4.856650">
        <ele>1920.0</ele>
        <time>2018-06-23T14:10:13Z</time>
      </trkpt>
      <trkpt lat="40.471933" lon="-4.856750">
        <ele>1919.0</ele>
        <time>2018-06-23T14:10:14Z</time>
      </trkpt>
      <trkpt lat="40.472017" lon="-4.856867">
        <ele>1918.0</ele>
        <time>2018-06-23T14:10:15Z</time>
      </trkpt>
      <trkpt lat="40.472083" lon="-4.856983">
        <ele>1918.0</ele>
        <time>2018-06-23T14:10:16Z</time>
      </trkpt>
      <trkpt lat="40.472167" lon="-4.857100">
        <ele>1918.0</ele>
        <time>2018-06-23T14:10:17Z</time>
      </trkpt>
      <trkpt lat="40.472250" lon="-4.857183">
        <ele>1919.0</ele>
        <time>2018-06-23T14:10:18Z</time>
      </trkpt>
      <trkpt lat="40.472333" lon="-4.857267">
        <ele>1920.0</ele>
        <time>2018-06-23T14:10:19Z</time>
      </trkpt>
      <trkpt lat="40.472417" lon="-4.857367">
        <ele>1920.0</ele>
        <time>2018-06-23T14:10:20Z</time>
      </trkpt>
      <trkpt lat="40.472517" lon="-4.857450">
        <ele>1921.0</ele>
        <time>2018-06-23T14:10:21Z</time>
      </trkpt>
      <trkpt lat="40.472617" lon="-4.857517">
        <ele>1921.0</ele>
        <time>2018-06-23T14:10:22Z</time>
      </trkpt>
      <trkpt lat="40.472717" lon="-4.857567">
        <ele>1921.0</ele>
        <time>2018-06-23T14:10:23Z</time>
      </trkpt>
      <trkpt lat="40.472817" lon="-4.857617">
        <ele>1922.0</ele>
        <time>2018-06-23T14:10:24Z</time>
      </trkpt>
      <trkpt lat="40.472917" lon="-4.857650">
        <ele>1921.0</ele>
        <time>2018-06-23T14:10:25Z</time>
      </trkpt>
      <trkpt lat="40.473017" lon="-4.857683">
        <ele>1921.0</ele>
        <time>2018-06-23T14:10:26Z</time>
      </trkpt>
      <trkpt lat="40.473117" lon="-4.857750">
        <ele>1920.0</ele>
        <time>2018-06-23T14:10:27Z</time>
      </trkpt>
      <trkpt lat="40.473217" lon="-4.857833">
        <ele>1919.0</ele>
        <time>2018-06-23T14:10:28Z</time>
      </trkpt>
      <trkpt lat="40.473300" lon="-4.857917">
        <ele>1918.0</ele>
        <time>2018-06-23T14:10:29Z</time>
      </trkpt>
      <trkpt lat="40.473383" lon="-4.858017">
        <ele>1918.0</ele>
        <time>2018-06-23T14:10:30Z</time>
      </trkpt>
      <trkpt lat="40.473450" lon="-4.858133">
        <ele>1918.0</ele>
        <time>2018-06-23T14:10:31Z</time>
      </trkpt>
      <trkpt lat="40.473500" lon="-4.858267">
        <ele>1917.0</ele>
        <time>2018-06-23T14:10:32Z</time>
      </trkpt>
      <trkpt lat="40.473533" lon="-4.858400">
        <ele>1916.0</ele>
        <time>2018-06-23T14:10:33Z</time>
      </trkpt>
      <trkpt lat="40.473567" lon="-4.858550">
        <ele>1915.0</ele>
        <time>2018-06-23T14:10:34Z</time>
      </trkpt>
      <trkpt lat="40.473583" lon="-4.858683">
        <ele>1915.0</ele>
        <time>2018-06-23T14:10:35Z</time>
      </trkpt>
      <trkpt lat="40.473617" lon="-4.858817">
        <ele>1914.0</ele>
        <time>2018-06-23T14:10:36Z</time>
      </trkpt>
      <trkpt lat="40.473633" lon="-4.858950">
        <ele>1914.0</ele>
        <time>2018-06-23T14:10:37Z</time>
      </trkpt>
      <trkpt lat="40.473650" lon="-4.859083">
        <ele>1914.0</ele>
        <time>2018-06-23T14:10:38Z</time>
      </trkpt>
      <trkpt lat="40.473667" lon="-4.859200">
        <ele>1913.0</ele>
        <time>2018-06-23T14:10:39Z</time>
      </trkpt>
      <trkpt lat="40.473683" lon="-4.859317">
        <ele>1912.0</ele>
        <time>2018-06-23T14:10:40Z</time>
      </trkpt>
      <trkpt lat="40.473733" lon="-4.859450">
        <ele>1911.0</ele>
        <time>2018-06-23T14:10:41Z</time>
      </trkpt>
      <trkpt lat="40.473783" lon="-4.859583">
        <ele>1911.0</ele>
        <time>2018-06-23T14:10:42Z</time>
      </trkpt>
      <trkpt lat="40.473833" lon="-4.859717">
        <ele>1911.0</ele>
        <time>2018-06-23T14:10:43Z</time>
      </trkpt>
      <trkpt lat="40.473883" lon="-4.859850">
        <ele>1911.0</ele>
        <time>2018-06-23T14:10:44Z</time>
      </trkpt>
      <trkpt lat="40.473917" lon="-4.859983">
        <ele>1913.0</ele>
        <time>2018-06-23T14:10:45Z</time>
      </trkpt>
      <trkpt lat="40.473933" lon="-4.860100">
        <ele>1913.0</ele>
        <time>2018-06-23T14:10:46Z</time>
      </trkpt>
      <trkpt lat="40.473933" lon="-4.860217">
        <ele>1913.0</ele>
        <time>2018-06-23T14:10:47Z</time>
      </trkpt>
      <trkpt lat="40.473900" lon="-4.860333">
        <ele>1912.0</ele>
        <time>2018-06-23T14:10:48Z</time>
      </trkpt>
      <trkpt lat="40.473883" lon="-4.860450">
        <ele>1911.0</ele>
        <time>2018-06-23T14:10:49Z</time>
      </trkpt>
      <trkpt lat="40.473883" lon="-4.860583">
        <ele>1909.0</ele>
        <time>2018-06-23T14:10:50Z</time>
      </trkpt>
      <trkpt lat="40.473867" lon="-4.860700">
        <ele>1908.0</ele>
        <time>2018-06-23T14:10:51Z</time>
      </trkpt>
      <trkpt lat="40.473833" lon="-4.860833">
        <ele>1906.0</ele>
        <time>2018-06-23T14:10:52Z</time>
      </trkpt>
      <trkpt lat="40.473800" lon="-4.860967">
        <ele>1905.0</ele>
        <time>2018-06-23T14:10:53Z</time>
      </trkpt>
      <trkpt lat="40.473767" lon="-4.861100">
        <ele>1904.0</ele>
        <time>2018-06-23T14:10:54Z</time>
      </trkpt>
      <trkpt lat="40.473767" lon="-4.861233">
        <ele>1904.0</ele>
        <time>2018-06-23T14:10:55Z</time>
      </trkpt>
      <trkpt lat="40.473767" lon="-4.861367">
        <ele>1902.0</ele>
        <time>2018-06-23T14:10:56Z</time>
      </trkpt>
      <trkpt lat="40.473800" lon="-4.861483">
        <ele>1901.0</ele>
        <time>2018-06-23T14:10:57Z</time>
      </trkpt>
      <trkpt lat="40.473833" lon="-4.861617">
        <ele>1899.0</ele>
        <time>2018-06-23T14:10:58Z</time>
      </trkpt>
      <trkpt lat="40.473850" lon="-4.861750">
        <ele>1897.0</ele>
        <time>2018-06-23T14:10:59Z</time>
      </trkpt>
      <trkpt lat="40.473883" lon="-4.861883">
        <ele>1895.0</ele>
        <time>2018-06-23T14:11:00Z</time>
      </trkpt>
      <trkpt lat="40.473933" lon="-4.862017">
        <ele>1893.0</ele>
        <time>2018-06-23T14:11:01Z</time>
      </trkpt>
      <trkpt lat="40.474000" lon="-4.862150">
        <ele>1891.0</ele>
        <time>2018-06-23T14:11:02Z</time>
      </trkpt>
      <trkpt lat="40.474067" lon="-4.862283">
        <ele>1889.0</ele>
        <time>2018-06-23T14:11:03Z</time>
      </trkpt>
      <trkpt lat="40.474167" lon="-4.862383">
        <ele>1887.0</ele>
        <time>2018-06-23T14:11:04Z</time>
      </trkpt>
      <trkpt lat="40.474283" lon="-4.862483">
        <ele>1885.0</ele>
        <time>2018-06-23T14:11:05Z</time>
      </trkpt>
      <trkpt lat="40.474417" lon="-4.862550">
        <ele>1884.0</ele>
        <time>2018-06-23T14:11:06Z</time>
      </trkpt>
      <trkpt lat="40.474550" lon="-4.862583">
        <ele>1885.0</ele>
        <time>2018-06-23T14:11:07Z</time>
      </trkpt>
      <trkpt lat="40.474667" lon="-4.862600">
        <ele>1885.0</ele>
        <time>2018-06-23T14:11:08Z</time>
      </trkpt>
      <trkpt lat="40.474800" lon="-4.862583">
        <ele>1885.0</ele>
        <time>2018-06-23T14:11:09Z</time>
      </trkpt>
      <trkpt lat="40.474917" lon="-4.862567">
        <ele>1884.0</ele>
        <time>2018-06-23T14:11:10Z</time>
      </trkpt>
      <trkpt lat="40.475017" lon="-4.862533">
        <ele>1884.0</ele>
        <time>2018-06-23T14:11:11Z</time>
      </trkpt>
      <trkpt lat="40.475133" lon="-4.862517">
        <ele>1883.0</ele>
        <time>2018-06-23T14:11:12Z</time>
      </trkpt>
      <trkpt lat="40.475250" lon="-4.862500">
        <ele>1882.0</ele>
        <time>2018-06-23T14:11:13Z</time>
      </trkpt>
      <trkpt lat="40.475350" lon="-4.862483">
        <ele>1880.0</ele>
        <time>2018-06-23T14:11:14Z</time>
      </trkpt>
      <trkpt lat="40.475467" lon="-4.862467">
        <ele>1879.0</ele>
        <time>2018-06-23T14:11:15Z</time>
      </trkpt>
      <trkpt lat="40.475583" lon="-4.862417">
        <ele>1878.0</ele>
        <time>2018-06-23T14:11:16Z</time>
      </trkpt>
      <trkpt lat="40.475683" lon="-4.862367">
        <ele>1876.0</ele>
        <time>2018-06-23T14:11:17Z</time>
      </trkpt>
      <trkpt lat="40.475767" lon="-4.862300">
        <ele>1876.0</ele>
        <time>2018-06-23T14:11:18Z</time>
      </trkpt>
      <trkpt lat="40.475850" lon="-4.862217">
        <ele>1874.0</ele>
        <time>2018-06-23T14:11:19Z</time>
      </trkpt>
      <trkpt lat="40.475917" lon="-4.862117">
        <ele>1872.0</ele>
        <time>2018-06-23T14:11:20Z</time>
      </trkpt>
      <trkpt lat="40.475967" lon="-4.862017">
        <ele>1871.0</ele>
        <time>2018-06-23T14:11:21Z</time>
      </trkpt>
      <trkpt lat="40.476017" lon="-4.861883">
        <ele>1870.0</ele>
        <time>2018-06-23T14:11:22Z</time>
      </trkpt>
      <trkpt lat="40.476050" lon="-4.861783">
        <ele>1870.0</ele>
        <time>2018-06-23T14:11:23Z</time>
      </trkpt>
      <trkpt lat="40.476083" lon="-4.861683">
        <ele>1871.0</ele>
        <time>2018-06-23T14:11:24Z</time>
      </trkpt>
      <trkpt lat="40.476117" lon="-4.861583">
        <ele>1872.0</ele>
        <time>2018-06-23T14:11:25Z</time>
      </trkpt>
      <trkpt lat="40.476167" lon="-4.861500">
        <ele>1871.0</ele>
        <time>2018-06-23T14:11:26Z</time>
      </trkpt>
      <trkpt lat="40.476200" lon="-4.861417">
        <ele>1870.0</ele>
        <time>2018-06-23T14:11:27Z</time>
      </trkpt>
      <trkpt lat="40.476267" lon="-4.861350">
        <ele>1870.0</ele>
        <time>2018-06-23T14:11:28Z</time>
      </trkpt>
      <trkpt lat="40.476333" lon="-4.861267">
        <ele>1869.0</ele>
        <time>2018-06-23T14:11:29Z</time>
      </trkpt>
      <trkpt lat="40.476400" lon="-4.861200">
        <ele>1868.0</ele>
        <time>2018-06-23T14:11:30Z</time>
      </trkpt>
      <trkpt lat="40.476450" lon="-4.861117">
        <ele>1867.0</ele>
        <time>2018-06-23T14:11:31Z</time>
      </trkpt>
      <trkpt lat="40.476517" lon="-4.861050">
        <ele>1865.0</ele>
        <time>2018-06-23T14:11:32Z</time>
      </trkpt>
      <trkpt lat="40.476567" lon="-4.860967">
        <ele>1864.0</ele>
        <time>2018-06-23T14:11:33Z</time>
      </trkpt>
      <trkpt lat="40.476617" lon="-4.860900">
        <ele>1862.0</ele>
        <time>2018-06-23T14:11:34Z</time>
      </trkpt>
      <trkpt lat="40.476667" lon="-4.860817">
        <ele>1859.0</ele>
        <time>2018-06-23T14:11:35Z</time>
      </trkpt>
      <trkpt lat="40.476717" lon="-4.860733">
        <ele>1857.0</ele>
        <time>2018-06-23T14:11:36Z</time>
      </trkpt>
      <trkpt lat="40.476767" lon="-4.860633">
        <ele>1854.0</ele>
        <time>2018-06-23T14:11:37Z</time>
      </trkpt>
      <trkpt lat="40.476800" lon="-4.860533">
        <ele>1851.0</ele>
        <time>2018-06-23T14:11:38Z</time>
      </trkpt>
      <trkpt lat="40.476833" lon="-4.860433">
        <ele>1849.0</ele>
        <time>2018-06-23T14:11:39Z</time>
      </trkpt>
      <trkpt lat="40.476850" lon="-4.860333">
        <ele>1848.0</ele>
        <time>2018-06-23T14:11:40Z</time>
      </trkpt>
      <trkpt lat="40.476833" lon="-4.860250">
        <ele>1846.0</ele>
        <time>2018-06-23T14:11:41Z</time>
      </trkpt>
      <trkpt lat="40.476800" lon="-4.860167">
        <ele>1843.0</ele>
        <time>2018-06-23T14:11:42Z</time>
      </trkpt>
      <trkpt lat="40.476750" lon="-4.860100">
        <ele>1840.0</ele>
        <time>2018-06-23T14:11:43Z</time>
      </trkpt>
      <trkpt lat="40.476683" lon="-4.860033">
        <ele>1838.0</ele>
        <time>2018-06-23T14:11:44Z</time>
      </trkpt>
      <trkpt lat="40.476600" lon="-4.859983">
        <ele>1836.0</ele>
        <time>2018-06-23T14:11:45Z</time>
      </trkpt>
      <trkpt lat="40.476533" lon="-4.859950">
        <ele>1835.0</ele>
        <time>2018-06-23T14:11:46Z</time>
      </trkpt>
      <trkpt lat="40.476483" lon="-4.859900">
        <ele>1833.0</ele>
        <time>2018-06-23T14:11:47Z</time>
      </trkpt>
      <trkpt lat="40.476433" lon="-4.859833">
        <ele>1831.0</ele>
        <time>2018-06-23T14:11:48Z</time>
      </trkpt>
      <trkpt lat="40.476383" lon="-4.859767">
        <ele>1829.0</ele>
        <time>2018-06-23T14:11:49Z</time>
      </trkpt>
      <trkpt lat="40.476333" lon="-4.859700">
        <ele>1828.0</ele>
        <time>2018-06-23T14:11:50Z</time>
      </trkpt>
      <trkpt lat="40.476283" lon="-4.859650">
        <ele>1827.0</ele>
        <time>2018-06-23T14:11:51Z</time>
      </trkpt>
      <trkpt lat="40.476217" lon="-4.859600">
        <ele>1826.0</ele>
        <time>2018-06-23T14:11:52Z</time>
      </trkpt>
      <trkpt lat="40.476167" lon="-4.859533">
        <ele>1823.0</ele>
        <time>2018-06-23T14:11:53Z</time>
      </trkpt>
      <trkpt lat="40.476117" lon="-4.859467">
        <ele>1821.0</ele>
        <time>2018-06-23T14:11:54Z</time>
      </trkpt>
      <trkpt lat="40.476067" lon="-4.859400">
        <ele>1819.0</ele>
        <time>2018-06-23T14:11:55Z</time>
      </trkpt>
      <trkpt lat="40.476017" lon="-4.859367">
        <ele>1817.0</ele>
        <time>2018-06-23T14:11:56Z</time>
      </trkpt>
      <trkpt lat="40.475950" lon="-4.859350">
        <ele>1815.0</ele>
        <time>2018-06-23T14:11:57Z</time>
      </trkpt>
      <trkpt lat="40.475883" lon="-4.859350">
        <ele>1812.0</ele>
        <time>2018-06-23T14:11:58Z</time>
      </trkpt>
      <trkpt lat="40.475817" lon="-4.859333">
        <ele>1809.0</ele>
        <time>2018-06-23T14:11:59Z</time>
      </trkpt>
      <trkpt lat="40.475767" lon="-4.859300">
        <ele>1806.0</ele>
        <time>2018-06-23T14:12:00Z</time>
      </trkpt>
      <trkpt lat="40.475700" lon="-4.859233">
        <ele>1804.0</ele>
        <time>2018-06-23T14:12:01Z</time>
      </trkpt>
      <trkpt lat="40.475633" lon="-4.859167">
        <ele>1802.0</ele>
        <time>2018-06-23T14:12:02Z</time>
      </trkpt>
      <trkpt lat="40.475583" lon="-4.859117">
        <ele>1802.0</ele>
        <time>2018-06-23T14:12:03Z</time>
      </trkpt>
      <trkpt lat="40.475533" lon="-4.859067">
        <ele>1801.0</ele>
        <time>2018-06-23T14:12:04Z</time>
      </trkpt>
      <trkpt lat="40.475467" lon="-4.859033">
        <ele>1798.0</ele>
        <time>2018-06-23T14:12:05Z</time>
      </trkpt>
      <trkpt lat="40.475400" lon="-4.858983">
        <ele>1794.0</ele>
        <time>2018-06-23T14:12:06Z</time>
      </trkpt>
      <trkpt lat="40.475333" lon="-4.858917">
        <ele>1791.0</ele>
        <time>2018-06-23T14:12:07Z</time>
      </trkpt>
      <trkpt lat="40.475250" lon="-4.858850">
        <ele>1789.0</ele>
        <time>2018-06-23T14:12:08Z</time>
      </trkpt>
      <trkpt lat="40.475183" lon="-4.858800">
        <ele>1789.0</ele>
        <time>2018-06-23T14:12:09Z</time>
      </trkpt>
      <trkpt lat="40.475133" lon="-4.858733">
        <ele>1789.0</ele>
        <time>2018-06-23T14:12:10Z</time>
      </trkpt>
      <trkpt lat="40.475083" lon="-4.858683">
        <ele>1787.0</ele>
        <time>2018-06-23T14:12:11Z</time>
      </trkpt>
      <trkpt lat="40.475033" lon="-4.858633">
        <ele>1785.0</ele>
        <time>2018-06-23T14:12:12Z</time>
      </trkpt>
      <trkpt lat="40.474967" lon="-4.858567">
        <ele>1783.0</ele>
        <time>2018-06-23T14:12:13Z</time>
      </trkpt>
      <trkpt lat="40.474883" lon="-4.858500">
        <ele>1781.0</ele>
        <time>2018-06-23T14:12:14Z</time>
      </trkpt>
      <trkpt lat="40.474833" lon="-4.858450">
        <ele>1780.0</ele>
        <time>2018-06-23T14:12:15Z</time>
      </trkpt>
      <trkpt lat="40.474783" lon="-4.858400">
        <ele>1780.0</ele>
        <time>2018-06-23T14:12:16Z</time>
      </trkpt>
      <trkpt lat="40.474750" lon="-4.858350">
        <ele>1777.0</ele>
        <time>2018-06-23T14:12:17Z</time>
      </trkpt>
      <trkpt lat="40.474717" lon="-4.858283">
        <ele>1773.0</ele>
        <time>2018-06-23T14:12:18Z</time>
      </trkpt>
      <trkpt lat="40.474650" lon="-4.858217">
        <ele>1768.0</ele>
        <time>2018-06-23T14:12:19Z</time>
      </trkpt>
      <trkpt lat="40.474583" lon="-4.858133">
        <ele>1764.0</ele>
        <time>2018-06-23T14:12:20Z</time>
      </trkpt>
      <trkpt lat="40.474500" lon="-4.858033">
        <ele>1761.0</ele>
        <time>2018-06-23T14:12:21Z</time>
      </trkpt>
      <trkpt lat="40.474433" lon="-4.857933">
        <ele>1760.0</ele>
        <time>2018-06-23T14:12:22Z</time>
      </trkpt>
      <trkpt lat="40.474367" lon="-4.857833">
        <ele>1759.0</ele>
        <time>2018-06-23T14:12:23Z</time>
      </trkpt>
      <trkpt lat="40.474300" lon="-4.857767">
        <ele>1758.0</ele>
        <time>2018-06-23T14:12:24Z</time>
      </trkpt>
      <trkpt lat="40.474233" lon="-4.857717">
        <ele>1757.0</ele>
        <time>2018-06-23T14:12:25Z</time>
      </trkpt>
      <trkpt lat="40.474150" lon="-4.857667">
        <ele>1755.0</ele>
        <time>2018-06-23T14:12:26Z</time>
      </trkpt>
      <trkpt lat="40.474083" lon="-4.857600">
        <ele>1753.0</ele>
        <time>2018-06-23T14:12:27Z</time>
      </trkpt>
      <trkpt lat="40.473983" lon="-4.857517">
        <ele>1750.0</ele>
        <time>2018-06-23T14:12:28Z</time>
      </trkpt>
      <trkpt lat="40.473900" lon="-4.857433">
        <ele>1748.0</ele>
        <time>2018-06-23T14:12:29Z</time>
      </trkpt>
      <trkpt lat="40.473817" lon="-4.857333">
        <ele>1748.0</ele>
        <time>2018-06-23T14:12:30Z</time>
      </trkpt>
      <trkpt lat="40.473750" lon="-4.857250">
        <ele>1748.0</ele>
        <time>2018-06-23T14:12:31Z</time>
      </trkpt>
      <trkpt lat="40.473683" lon="-4.857167">
        <ele>1748.0</ele>
        <time>2018-06-23T14:12:32Z</time>
      </trkpt>
      <trkpt lat="40.473617" lon="-4.857067">
        <ele>1747.0</ele>
        <time>2018-06-23T14:12:33Z</time>
      </trkpt>
      <trkpt lat="40.473550" lon="-4.856983">
        <ele>1745.0</ele>
        <time>2018-06-23T14:12:34Z</time>
      </trkpt>
      <trkpt lat="40.473500" lon="-4.856867">
        <ele>1745.0</ele>
        <time>2018-06-23T14:12:35Z</time>
      </trkpt>
      <trkpt lat="40.473450" lon="-4.856750">
        <ele>1744.0</ele>
        <time>2018-06-23T14:12:36Z</time>
      </trkpt>
      <trkpt lat="40.473400" lon="-4.856650">
        <ele>1743.0</ele>
        <time>2018-06-23T14:12:37Z</time>
      </trkpt>
      <trkpt lat="40.473350" lon="-4.856533">
        <ele>1743.0</ele>
        <time>2018-06-23T14:12:38Z</time>
      </trkpt>
      <trkpt lat="40.473317" lon="-4.856433">
        <ele>1743.0</ele>
        <time>2018-06-23T14:12:39Z</time>
      </trkpt>
      <trkpt lat="40.473283" lon="-4.856317">
        <ele>1742.0</ele>
        <time>2018-06-23T14:12:40Z</time>
      </trkpt>
      <trkpt lat="40.473250" lon="-4.856217">
        <ele>1740.0</ele>
        <time>2018-06-23T14:12:41Z</time>
      </trkpt>
      <trkpt lat="40.473200" lon="-4.856100">
        <ele>1738.0</ele>
        <time>2018-06-23T14:12:42Z</time>
      </trkpt>
      <trkpt lat="40.473133" lon="-4.855983">
        <ele>1736.0</ele>
        <time>2018-06-23T14:12:43Z</time>
      </trkpt>
      <trkpt lat="40.473050" lon="-4.855900">
        <ele>1734.0</ele>
        <time>2018-06-23T14:12:44Z</time>
      </trkpt>
      <trkpt lat="40.472967" lon="-4.855833">
        <ele>1733.0</ele>
        <time>2018-06-23T14:12:45Z</time>
      </trkpt>
      <trkpt lat="40.472900" lon="-4.855750">
        <ele>1734.0</ele>
        <time>2018-06-23T14:12:46Z</time>
      </trkpt>
      <trkpt lat="40.472850" lon="-4.855667">
        <ele>1734.0</ele>
        <time>2018-06-23T14:12:47Z</time>
      </trkpt>
      <trkpt lat="40.472800" lon="-4.855583">
        <ele>1733.0</ele>
        <time>2018-06-23T14:12:48Z</time>
      </trkpt>
      <trkpt lat="40.472767" lon="-4.855483">
        <ele>1732.0</ele>
        <time>2018-06-23T14:12:49Z</time>
      </trkpt>
      <trkpt lat="40.472717" lon="-4.855400">
        <ele>1729.0</ele>
        <time>2018-06-23T14:12:50Z</time>
      </trkpt>
      <trkpt lat="40.472667" lon="-4.855300">
        <ele>1727.0</ele>
        <time>2018-06-23T14:12:51Z</time>
      </trkpt>
      <trkpt lat="40.472617" lon="-4.855183">
        <ele>1724.0</ele>
        <time>2018-06-23T14:12:52Z</time>
      </trkpt>
      <trkpt lat="40.472567" lon="-4.855067">
        <ele>1724.0</ele>
        <time>2018-06-23T14:12:53Z</time>
      </trkpt>
      <trkpt lat="40.472500" lon="-4.854967">
        <ele>1725.0</ele>
        <time>2018-06-23T14:12:54Z</time>
      </trkpt>
      <trkpt lat="40.472433" lon="-4.854900">
        <ele>1727.0</ele>
        <time>2018-06-23T14:12:55Z</time>
      </trkpt>
      <trkpt lat="40.472383" lon="-4.854850">
        <ele>1728.0</ele>
        <time>2018-06-23T14:12:56Z</time>
      </trkpt>
      <trkpt lat="40.472317" lon="-4.854783">
        <ele>1729.0</ele>
        <time>2018-06-23T14:12:57Z</time>
      </trkpt>
      <trkpt lat="40.472283" lon="-4.854700">
        <ele>1729.0</ele>
        <time>2018-06-23T14:12:58Z</time>
      </trkpt>
      <trkpt lat="40.472250" lon="-4.854617">
        <ele>1728.0</ele>
        <time>2018-06-23T14:12:59Z</time>
      </trkpt>
      <trkpt lat="40.472217" lon="-4.854533">
        <ele>1728.0</ele>
        <time>2018-06-23T14:13:00Z</time>
      </trkpt>
      <trkpt lat="40.472167" lon="-4.854433">
        <ele>1727.0</ele>
        <time>2018-06-23T14:13:01Z</time>
      </trkpt>
      <trkpt lat="40.472117" lon="-4.854350">
        <ele>1727.0</ele>
        <time>2018-06-23T14:13:02Z</time>
      </trkpt>
      <trkpt lat="40.472067" lon="-4.854267">
        <ele>1727.0</ele>
        <time>2018-06-23T14:13:03Z</time>
      </trkpt>
      <trkpt lat="40.472017" lon="-4.854183">
        <ele>1727.0</ele>
        <time>2018-06-23T14:13:04Z</time>
      </trkpt>
      <trkpt lat="40.471950" lon="-4.854117">
        <ele>1728.0</ele>
        <time>2018-06-23T14:13:05Z</time>
      </trkpt>
      <trkpt lat="40.471867" lon="-4.854050">
        <ele>1727.0</ele>
        <time>2018-06-23T14:13:06Z</time>
      </trkpt>
      <trkpt lat="40.471783" lon="-4.854000">
        <ele>1727.0</ele>
        <time>2018-06-23T14:13:07Z</time>
      </trkpt>
      <trkpt lat="40.471717" lon="-4.853933">
        <ele>1727.0</ele>
        <time>2018-06-23T14:13:08Z</time>
      </trkpt>
      <trkpt lat="40.471650" lon="-4.853850">
        <ele>1727.0</ele>
        <time>2018-06-23T14:13:09Z</time>
      </trkpt>
      <trkpt lat="40.471600" lon="-4.853767">
        <ele>1726.0</ele>
        <time>2018-06-23T14:13:10Z</time>
      </trkpt>
      <trkpt lat="40.471533" lon="-4.853667">
        <ele>1726.0</ele>
        <time>2018-06-23T14:13:11Z</time>
      </trkpt>
      <trkpt lat="40.471483" lon="-4.853567">
        <ele>1726.0</ele>
        <time>2018-06-23T14:13:12Z</time>
      </trkpt>
      <trkpt lat="40.471433" lon="-4.853450">
        <ele>1726.0</ele>
        <time>2018-06-23T14:13:13Z</time>
      </trkpt>
      <trkpt lat="40.471417" lon="-4.853350">
        <ele>1726.0</ele>
        <time>2018-06-23T14:13:14Z</time>
      </trkpt>
      <trkpt lat="40.471383" lon="-4.853250">
        <ele>1726.0</ele>
        <time>2018-06-23T14:13:15Z</time>
      </trkpt>
      <trkpt lat="40.471350" lon="-4.853167">
        <ele>1725.0</ele>
        <time>2018-06-23T14:13:16Z</time>
      </trkpt>
      <trkpt lat="40.471300" lon="-4.853067">
        <ele>1724.0</ele>
        <time>2018-06-23T14:13:17Z</time>
      </trkpt>
      <trkpt lat="40.471267" lon="-4.852950">
        <ele>1721.0</ele>
        <time>2018-06-23T14:13:18Z</time>
      </trkpt>
      <trkpt lat="40.471233" lon="-4.852833">
        <ele>1719.0</ele>
        <time>2018-06-23T14:13:19Z</time>
      </trkpt>
      <trkpt lat="40.471200" lon="-4.852683">
        <ele>1718.0</ele>
        <time>2018-06-23T14:13:20Z</time>
      </trkpt>
      <trkpt lat="40.471183" lon="-4.852550">
        <ele>1718.0</ele>
        <time>2018-06-23T14:13:21Z</time>
      </trkpt>
      <trkpt lat="40.471167" lon="-4.852417">
        <ele>1720.0</ele>
        <time>2018-06-23T14:13:22Z</time>
      </trkpt>
      <trkpt lat="40.471167" lon="-4.852300">
        <ele>1723.0</ele>
        <time>2018-06-23T14:13:23Z</time>
      </trkpt>
      <trkpt lat="40.471167" lon="-4.852217">
        <ele>1725.0</ele>
        <time>2018-06-23T14:13:24Z</time>
      </trkpt>
      <trkpt lat="40.471167" lon="-4.852133">
        <ele>1725.0</ele>
        <time>2018-06-23T14:13:25Z</time>
      </trkpt>
      <trkpt lat="40.471183" lon="-4.852033">
        <ele>1725.0</ele>
        <time>2018-06-23T14:13:26Z</time>
      </trkpt>
      <trkpt lat="40.471183" lon="-4.851917">
        <ele>1725.0</ele>
        <time>2018-06-23T14:13:27Z</time>
      </trkpt>
      <trkpt lat="40.471183" lon="-4.851817">
        <ele>1726.0</ele>
        <time>2018-06-23T14:13:28Z</time>
      </trkpt>
      <trkpt lat="40.471167" lon="-4.851717">
        <ele>1728.0</ele>
        <time>2018-06-23T14:13:29Z</time>
      </trkpt>
      <trkpt lat="40.471133" lon="-4.851633">
        <ele>1730.0</ele>
        <time>2018-06-23T14:13:30Z</time>
      </trkpt>
      <trkpt lat="40.471067" lon="-4.851567">
        <ele>1731.0</ele>
        <time>2018-06-23T14:13:31Z</time>
      </trkpt>
      <trkpt lat="40.471000" lon="-4.851533">
        <ele>1732.0</ele>
        <time>2018-06-23T14:13:32Z</time>
      </trkpt>
      <trkpt lat="40.470933" lon="-4.851517">
        <ele>1733.0</ele>
        <time>2018-06-23T14:13:33Z</time>
      </trkpt>
      <trkpt lat="40.470850" lon="-4.851517">
        <ele>1733.0</ele>
        <time>2018-06-23T14:13:34Z</time>
      </trkpt>
      <trkpt lat="40.470783" lon="-4.851550">
        <ele>1733.0</ele>
        <time>2018-06-23T14:13:35Z</time>
      </trkpt>
      <trkpt lat="40.470717" lon="-4.851583">
        <ele>1732.0</ele>
        <time>2018-06-23T14:13:36Z</time>
      </trkpt>
      <trkpt lat="40.470650" lon="-4.851617">
        <ele>1730.0</ele>
        <time>2018-06-23T14:13:37Z</time>
      </trkpt>
      <trkpt lat="40.470583" lon="-4.851617">
        <ele>1728.0</ele>
        <time>2018-06-23T14:13:38Z</time>
      </trkpt>
      <trkpt lat="40.470500" lon="-4.851583">
        <ele>1725.0</ele>
        <time>2018-06-23T14:13:39Z</time>
      </trkpt>
      <trkpt lat="40.470417" lon="-4.851517">
        <ele>1722.0</ele>
        <time>2018-06-23T14:13:40Z</time>
      </trkpt>
      <trkpt lat="40.470383" lon="-4.851400">
        <ele>1720.0</ele>
        <time>2018-06-23T14:13:41Z</time>
      </trkpt>
      <trkpt lat="40.470367" lon="-4.851283">
        <ele>1718.0</ele>
        <time>2018-06-23T14:13:42Z</time>
      </trkpt>
      <trkpt lat="40.470383" lon="-4.851150">
        <ele>1715.0</ele>
        <time>2018-06-23T14:13:43Z</time>
      </trkpt>
      <trkpt lat="40.470400" lon="-4.851033">
        <ele>1713.0</ele>
        <time>2018-06-23T14:13:44Z</time>
      </trkpt>
      <trkpt lat="40.470417" lon="-4.850900">
        <ele>1711.0</ele>
        <time>2018-06-23T14:13:45Z</time>
      </trkpt>
      <trkpt lat="40.470433" lon="-4.850783">
        <ele>1709.0</ele>
        <time>2018-06-23T14:13:46Z</time>
      </trkpt>
      <trkpt lat="40.470450" lon="-4.850650">
        <ele>1706.0</ele>
        <time>2018-06-23T14:13:47Z</time>
      </trkpt>
      <trkpt lat="40.470483" lon="-4.850517">
        <ele>1703.0</ele>
        <time>2018-06-23T14:13:48Z</time>
      </trkpt>
      <trkpt lat="40.470533" lon="-4.850383">
        <ele>1700.0</ele>
        <time>2018-06-23T14:13:49Z</time>
      </trkpt>
      <trkpt lat="40.470583" lon="-4.850267">
        <ele>1696.0</ele>
        <time>2018-06-23T14:13:50Z</time>
      </trkpt>
      <trkpt lat="40.470633" lon="-4.850133">
        <ele>1693.0</ele>
        <time>2018-06-23T14:13:51Z</time>
      </trkpt>
      <trkpt lat="40.470667" lon="-4.849983">
        <ele>1691.0</ele>
        <time>2018-06-23T14:13:52Z</time>
      </trkpt>
      <trkpt lat="40.470683" lon="-4.849850">
        <ele>1689.0</ele>
        <time>2018-06-23T14:13:53Z</time>
      </trkpt>
      <trkpt lat="40.470700" lon="-4.849733">
        <ele>1688.0</ele>
        <time>2018-06-23T14:13:54Z</time>
      </trkpt>
      <trkpt lat="40.470717" lon="-4.849600">
        <ele>1686.0</ele>
        <time>2018-06-23T14:13:55Z</time>
      </trkpt>
      <trkpt lat="40.470717" lon="-4.849483">
        <ele>1683.0</ele>
        <time>2018-06-23T14:13:56Z</time>
      </trkpt>
      <trkpt lat="40.470700" lon="-4.849350">
        <ele>1681.0</ele>
        <time>2018-06-23T14:13:57Z</time>
      </trkpt>
      <trkpt lat="40.470650" lon="-4.849233">
        <ele>1678.0</ele>
        <time>2018-06-23T14:13:58Z</time>
      </trkpt>
      <trkpt lat="40.470600" lon="-4.849100">
        <ele>1677.0</ele>
        <time>2018-06-23T14:13:59Z</time>
      </trkpt>
      <trkpt lat="40.470567" lon="-4.848983">
        <ele>1676.0</ele>
        <time>2018-06-23T14:14:00Z</time>
      </trkpt>
      <trkpt lat="40.470550" lon="-4.848883">
        <ele>1676.0</ele>
        <time>2018-06-23T14:14:01Z</time>
      </trkpt>
      <trkpt lat="40.470533" lon="-4.848767">
        <ele>1674.0</ele>
        <time>2018-06-23T14:14:02Z</time>
      </trkpt>
      <trkpt lat="40.470500" lon="-4.848667">
        <ele>1672.0</ele>
        <time>2018-06-23T14:14:03Z</time>
      </trkpt>
      <trkpt lat="40.470450" lon="-4.848567">
        <ele>1668.0</ele>
        <time>2018-06-23T14:14:04Z</time>
      </trkpt>
      <trkpt lat="40.470383" lon="-4.848467">
        <ele>1664.0</ele>
        <time>2018-06-23T14:14:05Z</time>
      </trkpt>
      <trkpt lat="40.470333" lon="-4.848350">
        <ele>1661.0</ele>
        <time>2018-06-23T14:14:06Z</time>
      </trkpt>
      <trkpt lat="40.470283" lon="-4.848233">
        <ele>1659.0</ele>
        <time>2018-06-23T14:14:07Z</time>
      </trkpt>
      <trkpt lat="40.470233" lon="-4.848117">
        <ele>1658.0</ele>
        <time>2018-06-23T14:14:08Z</time>
      </trkpt>
      <trkpt lat="40.470167" lon="-4.848033">
        <ele>1656.0</ele>
        <time>2018-06-23T14:14:09Z</time>
      </trkpt>
      <trkpt lat="40.470100" lon="-4.847950">
        <ele>1654.0</ele>
        <time>2018-06-23T14:14:10Z</time>
      </trkpt>
      <trkpt lat="40.470033" lon="-4.847883">
        <ele>1653.0</ele>
        <time>2018-06-23T14:14:11Z</time>
      </trkpt>
      <trkpt lat="40.469967" lon="-4.847783">
        <ele>1653.0</ele>
        <time>2018-06-23T14:14:12Z</time>
      </trkpt>
      <trkpt lat="40.469917" lon="-4.847683">
        <ele>1652.0</ele>
        <time>2018-06-23T14:14:13Z</time>
      </trkpt>
      <trkpt lat="40.469850" lon="-4.847617">
        <ele>1652.0</ele>
        <time>2018-06-23T14:14:14Z</time>
      </trkpt>
      <trkpt lat="40.469800" lon="-4.847533">
        <ele>1651.0</ele>
        <time>2018-06-23T14:14:15Z</time>
      </trkpt>
      <trkpt lat="40.469767" lon="-4.847450">
        <ele>1650.0</ele>
        <time>2018-06-23T14:14:16Z</time>
      </trkpt>
      <trkpt lat="40.469717" lon="-4.847350">
        <ele>1647.0</ele>
        <time>2018-06-23T14:14:17Z</time>
      </trkpt>
      <trkpt lat="40.469667" lon="-4.847250">
        <ele>1644.0</ele>
        <time>2018-06-23T14:14:18Z</time>
      </trkpt>
      <trkpt lat="40.469600" lon="-4.847150">
        <ele>1642.0</ele>
        <time>2018-06-23T14:14:19Z</time>
      </trkpt>
      <trkpt lat="40.469533" lon="-4.847083">
        <ele>1639.0</ele>
        <time>2018-06-23T14:14:20Z</time>
      </trkpt>
      <trkpt lat="40.469450" lon="-4.847000">
        <ele>1637.0</ele>
        <time>2018-06-23T14:14:21Z</time>
      </trkpt>
      <trkpt lat="40.469367" lon="-4.846933">
        <ele>1635.0</ele>
        <time>2018-06-23T14:14:22Z</time>
      </trkpt>
      <trkpt lat="40.469300" lon="-4.846883">
        <ele>1634.0</ele>
        <time>2018-06-23T14:14:23Z</time>
      </trkpt>
      <trkpt lat="40.469217" lon="-4.846833">
        <ele>1632.0</ele>
        <time>2018-06-23T14:14:24Z</time>
      </trkpt>
      <trkpt lat="40.469133" lon="-4.846783">
        <ele>1631.0</ele>
        <time>2018-06-23T14:14:25Z</time>
      </trkpt>
      <trkpt lat="40.469050" lon="-4.846750">
        <ele>1630.0</ele>
        <time>2018-06-23T14:14:26Z</time>
      </trkpt>
      <trkpt lat="40.468967" lon="-4.846717">
        <ele>1629.0</ele>
        <time>2018-06-23T14:14:27Z</time>
      </trkpt>
      <trkpt lat="40.468883" lon="-4.846667">
        <ele>1628.0</ele>
        <time>2018-06-23T14:14:28Z</time>
      </trkpt>
      <trkpt lat="40.468800" lon="-4.846600">
        <ele>1628.0</ele>
        <time>2018-06-23T14:14:29Z</time>
      </trkpt>
      <trkpt lat="40.468733" lon="-4.846550">
        <ele>1627.0</ele>
        <time>2018-06-23T14:14:30Z</time>
      </trkpt>
      <trkpt lat="40.468650" lon="-4.846500">
        <ele>1627.0</ele>
        <time>2018-06-23T14:14:31Z</time>
      </trkpt>
      <trkpt lat="40.468583" lon="-4.846433">
        <ele>1627.0</ele>
        <time>2018-06-23T14:14:32Z</time>
      </trkpt>
      <trkpt lat="40.468517" lon="-4.846367">
        <ele>1626.0</ele>
        <time>2018-06-23T14:14:33Z</time>
      </trkpt>
      <trkpt lat="40.468467" lon="-4.846267">
        <ele>1626.0</ele>
        <time>2018-06-23T14:14:34Z</time>
      </trkpt>
      <trkpt lat="40.468433" lon="-4.846167">
        <ele>1625.0</ele>
        <time>2018-06-23T14:14:35Z</time>
      </trkpt>
      <trkpt lat="40.468400" lon="-4.846067">
        <ele>1624.0</ele>
        <time>2018-06-23T14:14:36Z</time>
      </trkpt>
      <trkpt lat="40.468367" lon="-4.845950">
        <ele>1623.0</ele>
        <time>2018-06-23T14:14:37Z</time>
      </trkpt>
      <trkpt lat="40.468333" lon="-4.845833">
        <ele>1622.0</ele>
        <time>2018-06-23T14:14:38Z</time>
      </trkpt>
      <trkpt lat="40.468333" lon="-4.845717">
        <ele>1621.0</ele>
        <time>2018-06-23T14:14:39Z</time>
      </trkpt>
      <trkpt lat="40.468333" lon="-4.845583">
        <ele>1620.0</ele>
        <time>2018-06-23T14:14:40Z</time>
      </trkpt>
      <trkpt lat="40.468333" lon="-4.845467">
        <ele>1620.0</ele>
        <time>2018-06-23T14:14:41Z</time>
      </trkpt>
      <trkpt lat="40.468333" lon="-4.845367">
        <ele>1620.0</ele>
        <time>2018-06-23T14:14:42Z</time>
      </trkpt>
      <trkpt lat="40.468317" lon="-4.845250">
        <ele>1620.0</ele>
        <time>2018-06-23T14:14:43Z</time>
      </trkpt>
      <trkpt lat="40.468283" lon="-4.845150">
        <ele>1619.0</ele>
        <time>2018-06-23T14:14:44Z</time>
      </trkpt>
      <trkpt lat="40.468267" lon="-4.845050">
        <ele>1618.0</ele>
        <time>2018-06-23T14:14:45Z</time>
      </trkpt>
      <trkpt lat="40.468233" lon="-4.844933">
        <ele>1619.0</ele>
        <time>2018-06-23T14:14:46Z</time>
      </trkpt>
      <trkpt lat="40.468200" lon="-4.844833">
        <ele>1619.0</ele>
        <time>2018-06-23T14:14:47Z</time>
      </trkpt>
      <trkpt lat="40.468167" lon="-4.844750">
        <ele>1620.0</ele>
        <time>2018-06-23T14:14:48Z</time>
      </trkpt>
      <trkpt lat="40.468133" lon="-4.844667">
        <ele>1622.0</ele>
        <time>2018-06-23T14:14:49Z</time>
      </trkpt>
      <trkpt lat="40.468133" lon="-4.844583">
        <ele>1622.0</ele>
        <time>2018-06-23T14:14:50Z</time>
      </trkpt>
      <trkpt lat="40.468133" lon="-4.844517">
        <ele>1622.0</ele>
        <time>2018-06-23T14:14:51Z</time>
      </trkpt>
      <trkpt lat="40.468133" lon="-4.844433">
        <ele>1621.0</ele>
        <time>2018-06-23T14:14:52Z</time>
      </trkpt>
      <trkpt lat="40.468133" lon="-4.844350">
        <ele>1620.0</ele>
        <time>2018-06-23T14:14:53Z</time>
      </trkpt>
      <trkpt lat="40.468100" lon="-4.844267">
        <ele>1618.0</ele>
        <time>2018-06-23T14:14:54Z</time>
      </trkpt>
      <trkpt lat="40.468067" lon="-4.844167">
        <ele>1617.0</ele>
        <time>2018-06-23T14:14:55Z</time>
      </trkpt>
      <trkpt lat="40.468033" lon="-4.844083">
        <ele>1617.0</ele>
        <time>2018-06-23T14:14:56Z</time>
      </trkpt>
      <trkpt lat="40.467983" lon="-4.844000">
        <ele>1617.0</ele>
        <time>2018-06-23T14:14:57Z</time>
      </trkpt>
      <trkpt lat="40.467933" lon="-4.843933">
        <ele>1617.0</ele>
        <time>2018-06-23T14:14:58Z</time>
      </trkpt>
      <trkpt lat="40.467883" lon="-4.843850">
        <ele>1615.0</ele>
        <time>2018-06-23T14:14:59Z</time>
      </trkpt>
      <trkpt lat="40.467817" lon="-4.843767">
        <ele>1613.0</ele>
        <time>2018-06-23T14:15:00Z</time>
      </trkpt>
      <trkpt lat="40.467767" lon="-4.843700">
        <ele>1611.0</ele>
        <time>2018-06-23T14:15:01Z</time>
      </trkpt>
      <trkpt lat="40.467717" lon="-4.843600">
        <ele>1609.0</ele>
        <time>2018-06-23T14:15:02Z</time>
      </trkpt>
      <trkpt lat="40.467667" lon="-4.843517">
        <ele>1607.0</ele>
        <time>2018-06-23T14:15:03Z</time>
      </trkpt>
      <trkpt lat="40.467617" lon="-4.843433">
        <ele>1606.0</ele>
        <time>2018-06-23T14:15:04Z</time>
      </trkpt>
      <trkpt lat="40.467583" lon="-4.843350">
        <ele>1605.0</ele>
        <time>2018-06-23T14:15:05Z</time>
      </trkpt>
      <trkpt lat="40.467533" lon="-4.843267">
        <ele>1604.0</ele>
        <time>2018-06-23T14:15:06Z</time>
      </trkpt>
      <trkpt lat="40.467500" lon="-4.843183">
        <ele>1602.0</ele>
        <time>2018-06-23T14:15:07Z</time>
      </trkpt>
      <trkpt lat="40.467467" lon="-4.843083">
        <ele>1600.0</ele>
        <time>2018-06-23T14:15:08Z</time>
      </trkpt>
      <trkpt lat="40.467417" lon="-4.843000">
        <ele>1598.0</ele>
        <time>2018-06-23T14:15:09Z</time>
      </trkpt>
      <trkpt lat="40.467383" lon="-4.842900">
        <ele>1596.0</ele>
        <time>2018-06-23T14:15:10Z</time>
      </trkpt>
      <trkpt lat="40.467333" lon="-4.842800">
        <ele>1595.0</ele>
        <time>2018-06-23T14:15:11Z</time>
      </trkpt>
      <trkpt lat="40.467300" lon="-4.842700">
        <ele>1594.0</ele>
        <time>2018-06-23T14:15:12Z</time>
      </trkpt>
      <trkpt lat="40.467267" lon="-4.842617">
        <ele>1594.0</ele>
        <time>2018-06-23T14:15:13Z</time>
      </trkpt>
      <trkpt lat="40.467233" lon="-4.842517">
        <ele>1593.0</ele>
        <time>2018-06-23T14:15:14Z</time>
      </trkpt>
      <trkpt lat="40.467200" lon="-4.842433">
        <ele>1591.0</ele>
        <time>2018-06-23T14:15:15Z</time>
      </trkpt>
      <trkpt lat="40.467183" lon="-4.842350">
        <ele>1588.0</ele>
        <time>2018-06-23T14:15:16Z</time>
      </trkpt>
      <trkpt lat="40.467150" lon="-4.842250">
        <ele>1586.0</ele>
        <time>2018-06-23T14:15:17Z</time>
      </trkpt>
      <trkpt lat="40.467117" lon="-4.842150">
        <ele>1584.0</ele>
        <time>2018-06-23T14:15:18Z</time>
      </trkpt>
      <trkpt lat="40.467067" lon="-4.842050">
        <ele>1582.0</ele>
        <time>2018-06-23T14:15:19Z</time>
      </trkpt>
      <trkpt lat="40.467017" lon="-4.841967">
        <ele>1580.0</ele>
        <time>2018-06-23T14:15:20Z</time>
      </trkpt>
      <trkpt lat="40.466967" lon="-4.841900">
        <ele>1579.0</ele>
        <time>2018-06-23T14:15:21Z</time>
      </trkpt>
      <trkpt lat="40.466917" lon="-4.841817">
        <ele>1577.0</ele>
        <time>2018-06-23T14:15:22Z</time>
      </trkpt>
      <trkpt lat="40.466883" lon="-4.841750">
        <ele>1575.0</ele>
        <time>2018-06-23T14:15:23Z</time>
      </trkpt>
      <trkpt lat="40.466817" lon="-4.841683">
        <ele>1572.0</ele>
        <time>2018-06-23T14:15:24Z</time>
      </trkpt>
      <trkpt lat="40.466767" lon="-4.841633">
        <ele>1570.0</ele>
        <time>2018-06-23T14:15:25Z</time>
      </trkpt>
      <trkpt lat="40.466700" lon="-4.841567">
        <ele>1567.0</ele>
        <time>2018-06-23T14:15:26Z</time>
      </trkpt>
      <trkpt lat="40.466650" lon="-4.841500">
        <ele>1566.0</ele>
        <time>2018-06-23T14:15:27Z</time>
      </trkpt>
      <trkpt lat="40.466600" lon="-4.841417">
        <ele>1564.0</ele>
        <time>2018-06-23T14:15:28Z</time>
      </trkpt>
      <trkpt lat="40.466567" lon="-4.841350">
        <ele>1562.0</ele>
        <time>2018-06-23T14:15:29Z</time>
      </trkpt>
      <trkpt lat="40.466517" lon="-4.841267">
        <ele>1559.0</ele>
        <time>2018-06-23T14:15:30Z</time>
      </trkpt>
      <trkpt lat="40.466450" lon="-4.841200">
        <ele>1557.0</ele>
        <time>2018-06-23T14:15:31Z</time>
      </trkpt>
      <trkpt lat="40.466400" lon="-4.841117">
        <ele>1555.0</ele>
        <time>2018-06-23T14:15:32Z</time>
      </trkpt>
      <trkpt lat="40.466350" lon="-4.841033">
        <ele>1554.0</ele>
        <time>2018-06-23T14:15:33Z</time>
      </trkpt>
      <trkpt lat="40.466300" lon="-4.840967">
        <ele>1553.0</ele>
        <time>2018-06-23T14:15:34Z</time>
      </trkpt>
      <trkpt lat="40.466233" lon="-4.840917">
        <ele>1551.0</ele>
        <time>2018-06-23T14:15:35Z</time>
      </trkpt>
      <trkpt lat="40.466167" lon="-4.840867">
        <ele>1549.0</ele>
        <time>2018-06-23T14:15:36Z</time>
      </trkpt>
      <trkpt lat="40.466083" lon="-4.840833">
        <ele>1546.0</ele>
        <time>2018-06-23T14:15:37Z</time>
      </trkpt>
      <trkpt lat="40.466000" lon="-4.840783">
        <ele>1544.0</ele>
        <time>2018-06-23T14:15:38Z</time>
      </trkpt>
      <trkpt lat="40.465933" lon="-4.840733">
        <ele>1544.0</ele>
        <time>2018-06-23T14:15:39Z</time>
      </trkpt>
      <trkpt lat="40.465850" lon="-4.840700">
        <ele>1545.0</ele>
        <time>2018-06-23T14:15:40Z</time>
      </trkpt>
      <trkpt lat="40.465767" lon="-4.840683">
        <ele>1545.0</ele>
        <time>2018-06-23T14:15:41Z</time>
      </trkpt>
      <trkpt lat="40.465683" lon="-4.840683">
        <ele>1545.0</ele>
        <time>2018-06-23T14:15:42Z</time>
      </trkpt>
      <trkpt lat="40.465600" lon="-4.840683">
        <ele>1544.0</ele>
        <time>2018-06-23T14:15:43Z</time>
      </trkpt>
      <trkpt lat="40.465533" lon="-4.840667">
        <ele>1543.0</ele>
        <time>2018-06-23T14:15:44Z</time>
      </trkpt>
      <trkpt lat="40.465450" lon="-4.840667">
        <ele>1542.0</ele>
        <time>2018-06-23T14:15:45Z</time>
      </trkpt>
      <trkpt lat="40.465367" lon="-4.840650">
        <ele>1541.0</ele>
        <time>2018-06-23T14:15:46Z</time>
      </trkpt>
      <trkpt lat="40.465267" lon="-4.840633">
        <ele>1540.0</ele>
        <time>2018-06-23T14:15:47Z</time>
      </trkpt>
      <trkpt lat="40.465183" lon="-4.840617">
        <ele>1539.0</ele>
        <time>2018-06-23T14:15:48Z</time>
      </trkpt>
      <trkpt lat="40.465100" lon="-4.840617">
        <ele>1538.0</ele>
        <time>2018-06-23T14:15:49Z</time>
      </trkpt>
      <trkpt lat="40.465000" lon="-4.840633">
        <ele>1536.0</ele>
        <time>2018-06-23T14:15:50Z</time>
      </trkpt>
      <trkpt lat="40.464917" lon="-4.840617">
        <ele>1535.0</ele>
        <time>2018-06-23T14:15:51Z</time>
      </trkpt>
      <trkpt lat="40.464833" lon="-4.840617">
        <ele>1533.0</ele>
        <time>2018-06-23T14:15:52Z</time>
      </trkpt>
      <trkpt lat="40.464750" lon="-4.840583">
        <ele>1531.0</ele>
        <time>2018-06-23T14:15:53Z</time>
      </trkpt>
      <trkpt lat="40.464650" lon="-4.840567">
        <ele>1529.0</ele>
        <time>2018-06-23T14:15:54Z</time>
      </trkpt>
      <trkpt lat="40.464567" lon="-4.840550">
        <ele>1527.0</ele>
        <time>2018-06-23T14:15:55Z</time>
      </trkpt>
      <trkpt lat="40.464483" lon="-4.840517">
        <ele>1526.0</ele>
        <time>2018-06-23T14:15:56Z</time>
      </trkpt>
      <trkpt lat="40.464400" lon="-4.840467">
        <ele>1526.0</ele>
        <time>2018-06-23T14:15:57Z</time>
      </trkpt>
      <trkpt lat="40.464333" lon="-4.840433">
        <ele>1525.0</ele>
        <time>2018-06-23T14:15:58Z</time>
      </trkpt>
      <trkpt lat="40.464250" lon="-4.840400">
        <ele>1524.0</ele>
        <time>2018-06-23T14:15:59Z</time>
      </trkpt>
      <trkpt lat="40.464183" lon="-4.840367">
        <ele>1523.0</ele>
        <time>2018-06-23T14:16:00Z</time>
      </trkpt>
      <trkpt lat="40.464100" lon="-4.840333">
        <ele>1521.0</ele>
        <time>2018-06-23T14:16:01Z</time>
      </trkpt>
      <trkpt lat="40.464017" lon="-4.840317">
        <ele>1520.0</ele>
        <time>2018-06-23T14:16:02Z</time>
      </trkpt>
      <trkpt lat="40.463933" lon="-4.840300">
        <ele>1519.0</ele>
        <time>2018-06-23T14:16:03Z</time>
      </trkpt>
      <trkpt lat="40.463850" lon="-4.840267">
        <ele>1519.0</ele>
        <time>2018-06-23T14:16:04Z</time>
      </trkpt>
      <trkpt lat="40.463767" lon="-4.840250">
        <ele>1518.0</ele>
        <time>2018-06-23T14:16:05Z</time>
      </trkpt>
      <trkpt lat="40.463683" lon="-4.840250">
        <ele>1516.0</ele>
        <time>2018-06-23T14:16:06Z</time>
      </trkpt>
      <trkpt lat="40.463617" lon="-4.840233">
        <ele>1515.0</ele>
        <time>2018-06-23T14:16:07Z</time>
      </trkpt>
      <trkpt lat="40.463533" lon="-4.840217">
        <ele>1514.0</ele>
        <time>2018-06-23T14:16:08Z</time>
      </trkpt>
      <trkpt lat="40.463433" lon="-4.840217">
        <ele>1513.0</ele>
        <time>2018-06-23T14:16:09Z</time>
      </trkpt>
      <trkpt lat="40.463367" lon="-4.840200">
        <ele>1512.0</ele>
        <time>2018-06-23T14:16:10Z</time>
      </trkpt>
      <trkpt lat="40.463300" lon="-4.840167">
        <ele>1512.0</ele>
        <time>2018-06-23T14:16:11Z</time>
      </trkpt>
      <trkpt lat="40.463217" lon="-4.840150">
        <ele>1511.0</ele>
        <time>2018-06-23T14:16:12Z</time>
      </trkpt>
      <trkpt lat="40.463150" lon="-4.840133">
        <ele>1509.0</ele>
        <time>2018-06-23T14:16:13Z</time>
      </trkpt>
      <trkpt lat="40.463067" lon="-4.840100">
        <ele>1506.0</ele>
        <time>2018-06-23T14:16:14Z</time>
      </trkpt>
      <trkpt lat="40.463000" lon="-4.840067">
        <ele>1503.0</ele>
        <time>2018-06-23T14:16:15Z</time>
      </trkpt>
      <trkpt lat="40.462917" lon="-4.840017">
        <ele>1501.0</ele>
        <time>2018-06-23T14:16:16Z</time>
      </trkpt>
      <trkpt lat="40.462850" lon="-4.839967">
        <ele>1499.0</ele>
        <time>2018-06-23T14:16:17Z</time>
      </trkpt>
      <trkpt lat="40.462783" lon="-4.839917">
        <ele>1497.0</ele>
        <time>2018-06-23T14:16:18Z</time>
      </trkpt>
      <trkpt lat="40.462700" lon="-4.839867">
        <ele>1495.0</ele>
        <time>2018-06-23T14:16:19Z</time>
      </trkpt>
      <trkpt lat="40.462633" lon="-4.839817">
        <ele>1493.0</ele>
        <time>2018-06-23T14:16:20Z</time>
      </trkpt>
      <trkpt lat="40.462567" lon="-4.839767">
        <ele>1491.0</ele>
        <time>2018-06-23T14:16:21Z</time>
      </trkpt>
      <trkpt lat="40.462500" lon="-4.839717">
        <ele>1490.0</ele>
        <time>2018-06-23T14:16:22Z</time>
      </trkpt>
      <trkpt lat="40.462433" lon="-4.839667">
        <ele>1489.0</ele>
        <time>2018-06-23T14:16:23Z</time>
      </trkpt>
      <trkpt lat="40.462350" lon="-4.839633">
        <ele>1488.0</ele>
        <time>2018-06-23T14:16:24Z</time>
      </trkpt>
      <trkpt lat="40.462283" lon="-4.839583">
        <ele>1486.0</ele>
        <time>2018-06-23T14:16:25Z</time>
      </trkpt>
      <trkpt lat="40.462217" lon="-4.839550">
        <ele>1484.0</ele>
        <time>2018-06-23T14:16:26Z</time>
      </trkpt>
      <trkpt lat="40.462150" lon="-4.839500">
        <ele>1483.0</ele>
        <time>2018-06-23T14:16:27Z</time>
      </trkpt>
      <trkpt lat="40.462083" lon="-4.839450">
        <ele>1481.0</ele>
        <time>2018-06-23T14:16:28Z</time>
      </trkpt>
      <trkpt lat="40.462017" lon="-4.839400">
        <ele>1479.0</ele>
        <time>2018-06-23T14:16:29Z</time>
      </trkpt>
      <trkpt lat="40.461950" lon="-4.839367">
        <ele>1477.0</ele>
        <time>2018-06-23T14:16:30Z</time>
      </trkpt>
      <trkpt lat="40.461883" lon="-4.839333">
        <ele>1476.0</ele>
        <time>2018-06-23T14:16:31Z</time>
      </trkpt>
      <trkpt lat="40.461800" lon="-4.839300">
        <ele>1474.0</ele>
        <time>2018-06-23T14:16:32Z</time>
      </trkpt>
      <trkpt lat="40.461733" lon="-4.839283">
        <ele>1472.0</ele>
        <time>2018-06-23T14:16:33Z</time>
      </trkpt>
      <trkpt lat="40.461650" lon="-4.839267">
        <ele>1471.0</ele>
        <time>2018-06-23T14:16:34Z</time>
      </trkpt>
      <trkpt lat="40.461567" lon="-4.839267">
        <ele>1469.0</ele>
        <time>2018-06-23T14:16:35Z</time>
      </trkpt>
      <trkpt lat="40.461500" lon="-4.839233">
        <ele>1466.0</ele>
        <time>2018-06-23T14:16:36Z</time>
      </trkpt>
      <trkpt lat="40.461433" lon="-4.839200">
        <ele>1464.0</ele>
        <time>2018-06-23T14:16:37Z</time>
      </trkpt>
      <trkpt lat="40.461367" lon="-4.839167">
        <ele>1462.0</ele>
        <time>2018-06-23T14:16:38Z</time>
      </trkpt>
      <trkpt lat="40.461300" lon="-4.839117">
        <ele>1460.0</ele>
        <time>2018-06-23T14:16:39Z</time>
      </trkpt>
      <trkpt lat="40.461250" lon="-4.839083">
        <ele>1459.0</ele>
        <time>2018-06-23T14:16:40Z</time>
      </trkpt>
      <trkpt lat="40.461183" lon="-4.839033">
        <ele>1456.0</ele>
        <time>2018-06-23T14:16:41Z</time>
      </trkpt>
      <trkpt lat="40.461117" lon="-4.838983">
        <ele>1453.0</ele>
        <time>2018-06-23T14:16:42Z</time>
      </trkpt>
      <trkpt lat="40.461050" lon="-4.838933">
        <ele>1450.0</ele>
        <time>2018-06-23T14:16:43Z</time>
      </trkpt>
      <trkpt lat="40.461000" lon="-4.838867">
        <ele>1448.0</ele>
        <time>2018-06-23T14:16:44Z</time>
      </trkpt>
      <trkpt lat="40.460933" lon="-4.838817">
        <ele>1447.0</ele>
        <time>2018-06-23T14:16:45Z</time>
      </trkpt>
      <trkpt lat="40.460883" lon="-4.838750">
        <ele>1446.0</ele>
        <time>2018-06-23T14:16:46Z</time>
      </trkpt>
      <trkpt lat="40.460817" lon="-4.838683">
        <ele>1444.0</ele>
        <time>2018-06-23T14:16:47Z</time>
      </trkpt>
      <trkpt lat="40.460767" lon="-4.838633">
        <ele>1444.0</ele>
        <time>2018-06-23T14:16:48Z</time>
      </trkpt>
      <trkpt lat="40.460717" lon="-4.838583">
        <ele>1443.0</ele>
        <time>2018-06-23T14:16:49Z</time>
      </trkpt>
      <trkpt lat="40.460667" lon="-4.838533">
        <ele>1441.0</ele>
        <time>2018-06-23T14:16:50Z</time>
      </trkpt>
      <trkpt lat="40.460617" lon="-4.838483">
        <ele>1439.0</ele>
        <time>2018-06-23T14:16:51Z</time>
      </trkpt>
      <trkpt lat="40.460567" lon="-4.838433">
        <ele>1437.0</ele>
        <time>2018-06-23T14:16:52Z</time>
      </trkpt>
      <trkpt lat="40.460500" lon="-4.838367">
        <ele>1435.0</ele>
        <time>2018-06-23T14:16:53Z</time>
      </trkpt>
      <trkpt lat="40.460433" lon="-4.838300">
        <ele>1433.0</ele>
        <time>2018-06-23T14:16:54Z</time>
      </trkpt>
      <trkpt lat="40.460367" lon="-4.838233">
        <ele>1431.0</ele>
        <time>2018-06-23T14:16:55Z</time>
      </trkpt>
      <trkpt lat="40.460300" lon="-4.838150">
        <ele>1431.0</ele>
        <time>2018-06-23T14:16:56Z</time>
      </trkpt>
      <trkpt lat="40.460233" lon="-4.838083">
        <ele>1430.0</ele>
        <time>2018-06-23T14:16:57Z</time>
      </trkpt>
      <trkpt lat="40.460183" lon="-4.838017">
        <ele>1428.0</ele>
        <time>2018-06-23T14:16:58Z</time>
      </trkpt>
      <trkpt lat="40.460117" lon="-4.837967">
        <ele>1426.0</ele>
        <time>2018-06-23T14:16:59Z</time>
      </trkpt>
      <trkpt lat="40.460067" lon="-4.837917">
        <ele>1424.0</ele>
        <time>2018-06-23T14:17:00Z</time>
      </trkpt>
      <trkpt lat="40.459983" lon="-4.837850">
        <ele>1421.0</ele>
        <time>2018-06-23T14:17:01Z</time>
      </trkpt>
      <trkpt lat="40.459917" lon="-4.837783">
        <ele>1418.0</ele>
        <time>2018-06-23T14:17:02Z</time>
      </trkpt>
      <trkpt lat="40.459850" lon="-4.837717">
        <ele>1415.0</ele>
        <time>2018-06-23T14:17:03Z</time>
      </trkpt>
      <trkpt lat="40.459783" lon="-4.837667">
        <ele>1414.0</ele>
        <time>2018-06-23T14:17:04Z</time>
      </trkpt>
      <trkpt lat="40.459717" lon="-4.837600">
        <ele>1413.0</ele>
        <time>2018-06-23T14:17:05Z</time>
      </trkpt>
      <trkpt lat="40.459650" lon="-4.837550">
        <ele>1412.0</ele>
        <time>2018-06-23T14:17:06Z</time>
      </trkpt>
      <trkpt lat="40.459583" lon="-4.837483">
        <ele>1411.0</ele>
        <time>2018-06-23T14:17:07Z</time>
      </trkpt>
      <trkpt lat="40.459533" lon="-4.837417">
        <ele>1409.0</ele>
        <time>2018-06-23T14:17:08Z</time>
      </trkpt>
      <trkpt lat="40.459483" lon="-4.837350">
        <ele>1407.0</ele>
        <time>2018-06-23T14:17:09Z</time>
      </trkpt>
      <trkpt lat="40.459450" lon="-4.837267">
        <ele>1405.0</ele>
        <time>2018-06-23T14:17:10Z</time>
      </trkpt>
      <trkpt lat="40.459400" lon="-4.837200">
        <ele>1403.0</ele>
        <time>2018-06-23T14:17:11Z</time>
      </trkpt>
      <trkpt lat="40.459350" lon="-4.837117">
        <ele>1400.0</ele>
        <time>2018-06-23T14:17:12Z</time>
      </trkpt>
      <trkpt lat="40.459317" lon="-4.837050">
        <ele>1399.0</ele>
        <time>2018-06-23T14:17:13Z</time>
      </trkpt>
      <trkpt lat="40.459267" lon="-4.836967">
        <ele>1398.0</ele>
        <time>2018-06-23T14:17:14Z</time>
      </trkpt>
      <trkpt lat="40.459217" lon="-4.836900">
        <ele>1397.0</ele>
        <time>2018-06-23T14:17:15Z</time>
      </trkpt>
      <trkpt lat="40.459167" lon="-4.836833">
        <ele>1396.0</ele>
        <time>2018-06-23T14:17:16Z</time>
      </trkpt>
      <trkpt lat="40.459133" lon="-4.836767">
        <ele>1395.0</ele>
        <time>2018-06-23T14:17:17Z</time>
      </trkpt>
      <trkpt lat="40.459100" lon="-4.836700">
        <ele>1393.0</ele>
        <time>2018-06-23T14:17:18Z</time>
      </trkpt>
      <trkpt lat="40.459050" lon="-4.836617">
        <ele>1390.0</ele>
        <time>2018-06-23T14:17:19Z</time>
      </trkpt>
      <trkpt lat="40.459000" lon="-4.836567">
        <ele>1386.0</ele>
        <time>2018-06-23T14:17:20Z</time>
      </trkpt>
      <trkpt lat="40.458933" lon="-4.836500">
        <ele>1382.0</ele>
        <time>2018-06-23T14:17:21Z</time>
      </trkpt>
      <trkpt lat="40.458850" lon="-4.836433">
        <ele>1379.0</ele>
        <time>2018-06-23T14:17:22Z</time>
      </trkpt>
      <trkpt lat="40.458767" lon="-4.836367">
        <ele>1376.0</ele>
        <time>2018-06-23T14:17:23Z</time>
      </trkpt>
      <trkpt lat="40.458700" lon="-4.836300">
        <ele>1373.0</ele>
        <time>2018-06-23T14:17:24Z</time>
      </trkpt>
      <trkpt lat="40.458633" lon="-4.836250">
        <ele>1373.0</ele>
        <time>2018-06-23T14:17:25Z</time>
      </trkpt>
      <trkpt lat="40.458550" lon="-4.836233">
        <ele>1373.0</ele>
        <time>2018-06-23T14:17:26Z</time>
      </trkpt>
      <trkpt lat="40.458500" lon="-4.836217">
        <ele>1372.0</ele>
        <time>2018-06-23T14:17:27Z</time>
      </trkpt>
      <trkpt lat="40.458433" lon="-4.836217">
        <ele>1370.0</ele>
        <time>2018-06-23T14:17:28Z</time>
      </trkpt>
      <trkpt lat="40.458350" lon="-4.836233">
        <ele>1368.0</ele>
        <time>2018-06-23T14:17:29Z</time>
      </trkpt>
      <trkpt lat="40.458283" lon="-4.836267">
        <ele>1366.0</ele>
        <time>2018-06-23T14:17:30Z</time>
      </trkpt>
      <trkpt lat="40.458200" lon="-4.836317">
        <ele>1364.0</ele>
        <time>2018-06-23T14:17:31Z</time>
      </trkpt>
      <trkpt lat="40.458117" lon="-4.836383">
        <ele>1362.0</ele>
        <time>2018-06-23T14:17:32Z</time>
      </trkpt>
      <trkpt lat="40.458050" lon="-4.836450">
        <ele>1361.0</ele>
        <time>2018-06-23T14:17:33Z</time>
      </trkpt>
      <trkpt lat="40.457983" lon="-4.836500">
        <ele>1360.0</ele>
        <time>2018-06-23T14:17:34Z</time>
      </trkpt>
      <trkpt lat="40.457917" lon="-4.836567">
        <ele>1358.0</ele>
        <time>2018-06-23T14:17:35Z</time>
      </trkpt>
      <trkpt lat="40.457833" lon="-4.836617">
        <ele>1356.0</ele>
        <time>2018-06-23T14:17:36Z</time>
      </trkpt>
      <trkpt lat="40.457767" lon="-4.836650">
        <ele>1353.0</ele>
        <time>2018-06-23T14:17:37Z</time>
      </trkpt>
      <trkpt lat="40.457683" lon="-4.836700">
        <ele>1351.0</ele>
        <time>2018-06-23T14:17:38Z</time>
      </trkpt>
      <trkpt lat="40.457583" lon="-4.836750">
        <ele>1349.0</ele>
        <time>2018-06-23T14:17:39Z</time>
      </trkpt>
      <trkpt lat="40.457500" lon="-4.836783">
        <ele>1348.0</ele>
        <time>2018-06-23T14:17:40Z</time>
      </trkpt>
      <trkpt lat="40.457417" lon="-4.836817">
        <ele>1346.0</ele>
        <time>2018-06-23T14:17:41Z</time>
      </trkpt>
      <trkpt lat="40.457333" lon="-4.836850">
        <ele>1345.0</ele>
        <time>2018-06-23T14:17:42Z</time>
      </trkpt>
      <trkpt lat="40.457250" lon="-4.836883">
        <ele>1343.0</ele>
        <time>2018-06-23T14:17:43Z</time>
      </trkpt>
      <trkpt lat="40.457167" lon="-4.836917">
        <ele>1341.0</ele>
        <time>2018-06-23T14:17:44Z</time>
      </trkpt>
      <trkpt lat="40.457067" lon="-4.836950">
        <ele>1340.0</ele>
        <time>2018-06-23T14:17:45Z</time>
      </trkpt>
      <trkpt lat="40.456983" lon="-4.837000">
        <ele>1338.0</ele>
        <time>2018-06-23T14:17:46Z</time>
      </trkpt>
      <trkpt lat="40.456917" lon="-4.837050">
        <ele>1336.0</ele>
        <time>2018-06-23T14:17:47Z</time>
      </trkpt>
      <trkpt lat="40.456833" lon="-4.837117">
        <ele>1333.0</ele>
        <time>2018-06-23T14:17:48Z</time>
      </trkpt>
      <trkpt lat="40.456767" lon="-4.837217">
        <ele>1330.0</ele>
        <time>2018-06-23T14:17:49Z</time>
      </trkpt>
      <trkpt lat="40.456700" lon="-4.837333">
        <ele>1327.0</ele>
        <time>2018-06-23T14:17:50Z</time>
      </trkpt>
      <trkpt lat="40.456633" lon="-4.837433">
        <ele>1324.0</ele>
        <time>2018-06-23T14:17:51Z</time>
      </trkpt>
      <trkpt lat="40.456550" lon="-4.837533">
        <ele>1322.0</ele>
        <time>2018-06-23T14:17:52Z</time>
      </trkpt>
      <trkpt lat="40.456467" lon="-4.837583">
        <ele>1319.0</ele>
        <time>2018-06-23T14:17:53Z</time>
      </trkpt>
      <trkpt lat="40.456383" lon="-4.837633">
        <ele>1316.0</ele>
        <time>2018-06-23T14:17:54Z</time>
      </trkpt>
      <trkpt lat="40.456317" lon="-4.837633">
        <ele>1314.0</ele>
        <time>2018-06-23T14:17:55Z</time>
      </trkpt>
      <trkpt lat="40.456233" lon="-4.837583">
        <ele>1310.0</ele>
        <time>2018-06-23T14:17:56Z</time>
      </trkpt>
      <trkpt lat="40.456183" lon="-4.837533">
        <ele>1307.0</ele>
        <time>2018-06-23T14:17:57Z</time>
      </trkpt>
      <trkpt lat="40.456133" lon="-4.837467">
        <ele>1305.0</ele>
        <time>2018-06-23T14:17:58Z</time>
      </trkpt>
      <trkpt lat="40.456083" lon="-4.837400">
        <ele>1305.0</ele>
        <time>2018-06-23T14:17:59Z</time>
      </trkpt>
      <trkpt lat="40.456050" lon="-4.837350">
        <ele>1305.0</ele>
        <time>2018-06-23T14:18:00Z</time>
      </trkpt>
      <trkpt lat="40.456000" lon="-4.837317">
        <ele>1305.0</ele>
        <time>2018-06-23T14:18:01Z</time>
      </trkpt>
      <trkpt lat="40.455967" lon="-4.837267">
        <ele>1305.0</ele>
        <time>2018-06-23T14:18:02Z</time>
      </trkpt>
      <trkpt lat="40.455933" lon="-4.837217">
        <ele>1305.0</ele>
        <time>2018-06-23T14:18:03Z</time>
      </trkpt>
      <trkpt lat="40.455900" lon="-4.837150">
        <ele>1305.0</ele>
        <time>2018-06-23T14:18:04Z</time>
      </trkpt>
      <trkpt lat="40.455883" lon="-4.837083">
        <ele>1305.0</ele>
        <time>2018-06-23T14:18:05Z</time>
      </trkpt>
      <trkpt lat="40.455900" lon="-4.837017">
        <ele>1305.0</ele>
        <time>2018-06-23T14:18:06Z</time>
      </trkpt>
      <trkpt lat="40.455950" lon="-4.836950">
        <ele>1306.0</ele>
        <time>2018-06-23T14:18:07Z</time>
      </trkpt>
      <trkpt lat="40.456033" lon="-4.836950">
        <ele>1307.0</ele>
        <time>2018-06-23T14:18:08Z</time>
      </trkpt>
      <trkpt lat="40.456117" lon="-4.836967">
        <ele>1308.0</ele>
        <time>2018-06-23T14:18:09Z</time>
      </trkpt>
      <trkpt lat="40.456217" lon="-4.837033">
        <ele>1310.0</ele>
        <time>2018-06-23T14:18:10Z</time>
      </trkpt>
      <trkpt lat="40.456283" lon="-4.837167">
        <ele>1310.0</ele>
        <time>2018-06-23T14:18:11Z</time>
      </trkpt>
      <trkpt lat="40.456317" lon="-4.837333">
        <ele>1309.0</ele>
        <time>2018-06-23T14:18:12Z</time>
      </trkpt>
      <trkpt lat="40.456317" lon="-4.837517">
        <ele>1310.0</ele>
        <time>2018-06-23T14:18:13Z</time>
      </trkpt>
      <trkpt lat="40.456267" lon="-4.837700">
        <ele>1312.0</ele>
        <time>2018-06-23T14:18:14Z</time>
      </trkpt>
      <trkpt lat="40.456183" lon="-4.837850">
        <ele>1313.0</ele>
        <time>2018-06-23T14:18:15Z</time>
      </trkpt>
      <trkpt lat="40.456100" lon="-4.837950">
        <ele>1314.0</ele>
        <time>2018-06-23T14:18:16Z</time>
      </trkpt>
      <trkpt lat="40.456000" lon="-4.838017">
        <ele>1315.0</ele>
        <time>2018-06-23T14:18:17Z</time>
      </trkpt>
      <trkpt lat="40.455917" lon="-4.838067">
        <ele>1316.0</ele>
        <time>2018-06-23T14:18:18Z</time>
      </trkpt>
      <trkpt lat="40.455833" lon="-4.838083">
        <ele>1316.0</ele>
        <time>2018-06-23T14:18:19Z</time>
      </trkpt>
      <trkpt lat="40.455767" lon="-4.838067">
        <ele>1314.0</ele>
        <time>2018-06-23T14:18:20Z</time>
      </trkpt>
      <trkpt lat="40.455700" lon="-4.838017">
        <ele>1312.0</ele>
        <time>2018-06-23T14:18:21Z</time>
      </trkpt>
      <trkpt lat="40.455650" lon="-4.837933">
        <ele>1312.0</ele>
        <time>2018-06-23T14:18:22Z</time>
      </trkpt>
      <trkpt lat="40.455617" lon="-4.837850">
        <ele>1312.0</ele>
        <time>2018-06-23T14:18:23Z</time>
      </trkpt>
      <trkpt lat="40.455567" lon="-4.837800">
        <ele>1314.0</ele>
        <time>2018-06-23T14:18:24Z</time>
      </trkpt>
      <trkpt lat="40.455517" lon="-4.837750">
        <ele>1316.0</ele>
        <time>2018-06-23T14:18:25Z</time>
      </trkpt>
      <trkpt lat="40.455450" lon="-4.837733">
        <ele>1317.0</ele>
        <time>2018-06-23T14:18:26Z</time>
      </trkpt>
      <trkpt lat="40.455400" lon="-4.837700">
        <ele>1317.0</ele>
        <time>2018-06-23T14:18:27Z</time>
      </trkpt>
      <trkpt lat="40.455350" lon="-4.837667">
        <ele>1317.0</ele>
        <time>2018-06-23T14:18:28Z</time>
      </trkpt>
      <trkpt lat="40.455333" lon="-4.837583">
        <ele>1315.0</ele>
        <time>2018-06-23T14:18:29Z</time>
      </trkpt>
      <trkpt lat="40.455350" lon="-4.837483">
        <ele>1314.0</ele>
        <time>2018-06-23T14:18:30Z</time>
      </trkpt>
      <trkpt lat="40.455383" lon="-4.837400">
        <ele>1314.0</ele>
        <time>2018-06-23T14:18:31Z</time>
      </trkpt>
      <trkpt lat="40.455433" lon="-4.837333">
        <ele>1316.0</ele>
        <time>2018-06-23T14:18:32Z</time>
      </trkpt>
      <trkpt lat="40.455500" lon="-4.837317">
        <ele>1317.0</ele>
        <time>2018-06-23T14:18:33Z</time>
      </trkpt>
      <trkpt lat="40.455583" lon="-4.837317">
        <ele>1317.0</ele>
        <time>2018-06-23T14:18:34Z</time>
      </trkpt>
      <trkpt lat="40.455650" lon="-4.837333">
        <ele>1316.0</ele>
        <time>2018-06-23T14:18:35Z</time>
      </trkpt>
      <trkpt lat="40.455733" lon="-4.837333">
        <ele>1315.0</ele>
        <time>2018-06-23T14:18:36Z</time>
      </trkpt>
      <trkpt lat="40.455817" lon="-4.837333">
        <ele>1315.0</ele>
        <time>2018-06-23T14:18:37Z</time>
      </trkpt>
      <trkpt lat="40.455900" lon="-4.837317">
        <ele>1315.0</ele>
        <time>2018-06-23T14:18:38Z</time>
      </trkpt>
      <trkpt lat="40.455950" lon="-4.837283">
        <ele>1315.0</ele>
        <time>2018-06-23T14:18:39Z</time>
      </trkpt>
      <trkpt lat="40.456000" lon="-4.837250">
        <ele>1315.0</ele>
        <time>2018-06-23T14:18:40Z</time>
      </trkpt>
      <trkpt lat="40.456033" lon="-4.837183">
        <ele>1314.0</ele>
        <time>2018-06-23T14:18:41Z</time>
      </trkpt>
      <trkpt lat="40.456067" lon="-4.837117">
        <ele>1313.0</ele>
        <time>2018-06-23T14:18:42Z</time>
      </trkpt>
      <trkpt lat="40.456117" lon="-4.837050">
        <ele>1312.0</ele>
        <time>2018-06-23T14:18:43Z</time>
      </trkpt>
      <trkpt lat="40.456167" lon="-4.837000">
        <ele>1310.0</ele>
        <time>2018-06-23T14:18:44Z</time>
      </trkpt>
      <trkpt lat="40.456217" lon="-4.836950">
        <ele>1309.0</ele>
        <time>2018-06-23T14:18:45Z</time>
      </trkpt>
      <trkpt lat="40.456283" lon="-4.836900">
        <ele>1307.0</ele>
        <time>2018-06-23T14:18:46Z</time>
      </trkpt>
      <trkpt lat="40.456333" lon="-4.836850">
        <ele>1306.0</ele>
        <time>2018-06-23T14:18:47Z</time>
      </trkpt>
      <trkpt lat="40.456400" lon="-4.836800">
        <ele>1305.0</ele>
        <time>2018-06-23T14:18:48Z</time>
      </trkpt>
      <trkpt lat="40.456450" lon="-4.836750">
        <ele>1304.0</ele>
        <time>2018-06-23T14:18:49Z</time>
      </trkpt>
      <trkpt lat="40.456533" lon="-4.836717">
        <ele>1303.0</ele>
        <time>2018-06-23T14:18:50Z</time>
      </trkpt>
      <trkpt lat="40.456600" lon="-4.836683">
        <ele>1303.0</ele>
        <time>2018-06-23T14:18:51Z</time>
      </trkpt>
      <trkpt lat="40.456667" lon="-4.836650">
        <ele>1301.0</ele>
        <time>2018-06-23T14:18:52Z</time>
      </trkpt>
      <trkpt lat="40.456733" lon="-4.836617">
        <ele>1300.0</ele>
        <time>2018-06-23T14:18:53Z</time>
      </trkpt>
      <trkpt lat="40.456783" lon="-4.836567">
        <ele>1299.0</ele>
        <time>2018-06-23T14:18:54Z</time>
      </trkpt>
      <trkpt lat="40.456833" lon="-4.836517">
        <ele>1297.0</ele>
        <time>2018-06-23T14:18:55Z</time>
      </trkpt>
      <trkpt lat="40.456883" lon="-4.836450">
        <ele>1296.0</ele>
        <time>2018-06-23T14:18:56Z</time>
      </trkpt>
      <trkpt lat="40.456933" lon="-4.836383">
        <ele>1295.0</ele>
        <time>2018-06-23T14:18:57Z</time>
      </trkpt>
      <trkpt lat="40.456967" lon="-4.836317">
        <ele>1293.0</ele>
        <time>2018-06-23T14:18:58Z</time>
      </trkpt>
      <trkpt lat="40.457000" lon="-4.836250">
        <ele>1291.0</ele>
        <time>2018-06-23T14:18:59Z</time>
      </trkpt>
      <trkpt lat="40.457050" lon="-4.836200">
        <ele>1290.0</ele>
        <time>2018-06-23T14:19:00Z</time>
      </trkpt>
      <trkpt lat="40.457083" lon="-4.836133">
        <ele>1288.0</ele>
        <time>2018-06-23T14:19:01Z</time>
      </trkpt>
      <trkpt lat="40.457100" lon="-4.836050">
        <ele>1286.0</ele>
        <time>2018-06-23T14:19:02Z</time>
      </trkpt>
      <trkpt lat="40.457117" lon="-4.835950">
        <ele>1285.0</ele>
        <time>2018-06-23T14:19:03Z</time>
      </trkpt>
      <trkpt lat="40.457117" lon="-4.835867">
        <ele>1283.0</ele>
        <time>2018-06-23T14:19:04Z</time>
      </trkpt>
      <trkpt lat="40.457117" lon="-4.835783">
        <ele>1282.0</ele>
        <time>2018-06-23T14:19:05Z</time>
      </trkpt>
      <trkpt lat="40.457133" lon="-4.835700">
        <ele>1282.0</ele>
        <time>2018-06-23T14:19:06Z</time>
      </trkpt>
      <trkpt lat="40.457133" lon="-4.835617">
        <ele>1281.0</ele>
        <time>2018-06-23T14:19:07Z</time>
      </trkpt>
      <trkpt lat="40.457133" lon="-4.835550">
        <ele>1280.0</ele>
        <time>2018-06-23T14:19:08Z</time>
      </trkpt>
      <trkpt lat="40.457133" lon="-4.835467">
        <ele>1279.0</ele>
        <time>2018-06-23T14:19:09Z</time>
      </trkpt>
      <trkpt lat="40.457150" lon="-4.835400">
        <ele>1277.0</ele>
        <time>2018-06-23T14:19:10Z</time>
      </trkpt>
      <trkpt lat="40.457183" lon="-4.835317">
        <ele>1275.0</ele>
        <time>2018-06-23T14:19:11Z</time>
      </trkpt>
      <trkpt lat="40.457200" lon="-4.835250">
        <ele>1273.0</ele>
        <time>2018-06-23T14:19:12Z</time>
      </trkpt>
      <trkpt lat="40.457217" lon="-4.835183">
        <ele>1271.0</ele>
        <time>2018-06-23T14:19:13Z</time>
      </trkpt>
      <trkpt lat="40.457217" lon="-4.835117">
        <ele>1269.0</ele>
        <time>2018-06-23T14:19:14Z</time>
      </trkpt>
      <trkpt lat="40.457200" lon="-4.835050">
        <ele>1267.0</ele>
        <time>2018-06-23T14:19:15Z</time>
      </trkpt>
      <trkpt lat="40.457183" lon="-4.834983">
        <ele>1266.0</ele>
        <time>2018-06-23T14:19:16Z</time>
      </trkpt>
      <trkpt lat="40.457150" lon="-4.834933">
        <ele>1263.0</ele>
        <time>2018-06-23T14:19:17Z</time>
      </trkpt>
      <trkpt lat="40.457100" lon="-4.834883">
        <ele>1258.0</ele>
        <time>2018-06-23T14:19:18Z</time>
      </trkpt>
      <trkpt lat="40.457033" lon="-4.834850">
        <ele>1253.0</ele>
        <time>2018-06-23T14:19:19Z</time>
      </trkpt>
      <trkpt lat="40.456967" lon="-4.834800">
        <ele>1249.0</ele>
        <time>2018-06-23T14:19:20Z</time>
      </trkpt>
      <trkpt lat="40.456883" lon="-4.834750">
        <ele>1246.0</ele>
        <time>2018-06-23T14:19:21Z</time>
      </trkpt>
      <trkpt lat="40.456800" lon="-4.834717">
        <ele>1244.0</ele>
        <time>2018-06-23T14:19:22Z</time>
      </trkpt>
      <trkpt lat="40.456717" lon="-4.834667">
        <ele>1242.0</ele>
        <time>2018-06-23T14:19:23Z</time>
      </trkpt>
      <trkpt lat="40.456650" lon="-4.834633">
        <ele>1241.0</ele>
        <time>2018-06-23T14:19:24Z</time>
      </trkpt>
      <trkpt lat="40.456567" lon="-4.834600">
        <ele>1240.0</ele>
        <time>2018-06-23T14:19:25Z</time>
      </trkpt>
      <trkpt lat="40.456483" lon="-4.834567">
        <ele>1239.0</ele>
        <time>2018-06-23T14:19:26Z</time>
      </trkpt>
      <trkpt lat="40.456417" lon="-4.834550">
        <ele>1238.0</ele>
        <time>2018-06-23T14:19:27Z</time>
      </trkpt>
      <trkpt lat="40.456333" lon="-4.834533">
        <ele>1238.0</ele>
        <time>2018-06-23T14:19:28Z</time>
      </trkpt>
      <trkpt lat="40.456233" lon="-4.834550">
        <ele>1238.0</ele>
        <time>2018-06-23T14:19:29Z</time>
      </trkpt>
      <trkpt lat="40.456150" lon="-4.834567">
        <ele>1238.0</ele>
        <time>2018-06-23T14:19:30Z</time>
      </trkpt>
      <trkpt lat="40.456067" lon="-4.834583">
        <ele>1239.0</ele>
        <time>2018-06-23T14:19:31Z</time>
      </trkpt>
      <trkpt lat="40.456000" lon="-4.834617">
        <ele>1239.0</ele>
        <time>2018-06-23T14:19:32Z</time>
      </trkpt>
      <trkpt lat="40.455950" lon="-4.834667">
        <ele>1238.0</ele>
        <time>2018-06-23T14:19:33Z</time>
      </trkpt>
      <trkpt lat="40.455867" lon="-4.834700">
        <ele>1236.0</ele>
        <time>2018-06-23T14:19:34Z</time>
      </trkpt>
      <trkpt lat="40.455783" lon="-4.834717">
        <ele>1234.0</ele>
        <time>2018-06-23T14:19:35Z</time>
      </trkpt>
      <trkpt lat="40.455700" lon="-4.834667">
        <ele>1230.0</ele>
        <time>2018-06-23T14:19:36Z</time>
      </trkpt>
      <trkpt lat="40.455617" lon="-4.834617">
        <ele>1228.0</ele>
        <time>2018-06-23T14:19:37Z</time>
      </trkpt>
      <trkpt lat="40.455533" lon="-4.834567">
        <ele>1228.0</ele>
        <time>2018-06-23T14:19:38Z</time>
      </trkpt>
      <trkpt lat="40.455467" lon="-4.834517">
        <ele>1228.0</ele>
        <time>2018-06-23T14:19:39Z</time>
      </trkpt>
      <trkpt lat="40.455400" lon="-4.834500">
        <ele>1227.0</ele>
        <time>2018-06-23T14:19:40Z</time>
      </trkpt>
      <trkpt lat="40.455317" lon="-4.834483">
        <ele>1226.0</ele>
        <time>2018-06-23T14:19:41Z</time>
      </trkpt>
      <trkpt lat="40.455217" lon="-4.834467">
        <ele>1225.0</ele>
        <time>2018-06-23T14:19:42Z</time>
      </trkpt>
      <trkpt lat="40.455133" lon="-4.834467">
        <ele>1226.0</ele>
        <time>2018-06-23T14:19:43Z</time>
      </trkpt>
      <trkpt lat="40.455050" lon="-4.834500">
        <ele>1227.0</ele>
        <time>2018-06-23T14:19:44Z</time>
      </trkpt>
      <trkpt lat="40.454967" lon="-4.834533">
        <ele>1227.0</ele>
        <time>2018-06-23T14:19:45Z</time>
      </trkpt>
      <trkpt lat="40.454900" lon="-4.834600">
        <ele>1226.0</ele>
        <time>2018-06-23T14:19:46Z</time>
      </trkpt>
      <trkpt lat="40.454833" lon="-4.834667">
        <ele>1224.0</ele>
        <time>2018-06-23T14:19:47Z</time>
      </trkpt>
      <trkpt lat="40.454750" lon="-4.834733">
        <ele>1223.0</ele>
        <time>2018-06-23T14:19:48Z</time>
      </trkpt>
      <trkpt lat="40.454667" lon="-4.834800">
        <ele>1221.0</ele>
        <time>2018-06-23T14:19:49Z</time>
      </trkpt>
      <trkpt lat="40.454583" lon="-4.834883">
        <ele>1220.0</ele>
        <time>2018-06-23T14:19:50Z</time>
      </trkpt>
      <trkpt lat="40.454500" lon="-4.834967">
        <ele>1218.0</ele>
        <time>2018-06-23T14:19:51Z</time>
      </trkpt>
      <trkpt lat="40.454417" lon="-4.835050">
        <ele>1217.0</ele>
        <time>2018-06-23T14:19:52Z</time>
      </trkpt>
      <trkpt lat="40.454317" lon="-4.835117">
        <ele>1216.0</ele>
        <time>2018-06-23T14:19:53Z</time>
      </trkpt>
      <trkpt lat="40.454217" lon="-4.835183">
        <ele>1215.0</ele>
        <time>2018-06-23T14:19:54Z</time>
      </trkpt>
      <trkpt lat="40.454117" lon="-4.835217">
        <ele>1213.0</ele>
        <time>2018-06-23T14:19:55Z</time>
      </trkpt>
      <trkpt lat="40.454017" lon="-4.835250">
        <ele>1212.0</ele>
        <time>2018-06-23T14:19:56Z</time>
      </trkpt>
      <trkpt lat="40.453933" lon="-4.835300">
        <ele>1212.0</ele>
        <time>2018-06-23T14:19:57Z</time>
      </trkpt>
      <trkpt lat="40.453850" lon="-4.835317">
        <ele>1210.0</ele>
        <time>2018-06-23T14:19:58Z</time>
      </trkpt>
      <trkpt lat="40.453767" lon="-4.835317">
        <ele>1207.0</ele>
        <time>2018-06-23T14:19:59Z</time>
      </trkpt>
      <trkpt lat="40.453683" lon="-4.835283">
        <ele>1204.0</ele>
        <time>2018-06-23T14:20:00Z</time>
      </trkpt>
      <trkpt lat="40.453583" lon="-4.835250">
        <ele>1202.0</ele>
        <time>2018-06-23T14:20:01Z</time>
      </trkpt>
      <trkpt lat="40.453500" lon="-4.835200">
        <ele>1201.0</ele>
        <time>2018-06-23T14:20:02Z</time>
      </trkpt>
      <trkpt lat="40.453433" lon="-4.835167">
        <ele>1201.0</ele>
        <time>2018-06-23T14:20:03Z</time>
      </trkpt>
      <trkpt lat="40.453367" lon="-4.835150">
        <ele>1200.0</ele>
        <time>2018-06-23T14:20:04Z</time>
      </trkpt>
      <trkpt lat="40.453317" lon="-4.835100">
        <ele>1198.0</ele>
        <time>2018-06-23T14:20:05Z</time>
      </trkpt>
      <trkpt lat="40.453267" lon="-4.835050">
        <ele>1195.0</ele>
        <time>2018-06-23T14:20:06Z</time>
      </trkpt>
      <trkpt lat="40.453233" lon="-4.834967">
        <ele>1192.0</ele>
        <time>2018-06-23T14:20:07Z</time>
      </trkpt>
      <trkpt lat="40.453183" lon="-4.834883">
        <ele>1191.0</ele>
        <time>2018-06-23T14:20:08Z</time>
      </trkpt>
      <trkpt lat="40.453150" lon="-4.834817">
        <ele>1191.0</ele>
        <time>2018-06-23T14:20:09Z</time>
      </trkpt>
      <trkpt lat="40.453117" lon="-4.834767">
        <ele>1190.0</ele>
        <time>2018-06-23T14:20:10Z</time>
      </trkpt>
      <trkpt lat="40.453117" lon="-4.834700">
        <ele>1189.0</ele>
        <time>2018-06-23T14:20:11Z</time>
      </trkpt>
      <trkpt lat="40.453150" lon="-4.834617">
        <ele>1186.0</ele>
        <time>2018-06-23T14:20:12Z</time>
      </trkpt>
      <trkpt lat="40.453200" lon="-4.834567">
        <ele>1184.0</ele>
        <time>2018-06-23T14:20:13Z</time>
      </trkpt>
      <trkpt lat="40.453250" lon="-4.834517">
        <ele>1184.0</ele>
        <time>2018-06-23T14:20:14Z</time>
      </trkpt>
      <trkpt lat="40.453300" lon="-4.834467">
        <ele>1185.0</ele>
        <time>2018-06-23T14:20:15Z</time>
      </trkpt>
      <trkpt lat="40.453317" lon="-4.834400">
        <ele>1186.0</ele>
        <time>2018-06-23T14:20:16Z</time>
      </trkpt>
      <trkpt lat="40.453317" lon="-4.834333">
        <ele>1186.0</ele>
        <time>2018-06-23T14:20:17Z</time>
      </trkpt>
      <trkpt lat="40.453317" lon="-4.834250">
        <ele>1187.0</ele>
        <time>2018-06-23T14:20:18Z</time>
      </trkpt>
      <trkpt lat="40.453333" lon="-4.834167">
        <ele>1187.0</ele>
        <time>2018-06-23T14:20:19Z</time>
      </trkpt>
      <trkpt lat="40.453367" lon="-4.834117">
        <ele>1188.0</ele>
        <time>2018-06-23T14:20:20Z</time>
      </trkpt>
      <trkpt lat="40.453400" lon="-4.834083">
        <ele>1187.0</ele>
        <time>2018-06-23T14:20:21Z</time>
      </trkpt>
      <trkpt lat="40.453433" lon="-4.834033">
        <ele>1186.0</ele>
        <time>2018-06-23T14:20:22Z</time>
      </trkpt>
      <trkpt lat="40.453450" lon="-4.833967">
        <ele>1185.0</ele>
        <time>2018-06-23T14:20:23Z</time>
      </trkpt>
      <trkpt lat="40.453483" lon="-4.833900">
        <ele>1184.0</ele>
        <time>2018-06-23T14:20:24Z</time>
      </trkpt>
      <trkpt lat="40.453517" lon="-4.833833">
        <ele>1183.0</ele>
        <time>2018-06-23T14:20:25Z</time>
      </trkpt>
      <trkpt lat="40.453550" lon="-4.833767">
        <ele>1182.0</ele>
        <time>2018-06-23T14:20:26Z</time>
      </trkpt>
      <trkpt lat="40.453583" lon="-4.833717">
        <ele>1182.0</ele>
        <time>2018-06-23T14:20:27Z</time>
      </trkpt>
      <trkpt lat="40.453617" lon="-4.833667">
        <ele>1181.0</ele>
        <time>2018-06-23T14:20:28Z</time>
      </trkpt>
      <trkpt lat="40.453650" lon="-4.833633">
        <ele>1181.0</ele>
        <time>2018-06-23T14:20:29Z</time>
      </trkpt>
      <trkpt lat="40.453667" lon="-4.833600">
        <ele>1179.0</ele>
        <time>2018-06-23T14:20:30Z</time>
      </trkpt>
      <trkpt lat="40.453667" lon="-4.833583">
        <ele>1176.0</ele>
        <time>2018-06-23T14:20:31Z</time>
      </trkpt>
      <trkpt lat="40.453667" lon="-4.833567">
        <ele>1173.0</ele>
        <time>2018-06-23T14:20:32Z</time>
      </trkpt>
      <trkpt lat="40.453683" lon="-4.833567">
        <ele>1170.0</ele>
        <time>2018-06-23T14:20:33Z</time>
      </trkpt>
      <trkpt lat="40.453683" lon="-4.833583">
        <ele>1169.0</ele>
        <time>2018-06-23T14:20:34Z</time>
      </trkpt>
      <trkpt lat="40.453700" lon="-4.833583">
        <ele>1168.0</ele>
        <time>2018-06-23T14:20:35Z</time>
      </trkpt>
      <trkpt lat="40.453700" lon="-4.833583">
        <ele>1167.0</ele>
        <time>2018-06-23T14:20:36Z</time>
      </trkpt>
      <trkpt lat="40.453700" lon="-4.833567">
        <ele>1165.0</ele>
        <time>2018-06-23T14:20:37Z</time>
      </trkpt>
      <trkpt lat="40.453717" lon="-4.833583">
        <ele>1165.0</ele>
        <time>2018-06-23T14:20:38Z</time>
      </trkpt>
      <trkpt lat="40.453717" lon="-4.833583">
        <ele>1164.0</ele>
        <time>2018-06-23T14:20:39Z</time>
      </trkpt>
      <trkpt lat="40.453733" lon="-4.833583">
        <ele>1163.0</ele>
        <time>2018-06-23T14:20:40Z</time>
      </trkpt>
      <trkpt lat="40.453750" lon="-4.833583">
        <ele>1162.0</ele>
        <time>2018-06-23T14:20:41Z</time>
      </trkpt>
      <trkpt lat="40.453750" lon="-4.833600">
        <ele>1161.0</ele>
        <time>2018-06-23T14:20:42Z</time>
      </trkpt>
      <trkpt lat="40.453750" lon="-4.833600">
        <ele>1161.0</ele>
        <time>2018-06-23T14:20:43Z</time>
      </trkpt>
      <trkpt lat="40.453733" lon="-4.833583">
        <ele>1161.0</ele>
        <time>2018-06-23T14:20:44Z</time>
      </trkpt>
      <trkpt lat="40.453733" lon="-4.833583">
        <ele>1161.0</ele>
        <time>2018-06-23T14:20:45Z</time>
      </trkpt>
      <trkpt lat="40.453733" lon="-4.833583">
        <ele>1162.0</ele>
        <time>2018-06-23T14:20:46Z</time>
      </trkpt>
      <trkpt lat="40.453733" lon="-4.833583">
        <ele>1160.0</ele>
        <time>2018-06-23T14:20:47Z</time>
      </trkpt>
      <trkpt lat="40.453733" lon="-4.833583">
        <ele>1162.0</ele>
        <time>2018-06-23T14:20:48Z</time>
      </trkpt>
      <trkpt lat="40.453717" lon="-4.833583">
        <ele>1163.0</ele>
        <time>2018-06-23T14:20:49Z</time>
      </trkpt>
      <trkpt lat="40.453717" lon="-4.833600">
        <ele>1165.0</ele>
        <time>2018-06-23T14:20:50Z</time>
      </trkpt>
      <trkpt lat="40.453717" lon="-4.833583">
        <ele>1164.0</ele>
        <time>2018-06-23T14:20:51Z</time>
      </trkpt>
      <trkpt lat="40.453717" lon="-4.833583">
        <ele>1164.0</ele>
        <time>2018-06-23T14:20:52Z</time>
      </trkpt>
      <trkpt lat="40.453700" lon="-4.833583">
        <ele>1165.0</ele>
        <time>2018-06-23T14:20:53Z</time>
      </trkpt>
      <trkpt lat="40.453700" lon="-4.833583">
        <ele>1166.0</ele>
        <time>2018-06-23T14:20:54Z</time>
      </trkpt>
      <trkpt lat="40.453700" lon="-4.833583">
        <ele>1167.0</ele>
        <time>2018-06-23T14:20:55Z</time>
      </trkpt>
      <trkpt lat="40.453700" lon="-4.833567">
        <ele>1168.0</ele>
        <time>2018-06-23T14:20:56Z</time>
      </trkpt>
      <trkpt lat="40.453700" lon="-4.833567">
        <ele>1168.0</ele>
        <time>2018-06-23T14:20:57Z</time>
      </trkpt>
      <trkpt lat="40.453700" lon="-4.833567">
        <ele>1167.0</ele>
        <time>2018-06-23T14:20:58Z</time>
      </trkpt>
      <trkpt lat="40.453700" lon="-4.833567">
        <ele>1168.0</ele>
        <time>2018-06-23T14:20:59Z</time>
      </trkpt>
      <trkpt lat="40.453700" lon="-4.833567">
        <ele>1168.0</ele>
        <time>2018-06-23T14:21:00Z</time>
      </trkpt>
      <trkpt lat="40.453700" lon="-4.833567">
        <ele>1170.0</ele>
        <time>2018-06-23T14:21:01Z</time>
      </trkpt>
      <trkpt lat="40.453700" lon="-4.833567">
        <ele>1169.0</ele>
        <time>2018-06-23T14:21:02Z</time>
      </trkpt>
      <trkpt lat="40.453683" lon="-4.833550">
        <ele>1169.0</ele>
        <time>2018-06-23T14:21:03Z</time>
      </trkpt>
      <trkpt lat="40.453683" lon="-4.833567">
        <ele>1171.0</ele>
        <time>2018-06-23T14:21:04Z</time>
      </trkpt>
      <trkpt lat="40.453683" lon="-4.833567">
        <ele>1171.0</ele>
        <time>2018-06-23T14:21:05Z</time>
      </trkpt>
      <trkpt lat="40.453667" lon="-4.833567">
        <ele>1171.0</ele>
        <time>2018-06-23T14:21:06Z</time>
      </trkpt>
      <trkpt lat="40.453683" lon="-4.833567">
        <ele>1171.0</ele>
        <time>2018-06-23T14:21:07Z</time>
      </trkpt>
      <trkpt lat="40.453683" lon="-4.833567">
        <ele>1171.0</ele>
        <time>2018-06-23T14:21:08Z</time>
      </trkpt>
      <trkpt lat="40.453683" lon="-4.833567">
        <ele>1170.0</ele>
        <time>2018-06-23T14:21:09Z</time>
      </trkpt>
      <trkpt lat="40.453667" lon="-4.833567">
        <ele>1170.0</ele>
        <time>2018-06-23T14:21:10Z</time>
      </trkpt>
      <trkpt lat="40.453683" lon="-4.833567">
        <ele>1169.0</ele>
        <time>2018-06-23T14:21:11Z</time>
      </trkpt>
      <trkpt lat="40.453683" lon="-4.833567">
        <ele>1170.0</ele>
        <time>2018-06-23T14:21:12Z</time>
      </trkpt>
      <trkpt lat="40.453683" lon="-4.833583">
        <ele>1170.0</ele>
        <time>2018-06-23T14:21:13Z</time>
      </trkpt>
    </trkseg>
  </trk>
</gpx>
